<?xml version="1.0" encoding="UTF-8" standalone="no" ?>
<gpx xmlns="http://www.topografix.com/GPX/1/1" xmlns:xsi="http://www.w3.org/2001/XMLSchema-instance" xsi:schemaLocation="http://www.topografix.com/GPX/1/1 http://www.topografix.com/GPX/1/1/gpx.xsd" version="1.1" creator="VisuGPX - https://www.visugpx.com">
  <metadata>
    <name>Randonnée Trizay 30.06.2018</name>
    <desc><![CDATA[Petite randonnée gourmande bien sympathique avec des amis.]]></desc>
  </metadata>
  <trk>
    <name><![CDATA[Randonnée Trizay 30.06.2018_1]]></name>
    <trkseg>
      <trkpt lat="45.88261" lon="-0.89571">
        <ele>11</ele>
        <time>2018-06-30T17:15:35.000Z</time>
      </trkpt>
      <trkpt lat="45.88261" lon="-0.89571">
        <ele>11</ele>
        <time>2018-06-30T17:15:36.000Z</time>
      </trkpt>
      <trkpt lat="45.88261" lon="-0.89571">
        <ele>11</ele>
        <time>2018-06-30T17:15:37.000Z</time>
      </trkpt>
      <trkpt lat="45.88261" lon="-0.89571">
        <ele>11</ele>
        <time>2018-06-30T17:15:38.000Z</time>
      </trkpt>
      <trkpt lat="45.88262" lon="-0.89571">
        <ele>11</ele>
        <time>2018-06-30T17:15:39.000Z</time>
      </trkpt>
      <trkpt lat="45.88262" lon="-0.89572">
        <ele>11</ele>
        <time>2018-06-30T17:15:40.000Z</time>
      </trkpt>
      <trkpt lat="45.88263" lon="-0.89572">
        <ele>10</ele>
        <time>2018-06-30T17:15:41.000Z</time>
      </trkpt>
      <trkpt lat="45.88264" lon="-0.89573">
        <ele>10</ele>
        <time>2018-06-30T17:15:42.000Z</time>
      </trkpt>
      <trkpt lat="45.88264" lon="-0.89574">
        <ele>10</ele>
        <time>2018-06-30T17:15:43.000Z</time>
      </trkpt>
      <trkpt lat="45.88265" lon="-0.89575">
        <ele>10</ele>
        <time>2018-06-30T17:15:44.000Z</time>
      </trkpt>
      <trkpt lat="45.88265" lon="-0.89576">
        <ele>10</ele>
        <time>2018-06-30T17:15:45.000Z</time>
      </trkpt>
      <trkpt lat="45.88265" lon="-0.89577">
        <ele>10</ele>
        <time>2018-06-30T17:15:46.000Z</time>
      </trkpt>
      <trkpt lat="45.88265" lon="-0.89578">
        <ele>10</ele>
        <time>2018-06-30T17:15:47.000Z</time>
      </trkpt>
      <trkpt lat="45.88266" lon="-0.89579">
        <ele>10</ele>
        <time>2018-06-30T17:15:48.000Z</time>
      </trkpt>
      <trkpt lat="45.88266" lon="-0.89581">
        <ele>10</ele>
        <time>2018-06-30T17:15:49.000Z</time>
      </trkpt>
      <trkpt lat="45.88266" lon="-0.89582">
        <ele>10</ele>
        <time>2018-06-30T17:15:50.000Z</time>
      </trkpt>
      <trkpt lat="45.88266" lon="-0.89583">
        <ele>10</ele>
        <time>2018-06-30T17:15:51.000Z</time>
      </trkpt>
      <trkpt lat="45.88267" lon="-0.89584">
        <ele>10</ele>
        <time>2018-06-30T17:15:52.000Z</time>
      </trkpt>
      <trkpt lat="45.88267" lon="-0.89585">
        <ele>11</ele>
        <time>2018-06-30T17:15:53.000Z</time>
      </trkpt>
      <trkpt lat="45.88267" lon="-0.89587">
        <ele>11</ele>
        <time>2018-06-30T17:15:54.000Z</time>
      </trkpt>
      <trkpt lat="45.88267" lon="-0.89588">
        <ele>11</ele>
        <time>2018-06-30T17:15:55.000Z</time>
      </trkpt>
      <trkpt lat="45.88267" lon="-0.89589">
        <ele>11</ele>
        <time>2018-06-30T17:15:56.000Z</time>
      </trkpt>
      <trkpt lat="45.88267" lon="-0.8959">
        <ele>11</ele>
        <time>2018-06-30T17:15:57.000Z</time>
      </trkpt>
      <trkpt lat="45.88267" lon="-0.89592">
        <ele>11</ele>
        <time>2018-06-30T17:15:58.000Z</time>
      </trkpt>
      <trkpt lat="45.88267" lon="-0.89593">
        <ele>12</ele>
        <time>2018-06-30T17:15:59.000Z</time>
      </trkpt>
      <trkpt lat="45.88267" lon="-0.89595">
        <ele>12</ele>
        <time>2018-06-30T17:16:00.000Z</time>
      </trkpt>
      <trkpt lat="45.88267" lon="-0.89597">
        <ele>12</ele>
        <time>2018-06-30T17:16:01.000Z</time>
      </trkpt>
      <trkpt lat="45.88267" lon="-0.89599">
        <ele>13</ele>
        <time>2018-06-30T17:16:02.000Z</time>
      </trkpt>
      <trkpt lat="45.88267" lon="-0.89601">
        <ele>13</ele>
        <time>2018-06-30T17:16:03.000Z</time>
      </trkpt>
      <trkpt lat="45.88267" lon="-0.89602">
        <ele>14</ele>
        <time>2018-06-30T17:16:04.000Z</time>
      </trkpt>
      <trkpt lat="45.88267" lon="-0.89603">
        <ele>15</ele>
        <time>2018-06-30T17:16:05.000Z</time>
      </trkpt>
      <trkpt lat="45.88267" lon="-0.89604">
        <ele>15</ele>
        <time>2018-06-30T17:16:06.000Z</time>
      </trkpt>
      <trkpt lat="45.88267" lon="-0.89606">
        <ele>14</ele>
        <time>2018-06-30T17:16:07.000Z</time>
      </trkpt>
      <trkpt lat="45.88268" lon="-0.89607">
        <ele>14</ele>
        <time>2018-06-30T17:16:08.000Z</time>
      </trkpt>
      <trkpt lat="45.88268" lon="-0.89609">
        <ele>14</ele>
        <time>2018-06-30T17:16:09.000Z</time>
      </trkpt>
      <trkpt lat="45.88268" lon="-0.89611">
        <ele>15</ele>
        <time>2018-06-30T17:16:10.000Z</time>
      </trkpt>
      <trkpt lat="45.88268" lon="-0.89612">
        <ele>14</ele>
        <time>2018-06-30T17:16:11.000Z</time>
      </trkpt>
      <trkpt lat="45.88268" lon="-0.89614">
        <ele>14</ele>
        <time>2018-06-30T17:16:12.000Z</time>
      </trkpt>
      <trkpt lat="45.88267" lon="-0.89615">
        <ele>15</ele>
        <time>2018-06-30T17:16:13.000Z</time>
      </trkpt>
      <trkpt lat="45.88267" lon="-0.89616">
        <ele>15</ele>
        <time>2018-06-30T17:16:14.000Z</time>
      </trkpt>
      <trkpt lat="45.88267" lon="-0.89617">
        <ele>15</ele>
        <time>2018-06-30T17:16:15.000Z</time>
      </trkpt>
      <trkpt lat="45.88267" lon="-0.89618">
        <ele>16</ele>
        <time>2018-06-30T17:16:16.000Z</time>
      </trkpt>
      <trkpt lat="45.88267" lon="-0.8962">
        <ele>16</ele>
        <time>2018-06-30T17:16:17.000Z</time>
      </trkpt>
      <trkpt lat="45.88267" lon="-0.89621">
        <ele>16</ele>
        <time>2018-06-30T17:16:18.000Z</time>
      </trkpt>
      <trkpt lat="45.88266" lon="-0.89622">
        <ele>16</ele>
        <time>2018-06-30T17:16:19.000Z</time>
      </trkpt>
      <trkpt lat="45.88267" lon="-0.89624">
        <ele>14</ele>
        <time>2018-06-30T17:16:20.000Z</time>
      </trkpt>
      <trkpt lat="45.88267" lon="-0.89626">
        <ele>13</ele>
        <time>2018-06-30T17:16:21.000Z</time>
      </trkpt>
      <trkpt lat="45.88268" lon="-0.89628">
        <ele>13</ele>
        <time>2018-06-30T17:16:22.000Z</time>
      </trkpt>
      <trkpt lat="45.88268" lon="-0.89629">
        <ele>13</ele>
        <time>2018-06-30T17:16:23.000Z</time>
      </trkpt>
      <trkpt lat="45.88268" lon="-0.89631">
        <ele>13</ele>
        <time>2018-06-30T17:16:24.000Z</time>
      </trkpt>
      <trkpt lat="45.88268" lon="-0.89633">
        <ele>13</ele>
        <time>2018-06-30T17:16:25.000Z</time>
      </trkpt>
      <trkpt lat="45.88269" lon="-0.89635">
        <ele>13</ele>
        <time>2018-06-30T17:16:26.000Z</time>
      </trkpt>
      <trkpt lat="45.88269" lon="-0.89636">
        <ele>13</ele>
        <time>2018-06-30T17:16:27.000Z</time>
      </trkpt>
      <trkpt lat="45.8827" lon="-0.89637">
        <ele>13</ele>
        <time>2018-06-30T17:16:28.000Z</time>
      </trkpt>
      <trkpt lat="45.88271" lon="-0.89638">
        <ele>13</ele>
        <time>2018-06-30T17:16:29.000Z</time>
      </trkpt>
      <trkpt lat="45.88272" lon="-0.89639">
        <ele>13</ele>
        <time>2018-06-30T17:16:30.000Z</time>
      </trkpt>
      <trkpt lat="45.88273" lon="-0.8964">
        <ele>13</ele>
        <time>2018-06-30T17:16:31.000Z</time>
      </trkpt>
      <trkpt lat="45.88274" lon="-0.8964">
        <ele>14</ele>
        <time>2018-06-30T17:16:32.000Z</time>
      </trkpt>
      <trkpt lat="45.88275" lon="-0.89639">
        <ele>12</ele>
        <time>2018-06-30T17:16:33.000Z</time>
      </trkpt>
      <trkpt lat="45.88276" lon="-0.89639">
        <ele>12</ele>
        <time>2018-06-30T17:16:34.000Z</time>
      </trkpt>
      <trkpt lat="45.88278" lon="-0.89639">
        <ele>12</ele>
        <time>2018-06-30T17:16:35.000Z</time>
      </trkpt>
      <trkpt lat="45.88279" lon="-0.89638">
        <ele>11</ele>
        <time>2018-06-30T17:16:36.000Z</time>
      </trkpt>
      <trkpt lat="45.8828" lon="-0.89638">
        <ele>11</ele>
        <time>2018-06-30T17:16:37.000Z</time>
      </trkpt>
      <trkpt lat="45.88281" lon="-0.89638">
        <ele>11</ele>
        <time>2018-06-30T17:16:38.000Z</time>
      </trkpt>
      <trkpt lat="45.88282" lon="-0.89638">
        <ele>12</ele>
        <time>2018-06-30T17:16:39.000Z</time>
      </trkpt>
      <trkpt lat="45.88283" lon="-0.89637">
        <ele>12</ele>
        <time>2018-06-30T17:16:40.000Z</time>
      </trkpt>
      <trkpt lat="45.88284" lon="-0.89637">
        <ele>11</ele>
        <time>2018-06-30T17:16:41.000Z</time>
      </trkpt>
      <trkpt lat="45.88285" lon="-0.89637">
        <ele>11</ele>
        <time>2018-06-30T17:16:42.000Z</time>
      </trkpt>
      <trkpt lat="45.88286" lon="-0.89637">
        <ele>11</ele>
        <time>2018-06-30T17:16:43.000Z</time>
      </trkpt>
      <trkpt lat="45.88287" lon="-0.89637">
        <ele>11</ele>
        <time>2018-06-30T17:16:44.000Z</time>
      </trkpt>
      <trkpt lat="45.88288" lon="-0.89636">
        <ele>11</ele>
        <time>2018-06-30T17:16:45.000Z</time>
      </trkpt>
      <trkpt lat="45.88289" lon="-0.89637">
        <ele>10</ele>
        <time>2018-06-30T17:16:46.000Z</time>
      </trkpt>
      <trkpt lat="45.8829" lon="-0.89637">
        <ele>10</ele>
        <time>2018-06-30T17:16:47.000Z</time>
      </trkpt>
      <trkpt lat="45.88291" lon="-0.89637">
        <ele>9</ele>
        <time>2018-06-30T17:16:48.000Z</time>
      </trkpt>
      <trkpt lat="45.88292" lon="-0.89637">
        <ele>9</ele>
        <time>2018-06-30T17:16:49.000Z</time>
      </trkpt>
      <trkpt lat="45.88293" lon="-0.89637">
        <ele>9</ele>
        <time>2018-06-30T17:16:50.000Z</time>
      </trkpt>
      <trkpt lat="45.88294" lon="-0.89638">
        <ele>9</ele>
        <time>2018-06-30T17:16:51.000Z</time>
      </trkpt>
      <trkpt lat="45.88295" lon="-0.89638">
        <ele>9</ele>
        <time>2018-06-30T17:16:52.000Z</time>
      </trkpt>
      <trkpt lat="45.88296" lon="-0.89638">
        <ele>9</ele>
        <time>2018-06-30T17:16:53.000Z</time>
      </trkpt>
      <trkpt lat="45.88297" lon="-0.89638">
        <ele>9</ele>
        <time>2018-06-30T17:16:54.000Z</time>
      </trkpt>
      <trkpt lat="45.88299" lon="-0.89638">
        <ele>9</ele>
        <time>2018-06-30T17:16:55.000Z</time>
      </trkpt>
      <trkpt lat="45.883" lon="-0.89639">
        <ele>10</ele>
        <time>2018-06-30T17:16:56.000Z</time>
      </trkpt>
      <trkpt lat="45.88301" lon="-0.89639">
        <ele>10</ele>
        <time>2018-06-30T17:16:57.000Z</time>
      </trkpt>
      <trkpt lat="45.88302" lon="-0.89639">
        <ele>10</ele>
        <time>2018-06-30T17:16:58.000Z</time>
      </trkpt>
      <trkpt lat="45.88304" lon="-0.89639">
        <ele>10</ele>
        <time>2018-06-30T17:16:59.000Z</time>
      </trkpt>
      <trkpt lat="45.88305" lon="-0.89639">
        <ele>10</ele>
        <time>2018-06-30T17:17:00.000Z</time>
      </trkpt>
      <trkpt lat="45.88306" lon="-0.89638">
        <ele>11</ele>
        <time>2018-06-30T17:17:01.000Z</time>
      </trkpt>
      <trkpt lat="45.88307" lon="-0.89638">
        <ele>11</ele>
        <time>2018-06-30T17:17:02.000Z</time>
      </trkpt>
      <trkpt lat="45.88308" lon="-0.89638">
        <ele>11</ele>
        <time>2018-06-30T17:17:03.000Z</time>
      </trkpt>
      <trkpt lat="45.88309" lon="-0.89637">
        <ele>11</ele>
        <time>2018-06-30T17:17:04.000Z</time>
      </trkpt>
      <trkpt lat="45.8831" lon="-0.89637">
        <ele>11</ele>
        <time>2018-06-30T17:17:05.000Z</time>
      </trkpt>
      <trkpt lat="45.88311" lon="-0.89637">
        <ele>12</ele>
        <time>2018-06-30T17:17:06.000Z</time>
      </trkpt>
      <trkpt lat="45.88312" lon="-0.89637">
        <ele>12</ele>
        <time>2018-06-30T17:17:07.000Z</time>
      </trkpt>
      <trkpt lat="45.88313" lon="-0.89637">
        <ele>12</ele>
        <time>2018-06-30T17:17:08.000Z</time>
      </trkpt>
      <trkpt lat="45.88314" lon="-0.89637">
        <ele>13</ele>
        <time>2018-06-30T17:17:09.000Z</time>
      </trkpt>
      <trkpt lat="45.88315" lon="-0.89636">
        <ele>13</ele>
        <time>2018-06-30T17:17:10.000Z</time>
      </trkpt>
      <trkpt lat="45.88316" lon="-0.89637">
        <ele>13</ele>
        <time>2018-06-30T17:17:11.000Z</time>
      </trkpt>
      <trkpt lat="45.88318" lon="-0.89637">
        <ele>13</ele>
        <time>2018-06-30T17:17:12.000Z</time>
      </trkpt>
      <trkpt lat="45.88319" lon="-0.89637">
        <ele>13</ele>
        <time>2018-06-30T17:17:13.000Z</time>
      </trkpt>
      <trkpt lat="45.8832" lon="-0.89637">
        <ele>12</ele>
        <time>2018-06-30T17:17:14.000Z</time>
      </trkpt>
      <trkpt lat="45.88321" lon="-0.89637">
        <ele>12</ele>
        <time>2018-06-30T17:17:15.000Z</time>
      </trkpt>
      <trkpt lat="45.88323" lon="-0.89637">
        <ele>12</ele>
        <time>2018-06-30T17:17:16.000Z</time>
      </trkpt>
      <trkpt lat="45.88324" lon="-0.89636">
        <ele>11</ele>
        <time>2018-06-30T17:17:17.000Z</time>
      </trkpt>
      <trkpt lat="45.88325" lon="-0.89636">
        <ele>11</ele>
        <time>2018-06-30T17:17:18.000Z</time>
      </trkpt>
      <trkpt lat="45.88326" lon="-0.89636">
        <ele>11</ele>
        <time>2018-06-30T17:17:19.000Z</time>
      </trkpt>
      <trkpt lat="45.88328" lon="-0.89635">
        <ele>11</ele>
        <time>2018-06-30T17:17:20.000Z</time>
      </trkpt>
      <trkpt lat="45.88329" lon="-0.89635">
        <ele>11</ele>
        <time>2018-06-30T17:17:21.000Z</time>
      </trkpt>
      <trkpt lat="45.8833" lon="-0.89635">
        <ele>11</ele>
        <time>2018-06-30T17:17:22.000Z</time>
      </trkpt>
      <trkpt lat="45.88331" lon="-0.89635">
        <ele>11</ele>
        <time>2018-06-30T17:17:23.000Z</time>
      </trkpt>
      <trkpt lat="45.88332" lon="-0.89635">
        <ele>12</ele>
        <time>2018-06-30T17:17:24.000Z</time>
      </trkpt>
      <trkpt lat="45.88333" lon="-0.89635">
        <ele>12</ele>
        <time>2018-06-30T17:17:25.000Z</time>
      </trkpt>
      <trkpt lat="45.88334" lon="-0.89635">
        <ele>12</ele>
        <time>2018-06-30T17:17:26.000Z</time>
      </trkpt>
      <trkpt lat="45.88335" lon="-0.89635">
        <ele>13</ele>
        <time>2018-06-30T17:17:27.000Z</time>
      </trkpt>
      <trkpt lat="45.88336" lon="-0.89634">
        <ele>13</ele>
        <time>2018-06-30T17:17:28.000Z</time>
      </trkpt>
      <trkpt lat="45.88337" lon="-0.89634">
        <ele>13</ele>
        <time>2018-06-30T17:17:29.000Z</time>
      </trkpt>
      <trkpt lat="45.88338" lon="-0.89634">
        <ele>13</ele>
        <time>2018-06-30T17:17:30.000Z</time>
      </trkpt>
      <trkpt lat="45.8834" lon="-0.89634">
        <ele>13</ele>
        <time>2018-06-30T17:17:31.000Z</time>
      </trkpt>
      <trkpt lat="45.88341" lon="-0.89634">
        <ele>13</ele>
        <time>2018-06-30T17:17:32.000Z</time>
      </trkpt>
      <trkpt lat="45.88342" lon="-0.89634">
        <ele>13</ele>
        <time>2018-06-30T17:17:33.000Z</time>
      </trkpt>
      <trkpt lat="45.88343" lon="-0.89634">
        <ele>13</ele>
        <time>2018-06-30T17:17:34.000Z</time>
      </trkpt>
      <trkpt lat="45.88344" lon="-0.89634">
        <ele>14</ele>
        <time>2018-06-30T17:17:35.000Z</time>
      </trkpt>
      <trkpt lat="45.88345" lon="-0.89634">
        <ele>14</ele>
        <time>2018-06-30T17:17:36.000Z</time>
      </trkpt>
      <trkpt lat="45.88346" lon="-0.89633">
        <ele>14</ele>
        <time>2018-06-30T17:17:37.000Z</time>
      </trkpt>
      <trkpt lat="45.88347" lon="-0.89633">
        <ele>14</ele>
        <time>2018-06-30T17:17:38.000Z</time>
      </trkpt>
      <trkpt lat="45.88348" lon="-0.89633">
        <ele>15</ele>
        <time>2018-06-30T17:17:39.000Z</time>
      </trkpt>
      <trkpt lat="45.8835" lon="-0.89633">
        <ele>15</ele>
        <time>2018-06-30T17:17:40.000Z</time>
      </trkpt>
      <trkpt lat="45.88351" lon="-0.89633">
        <ele>14</ele>
        <time>2018-06-30T17:17:41.000Z</time>
      </trkpt>
      <trkpt lat="45.88352" lon="-0.89634">
        <ele>14</ele>
        <time>2018-06-30T17:17:42.000Z</time>
      </trkpt>
      <trkpt lat="45.88353" lon="-0.89634">
        <ele>14</ele>
        <time>2018-06-30T17:17:43.000Z</time>
      </trkpt>
      <trkpt lat="45.88354" lon="-0.89634">
        <ele>14</ele>
        <time>2018-06-30T17:17:44.000Z</time>
      </trkpt>
      <trkpt lat="45.88355" lon="-0.89634">
        <ele>13</ele>
        <time>2018-06-30T17:17:45.000Z</time>
      </trkpt>
      <trkpt lat="45.88357" lon="-0.89634">
        <ele>13</ele>
        <time>2018-06-30T17:17:46.000Z</time>
      </trkpt>
      <trkpt lat="45.88358" lon="-0.89634">
        <ele>14</ele>
        <time>2018-06-30T17:17:47.000Z</time>
      </trkpt>
      <trkpt lat="45.88359" lon="-0.89634">
        <ele>14</ele>
        <time>2018-06-30T17:17:48.000Z</time>
      </trkpt>
      <trkpt lat="45.88361" lon="-0.89633">
        <ele>13</ele>
        <time>2018-06-30T17:17:49.000Z</time>
      </trkpt>
      <trkpt lat="45.88362" lon="-0.89633">
        <ele>13</ele>
        <time>2018-06-30T17:17:50.000Z</time>
      </trkpt>
      <trkpt lat="45.88363" lon="-0.89633">
        <ele>13</ele>
        <time>2018-06-30T17:17:51.000Z</time>
      </trkpt>
      <trkpt lat="45.88364" lon="-0.89633">
        <ele>14</ele>
        <time>2018-06-30T17:17:52.000Z</time>
      </trkpt>
      <trkpt lat="45.88366" lon="-0.89632">
        <ele>14</ele>
        <time>2018-06-30T17:17:53.000Z</time>
      </trkpt>
      <trkpt lat="45.88367" lon="-0.89632">
        <ele>14</ele>
        <time>2018-06-30T17:17:54.000Z</time>
      </trkpt>
      <trkpt lat="45.88369" lon="-0.89632">
        <ele>14</ele>
        <time>2018-06-30T17:17:55.000Z</time>
      </trkpt>
      <trkpt lat="45.8837" lon="-0.89632">
        <ele>14</ele>
        <time>2018-06-30T17:17:56.000Z</time>
      </trkpt>
      <trkpt lat="45.88371" lon="-0.89632">
        <ele>14</ele>
        <time>2018-06-30T17:17:57.000Z</time>
      </trkpt>
      <trkpt lat="45.88373" lon="-0.89632">
        <ele>14</ele>
        <time>2018-06-30T17:17:58.000Z</time>
      </trkpt>
      <trkpt lat="45.88374" lon="-0.89632">
        <ele>14</ele>
        <time>2018-06-30T17:17:59.000Z</time>
      </trkpt>
      <trkpt lat="45.88375" lon="-0.89632">
        <ele>14</ele>
        <time>2018-06-30T17:18:00.000Z</time>
      </trkpt>
      <trkpt lat="45.88376" lon="-0.89632">
        <ele>14</ele>
        <time>2018-06-30T17:18:01.000Z</time>
      </trkpt>
      <trkpt lat="45.88378" lon="-0.89632">
        <ele>14</ele>
        <time>2018-06-30T17:18:02.000Z</time>
      </trkpt>
      <trkpt lat="45.88379" lon="-0.89632">
        <ele>15</ele>
        <time>2018-06-30T17:18:03.000Z</time>
      </trkpt>
      <trkpt lat="45.8838" lon="-0.89632">
        <ele>15</ele>
        <time>2018-06-30T17:18:04.000Z</time>
      </trkpt>
      <trkpt lat="45.88381" lon="-0.89632">
        <ele>14</ele>
        <time>2018-06-30T17:18:05.000Z</time>
      </trkpt>
      <trkpt lat="45.88382" lon="-0.89631">
        <ele>14</ele>
        <time>2018-06-30T17:18:06.000Z</time>
      </trkpt>
      <trkpt lat="45.88384" lon="-0.89631">
        <ele>14</ele>
        <time>2018-06-30T17:18:07.000Z</time>
      </trkpt>
      <trkpt lat="45.88385" lon="-0.89631">
        <ele>14</ele>
        <time>2018-06-30T17:18:08.000Z</time>
      </trkpt>
      <trkpt lat="45.88386" lon="-0.89631">
        <ele>14</ele>
        <time>2018-06-30T17:18:09.000Z</time>
      </trkpt>
      <trkpt lat="45.88388" lon="-0.89631">
        <ele>14</ele>
        <time>2018-06-30T17:18:10.000Z</time>
      </trkpt>
      <trkpt lat="45.88389" lon="-0.89631">
        <ele>13</ele>
        <time>2018-06-30T17:18:11.000Z</time>
      </trkpt>
      <trkpt lat="45.8839" lon="-0.89632">
        <ele>13</ele>
        <time>2018-06-30T17:18:12.000Z</time>
      </trkpt>
      <trkpt lat="45.88391" lon="-0.89632">
        <ele>12</ele>
        <time>2018-06-30T17:18:13.000Z</time>
      </trkpt>
      <trkpt lat="45.88392" lon="-0.89633">
        <ele>12</ele>
        <time>2018-06-30T17:18:14.000Z</time>
      </trkpt>
      <trkpt lat="45.88393" lon="-0.89634">
        <ele>12</ele>
        <time>2018-06-30T17:18:15.000Z</time>
      </trkpt>
      <trkpt lat="45.88394" lon="-0.89635">
        <ele>13</ele>
        <time>2018-06-30T17:18:16.000Z</time>
      </trkpt>
      <trkpt lat="45.88395" lon="-0.89636">
        <ele>13</ele>
        <time>2018-06-30T17:18:17.000Z</time>
      </trkpt>
      <trkpt lat="45.88396" lon="-0.89637">
        <ele>13</ele>
        <time>2018-06-30T17:18:18.000Z</time>
      </trkpt>
      <trkpt lat="45.88397" lon="-0.89638">
        <ele>13</ele>
        <time>2018-06-30T17:18:19.000Z</time>
      </trkpt>
      <trkpt lat="45.88397" lon="-0.8964">
        <ele>13</ele>
        <time>2018-06-30T17:18:20.000Z</time>
      </trkpt>
      <trkpt lat="45.88398" lon="-0.89642">
        <ele>13</ele>
        <time>2018-06-30T17:18:21.000Z</time>
      </trkpt>
      <trkpt lat="45.88398" lon="-0.89643">
        <ele>13</ele>
        <time>2018-06-30T17:18:22.000Z</time>
      </trkpt>
      <trkpt lat="45.88399" lon="-0.89645">
        <ele>13</ele>
        <time>2018-06-30T17:18:23.000Z</time>
      </trkpt>
      <trkpt lat="45.884" lon="-0.89646">
        <ele>13</ele>
        <time>2018-06-30T17:18:24.000Z</time>
      </trkpt>
      <trkpt lat="45.884" lon="-0.89648">
        <ele>13</ele>
        <time>2018-06-30T17:18:25.000Z</time>
      </trkpt>
      <trkpt lat="45.88401" lon="-0.89649">
        <ele>13</ele>
        <time>2018-06-30T17:18:26.000Z</time>
      </trkpt>
      <trkpt lat="45.88401" lon="-0.89651">
        <ele>13</ele>
        <time>2018-06-30T17:18:27.000Z</time>
      </trkpt>
      <trkpt lat="45.88401" lon="-0.89653">
        <ele>13</ele>
        <time>2018-06-30T17:18:28.000Z</time>
      </trkpt>
      <trkpt lat="45.88401" lon="-0.89655">
        <ele>13</ele>
        <time>2018-06-30T17:18:29.000Z</time>
      </trkpt>
      <trkpt lat="45.88402" lon="-0.89656">
        <ele>13</ele>
        <time>2018-06-30T17:18:30.000Z</time>
      </trkpt>
      <trkpt lat="45.88402" lon="-0.89658">
        <ele>13</ele>
        <time>2018-06-30T17:18:31.000Z</time>
      </trkpt>
      <trkpt lat="45.88403" lon="-0.89659">
        <ele>12</ele>
        <time>2018-06-30T17:18:32.000Z</time>
      </trkpt>
      <trkpt lat="45.88403" lon="-0.89661">
        <ele>12</ele>
        <time>2018-06-30T17:18:33.000Z</time>
      </trkpt>
      <trkpt lat="45.88403" lon="-0.89662">
        <ele>13</ele>
        <time>2018-06-30T17:18:34.000Z</time>
      </trkpt>
      <trkpt lat="45.88403" lon="-0.89664">
        <ele>12</ele>
        <time>2018-06-30T17:18:35.000Z</time>
      </trkpt>
      <trkpt lat="45.88403" lon="-0.89666">
        <ele>13</ele>
        <time>2018-06-30T17:18:36.000Z</time>
      </trkpt>
      <trkpt lat="45.88404" lon="-0.89667">
        <ele>12</ele>
        <time>2018-06-30T17:18:37.000Z</time>
      </trkpt>
      <trkpt lat="45.88404" lon="-0.89669">
        <ele>13</ele>
        <time>2018-06-30T17:18:38.000Z</time>
      </trkpt>
      <trkpt lat="45.88405" lon="-0.89671">
        <ele>13</ele>
        <time>2018-06-30T17:18:39.000Z</time>
      </trkpt>
      <trkpt lat="45.88405" lon="-0.89672">
        <ele>13</ele>
        <time>2018-06-30T17:18:40.000Z</time>
      </trkpt>
      <trkpt lat="45.88405" lon="-0.89674">
        <ele>13</ele>
        <time>2018-06-30T17:18:41.000Z</time>
      </trkpt>
      <trkpt lat="45.88406" lon="-0.89675">
        <ele>13</ele>
        <time>2018-06-30T17:18:42.000Z</time>
      </trkpt>
      <trkpt lat="45.88406" lon="-0.89677">
        <ele>14</ele>
        <time>2018-06-30T17:18:43.000Z</time>
      </trkpt>
      <trkpt lat="45.88406" lon="-0.89679">
        <ele>14</ele>
        <time>2018-06-30T17:18:44.000Z</time>
      </trkpt>
      <trkpt lat="45.88406" lon="-0.8968">
        <ele>14</ele>
        <time>2018-06-30T17:18:45.000Z</time>
      </trkpt>
      <trkpt lat="45.88407" lon="-0.89682">
        <ele>14</ele>
        <time>2018-06-30T17:18:46.000Z</time>
      </trkpt>
      <trkpt lat="45.88407" lon="-0.89683">
        <ele>14</ele>
        <time>2018-06-30T17:18:47.000Z</time>
      </trkpt>
      <trkpt lat="45.88407" lon="-0.89685">
        <ele>14</ele>
        <time>2018-06-30T17:18:48.000Z</time>
      </trkpt>
      <trkpt lat="45.88408" lon="-0.89686">
        <ele>14</ele>
        <time>2018-06-30T17:18:49.000Z</time>
      </trkpt>
      <trkpt lat="45.88408" lon="-0.89688">
        <ele>14</ele>
        <time>2018-06-30T17:18:50.000Z</time>
      </trkpt>
      <trkpt lat="45.88408" lon="-0.89689">
        <ele>14</ele>
        <time>2018-06-30T17:18:51.000Z</time>
      </trkpt>
      <trkpt lat="45.88409" lon="-0.89691">
        <ele>14</ele>
        <time>2018-06-30T17:18:52.000Z</time>
      </trkpt>
      <trkpt lat="45.88409" lon="-0.89693">
        <ele>14</ele>
        <time>2018-06-30T17:18:53.000Z</time>
      </trkpt>
      <trkpt lat="45.88409" lon="-0.89694">
        <ele>13</ele>
        <time>2018-06-30T17:18:54.000Z</time>
      </trkpt>
      <trkpt lat="45.8841" lon="-0.89696">
        <ele>14</ele>
        <time>2018-06-30T17:18:55.000Z</time>
      </trkpt>
      <trkpt lat="45.8841" lon="-0.89697">
        <ele>14</ele>
        <time>2018-06-30T17:18:56.000Z</time>
      </trkpt>
      <trkpt lat="45.8841" lon="-0.89698">
        <ele>14</ele>
        <time>2018-06-30T17:18:57.000Z</time>
      </trkpt>
      <trkpt lat="45.8841" lon="-0.897">
        <ele>14</ele>
        <time>2018-06-30T17:18:58.000Z</time>
      </trkpt>
      <trkpt lat="45.8841" lon="-0.89701">
        <ele>14</ele>
        <time>2018-06-30T17:18:59.000Z</time>
      </trkpt>
      <trkpt lat="45.88411" lon="-0.89703">
        <ele>14</ele>
        <time>2018-06-30T17:19:00.000Z</time>
      </trkpt>
      <trkpt lat="45.88411" lon="-0.89705">
        <ele>14</ele>
        <time>2018-06-30T17:19:01.000Z</time>
      </trkpt>
      <trkpt lat="45.88411" lon="-0.89707">
        <ele>14</ele>
        <time>2018-06-30T17:19:02.000Z</time>
      </trkpt>
      <trkpt lat="45.88412" lon="-0.89708">
        <ele>14</ele>
        <time>2018-06-30T17:19:03.000Z</time>
      </trkpt>
      <trkpt lat="45.88412" lon="-0.8971">
        <ele>14</ele>
        <time>2018-06-30T17:19:04.000Z</time>
      </trkpt>
      <trkpt lat="45.88412" lon="-0.89712">
        <ele>15</ele>
        <time>2018-06-30T17:19:05.000Z</time>
      </trkpt>
      <trkpt lat="45.88412" lon="-0.89713">
        <ele>15</ele>
        <time>2018-06-30T17:19:06.000Z</time>
      </trkpt>
      <trkpt lat="45.88412" lon="-0.89715">
        <ele>14</ele>
        <time>2018-06-30T17:19:07.000Z</time>
      </trkpt>
      <trkpt lat="45.88412" lon="-0.89716">
        <ele>14</ele>
        <time>2018-06-30T17:19:08.000Z</time>
      </trkpt>
      <trkpt lat="45.88412" lon="-0.89718">
        <ele>15</ele>
        <time>2018-06-30T17:19:09.000Z</time>
      </trkpt>
      <trkpt lat="45.88412" lon="-0.8972">
        <ele>14</ele>
        <time>2018-06-30T17:19:10.000Z</time>
      </trkpt>
      <trkpt lat="45.88412" lon="-0.89722">
        <ele>15</ele>
        <time>2018-06-30T17:19:11.000Z</time>
      </trkpt>
      <trkpt lat="45.88413" lon="-0.89723">
        <ele>14</ele>
        <time>2018-06-30T17:19:12.000Z</time>
      </trkpt>
      <trkpt lat="45.88413" lon="-0.89725">
        <ele>15</ele>
        <time>2018-06-30T17:19:13.000Z</time>
      </trkpt>
      <trkpt lat="45.88413" lon="-0.89727">
        <ele>15</ele>
        <time>2018-06-30T17:19:14.000Z</time>
      </trkpt>
      <trkpt lat="45.88414" lon="-0.89729">
        <ele>15</ele>
        <time>2018-06-30T17:19:15.000Z</time>
      </trkpt>
      <trkpt lat="45.88414" lon="-0.89731">
        <ele>15</ele>
        <time>2018-06-30T17:19:16.000Z</time>
      </trkpt>
      <trkpt lat="45.88414" lon="-0.89732">
        <ele>15</ele>
        <time>2018-06-30T17:19:17.000Z</time>
      </trkpt>
      <trkpt lat="45.88414" lon="-0.89734">
        <ele>14</ele>
        <time>2018-06-30T17:19:18.000Z</time>
      </trkpt>
      <trkpt lat="45.88415" lon="-0.89736">
        <ele>14</ele>
        <time>2018-06-30T17:19:19.000Z</time>
      </trkpt>
      <trkpt lat="45.88415" lon="-0.89737">
        <ele>14</ele>
        <time>2018-06-30T17:19:20.000Z</time>
      </trkpt>
      <trkpt lat="45.88415" lon="-0.89739">
        <ele>14</ele>
        <time>2018-06-30T17:19:21.000Z</time>
      </trkpt>
      <trkpt lat="45.88415" lon="-0.89741">
        <ele>14</ele>
        <time>2018-06-30T17:19:22.000Z</time>
      </trkpt>
      <trkpt lat="45.88415" lon="-0.89743">
        <ele>14</ele>
        <time>2018-06-30T17:19:23.000Z</time>
      </trkpt>
      <trkpt lat="45.88415" lon="-0.89745">
        <ele>15</ele>
        <time>2018-06-30T17:19:24.000Z</time>
      </trkpt>
      <trkpt lat="45.88416" lon="-0.89746">
        <ele>14</ele>
        <time>2018-06-30T17:19:25.000Z</time>
      </trkpt>
      <trkpt lat="45.88416" lon="-0.89748">
        <ele>14</ele>
        <time>2018-06-30T17:19:26.000Z</time>
      </trkpt>
      <trkpt lat="45.88416" lon="-0.8975">
        <ele>14</ele>
        <time>2018-06-30T17:19:27.000Z</time>
      </trkpt>
      <trkpt lat="45.88417" lon="-0.89752">
        <ele>14</ele>
        <time>2018-06-30T17:19:28.000Z</time>
      </trkpt>
      <trkpt lat="45.88417" lon="-0.89754">
        <ele>14</ele>
        <time>2018-06-30T17:19:29.000Z</time>
      </trkpt>
      <trkpt lat="45.88417" lon="-0.89755">
        <ele>14</ele>
        <time>2018-06-30T17:19:30.000Z</time>
      </trkpt>
      <trkpt lat="45.88417" lon="-0.89757">
        <ele>13</ele>
        <time>2018-06-30T17:19:31.000Z</time>
      </trkpt>
      <trkpt lat="45.88417" lon="-0.89759">
        <ele>13</ele>
        <time>2018-06-30T17:19:32.000Z</time>
      </trkpt>
      <trkpt lat="45.88418" lon="-0.8976">
        <ele>13</ele>
        <time>2018-06-30T17:19:33.000Z</time>
      </trkpt>
      <trkpt lat="45.88418" lon="-0.89762">
        <ele>13</ele>
        <time>2018-06-30T17:19:34.000Z</time>
      </trkpt>
      <trkpt lat="45.88418" lon="-0.89764">
        <ele>13</ele>
        <time>2018-06-30T17:19:35.000Z</time>
      </trkpt>
      <trkpt lat="45.88418" lon="-0.89765">
        <ele>13</ele>
        <time>2018-06-30T17:19:36.000Z</time>
      </trkpt>
      <trkpt lat="45.88418" lon="-0.89767">
        <ele>14</ele>
        <time>2018-06-30T17:19:37.000Z</time>
      </trkpt>
      <trkpt lat="45.88418" lon="-0.89769">
        <ele>14</ele>
        <time>2018-06-30T17:19:38.000Z</time>
      </trkpt>
      <trkpt lat="45.88418" lon="-0.8977">
        <ele>14</ele>
        <time>2018-06-30T17:19:39.000Z</time>
      </trkpt>
      <trkpt lat="45.88418" lon="-0.89772">
        <ele>14</ele>
        <time>2018-06-30T17:19:40.000Z</time>
      </trkpt>
      <trkpt lat="45.88418" lon="-0.89774">
        <ele>13</ele>
        <time>2018-06-30T17:19:41.000Z</time>
      </trkpt>
      <trkpt lat="45.88418" lon="-0.89775">
        <ele>14</ele>
        <time>2018-06-30T17:19:42.000Z</time>
      </trkpt>
      <trkpt lat="45.88418" lon="-0.89777">
        <ele>14</ele>
        <time>2018-06-30T17:19:43.000Z</time>
      </trkpt>
      <trkpt lat="45.88418" lon="-0.89778">
        <ele>14</ele>
        <time>2018-06-30T17:19:44.000Z</time>
      </trkpt>
      <trkpt lat="45.88418" lon="-0.8978">
        <ele>13</ele>
        <time>2018-06-30T17:19:45.000Z</time>
      </trkpt>
      <trkpt lat="45.88418" lon="-0.89781">
        <ele>13</ele>
        <time>2018-06-30T17:19:46.000Z</time>
      </trkpt>
      <trkpt lat="45.88418" lon="-0.89783">
        <ele>13</ele>
        <time>2018-06-30T17:19:47.000Z</time>
      </trkpt>
      <trkpt lat="45.88418" lon="-0.89785">
        <ele>14</ele>
        <time>2018-06-30T17:19:48.000Z</time>
      </trkpt>
      <trkpt lat="45.88418" lon="-0.89786">
        <ele>13</ele>
        <time>2018-06-30T17:19:49.000Z</time>
      </trkpt>
      <trkpt lat="45.88417" lon="-0.89788">
        <ele>13</ele>
        <time>2018-06-30T17:19:50.000Z</time>
      </trkpt>
      <trkpt lat="45.88417" lon="-0.89789">
        <ele>13</ele>
        <time>2018-06-30T17:19:51.000Z</time>
      </trkpt>
      <trkpt lat="45.88417" lon="-0.89791">
        <ele>13</ele>
        <time>2018-06-30T17:19:52.000Z</time>
      </trkpt>
      <trkpt lat="45.88417" lon="-0.89793">
        <ele>13</ele>
        <time>2018-06-30T17:19:53.000Z</time>
      </trkpt>
      <trkpt lat="45.88417" lon="-0.89794">
        <ele>13</ele>
        <time>2018-06-30T17:19:54.000Z</time>
      </trkpt>
      <trkpt lat="45.88417" lon="-0.89796">
        <ele>13</ele>
        <time>2018-06-30T17:19:55.000Z</time>
      </trkpt>
      <trkpt lat="45.88417" lon="-0.89798">
        <ele>13</ele>
        <time>2018-06-30T17:19:56.000Z</time>
      </trkpt>
      <trkpt lat="45.88417" lon="-0.898">
        <ele>13</ele>
        <time>2018-06-30T17:19:57.000Z</time>
      </trkpt>
      <trkpt lat="45.88417" lon="-0.89802">
        <ele>13</ele>
        <time>2018-06-30T17:19:58.000Z</time>
      </trkpt>
      <trkpt lat="45.88417" lon="-0.89804">
        <ele>13</ele>
        <time>2018-06-30T17:19:59.000Z</time>
      </trkpt>
      <trkpt lat="45.88417" lon="-0.89806">
        <ele>13</ele>
        <time>2018-06-30T17:20:00.000Z</time>
      </trkpt>
      <trkpt lat="45.88416" lon="-0.89808">
        <ele>13</ele>
        <time>2018-06-30T17:20:01.000Z</time>
      </trkpt>
      <trkpt lat="45.88416" lon="-0.8981">
        <ele>13</ele>
        <time>2018-06-30T17:20:02.000Z</time>
      </trkpt>
      <trkpt lat="45.88416" lon="-0.89811">
        <ele>13</ele>
        <time>2018-06-30T17:20:03.000Z</time>
      </trkpt>
      <trkpt lat="45.88416" lon="-0.89813">
        <ele>13</ele>
        <time>2018-06-30T17:20:04.000Z</time>
      </trkpt>
      <trkpt lat="45.88416" lon="-0.89815">
        <ele>14</ele>
        <time>2018-06-30T17:20:05.000Z</time>
      </trkpt>
      <trkpt lat="45.88416" lon="-0.89817">
        <ele>14</ele>
        <time>2018-06-30T17:20:06.000Z</time>
      </trkpt>
      <trkpt lat="45.88415" lon="-0.89818">
        <ele>14</ele>
        <time>2018-06-30T17:20:07.000Z</time>
      </trkpt>
      <trkpt lat="45.88415" lon="-0.8982">
        <ele>14</ele>
        <time>2018-06-30T17:20:08.000Z</time>
      </trkpt>
      <trkpt lat="45.88415" lon="-0.89822">
        <ele>14</ele>
        <time>2018-06-30T17:20:09.000Z</time>
      </trkpt>
      <trkpt lat="45.88415" lon="-0.89823">
        <ele>14</ele>
        <time>2018-06-30T17:20:10.000Z</time>
      </trkpt>
      <trkpt lat="45.88415" lon="-0.89825">
        <ele>14</ele>
        <time>2018-06-30T17:20:11.000Z</time>
      </trkpt>
      <trkpt lat="45.88414" lon="-0.89827">
        <ele>14</ele>
        <time>2018-06-30T17:20:12.000Z</time>
      </trkpt>
      <trkpt lat="45.88414" lon="-0.89829">
        <ele>14</ele>
        <time>2018-06-30T17:20:13.000Z</time>
      </trkpt>
      <trkpt lat="45.88414" lon="-0.8983">
        <ele>14</ele>
        <time>2018-06-30T17:20:14.000Z</time>
      </trkpt>
      <trkpt lat="45.88414" lon="-0.89832">
        <ele>14</ele>
        <time>2018-06-30T17:20:15.000Z</time>
      </trkpt>
      <trkpt lat="45.88413" lon="-0.89834">
        <ele>14</ele>
        <time>2018-06-30T17:20:16.000Z</time>
      </trkpt>
      <trkpt lat="45.88413" lon="-0.89835">
        <ele>14</ele>
        <time>2018-06-30T17:20:17.000Z</time>
      </trkpt>
      <trkpt lat="45.88412" lon="-0.89837">
        <ele>14</ele>
        <time>2018-06-30T17:20:18.000Z</time>
      </trkpt>
      <trkpt lat="45.88412" lon="-0.89839">
        <ele>14</ele>
        <time>2018-06-30T17:20:19.000Z</time>
      </trkpt>
      <trkpt lat="45.88412" lon="-0.89841">
        <ele>15</ele>
        <time>2018-06-30T17:20:20.000Z</time>
      </trkpt>
      <trkpt lat="45.88411" lon="-0.89842">
        <ele>14</ele>
        <time>2018-06-30T17:20:21.000Z</time>
      </trkpt>
      <trkpt lat="45.8841" lon="-0.89844">
        <ele>14</ele>
        <time>2018-06-30T17:20:22.000Z</time>
      </trkpt>
      <trkpt lat="45.8841" lon="-0.89846">
        <ele>15</ele>
        <time>2018-06-30T17:20:23.000Z</time>
      </trkpt>
      <trkpt lat="45.88409" lon="-0.89848">
        <ele>15</ele>
        <time>2018-06-30T17:20:24.000Z</time>
      </trkpt>
      <trkpt lat="45.88409" lon="-0.89849">
        <ele>15</ele>
        <time>2018-06-30T17:20:25.000Z</time>
      </trkpt>
      <trkpt lat="45.88408" lon="-0.89851">
        <ele>15</ele>
        <time>2018-06-30T17:20:26.000Z</time>
      </trkpt>
      <trkpt lat="45.88408" lon="-0.89852">
        <ele>15</ele>
        <time>2018-06-30T17:20:27.000Z</time>
      </trkpt>
      <trkpt lat="45.88407" lon="-0.89854">
        <ele>15</ele>
        <time>2018-06-30T17:20:28.000Z</time>
      </trkpt>
      <trkpt lat="45.88406" lon="-0.89856">
        <ele>15</ele>
        <time>2018-06-30T17:20:29.000Z</time>
      </trkpt>
      <trkpt lat="45.88406" lon="-0.89857">
        <ele>15</ele>
        <time>2018-06-30T17:20:30.000Z</time>
      </trkpt>
      <trkpt lat="45.88405" lon="-0.89859">
        <ele>15</ele>
        <time>2018-06-30T17:20:31.000Z</time>
      </trkpt>
      <trkpt lat="45.88405" lon="-0.8986">
        <ele>14</ele>
        <time>2018-06-30T17:20:32.000Z</time>
      </trkpt>
      <trkpt lat="45.88404" lon="-0.89862">
        <ele>14</ele>
        <time>2018-06-30T17:20:33.000Z</time>
      </trkpt>
      <trkpt lat="45.88404" lon="-0.89864">
        <ele>14</ele>
        <time>2018-06-30T17:20:34.000Z</time>
      </trkpt>
      <trkpt lat="45.88403" lon="-0.89865">
        <ele>14</ele>
        <time>2018-06-30T17:20:35.000Z</time>
      </trkpt>
      <trkpt lat="45.88403" lon="-0.89867">
        <ele>13</ele>
        <time>2018-06-30T17:20:36.000Z</time>
      </trkpt>
      <trkpt lat="45.88403" lon="-0.89868">
        <ele>13</ele>
        <time>2018-06-30T17:20:37.000Z</time>
      </trkpt>
      <trkpt lat="45.88402" lon="-0.8987">
        <ele>12</ele>
        <time>2018-06-30T17:20:38.000Z</time>
      </trkpt>
      <trkpt lat="45.88402" lon="-0.89871">
        <ele>12</ele>
        <time>2018-06-30T17:20:39.000Z</time>
      </trkpt>
      <trkpt lat="45.88401" lon="-0.89873">
        <ele>12</ele>
        <time>2018-06-30T17:20:40.000Z</time>
      </trkpt>
      <trkpt lat="45.88401" lon="-0.89875">
        <ele>12</ele>
        <time>2018-06-30T17:20:41.000Z</time>
      </trkpt>
      <trkpt lat="45.884" lon="-0.89876">
        <ele>12</ele>
        <time>2018-06-30T17:20:42.000Z</time>
      </trkpt>
      <trkpt lat="45.884" lon="-0.89878">
        <ele>12</ele>
        <time>2018-06-30T17:20:43.000Z</time>
      </trkpt>
      <trkpt lat="45.88399" lon="-0.8988">
        <ele>11</ele>
        <time>2018-06-30T17:20:44.000Z</time>
      </trkpt>
      <trkpt lat="45.88399" lon="-0.89882">
        <ele>11</ele>
        <time>2018-06-30T17:20:45.000Z</time>
      </trkpt>
      <trkpt lat="45.88399" lon="-0.89884">
        <ele>11</ele>
        <time>2018-06-30T17:20:46.000Z</time>
      </trkpt>
      <trkpt lat="45.88398" lon="-0.89885">
        <ele>11</ele>
        <time>2018-06-30T17:20:47.000Z</time>
      </trkpt>
      <trkpt lat="45.88398" lon="-0.89887">
        <ele>10</ele>
        <time>2018-06-30T17:20:48.000Z</time>
      </trkpt>
      <trkpt lat="45.88398" lon="-0.89889">
        <ele>10</ele>
        <time>2018-06-30T17:20:49.000Z</time>
      </trkpt>
      <trkpt lat="45.88397" lon="-0.8989">
        <ele>10</ele>
        <time>2018-06-30T17:20:50.000Z</time>
      </trkpt>
      <trkpt lat="45.88397" lon="-0.89892">
        <ele>10</ele>
        <time>2018-06-30T17:20:51.000Z</time>
      </trkpt>
      <trkpt lat="45.88396" lon="-0.89893">
        <ele>10</ele>
        <time>2018-06-30T17:20:52.000Z</time>
      </trkpt>
      <trkpt lat="45.88395" lon="-0.89895">
        <ele>9</ele>
        <time>2018-06-30T17:20:53.000Z</time>
      </trkpt>
      <trkpt lat="45.88395" lon="-0.89896">
        <ele>10</ele>
        <time>2018-06-30T17:20:54.000Z</time>
      </trkpt>
      <trkpt lat="45.88395" lon="-0.89898">
        <ele>10</ele>
        <time>2018-06-30T17:20:55.000Z</time>
      </trkpt>
      <trkpt lat="45.88394" lon="-0.899">
        <ele>10</ele>
        <time>2018-06-30T17:20:56.000Z</time>
      </trkpt>
      <trkpt lat="45.88394" lon="-0.89901">
        <ele>10</ele>
        <time>2018-06-30T17:20:57.000Z</time>
      </trkpt>
      <trkpt lat="45.88394" lon="-0.89903">
        <ele>9</ele>
        <time>2018-06-30T17:20:58.000Z</time>
      </trkpt>
      <trkpt lat="45.88393" lon="-0.89904">
        <ele>9</ele>
        <time>2018-06-30T17:20:59.000Z</time>
      </trkpt>
      <trkpt lat="45.88393" lon="-0.89906">
        <ele>9</ele>
        <time>2018-06-30T17:21:00.000Z</time>
      </trkpt>
      <trkpt lat="45.88392" lon="-0.89908">
        <ele>9</ele>
        <time>2018-06-30T17:21:01.000Z</time>
      </trkpt>
      <trkpt lat="45.88392" lon="-0.89909">
        <ele>9</ele>
        <time>2018-06-30T17:21:02.000Z</time>
      </trkpt>
      <trkpt lat="45.88392" lon="-0.89911">
        <ele>9</ele>
        <time>2018-06-30T17:21:03.000Z</time>
      </trkpt>
      <trkpt lat="45.88392" lon="-0.89913">
        <ele>8</ele>
        <time>2018-06-30T17:21:04.000Z</time>
      </trkpt>
      <trkpt lat="45.88391" lon="-0.89914">
        <ele>8</ele>
        <time>2018-06-30T17:21:05.000Z</time>
      </trkpt>
      <trkpt lat="45.88391" lon="-0.89916">
        <ele>8</ele>
        <time>2018-06-30T17:21:06.000Z</time>
      </trkpt>
      <trkpt lat="45.88391" lon="-0.89918">
        <ele>8</ele>
        <time>2018-06-30T17:21:07.000Z</time>
      </trkpt>
      <trkpt lat="45.88391" lon="-0.8992">
        <ele>8</ele>
        <time>2018-06-30T17:21:08.000Z</time>
      </trkpt>
      <trkpt lat="45.88391" lon="-0.89921">
        <ele>8</ele>
        <time>2018-06-30T17:21:09.000Z</time>
      </trkpt>
      <trkpt lat="45.88391" lon="-0.89922">
        <ele>8</ele>
        <time>2018-06-30T17:21:10.000Z</time>
      </trkpt>
      <trkpt lat="45.88391" lon="-0.89923">
        <ele>8</ele>
        <time>2018-06-30T17:21:11.000Z</time>
      </trkpt>
      <trkpt lat="45.88391" lon="-0.89924">
        <ele>8</ele>
        <time>2018-06-30T17:21:12.000Z</time>
      </trkpt>
      <trkpt lat="45.88391" lon="-0.89926">
        <ele>8</ele>
        <time>2018-06-30T17:21:13.000Z</time>
      </trkpt>
      <trkpt lat="45.8839" lon="-0.89927">
        <ele>8</ele>
        <time>2018-06-30T17:21:14.000Z</time>
      </trkpt>
      <trkpt lat="45.8839" lon="-0.89928">
        <ele>8</ele>
        <time>2018-06-30T17:21:15.000Z</time>
      </trkpt>
      <trkpt lat="45.8839" lon="-0.8993">
        <ele>8</ele>
        <time>2018-06-30T17:21:16.000Z</time>
      </trkpt>
      <trkpt lat="45.8839" lon="-0.89931">
        <ele>8</ele>
        <time>2018-06-30T17:21:17.000Z</time>
      </trkpt>
      <trkpt lat="45.8839" lon="-0.89933">
        <ele>8</ele>
        <time>2018-06-30T17:21:18.000Z</time>
      </trkpt>
      <trkpt lat="45.8839" lon="-0.89934">
        <ele>8</ele>
        <time>2018-06-30T17:21:19.000Z</time>
      </trkpt>
      <trkpt lat="45.88389" lon="-0.89936">
        <ele>8</ele>
        <time>2018-06-30T17:21:20.000Z</time>
      </trkpt>
      <trkpt lat="45.88389" lon="-0.89937">
        <ele>8</ele>
        <time>2018-06-30T17:21:21.000Z</time>
      </trkpt>
      <trkpt lat="45.88389" lon="-0.89939">
        <ele>7</ele>
        <time>2018-06-30T17:21:22.000Z</time>
      </trkpt>
      <trkpt lat="45.88388" lon="-0.8994">
        <ele>7</ele>
        <time>2018-06-30T17:21:23.000Z</time>
      </trkpt>
      <trkpt lat="45.88388" lon="-0.89942">
        <ele>7</ele>
        <time>2018-06-30T17:21:24.000Z</time>
      </trkpt>
      <trkpt lat="45.88388" lon="-0.89944">
        <ele>7</ele>
        <time>2018-06-30T17:21:25.000Z</time>
      </trkpt>
      <trkpt lat="45.88388" lon="-0.89945">
        <ele>7</ele>
        <time>2018-06-30T17:21:26.000Z</time>
      </trkpt>
      <trkpt lat="45.88387" lon="-0.89947">
        <ele>7</ele>
        <time>2018-06-30T17:21:27.000Z</time>
      </trkpt>
      <trkpt lat="45.88387" lon="-0.89948">
        <ele>6</ele>
        <time>2018-06-30T17:21:28.000Z</time>
      </trkpt>
      <trkpt lat="45.88387" lon="-0.8995">
        <ele>6</ele>
        <time>2018-06-30T17:21:29.000Z</time>
      </trkpt>
      <trkpt lat="45.88387" lon="-0.89952">
        <ele>6</ele>
        <time>2018-06-30T17:21:30.000Z</time>
      </trkpt>
      <trkpt lat="45.88387" lon="-0.89953">
        <ele>6</ele>
        <time>2018-06-30T17:21:31.000Z</time>
      </trkpt>
      <trkpt lat="45.88387" lon="-0.89955">
        <ele>6</ele>
        <time>2018-06-30T17:21:32.000Z</time>
      </trkpt>
      <trkpt lat="45.88386" lon="-0.89957">
        <ele>6</ele>
        <time>2018-06-30T17:21:33.000Z</time>
      </trkpt>
      <trkpt lat="45.88386" lon="-0.89958">
        <ele>6</ele>
        <time>2018-06-30T17:21:34.000Z</time>
      </trkpt>
      <trkpt lat="45.88386" lon="-0.8996">
        <ele>6</ele>
        <time>2018-06-30T17:21:35.000Z</time>
      </trkpt>
      <trkpt lat="45.88386" lon="-0.89962">
        <ele>6</ele>
        <time>2018-06-30T17:21:36.000Z</time>
      </trkpt>
      <trkpt lat="45.88386" lon="-0.89963">
        <ele>6</ele>
        <time>2018-06-30T17:21:37.000Z</time>
      </trkpt>
      <trkpt lat="45.88386" lon="-0.89965">
        <ele>6</ele>
        <time>2018-06-30T17:21:38.000Z</time>
      </trkpt>
      <trkpt lat="45.88386" lon="-0.89967">
        <ele>7</ele>
        <time>2018-06-30T17:21:39.000Z</time>
      </trkpt>
      <trkpt lat="45.88385" lon="-0.89968">
        <ele>7</ele>
        <time>2018-06-30T17:21:40.000Z</time>
      </trkpt>
      <trkpt lat="45.88385" lon="-0.8997">
        <ele>6</ele>
        <time>2018-06-30T17:21:41.000Z</time>
      </trkpt>
      <trkpt lat="45.88385" lon="-0.89971">
        <ele>7</ele>
        <time>2018-06-30T17:21:42.000Z</time>
      </trkpt>
      <trkpt lat="45.88385" lon="-0.89973">
        <ele>7</ele>
        <time>2018-06-30T17:21:43.000Z</time>
      </trkpt>
      <trkpt lat="45.88385" lon="-0.89974">
        <ele>7</ele>
        <time>2018-06-30T17:21:44.000Z</time>
      </trkpt>
      <trkpt lat="45.88384" lon="-0.89976">
        <ele>7</ele>
        <time>2018-06-30T17:21:45.000Z</time>
      </trkpt>
      <trkpt lat="45.88384" lon="-0.89977">
        <ele>7</ele>
        <time>2018-06-30T17:21:46.000Z</time>
      </trkpt>
      <trkpt lat="45.88384" lon="-0.89979">
        <ele>7</ele>
        <time>2018-06-30T17:21:47.000Z</time>
      </trkpt>
      <trkpt lat="45.88384" lon="-0.8998">
        <ele>7</ele>
        <time>2018-06-30T17:21:48.000Z</time>
      </trkpt>
      <trkpt lat="45.88383" lon="-0.89982">
        <ele>7</ele>
        <time>2018-06-30T17:21:49.000Z</time>
      </trkpt>
      <trkpt lat="45.88383" lon="-0.89983">
        <ele>6</ele>
        <time>2018-06-30T17:21:50.000Z</time>
      </trkpt>
      <trkpt lat="45.88383" lon="-0.89985">
        <ele>7</ele>
        <time>2018-06-30T17:21:51.000Z</time>
      </trkpt>
      <trkpt lat="45.88383" lon="-0.89986">
        <ele>6</ele>
        <time>2018-06-30T17:21:52.000Z</time>
      </trkpt>
      <trkpt lat="45.88383" lon="-0.89988">
        <ele>6</ele>
        <time>2018-06-30T17:21:53.000Z</time>
      </trkpt>
      <trkpt lat="45.88382" lon="-0.8999">
        <ele>7</ele>
        <time>2018-06-30T17:21:54.000Z</time>
      </trkpt>
      <trkpt lat="45.88382" lon="-0.89991">
        <ele>7</ele>
        <time>2018-06-30T17:21:55.000Z</time>
      </trkpt>
      <trkpt lat="45.88382" lon="-0.89993">
        <ele>7</ele>
        <time>2018-06-30T17:21:56.000Z</time>
      </trkpt>
      <trkpt lat="45.88382" lon="-0.89994">
        <ele>7</ele>
        <time>2018-06-30T17:21:57.000Z</time>
      </trkpt>
      <trkpt lat="45.88381" lon="-0.89996">
        <ele>6</ele>
        <time>2018-06-30T17:21:58.000Z</time>
      </trkpt>
      <trkpt lat="45.88381" lon="-0.89997">
        <ele>7</ele>
        <time>2018-06-30T17:21:59.000Z</time>
      </trkpt>
      <trkpt lat="45.88381" lon="-0.89999">
        <ele>6</ele>
        <time>2018-06-30T17:22:00.000Z</time>
      </trkpt>
      <trkpt lat="45.8838" lon="-0.9">
        <ele>6</ele>
        <time>2018-06-30T17:22:01.000Z</time>
      </trkpt>
      <trkpt lat="45.8838" lon="-0.90002">
        <ele>6</ele>
        <time>2018-06-30T17:22:02.000Z</time>
      </trkpt>
      <trkpt lat="45.8838" lon="-0.90004">
        <ele>6</ele>
        <time>2018-06-30T17:22:03.000Z</time>
      </trkpt>
      <trkpt lat="45.88379" lon="-0.90005">
        <ele>7</ele>
        <time>2018-06-30T17:22:04.000Z</time>
      </trkpt>
      <trkpt lat="45.88379" lon="-0.90007">
        <ele>7</ele>
        <time>2018-06-30T17:22:05.000Z</time>
      </trkpt>
      <trkpt lat="45.88379" lon="-0.90009">
        <ele>7</ele>
        <time>2018-06-30T17:22:06.000Z</time>
      </trkpt>
      <trkpt lat="45.88378" lon="-0.90011">
        <ele>7</ele>
        <time>2018-06-30T17:22:07.000Z</time>
      </trkpt>
      <trkpt lat="45.88378" lon="-0.90012">
        <ele>7</ele>
        <time>2018-06-30T17:22:08.000Z</time>
      </trkpt>
      <trkpt lat="45.88378" lon="-0.90014">
        <ele>7</ele>
        <time>2018-06-30T17:22:09.000Z</time>
      </trkpt>
      <trkpt lat="45.88378" lon="-0.90016">
        <ele>6</ele>
        <time>2018-06-30T17:22:10.000Z</time>
      </trkpt>
      <trkpt lat="45.88378" lon="-0.90017">
        <ele>6</ele>
        <time>2018-06-30T17:22:11.000Z</time>
      </trkpt>
      <trkpt lat="45.88378" lon="-0.90019">
        <ele>6</ele>
        <time>2018-06-30T17:22:12.000Z</time>
      </trkpt>
      <trkpt lat="45.88377" lon="-0.9002">
        <ele>6</ele>
        <time>2018-06-30T17:22:13.000Z</time>
      </trkpt>
      <trkpt lat="45.88377" lon="-0.90021">
        <ele>6</ele>
        <time>2018-06-30T17:22:14.000Z</time>
      </trkpt>
      <trkpt lat="45.88377" lon="-0.90023">
        <ele>6</ele>
        <time>2018-06-30T17:22:15.000Z</time>
      </trkpt>
      <trkpt lat="45.88377" lon="-0.90025">
        <ele>6</ele>
        <time>2018-06-30T17:22:16.000Z</time>
      </trkpt>
      <trkpt lat="45.88377" lon="-0.90026">
        <ele>6</ele>
        <time>2018-06-30T17:22:17.000Z</time>
      </trkpt>
      <trkpt lat="45.88377" lon="-0.90028">
        <ele>6</ele>
        <time>2018-06-30T17:22:18.000Z</time>
      </trkpt>
      <trkpt lat="45.88376" lon="-0.90029">
        <ele>6</ele>
        <time>2018-06-30T17:22:19.000Z</time>
      </trkpt>
      <trkpt lat="45.88376" lon="-0.90031">
        <ele>6</ele>
        <time>2018-06-30T17:22:20.000Z</time>
      </trkpt>
      <trkpt lat="45.88376" lon="-0.90033">
        <ele>6</ele>
        <time>2018-06-30T17:22:21.000Z</time>
      </trkpt>
      <trkpt lat="45.88376" lon="-0.90034">
        <ele>5</ele>
        <time>2018-06-30T17:22:22.000Z</time>
      </trkpt>
      <trkpt lat="45.88375" lon="-0.90036">
        <ele>6</ele>
        <time>2018-06-30T17:22:23.000Z</time>
      </trkpt>
      <trkpt lat="45.88375" lon="-0.90038">
        <ele>5</ele>
        <time>2018-06-30T17:22:24.000Z</time>
      </trkpt>
      <trkpt lat="45.88375" lon="-0.90039">
        <ele>5</ele>
        <time>2018-06-30T17:22:25.000Z</time>
      </trkpt>
      <trkpt lat="45.88375" lon="-0.90041">
        <ele>6</ele>
        <time>2018-06-30T17:22:26.000Z</time>
      </trkpt>
      <trkpt lat="45.88374" lon="-0.90042">
        <ele>5</ele>
        <time>2018-06-30T17:22:27.000Z</time>
      </trkpt>
      <trkpt lat="45.88374" lon="-0.90044">
        <ele>5</ele>
        <time>2018-06-30T17:22:28.000Z</time>
      </trkpt>
      <trkpt lat="45.88374" lon="-0.90045">
        <ele>5</ele>
        <time>2018-06-30T17:22:29.000Z</time>
      </trkpt>
      <trkpt lat="45.88374" lon="-0.90047">
        <ele>5</ele>
        <time>2018-06-30T17:22:30.000Z</time>
      </trkpt>
      <trkpt lat="45.88374" lon="-0.90049">
        <ele>5</ele>
        <time>2018-06-30T17:22:31.000Z</time>
      </trkpt>
      <trkpt lat="45.88373" lon="-0.9005">
        <ele>5</ele>
        <time>2018-06-30T17:22:32.000Z</time>
      </trkpt>
      <trkpt lat="45.88373" lon="-0.90051">
        <ele>5</ele>
        <time>2018-06-30T17:22:33.000Z</time>
      </trkpt>
      <trkpt lat="45.88373" lon="-0.90053">
        <ele>5</ele>
        <time>2018-06-30T17:22:34.000Z</time>
      </trkpt>
      <trkpt lat="45.88373" lon="-0.90054">
        <ele>5</ele>
        <time>2018-06-30T17:22:35.000Z</time>
      </trkpt>
      <trkpt lat="45.88373" lon="-0.90056">
        <ele>5</ele>
        <time>2018-06-30T17:22:36.000Z</time>
      </trkpt>
      <trkpt lat="45.88372" lon="-0.90058">
        <ele>5</ele>
        <time>2018-06-30T17:22:37.000Z</time>
      </trkpt>
      <trkpt lat="45.88372" lon="-0.9006">
        <ele>5</ele>
        <time>2018-06-30T17:22:38.000Z</time>
      </trkpt>
      <trkpt lat="45.88372" lon="-0.90061">
        <ele>5</ele>
        <time>2018-06-30T17:22:39.000Z</time>
      </trkpt>
      <trkpt lat="45.88372" lon="-0.90063">
        <ele>5</ele>
        <time>2018-06-30T17:22:40.000Z</time>
      </trkpt>
      <trkpt lat="45.88372" lon="-0.90065">
        <ele>5</ele>
        <time>2018-06-30T17:22:41.000Z</time>
      </trkpt>
      <trkpt lat="45.88371" lon="-0.90067">
        <ele>5</ele>
        <time>2018-06-30T17:22:42.000Z</time>
      </trkpt>
      <trkpt lat="45.88371" lon="-0.90068">
        <ele>4</ele>
        <time>2018-06-30T17:22:43.000Z</time>
      </trkpt>
      <trkpt lat="45.88371" lon="-0.9007">
        <ele>5</ele>
        <time>2018-06-30T17:22:44.000Z</time>
      </trkpt>
      <trkpt lat="45.88371" lon="-0.90072">
        <ele>5</ele>
        <time>2018-06-30T17:22:45.000Z</time>
      </trkpt>
      <trkpt lat="45.8837" lon="-0.90073">
        <ele>5</ele>
        <time>2018-06-30T17:22:46.000Z</time>
      </trkpt>
      <trkpt lat="45.8837" lon="-0.90075">
        <ele>5</ele>
        <time>2018-06-30T17:22:47.000Z</time>
      </trkpt>
      <trkpt lat="45.8837" lon="-0.90077">
        <ele>5</ele>
        <time>2018-06-30T17:22:48.000Z</time>
      </trkpt>
      <trkpt lat="45.8837" lon="-0.90078">
        <ele>5</ele>
        <time>2018-06-30T17:22:49.000Z</time>
      </trkpt>
      <trkpt lat="45.8837" lon="-0.9008">
        <ele>5</ele>
        <time>2018-06-30T17:22:50.000Z</time>
      </trkpt>
      <trkpt lat="45.8837" lon="-0.90082">
        <ele>5</ele>
        <time>2018-06-30T17:22:51.000Z</time>
      </trkpt>
      <trkpt lat="45.8837" lon="-0.90083">
        <ele>5</ele>
        <time>2018-06-30T17:22:52.000Z</time>
      </trkpt>
      <trkpt lat="45.8837" lon="-0.90085">
        <ele>5</ele>
        <time>2018-06-30T17:22:53.000Z</time>
      </trkpt>
      <trkpt lat="45.8837" lon="-0.90087">
        <ele>5</ele>
        <time>2018-06-30T17:22:54.000Z</time>
      </trkpt>
      <trkpt lat="45.8837" lon="-0.90088">
        <ele>5</ele>
        <time>2018-06-30T17:22:55.000Z</time>
      </trkpt>
      <trkpt lat="45.8837" lon="-0.9009">
        <ele>5</ele>
        <time>2018-06-30T17:22:56.000Z</time>
      </trkpt>
      <trkpt lat="45.88369" lon="-0.90092">
        <ele>5</ele>
        <time>2018-06-30T17:22:57.000Z</time>
      </trkpt>
      <trkpt lat="45.88369" lon="-0.90094">
        <ele>4</ele>
        <time>2018-06-30T17:22:58.000Z</time>
      </trkpt>
      <trkpt lat="45.88369" lon="-0.90095">
        <ele>4</ele>
        <time>2018-06-30T17:22:59.000Z</time>
      </trkpt>
      <trkpt lat="45.88369" lon="-0.90097">
        <ele>4</ele>
        <time>2018-06-30T17:23:00.000Z</time>
      </trkpt>
      <trkpt lat="45.88369" lon="-0.90099">
        <ele>4</ele>
        <time>2018-06-30T17:23:01.000Z</time>
      </trkpt>
      <trkpt lat="45.88368" lon="-0.90101">
        <ele>4</ele>
        <time>2018-06-30T17:23:02.000Z</time>
      </trkpt>
      <trkpt lat="45.88368" lon="-0.90102">
        <ele>3</ele>
        <time>2018-06-30T17:23:03.000Z</time>
      </trkpt>
      <trkpt lat="45.88368" lon="-0.90104">
        <ele>4</ele>
        <time>2018-06-30T17:23:04.000Z</time>
      </trkpt>
      <trkpt lat="45.88368" lon="-0.90106">
        <ele>4</ele>
        <time>2018-06-30T17:23:05.000Z</time>
      </trkpt>
      <trkpt lat="45.88367" lon="-0.90108">
        <ele>4</ele>
        <time>2018-06-30T17:23:06.000Z</time>
      </trkpt>
      <trkpt lat="45.88367" lon="-0.90109">
        <ele>4</ele>
        <time>2018-06-30T17:23:07.000Z</time>
      </trkpt>
      <trkpt lat="45.88367" lon="-0.90111">
        <ele>4</ele>
        <time>2018-06-30T17:23:08.000Z</time>
      </trkpt>
      <trkpt lat="45.88367" lon="-0.90113">
        <ele>4</ele>
        <time>2018-06-30T17:23:09.000Z</time>
      </trkpt>
      <trkpt lat="45.88366" lon="-0.90114">
        <ele>4</ele>
        <time>2018-06-30T17:23:10.000Z</time>
      </trkpt>
      <trkpt lat="45.88366" lon="-0.90116">
        <ele>4</ele>
        <time>2018-06-30T17:23:11.000Z</time>
      </trkpt>
      <trkpt lat="45.88366" lon="-0.90117">
        <ele>3</ele>
        <time>2018-06-30T17:23:12.000Z</time>
      </trkpt>
      <trkpt lat="45.88366" lon="-0.90119">
        <ele>3</ele>
        <time>2018-06-30T17:23:13.000Z</time>
      </trkpt>
      <trkpt lat="45.88365" lon="-0.9012">
        <ele>3</ele>
        <time>2018-06-30T17:23:14.000Z</time>
      </trkpt>
      <trkpt lat="45.88365" lon="-0.90122">
        <ele>3</ele>
        <time>2018-06-30T17:23:15.000Z</time>
      </trkpt>
      <trkpt lat="45.88365" lon="-0.90124">
        <ele>3</ele>
        <time>2018-06-30T17:23:16.000Z</time>
      </trkpt>
      <trkpt lat="45.88365" lon="-0.90125">
        <ele>3</ele>
        <time>2018-06-30T17:23:17.000Z</time>
      </trkpt>
      <trkpt lat="45.88365" lon="-0.90127">
        <ele>3</ele>
        <time>2018-06-30T17:23:18.000Z</time>
      </trkpt>
      <trkpt lat="45.88364" lon="-0.90128">
        <ele>3</ele>
        <time>2018-06-30T17:23:19.000Z</time>
      </trkpt>
      <trkpt lat="45.88364" lon="-0.9013">
        <ele>3</ele>
        <time>2018-06-30T17:23:20.000Z</time>
      </trkpt>
      <trkpt lat="45.88364" lon="-0.90131">
        <ele>3</ele>
        <time>2018-06-30T17:23:21.000Z</time>
      </trkpt>
      <trkpt lat="45.88364" lon="-0.90133">
        <ele>3</ele>
        <time>2018-06-30T17:23:22.000Z</time>
      </trkpt>
      <trkpt lat="45.88364" lon="-0.90135">
        <ele>3</ele>
        <time>2018-06-30T17:23:23.000Z</time>
      </trkpt>
      <trkpt lat="45.88364" lon="-0.90137">
        <ele>3</ele>
        <time>2018-06-30T17:23:24.000Z</time>
      </trkpt>
      <trkpt lat="45.88364" lon="-0.90139">
        <ele>3</ele>
        <time>2018-06-30T17:23:25.000Z</time>
      </trkpt>
      <trkpt lat="45.88364" lon="-0.90141">
        <ele>3</ele>
        <time>2018-06-30T17:23:26.000Z</time>
      </trkpt>
      <trkpt lat="45.88364" lon="-0.90143">
        <ele>3</ele>
        <time>2018-06-30T17:23:27.000Z</time>
      </trkpt>
      <trkpt lat="45.88364" lon="-0.90144">
        <ele>3</ele>
        <time>2018-06-30T17:23:28.000Z</time>
      </trkpt>
      <trkpt lat="45.88363" lon="-0.90146">
        <ele>3</ele>
        <time>2018-06-30T17:23:29.000Z</time>
      </trkpt>
      <trkpt lat="45.88363" lon="-0.90148">
        <ele>3</ele>
        <time>2018-06-30T17:23:30.000Z</time>
      </trkpt>
      <trkpt lat="45.88363" lon="-0.9015">
        <ele>3</ele>
        <time>2018-06-30T17:23:31.000Z</time>
      </trkpt>
      <trkpt lat="45.88363" lon="-0.90152">
        <ele>3</ele>
        <time>2018-06-30T17:23:32.000Z</time>
      </trkpt>
      <trkpt lat="45.88363" lon="-0.90153">
        <ele>3</ele>
        <time>2018-06-30T17:23:33.000Z</time>
      </trkpt>
      <trkpt lat="45.88363" lon="-0.90155">
        <ele>3</ele>
        <time>2018-06-30T17:23:34.000Z</time>
      </trkpt>
      <trkpt lat="45.88363" lon="-0.90157">
        <ele>3</ele>
        <time>2018-06-30T17:23:35.000Z</time>
      </trkpt>
      <trkpt lat="45.88363" lon="-0.90158">
        <ele>2</ele>
        <time>2018-06-30T17:23:36.000Z</time>
      </trkpt>
      <trkpt lat="45.88362" lon="-0.9016">
        <ele>3</ele>
        <time>2018-06-30T17:23:37.000Z</time>
      </trkpt>
      <trkpt lat="45.88362" lon="-0.90162">
        <ele>3</ele>
        <time>2018-06-30T17:23:38.000Z</time>
      </trkpt>
      <trkpt lat="45.88362" lon="-0.90163">
        <ele>2</ele>
        <time>2018-06-30T17:23:39.000Z</time>
      </trkpt>
      <trkpt lat="45.88362" lon="-0.90165">
        <ele>2</ele>
        <time>2018-06-30T17:23:40.000Z</time>
      </trkpt>
      <trkpt lat="45.88362" lon="-0.90167">
        <ele>3</ele>
        <time>2018-06-30T17:23:41.000Z</time>
      </trkpt>
      <trkpt lat="45.88361" lon="-0.90168">
        <ele>3</ele>
        <time>2018-06-30T17:23:42.000Z</time>
      </trkpt>
      <trkpt lat="45.88361" lon="-0.9017">
        <ele>3</ele>
        <time>2018-06-30T17:23:43.000Z</time>
      </trkpt>
      <trkpt lat="45.88361" lon="-0.90172">
        <ele>3</ele>
        <time>2018-06-30T17:23:44.000Z</time>
      </trkpt>
      <trkpt lat="45.88361" lon="-0.90174">
        <ele>3</ele>
        <time>2018-06-30T17:23:45.000Z</time>
      </trkpt>
      <trkpt lat="45.88361" lon="-0.90175">
        <ele>3</ele>
        <time>2018-06-30T17:23:46.000Z</time>
      </trkpt>
      <trkpt lat="45.88361" lon="-0.90177">
        <ele>3</ele>
        <time>2018-06-30T17:23:47.000Z</time>
      </trkpt>
      <trkpt lat="45.8836" lon="-0.90179">
        <ele>4</ele>
        <time>2018-06-30T17:23:48.000Z</time>
      </trkpt>
      <trkpt lat="45.8836" lon="-0.90181">
        <ele>4</ele>
        <time>2018-06-30T17:23:49.000Z</time>
      </trkpt>
      <trkpt lat="45.8836" lon="-0.90183">
        <ele>4</ele>
        <time>2018-06-30T17:23:50.000Z</time>
      </trkpt>
      <trkpt lat="45.8836" lon="-0.90184">
        <ele>4</ele>
        <time>2018-06-30T17:23:51.000Z</time>
      </trkpt>
      <trkpt lat="45.8836" lon="-0.90186">
        <ele>4</ele>
        <time>2018-06-30T17:23:52.000Z</time>
      </trkpt>
      <trkpt lat="45.88359" lon="-0.90188">
        <ele>4</ele>
        <time>2018-06-30T17:23:53.000Z</time>
      </trkpt>
      <trkpt lat="45.88359" lon="-0.9019">
        <ele>3</ele>
        <time>2018-06-30T17:23:54.000Z</time>
      </trkpt>
      <trkpt lat="45.88359" lon="-0.90191">
        <ele>3</ele>
        <time>2018-06-30T17:23:55.000Z</time>
      </trkpt>
      <trkpt lat="45.88359" lon="-0.90193">
        <ele>4</ele>
        <time>2018-06-30T17:23:56.000Z</time>
      </trkpt>
      <trkpt lat="45.88359" lon="-0.90195">
        <ele>4</ele>
        <time>2018-06-30T17:23:57.000Z</time>
      </trkpt>
      <trkpt lat="45.88358" lon="-0.90197">
        <ele>4</ele>
        <time>2018-06-30T17:23:58.000Z</time>
      </trkpt>
      <trkpt lat="45.88358" lon="-0.90199">
        <ele>4</ele>
        <time>2018-06-30T17:23:59.000Z</time>
      </trkpt>
      <trkpt lat="45.88358" lon="-0.90201">
        <ele>4</ele>
        <time>2018-06-30T17:24:00.000Z</time>
      </trkpt>
      <trkpt lat="45.88358" lon="-0.90202">
        <ele>4</ele>
        <time>2018-06-30T17:24:01.000Z</time>
      </trkpt>
      <trkpt lat="45.88358" lon="-0.90204">
        <ele>4</ele>
        <time>2018-06-30T17:24:02.000Z</time>
      </trkpt>
      <trkpt lat="45.88357" lon="-0.90206">
        <ele>4</ele>
        <time>2018-06-30T17:24:03.000Z</time>
      </trkpt>
      <trkpt lat="45.88357" lon="-0.90207">
        <ele>4</ele>
        <time>2018-06-30T17:24:04.000Z</time>
      </trkpt>
      <trkpt lat="45.88357" lon="-0.90209">
        <ele>4</ele>
        <time>2018-06-30T17:24:05.000Z</time>
      </trkpt>
      <trkpt lat="45.88357" lon="-0.9021">
        <ele>4</ele>
        <time>2018-06-30T17:24:06.000Z</time>
      </trkpt>
      <trkpt lat="45.88356" lon="-0.90212">
        <ele>4</ele>
        <time>2018-06-30T17:24:07.000Z</time>
      </trkpt>
      <trkpt lat="45.88356" lon="-0.90213">
        <ele>4</ele>
        <time>2018-06-30T17:24:08.000Z</time>
      </trkpt>
      <trkpt lat="45.88356" lon="-0.90215">
        <ele>4</ele>
        <time>2018-06-30T17:24:09.000Z</time>
      </trkpt>
      <trkpt lat="45.88356" lon="-0.90217">
        <ele>4</ele>
        <time>2018-06-30T17:24:10.000Z</time>
      </trkpt>
      <trkpt lat="45.88355" lon="-0.90218">
        <ele>4</ele>
        <time>2018-06-30T17:24:11.000Z</time>
      </trkpt>
      <trkpt lat="45.88355" lon="-0.9022">
        <ele>4</ele>
        <time>2018-06-30T17:24:12.000Z</time>
      </trkpt>
      <trkpt lat="45.88355" lon="-0.90221">
        <ele>4</ele>
        <time>2018-06-30T17:24:13.000Z</time>
      </trkpt>
      <trkpt lat="45.88355" lon="-0.90223">
        <ele>4</ele>
        <time>2018-06-30T17:24:14.000Z</time>
      </trkpt>
      <trkpt lat="45.88355" lon="-0.90224">
        <ele>4</ele>
        <time>2018-06-30T17:24:15.000Z</time>
      </trkpt>
      <trkpt lat="45.88354" lon="-0.90226">
        <ele>4</ele>
        <time>2018-06-30T17:24:16.000Z</time>
      </trkpt>
      <trkpt lat="45.88354" lon="-0.90227">
        <ele>4</ele>
        <time>2018-06-30T17:24:17.000Z</time>
      </trkpt>
      <trkpt lat="45.88354" lon="-0.90229">
        <ele>3</ele>
        <time>2018-06-30T17:24:18.000Z</time>
      </trkpt>
      <trkpt lat="45.88354" lon="-0.90231">
        <ele>3</ele>
        <time>2018-06-30T17:24:19.000Z</time>
      </trkpt>
      <trkpt lat="45.88354" lon="-0.90232">
        <ele>3</ele>
        <time>2018-06-30T17:24:20.000Z</time>
      </trkpt>
      <trkpt lat="45.88353" lon="-0.90234">
        <ele>3</ele>
        <time>2018-06-30T17:24:21.000Z</time>
      </trkpt>
      <trkpt lat="45.88353" lon="-0.90235">
        <ele>3</ele>
        <time>2018-06-30T17:24:22.000Z</time>
      </trkpt>
      <trkpt lat="45.88353" lon="-0.90237">
        <ele>3</ele>
        <time>2018-06-30T17:24:23.000Z</time>
      </trkpt>
      <trkpt lat="45.88353" lon="-0.90239">
        <ele>3</ele>
        <time>2018-06-30T17:24:24.000Z</time>
      </trkpt>
      <trkpt lat="45.88353" lon="-0.9024">
        <ele>2</ele>
        <time>2018-06-30T17:24:25.000Z</time>
      </trkpt>
      <trkpt lat="45.88353" lon="-0.90242">
        <ele>2</ele>
        <time>2018-06-30T17:24:26.000Z</time>
      </trkpt>
      <trkpt lat="45.88352" lon="-0.90244">
        <ele>3</ele>
        <time>2018-06-30T17:24:27.000Z</time>
      </trkpt>
      <trkpt lat="45.88352" lon="-0.90245">
        <ele>3</ele>
        <time>2018-06-30T17:24:28.000Z</time>
      </trkpt>
      <trkpt lat="45.88352" lon="-0.90247">
        <ele>3</ele>
        <time>2018-06-30T17:24:29.000Z</time>
      </trkpt>
      <trkpt lat="45.88352" lon="-0.90249">
        <ele>3</ele>
        <time>2018-06-30T17:24:30.000Z</time>
      </trkpt>
      <trkpt lat="45.88352" lon="-0.90251">
        <ele>3</ele>
        <time>2018-06-30T17:24:31.000Z</time>
      </trkpt>
      <trkpt lat="45.88352" lon="-0.90252">
        <ele>3</ele>
        <time>2018-06-30T17:24:32.000Z</time>
      </trkpt>
      <trkpt lat="45.88351" lon="-0.90254">
        <ele>3</ele>
        <time>2018-06-30T17:24:33.000Z</time>
      </trkpt>
      <trkpt lat="45.88351" lon="-0.90256">
        <ele>4</ele>
        <time>2018-06-30T17:24:34.000Z</time>
      </trkpt>
      <trkpt lat="45.88351" lon="-0.90257">
        <ele>3</ele>
        <time>2018-06-30T17:24:35.000Z</time>
      </trkpt>
      <trkpt lat="45.88351" lon="-0.90259">
        <ele>3</ele>
        <time>2018-06-30T17:24:36.000Z</time>
      </trkpt>
      <trkpt lat="45.88351" lon="-0.90261">
        <ele>3</ele>
        <time>2018-06-30T17:24:37.000Z</time>
      </trkpt>
      <trkpt lat="45.88351" lon="-0.90263">
        <ele>4</ele>
        <time>2018-06-30T17:24:38.000Z</time>
      </trkpt>
      <trkpt lat="45.8835" lon="-0.90264">
        <ele>3</ele>
        <time>2018-06-30T17:24:39.000Z</time>
      </trkpt>
      <trkpt lat="45.8835" lon="-0.90266">
        <ele>3</ele>
        <time>2018-06-30T17:24:40.000Z</time>
      </trkpt>
      <trkpt lat="45.8835" lon="-0.90268">
        <ele>4</ele>
        <time>2018-06-30T17:24:41.000Z</time>
      </trkpt>
      <trkpt lat="45.8835" lon="-0.90269">
        <ele>4</ele>
        <time>2018-06-30T17:24:42.000Z</time>
      </trkpt>
      <trkpt lat="45.8835" lon="-0.90271">
        <ele>4</ele>
        <time>2018-06-30T17:24:43.000Z</time>
      </trkpt>
      <trkpt lat="45.88349" lon="-0.90273">
        <ele>3</ele>
        <time>2018-06-30T17:24:44.000Z</time>
      </trkpt>
      <trkpt lat="45.88349" lon="-0.90274">
        <ele>4</ele>
        <time>2018-06-30T17:24:45.000Z</time>
      </trkpt>
      <trkpt lat="45.88349" lon="-0.90276">
        <ele>4</ele>
        <time>2018-06-30T17:24:46.000Z</time>
      </trkpt>
      <trkpt lat="45.88349" lon="-0.90278">
        <ele>4</ele>
        <time>2018-06-30T17:24:47.000Z</time>
      </trkpt>
      <trkpt lat="45.88349" lon="-0.90279">
        <ele>4</ele>
        <time>2018-06-30T17:24:48.000Z</time>
      </trkpt>
      <trkpt lat="45.88349" lon="-0.90281">
        <ele>4</ele>
        <time>2018-06-30T17:24:49.000Z</time>
      </trkpt>
      <trkpt lat="45.88349" lon="-0.90283">
        <ele>4</ele>
        <time>2018-06-30T17:24:50.000Z</time>
      </trkpt>
      <trkpt lat="45.88348" lon="-0.90284">
        <ele>4</ele>
        <time>2018-06-30T17:24:51.000Z</time>
      </trkpt>
      <trkpt lat="45.88348" lon="-0.90286">
        <ele>4</ele>
        <time>2018-06-30T17:24:52.000Z</time>
      </trkpt>
      <trkpt lat="45.88348" lon="-0.90287">
        <ele>4</ele>
        <time>2018-06-30T17:24:53.000Z</time>
      </trkpt>
      <trkpt lat="45.88348" lon="-0.90289">
        <ele>4</ele>
        <time>2018-06-30T17:24:54.000Z</time>
      </trkpt>
      <trkpt lat="45.88347" lon="-0.90291">
        <ele>4</ele>
        <time>2018-06-30T17:24:55.000Z</time>
      </trkpt>
      <trkpt lat="45.88347" lon="-0.90292">
        <ele>4</ele>
        <time>2018-06-30T17:24:56.000Z</time>
      </trkpt>
      <trkpt lat="45.88347" lon="-0.90294">
        <ele>4</ele>
        <time>2018-06-30T17:24:57.000Z</time>
      </trkpt>
      <trkpt lat="45.88347" lon="-0.90296">
        <ele>4</ele>
        <time>2018-06-30T17:24:58.000Z</time>
      </trkpt>
      <trkpt lat="45.88347" lon="-0.90297">
        <ele>4</ele>
        <time>2018-06-30T17:24:59.000Z</time>
      </trkpt>
      <trkpt lat="45.88347" lon="-0.90299">
        <ele>4</ele>
        <time>2018-06-30T17:25:00.000Z</time>
      </trkpt>
      <trkpt lat="45.88347" lon="-0.903">
        <ele>4</ele>
        <time>2018-06-30T17:25:01.000Z</time>
      </trkpt>
      <trkpt lat="45.88346" lon="-0.90302">
        <ele>4</ele>
        <time>2018-06-30T17:25:02.000Z</time>
      </trkpt>
      <trkpt lat="45.88346" lon="-0.90304">
        <ele>4</ele>
        <time>2018-06-30T17:25:03.000Z</time>
      </trkpt>
      <trkpt lat="45.88346" lon="-0.90305">
        <ele>4</ele>
        <time>2018-06-30T17:25:04.000Z</time>
      </trkpt>
      <trkpt lat="45.88346" lon="-0.90307">
        <ele>4</ele>
        <time>2018-06-30T17:25:05.000Z</time>
      </trkpt>
      <trkpt lat="45.88346" lon="-0.90308">
        <ele>4</ele>
        <time>2018-06-30T17:25:06.000Z</time>
      </trkpt>
      <trkpt lat="45.88345" lon="-0.9031">
        <ele>4</ele>
        <time>2018-06-30T17:25:07.000Z</time>
      </trkpt>
      <trkpt lat="45.88345" lon="-0.90312">
        <ele>4</ele>
        <time>2018-06-30T17:25:08.000Z</time>
      </trkpt>
      <trkpt lat="45.88345" lon="-0.90314">
        <ele>4</ele>
        <time>2018-06-30T17:25:09.000Z</time>
      </trkpt>
      <trkpt lat="45.88345" lon="-0.90315">
        <ele>4</ele>
        <time>2018-06-30T17:25:10.000Z</time>
      </trkpt>
      <trkpt lat="45.88345" lon="-0.90317">
        <ele>4</ele>
        <time>2018-06-30T17:25:11.000Z</time>
      </trkpt>
      <trkpt lat="45.88345" lon="-0.90319">
        <ele>5</ele>
        <time>2018-06-30T17:25:12.000Z</time>
      </trkpt>
      <trkpt lat="45.88344" lon="-0.90321">
        <ele>5</ele>
        <time>2018-06-30T17:25:13.000Z</time>
      </trkpt>
      <trkpt lat="45.88344" lon="-0.90323">
        <ele>5</ele>
        <time>2018-06-30T17:25:14.000Z</time>
      </trkpt>
      <trkpt lat="45.88344" lon="-0.90325">
        <ele>5</ele>
        <time>2018-06-30T17:25:15.000Z</time>
      </trkpt>
      <trkpt lat="45.88344" lon="-0.90327">
        <ele>5</ele>
        <time>2018-06-30T17:25:16.000Z</time>
      </trkpt>
      <trkpt lat="45.88344" lon="-0.90328">
        <ele>5</ele>
        <time>2018-06-30T17:25:17.000Z</time>
      </trkpt>
      <trkpt lat="45.88343" lon="-0.9033">
        <ele>5</ele>
        <time>2018-06-30T17:25:18.000Z</time>
      </trkpt>
      <trkpt lat="45.88343" lon="-0.90332">
        <ele>5</ele>
        <time>2018-06-30T17:25:19.000Z</time>
      </trkpt>
      <trkpt lat="45.88343" lon="-0.90333">
        <ele>5</ele>
        <time>2018-06-30T17:25:20.000Z</time>
      </trkpt>
      <trkpt lat="45.88343" lon="-0.90335">
        <ele>5</ele>
        <time>2018-06-30T17:25:21.000Z</time>
      </trkpt>
      <trkpt lat="45.88343" lon="-0.90337">
        <ele>5</ele>
        <time>2018-06-30T17:25:22.000Z</time>
      </trkpt>
      <trkpt lat="45.88343" lon="-0.90339">
        <ele>5</ele>
        <time>2018-06-30T17:25:23.000Z</time>
      </trkpt>
      <trkpt lat="45.88342" lon="-0.90341">
        <ele>5</ele>
        <time>2018-06-30T17:25:24.000Z</time>
      </trkpt>
      <trkpt lat="45.88342" lon="-0.90342">
        <ele>4</ele>
        <time>2018-06-30T17:25:25.000Z</time>
      </trkpt>
      <trkpt lat="45.88342" lon="-0.90344">
        <ele>4</ele>
        <time>2018-06-30T17:25:26.000Z</time>
      </trkpt>
      <trkpt lat="45.88342" lon="-0.90346">
        <ele>4</ele>
        <time>2018-06-30T17:25:27.000Z</time>
      </trkpt>
      <trkpt lat="45.88342" lon="-0.90347">
        <ele>4</ele>
        <time>2018-06-30T17:25:28.000Z</time>
      </trkpt>
      <trkpt lat="45.88341" lon="-0.90349">
        <ele>4</ele>
        <time>2018-06-30T17:25:29.000Z</time>
      </trkpt>
      <trkpt lat="45.88341" lon="-0.90351">
        <ele>4</ele>
        <time>2018-06-30T17:25:30.000Z</time>
      </trkpt>
      <trkpt lat="45.88341" lon="-0.90352">
        <ele>4</ele>
        <time>2018-06-30T17:25:31.000Z</time>
      </trkpt>
      <trkpt lat="45.88341" lon="-0.90354">
        <ele>4</ele>
        <time>2018-06-30T17:25:32.000Z</time>
      </trkpt>
      <trkpt lat="45.88341" lon="-0.90356">
        <ele>4</ele>
        <time>2018-06-30T17:25:33.000Z</time>
      </trkpt>
      <trkpt lat="45.88341" lon="-0.90357">
        <ele>4</ele>
        <time>2018-06-30T17:25:34.000Z</time>
      </trkpt>
      <trkpt lat="45.8834" lon="-0.90359">
        <ele>4</ele>
        <time>2018-06-30T17:25:35.000Z</time>
      </trkpt>
      <trkpt lat="45.8834" lon="-0.90361">
        <ele>4</ele>
        <time>2018-06-30T17:25:36.000Z</time>
      </trkpt>
      <trkpt lat="45.8834" lon="-0.90362">
        <ele>4</ele>
        <time>2018-06-30T17:25:37.000Z</time>
      </trkpt>
      <trkpt lat="45.8834" lon="-0.90364">
        <ele>3</ele>
        <time>2018-06-30T17:25:38.000Z</time>
      </trkpt>
      <trkpt lat="45.8834" lon="-0.90365">
        <ele>3</ele>
        <time>2018-06-30T17:25:39.000Z</time>
      </trkpt>
      <trkpt lat="45.8834" lon="-0.90367">
        <ele>3</ele>
        <time>2018-06-30T17:25:40.000Z</time>
      </trkpt>
      <trkpt lat="45.8834" lon="-0.90368">
        <ele>3</ele>
        <time>2018-06-30T17:25:41.000Z</time>
      </trkpt>
      <trkpt lat="45.8834" lon="-0.9037">
        <ele>2</ele>
        <time>2018-06-30T17:25:42.000Z</time>
      </trkpt>
      <trkpt lat="45.8834" lon="-0.90372">
        <ele>2</ele>
        <time>2018-06-30T17:25:43.000Z</time>
      </trkpt>
      <trkpt lat="45.8834" lon="-0.90373">
        <ele>2</ele>
        <time>2018-06-30T17:25:44.000Z</time>
      </trkpt>
      <trkpt lat="45.8834" lon="-0.90375">
        <ele>2</ele>
        <time>2018-06-30T17:25:45.000Z</time>
      </trkpt>
      <trkpt lat="45.8834" lon="-0.90377">
        <ele>2</ele>
        <time>2018-06-30T17:25:46.000Z</time>
      </trkpt>
      <trkpt lat="45.8834" lon="-0.90378">
        <ele>2</ele>
        <time>2018-06-30T17:25:47.000Z</time>
      </trkpt>
      <trkpt lat="45.8834" lon="-0.9038">
        <ele>2</ele>
        <time>2018-06-30T17:25:48.000Z</time>
      </trkpt>
      <trkpt lat="45.8834" lon="-0.90382">
        <ele>2</ele>
        <time>2018-06-30T17:25:49.000Z</time>
      </trkpt>
      <trkpt lat="45.88339" lon="-0.90384">
        <ele>1</ele>
        <time>2018-06-30T17:25:50.000Z</time>
      </trkpt>
      <trkpt lat="45.88339" lon="-0.90385">
        <ele>1</ele>
        <time>2018-06-30T17:25:51.000Z</time>
      </trkpt>
      <trkpt lat="45.88339" lon="-0.90387">
        <ele>1</ele>
        <time>2018-06-30T17:25:52.000Z</time>
      </trkpt>
      <trkpt lat="45.88339" lon="-0.90389">
        <ele>1</ele>
        <time>2018-06-30T17:25:53.000Z</time>
      </trkpt>
      <trkpt lat="45.88339" lon="-0.9039">
        <ele>1</ele>
        <time>2018-06-30T17:25:54.000Z</time>
      </trkpt>
      <trkpt lat="45.88339" lon="-0.90392">
        <ele>1</ele>
        <time>2018-06-30T17:25:55.000Z</time>
      </trkpt>
      <trkpt lat="45.88338" lon="-0.90394">
        <ele>1</ele>
        <time>2018-06-30T17:25:56.000Z</time>
      </trkpt>
      <trkpt lat="45.88338" lon="-0.90395">
        <ele>1</ele>
        <time>2018-06-30T17:25:57.000Z</time>
      </trkpt>
      <trkpt lat="45.88338" lon="-0.90397">
        <ele>1</ele>
        <time>2018-06-30T17:25:58.000Z</time>
      </trkpt>
      <trkpt lat="45.88338" lon="-0.90399">
        <ele>1</ele>
        <time>2018-06-30T17:25:59.000Z</time>
      </trkpt>
      <trkpt lat="45.88338" lon="-0.90401">
        <ele>1</ele>
        <time>2018-06-30T17:26:00.000Z</time>
      </trkpt>
      <trkpt lat="45.88338" lon="-0.90402">
        <ele>1</ele>
        <time>2018-06-30T17:26:01.000Z</time>
      </trkpt>
      <trkpt lat="45.88339" lon="-0.90404">
        <ele>1</ele>
        <time>2018-06-30T17:26:02.000Z</time>
      </trkpt>
      <trkpt lat="45.88339" lon="-0.90406">
        <ele>1</ele>
        <time>2018-06-30T17:26:03.000Z</time>
      </trkpt>
      <trkpt lat="45.88338" lon="-0.90407">
        <ele>1</ele>
        <time>2018-06-30T17:26:04.000Z</time>
      </trkpt>
      <trkpt lat="45.88338" lon="-0.90409">
        <ele>1</ele>
        <time>2018-06-30T17:26:05.000Z</time>
      </trkpt>
      <trkpt lat="45.88338" lon="-0.90411">
        <ele>8.2</ele>
        <time>2018-06-30T17:26:06.000Z</time>
      </trkpt>
      <trkpt lat="45.88338" lon="-0.90412">
        <ele>8.2</ele>
        <time>2018-06-30T17:26:07.000Z</time>
      </trkpt>
      <trkpt lat="45.88338" lon="-0.90414">
        <ele>8.2</ele>
        <time>2018-06-30T17:26:08.000Z</time>
      </trkpt>
      <trkpt lat="45.88338" lon="-0.90415">
        <ele>8.2</ele>
        <time>2018-06-30T17:26:09.000Z</time>
      </trkpt>
      <trkpt lat="45.88338" lon="-0.90417">
        <ele>8.2</ele>
        <time>2018-06-30T17:26:10.000Z</time>
      </trkpt>
      <trkpt lat="45.88338" lon="-0.90419">
        <ele>8.2</ele>
        <time>2018-06-30T17:26:11.000Z</time>
      </trkpt>
      <trkpt lat="45.88338" lon="-0.90421">
        <ele>8.2</ele>
        <time>2018-06-30T17:26:12.000Z</time>
      </trkpt>
      <trkpt lat="45.88338" lon="-0.90422">
        <ele>8.1</ele>
        <time>2018-06-30T17:26:13.000Z</time>
      </trkpt>
      <trkpt lat="45.88338" lon="-0.90424">
        <ele>8.1</ele>
        <time>2018-06-30T17:26:14.000Z</time>
      </trkpt>
      <trkpt lat="45.88338" lon="-0.90426">
        <ele>8.1</ele>
        <time>2018-06-30T17:26:15.000Z</time>
      </trkpt>
      <trkpt lat="45.88337" lon="-0.90428">
        <ele>8.1</ele>
        <time>2018-06-30T17:26:16.000Z</time>
      </trkpt>
      <trkpt lat="45.88336" lon="-0.9043">
        <ele>8.1</ele>
        <time>2018-06-30T17:26:17.000Z</time>
      </trkpt>
      <trkpt lat="45.88336" lon="-0.90431">
        <ele>8</ele>
        <time>2018-06-30T17:26:18.000Z</time>
      </trkpt>
      <trkpt lat="45.88335" lon="-0.90433">
        <ele>8</ele>
        <time>2018-06-30T17:26:19.000Z</time>
      </trkpt>
      <trkpt lat="45.88334" lon="-0.90434">
        <ele>8</ele>
        <time>2018-06-30T17:26:20.000Z</time>
      </trkpt>
      <trkpt lat="45.88333" lon="-0.90436">
        <ele>8</ele>
        <time>2018-06-30T17:26:21.000Z</time>
      </trkpt>
      <trkpt lat="45.88333" lon="-0.90437">
        <ele>8</ele>
        <time>2018-06-30T17:26:22.000Z</time>
      </trkpt>
      <trkpt lat="45.88332" lon="-0.90439">
        <ele>7.9</ele>
        <time>2018-06-30T17:26:23.000Z</time>
      </trkpt>
      <trkpt lat="45.88331" lon="-0.9044">
        <ele>-1</ele>
        <time>2018-06-30T17:26:24.000Z</time>
      </trkpt>
      <trkpt lat="45.88331" lon="-0.90441">
        <ele>-1</ele>
        <time>2018-06-30T17:26:25.000Z</time>
      </trkpt>
      <trkpt lat="45.8833" lon="-0.90443">
        <ele>-1</ele>
        <time>2018-06-30T17:26:26.000Z</time>
      </trkpt>
      <trkpt lat="45.8833" lon="-0.90445">
        <ele>-1</ele>
        <time>2018-06-30T17:26:27.000Z</time>
      </trkpt>
      <trkpt lat="45.88329" lon="-0.90446">
        <ele>-1</ele>
        <time>2018-06-30T17:26:28.000Z</time>
      </trkpt>
      <trkpt lat="45.88329" lon="-0.90447">
        <ele>-2</ele>
        <time>2018-06-30T17:26:29.000Z</time>
      </trkpt>
      <trkpt lat="45.88329" lon="-0.90449">
        <ele>-1</ele>
        <time>2018-06-30T17:26:30.000Z</time>
      </trkpt>
      <trkpt lat="45.88328" lon="-0.9045">
        <ele>-1</ele>
        <time>2018-06-30T17:26:31.000Z</time>
      </trkpt>
      <trkpt lat="45.88328" lon="-0.90451">
        <ele>-2</ele>
        <time>2018-06-30T17:26:32.000Z</time>
      </trkpt>
      <trkpt lat="45.88328" lon="-0.90452">
        <ele>-2</ele>
        <time>2018-06-30T17:26:33.000Z</time>
      </trkpt>
      <trkpt lat="45.88328" lon="-0.90453">
        <ele>-2</ele>
        <time>2018-06-30T17:26:34.000Z</time>
      </trkpt>
      <trkpt lat="45.88328" lon="-0.90454">
        <ele>-2</ele>
        <time>2018-06-30T17:26:35.000Z</time>
      </trkpt>
      <trkpt lat="45.88327" lon="-0.90455">
        <ele>-2</ele>
        <time>2018-06-30T17:26:36.000Z</time>
      </trkpt>
      <trkpt lat="45.88327" lon="-0.90456">
        <ele>-2</ele>
        <time>2018-06-30T17:26:37.000Z</time>
      </trkpt>
      <trkpt lat="45.88327" lon="-0.90457">
        <ele>-2</ele>
        <time>2018-06-30T17:26:38.000Z</time>
      </trkpt>
      <trkpt lat="45.88326" lon="-0.90458">
        <ele>-3</ele>
        <time>2018-06-30T17:26:39.000Z</time>
      </trkpt>
      <trkpt lat="45.88326" lon="-0.90459">
        <ele>-3</ele>
        <time>2018-06-30T17:26:40.000Z</time>
      </trkpt>
      <trkpt lat="45.88326" lon="-0.9046">
        <ele>-3</ele>
        <time>2018-06-30T17:26:41.000Z</time>
      </trkpt>
      <trkpt lat="45.88325" lon="-0.90461">
        <ele>-4</ele>
        <time>2018-06-30T17:26:42.000Z</time>
      </trkpt>
      <trkpt lat="45.88325" lon="-0.90462">
        <ele>-4</ele>
        <time>2018-06-30T17:26:43.000Z</time>
      </trkpt>
      <trkpt lat="45.88325" lon="-0.90463">
        <ele>-3</ele>
        <time>2018-06-30T17:26:44.000Z</time>
      </trkpt>
      <trkpt lat="45.88324" lon="-0.90464">
        <ele>-3</ele>
        <time>2018-06-30T17:26:45.000Z</time>
      </trkpt>
      <trkpt lat="45.88324" lon="-0.90465">
        <ele>-3</ele>
        <time>2018-06-30T17:26:46.000Z</time>
      </trkpt>
      <trkpt lat="45.88323" lon="-0.90466">
        <ele>-3</ele>
        <time>2018-06-30T17:26:47.000Z</time>
      </trkpt>
      <trkpt lat="45.88323" lon="-0.90467">
        <ele>-3</ele>
        <time>2018-06-30T17:26:48.000Z</time>
      </trkpt>
      <trkpt lat="45.88322" lon="-0.90469">
        <ele>-4</ele>
        <time>2018-06-30T17:26:49.000Z</time>
      </trkpt>
      <trkpt lat="45.88322" lon="-0.9047">
        <ele>-4</ele>
        <time>2018-06-30T17:26:50.000Z</time>
      </trkpt>
      <trkpt lat="45.88322" lon="-0.90472">
        <ele>-4</ele>
        <time>2018-06-30T17:26:51.000Z</time>
      </trkpt>
      <trkpt lat="45.88321" lon="-0.90473">
        <ele>-4</ele>
        <time>2018-06-30T17:26:52.000Z</time>
      </trkpt>
      <trkpt lat="45.88321" lon="-0.90474">
        <ele>-5</ele>
        <time>2018-06-30T17:26:53.000Z</time>
      </trkpt>
      <trkpt lat="45.88321" lon="-0.90475">
        <ele>-6</ele>
        <time>2018-06-30T17:26:54.000Z</time>
      </trkpt>
      <trkpt lat="45.8832" lon="-0.90477">
        <ele>-6</ele>
        <time>2018-06-30T17:26:55.000Z</time>
      </trkpt>
      <trkpt lat="45.8832" lon="-0.90478">
        <ele>-6</ele>
        <time>2018-06-30T17:26:56.000Z</time>
      </trkpt>
      <trkpt lat="45.88319" lon="-0.90479">
        <ele>-6</ele>
        <time>2018-06-30T17:26:57.000Z</time>
      </trkpt>
      <trkpt lat="45.88319" lon="-0.9048">
        <ele>-6</ele>
        <time>2018-06-30T17:26:58.000Z</time>
      </trkpt>
      <trkpt lat="45.88318" lon="-0.90481">
        <ele>-6</ele>
        <time>2018-06-30T17:26:59.000Z</time>
      </trkpt>
      <trkpt lat="45.88318" lon="-0.90482">
        <ele>-6</ele>
        <time>2018-06-30T17:27:00.000Z</time>
      </trkpt>
      <trkpt lat="45.88317" lon="-0.90483">
        <ele>-6</ele>
        <time>2018-06-30T17:27:01.000Z</time>
      </trkpt>
      <trkpt lat="45.88317" lon="-0.90484">
        <ele>-5</ele>
        <time>2018-06-30T17:27:02.000Z</time>
      </trkpt>
      <trkpt lat="45.88316" lon="-0.90485">
        <ele>-5</ele>
        <time>2018-06-30T17:27:03.000Z</time>
      </trkpt>
      <trkpt lat="45.88316" lon="-0.90486">
        <ele>-5</ele>
        <time>2018-06-30T17:27:04.000Z</time>
      </trkpt>
      <trkpt lat="45.88316" lon="-0.90488">
        <ele>-4</ele>
        <time>2018-06-30T17:27:05.000Z</time>
      </trkpt>
      <trkpt lat="45.88315" lon="-0.90489">
        <ele>-3</ele>
        <time>2018-06-30T17:27:06.000Z</time>
      </trkpt>
      <trkpt lat="45.88315" lon="-0.90491">
        <ele>-3</ele>
        <time>2018-06-30T17:27:07.000Z</time>
      </trkpt>
      <trkpt lat="45.88315" lon="-0.90492">
        <ele>-3</ele>
        <time>2018-06-30T17:27:08.000Z</time>
      </trkpt>
      <trkpt lat="45.88315" lon="-0.90494">
        <ele>-3</ele>
        <time>2018-06-30T17:27:09.000Z</time>
      </trkpt>
      <trkpt lat="45.88315" lon="-0.90496">
        <ele>-2</ele>
        <time>2018-06-30T17:27:10.000Z</time>
      </trkpt>
      <trkpt lat="45.88315" lon="-0.90498">
        <ele>-2</ele>
        <time>2018-06-30T17:27:11.000Z</time>
      </trkpt>
      <trkpt lat="45.88315" lon="-0.90499">
        <ele>-2</ele>
        <time>2018-06-30T17:27:12.000Z</time>
      </trkpt>
      <trkpt lat="45.88316" lon="-0.90501">
        <ele>-2</ele>
        <time>2018-06-30T17:27:13.000Z</time>
      </trkpt>
      <trkpt lat="45.88316" lon="-0.90503">
        <ele>-2</ele>
        <time>2018-06-30T17:27:14.000Z</time>
      </trkpt>
      <trkpt lat="45.88317" lon="-0.90504">
        <ele>-2</ele>
        <time>2018-06-30T17:27:15.000Z</time>
      </trkpt>
      <trkpt lat="45.88317" lon="-0.90505">
        <ele>-2</ele>
        <time>2018-06-30T17:27:16.000Z</time>
      </trkpt>
      <trkpt lat="45.88317" lon="-0.90506">
        <ele>-1</ele>
        <time>2018-06-30T17:27:17.000Z</time>
      </trkpt>
      <trkpt lat="45.88317" lon="-0.90507">
        <ele>-1</ele>
        <time>2018-06-30T17:27:18.000Z</time>
      </trkpt>
      <trkpt lat="45.88318" lon="-0.90508">
        <ele>-2</ele>
        <time>2018-06-30T17:27:19.000Z</time>
      </trkpt>
      <trkpt lat="45.88318" lon="-0.9051">
        <ele>-2</ele>
        <time>2018-06-30T17:27:20.000Z</time>
      </trkpt>
      <trkpt lat="45.88319" lon="-0.90511">
        <ele>-2</ele>
        <time>2018-06-30T17:27:21.000Z</time>
      </trkpt>
      <trkpt lat="45.8832" lon="-0.90512">
        <ele>-2</ele>
        <time>2018-06-30T17:27:22.000Z</time>
      </trkpt>
      <trkpt lat="45.8832" lon="-0.90513">
        <ele>-2</ele>
        <time>2018-06-30T17:27:23.000Z</time>
      </trkpt>
      <trkpt lat="45.88321" lon="-0.90515">
        <ele>-2</ele>
        <time>2018-06-30T17:27:24.000Z</time>
      </trkpt>
      <trkpt lat="45.88322" lon="-0.90516">
        <ele>-2</ele>
        <time>2018-06-30T17:27:25.000Z</time>
      </trkpt>
      <trkpt lat="45.88323" lon="-0.90517">
        <ele>-3</ele>
        <time>2018-06-30T17:27:26.000Z</time>
      </trkpt>
      <trkpt lat="45.88324" lon="-0.90518">
        <ele>-3</ele>
        <time>2018-06-30T17:27:27.000Z</time>
      </trkpt>
      <trkpt lat="45.88325" lon="-0.90519">
        <ele>-3</ele>
        <time>2018-06-30T17:27:28.000Z</time>
      </trkpt>
      <trkpt lat="45.88325" lon="-0.90521">
        <ele>-3</ele>
        <time>2018-06-30T17:27:29.000Z</time>
      </trkpt>
      <trkpt lat="45.88325" lon="-0.90522">
        <ele>-3</ele>
        <time>2018-06-30T17:27:30.000Z</time>
      </trkpt>
      <trkpt lat="45.88326" lon="-0.90524">
        <ele>-4</ele>
        <time>2018-06-30T17:27:31.000Z</time>
      </trkpt>
      <trkpt lat="45.88326" lon="-0.90525">
        <ele>-3</ele>
        <time>2018-06-30T17:27:32.000Z</time>
      </trkpt>
      <trkpt lat="45.88327" lon="-0.90527">
        <ele>-3</ele>
        <time>2018-06-30T17:27:33.000Z</time>
      </trkpt>
      <trkpt lat="45.88327" lon="-0.90528">
        <ele>-3</ele>
        <time>2018-06-30T17:27:34.000Z</time>
      </trkpt>
      <trkpt lat="45.88328" lon="-0.9053">
        <ele>-3</ele>
        <time>2018-06-30T17:27:35.000Z</time>
      </trkpt>
      <trkpt lat="45.88328" lon="-0.90532">
        <ele>-2</ele>
        <time>2018-06-30T17:27:36.000Z</time>
      </trkpt>
      <trkpt lat="45.88328" lon="-0.90533">
        <ele>-1</ele>
        <time>2018-06-30T17:27:37.000Z</time>
      </trkpt>
      <trkpt lat="45.88329" lon="-0.90535">
        <ele>-2</ele>
        <time>2018-06-30T17:27:38.000Z</time>
      </trkpt>
      <trkpt lat="45.88329" lon="-0.90536">
        <ele>7.2</ele>
        <time>2018-06-30T17:27:39.000Z</time>
      </trkpt>
      <trkpt lat="45.88329" lon="-0.90538">
        <ele>-1</ele>
        <time>2018-06-30T17:27:40.000Z</time>
      </trkpt>
      <trkpt lat="45.8833" lon="-0.90539">
        <ele>7.1</ele>
        <time>2018-06-30T17:27:41.000Z</time>
      </trkpt>
      <trkpt lat="45.88331" lon="-0.9054">
        <ele>7.1</ele>
        <time>2018-06-30T17:27:42.000Z</time>
      </trkpt>
      <trkpt lat="45.88331" lon="-0.90541">
        <ele>7.1</ele>
        <time>2018-06-30T17:27:43.000Z</time>
      </trkpt>
      <trkpt lat="45.88332" lon="-0.90543">
        <ele>7.1</ele>
        <time>2018-06-30T17:27:44.000Z</time>
      </trkpt>
      <trkpt lat="45.88332" lon="-0.90545">
        <ele>7</ele>
        <time>2018-06-30T17:27:45.000Z</time>
      </trkpt>
      <trkpt lat="45.88333" lon="-0.90546">
        <ele>7</ele>
        <time>2018-06-30T17:27:46.000Z</time>
      </trkpt>
      <trkpt lat="45.88333" lon="-0.90548">
        <ele>7</ele>
        <time>2018-06-30T17:27:47.000Z</time>
      </trkpt>
      <trkpt lat="45.88334" lon="-0.9055">
        <ele>7</ele>
        <time>2018-06-30T17:27:48.000Z</time>
      </trkpt>
      <trkpt lat="45.88335" lon="-0.90551">
        <ele>7</ele>
        <time>2018-06-30T17:27:49.000Z</time>
      </trkpt>
      <trkpt lat="45.88335" lon="-0.90552">
        <ele>6.9</ele>
        <time>2018-06-30T17:27:50.000Z</time>
      </trkpt>
      <trkpt lat="45.88336" lon="-0.90554">
        <ele>6.9</ele>
        <time>2018-06-30T17:27:51.000Z</time>
      </trkpt>
      <trkpt lat="45.88337" lon="-0.90555">
        <ele>6.9</ele>
        <time>2018-06-30T17:27:52.000Z</time>
      </trkpt>
      <trkpt lat="45.88337" lon="-0.90557">
        <ele>6.9</ele>
        <time>2018-06-30T17:27:53.000Z</time>
      </trkpt>
      <trkpt lat="45.88338" lon="-0.90558">
        <ele>6.9</ele>
        <time>2018-06-30T17:27:54.000Z</time>
      </trkpt>
      <trkpt lat="45.88339" lon="-0.9056">
        <ele>1</ele>
        <time>2018-06-30T17:27:55.000Z</time>
      </trkpt>
      <trkpt lat="45.8834" lon="-0.90561">
        <ele>7</ele>
        <time>2018-06-30T17:27:56.000Z</time>
      </trkpt>
      <trkpt lat="45.8834" lon="-0.90563">
        <ele>7</ele>
        <time>2018-06-30T17:27:57.000Z</time>
      </trkpt>
      <trkpt lat="45.88341" lon="-0.90564">
        <ele>7</ele>
        <time>2018-06-30T17:27:58.000Z</time>
      </trkpt>
      <trkpt lat="45.88341" lon="-0.90565">
        <ele>7.1</ele>
        <time>2018-06-30T17:27:59.000Z</time>
      </trkpt>
      <trkpt lat="45.88342" lon="-0.90566">
        <ele>7.1</ele>
        <time>2018-06-30T17:28:00.000Z</time>
      </trkpt>
      <trkpt lat="45.88342" lon="-0.90568">
        <ele>1</ele>
        <time>2018-06-30T17:28:01.000Z</time>
      </trkpt>
      <trkpt lat="45.88343" lon="-0.90569">
        <ele>1</ele>
        <time>2018-06-30T17:28:02.000Z</time>
      </trkpt>
      <trkpt lat="45.88344" lon="-0.9057">
        <ele>1</ele>
        <time>2018-06-30T17:28:03.000Z</time>
      </trkpt>
      <trkpt lat="45.88344" lon="-0.90571">
        <ele>1</ele>
        <time>2018-06-30T17:28:04.000Z</time>
      </trkpt>
      <trkpt lat="45.88344" lon="-0.90572">
        <ele>1</ele>
        <time>2018-06-30T17:28:05.000Z</time>
      </trkpt>
      <trkpt lat="45.88345" lon="-0.90574">
        <ele>2</ele>
        <time>2018-06-30T17:28:06.000Z</time>
      </trkpt>
      <trkpt lat="45.88345" lon="-0.90575">
        <ele>2</ele>
        <time>2018-06-30T17:28:07.000Z</time>
      </trkpt>
      <trkpt lat="45.88346" lon="-0.90576">
        <ele>3</ele>
        <time>2018-06-30T17:28:08.000Z</time>
      </trkpt>
      <trkpt lat="45.88346" lon="-0.90578">
        <ele>3</ele>
        <time>2018-06-30T17:28:09.000Z</time>
      </trkpt>
      <trkpt lat="45.88346" lon="-0.90579">
        <ele>3</ele>
        <time>2018-06-30T17:28:10.000Z</time>
      </trkpt>
      <trkpt lat="45.88346" lon="-0.90581">
        <ele>3</ele>
        <time>2018-06-30T17:28:11.000Z</time>
      </trkpt>
      <trkpt lat="45.88347" lon="-0.90583">
        <ele>2</ele>
        <time>2018-06-30T17:28:12.000Z</time>
      </trkpt>
      <trkpt lat="45.88347" lon="-0.90585">
        <ele>3</ele>
        <time>2018-06-30T17:28:13.000Z</time>
      </trkpt>
      <trkpt lat="45.88347" lon="-0.90587">
        <ele>3</ele>
        <time>2018-06-30T17:28:14.000Z</time>
      </trkpt>
      <trkpt lat="45.88348" lon="-0.90589">
        <ele>3</ele>
        <time>2018-06-30T17:28:15.000Z</time>
      </trkpt>
      <trkpt lat="45.88348" lon="-0.90591">
        <ele>2</ele>
        <time>2018-06-30T17:28:16.000Z</time>
      </trkpt>
      <trkpt lat="45.88349" lon="-0.90593">
        <ele>1</ele>
        <time>2018-06-30T17:28:17.000Z</time>
      </trkpt>
      <trkpt lat="45.88349" lon="-0.90595">
        <ele>1</ele>
        <time>2018-06-30T17:28:18.000Z</time>
      </trkpt>
      <trkpt lat="45.8835" lon="-0.90597">
        <ele>1</ele>
        <time>2018-06-30T17:28:19.000Z</time>
      </trkpt>
      <trkpt lat="45.8835" lon="-0.90599">
        <ele>7.4</ele>
        <time>2018-06-30T17:28:20.000Z</time>
      </trkpt>
      <trkpt lat="45.88351" lon="-0.90601">
        <ele>7.4</ele>
        <time>2018-06-30T17:28:21.000Z</time>
      </trkpt>
      <trkpt lat="45.88351" lon="-0.90602">
        <ele>7.4</ele>
        <time>2018-06-30T17:28:22.000Z</time>
      </trkpt>
      <trkpt lat="45.88351" lon="-0.90604">
        <ele>7.4</ele>
        <time>2018-06-30T17:28:23.000Z</time>
      </trkpt>
      <trkpt lat="45.88351" lon="-0.90606">
        <ele>7.4</ele>
        <time>2018-06-30T17:28:24.000Z</time>
      </trkpt>
      <trkpt lat="45.88352" lon="-0.90607">
        <ele>7.3</ele>
        <time>2018-06-30T17:28:25.000Z</time>
      </trkpt>
      <trkpt lat="45.88352" lon="-0.90609">
        <ele>7.3</ele>
        <time>2018-06-30T17:28:26.000Z</time>
      </trkpt>
      <trkpt lat="45.88352" lon="-0.9061">
        <ele>7.3</ele>
        <time>2018-06-30T17:28:27.000Z</time>
      </trkpt>
      <trkpt lat="45.88352" lon="-0.90612">
        <ele>7.3</ele>
        <time>2018-06-30T17:28:28.000Z</time>
      </trkpt>
      <trkpt lat="45.88353" lon="-0.90614">
        <ele>7.3</ele>
        <time>2018-06-30T17:28:29.000Z</time>
      </trkpt>
      <trkpt lat="45.88353" lon="-0.90615">
        <ele>1</ele>
        <time>2018-06-30T17:28:30.000Z</time>
      </trkpt>
      <trkpt lat="45.88354" lon="-0.90617">
        <ele>7.3</ele>
        <time>2018-06-30T17:28:31.000Z</time>
      </trkpt>
      <trkpt lat="45.88354" lon="-0.90618">
        <ele>7.3</ele>
        <time>2018-06-30T17:28:32.000Z</time>
      </trkpt>
      <trkpt lat="45.88354" lon="-0.9062">
        <ele>7.3</ele>
        <time>2018-06-30T17:28:33.000Z</time>
      </trkpt>
      <trkpt lat="45.88354" lon="-0.90621">
        <ele>-1</ele>
        <time>2018-06-30T17:28:34.000Z</time>
      </trkpt>
      <trkpt lat="45.88355" lon="-0.90623">
        <ele>-1</ele>
        <time>2018-06-30T17:28:35.000Z</time>
      </trkpt>
      <trkpt lat="45.88355" lon="-0.90624">
        <ele>-1</ele>
        <time>2018-06-30T17:28:36.000Z</time>
      </trkpt>
      <trkpt lat="45.88355" lon="-0.90626">
        <ele>-1</ele>
        <time>2018-06-30T17:28:37.000Z</time>
      </trkpt>
      <trkpt lat="45.88355" lon="-0.90628">
        <ele>-2</ele>
        <time>2018-06-30T17:28:38.000Z</time>
      </trkpt>
      <trkpt lat="45.88355" lon="-0.90629">
        <ele>-2</ele>
        <time>2018-06-30T17:28:39.000Z</time>
      </trkpt>
      <trkpt lat="45.88356" lon="-0.90631">
        <ele>-1</ele>
        <time>2018-06-30T17:28:40.000Z</time>
      </trkpt>
      <trkpt lat="45.88357" lon="-0.90633">
        <ele>-2</ele>
        <time>2018-06-30T17:28:41.000Z</time>
      </trkpt>
      <trkpt lat="45.88357" lon="-0.90634">
        <ele>-2</ele>
        <time>2018-06-30T17:28:42.000Z</time>
      </trkpt>
      <trkpt lat="45.88358" lon="-0.90636">
        <ele>-2</ele>
        <time>2018-06-30T17:28:43.000Z</time>
      </trkpt>
      <trkpt lat="45.88358" lon="-0.90638">
        <ele>-3</ele>
        <time>2018-06-30T17:28:44.000Z</time>
      </trkpt>
      <trkpt lat="45.88359" lon="-0.9064">
        <ele>-3</ele>
        <time>2018-06-30T17:28:45.000Z</time>
      </trkpt>
      <trkpt lat="45.88359" lon="-0.90641">
        <ele>-3</ele>
        <time>2018-06-30T17:28:46.000Z</time>
      </trkpt>
      <trkpt lat="45.88359" lon="-0.90643">
        <ele>-3</ele>
        <time>2018-06-30T17:28:47.000Z</time>
      </trkpt>
      <trkpt lat="45.8836" lon="-0.90644">
        <ele>-3</ele>
        <time>2018-06-30T17:28:48.000Z</time>
      </trkpt>
      <trkpt lat="45.8836" lon="-0.90646">
        <ele>-3</ele>
        <time>2018-06-30T17:28:49.000Z</time>
      </trkpt>
      <trkpt lat="45.88361" lon="-0.90647">
        <ele>-3</ele>
        <time>2018-06-30T17:28:50.000Z</time>
      </trkpt>
      <trkpt lat="45.88362" lon="-0.90649">
        <ele>-4</ele>
        <time>2018-06-30T17:28:51.000Z</time>
      </trkpt>
      <trkpt lat="45.88362" lon="-0.90651">
        <ele>-4</ele>
        <time>2018-06-30T17:28:52.000Z</time>
      </trkpt>
      <trkpt lat="45.88362" lon="-0.90653">
        <ele>-4</ele>
        <time>2018-06-30T17:28:53.000Z</time>
      </trkpt>
      <trkpt lat="45.88363" lon="-0.90655">
        <ele>-3</ele>
        <time>2018-06-30T17:28:54.000Z</time>
      </trkpt>
      <trkpt lat="45.88363" lon="-0.90657">
        <ele>-3</ele>
        <time>2018-06-30T17:28:55.000Z</time>
      </trkpt>
      <trkpt lat="45.88364" lon="-0.90659">
        <ele>-3</ele>
        <time>2018-06-30T17:28:56.000Z</time>
      </trkpt>
      <trkpt lat="45.88364" lon="-0.90661">
        <ele>-3</ele>
        <time>2018-06-30T17:28:57.000Z</time>
      </trkpt>
      <trkpt lat="45.88364" lon="-0.90663">
        <ele>-3</ele>
        <time>2018-06-30T17:28:58.000Z</time>
      </trkpt>
      <trkpt lat="45.88365" lon="-0.90664">
        <ele>-3</ele>
        <time>2018-06-30T17:28:59.000Z</time>
      </trkpt>
      <trkpt lat="45.88365" lon="-0.90666">
        <ele>-3</ele>
        <time>2018-06-30T17:29:00.000Z</time>
      </trkpt>
      <trkpt lat="45.88365" lon="-0.90668">
        <ele>-3</ele>
        <time>2018-06-30T17:29:01.000Z</time>
      </trkpt>
      <trkpt lat="45.88365" lon="-0.90669">
        <ele>-3</ele>
        <time>2018-06-30T17:29:02.000Z</time>
      </trkpt>
      <trkpt lat="45.88366" lon="-0.90671">
        <ele>-3</ele>
        <time>2018-06-30T17:29:03.000Z</time>
      </trkpt>
      <trkpt lat="45.88366" lon="-0.90673">
        <ele>-2</ele>
        <time>2018-06-30T17:29:04.000Z</time>
      </trkpt>
      <trkpt lat="45.88366" lon="-0.90675">
        <ele>-2</ele>
        <time>2018-06-30T17:29:05.000Z</time>
      </trkpt>
      <trkpt lat="45.88366" lon="-0.90676">
        <ele>-2</ele>
        <time>2018-06-30T17:29:06.000Z</time>
      </trkpt>
      <trkpt lat="45.88366" lon="-0.90678">
        <ele>-2</ele>
        <time>2018-06-30T17:29:07.000Z</time>
      </trkpt>
      <trkpt lat="45.88366" lon="-0.9068">
        <ele>-2</ele>
        <time>2018-06-30T17:29:08.000Z</time>
      </trkpt>
      <trkpt lat="45.88366" lon="-0.90681">
        <ele>-2</ele>
        <time>2018-06-30T17:29:09.000Z</time>
      </trkpt>
      <trkpt lat="45.88366" lon="-0.90683">
        <ele>-3</ele>
        <time>2018-06-30T17:29:10.000Z</time>
      </trkpt>
      <trkpt lat="45.88366" lon="-0.90684">
        <ele>-3</ele>
        <time>2018-06-30T17:29:11.000Z</time>
      </trkpt>
      <trkpt lat="45.88366" lon="-0.90685">
        <ele>-3</ele>
        <time>2018-06-30T17:29:12.000Z</time>
      </trkpt>
      <trkpt lat="45.88366" lon="-0.90687">
        <ele>-3</ele>
        <time>2018-06-30T17:29:13.000Z</time>
      </trkpt>
      <trkpt lat="45.88366" lon="-0.90688">
        <ele>-4</ele>
        <time>2018-06-30T17:29:14.000Z</time>
      </trkpt>
      <trkpt lat="45.88367" lon="-0.9069">
        <ele>-4</ele>
        <time>2018-06-30T17:29:15.000Z</time>
      </trkpt>
      <trkpt lat="45.88368" lon="-0.90692">
        <ele>-5</ele>
        <time>2018-06-30T17:29:16.000Z</time>
      </trkpt>
      <trkpt lat="45.88369" lon="-0.90693">
        <ele>-5</ele>
        <time>2018-06-30T17:29:17.000Z</time>
      </trkpt>
      <trkpt lat="45.8837" lon="-0.90695">
        <ele>-6</ele>
        <time>2018-06-30T17:29:18.000Z</time>
      </trkpt>
      <trkpt lat="45.88371" lon="-0.90697">
        <ele>-5</ele>
        <time>2018-06-30T17:29:19.000Z</time>
      </trkpt>
      <trkpt lat="45.88371" lon="-0.90699">
        <ele>-6</ele>
        <time>2018-06-30T17:29:20.000Z</time>
      </trkpt>
      <trkpt lat="45.8837" lon="-0.907">
        <ele>-5</ele>
        <time>2018-06-30T17:29:21.000Z</time>
      </trkpt>
      <trkpt lat="45.8837" lon="-0.90702">
        <ele>-5</ele>
        <time>2018-06-30T17:29:22.000Z</time>
      </trkpt>
      <trkpt lat="45.8837" lon="-0.90704">
        <ele>-5</ele>
        <time>2018-06-30T17:29:23.000Z</time>
      </trkpt>
      <trkpt lat="45.8837" lon="-0.90705">
        <ele>-5</ele>
        <time>2018-06-30T17:29:24.000Z</time>
      </trkpt>
      <trkpt lat="45.8837" lon="-0.90706">
        <ele>-4</ele>
        <time>2018-06-30T17:29:25.000Z</time>
      </trkpt>
      <trkpt lat="45.8837" lon="-0.90707">
        <ele>-3</ele>
        <time>2018-06-30T17:29:26.000Z</time>
      </trkpt>
      <trkpt lat="45.8837" lon="-0.90708">
        <ele>-3</ele>
        <time>2018-06-30T17:29:27.000Z</time>
      </trkpt>
      <trkpt lat="45.88371" lon="-0.90709">
        <ele>-3</ele>
        <time>2018-06-30T17:29:28.000Z</time>
      </trkpt>
      <trkpt lat="45.88371" lon="-0.90711">
        <ele>-3</ele>
        <time>2018-06-30T17:29:29.000Z</time>
      </trkpt>
      <trkpt lat="45.88371" lon="-0.90712">
        <ele>-3</ele>
        <time>2018-06-30T17:29:30.000Z</time>
      </trkpt>
      <trkpt lat="45.88371" lon="-0.90713">
        <ele>-3</ele>
        <time>2018-06-30T17:29:31.000Z</time>
      </trkpt>
      <trkpt lat="45.8837" lon="-0.90715">
        <ele>-2</ele>
        <time>2018-06-30T17:29:32.000Z</time>
      </trkpt>
      <trkpt lat="45.8837" lon="-0.90717">
        <ele>-2</ele>
        <time>2018-06-30T17:29:33.000Z</time>
      </trkpt>
      <trkpt lat="45.8837" lon="-0.90718">
        <ele>-3</ele>
        <time>2018-06-30T17:29:34.000Z</time>
      </trkpt>
      <trkpt lat="45.8837" lon="-0.9072">
        <ele>-2</ele>
        <time>2018-06-30T17:29:35.000Z</time>
      </trkpt>
      <trkpt lat="45.8837" lon="-0.90721">
        <ele>-2</ele>
        <time>2018-06-30T17:29:36.000Z</time>
      </trkpt>
      <trkpt lat="45.8837" lon="-0.90723">
        <ele>-2</ele>
        <time>2018-06-30T17:29:37.000Z</time>
      </trkpt>
      <trkpt lat="45.8837" lon="-0.90724">
        <ele>-2</ele>
        <time>2018-06-30T17:29:38.000Z</time>
      </trkpt>
      <trkpt lat="45.8837" lon="-0.90726">
        <ele>-2</ele>
        <time>2018-06-30T17:29:39.000Z</time>
      </trkpt>
      <trkpt lat="45.8837" lon="-0.90727">
        <ele>-2</ele>
        <time>2018-06-30T17:29:40.000Z</time>
      </trkpt>
      <trkpt lat="45.88369" lon="-0.90729">
        <ele>-2</ele>
        <time>2018-06-30T17:29:41.000Z</time>
      </trkpt>
      <trkpt lat="45.88369" lon="-0.9073">
        <ele>-2</ele>
        <time>2018-06-30T17:29:42.000Z</time>
      </trkpt>
      <trkpt lat="45.88369" lon="-0.90732">
        <ele>-2</ele>
        <time>2018-06-30T17:29:43.000Z</time>
      </trkpt>
      <trkpt lat="45.88368" lon="-0.90734">
        <ele>-2</ele>
        <time>2018-06-30T17:29:44.000Z</time>
      </trkpt>
      <trkpt lat="45.88368" lon="-0.90735">
        <ele>-1</ele>
        <time>2018-06-30T17:29:45.000Z</time>
      </trkpt>
      <trkpt lat="45.88368" lon="-0.90737">
        <ele>-1</ele>
        <time>2018-06-30T17:29:46.000Z</time>
      </trkpt>
      <trkpt lat="45.88367" lon="-0.90738">
        <ele>-1</ele>
        <time>2018-06-30T17:29:47.000Z</time>
      </trkpt>
      <trkpt lat="45.88367" lon="-0.9074">
        <ele>-1</ele>
        <time>2018-06-30T17:29:48.000Z</time>
      </trkpt>
      <trkpt lat="45.88366" lon="-0.90742">
        <ele>-1</ele>
        <time>2018-06-30T17:29:49.000Z</time>
      </trkpt>
      <trkpt lat="45.88366" lon="-0.90743">
        <ele>-1</ele>
        <time>2018-06-30T17:29:50.000Z</time>
      </trkpt>
      <trkpt lat="45.88366" lon="-0.90745">
        <ele>-1</ele>
        <time>2018-06-30T17:29:51.000Z</time>
      </trkpt>
      <trkpt lat="45.88365" lon="-0.90746">
        <ele>7</ele>
        <time>2018-06-30T17:29:52.000Z</time>
      </trkpt>
      <trkpt lat="45.88365" lon="-0.90747">
        <ele>-1</ele>
        <time>2018-06-30T17:29:53.000Z</time>
      </trkpt>
      <trkpt lat="45.88364" lon="-0.90749">
        <ele>-1</ele>
        <time>2018-06-30T17:29:54.000Z</time>
      </trkpt>
      <trkpt lat="45.88364" lon="-0.9075">
        <ele>7</ele>
        <time>2018-06-30T17:29:55.000Z</time>
      </trkpt>
      <trkpt lat="45.88363" lon="-0.90751">
        <ele>-1</ele>
        <time>2018-06-30T17:29:56.000Z</time>
      </trkpt>
      <trkpt lat="45.88363" lon="-0.90752">
        <ele>-1</ele>
        <time>2018-06-30T17:29:57.000Z</time>
      </trkpt>
      <trkpt lat="45.88362" lon="-0.90753">
        <ele>-1</ele>
        <time>2018-06-30T17:29:58.000Z</time>
      </trkpt>
      <trkpt lat="45.88361" lon="-0.90755">
        <ele>-1</ele>
        <time>2018-06-30T17:29:59.000Z</time>
      </trkpt>
      <trkpt lat="45.88361" lon="-0.90756">
        <ele>-2</ele>
        <time>2018-06-30T17:30:00.000Z</time>
      </trkpt>
      <trkpt lat="45.88361" lon="-0.90758">
        <ele>-2</ele>
        <time>2018-06-30T17:30:01.000Z</time>
      </trkpt>
      <trkpt lat="45.88361" lon="-0.9076">
        <ele>-2</ele>
        <time>2018-06-30T17:30:02.000Z</time>
      </trkpt>
      <trkpt lat="45.8836" lon="-0.90762">
        <ele>-3</ele>
        <time>2018-06-30T17:30:03.000Z</time>
      </trkpt>
      <trkpt lat="45.8836" lon="-0.90763">
        <ele>-3</ele>
        <time>2018-06-30T17:30:04.000Z</time>
      </trkpt>
      <trkpt lat="45.8836" lon="-0.90765">
        <ele>-3</ele>
        <time>2018-06-30T17:30:05.000Z</time>
      </trkpt>
      <trkpt lat="45.8836" lon="-0.90766">
        <ele>-3</ele>
        <time>2018-06-30T17:30:06.000Z</time>
      </trkpt>
      <trkpt lat="45.8836" lon="-0.90767">
        <ele>-2</ele>
        <time>2018-06-30T17:30:07.000Z</time>
      </trkpt>
      <trkpt lat="45.88359" lon="-0.90769">
        <ele>-2</ele>
        <time>2018-06-30T17:30:08.000Z</time>
      </trkpt>
      <trkpt lat="45.88359" lon="-0.9077">
        <ele>-1</ele>
        <time>2018-06-30T17:30:09.000Z</time>
      </trkpt>
      <trkpt lat="45.88359" lon="-0.90772">
        <ele>-2</ele>
        <time>2018-06-30T17:30:10.000Z</time>
      </trkpt>
      <trkpt lat="45.88359" lon="-0.90774">
        <ele>7</ele>
        <time>2018-06-30T17:30:11.000Z</time>
      </trkpt>
      <trkpt lat="45.88359" lon="-0.90775">
        <ele>7</ele>
        <time>2018-06-30T17:30:12.000Z</time>
      </trkpt>
      <trkpt lat="45.88358" lon="-0.90776">
        <ele>7</ele>
        <time>2018-06-30T17:30:13.000Z</time>
      </trkpt>
      <trkpt lat="45.88359" lon="-0.90777">
        <ele>1</ele>
        <time>2018-06-30T17:30:14.000Z</time>
      </trkpt>
      <trkpt lat="45.88359" lon="-0.90779">
        <ele>7</ele>
        <time>2018-06-30T17:30:15.000Z</time>
      </trkpt>
      <trkpt lat="45.88359" lon="-0.9078">
        <ele>1</ele>
        <time>2018-06-30T17:30:16.000Z</time>
      </trkpt>
      <trkpt lat="45.88359" lon="-0.90781">
        <ele>7</ele>
        <time>2018-06-30T17:30:17.000Z</time>
      </trkpt>
      <trkpt lat="45.88359" lon="-0.90783">
        <ele>7</ele>
        <time>2018-06-30T17:30:18.000Z</time>
      </trkpt>
      <trkpt lat="45.88359" lon="-0.90785">
        <ele>7</ele>
        <time>2018-06-30T17:30:19.000Z</time>
      </trkpt>
      <trkpt lat="45.88359" lon="-0.90787">
        <ele>7</ele>
        <time>2018-06-30T17:30:20.000Z</time>
      </trkpt>
      <trkpt lat="45.88359" lon="-0.90789">
        <ele>7</ele>
        <time>2018-06-30T17:30:21.000Z</time>
      </trkpt>
      <trkpt lat="45.88359" lon="-0.9079">
        <ele>7</ele>
        <time>2018-06-30T17:30:22.000Z</time>
      </trkpt>
      <trkpt lat="45.88359" lon="-0.90792">
        <ele>7</ele>
        <time>2018-06-30T17:30:23.000Z</time>
      </trkpt>
      <trkpt lat="45.88359" lon="-0.90794">
        <ele>7</ele>
        <time>2018-06-30T17:30:24.000Z</time>
      </trkpt>
      <trkpt lat="45.88359" lon="-0.90795">
        <ele>7</ele>
        <time>2018-06-30T17:30:25.000Z</time>
      </trkpt>
      <trkpt lat="45.88359" lon="-0.90797">
        <ele>7</ele>
        <time>2018-06-30T17:30:26.000Z</time>
      </trkpt>
      <trkpt lat="45.88359" lon="-0.90798">
        <ele>7</ele>
        <time>2018-06-30T17:30:27.000Z</time>
      </trkpt>
      <trkpt lat="45.88359" lon="-0.908">
        <ele>1</ele>
        <time>2018-06-30T17:30:28.000Z</time>
      </trkpt>
      <trkpt lat="45.88359" lon="-0.90802">
        <ele>1</ele>
        <time>2018-06-30T17:30:29.000Z</time>
      </trkpt>
      <trkpt lat="45.88359" lon="-0.90803">
        <ele>1</ele>
        <time>2018-06-30T17:30:30.000Z</time>
      </trkpt>
      <trkpt lat="45.88359" lon="-0.90805">
        <ele>1</ele>
        <time>2018-06-30T17:30:31.000Z</time>
      </trkpt>
      <trkpt lat="45.88359" lon="-0.90807">
        <ele>1</ele>
        <time>2018-06-30T17:30:32.000Z</time>
      </trkpt>
      <trkpt lat="45.88359" lon="-0.90808">
        <ele>1</ele>
        <time>2018-06-30T17:30:33.000Z</time>
      </trkpt>
      <trkpt lat="45.8836" lon="-0.9081">
        <ele>2</ele>
        <time>2018-06-30T17:30:34.000Z</time>
      </trkpt>
      <trkpt lat="45.8836" lon="-0.90812">
        <ele>2</ele>
        <time>2018-06-30T17:30:35.000Z</time>
      </trkpt>
      <trkpt lat="45.8836" lon="-0.90814">
        <ele>2</ele>
        <time>2018-06-30T17:30:36.000Z</time>
      </trkpt>
      <trkpt lat="45.8836" lon="-0.90815">
        <ele>2</ele>
        <time>2018-06-30T17:30:37.000Z</time>
      </trkpt>
      <trkpt lat="45.8836" lon="-0.90817">
        <ele>1</ele>
        <time>2018-06-30T17:30:38.000Z</time>
      </trkpt>
      <trkpt lat="45.88361" lon="-0.90818">
        <ele>1</ele>
        <time>2018-06-30T17:30:39.000Z</time>
      </trkpt>
      <trkpt lat="45.88361" lon="-0.9082">
        <ele>2</ele>
        <time>2018-06-30T17:30:40.000Z</time>
      </trkpt>
      <trkpt lat="45.88361" lon="-0.90821">
        <ele>2</ele>
        <time>2018-06-30T17:30:41.000Z</time>
      </trkpt>
      <trkpt lat="45.88362" lon="-0.90822">
        <ele>2</ele>
        <time>2018-06-30T17:30:42.000Z</time>
      </trkpt>
      <trkpt lat="45.88362" lon="-0.90823">
        <ele>2</ele>
        <time>2018-06-30T17:30:43.000Z</time>
      </trkpt>
      <trkpt lat="45.88363" lon="-0.90825">
        <ele>2</ele>
        <time>2018-06-30T17:30:44.000Z</time>
      </trkpt>
      <trkpt lat="45.88363" lon="-0.90826">
        <ele>2</ele>
        <time>2018-06-30T17:30:45.000Z</time>
      </trkpt>
      <trkpt lat="45.88363" lon="-0.90827">
        <ele>2</ele>
        <time>2018-06-30T17:30:46.000Z</time>
      </trkpt>
      <trkpt lat="45.88363" lon="-0.90829">
        <ele>2</ele>
        <time>2018-06-30T17:30:47.000Z</time>
      </trkpt>
      <trkpt lat="45.88364" lon="-0.9083">
        <ele>2</ele>
        <time>2018-06-30T17:30:48.000Z</time>
      </trkpt>
      <trkpt lat="45.88364" lon="-0.90831">
        <ele>3</ele>
        <time>2018-06-30T17:30:49.000Z</time>
      </trkpt>
      <trkpt lat="45.88364" lon="-0.90833">
        <ele>2</ele>
        <time>2018-06-30T17:30:50.000Z</time>
      </trkpt>
      <trkpt lat="45.88365" lon="-0.90834">
        <ele>2</ele>
        <time>2018-06-30T17:30:51.000Z</time>
      </trkpt>
      <trkpt lat="45.88365" lon="-0.90836">
        <ele>1</ele>
        <time>2018-06-30T17:30:52.000Z</time>
      </trkpt>
      <trkpt lat="45.88366" lon="-0.90837">
        <ele>1</ele>
        <time>2018-06-30T17:30:53.000Z</time>
      </trkpt>
      <trkpt lat="45.88366" lon="-0.90838">
        <ele>2</ele>
        <time>2018-06-30T17:30:54.000Z</time>
      </trkpt>
      <trkpt lat="45.88367" lon="-0.90839">
        <ele>2</ele>
        <time>2018-06-30T17:30:55.000Z</time>
      </trkpt>
      <trkpt lat="45.88368" lon="-0.90841">
        <ele>1</ele>
        <time>2018-06-30T17:30:56.000Z</time>
      </trkpt>
      <trkpt lat="45.88368" lon="-0.90842">
        <ele>1</ele>
        <time>2018-06-30T17:30:57.000Z</time>
      </trkpt>
      <trkpt lat="45.88369" lon="-0.90843">
        <ele>7</ele>
        <time>2018-06-30T17:30:58.000Z</time>
      </trkpt>
      <trkpt lat="45.8837" lon="-0.90845">
        <ele>7</ele>
        <time>2018-06-30T17:30:59.000Z</time>
      </trkpt>
      <trkpt lat="45.88371" lon="-0.90847">
        <ele>7</ele>
        <time>2018-06-30T17:31:00.000Z</time>
      </trkpt>
      <trkpt lat="45.88371" lon="-0.90848">
        <ele>7</ele>
        <time>2018-06-30T17:31:01.000Z</time>
      </trkpt>
      <trkpt lat="45.88372" lon="-0.9085">
        <ele>7</ele>
        <time>2018-06-30T17:31:02.000Z</time>
      </trkpt>
      <trkpt lat="45.88373" lon="-0.90852">
        <ele>7</ele>
        <time>2018-06-30T17:31:03.000Z</time>
      </trkpt>
      <trkpt lat="45.88373" lon="-0.90853">
        <ele>7</ele>
        <time>2018-06-30T17:31:04.000Z</time>
      </trkpt>
      <trkpt lat="45.88373" lon="-0.90855">
        <ele>7</ele>
        <time>2018-06-30T17:31:05.000Z</time>
      </trkpt>
      <trkpt lat="45.88374" lon="-0.90856">
        <ele>7</ele>
        <time>2018-06-30T17:31:06.000Z</time>
      </trkpt>
      <trkpt lat="45.88374" lon="-0.90858">
        <ele>7</ele>
        <time>2018-06-30T17:31:07.000Z</time>
      </trkpt>
      <trkpt lat="45.88374" lon="-0.90859">
        <ele>7</ele>
        <time>2018-06-30T17:31:08.000Z</time>
      </trkpt>
      <trkpt lat="45.88374" lon="-0.90861">
        <ele>7</ele>
        <time>2018-06-30T17:31:09.000Z</time>
      </trkpt>
      <trkpt lat="45.88375" lon="-0.90862">
        <ele>7</ele>
        <time>2018-06-30T17:31:10.000Z</time>
      </trkpt>
      <trkpt lat="45.88375" lon="-0.90863">
        <ele>7</ele>
        <time>2018-06-30T17:31:11.000Z</time>
      </trkpt>
      <trkpt lat="45.88376" lon="-0.90865">
        <ele>7</ele>
        <time>2018-06-30T17:31:12.000Z</time>
      </trkpt>
      <trkpt lat="45.88376" lon="-0.90866">
        <ele>1</ele>
        <time>2018-06-30T17:31:13.000Z</time>
      </trkpt>
      <trkpt lat="45.88377" lon="-0.90868">
        <ele>1</ele>
        <time>2018-06-30T17:31:14.000Z</time>
      </trkpt>
      <trkpt lat="45.88377" lon="-0.90869">
        <ele>1</ele>
        <time>2018-06-30T17:31:15.000Z</time>
      </trkpt>
      <trkpt lat="45.88378" lon="-0.9087">
        <ele>7</ele>
        <time>2018-06-30T17:31:16.000Z</time>
      </trkpt>
      <trkpt lat="45.88378" lon="-0.90871">
        <ele>7</ele>
        <time>2018-06-30T17:31:17.000Z</time>
      </trkpt>
      <trkpt lat="45.88379" lon="-0.90872">
        <ele>7</ele>
        <time>2018-06-30T17:31:18.000Z</time>
      </trkpt>
      <trkpt lat="45.8838" lon="-0.90873">
        <ele>7</ele>
        <time>2018-06-30T17:31:19.000Z</time>
      </trkpt>
      <trkpt lat="45.8838" lon="-0.90874">
        <ele>7</ele>
        <time>2018-06-30T17:31:20.000Z</time>
      </trkpt>
      <trkpt lat="45.88381" lon="-0.90875">
        <ele>7</ele>
        <time>2018-06-30T17:31:21.000Z</time>
      </trkpt>
      <trkpt lat="45.88382" lon="-0.90876">
        <ele>7</ele>
        <time>2018-06-30T17:31:22.000Z</time>
      </trkpt>
      <trkpt lat="45.88383" lon="-0.90877">
        <ele>7</ele>
        <time>2018-06-30T17:31:23.000Z</time>
      </trkpt>
      <trkpt lat="45.88383" lon="-0.90878">
        <ele>7</ele>
        <time>2018-06-30T17:31:24.000Z</time>
      </trkpt>
      <trkpt lat="45.88384" lon="-0.90879">
        <ele>7</ele>
        <time>2018-06-30T17:31:25.000Z</time>
      </trkpt>
      <trkpt lat="45.88385" lon="-0.90879">
        <ele>7</ele>
        <time>2018-06-30T17:31:26.000Z</time>
      </trkpt>
      <trkpt lat="45.88386" lon="-0.9088">
        <ele>7</ele>
        <time>2018-06-30T17:31:27.000Z</time>
      </trkpt>
      <trkpt lat="45.88387" lon="-0.90881">
        <ele>7</ele>
        <time>2018-06-30T17:31:28.000Z</time>
      </trkpt>
      <trkpt lat="45.88387" lon="-0.90882">
        <ele>7</ele>
        <time>2018-06-30T17:31:29.000Z</time>
      </trkpt>
      <trkpt lat="45.88388" lon="-0.90883">
        <ele>7</ele>
        <time>2018-06-30T17:31:30.000Z</time>
      </trkpt>
      <trkpt lat="45.88388" lon="-0.90884">
        <ele>7</ele>
        <time>2018-06-30T17:31:31.000Z</time>
      </trkpt>
      <trkpt lat="45.88389" lon="-0.90885">
        <ele>1</ele>
        <time>2018-06-30T17:31:32.000Z</time>
      </trkpt>
      <trkpt lat="45.8839" lon="-0.90886">
        <ele>7</ele>
        <time>2018-06-30T17:31:33.000Z</time>
      </trkpt>
      <trkpt lat="45.8839" lon="-0.90886">
        <ele>1</ele>
        <time>2018-06-30T17:31:34.000Z</time>
      </trkpt>
      <trkpt lat="45.88391" lon="-0.90887">
        <ele>1</ele>
        <time>2018-06-30T17:31:35.000Z</time>
      </trkpt>
      <trkpt lat="45.88392" lon="-0.90888">
        <ele>1</ele>
        <time>2018-06-30T17:31:36.000Z</time>
      </trkpt>
      <trkpt lat="45.88392" lon="-0.90889">
        <ele>1</ele>
        <time>2018-06-30T17:31:37.000Z</time>
      </trkpt>
      <trkpt lat="45.88393" lon="-0.9089">
        <ele>2</ele>
        <time>2018-06-30T17:31:38.000Z</time>
      </trkpt>
      <trkpt lat="45.88394" lon="-0.90892">
        <ele>2</ele>
        <time>2018-06-30T17:31:39.000Z</time>
      </trkpt>
      <trkpt lat="45.88394" lon="-0.90893">
        <ele>2</ele>
        <time>2018-06-30T17:31:40.000Z</time>
      </trkpt>
      <trkpt lat="45.88395" lon="-0.90893">
        <ele>3</ele>
        <time>2018-06-30T17:31:41.000Z</time>
      </trkpt>
      <trkpt lat="45.88395" lon="-0.90894">
        <ele>3</ele>
        <time>2018-06-30T17:31:42.000Z</time>
      </trkpt>
      <trkpt lat="45.88396" lon="-0.90895">
        <ele>4</ele>
        <time>2018-06-30T17:31:43.000Z</time>
      </trkpt>
      <trkpt lat="45.88396" lon="-0.90895">
        <ele>4</ele>
        <time>2018-06-30T17:31:44.000Z</time>
      </trkpt>
      <trkpt lat="45.88397" lon="-0.90896">
        <ele>4</ele>
        <time>2018-06-30T17:31:45.000Z</time>
      </trkpt>
      <trkpt lat="45.88398" lon="-0.90897">
        <ele>4</ele>
        <time>2018-06-30T17:31:46.000Z</time>
      </trkpt>
      <trkpt lat="45.88399" lon="-0.90897">
        <ele>4</ele>
        <time>2018-06-30T17:31:47.000Z</time>
      </trkpt>
      <trkpt lat="45.884" lon="-0.90898">
        <ele>4</ele>
        <time>2018-06-30T17:31:48.000Z</time>
      </trkpt>
      <trkpt lat="45.88401" lon="-0.90898">
        <ele>5</ele>
        <time>2018-06-30T17:31:49.000Z</time>
      </trkpt>
      <trkpt lat="45.88402" lon="-0.90899">
        <ele>5</ele>
        <time>2018-06-30T17:31:50.000Z</time>
      </trkpt>
      <trkpt lat="45.88403" lon="-0.909">
        <ele>5</ele>
        <time>2018-06-30T17:31:51.000Z</time>
      </trkpt>
      <trkpt lat="45.88404" lon="-0.909">
        <ele>5</ele>
        <time>2018-06-30T17:31:52.000Z</time>
      </trkpt>
      <trkpt lat="45.88405" lon="-0.90901">
        <ele>5</ele>
        <time>2018-06-30T17:31:53.000Z</time>
      </trkpt>
      <trkpt lat="45.88406" lon="-0.90902">
        <ele>6</ele>
        <time>2018-06-30T17:31:54.000Z</time>
      </trkpt>
      <trkpt lat="45.88407" lon="-0.90902">
        <ele>6</ele>
        <time>2018-06-30T17:31:55.000Z</time>
      </trkpt>
      <trkpt lat="45.88407" lon="-0.90903">
        <ele>6</ele>
        <time>2018-06-30T17:31:56.000Z</time>
      </trkpt>
      <trkpt lat="45.88408" lon="-0.90904">
        <ele>6</ele>
        <time>2018-06-30T17:31:57.000Z</time>
      </trkpt>
      <trkpt lat="45.88409" lon="-0.90904">
        <ele>6</ele>
        <time>2018-06-30T17:31:58.000Z</time>
      </trkpt>
      <trkpt lat="45.8841" lon="-0.90904">
        <ele>5</ele>
        <time>2018-06-30T17:31:59.000Z</time>
      </trkpt>
      <trkpt lat="45.88411" lon="-0.90905">
        <ele>5</ele>
        <time>2018-06-30T17:32:00.000Z</time>
      </trkpt>
      <trkpt lat="45.88412" lon="-0.90906">
        <ele>5</ele>
        <time>2018-06-30T17:32:01.000Z</time>
      </trkpt>
      <trkpt lat="45.88413" lon="-0.90906">
        <ele>5</ele>
        <time>2018-06-30T17:32:02.000Z</time>
      </trkpt>
      <trkpt lat="45.88414" lon="-0.90907">
        <ele>5</ele>
        <time>2018-06-30T17:32:03.000Z</time>
      </trkpt>
      <trkpt lat="45.88415" lon="-0.90908">
        <ele>4</ele>
        <time>2018-06-30T17:32:04.000Z</time>
      </trkpt>
      <trkpt lat="45.88416" lon="-0.90908">
        <ele>5</ele>
        <time>2018-06-30T17:32:05.000Z</time>
      </trkpt>
      <trkpt lat="45.88418" lon="-0.90909">
        <ele>5</ele>
        <time>2018-06-30T17:32:06.000Z</time>
      </trkpt>
      <trkpt lat="45.88419" lon="-0.9091">
        <ele>4</ele>
        <time>2018-06-30T17:32:07.000Z</time>
      </trkpt>
      <trkpt lat="45.8842" lon="-0.9091">
        <ele>4</ele>
        <time>2018-06-30T17:32:08.000Z</time>
      </trkpt>
      <trkpt lat="45.88421" lon="-0.90911">
        <ele>5</ele>
        <time>2018-06-30T17:32:09.000Z</time>
      </trkpt>
      <trkpt lat="45.88422" lon="-0.90912">
        <ele>5</ele>
        <time>2018-06-30T17:32:10.000Z</time>
      </trkpt>
      <trkpt lat="45.88423" lon="-0.90912">
        <ele>5</ele>
        <time>2018-06-30T17:32:11.000Z</time>
      </trkpt>
      <trkpt lat="45.88424" lon="-0.90913">
        <ele>5</ele>
        <time>2018-06-30T17:32:12.000Z</time>
      </trkpt>
      <trkpt lat="45.88425" lon="-0.90914">
        <ele>4</ele>
        <time>2018-06-30T17:32:13.000Z</time>
      </trkpt>
      <trkpt lat="45.88426" lon="-0.90915">
        <ele>4</ele>
        <time>2018-06-30T17:32:14.000Z</time>
      </trkpt>
      <trkpt lat="45.88426" lon="-0.90916">
        <ele>5</ele>
        <time>2018-06-30T17:32:15.000Z</time>
      </trkpt>
      <trkpt lat="45.88427" lon="-0.90917">
        <ele>5</ele>
        <time>2018-06-30T17:32:16.000Z</time>
      </trkpt>
      <trkpt lat="45.88428" lon="-0.90918">
        <ele>5</ele>
        <time>2018-06-30T17:32:17.000Z</time>
      </trkpt>
      <trkpt lat="45.88429" lon="-0.90919">
        <ele>4</ele>
        <time>2018-06-30T17:32:18.000Z</time>
      </trkpt>
      <trkpt lat="45.8843" lon="-0.9092">
        <ele>4</ele>
        <time>2018-06-30T17:32:19.000Z</time>
      </trkpt>
      <trkpt lat="45.88431" lon="-0.90921">
        <ele>4</ele>
        <time>2018-06-30T17:32:20.000Z</time>
      </trkpt>
      <trkpt lat="45.88432" lon="-0.90922">
        <ele>5</ele>
        <time>2018-06-30T17:32:21.000Z</time>
      </trkpt>
      <trkpt lat="45.88432" lon="-0.90922">
        <ele>5</ele>
        <time>2018-06-30T17:32:22.000Z</time>
      </trkpt>
      <trkpt lat="45.88433" lon="-0.90923">
        <ele>4</ele>
        <time>2018-06-30T17:32:23.000Z</time>
      </trkpt>
      <trkpt lat="45.88434" lon="-0.90923">
        <ele>4</ele>
        <time>2018-06-30T17:32:24.000Z</time>
      </trkpt>
      <trkpt lat="45.88435" lon="-0.90924">
        <ele>3</ele>
        <time>2018-06-30T17:32:25.000Z</time>
      </trkpt>
      <trkpt lat="45.88436" lon="-0.90925">
        <ele>3</ele>
        <time>2018-06-30T17:32:26.000Z</time>
      </trkpt>
      <trkpt lat="45.88437" lon="-0.90926">
        <ele>3</ele>
        <time>2018-06-30T17:32:27.000Z</time>
      </trkpt>
      <trkpt lat="45.88439" lon="-0.90927">
        <ele>3</ele>
        <time>2018-06-30T17:32:28.000Z</time>
      </trkpt>
      <trkpt lat="45.8844" lon="-0.90928">
        <ele>4</ele>
        <time>2018-06-30T17:32:29.000Z</time>
      </trkpt>
      <trkpt lat="45.88441" lon="-0.90929">
        <ele>3</ele>
        <time>2018-06-30T17:32:30.000Z</time>
      </trkpt>
      <trkpt lat="45.88441" lon="-0.9093">
        <ele>3</ele>
        <time>2018-06-30T17:32:31.000Z</time>
      </trkpt>
      <trkpt lat="45.88442" lon="-0.90931">
        <ele>3</ele>
        <time>2018-06-30T17:32:32.000Z</time>
      </trkpt>
      <trkpt lat="45.88443" lon="-0.90932">
        <ele>2</ele>
        <time>2018-06-30T17:32:33.000Z</time>
      </trkpt>
      <trkpt lat="45.88444" lon="-0.90933">
        <ele>2</ele>
        <time>2018-06-30T17:32:34.000Z</time>
      </trkpt>
      <trkpt lat="45.88445" lon="-0.90934">
        <ele>1</ele>
        <time>2018-06-30T17:32:35.000Z</time>
      </trkpt>
      <trkpt lat="45.88445" lon="-0.90934">
        <ele>7</ele>
        <time>2018-06-30T17:32:36.000Z</time>
      </trkpt>
      <trkpt lat="45.88446" lon="-0.90935">
        <ele>7</ele>
        <time>2018-06-30T17:32:37.000Z</time>
      </trkpt>
      <trkpt lat="45.88447" lon="-0.90936">
        <ele>7</ele>
        <time>2018-06-30T17:32:38.000Z</time>
      </trkpt>
      <trkpt lat="45.88448" lon="-0.90936">
        <ele>7</ele>
        <time>2018-06-30T17:32:39.000Z</time>
      </trkpt>
      <trkpt lat="45.88449" lon="-0.90938">
        <ele>7</ele>
        <time>2018-06-30T17:32:40.000Z</time>
      </trkpt>
      <trkpt lat="45.8845" lon="-0.90939">
        <ele>-1</ele>
        <time>2018-06-30T17:32:41.000Z</time>
      </trkpt>
      <trkpt lat="45.88451" lon="-0.9094">
        <ele>-1</ele>
        <time>2018-06-30T17:32:42.000Z</time>
      </trkpt>
      <trkpt lat="45.88452" lon="-0.90941">
        <ele>-1</ele>
        <time>2018-06-30T17:32:43.000Z</time>
      </trkpt>
      <trkpt lat="45.88452" lon="-0.90942">
        <ele>-2</ele>
        <time>2018-06-30T17:32:44.000Z</time>
      </trkpt>
      <trkpt lat="45.88453" lon="-0.90943">
        <ele>-1</ele>
        <time>2018-06-30T17:32:45.000Z</time>
      </trkpt>
      <trkpt lat="45.88454" lon="-0.90945">
        <ele>-2</ele>
        <time>2018-06-30T17:32:46.000Z</time>
      </trkpt>
      <trkpt lat="45.88455" lon="-0.90946">
        <ele>-2</ele>
        <time>2018-06-30T17:32:47.000Z</time>
      </trkpt>
      <trkpt lat="45.88457" lon="-0.90947">
        <ele>-2</ele>
        <time>2018-06-30T17:32:48.000Z</time>
      </trkpt>
      <trkpt lat="45.88458" lon="-0.90948">
        <ele>-1</ele>
        <time>2018-06-30T17:32:49.000Z</time>
      </trkpt>
      <trkpt lat="45.88459" lon="-0.9095">
        <ele>-2</ele>
        <time>2018-06-30T17:32:50.000Z</time>
      </trkpt>
      <trkpt lat="45.88459" lon="-0.90951">
        <ele>-1</ele>
        <time>2018-06-30T17:32:51.000Z</time>
      </trkpt>
      <trkpt lat="45.8846" lon="-0.90952">
        <ele>-1</ele>
        <time>2018-06-30T17:32:52.000Z</time>
      </trkpt>
      <trkpt lat="45.88461" lon="-0.90953">
        <ele>-1</ele>
        <time>2018-06-30T17:32:53.000Z</time>
      </trkpt>
      <trkpt lat="45.88462" lon="-0.90954">
        <ele>-1</ele>
        <time>2018-06-30T17:32:54.000Z</time>
      </trkpt>
      <trkpt lat="45.88462" lon="-0.90955">
        <ele>-1</ele>
        <time>2018-06-30T17:32:55.000Z</time>
      </trkpt>
      <trkpt lat="45.88463" lon="-0.90956">
        <ele>-1</ele>
        <time>2018-06-30T17:32:56.000Z</time>
      </trkpt>
      <trkpt lat="45.88463" lon="-0.90957">
        <ele>-1</ele>
        <time>2018-06-30T17:32:57.000Z</time>
      </trkpt>
      <trkpt lat="45.88464" lon="-0.90958">
        <ele>-1</ele>
        <time>2018-06-30T17:32:58.000Z</time>
      </trkpt>
      <trkpt lat="45.88464" lon="-0.90959">
        <ele>-1</ele>
        <time>2018-06-30T17:32:59.000Z</time>
      </trkpt>
      <trkpt lat="45.88465" lon="-0.9096">
        <ele>-1</ele>
        <time>2018-06-30T17:33:00.000Z</time>
      </trkpt>
      <trkpt lat="45.88465" lon="-0.90961">
        <ele>-2</ele>
        <time>2018-06-30T17:33:01.000Z</time>
      </trkpt>
      <trkpt lat="45.88466" lon="-0.90961">
        <ele>-2</ele>
        <time>2018-06-30T17:33:02.000Z</time>
      </trkpt>
      <trkpt lat="45.88467" lon="-0.90962">
        <ele>-2</ele>
        <time>2018-06-30T17:33:03.000Z</time>
      </trkpt>
      <trkpt lat="45.88468" lon="-0.90963">
        <ele>-2</ele>
        <time>2018-06-30T17:33:04.000Z</time>
      </trkpt>
      <trkpt lat="45.88468" lon="-0.90964">
        <ele>-2</ele>
        <time>2018-06-30T17:33:05.000Z</time>
      </trkpt>
      <trkpt lat="45.88469" lon="-0.90964">
        <ele>-2</ele>
        <time>2018-06-30T17:33:06.000Z</time>
      </trkpt>
      <trkpt lat="45.8847" lon="-0.90965">
        <ele>-3</ele>
        <time>2018-06-30T17:33:07.000Z</time>
      </trkpt>
      <trkpt lat="45.88471" lon="-0.90966">
        <ele>-2</ele>
        <time>2018-06-30T17:33:08.000Z</time>
      </trkpt>
      <trkpt lat="45.88472" lon="-0.90967">
        <ele>-2</ele>
        <time>2018-06-30T17:33:09.000Z</time>
      </trkpt>
      <trkpt lat="45.88472" lon="-0.90967">
        <ele>-1</ele>
        <time>2018-06-30T17:33:10.000Z</time>
      </trkpt>
      <trkpt lat="45.88473" lon="-0.90968">
        <ele>-1</ele>
        <time>2018-06-30T17:33:11.000Z</time>
      </trkpt>
      <trkpt lat="45.88474" lon="-0.90969">
        <ele>-1</ele>
        <time>2018-06-30T17:33:12.000Z</time>
      </trkpt>
      <trkpt lat="45.88475" lon="-0.90969">
        <ele>-1</ele>
        <time>2018-06-30T17:33:13.000Z</time>
      </trkpt>
      <trkpt lat="45.88476" lon="-0.9097">
        <ele>-1</ele>
        <time>2018-06-30T17:33:14.000Z</time>
      </trkpt>
      <trkpt lat="45.88477" lon="-0.9097">
        <ele>-1</ele>
        <time>2018-06-30T17:33:15.000Z</time>
      </trkpt>
      <trkpt lat="45.88478" lon="-0.90971">
        <ele>-1</ele>
        <time>2018-06-30T17:33:16.000Z</time>
      </trkpt>
      <trkpt lat="45.88478" lon="-0.90971">
        <ele>-2</ele>
        <time>2018-06-30T17:33:17.000Z</time>
      </trkpt>
      <trkpt lat="45.88479" lon="-0.90972">
        <ele>-1</ele>
        <time>2018-06-30T17:33:18.000Z</time>
      </trkpt>
      <trkpt lat="45.8848" lon="-0.90972">
        <ele>-1</ele>
        <time>2018-06-30T17:33:19.000Z</time>
      </trkpt>
      <trkpt lat="45.88481" lon="-0.90973">
        <ele>-1</ele>
        <time>2018-06-30T17:33:20.000Z</time>
      </trkpt>
      <trkpt lat="45.88482" lon="-0.90973">
        <ele>-1</ele>
        <time>2018-06-30T17:33:21.000Z</time>
      </trkpt>
      <trkpt lat="45.88483" lon="-0.90974">
        <ele>-1</ele>
        <time>2018-06-30T17:33:22.000Z</time>
      </trkpt>
      <trkpt lat="45.88484" lon="-0.90975">
        <ele>-1</ele>
        <time>2018-06-30T17:33:23.000Z</time>
      </trkpt>
      <trkpt lat="45.88485" lon="-0.90975">
        <ele>-1</ele>
        <time>2018-06-30T17:33:24.000Z</time>
      </trkpt>
      <trkpt lat="45.88486" lon="-0.90976">
        <ele>-1</ele>
        <time>2018-06-30T17:33:25.000Z</time>
      </trkpt>
      <trkpt lat="45.88487" lon="-0.90976">
        <ele>-1</ele>
        <time>2018-06-30T17:33:26.000Z</time>
      </trkpt>
      <trkpt lat="45.88488" lon="-0.90977">
        <ele>-1</ele>
        <time>2018-06-30T17:33:27.000Z</time>
      </trkpt>
      <trkpt lat="45.88489" lon="-0.90978">
        <ele>6.4</ele>
        <time>2018-06-30T17:33:28.000Z</time>
      </trkpt>
      <trkpt lat="45.88489" lon="-0.90979">
        <ele>6.4</ele>
        <time>2018-06-30T17:33:29.000Z</time>
      </trkpt>
      <trkpt lat="45.8849" lon="-0.90979">
        <ele>6.4</ele>
        <time>2018-06-30T17:33:30.000Z</time>
      </trkpt>
      <trkpt lat="45.88491" lon="-0.9098">
        <ele>6.3</ele>
        <time>2018-06-30T17:33:31.000Z</time>
      </trkpt>
      <trkpt lat="45.88491" lon="-0.90982">
        <ele>6.3</ele>
        <time>2018-06-30T17:33:32.000Z</time>
      </trkpt>
      <trkpt lat="45.88491" lon="-0.90983">
        <ele>6.3</ele>
        <time>2018-06-30T17:33:33.000Z</time>
      </trkpt>
      <trkpt lat="45.88491" lon="-0.90985">
        <ele>6.3</ele>
        <time>2018-06-30T17:33:34.000Z</time>
      </trkpt>
      <trkpt lat="45.88491" lon="-0.90987">
        <ele>6.3</ele>
        <time>2018-06-30T17:33:35.000Z</time>
      </trkpt>
      <trkpt lat="45.88491" lon="-0.90989">
        <ele>6.3</ele>
        <time>2018-06-30T17:33:36.000Z</time>
      </trkpt>
      <trkpt lat="45.8849" lon="-0.9099">
        <ele>6.4</ele>
        <time>2018-06-30T17:33:37.000Z</time>
      </trkpt>
      <trkpt lat="45.88489" lon="-0.90992">
        <ele>6.4</ele>
        <time>2018-06-30T17:33:38.000Z</time>
      </trkpt>
      <trkpt lat="45.88489" lon="-0.90994">
        <ele>6.4</ele>
        <time>2018-06-30T17:33:39.000Z</time>
      </trkpt>
      <trkpt lat="45.88488" lon="-0.90995">
        <ele>6.4</ele>
        <time>2018-06-30T17:33:40.000Z</time>
      </trkpt>
      <trkpt lat="45.88487" lon="-0.90997">
        <ele>6.5</ele>
        <time>2018-06-30T17:33:41.000Z</time>
      </trkpt>
      <trkpt lat="45.88486" lon="-0.90998">
        <ele>6.5</ele>
        <time>2018-06-30T17:33:42.000Z</time>
      </trkpt>
      <trkpt lat="45.88485" lon="-0.90998">
        <ele>6.5</ele>
        <time>2018-06-30T17:33:43.000Z</time>
      </trkpt>
      <trkpt lat="45.88484" lon="-0.90999">
        <ele>6.6</ele>
        <time>2018-06-30T17:33:44.000Z</time>
      </trkpt>
      <trkpt lat="45.88483" lon="-0.91">
        <ele>6.6</ele>
        <time>2018-06-30T17:33:45.000Z</time>
      </trkpt>
      <trkpt lat="45.88482" lon="-0.91">
        <ele>6.6</ele>
        <time>2018-06-30T17:33:46.000Z</time>
      </trkpt>
      <trkpt lat="45.88481" lon="-0.91001">
        <ele>6.7</ele>
        <time>2018-06-30T17:33:47.000Z</time>
      </trkpt>
      <trkpt lat="45.8848" lon="-0.91002">
        <ele>6.7</ele>
        <time>2018-06-30T17:33:48.000Z</time>
      </trkpt>
      <trkpt lat="45.88478" lon="-0.91003">
        <ele>6.7</ele>
        <time>2018-06-30T17:33:49.000Z</time>
      </trkpt>
      <trkpt lat="45.88477" lon="-0.91004">
        <ele>6.7</ele>
        <time>2018-06-30T17:33:50.000Z</time>
      </trkpt>
      <trkpt lat="45.88476" lon="-0.91004">
        <ele>6.7</ele>
        <time>2018-06-30T17:33:51.000Z</time>
      </trkpt>
      <trkpt lat="45.88475" lon="-0.91005">
        <ele>6.7</ele>
        <time>2018-06-30T17:33:52.000Z</time>
      </trkpt>
      <trkpt lat="45.88474" lon="-0.91006">
        <ele>6.8</ele>
        <time>2018-06-30T17:33:53.000Z</time>
      </trkpt>
      <trkpt lat="45.88473" lon="-0.91006">
        <ele>6.8</ele>
        <time>2018-06-30T17:33:54.000Z</time>
      </trkpt>
      <trkpt lat="45.88472" lon="-0.91007">
        <ele>6.8</ele>
        <time>2018-06-30T17:33:55.000Z</time>
      </trkpt>
      <trkpt lat="45.8847" lon="-0.91007">
        <ele>1</ele>
        <time>2018-06-30T17:33:56.000Z</time>
      </trkpt>
      <trkpt lat="45.88469" lon="-0.91008">
        <ele>1</ele>
        <time>2018-06-30T17:33:57.000Z</time>
      </trkpt>
      <trkpt lat="45.88468" lon="-0.91008">
        <ele>1</ele>
        <time>2018-06-30T17:33:58.000Z</time>
      </trkpt>
      <trkpt lat="45.88467" lon="-0.91009">
        <ele>1</ele>
        <time>2018-06-30T17:33:59.000Z</time>
      </trkpt>
      <trkpt lat="45.88466" lon="-0.91009">
        <ele>1</ele>
        <time>2018-06-30T17:34:00.000Z</time>
      </trkpt>
      <trkpt lat="45.88465" lon="-0.9101">
        <ele>2</ele>
        <time>2018-06-30T17:34:01.000Z</time>
      </trkpt>
      <trkpt lat="45.88464" lon="-0.9101">
        <ele>2</ele>
        <time>2018-06-30T17:34:02.000Z</time>
      </trkpt>
      <trkpt lat="45.88463" lon="-0.91011">
        <ele>2</ele>
        <time>2018-06-30T17:34:03.000Z</time>
      </trkpt>
      <trkpt lat="45.88462" lon="-0.91011">
        <ele>2</ele>
        <time>2018-06-30T17:34:04.000Z</time>
      </trkpt>
      <trkpt lat="45.88461" lon="-0.91011">
        <ele>2</ele>
        <time>2018-06-30T17:34:05.000Z</time>
      </trkpt>
      <trkpt lat="45.8846" lon="-0.91012">
        <ele>1</ele>
        <time>2018-06-30T17:34:06.000Z</time>
      </trkpt>
      <trkpt lat="45.88459" lon="-0.91012">
        <ele>1</ele>
        <time>2018-06-30T17:34:07.000Z</time>
      </trkpt>
      <trkpt lat="45.88458" lon="-0.91012">
        <ele>1</ele>
        <time>2018-06-30T17:34:08.000Z</time>
      </trkpt>
      <trkpt lat="45.88457" lon="-0.91013">
        <ele>2</ele>
        <time>2018-06-30T17:34:09.000Z</time>
      </trkpt>
      <trkpt lat="45.88456" lon="-0.91013">
        <ele>2</ele>
        <time>2018-06-30T17:34:10.000Z</time>
      </trkpt>
      <trkpt lat="45.88455" lon="-0.91013">
        <ele>2</ele>
        <time>2018-06-30T17:34:11.000Z</time>
      </trkpt>
      <trkpt lat="45.88454" lon="-0.91013">
        <ele>2</ele>
        <time>2018-06-30T17:34:12.000Z</time>
      </trkpt>
      <trkpt lat="45.88453" lon="-0.91014">
        <ele>2</ele>
        <time>2018-06-30T17:34:13.000Z</time>
      </trkpt>
      <trkpt lat="45.88452" lon="-0.91014">
        <ele>2</ele>
        <time>2018-06-30T17:34:14.000Z</time>
      </trkpt>
      <trkpt lat="45.8845" lon="-0.91014">
        <ele>2</ele>
        <time>2018-06-30T17:34:15.000Z</time>
      </trkpt>
      <trkpt lat="45.88449" lon="-0.91014">
        <ele>1</ele>
        <time>2018-06-30T17:34:16.000Z</time>
      </trkpt>
      <trkpt lat="45.88448" lon="-0.91014">
        <ele>1</ele>
        <time>2018-06-30T17:34:17.000Z</time>
      </trkpt>
      <trkpt lat="45.88447" lon="-0.91014">
        <ele>1</ele>
        <time>2018-06-30T17:34:18.000Z</time>
      </trkpt>
      <trkpt lat="45.88446" lon="-0.91014">
        <ele>1</ele>
        <time>2018-06-30T17:34:19.000Z</time>
      </trkpt>
      <trkpt lat="45.88445" lon="-0.91014">
        <ele>1</ele>
        <time>2018-06-30T17:34:20.000Z</time>
      </trkpt>
      <trkpt lat="45.88444" lon="-0.91014">
        <ele>1</ele>
        <time>2018-06-30T17:34:21.000Z</time>
      </trkpt>
      <trkpt lat="45.88443" lon="-0.91014">
        <ele>7</ele>
        <time>2018-06-30T17:34:22.000Z</time>
      </trkpt>
      <trkpt lat="45.88442" lon="-0.91015">
        <ele>7</ele>
        <time>2018-06-30T17:34:23.000Z</time>
      </trkpt>
      <trkpt lat="45.88442" lon="-0.91015">
        <ele>7</ele>
        <time>2018-06-30T17:34:24.000Z</time>
      </trkpt>
      <trkpt lat="45.8844" lon="-0.91015">
        <ele>7.1</ele>
        <time>2018-06-30T17:34:25.000Z</time>
      </trkpt>
      <trkpt lat="45.88439" lon="-0.91015">
        <ele>7.1</ele>
        <time>2018-06-30T17:34:26.000Z</time>
      </trkpt>
      <trkpt lat="45.88438" lon="-0.91015">
        <ele>7.1</ele>
        <time>2018-06-30T17:34:27.000Z</time>
      </trkpt>
      <trkpt lat="45.88437" lon="-0.91014">
        <ele>7.1</ele>
        <time>2018-06-30T17:34:28.000Z</time>
      </trkpt>
      <trkpt lat="45.88436" lon="-0.91015">
        <ele>7.1</ele>
        <time>2018-06-30T17:34:29.000Z</time>
      </trkpt>
      <trkpt lat="45.88435" lon="-0.91015">
        <ele>7.2</ele>
        <time>2018-06-30T17:34:30.000Z</time>
      </trkpt>
      <trkpt lat="45.88434" lon="-0.91015">
        <ele>7.2</ele>
        <time>2018-06-30T17:34:31.000Z</time>
      </trkpt>
      <trkpt lat="45.88433" lon="-0.91015">
        <ele>7.2</ele>
        <time>2018-06-30T17:34:32.000Z</time>
      </trkpt>
      <trkpt lat="45.88432" lon="-0.91015">
        <ele>7.2</ele>
        <time>2018-06-30T17:34:33.000Z</time>
      </trkpt>
      <trkpt lat="45.88431" lon="-0.91015">
        <ele>7.2</ele>
        <time>2018-06-30T17:34:34.000Z</time>
      </trkpt>
      <trkpt lat="45.8843" lon="-0.91015">
        <ele>7.2</ele>
        <time>2018-06-30T17:34:35.000Z</time>
      </trkpt>
      <trkpt lat="45.88429" lon="-0.91015">
        <ele>7.2</ele>
        <time>2018-06-30T17:34:36.000Z</time>
      </trkpt>
      <trkpt lat="45.88428" lon="-0.91015">
        <ele>7.3</ele>
        <time>2018-06-30T17:34:37.000Z</time>
      </trkpt>
      <trkpt lat="45.88427" lon="-0.91015">
        <ele>7.3</ele>
        <time>2018-06-30T17:34:38.000Z</time>
      </trkpt>
      <trkpt lat="45.88426" lon="-0.91015">
        <ele>7.3</ele>
        <time>2018-06-30T17:34:39.000Z</time>
      </trkpt>
      <trkpt lat="45.88425" lon="-0.91015">
        <ele>7.3</ele>
        <time>2018-06-30T17:34:40.000Z</time>
      </trkpt>
      <trkpt lat="45.88423" lon="-0.91015">
        <ele>7.3</ele>
        <time>2018-06-30T17:34:41.000Z</time>
      </trkpt>
      <trkpt lat="45.88422" lon="-0.91015">
        <ele>1</ele>
        <time>2018-06-30T17:34:42.000Z</time>
      </trkpt>
      <trkpt lat="45.88421" lon="-0.91015">
        <ele>7.4</ele>
        <time>2018-06-30T17:34:43.000Z</time>
      </trkpt>
      <trkpt lat="45.8842" lon="-0.91015">
        <ele>7.4</ele>
        <time>2018-06-30T17:34:44.000Z</time>
      </trkpt>
      <trkpt lat="45.88419" lon="-0.91015">
        <ele>1</ele>
        <time>2018-06-30T17:34:45.000Z</time>
      </trkpt>
      <trkpt lat="45.88417" lon="-0.91015">
        <ele>1</ele>
        <time>2018-06-30T17:34:46.000Z</time>
      </trkpt>
      <trkpt lat="45.88416" lon="-0.91015">
        <ele>1</ele>
        <time>2018-06-30T17:34:47.000Z</time>
      </trkpt>
      <trkpt lat="45.88415" lon="-0.91015">
        <ele>1</ele>
        <time>2018-06-30T17:34:48.000Z</time>
      </trkpt>
      <trkpt lat="45.88414" lon="-0.91016">
        <ele>1</ele>
        <time>2018-06-30T17:34:49.000Z</time>
      </trkpt>
      <trkpt lat="45.88413" lon="-0.91015">
        <ele>1</ele>
        <time>2018-06-30T17:34:50.000Z</time>
      </trkpt>
      <trkpt lat="45.88412" lon="-0.91015">
        <ele>1</ele>
        <time>2018-06-30T17:34:51.000Z</time>
      </trkpt>
      <trkpt lat="45.88411" lon="-0.91015">
        <ele>1</ele>
        <time>2018-06-30T17:34:52.000Z</time>
      </trkpt>
      <trkpt lat="45.8841" lon="-0.91015">
        <ele>1</ele>
        <time>2018-06-30T17:34:53.000Z</time>
      </trkpt>
      <trkpt lat="45.88408" lon="-0.91015">
        <ele>1</ele>
        <time>2018-06-30T17:34:54.000Z</time>
      </trkpt>
      <trkpt lat="45.88407" lon="-0.91015">
        <ele>1</ele>
        <time>2018-06-30T17:34:55.000Z</time>
      </trkpt>
      <trkpt lat="45.88406" lon="-0.91015">
        <ele>1</ele>
        <time>2018-06-30T17:34:56.000Z</time>
      </trkpt>
      <trkpt lat="45.88405" lon="-0.91015">
        <ele>1</ele>
        <time>2018-06-30T17:34:57.000Z</time>
      </trkpt>
      <trkpt lat="45.88404" lon="-0.91015">
        <ele>2</ele>
        <time>2018-06-30T17:34:58.000Z</time>
      </trkpt>
      <trkpt lat="45.88403" lon="-0.91014">
        <ele>2</ele>
        <time>2018-06-30T17:34:59.000Z</time>
      </trkpt>
      <trkpt lat="45.88401" lon="-0.91014">
        <ele>2</ele>
        <time>2018-06-30T17:35:00.000Z</time>
      </trkpt>
      <trkpt lat="45.884" lon="-0.91014">
        <ele>2</ele>
        <time>2018-06-30T17:35:01.000Z</time>
      </trkpt>
      <trkpt lat="45.884" lon="-0.91014">
        <ele>2</ele>
        <time>2018-06-30T17:35:02.000Z</time>
      </trkpt>
      <trkpt lat="45.88398" lon="-0.91014">
        <ele>2</ele>
        <time>2018-06-30T17:35:03.000Z</time>
      </trkpt>
      <trkpt lat="45.88397" lon="-0.91014">
        <ele>2</ele>
        <time>2018-06-30T17:35:04.000Z</time>
      </trkpt>
      <trkpt lat="45.88396" lon="-0.91014">
        <ele>2</ele>
        <time>2018-06-30T17:35:05.000Z</time>
      </trkpt>
      <trkpt lat="45.88395" lon="-0.91014">
        <ele>2</ele>
        <time>2018-06-30T17:35:06.000Z</time>
      </trkpt>
      <trkpt lat="45.88394" lon="-0.91014">
        <ele>2</ele>
        <time>2018-06-30T17:35:07.000Z</time>
      </trkpt>
      <trkpt lat="45.88393" lon="-0.91014">
        <ele>3</ele>
        <time>2018-06-30T17:35:08.000Z</time>
      </trkpt>
      <trkpt lat="45.88392" lon="-0.91014">
        <ele>3</ele>
        <time>2018-06-30T17:35:09.000Z</time>
      </trkpt>
      <trkpt lat="45.88391" lon="-0.91014">
        <ele>3</ele>
        <time>2018-06-30T17:35:10.000Z</time>
      </trkpt>
      <trkpt lat="45.8839" lon="-0.91014">
        <ele>3</ele>
        <time>2018-06-30T17:35:11.000Z</time>
      </trkpt>
      <trkpt lat="45.88389" lon="-0.91014">
        <ele>2</ele>
        <time>2018-06-30T17:35:12.000Z</time>
      </trkpt>
      <trkpt lat="45.88387" lon="-0.91013">
        <ele>2</ele>
        <time>2018-06-30T17:35:13.000Z</time>
      </trkpt>
      <trkpt lat="45.88386" lon="-0.91013">
        <ele>2</ele>
        <time>2018-06-30T17:35:14.000Z</time>
      </trkpt>
      <trkpt lat="45.88385" lon="-0.91014">
        <ele>2</ele>
        <time>2018-06-30T17:35:15.000Z</time>
      </trkpt>
      <trkpt lat="45.88384" lon="-0.91013">
        <ele>2</ele>
        <time>2018-06-30T17:35:16.000Z</time>
      </trkpt>
      <trkpt lat="45.88383" lon="-0.91013">
        <ele>2</ele>
        <time>2018-06-30T17:35:17.000Z</time>
      </trkpt>
      <trkpt lat="45.88382" lon="-0.91013">
        <ele>2</ele>
        <time>2018-06-30T17:35:18.000Z</time>
      </trkpt>
      <trkpt lat="45.88381" lon="-0.91013">
        <ele>2</ele>
        <time>2018-06-30T17:35:19.000Z</time>
      </trkpt>
      <trkpt lat="45.8838" lon="-0.91013">
        <ele>3</ele>
        <time>2018-06-30T17:35:20.000Z</time>
      </trkpt>
      <trkpt lat="45.88378" lon="-0.91012">
        <ele>3</ele>
        <time>2018-06-30T17:35:21.000Z</time>
      </trkpt>
      <trkpt lat="45.88378" lon="-0.91012">
        <ele>3</ele>
        <time>2018-06-30T17:35:22.000Z</time>
      </trkpt>
      <trkpt lat="45.88377" lon="-0.91012">
        <ele>3</ele>
        <time>2018-06-30T17:35:23.000Z</time>
      </trkpt>
      <trkpt lat="45.88375" lon="-0.91012">
        <ele>3</ele>
        <time>2018-06-30T17:35:24.000Z</time>
      </trkpt>
      <trkpt lat="45.88374" lon="-0.91012">
        <ele>3</ele>
        <time>2018-06-30T17:35:25.000Z</time>
      </trkpt>
      <trkpt lat="45.88373" lon="-0.91011">
        <ele>3</ele>
        <time>2018-06-30T17:35:26.000Z</time>
      </trkpt>
      <trkpt lat="45.88372" lon="-0.91011">
        <ele>3</ele>
        <time>2018-06-30T17:35:27.000Z</time>
      </trkpt>
      <trkpt lat="45.88371" lon="-0.91011">
        <ele>3</ele>
        <time>2018-06-30T17:35:28.000Z</time>
      </trkpt>
      <trkpt lat="45.8837" lon="-0.91011">
        <ele>3</ele>
        <time>2018-06-30T17:35:29.000Z</time>
      </trkpt>
      <trkpt lat="45.88369" lon="-0.91011">
        <ele>4</ele>
        <time>2018-06-30T17:35:30.000Z</time>
      </trkpt>
      <trkpt lat="45.88368" lon="-0.91011">
        <ele>4</ele>
        <time>2018-06-30T17:35:31.000Z</time>
      </trkpt>
      <trkpt lat="45.88367" lon="-0.91011">
        <ele>4</ele>
        <time>2018-06-30T17:35:32.000Z</time>
      </trkpt>
      <trkpt lat="45.88366" lon="-0.91011">
        <ele>4</ele>
        <time>2018-06-30T17:35:33.000Z</time>
      </trkpt>
      <trkpt lat="45.88365" lon="-0.91011">
        <ele>4</ele>
        <time>2018-06-30T17:35:34.000Z</time>
      </trkpt>
      <trkpt lat="45.88363" lon="-0.91011">
        <ele>5</ele>
        <time>2018-06-30T17:35:35.000Z</time>
      </trkpt>
      <trkpt lat="45.88362" lon="-0.91011">
        <ele>5</ele>
        <time>2018-06-30T17:35:36.000Z</time>
      </trkpt>
      <trkpt lat="45.88361" lon="-0.91011">
        <ele>5</ele>
        <time>2018-06-30T17:35:37.000Z</time>
      </trkpt>
      <trkpt lat="45.8836" lon="-0.91011">
        <ele>5</ele>
        <time>2018-06-30T17:35:38.000Z</time>
      </trkpt>
      <trkpt lat="45.88359" lon="-0.91011">
        <ele>6</ele>
        <time>2018-06-30T17:35:39.000Z</time>
      </trkpt>
      <trkpt lat="45.88358" lon="-0.91011">
        <ele>6</ele>
        <time>2018-06-30T17:35:40.000Z</time>
      </trkpt>
      <trkpt lat="45.88357" lon="-0.9101">
        <ele>6</ele>
        <time>2018-06-30T17:35:41.000Z</time>
      </trkpt>
      <trkpt lat="45.88356" lon="-0.9101">
        <ele>6</ele>
        <time>2018-06-30T17:35:42.000Z</time>
      </trkpt>
      <trkpt lat="45.88355" lon="-0.9101">
        <ele>6</ele>
        <time>2018-06-30T17:35:43.000Z</time>
      </trkpt>
      <trkpt lat="45.88354" lon="-0.9101">
        <ele>6</ele>
        <time>2018-06-30T17:35:44.000Z</time>
      </trkpt>
      <trkpt lat="45.88353" lon="-0.9101">
        <ele>6</ele>
        <time>2018-06-30T17:35:45.000Z</time>
      </trkpt>
      <trkpt lat="45.88352" lon="-0.91009">
        <ele>6</ele>
        <time>2018-06-30T17:35:46.000Z</time>
      </trkpt>
      <trkpt lat="45.88352" lon="-0.91009">
        <ele>6</ele>
        <time>2018-06-30T17:35:47.000Z</time>
      </trkpt>
      <trkpt lat="45.88351" lon="-0.91009">
        <ele>6</ele>
        <time>2018-06-30T17:35:48.000Z</time>
      </trkpt>
      <trkpt lat="45.8835" lon="-0.9101">
        <ele>6</ele>
        <time>2018-06-30T17:35:49.000Z</time>
      </trkpt>
      <trkpt lat="45.88349" lon="-0.9101">
        <ele>6</ele>
        <time>2018-06-30T17:35:50.000Z</time>
      </trkpt>
      <trkpt lat="45.88348" lon="-0.9101">
        <ele>6</ele>
        <time>2018-06-30T17:35:51.000Z</time>
      </trkpt>
      <trkpt lat="45.88347" lon="-0.9101">
        <ele>5</ele>
        <time>2018-06-30T17:35:52.000Z</time>
      </trkpt>
      <trkpt lat="45.88346" lon="-0.91011">
        <ele>5</ele>
        <time>2018-06-30T17:35:53.000Z</time>
      </trkpt>
      <trkpt lat="45.88345" lon="-0.91011">
        <ele>5</ele>
        <time>2018-06-30T17:35:54.000Z</time>
      </trkpt>
      <trkpt lat="45.88344" lon="-0.91011">
        <ele>5</ele>
        <time>2018-06-30T17:35:55.000Z</time>
      </trkpt>
      <trkpt lat="45.88343" lon="-0.91011">
        <ele>4</ele>
        <time>2018-06-30T17:35:56.000Z</time>
      </trkpt>
      <trkpt lat="45.88342" lon="-0.91011">
        <ele>4</ele>
        <time>2018-06-30T17:35:57.000Z</time>
      </trkpt>
      <trkpt lat="45.88341" lon="-0.91011">
        <ele>4</ele>
        <time>2018-06-30T17:35:58.000Z</time>
      </trkpt>
      <trkpt lat="45.8834" lon="-0.91011">
        <ele>4</ele>
        <time>2018-06-30T17:35:59.000Z</time>
      </trkpt>
      <trkpt lat="45.88338" lon="-0.91011">
        <ele>4</ele>
        <time>2018-06-30T17:36:00.000Z</time>
      </trkpt>
      <trkpt lat="45.88337" lon="-0.91011">
        <ele>5</ele>
        <time>2018-06-30T17:36:01.000Z</time>
      </trkpt>
      <trkpt lat="45.88336" lon="-0.91011">
        <ele>6</ele>
        <time>2018-06-30T17:36:02.000Z</time>
      </trkpt>
      <trkpt lat="45.88335" lon="-0.91011">
        <ele>5</ele>
        <time>2018-06-30T17:36:03.000Z</time>
      </trkpt>
      <trkpt lat="45.88334" lon="-0.91011">
        <ele>5</ele>
        <time>2018-06-30T17:36:04.000Z</time>
      </trkpt>
      <trkpt lat="45.88332" lon="-0.91011">
        <ele>5</ele>
        <time>2018-06-30T17:36:05.000Z</time>
      </trkpt>
      <trkpt lat="45.88331" lon="-0.91011">
        <ele>5</ele>
        <time>2018-06-30T17:36:06.000Z</time>
      </trkpt>
      <trkpt lat="45.8833" lon="-0.9101">
        <ele>5</ele>
        <time>2018-06-30T17:36:07.000Z</time>
      </trkpt>
      <trkpt lat="45.88329" lon="-0.9101">
        <ele>6</ele>
        <time>2018-06-30T17:36:08.000Z</time>
      </trkpt>
      <trkpt lat="45.88328" lon="-0.9101">
        <ele>5</ele>
        <time>2018-06-30T17:36:09.000Z</time>
      </trkpt>
      <trkpt lat="45.88327" lon="-0.9101">
        <ele>6</ele>
        <time>2018-06-30T17:36:10.000Z</time>
      </trkpt>
      <trkpt lat="45.88325" lon="-0.9101">
        <ele>6</ele>
        <time>2018-06-30T17:36:11.000Z</time>
      </trkpt>
      <trkpt lat="45.88324" lon="-0.9101">
        <ele>6</ele>
        <time>2018-06-30T17:36:12.000Z</time>
      </trkpt>
      <trkpt lat="45.88323" lon="-0.9101">
        <ele>7</ele>
        <time>2018-06-30T17:36:13.000Z</time>
      </trkpt>
      <trkpt lat="45.88322" lon="-0.9101">
        <ele>7</ele>
        <time>2018-06-30T17:36:14.000Z</time>
      </trkpt>
      <trkpt lat="45.88321" lon="-0.9101">
        <ele>6</ele>
        <time>2018-06-30T17:36:15.000Z</time>
      </trkpt>
      <trkpt lat="45.8832" lon="-0.9101">
        <ele>6</ele>
        <time>2018-06-30T17:36:16.000Z</time>
      </trkpt>
      <trkpt lat="45.88319" lon="-0.9101">
        <ele>7</ele>
        <time>2018-06-30T17:36:17.000Z</time>
      </trkpt>
      <trkpt lat="45.88318" lon="-0.9101">
        <ele>7</ele>
        <time>2018-06-30T17:36:18.000Z</time>
      </trkpt>
      <trkpt lat="45.88317" lon="-0.9101">
        <ele>7</ele>
        <time>2018-06-30T17:36:19.000Z</time>
      </trkpt>
      <trkpt lat="45.88316" lon="-0.9101">
        <ele>7</ele>
        <time>2018-06-30T17:36:20.000Z</time>
      </trkpt>
      <trkpt lat="45.88315" lon="-0.9101">
        <ele>7</ele>
        <time>2018-06-30T17:36:21.000Z</time>
      </trkpt>
      <trkpt lat="45.88314" lon="-0.9101">
        <ele>7</ele>
        <time>2018-06-30T17:36:22.000Z</time>
      </trkpt>
      <trkpt lat="45.88312" lon="-0.9101">
        <ele>7</ele>
        <time>2018-06-30T17:36:23.000Z</time>
      </trkpt>
      <trkpt lat="45.88311" lon="-0.9101">
        <ele>7</ele>
        <time>2018-06-30T17:36:24.000Z</time>
      </trkpt>
      <trkpt lat="45.8831" lon="-0.9101">
        <ele>7</ele>
        <time>2018-06-30T17:36:25.000Z</time>
      </trkpt>
      <trkpt lat="45.88309" lon="-0.9101">
        <ele>7</ele>
        <time>2018-06-30T17:36:26.000Z</time>
      </trkpt>
      <trkpt lat="45.88308" lon="-0.91009">
        <ele>7</ele>
        <time>2018-06-30T17:36:27.000Z</time>
      </trkpt>
      <trkpt lat="45.88307" lon="-0.91009">
        <ele>7</ele>
        <time>2018-06-30T17:36:28.000Z</time>
      </trkpt>
      <trkpt lat="45.88306" lon="-0.91009">
        <ele>7</ele>
        <time>2018-06-30T17:36:29.000Z</time>
      </trkpt>
      <trkpt lat="45.88305" lon="-0.91009">
        <ele>7</ele>
        <time>2018-06-30T17:36:30.000Z</time>
      </trkpt>
      <trkpt lat="45.88303" lon="-0.91009">
        <ele>8</ele>
        <time>2018-06-30T17:36:31.000Z</time>
      </trkpt>
      <trkpt lat="45.88302" lon="-0.91009">
        <ele>8</ele>
        <time>2018-06-30T17:36:32.000Z</time>
      </trkpt>
      <trkpt lat="45.88301" lon="-0.91009">
        <ele>8</ele>
        <time>2018-06-30T17:36:33.000Z</time>
      </trkpt>
      <trkpt lat="45.883" lon="-0.91009">
        <ele>8</ele>
        <time>2018-06-30T17:36:34.000Z</time>
      </trkpt>
      <trkpt lat="45.88299" lon="-0.91008">
        <ele>8</ele>
        <time>2018-06-30T17:36:35.000Z</time>
      </trkpt>
      <trkpt lat="45.88298" lon="-0.91008">
        <ele>8</ele>
        <time>2018-06-30T17:36:36.000Z</time>
      </trkpt>
      <trkpt lat="45.88297" lon="-0.91008">
        <ele>8</ele>
        <time>2018-06-30T17:36:37.000Z</time>
      </trkpt>
      <trkpt lat="45.88296" lon="-0.91008">
        <ele>8</ele>
        <time>2018-06-30T17:36:38.000Z</time>
      </trkpt>
      <trkpt lat="45.88295" lon="-0.91008">
        <ele>8</ele>
        <time>2018-06-30T17:36:39.000Z</time>
      </trkpt>
      <trkpt lat="45.88294" lon="-0.91008">
        <ele>7</ele>
        <time>2018-06-30T17:36:40.000Z</time>
      </trkpt>
      <trkpt lat="45.88293" lon="-0.91008">
        <ele>7</ele>
        <time>2018-06-30T17:36:41.000Z</time>
      </trkpt>
      <trkpt lat="45.88292" lon="-0.91008">
        <ele>8</ele>
        <time>2018-06-30T17:36:42.000Z</time>
      </trkpt>
      <trkpt lat="45.88291" lon="-0.91008">
        <ele>8</ele>
        <time>2018-06-30T17:36:43.000Z</time>
      </trkpt>
      <trkpt lat="45.8829" lon="-0.91008">
        <ele>8</ele>
        <time>2018-06-30T17:36:44.000Z</time>
      </trkpt>
      <trkpt lat="45.88288" lon="-0.91007">
        <ele>8</ele>
        <time>2018-06-30T17:36:45.000Z</time>
      </trkpt>
      <trkpt lat="45.88287" lon="-0.91007">
        <ele>8</ele>
        <time>2018-06-30T17:36:46.000Z</time>
      </trkpt>
      <trkpt lat="45.88286" lon="-0.91007">
        <ele>8</ele>
        <time>2018-06-30T17:36:47.000Z</time>
      </trkpt>
      <trkpt lat="45.88285" lon="-0.91007">
        <ele>8</ele>
        <time>2018-06-30T17:36:48.000Z</time>
      </trkpt>
      <trkpt lat="45.88284" lon="-0.91006">
        <ele>8</ele>
        <time>2018-06-30T17:36:49.000Z</time>
      </trkpt>
      <trkpt lat="45.88282" lon="-0.91006">
        <ele>8</ele>
        <time>2018-06-30T17:36:50.000Z</time>
      </trkpt>
      <trkpt lat="45.88281" lon="-0.91006">
        <ele>7</ele>
        <time>2018-06-30T17:36:51.000Z</time>
      </trkpt>
      <trkpt lat="45.8828" lon="-0.91006">
        <ele>7</ele>
        <time>2018-06-30T17:36:52.000Z</time>
      </trkpt>
      <trkpt lat="45.88279" lon="-0.91007">
        <ele>7</ele>
        <time>2018-06-30T17:36:53.000Z</time>
      </trkpt>
      <trkpt lat="45.88278" lon="-0.91007">
        <ele>7</ele>
        <time>2018-06-30T17:36:54.000Z</time>
      </trkpt>
      <trkpt lat="45.88277" lon="-0.91007">
        <ele>7</ele>
        <time>2018-06-30T17:36:55.000Z</time>
      </trkpt>
      <trkpt lat="45.88276" lon="-0.91008">
        <ele>7</ele>
        <time>2018-06-30T17:36:56.000Z</time>
      </trkpt>
      <trkpt lat="45.88274" lon="-0.91008">
        <ele>7</ele>
        <time>2018-06-30T17:36:57.000Z</time>
      </trkpt>
      <trkpt lat="45.88274" lon="-0.91008">
        <ele>7</ele>
        <time>2018-06-30T17:36:58.000Z</time>
      </trkpt>
      <trkpt lat="45.88273" lon="-0.91008">
        <ele>6</ele>
        <time>2018-06-30T17:36:59.000Z</time>
      </trkpt>
      <trkpt lat="45.88272" lon="-0.91008">
        <ele>7</ele>
        <time>2018-06-30T17:37:00.000Z</time>
      </trkpt>
      <trkpt lat="45.88271" lon="-0.91008">
        <ele>6</ele>
        <time>2018-06-30T17:37:01.000Z</time>
      </trkpt>
      <trkpt lat="45.8827" lon="-0.91008">
        <ele>5</ele>
        <time>2018-06-30T17:37:02.000Z</time>
      </trkpt>
      <trkpt lat="45.88269" lon="-0.91007">
        <ele>5</ele>
        <time>2018-06-30T17:37:03.000Z</time>
      </trkpt>
      <trkpt lat="45.88268" lon="-0.91007">
        <ele>5</ele>
        <time>2018-06-30T17:37:04.000Z</time>
      </trkpt>
      <trkpt lat="45.88267" lon="-0.91007">
        <ele>5</ele>
        <time>2018-06-30T17:37:05.000Z</time>
      </trkpt>
      <trkpt lat="45.88266" lon="-0.91007">
        <ele>5</ele>
        <time>2018-06-30T17:37:06.000Z</time>
      </trkpt>
      <trkpt lat="45.88266" lon="-0.91007">
        <ele>5</ele>
        <time>2018-06-30T17:37:07.000Z</time>
      </trkpt>
      <trkpt lat="45.88265" lon="-0.91007">
        <ele>5</ele>
        <time>2018-06-30T17:37:08.000Z</time>
      </trkpt>
      <trkpt lat="45.88264" lon="-0.91007">
        <ele>5</ele>
        <time>2018-06-30T17:37:09.000Z</time>
      </trkpt>
      <trkpt lat="45.88263" lon="-0.91007">
        <ele>4</ele>
        <time>2018-06-30T17:37:10.000Z</time>
      </trkpt>
      <trkpt lat="45.88262" lon="-0.91007">
        <ele>5</ele>
        <time>2018-06-30T17:37:11.000Z</time>
      </trkpt>
      <trkpt lat="45.88261" lon="-0.91007">
        <ele>5</ele>
        <time>2018-06-30T17:37:12.000Z</time>
      </trkpt>
      <trkpt lat="45.8826" lon="-0.91007">
        <ele>5</ele>
        <time>2018-06-30T17:37:13.000Z</time>
      </trkpt>
      <trkpt lat="45.88259" lon="-0.91007">
        <ele>5</ele>
        <time>2018-06-30T17:37:14.000Z</time>
      </trkpt>
      <trkpt lat="45.88258" lon="-0.91007">
        <ele>5</ele>
        <time>2018-06-30T17:37:15.000Z</time>
      </trkpt>
      <trkpt lat="45.88256" lon="-0.91007">
        <ele>6</ele>
        <time>2018-06-30T17:37:16.000Z</time>
      </trkpt>
      <trkpt lat="45.88255" lon="-0.91007">
        <ele>6</ele>
        <time>2018-06-30T17:37:17.000Z</time>
      </trkpt>
      <trkpt lat="45.88254" lon="-0.91007">
        <ele>5</ele>
        <time>2018-06-30T17:37:18.000Z</time>
      </trkpt>
      <trkpt lat="45.88253" lon="-0.91007">
        <ele>6</ele>
        <time>2018-06-30T17:37:19.000Z</time>
      </trkpt>
      <trkpt lat="45.88252" lon="-0.91007">
        <ele>6</ele>
        <time>2018-06-30T17:37:20.000Z</time>
      </trkpt>
      <trkpt lat="45.88251" lon="-0.91007">
        <ele>6</ele>
        <time>2018-06-30T17:37:21.000Z</time>
      </trkpt>
      <trkpt lat="45.8825" lon="-0.91007">
        <ele>6</ele>
        <time>2018-06-30T17:37:22.000Z</time>
      </trkpt>
      <trkpt lat="45.88249" lon="-0.91007">
        <ele>6</ele>
        <time>2018-06-30T17:37:23.000Z</time>
      </trkpt>
      <trkpt lat="45.88248" lon="-0.91007">
        <ele>6</ele>
        <time>2018-06-30T17:37:24.000Z</time>
      </trkpt>
      <trkpt lat="45.88247" lon="-0.91007">
        <ele>7</ele>
        <time>2018-06-30T17:37:25.000Z</time>
      </trkpt>
      <trkpt lat="45.88246" lon="-0.91006">
        <ele>6</ele>
        <time>2018-06-30T17:37:26.000Z</time>
      </trkpt>
      <trkpt lat="45.88245" lon="-0.91006">
        <ele>6</ele>
        <time>2018-06-30T17:37:27.000Z</time>
      </trkpt>
      <trkpt lat="45.88244" lon="-0.91006">
        <ele>6</ele>
        <time>2018-06-30T17:37:28.000Z</time>
      </trkpt>
      <trkpt lat="45.88243" lon="-0.91005">
        <ele>7</ele>
        <time>2018-06-30T17:37:29.000Z</time>
      </trkpt>
      <trkpt lat="45.88242" lon="-0.91005">
        <ele>7</ele>
        <time>2018-06-30T17:37:30.000Z</time>
      </trkpt>
      <trkpt lat="45.8824" lon="-0.91005">
        <ele>6</ele>
        <time>2018-06-30T17:37:31.000Z</time>
      </trkpt>
      <trkpt lat="45.88239" lon="-0.91005">
        <ele>7</ele>
        <time>2018-06-30T17:37:32.000Z</time>
      </trkpt>
      <trkpt lat="45.88238" lon="-0.91005">
        <ele>8</ele>
        <time>2018-06-30T17:37:33.000Z</time>
      </trkpt>
      <trkpt lat="45.88237" lon="-0.91004">
        <ele>9</ele>
        <time>2018-06-30T17:37:34.000Z</time>
      </trkpt>
      <trkpt lat="45.88235" lon="-0.91003">
        <ele>9</ele>
        <time>2018-06-30T17:37:35.000Z</time>
      </trkpt>
      <trkpt lat="45.88234" lon="-0.91003">
        <ele>10</ele>
        <time>2018-06-30T17:37:36.000Z</time>
      </trkpt>
      <trkpt lat="45.88233" lon="-0.91003">
        <ele>10</ele>
        <time>2018-06-30T17:37:37.000Z</time>
      </trkpt>
      <trkpt lat="45.88232" lon="-0.91002">
        <ele>10</ele>
        <time>2018-06-30T17:37:38.000Z</time>
      </trkpt>
      <trkpt lat="45.88231" lon="-0.91002">
        <ele>10</ele>
        <time>2018-06-30T17:37:39.000Z</time>
      </trkpt>
      <trkpt lat="45.88229" lon="-0.91002">
        <ele>9</ele>
        <time>2018-06-30T17:37:40.000Z</time>
      </trkpt>
      <trkpt lat="45.88228" lon="-0.91002">
        <ele>9</ele>
        <time>2018-06-30T17:37:41.000Z</time>
      </trkpt>
      <trkpt lat="45.88227" lon="-0.91002">
        <ele>10</ele>
        <time>2018-06-30T17:37:42.000Z</time>
      </trkpt>
      <trkpt lat="45.88226" lon="-0.91002">
        <ele>11</ele>
        <time>2018-06-30T17:37:43.000Z</time>
      </trkpt>
      <trkpt lat="45.88225" lon="-0.91002">
        <ele>11</ele>
        <time>2018-06-30T17:37:44.000Z</time>
      </trkpt>
      <trkpt lat="45.88224" lon="-0.91001">
        <ele>11</ele>
        <time>2018-06-30T17:37:45.000Z</time>
      </trkpt>
      <trkpt lat="45.88223" lon="-0.91001">
        <ele>11</ele>
        <time>2018-06-30T17:37:46.000Z</time>
      </trkpt>
      <trkpt lat="45.88222" lon="-0.91001">
        <ele>12</ele>
        <time>2018-06-30T17:37:47.000Z</time>
      </trkpt>
      <trkpt lat="45.8822" lon="-0.91001">
        <ele>12</ele>
        <time>2018-06-30T17:37:48.000Z</time>
      </trkpt>
      <trkpt lat="45.88219" lon="-0.91001">
        <ele>12</ele>
        <time>2018-06-30T17:37:49.000Z</time>
      </trkpt>
      <trkpt lat="45.88218" lon="-0.91001">
        <ele>13</ele>
        <time>2018-06-30T17:37:50.000Z</time>
      </trkpt>
      <trkpt lat="45.88217" lon="-0.91001">
        <ele>12</ele>
        <time>2018-06-30T17:37:51.000Z</time>
      </trkpt>
      <trkpt lat="45.88215" lon="-0.91001">
        <ele>13</ele>
        <time>2018-06-30T17:37:52.000Z</time>
      </trkpt>
      <trkpt lat="45.88214" lon="-0.91001">
        <ele>13</ele>
        <time>2018-06-30T17:37:53.000Z</time>
      </trkpt>
      <trkpt lat="45.88213" lon="-0.91">
        <ele>14</ele>
        <time>2018-06-30T17:37:54.000Z</time>
      </trkpt>
      <trkpt lat="45.88212" lon="-0.91">
        <ele>13</ele>
        <time>2018-06-30T17:37:55.000Z</time>
      </trkpt>
      <trkpt lat="45.8821" lon="-0.91">
        <ele>14</ele>
        <time>2018-06-30T17:37:56.000Z</time>
      </trkpt>
      <trkpt lat="45.88209" lon="-0.91">
        <ele>15</ele>
        <time>2018-06-30T17:37:57.000Z</time>
      </trkpt>
      <trkpt lat="45.88208" lon="-0.91">
        <ele>13</ele>
        <time>2018-06-30T17:37:58.000Z</time>
      </trkpt>
      <trkpt lat="45.88207" lon="-0.91">
        <ele>13</ele>
        <time>2018-06-30T17:37:59.000Z</time>
      </trkpt>
      <trkpt lat="45.88205" lon="-0.91">
        <ele>14</ele>
        <time>2018-06-30T17:38:00.000Z</time>
      </trkpt>
      <trkpt lat="45.88204" lon="-0.91001">
        <ele>14</ele>
        <time>2018-06-30T17:38:01.000Z</time>
      </trkpt>
      <trkpt lat="45.88203" lon="-0.91001">
        <ele>13</ele>
        <time>2018-06-30T17:38:02.000Z</time>
      </trkpt>
      <trkpt lat="45.88202" lon="-0.91001">
        <ele>12</ele>
        <time>2018-06-30T17:38:03.000Z</time>
      </trkpt>
      <trkpt lat="45.88201" lon="-0.91001">
        <ele>12</ele>
        <time>2018-06-30T17:38:04.000Z</time>
      </trkpt>
      <trkpt lat="45.882" lon="-0.91001">
        <ele>12</ele>
        <time>2018-06-30T17:38:05.000Z</time>
      </trkpt>
      <trkpt lat="45.88199" lon="-0.91001">
        <ele>12</ele>
        <time>2018-06-30T17:38:06.000Z</time>
      </trkpt>
      <trkpt lat="45.88198" lon="-0.91001">
        <ele>12</ele>
        <time>2018-06-30T17:38:07.000Z</time>
      </trkpt>
      <trkpt lat="45.88197" lon="-0.91001">
        <ele>12</ele>
        <time>2018-06-30T17:38:08.000Z</time>
      </trkpt>
      <trkpt lat="45.88196" lon="-0.91001">
        <ele>11</ele>
        <time>2018-06-30T17:38:09.000Z</time>
      </trkpt>
      <trkpt lat="45.88195" lon="-0.91001">
        <ele>11</ele>
        <time>2018-06-30T17:38:10.000Z</time>
      </trkpt>
      <trkpt lat="45.88193" lon="-0.91001">
        <ele>10</ele>
        <time>2018-06-30T17:38:11.000Z</time>
      </trkpt>
      <trkpt lat="45.88192" lon="-0.91001">
        <ele>10</ele>
        <time>2018-06-30T17:38:12.000Z</time>
      </trkpt>
      <trkpt lat="45.88191" lon="-0.91002">
        <ele>10</ele>
        <time>2018-06-30T17:38:13.000Z</time>
      </trkpt>
      <trkpt lat="45.8819" lon="-0.91002">
        <ele>11</ele>
        <time>2018-06-30T17:38:14.000Z</time>
      </trkpt>
      <trkpt lat="45.88189" lon="-0.91002">
        <ele>11</ele>
        <time>2018-06-30T17:38:15.000Z</time>
      </trkpt>
      <trkpt lat="45.88188" lon="-0.91003">
        <ele>11</ele>
        <time>2018-06-30T17:38:16.000Z</time>
      </trkpt>
      <trkpt lat="45.88187" lon="-0.91003">
        <ele>11</ele>
        <time>2018-06-30T17:38:17.000Z</time>
      </trkpt>
      <trkpt lat="45.88186" lon="-0.91003">
        <ele>11</ele>
        <time>2018-06-30T17:38:18.000Z</time>
      </trkpt>
      <trkpt lat="45.88185" lon="-0.91003">
        <ele>11</ele>
        <time>2018-06-30T17:38:19.000Z</time>
      </trkpt>
      <trkpt lat="45.88184" lon="-0.91003">
        <ele>11</ele>
        <time>2018-06-30T17:38:20.000Z</time>
      </trkpt>
      <trkpt lat="45.88182" lon="-0.91002">
        <ele>11</ele>
        <time>2018-06-30T17:38:21.000Z</time>
      </trkpt>
      <trkpt lat="45.88181" lon="-0.91002">
        <ele>11</ele>
        <time>2018-06-30T17:38:22.000Z</time>
      </trkpt>
      <trkpt lat="45.8818" lon="-0.91002">
        <ele>11</ele>
        <time>2018-06-30T17:38:23.000Z</time>
      </trkpt>
      <trkpt lat="45.88179" lon="-0.91001">
        <ele>11</ele>
        <time>2018-06-30T17:38:24.000Z</time>
      </trkpt>
      <trkpt lat="45.88177" lon="-0.91001">
        <ele>11</ele>
        <time>2018-06-30T17:38:25.000Z</time>
      </trkpt>
      <trkpt lat="45.88176" lon="-0.91002">
        <ele>10</ele>
        <time>2018-06-30T17:38:26.000Z</time>
      </trkpt>
      <trkpt lat="45.88175" lon="-0.91002">
        <ele>11</ele>
        <time>2018-06-30T17:38:27.000Z</time>
      </trkpt>
      <trkpt lat="45.88174" lon="-0.91002">
        <ele>11</ele>
        <time>2018-06-30T17:38:28.000Z</time>
      </trkpt>
      <trkpt lat="45.88173" lon="-0.91002">
        <ele>11</ele>
        <time>2018-06-30T17:38:29.000Z</time>
      </trkpt>
      <trkpt lat="45.88172" lon="-0.91002">
        <ele>11</ele>
        <time>2018-06-30T17:38:30.000Z</time>
      </trkpt>
      <trkpt lat="45.88171" lon="-0.91002">
        <ele>10</ele>
        <time>2018-06-30T17:38:31.000Z</time>
      </trkpt>
      <trkpt lat="45.88169" lon="-0.91002">
        <ele>11</ele>
        <time>2018-06-30T17:38:32.000Z</time>
      </trkpt>
      <trkpt lat="45.88168" lon="-0.91002">
        <ele>11</ele>
        <time>2018-06-30T17:38:33.000Z</time>
      </trkpt>
      <trkpt lat="45.88167" lon="-0.91002">
        <ele>11</ele>
        <time>2018-06-30T17:38:34.000Z</time>
      </trkpt>
      <trkpt lat="45.88166" lon="-0.91002">
        <ele>11</ele>
        <time>2018-06-30T17:38:35.000Z</time>
      </trkpt>
      <trkpt lat="45.88165" lon="-0.91002">
        <ele>11</ele>
        <time>2018-06-30T17:38:36.000Z</time>
      </trkpt>
      <trkpt lat="45.88164" lon="-0.91002">
        <ele>12</ele>
        <time>2018-06-30T17:38:37.000Z</time>
      </trkpt>
      <trkpt lat="45.88162" lon="-0.91002">
        <ele>12</ele>
        <time>2018-06-30T17:38:38.000Z</time>
      </trkpt>
      <trkpt lat="45.88161" lon="-0.91002">
        <ele>12</ele>
        <time>2018-06-30T17:38:39.000Z</time>
      </trkpt>
      <trkpt lat="45.8816" lon="-0.91002">
        <ele>12</ele>
        <time>2018-06-30T17:38:40.000Z</time>
      </trkpt>
      <trkpt lat="45.88159" lon="-0.91001">
        <ele>12</ele>
        <time>2018-06-30T17:38:41.000Z</time>
      </trkpt>
      <trkpt lat="45.88158" lon="-0.91001">
        <ele>11</ele>
        <time>2018-06-30T17:38:42.000Z</time>
      </trkpt>
      <trkpt lat="45.88157" lon="-0.91001">
        <ele>11</ele>
        <time>2018-06-30T17:38:43.000Z</time>
      </trkpt>
      <trkpt lat="45.88157" lon="-0.91">
        <ele>10</ele>
        <time>2018-06-30T17:38:44.000Z</time>
      </trkpt>
      <trkpt lat="45.88156" lon="-0.91">
        <ele>10</ele>
        <time>2018-06-30T17:38:45.000Z</time>
      </trkpt>
      <trkpt lat="45.88155" lon="-0.91">
        <ele>11</ele>
        <time>2018-06-30T17:38:46.000Z</time>
      </trkpt>
      <trkpt lat="45.88154" lon="-0.91">
        <ele>10</ele>
        <time>2018-06-30T17:38:47.000Z</time>
      </trkpt>
      <trkpt lat="45.88153" lon="-0.91">
        <ele>11</ele>
        <time>2018-06-30T17:38:48.000Z</time>
      </trkpt>
      <trkpt lat="45.88151" lon="-0.91">
        <ele>11</ele>
        <time>2018-06-30T17:38:49.000Z</time>
      </trkpt>
      <trkpt lat="45.8815" lon="-0.91">
        <ele>11</ele>
        <time>2018-06-30T17:38:50.000Z</time>
      </trkpt>
      <trkpt lat="45.88149" lon="-0.91">
        <ele>12</ele>
        <time>2018-06-30T17:38:51.000Z</time>
      </trkpt>
      <trkpt lat="45.88148" lon="-0.91">
        <ele>12</ele>
        <time>2018-06-30T17:38:52.000Z</time>
      </trkpt>
      <trkpt lat="45.88147" lon="-0.91">
        <ele>12</ele>
        <time>2018-06-30T17:38:53.000Z</time>
      </trkpt>
      <trkpt lat="45.88146" lon="-0.91">
        <ele>12</ele>
        <time>2018-06-30T17:38:54.000Z</time>
      </trkpt>
      <trkpt lat="45.88145" lon="-0.91">
        <ele>12</ele>
        <time>2018-06-30T17:38:55.000Z</time>
      </trkpt>
      <trkpt lat="45.88144" lon="-0.90999">
        <ele>12</ele>
        <time>2018-06-30T17:38:56.000Z</time>
      </trkpt>
      <trkpt lat="45.88143" lon="-0.90999">
        <ele>12</ele>
        <time>2018-06-30T17:38:57.000Z</time>
      </trkpt>
      <trkpt lat="45.88142" lon="-0.90999">
        <ele>12</ele>
        <time>2018-06-30T17:38:58.000Z</time>
      </trkpt>
      <trkpt lat="45.88141" lon="-0.90999">
        <ele>12</ele>
        <time>2018-06-30T17:38:59.000Z</time>
      </trkpt>
      <trkpt lat="45.88139" lon="-0.90998">
        <ele>12</ele>
        <time>2018-06-30T17:39:00.000Z</time>
      </trkpt>
      <trkpt lat="45.88138" lon="-0.90998">
        <ele>12</ele>
        <time>2018-06-30T17:39:01.000Z</time>
      </trkpt>
      <trkpt lat="45.88137" lon="-0.90998">
        <ele>11</ele>
        <time>2018-06-30T17:39:02.000Z</time>
      </trkpt>
      <trkpt lat="45.88136" lon="-0.90998">
        <ele>12</ele>
        <time>2018-06-30T17:39:03.000Z</time>
      </trkpt>
      <trkpt lat="45.88135" lon="-0.90998">
        <ele>12</ele>
        <time>2018-06-30T17:39:04.000Z</time>
      </trkpt>
      <trkpt lat="45.88134" lon="-0.90999">
        <ele>12</ele>
        <time>2018-06-30T17:39:05.000Z</time>
      </trkpt>
      <trkpt lat="45.88133" lon="-0.90999">
        <ele>12</ele>
        <time>2018-06-30T17:39:06.000Z</time>
      </trkpt>
      <trkpt lat="45.88132" lon="-0.90999">
        <ele>12</ele>
        <time>2018-06-30T17:39:07.000Z</time>
      </trkpt>
      <trkpt lat="45.88131" lon="-0.90999">
        <ele>12</ele>
        <time>2018-06-30T17:39:08.000Z</time>
      </trkpt>
      <trkpt lat="45.88129" lon="-0.90999">
        <ele>11</ele>
        <time>2018-06-30T17:39:09.000Z</time>
      </trkpt>
      <trkpt lat="45.88128" lon="-0.90999">
        <ele>11</ele>
        <time>2018-06-30T17:39:10.000Z</time>
      </trkpt>
      <trkpt lat="45.88127" lon="-0.90998">
        <ele>11</ele>
        <time>2018-06-30T17:39:11.000Z</time>
      </trkpt>
      <trkpt lat="45.88126" lon="-0.90998">
        <ele>11</ele>
        <time>2018-06-30T17:39:12.000Z</time>
      </trkpt>
      <trkpt lat="45.88126" lon="-0.90998">
        <ele>11</ele>
        <time>2018-06-30T17:39:13.000Z</time>
      </trkpt>
      <trkpt lat="45.88124" lon="-0.90997">
        <ele>11</ele>
        <time>2018-06-30T17:39:14.000Z</time>
      </trkpt>
      <trkpt lat="45.88123" lon="-0.90997">
        <ele>11</ele>
        <time>2018-06-30T17:39:15.000Z</time>
      </trkpt>
      <trkpt lat="45.88122" lon="-0.90997">
        <ele>11</ele>
        <time>2018-06-30T17:39:16.000Z</time>
      </trkpt>
      <trkpt lat="45.88121" lon="-0.90997">
        <ele>11</ele>
        <time>2018-06-30T17:39:17.000Z</time>
      </trkpt>
      <trkpt lat="45.8812" lon="-0.90996">
        <ele>10</ele>
        <time>2018-06-30T17:39:18.000Z</time>
      </trkpt>
      <trkpt lat="45.88119" lon="-0.90996">
        <ele>11</ele>
        <time>2018-06-30T17:39:19.000Z</time>
      </trkpt>
      <trkpt lat="45.88118" lon="-0.90996">
        <ele>11</ele>
        <time>2018-06-30T17:39:20.000Z</time>
      </trkpt>
      <trkpt lat="45.88117" lon="-0.90995">
        <ele>11</ele>
        <time>2018-06-30T17:39:21.000Z</time>
      </trkpt>
      <trkpt lat="45.88116" lon="-0.90995">
        <ele>10</ele>
        <time>2018-06-30T17:39:22.000Z</time>
      </trkpt>
      <trkpt lat="45.88115" lon="-0.90995">
        <ele>9</ele>
        <time>2018-06-30T17:39:23.000Z</time>
      </trkpt>
      <trkpt lat="45.88114" lon="-0.90995">
        <ele>10</ele>
        <time>2018-06-30T17:39:24.000Z</time>
      </trkpt>
      <trkpt lat="45.88114" lon="-0.90996">
        <ele>10</ele>
        <time>2018-06-30T17:39:25.000Z</time>
      </trkpt>
      <trkpt lat="45.88113" lon="-0.90996">
        <ele>9</ele>
        <time>2018-06-30T17:39:26.000Z</time>
      </trkpt>
      <trkpt lat="45.88113" lon="-0.90997">
        <ele>9</ele>
        <time>2018-06-30T17:39:27.000Z</time>
      </trkpt>
      <trkpt lat="45.88112" lon="-0.90999">
        <ele>9</ele>
        <time>2018-06-30T17:39:28.000Z</time>
      </trkpt>
      <trkpt lat="45.88112" lon="-0.91">
        <ele>9</ele>
        <time>2018-06-30T17:39:29.000Z</time>
      </trkpt>
      <trkpt lat="45.88112" lon="-0.91002">
        <ele>9</ele>
        <time>2018-06-30T17:39:30.000Z</time>
      </trkpt>
      <trkpt lat="45.88111" lon="-0.91003">
        <ele>9</ele>
        <time>2018-06-30T17:39:31.000Z</time>
      </trkpt>
      <trkpt lat="45.88111" lon="-0.91005">
        <ele>9</ele>
        <time>2018-06-30T17:39:32.000Z</time>
      </trkpt>
      <trkpt lat="45.8811" lon="-0.91007">
        <ele>10</ele>
        <time>2018-06-30T17:39:33.000Z</time>
      </trkpt>
      <trkpt lat="45.8811" lon="-0.91008">
        <ele>9</ele>
        <time>2018-06-30T17:39:34.000Z</time>
      </trkpt>
      <trkpt lat="45.88109" lon="-0.9101">
        <ele>9</ele>
        <time>2018-06-30T17:39:35.000Z</time>
      </trkpt>
      <trkpt lat="45.88109" lon="-0.91011">
        <ele>9</ele>
        <time>2018-06-30T17:39:36.000Z</time>
      </trkpt>
      <trkpt lat="45.88109" lon="-0.91013">
        <ele>9</ele>
        <time>2018-06-30T17:39:37.000Z</time>
      </trkpt>
      <trkpt lat="45.88108" lon="-0.91014">
        <ele>9</ele>
        <time>2018-06-30T17:39:38.000Z</time>
      </trkpt>
      <trkpt lat="45.88108" lon="-0.91016">
        <ele>9</ele>
        <time>2018-06-30T17:39:39.000Z</time>
      </trkpt>
      <trkpt lat="45.88108" lon="-0.91017">
        <ele>9</ele>
        <time>2018-06-30T17:39:40.000Z</time>
      </trkpt>
      <trkpt lat="45.88108" lon="-0.91019">
        <ele>10</ele>
        <time>2018-06-30T17:39:41.000Z</time>
      </trkpt>
      <trkpt lat="45.88108" lon="-0.9102">
        <ele>9</ele>
        <time>2018-06-30T17:39:42.000Z</time>
      </trkpt>
      <trkpt lat="45.88108" lon="-0.91022">
        <ele>9</ele>
        <time>2018-06-30T17:39:43.000Z</time>
      </trkpt>
      <trkpt lat="45.88108" lon="-0.91023">
        <ele>9</ele>
        <time>2018-06-30T17:39:44.000Z</time>
      </trkpt>
      <trkpt lat="45.88108" lon="-0.91025">
        <ele>9</ele>
        <time>2018-06-30T17:39:45.000Z</time>
      </trkpt>
      <trkpt lat="45.88107" lon="-0.91027">
        <ele>9</ele>
        <time>2018-06-30T17:39:46.000Z</time>
      </trkpt>
      <trkpt lat="45.88107" lon="-0.91028">
        <ele>9</ele>
        <time>2018-06-30T17:39:47.000Z</time>
      </trkpt>
      <trkpt lat="45.88107" lon="-0.9103">
        <ele>10</ele>
        <time>2018-06-30T17:39:48.000Z</time>
      </trkpt>
      <trkpt lat="45.88107" lon="-0.91032">
        <ele>10</ele>
        <time>2018-06-30T17:39:49.000Z</time>
      </trkpt>
      <trkpt lat="45.88106" lon="-0.91033">
        <ele>10</ele>
        <time>2018-06-30T17:39:50.000Z</time>
      </trkpt>
      <trkpt lat="45.88106" lon="-0.91035">
        <ele>10</ele>
        <time>2018-06-30T17:39:51.000Z</time>
      </trkpt>
      <trkpt lat="45.88106" lon="-0.91037">
        <ele>10</ele>
        <time>2018-06-30T17:39:52.000Z</time>
      </trkpt>
      <trkpt lat="45.88105" lon="-0.91039">
        <ele>10</ele>
        <time>2018-06-30T17:39:53.000Z</time>
      </trkpt>
      <trkpt lat="45.88105" lon="-0.91041">
        <ele>10</ele>
        <time>2018-06-30T17:39:54.000Z</time>
      </trkpt>
      <trkpt lat="45.88105" lon="-0.91042">
        <ele>10</ele>
        <time>2018-06-30T17:39:55.000Z</time>
      </trkpt>
      <trkpt lat="45.88105" lon="-0.91044">
        <ele>10</ele>
        <time>2018-06-30T17:39:56.000Z</time>
      </trkpt>
      <trkpt lat="45.88104" lon="-0.91045">
        <ele>10</ele>
        <time>2018-06-30T17:39:57.000Z</time>
      </trkpt>
      <trkpt lat="45.88104" lon="-0.91047">
        <ele>10</ele>
        <time>2018-06-30T17:39:58.000Z</time>
      </trkpt>
      <trkpt lat="45.88104" lon="-0.91049">
        <ele>10</ele>
        <time>2018-06-30T17:39:59.000Z</time>
      </trkpt>
      <trkpt lat="45.88103" lon="-0.91051">
        <ele>9</ele>
        <time>2018-06-30T17:40:00.000Z</time>
      </trkpt>
      <trkpt lat="45.88103" lon="-0.91053">
        <ele>9</ele>
        <time>2018-06-30T17:40:01.000Z</time>
      </trkpt>
      <trkpt lat="45.88103" lon="-0.91054">
        <ele>9</ele>
        <time>2018-06-30T17:40:02.000Z</time>
      </trkpt>
      <trkpt lat="45.88103" lon="-0.91056">
        <ele>9</ele>
        <time>2018-06-30T17:40:03.000Z</time>
      </trkpt>
      <trkpt lat="45.88103" lon="-0.91058">
        <ele>9</ele>
        <time>2018-06-30T17:40:04.000Z</time>
      </trkpt>
      <trkpt lat="45.88103" lon="-0.91059">
        <ele>9</ele>
        <time>2018-06-30T17:40:05.000Z</time>
      </trkpt>
      <trkpt lat="45.88102" lon="-0.91061">
        <ele>9</ele>
        <time>2018-06-30T17:40:06.000Z</time>
      </trkpt>
      <trkpt lat="45.88102" lon="-0.91063">
        <ele>9</ele>
        <time>2018-06-30T17:40:07.000Z</time>
      </trkpt>
      <trkpt lat="45.88102" lon="-0.91064">
        <ele>9</ele>
        <time>2018-06-30T17:40:08.000Z</time>
      </trkpt>
      <trkpt lat="45.88102" lon="-0.91066">
        <ele>9</ele>
        <time>2018-06-30T17:40:09.000Z</time>
      </trkpt>
      <trkpt lat="45.88102" lon="-0.91068">
        <ele>9</ele>
        <time>2018-06-30T17:40:10.000Z</time>
      </trkpt>
      <trkpt lat="45.88102" lon="-0.9107">
        <ele>9</ele>
        <time>2018-06-30T17:40:11.000Z</time>
      </trkpt>
      <trkpt lat="45.88102" lon="-0.91072">
        <ele>10</ele>
        <time>2018-06-30T17:40:12.000Z</time>
      </trkpt>
      <trkpt lat="45.88101" lon="-0.91074">
        <ele>10</ele>
        <time>2018-06-30T17:40:13.000Z</time>
      </trkpt>
      <trkpt lat="45.88101" lon="-0.91076">
        <ele>10</ele>
        <time>2018-06-30T17:40:14.000Z</time>
      </trkpt>
      <trkpt lat="45.88101" lon="-0.91077">
        <ele>10</ele>
        <time>2018-06-30T17:40:15.000Z</time>
      </trkpt>
      <trkpt lat="45.88101" lon="-0.91079">
        <ele>9</ele>
        <time>2018-06-30T17:40:16.000Z</time>
      </trkpt>
      <trkpt lat="45.88101" lon="-0.9108">
        <ele>9</ele>
        <time>2018-06-30T17:40:17.000Z</time>
      </trkpt>
      <trkpt lat="45.88101" lon="-0.91082">
        <ele>9</ele>
        <time>2018-06-30T17:40:18.000Z</time>
      </trkpt>
      <trkpt lat="45.88101" lon="-0.91083">
        <ele>9</ele>
        <time>2018-06-30T17:40:19.000Z</time>
      </trkpt>
      <trkpt lat="45.881" lon="-0.91085">
        <ele>9</ele>
        <time>2018-06-30T17:40:20.000Z</time>
      </trkpt>
      <trkpt lat="45.881" lon="-0.91086">
        <ele>9</ele>
        <time>2018-06-30T17:40:21.000Z</time>
      </trkpt>
      <trkpt lat="45.881" lon="-0.91088">
        <ele>9</ele>
        <time>2018-06-30T17:40:22.000Z</time>
      </trkpt>
      <trkpt lat="45.881" lon="-0.9109">
        <ele>9</ele>
        <time>2018-06-30T17:40:23.000Z</time>
      </trkpt>
      <trkpt lat="45.881" lon="-0.91091">
        <ele>9</ele>
        <time>2018-06-30T17:40:24.000Z</time>
      </trkpt>
      <trkpt lat="45.88099" lon="-0.91093">
        <ele>8</ele>
        <time>2018-06-30T17:40:25.000Z</time>
      </trkpt>
      <trkpt lat="45.88099" lon="-0.91095">
        <ele>8</ele>
        <time>2018-06-30T17:40:26.000Z</time>
      </trkpt>
      <trkpt lat="45.88099" lon="-0.91097">
        <ele>8</ele>
        <time>2018-06-30T17:40:27.000Z</time>
      </trkpt>
      <trkpt lat="45.88099" lon="-0.91098">
        <ele>8</ele>
        <time>2018-06-30T17:40:28.000Z</time>
      </trkpt>
      <trkpt lat="45.88099" lon="-0.911">
        <ele>8</ele>
        <time>2018-06-30T17:40:29.000Z</time>
      </trkpt>
      <trkpt lat="45.88099" lon="-0.91102">
        <ele>8</ele>
        <time>2018-06-30T17:40:30.000Z</time>
      </trkpt>
      <trkpt lat="45.88099" lon="-0.91103">
        <ele>8</ele>
        <time>2018-06-30T17:40:31.000Z</time>
      </trkpt>
      <trkpt lat="45.88098" lon="-0.91105">
        <ele>8</ele>
        <time>2018-06-30T17:40:32.000Z</time>
      </trkpt>
      <trkpt lat="45.88098" lon="-0.91107">
        <ele>9</ele>
        <time>2018-06-30T17:40:33.000Z</time>
      </trkpt>
      <trkpt lat="45.88098" lon="-0.91108">
        <ele>9</ele>
        <time>2018-06-30T17:40:34.000Z</time>
      </trkpt>
      <trkpt lat="45.88098" lon="-0.9111">
        <ele>8</ele>
        <time>2018-06-30T17:40:35.000Z</time>
      </trkpt>
      <trkpt lat="45.88097" lon="-0.91112">
        <ele>8</ele>
        <time>2018-06-30T17:40:36.000Z</time>
      </trkpt>
      <trkpt lat="45.88097" lon="-0.91114">
        <ele>8</ele>
        <time>2018-06-30T17:40:37.000Z</time>
      </trkpt>
      <trkpt lat="45.88097" lon="-0.91116">
        <ele>8</ele>
        <time>2018-06-30T17:40:38.000Z</time>
      </trkpt>
      <trkpt lat="45.88097" lon="-0.91118">
        <ele>8</ele>
        <time>2018-06-30T17:40:39.000Z</time>
      </trkpt>
      <trkpt lat="45.88097" lon="-0.9112">
        <ele>8</ele>
        <time>2018-06-30T17:40:40.000Z</time>
      </trkpt>
      <trkpt lat="45.88097" lon="-0.91122">
        <ele>8</ele>
        <time>2018-06-30T17:40:41.000Z</time>
      </trkpt>
      <trkpt lat="45.88097" lon="-0.91123">
        <ele>8</ele>
        <time>2018-06-30T17:40:42.000Z</time>
      </trkpt>
      <trkpt lat="45.88097" lon="-0.91125">
        <ele>7</ele>
        <time>2018-06-30T17:40:43.000Z</time>
      </trkpt>
      <trkpt lat="45.88097" lon="-0.91126">
        <ele>7</ele>
        <time>2018-06-30T17:40:44.000Z</time>
      </trkpt>
      <trkpt lat="45.88097" lon="-0.91128">
        <ele>7</ele>
        <time>2018-06-30T17:40:45.000Z</time>
      </trkpt>
      <trkpt lat="45.88097" lon="-0.9113">
        <ele>7</ele>
        <time>2018-06-30T17:40:46.000Z</time>
      </trkpt>
      <trkpt lat="45.88097" lon="-0.91131">
        <ele>7</ele>
        <time>2018-06-30T17:40:47.000Z</time>
      </trkpt>
      <trkpt lat="45.88097" lon="-0.91133">
        <ele>7</ele>
        <time>2018-06-30T17:40:48.000Z</time>
      </trkpt>
      <trkpt lat="45.88097" lon="-0.91134">
        <ele>7</ele>
        <time>2018-06-30T17:40:49.000Z</time>
      </trkpt>
      <trkpt lat="45.88097" lon="-0.91135">
        <ele>7</ele>
        <time>2018-06-30T17:40:50.000Z</time>
      </trkpt>
      <trkpt lat="45.88096" lon="-0.91137">
        <ele>7</ele>
        <time>2018-06-30T17:40:51.000Z</time>
      </trkpt>
      <trkpt lat="45.88096" lon="-0.91139">
        <ele>7</ele>
        <time>2018-06-30T17:40:52.000Z</time>
      </trkpt>
      <trkpt lat="45.88096" lon="-0.9114">
        <ele>7</ele>
        <time>2018-06-30T17:40:53.000Z</time>
      </trkpt>
      <trkpt lat="45.88096" lon="-0.91142">
        <ele>7</ele>
        <time>2018-06-30T17:40:54.000Z</time>
      </trkpt>
      <trkpt lat="45.88096" lon="-0.91143">
        <ele>7</ele>
        <time>2018-06-30T17:40:55.000Z</time>
      </trkpt>
      <trkpt lat="45.88095" lon="-0.91145">
        <ele>7</ele>
        <time>2018-06-30T17:40:56.000Z</time>
      </trkpt>
      <trkpt lat="45.88095" lon="-0.91146">
        <ele>7</ele>
        <time>2018-06-30T17:40:57.000Z</time>
      </trkpt>
      <trkpt lat="45.88095" lon="-0.91148">
        <ele>7</ele>
        <time>2018-06-30T17:40:58.000Z</time>
      </trkpt>
      <trkpt lat="45.88095" lon="-0.9115">
        <ele>7</ele>
        <time>2018-06-30T17:40:59.000Z</time>
      </trkpt>
      <trkpt lat="45.88095" lon="-0.91151">
        <ele>7</ele>
        <time>2018-06-30T17:41:00.000Z</time>
      </trkpt>
      <trkpt lat="45.88095" lon="-0.91153">
        <ele>6</ele>
        <time>2018-06-30T17:41:01.000Z</time>
      </trkpt>
      <trkpt lat="45.88095" lon="-0.91154">
        <ele>6</ele>
        <time>2018-06-30T17:41:02.000Z</time>
      </trkpt>
      <trkpt lat="45.88095" lon="-0.91156">
        <ele>6</ele>
        <time>2018-06-30T17:41:03.000Z</time>
      </trkpt>
      <trkpt lat="45.88095" lon="-0.91158">
        <ele>6</ele>
        <time>2018-06-30T17:41:04.000Z</time>
      </trkpt>
      <trkpt lat="45.88095" lon="-0.91159">
        <ele>6</ele>
        <time>2018-06-30T17:41:05.000Z</time>
      </trkpt>
      <trkpt lat="45.88095" lon="-0.91161">
        <ele>6</ele>
        <time>2018-06-30T17:41:06.000Z</time>
      </trkpt>
      <trkpt lat="45.88094" lon="-0.91162">
        <ele>6</ele>
        <time>2018-06-30T17:41:07.000Z</time>
      </trkpt>
      <trkpt lat="45.88094" lon="-0.91164">
        <ele>6</ele>
        <time>2018-06-30T17:41:08.000Z</time>
      </trkpt>
      <trkpt lat="45.88094" lon="-0.91166">
        <ele>6</ele>
        <time>2018-06-30T17:41:09.000Z</time>
      </trkpt>
      <trkpt lat="45.88094" lon="-0.91167">
        <ele>6</ele>
        <time>2018-06-30T17:41:10.000Z</time>
      </trkpt>
      <trkpt lat="45.88094" lon="-0.91169">
        <ele>6</ele>
        <time>2018-06-30T17:41:11.000Z</time>
      </trkpt>
      <trkpt lat="45.88094" lon="-0.9117">
        <ele>6</ele>
        <time>2018-06-30T17:41:12.000Z</time>
      </trkpt>
      <trkpt lat="45.88094" lon="-0.91172">
        <ele>6</ele>
        <time>2018-06-30T17:41:13.000Z</time>
      </trkpt>
      <trkpt lat="45.88094" lon="-0.91174">
        <ele>6</ele>
        <time>2018-06-30T17:41:14.000Z</time>
      </trkpt>
      <trkpt lat="45.88094" lon="-0.91175">
        <ele>6</ele>
        <time>2018-06-30T17:41:15.000Z</time>
      </trkpt>
      <trkpt lat="45.88093" lon="-0.91176">
        <ele>7</ele>
        <time>2018-06-30T17:41:16.000Z</time>
      </trkpt>
      <trkpt lat="45.88093" lon="-0.91178">
        <ele>7</ele>
        <time>2018-06-30T17:41:17.000Z</time>
      </trkpt>
      <trkpt lat="45.88093" lon="-0.9118">
        <ele>7</ele>
        <time>2018-06-30T17:41:18.000Z</time>
      </trkpt>
      <trkpt lat="45.88093" lon="-0.91181">
        <ele>7</ele>
        <time>2018-06-30T17:41:19.000Z</time>
      </trkpt>
      <trkpt lat="45.88093" lon="-0.91183">
        <ele>7</ele>
        <time>2018-06-30T17:41:20.000Z</time>
      </trkpt>
      <trkpt lat="45.88093" lon="-0.91185">
        <ele>7</ele>
        <time>2018-06-30T17:41:21.000Z</time>
      </trkpt>
      <trkpt lat="45.88092" lon="-0.91186">
        <ele>7</ele>
        <time>2018-06-30T17:41:22.000Z</time>
      </trkpt>
      <trkpt lat="45.88092" lon="-0.91188">
        <ele>7</ele>
        <time>2018-06-30T17:41:23.000Z</time>
      </trkpt>
      <trkpt lat="45.88092" lon="-0.91189">
        <ele>7</ele>
        <time>2018-06-30T17:41:24.000Z</time>
      </trkpt>
      <trkpt lat="45.88092" lon="-0.91191">
        <ele>7</ele>
        <time>2018-06-30T17:41:25.000Z</time>
      </trkpt>
      <trkpt lat="45.88092" lon="-0.91193">
        <ele>7</ele>
        <time>2018-06-30T17:41:26.000Z</time>
      </trkpt>
      <trkpt lat="45.88092" lon="-0.91194">
        <ele>7</ele>
        <time>2018-06-30T17:41:27.000Z</time>
      </trkpt>
      <trkpt lat="45.88092" lon="-0.91196">
        <ele>6</ele>
        <time>2018-06-30T17:41:28.000Z</time>
      </trkpt>
      <trkpt lat="45.88091" lon="-0.91198">
        <ele>6</ele>
        <time>2018-06-30T17:41:29.000Z</time>
      </trkpt>
      <trkpt lat="45.88091" lon="-0.912">
        <ele>6</ele>
        <time>2018-06-30T17:41:30.000Z</time>
      </trkpt>
      <trkpt lat="45.88091" lon="-0.91201">
        <ele>6</ele>
        <time>2018-06-30T17:41:31.000Z</time>
      </trkpt>
      <trkpt lat="45.88091" lon="-0.91203">
        <ele>6</ele>
        <time>2018-06-30T17:41:32.000Z</time>
      </trkpt>
      <trkpt lat="45.88091" lon="-0.91204">
        <ele>6</ele>
        <time>2018-06-30T17:41:33.000Z</time>
      </trkpt>
      <trkpt lat="45.88091" lon="-0.91206">
        <ele>6</ele>
        <time>2018-06-30T17:41:34.000Z</time>
      </trkpt>
      <trkpt lat="45.88091" lon="-0.91207">
        <ele>6</ele>
        <time>2018-06-30T17:41:35.000Z</time>
      </trkpt>
      <trkpt lat="45.88091" lon="-0.91209">
        <ele>6</ele>
        <time>2018-06-30T17:41:36.000Z</time>
      </trkpt>
      <trkpt lat="45.8809" lon="-0.9121">
        <ele>6</ele>
        <time>2018-06-30T17:41:37.000Z</time>
      </trkpt>
      <trkpt lat="45.8809" lon="-0.91212">
        <ele>6</ele>
        <time>2018-06-30T17:41:38.000Z</time>
      </trkpt>
      <trkpt lat="45.8809" lon="-0.91214">
        <ele>6</ele>
        <time>2018-06-30T17:41:39.000Z</time>
      </trkpt>
      <trkpt lat="45.8809" lon="-0.91215">
        <ele>6</ele>
        <time>2018-06-30T17:41:40.000Z</time>
      </trkpt>
      <trkpt lat="45.8809" lon="-0.91217">
        <ele>6</ele>
        <time>2018-06-30T17:41:41.000Z</time>
      </trkpt>
      <trkpt lat="45.8809" lon="-0.91218">
        <ele>6</ele>
        <time>2018-06-30T17:41:42.000Z</time>
      </trkpt>
      <trkpt lat="45.8809" lon="-0.9122">
        <ele>6</ele>
        <time>2018-06-30T17:41:43.000Z</time>
      </trkpt>
      <trkpt lat="45.8809" lon="-0.91221">
        <ele>6</ele>
        <time>2018-06-30T17:41:44.000Z</time>
      </trkpt>
      <trkpt lat="45.88089" lon="-0.91223">
        <ele>6</ele>
        <time>2018-06-30T17:41:45.000Z</time>
      </trkpt>
      <trkpt lat="45.88089" lon="-0.91224">
        <ele>6</ele>
        <time>2018-06-30T17:41:46.000Z</time>
      </trkpt>
      <trkpt lat="45.88089" lon="-0.91226">
        <ele>6</ele>
        <time>2018-06-30T17:41:47.000Z</time>
      </trkpt>
      <trkpt lat="45.8809" lon="-0.91228">
        <ele>6</ele>
        <time>2018-06-30T17:41:48.000Z</time>
      </trkpt>
      <trkpt lat="45.8809" lon="-0.91229">
        <ele>7</ele>
        <time>2018-06-30T17:41:49.000Z</time>
      </trkpt>
      <trkpt lat="45.88091" lon="-0.9123">
        <ele>7</ele>
        <time>2018-06-30T17:41:50.000Z</time>
      </trkpt>
      <trkpt lat="45.88092" lon="-0.91231">
        <ele>7</ele>
        <time>2018-06-30T17:41:51.000Z</time>
      </trkpt>
      <trkpt lat="45.88092" lon="-0.91232">
        <ele>7</ele>
        <time>2018-06-30T17:41:52.000Z</time>
      </trkpt>
      <trkpt lat="45.88093" lon="-0.91233">
        <ele>7</ele>
        <time>2018-06-30T17:41:53.000Z</time>
      </trkpt>
      <trkpt lat="45.88094" lon="-0.91233">
        <ele>7</ele>
        <time>2018-06-30T17:41:54.000Z</time>
      </trkpt>
      <trkpt lat="45.88095" lon="-0.91234">
        <ele>8</ele>
        <time>2018-06-30T17:41:55.000Z</time>
      </trkpt>
      <trkpt lat="45.88097" lon="-0.91234">
        <ele>8</ele>
        <time>2018-06-30T17:41:56.000Z</time>
      </trkpt>
      <trkpt lat="45.88098" lon="-0.91234">
        <ele>8</ele>
        <time>2018-06-30T17:41:57.000Z</time>
      </trkpt>
      <trkpt lat="45.88099" lon="-0.91234">
        <ele>7</ele>
        <time>2018-06-30T17:41:58.000Z</time>
      </trkpt>
      <trkpt lat="45.881" lon="-0.91235">
        <ele>7</ele>
        <time>2018-06-30T17:41:59.000Z</time>
      </trkpt>
      <trkpt lat="45.88101" lon="-0.91235">
        <ele>8</ele>
        <time>2018-06-30T17:42:00.000Z</time>
      </trkpt>
      <trkpt lat="45.88102" lon="-0.91235">
        <ele>8</ele>
        <time>2018-06-30T17:42:01.000Z</time>
      </trkpt>
      <trkpt lat="45.88103" lon="-0.91236">
        <ele>8</ele>
        <time>2018-06-30T17:42:02.000Z</time>
      </trkpt>
      <trkpt lat="45.88104" lon="-0.91236">
        <ele>8</ele>
        <time>2018-06-30T17:42:03.000Z</time>
      </trkpt>
      <trkpt lat="45.88105" lon="-0.91236">
        <ele>8</ele>
        <time>2018-06-30T17:42:04.000Z</time>
      </trkpt>
      <trkpt lat="45.88107" lon="-0.91236">
        <ele>8</ele>
        <time>2018-06-30T17:42:05.000Z</time>
      </trkpt>
      <trkpt lat="45.88108" lon="-0.91237">
        <ele>8</ele>
        <time>2018-06-30T17:42:06.000Z</time>
      </trkpt>
      <trkpt lat="45.88109" lon="-0.91237">
        <ele>8</ele>
        <time>2018-06-30T17:42:07.000Z</time>
      </trkpt>
      <trkpt lat="45.8811" lon="-0.91237">
        <ele>8</ele>
        <time>2018-06-30T17:42:08.000Z</time>
      </trkpt>
      <trkpt lat="45.88111" lon="-0.91238">
        <ele>8</ele>
        <time>2018-06-30T17:42:09.000Z</time>
      </trkpt>
      <trkpt lat="45.88112" lon="-0.91238">
        <ele>8</ele>
        <time>2018-06-30T17:42:10.000Z</time>
      </trkpt>
      <trkpt lat="45.88113" lon="-0.91238">
        <ele>8</ele>
        <time>2018-06-30T17:42:11.000Z</time>
      </trkpt>
      <trkpt lat="45.88114" lon="-0.91239">
        <ele>8</ele>
        <time>2018-06-30T17:42:12.000Z</time>
      </trkpt>
      <trkpt lat="45.88116" lon="-0.91239">
        <ele>8</ele>
        <time>2018-06-30T17:42:13.000Z</time>
      </trkpt>
      <trkpt lat="45.88117" lon="-0.9124">
        <ele>8</ele>
        <time>2018-06-30T17:42:14.000Z</time>
      </trkpt>
      <trkpt lat="45.88118" lon="-0.9124">
        <ele>8</ele>
        <time>2018-06-30T17:42:15.000Z</time>
      </trkpt>
      <trkpt lat="45.88119" lon="-0.91241">
        <ele>8</ele>
        <time>2018-06-30T17:42:16.000Z</time>
      </trkpt>
      <trkpt lat="45.8812" lon="-0.91241">
        <ele>8</ele>
        <time>2018-06-30T17:42:17.000Z</time>
      </trkpt>
      <trkpt lat="45.88121" lon="-0.91242">
        <ele>8</ele>
        <time>2018-06-30T17:42:18.000Z</time>
      </trkpt>
      <trkpt lat="45.88122" lon="-0.91242">
        <ele>8</ele>
        <time>2018-06-30T17:42:19.000Z</time>
      </trkpt>
      <trkpt lat="45.88123" lon="-0.91242">
        <ele>8</ele>
        <time>2018-06-30T17:42:20.000Z</time>
      </trkpt>
      <trkpt lat="45.88124" lon="-0.91243">
        <ele>8</ele>
        <time>2018-06-30T17:42:21.000Z</time>
      </trkpt>
      <trkpt lat="45.88126" lon="-0.91243">
        <ele>9</ele>
        <time>2018-06-30T17:42:22.000Z</time>
      </trkpt>
      <trkpt lat="45.88127" lon="-0.91244">
        <ele>8</ele>
        <time>2018-06-30T17:42:23.000Z</time>
      </trkpt>
      <trkpt lat="45.88128" lon="-0.91244">
        <ele>9</ele>
        <time>2018-06-30T17:42:24.000Z</time>
      </trkpt>
      <trkpt lat="45.88129" lon="-0.91244">
        <ele>8</ele>
        <time>2018-06-30T17:42:25.000Z</time>
      </trkpt>
      <trkpt lat="45.8813" lon="-0.91245">
        <ele>8</ele>
        <time>2018-06-30T17:42:26.000Z</time>
      </trkpt>
      <trkpt lat="45.88131" lon="-0.91245">
        <ele>9</ele>
        <time>2018-06-30T17:42:27.000Z</time>
      </trkpt>
      <trkpt lat="45.88132" lon="-0.91246">
        <ele>9</ele>
        <time>2018-06-30T17:42:28.000Z</time>
      </trkpt>
      <trkpt lat="45.88134" lon="-0.91246">
        <ele>9</ele>
        <time>2018-06-30T17:42:29.000Z</time>
      </trkpt>
      <trkpt lat="45.88135" lon="-0.91246">
        <ele>9</ele>
        <time>2018-06-30T17:42:30.000Z</time>
      </trkpt>
      <trkpt lat="45.88136" lon="-0.91247">
        <ele>9</ele>
        <time>2018-06-30T17:42:31.000Z</time>
      </trkpt>
      <trkpt lat="45.88137" lon="-0.91247">
        <ele>9</ele>
        <time>2018-06-30T17:42:32.000Z</time>
      </trkpt>
      <trkpt lat="45.88138" lon="-0.91247">
        <ele>9</ele>
        <time>2018-06-30T17:42:33.000Z</time>
      </trkpt>
      <trkpt lat="45.88139" lon="-0.91248">
        <ele>9</ele>
        <time>2018-06-30T17:42:34.000Z</time>
      </trkpt>
      <trkpt lat="45.8814" lon="-0.91248">
        <ele>9</ele>
        <time>2018-06-30T17:42:35.000Z</time>
      </trkpt>
      <trkpt lat="45.88141" lon="-0.91248">
        <ele>9</ele>
        <time>2018-06-30T17:42:36.000Z</time>
      </trkpt>
      <trkpt lat="45.88142" lon="-0.91249">
        <ele>9</ele>
        <time>2018-06-30T17:42:37.000Z</time>
      </trkpt>
      <trkpt lat="45.88143" lon="-0.91249">
        <ele>9</ele>
        <time>2018-06-30T17:42:38.000Z</time>
      </trkpt>
      <trkpt lat="45.88144" lon="-0.9125">
        <ele>9</ele>
        <time>2018-06-30T17:42:39.000Z</time>
      </trkpt>
      <trkpt lat="45.88146" lon="-0.9125">
        <ele>9</ele>
        <time>2018-06-30T17:42:40.000Z</time>
      </trkpt>
      <trkpt lat="45.88147" lon="-0.91251">
        <ele>9</ele>
        <time>2018-06-30T17:42:41.000Z</time>
      </trkpt>
      <trkpt lat="45.88148" lon="-0.91251">
        <ele>9</ele>
        <time>2018-06-30T17:42:42.000Z</time>
      </trkpt>
      <trkpt lat="45.88149" lon="-0.91251">
        <ele>9</ele>
        <time>2018-06-30T17:42:43.000Z</time>
      </trkpt>
      <trkpt lat="45.8815" lon="-0.91252">
        <ele>9</ele>
        <time>2018-06-30T17:42:44.000Z</time>
      </trkpt>
      <trkpt lat="45.88151" lon="-0.91252">
        <ele>9</ele>
        <time>2018-06-30T17:42:45.000Z</time>
      </trkpt>
      <trkpt lat="45.88152" lon="-0.91252">
        <ele>9</ele>
        <time>2018-06-30T17:42:46.000Z</time>
      </trkpt>
      <trkpt lat="45.88153" lon="-0.91253">
        <ele>9</ele>
        <time>2018-06-30T17:42:47.000Z</time>
      </trkpt>
      <trkpt lat="45.88154" lon="-0.91253">
        <ele>9</ele>
        <time>2018-06-30T17:42:48.000Z</time>
      </trkpt>
      <trkpt lat="45.88155" lon="-0.91254">
        <ele>9</ele>
        <time>2018-06-30T17:42:49.000Z</time>
      </trkpt>
      <trkpt lat="45.88156" lon="-0.91254">
        <ele>9</ele>
        <time>2018-06-30T17:42:50.000Z</time>
      </trkpt>
      <trkpt lat="45.88157" lon="-0.91254">
        <ele>9</ele>
        <time>2018-06-30T17:42:51.000Z</time>
      </trkpt>
      <trkpt lat="45.88159" lon="-0.91255">
        <ele>9</ele>
        <time>2018-06-30T17:42:52.000Z</time>
      </trkpt>
      <trkpt lat="45.8816" lon="-0.91255">
        <ele>9</ele>
        <time>2018-06-30T17:42:53.000Z</time>
      </trkpt>
      <trkpt lat="45.88161" lon="-0.91255">
        <ele>9</ele>
        <time>2018-06-30T17:42:54.000Z</time>
      </trkpt>
      <trkpt lat="45.88162" lon="-0.91256">
        <ele>9</ele>
        <time>2018-06-30T17:42:55.000Z</time>
      </trkpt>
      <trkpt lat="45.88163" lon="-0.91256">
        <ele>9</ele>
        <time>2018-06-30T17:42:56.000Z</time>
      </trkpt>
      <trkpt lat="45.88164" lon="-0.91256">
        <ele>9</ele>
        <time>2018-06-30T17:42:57.000Z</time>
      </trkpt>
      <trkpt lat="45.88165" lon="-0.91257">
        <ele>9</ele>
        <time>2018-06-30T17:42:58.000Z</time>
      </trkpt>
      <trkpt lat="45.88166" lon="-0.91257">
        <ele>9</ele>
        <time>2018-06-30T17:42:59.000Z</time>
      </trkpt>
      <trkpt lat="45.88167" lon="-0.91258">
        <ele>9</ele>
        <time>2018-06-30T17:43:00.000Z</time>
      </trkpt>
      <trkpt lat="45.88168" lon="-0.91258">
        <ele>9</ele>
        <time>2018-06-30T17:43:01.000Z</time>
      </trkpt>
      <trkpt lat="45.88169" lon="-0.91258">
        <ele>9</ele>
        <time>2018-06-30T17:43:02.000Z</time>
      </trkpt>
      <trkpt lat="45.8817" lon="-0.91259">
        <ele>9</ele>
        <time>2018-06-30T17:43:03.000Z</time>
      </trkpt>
      <trkpt lat="45.88171" lon="-0.91259">
        <ele>9</ele>
        <time>2018-06-30T17:43:04.000Z</time>
      </trkpt>
      <trkpt lat="45.88172" lon="-0.9126">
        <ele>9</ele>
        <time>2018-06-30T17:43:05.000Z</time>
      </trkpt>
      <trkpt lat="45.88173" lon="-0.9126">
        <ele>9</ele>
        <time>2018-06-30T17:43:06.000Z</time>
      </trkpt>
      <trkpt lat="45.88174" lon="-0.91261">
        <ele>9</ele>
        <time>2018-06-30T17:43:07.000Z</time>
      </trkpt>
      <trkpt lat="45.88175" lon="-0.91261">
        <ele>9</ele>
        <time>2018-06-30T17:43:08.000Z</time>
      </trkpt>
      <trkpt lat="45.88176" lon="-0.91261">
        <ele>9</ele>
        <time>2018-06-30T17:43:09.000Z</time>
      </trkpt>
      <trkpt lat="45.88177" lon="-0.91262">
        <ele>9</ele>
        <time>2018-06-30T17:43:10.000Z</time>
      </trkpt>
      <trkpt lat="45.88178" lon="-0.91262">
        <ele>9</ele>
        <time>2018-06-30T17:43:11.000Z</time>
      </trkpt>
      <trkpt lat="45.88179" lon="-0.91262">
        <ele>9</ele>
        <time>2018-06-30T17:43:12.000Z</time>
      </trkpt>
      <trkpt lat="45.88181" lon="-0.91263">
        <ele>9</ele>
        <time>2018-06-30T17:43:13.000Z</time>
      </trkpt>
      <trkpt lat="45.88182" lon="-0.91263">
        <ele>9</ele>
        <time>2018-06-30T17:43:14.000Z</time>
      </trkpt>
      <trkpt lat="45.88183" lon="-0.91263">
        <ele>10</ele>
        <time>2018-06-30T17:43:15.000Z</time>
      </trkpt>
      <trkpt lat="45.88184" lon="-0.91264">
        <ele>10</ele>
        <time>2018-06-30T17:43:16.000Z</time>
      </trkpt>
      <trkpt lat="45.88185" lon="-0.91264">
        <ele>10</ele>
        <time>2018-06-30T17:43:17.000Z</time>
      </trkpt>
      <trkpt lat="45.88186" lon="-0.91265">
        <ele>9</ele>
        <time>2018-06-30T17:43:18.000Z</time>
      </trkpt>
      <trkpt lat="45.88187" lon="-0.91265">
        <ele>9</ele>
        <time>2018-06-30T17:43:19.000Z</time>
      </trkpt>
      <trkpt lat="45.88188" lon="-0.91265">
        <ele>9</ele>
        <time>2018-06-30T17:43:20.000Z</time>
      </trkpt>
      <trkpt lat="45.88189" lon="-0.91266">
        <ele>9</ele>
        <time>2018-06-30T17:43:21.000Z</time>
      </trkpt>
      <trkpt lat="45.8819" lon="-0.91266">
        <ele>9</ele>
        <time>2018-06-30T17:43:22.000Z</time>
      </trkpt>
      <trkpt lat="45.88191" lon="-0.91266">
        <ele>9</ele>
        <time>2018-06-30T17:43:23.000Z</time>
      </trkpt>
      <trkpt lat="45.88192" lon="-0.91267">
        <ele>9</ele>
        <time>2018-06-30T17:43:24.000Z</time>
      </trkpt>
      <trkpt lat="45.88193" lon="-0.91267">
        <ele>9</ele>
        <time>2018-06-30T17:43:25.000Z</time>
      </trkpt>
      <trkpt lat="45.88195" lon="-0.91268">
        <ele>9</ele>
        <time>2018-06-30T17:43:26.000Z</time>
      </trkpt>
      <trkpt lat="45.88196" lon="-0.91268">
        <ele>9</ele>
        <time>2018-06-30T17:43:27.000Z</time>
      </trkpt>
      <trkpt lat="45.88197" lon="-0.91268">
        <ele>9</ele>
        <time>2018-06-30T17:43:28.000Z</time>
      </trkpt>
      <trkpt lat="45.88198" lon="-0.91269">
        <ele>9</ele>
        <time>2018-06-30T17:43:29.000Z</time>
      </trkpt>
      <trkpt lat="45.88199" lon="-0.9127">
        <ele>9</ele>
        <time>2018-06-30T17:43:30.000Z</time>
      </trkpt>
      <trkpt lat="45.882" lon="-0.9127">
        <ele>9</ele>
        <time>2018-06-30T17:43:31.000Z</time>
      </trkpt>
      <trkpt lat="45.88201" lon="-0.91271">
        <ele>9</ele>
        <time>2018-06-30T17:43:32.000Z</time>
      </trkpt>
      <trkpt lat="45.88202" lon="-0.91271">
        <ele>9</ele>
        <time>2018-06-30T17:43:33.000Z</time>
      </trkpt>
      <trkpt lat="45.88203" lon="-0.91272">
        <ele>9</ele>
        <time>2018-06-30T17:43:34.000Z</time>
      </trkpt>
      <trkpt lat="45.88205" lon="-0.91272">
        <ele>8</ele>
        <time>2018-06-30T17:43:35.000Z</time>
      </trkpt>
      <trkpt lat="45.88206" lon="-0.91272">
        <ele>8</ele>
        <time>2018-06-30T17:43:36.000Z</time>
      </trkpt>
      <trkpt lat="45.88207" lon="-0.91273">
        <ele>8</ele>
        <time>2018-06-30T17:43:37.000Z</time>
      </trkpt>
      <trkpt lat="45.88208" lon="-0.91273">
        <ele>8</ele>
        <time>2018-06-30T17:43:38.000Z</time>
      </trkpt>
      <trkpt lat="45.88209" lon="-0.91273">
        <ele>8</ele>
        <time>2018-06-30T17:43:39.000Z</time>
      </trkpt>
      <trkpt lat="45.88211" lon="-0.91274">
        <ele>9</ele>
        <time>2018-06-30T17:43:40.000Z</time>
      </trkpt>
      <trkpt lat="45.88212" lon="-0.91274">
        <ele>9</ele>
        <time>2018-06-30T17:43:41.000Z</time>
      </trkpt>
      <trkpt lat="45.88213" lon="-0.91275">
        <ele>9</ele>
        <time>2018-06-30T17:43:42.000Z</time>
      </trkpt>
      <trkpt lat="45.88214" lon="-0.91276">
        <ele>9</ele>
        <time>2018-06-30T17:43:43.000Z</time>
      </trkpt>
      <trkpt lat="45.88215" lon="-0.91276">
        <ele>9</ele>
        <time>2018-06-30T17:43:44.000Z</time>
      </trkpt>
      <trkpt lat="45.88216" lon="-0.91277">
        <ele>9</ele>
        <time>2018-06-30T17:43:45.000Z</time>
      </trkpt>
      <trkpt lat="45.88218" lon="-0.91277">
        <ele>9</ele>
        <time>2018-06-30T17:43:46.000Z</time>
      </trkpt>
      <trkpt lat="45.88219" lon="-0.91278">
        <ele>9</ele>
        <time>2018-06-30T17:43:47.000Z</time>
      </trkpt>
      <trkpt lat="45.8822" lon="-0.91278">
        <ele>9</ele>
        <time>2018-06-30T17:43:48.000Z</time>
      </trkpt>
      <trkpt lat="45.88221" lon="-0.91279">
        <ele>9</ele>
        <time>2018-06-30T17:43:49.000Z</time>
      </trkpt>
      <trkpt lat="45.88222" lon="-0.91279">
        <ele>9</ele>
        <time>2018-06-30T17:43:50.000Z</time>
      </trkpt>
      <trkpt lat="45.88223" lon="-0.9128">
        <ele>9</ele>
        <time>2018-06-30T17:43:51.000Z</time>
      </trkpt>
      <trkpt lat="45.88224" lon="-0.9128">
        <ele>9</ele>
        <time>2018-06-30T17:43:52.000Z</time>
      </trkpt>
      <trkpt lat="45.88225" lon="-0.91281">
        <ele>9</ele>
        <time>2018-06-30T17:43:53.000Z</time>
      </trkpt>
      <trkpt lat="45.88226" lon="-0.91281">
        <ele>9</ele>
        <time>2018-06-30T17:43:54.000Z</time>
      </trkpt>
      <trkpt lat="45.88227" lon="-0.91282">
        <ele>9</ele>
        <time>2018-06-30T17:43:55.000Z</time>
      </trkpt>
      <trkpt lat="45.88229" lon="-0.91282">
        <ele>9</ele>
        <time>2018-06-30T17:43:56.000Z</time>
      </trkpt>
      <trkpt lat="45.8823" lon="-0.91283">
        <ele>9</ele>
        <time>2018-06-30T17:43:57.000Z</time>
      </trkpt>
      <trkpt lat="45.88231" lon="-0.91284">
        <ele>9</ele>
        <time>2018-06-30T17:43:58.000Z</time>
      </trkpt>
      <trkpt lat="45.88232" lon="-0.91284">
        <ele>9</ele>
        <time>2018-06-30T17:43:59.000Z</time>
      </trkpt>
      <trkpt lat="45.88233" lon="-0.91285">
        <ele>9</ele>
        <time>2018-06-30T17:44:00.000Z</time>
      </trkpt>
      <trkpt lat="45.88234" lon="-0.91286">
        <ele>8</ele>
        <time>2018-06-30T17:44:01.000Z</time>
      </trkpt>
      <trkpt lat="45.88235" lon="-0.91287">
        <ele>8</ele>
        <time>2018-06-30T17:44:02.000Z</time>
      </trkpt>
      <trkpt lat="45.88236" lon="-0.91288">
        <ele>8</ele>
        <time>2018-06-30T17:44:03.000Z</time>
      </trkpt>
      <trkpt lat="45.88236" lon="-0.91289">
        <ele>8</ele>
        <time>2018-06-30T17:44:04.000Z</time>
      </trkpt>
      <trkpt lat="45.88237" lon="-0.9129">
        <ele>8</ele>
        <time>2018-06-30T17:44:05.000Z</time>
      </trkpt>
      <trkpt lat="45.88238" lon="-0.91292">
        <ele>9</ele>
        <time>2018-06-30T17:44:06.000Z</time>
      </trkpt>
      <trkpt lat="45.88239" lon="-0.91293">
        <ele>9</ele>
        <time>2018-06-30T17:44:07.000Z</time>
      </trkpt>
      <trkpt lat="45.8824" lon="-0.91294">
        <ele>9</ele>
        <time>2018-06-30T17:44:08.000Z</time>
      </trkpt>
      <trkpt lat="45.88241" lon="-0.91295">
        <ele>9</ele>
        <time>2018-06-30T17:44:09.000Z</time>
      </trkpt>
      <trkpt lat="45.88241" lon="-0.91297">
        <ele>9</ele>
        <time>2018-06-30T17:44:10.000Z</time>
      </trkpt>
      <trkpt lat="45.88242" lon="-0.91298">
        <ele>9</ele>
        <time>2018-06-30T17:44:11.000Z</time>
      </trkpt>
      <trkpt lat="45.88243" lon="-0.91299">
        <ele>9</ele>
        <time>2018-06-30T17:44:12.000Z</time>
      </trkpt>
      <trkpt lat="45.88244" lon="-0.91301">
        <ele>9</ele>
        <time>2018-06-30T17:44:13.000Z</time>
      </trkpt>
      <trkpt lat="45.88244" lon="-0.91302">
        <ele>9</ele>
        <time>2018-06-30T17:44:14.000Z</time>
      </trkpt>
      <trkpt lat="45.88245" lon="-0.91304">
        <ele>9</ele>
        <time>2018-06-30T17:44:15.000Z</time>
      </trkpt>
      <trkpt lat="45.88245" lon="-0.91305">
        <ele>9</ele>
        <time>2018-06-30T17:44:16.000Z</time>
      </trkpt>
      <trkpt lat="45.88246" lon="-0.91307">
        <ele>9</ele>
        <time>2018-06-30T17:44:17.000Z</time>
      </trkpt>
      <trkpt lat="45.88246" lon="-0.91308">
        <ele>9</ele>
        <time>2018-06-30T17:44:18.000Z</time>
      </trkpt>
      <trkpt lat="45.88246" lon="-0.9131">
        <ele>9</ele>
        <time>2018-06-30T17:44:19.000Z</time>
      </trkpt>
      <trkpt lat="45.88247" lon="-0.91312">
        <ele>9</ele>
        <time>2018-06-30T17:44:20.000Z</time>
      </trkpt>
      <trkpt lat="45.88247" lon="-0.91314">
        <ele>9</ele>
        <time>2018-06-30T17:44:21.000Z</time>
      </trkpt>
      <trkpt lat="45.88248" lon="-0.91316">
        <ele>9</ele>
        <time>2018-06-30T17:44:22.000Z</time>
      </trkpt>
      <trkpt lat="45.88248" lon="-0.91317">
        <ele>9</ele>
        <time>2018-06-30T17:44:23.000Z</time>
      </trkpt>
      <trkpt lat="45.88248" lon="-0.91319">
        <ele>9</ele>
        <time>2018-06-30T17:44:24.000Z</time>
      </trkpt>
      <trkpt lat="45.88249" lon="-0.91321">
        <ele>9</ele>
        <time>2018-06-30T17:44:25.000Z</time>
      </trkpt>
      <trkpt lat="45.88249" lon="-0.91322">
        <ele>9</ele>
        <time>2018-06-30T17:44:26.000Z</time>
      </trkpt>
      <trkpt lat="45.88249" lon="-0.91324">
        <ele>9</ele>
        <time>2018-06-30T17:44:27.000Z</time>
      </trkpt>
      <trkpt lat="45.88249" lon="-0.91326">
        <ele>9</ele>
        <time>2018-06-30T17:44:28.000Z</time>
      </trkpt>
      <trkpt lat="45.88249" lon="-0.91328">
        <ele>9</ele>
        <time>2018-06-30T17:44:29.000Z</time>
      </trkpt>
      <trkpt lat="45.8825" lon="-0.91329">
        <ele>9</ele>
        <time>2018-06-30T17:44:30.000Z</time>
      </trkpt>
      <trkpt lat="45.8825" lon="-0.91331">
        <ele>9</ele>
        <time>2018-06-30T17:44:31.000Z</time>
      </trkpt>
      <trkpt lat="45.8825" lon="-0.91333">
        <ele>9</ele>
        <time>2018-06-30T17:44:32.000Z</time>
      </trkpt>
      <trkpt lat="45.8825" lon="-0.91334">
        <ele>9</ele>
        <time>2018-06-30T17:44:33.000Z</time>
      </trkpt>
      <trkpt lat="45.8825" lon="-0.91336">
        <ele>9</ele>
        <time>2018-06-30T17:44:34.000Z</time>
      </trkpt>
      <trkpt lat="45.88251" lon="-0.91337">
        <ele>9</ele>
        <time>2018-06-30T17:44:35.000Z</time>
      </trkpt>
      <trkpt lat="45.88251" lon="-0.91339">
        <ele>9</ele>
        <time>2018-06-30T17:44:36.000Z</time>
      </trkpt>
      <trkpt lat="45.88251" lon="-0.9134">
        <ele>9</ele>
        <time>2018-06-30T17:44:37.000Z</time>
      </trkpt>
      <trkpt lat="45.88251" lon="-0.91342">
        <ele>9</ele>
        <time>2018-06-30T17:44:38.000Z</time>
      </trkpt>
      <trkpt lat="45.88251" lon="-0.91344">
        <ele>9</ele>
        <time>2018-06-30T17:44:39.000Z</time>
      </trkpt>
      <trkpt lat="45.88252" lon="-0.91345">
        <ele>9</ele>
        <time>2018-06-30T17:44:40.000Z</time>
      </trkpt>
      <trkpt lat="45.88252" lon="-0.91347">
        <ele>9</ele>
        <time>2018-06-30T17:44:41.000Z</time>
      </trkpt>
      <trkpt lat="45.88252" lon="-0.91349">
        <ele>9</ele>
        <time>2018-06-30T17:44:42.000Z</time>
      </trkpt>
      <trkpt lat="45.88252" lon="-0.9135">
        <ele>9</ele>
        <time>2018-06-30T17:44:43.000Z</time>
      </trkpt>
      <trkpt lat="45.88252" lon="-0.91352">
        <ele>9</ele>
        <time>2018-06-30T17:44:44.000Z</time>
      </trkpt>
      <trkpt lat="45.88252" lon="-0.91354">
        <ele>9</ele>
        <time>2018-06-30T17:44:45.000Z</time>
      </trkpt>
      <trkpt lat="45.88252" lon="-0.91355">
        <ele>9</ele>
        <time>2018-06-30T17:44:46.000Z</time>
      </trkpt>
      <trkpt lat="45.88252" lon="-0.91357">
        <ele>9</ele>
        <time>2018-06-30T17:44:47.000Z</time>
      </trkpt>
      <trkpt lat="45.88252" lon="-0.91358">
        <ele>9</ele>
        <time>2018-06-30T17:44:48.000Z</time>
      </trkpt>
      <trkpt lat="45.88253" lon="-0.9136">
        <ele>9</ele>
        <time>2018-06-30T17:44:49.000Z</time>
      </trkpt>
      <trkpt lat="45.88253" lon="-0.91361">
        <ele>9</ele>
        <time>2018-06-30T17:44:50.000Z</time>
      </trkpt>
      <trkpt lat="45.88253" lon="-0.91363">
        <ele>8</ele>
        <time>2018-06-30T17:44:51.000Z</time>
      </trkpt>
      <trkpt lat="45.88253" lon="-0.91365">
        <ele>9</ele>
        <time>2018-06-30T17:44:52.000Z</time>
      </trkpt>
      <trkpt lat="45.88253" lon="-0.91366">
        <ele>8</ele>
        <time>2018-06-30T17:44:53.000Z</time>
      </trkpt>
      <trkpt lat="45.88253" lon="-0.91368">
        <ele>8</ele>
        <time>2018-06-30T17:44:54.000Z</time>
      </trkpt>
      <trkpt lat="45.88254" lon="-0.91369">
        <ele>8</ele>
        <time>2018-06-30T17:44:55.000Z</time>
      </trkpt>
      <trkpt lat="45.88254" lon="-0.91371">
        <ele>8</ele>
        <time>2018-06-30T17:44:56.000Z</time>
      </trkpt>
      <trkpt lat="45.88254" lon="-0.91373">
        <ele>8</ele>
        <time>2018-06-30T17:44:57.000Z</time>
      </trkpt>
      <trkpt lat="45.88254" lon="-0.91374">
        <ele>8</ele>
        <time>2018-06-30T17:44:58.000Z</time>
      </trkpt>
      <trkpt lat="45.88254" lon="-0.91376">
        <ele>8</ele>
        <time>2018-06-30T17:44:59.000Z</time>
      </trkpt>
      <trkpt lat="45.88254" lon="-0.91378">
        <ele>8</ele>
        <time>2018-06-30T17:45:00.000Z</time>
      </trkpt>
      <trkpt lat="45.88254" lon="-0.91379">
        <ele>8</ele>
        <time>2018-06-30T17:45:01.000Z</time>
      </trkpt>
      <trkpt lat="45.88255" lon="-0.91381">
        <ele>8</ele>
        <time>2018-06-30T17:45:02.000Z</time>
      </trkpt>
      <trkpt lat="45.88255" lon="-0.91383">
        <ele>8</ele>
        <time>2018-06-30T17:45:03.000Z</time>
      </trkpt>
      <trkpt lat="45.88255" lon="-0.91385">
        <ele>8</ele>
        <time>2018-06-30T17:45:04.000Z</time>
      </trkpt>
      <trkpt lat="45.88255" lon="-0.91386">
        <ele>7</ele>
        <time>2018-06-30T17:45:05.000Z</time>
      </trkpt>
      <trkpt lat="45.88255" lon="-0.91388">
        <ele>7</ele>
        <time>2018-06-30T17:45:06.000Z</time>
      </trkpt>
      <trkpt lat="45.88255" lon="-0.91389">
        <ele>7</ele>
        <time>2018-06-30T17:45:07.000Z</time>
      </trkpt>
      <trkpt lat="45.88255" lon="-0.9139">
        <ele>7</ele>
        <time>2018-06-30T17:45:08.000Z</time>
      </trkpt>
      <trkpt lat="45.88255" lon="-0.91392">
        <ele>7</ele>
        <time>2018-06-30T17:45:09.000Z</time>
      </trkpt>
      <trkpt lat="45.88256" lon="-0.91394">
        <ele>6</ele>
        <time>2018-06-30T17:45:10.000Z</time>
      </trkpt>
      <trkpt lat="45.88256" lon="-0.91396">
        <ele>6</ele>
        <time>2018-06-30T17:45:11.000Z</time>
      </trkpt>
      <trkpt lat="45.88256" lon="-0.91397">
        <ele>6</ele>
        <time>2018-06-30T17:45:12.000Z</time>
      </trkpt>
      <trkpt lat="45.88256" lon="-0.91399">
        <ele>6</ele>
        <time>2018-06-30T17:45:13.000Z</time>
      </trkpt>
      <trkpt lat="45.88257" lon="-0.914">
        <ele>6</ele>
        <time>2018-06-30T17:45:14.000Z</time>
      </trkpt>
      <trkpt lat="45.88257" lon="-0.91402">
        <ele>6</ele>
        <time>2018-06-30T17:45:15.000Z</time>
      </trkpt>
      <trkpt lat="45.88257" lon="-0.91404">
        <ele>6</ele>
        <time>2018-06-30T17:45:16.000Z</time>
      </trkpt>
      <trkpt lat="45.88257" lon="-0.91405">
        <ele>5</ele>
        <time>2018-06-30T17:45:17.000Z</time>
      </trkpt>
      <trkpt lat="45.88257" lon="-0.91407">
        <ele>6</ele>
        <time>2018-06-30T17:45:18.000Z</time>
      </trkpt>
      <trkpt lat="45.88258" lon="-0.91408">
        <ele>5</ele>
        <time>2018-06-30T17:45:19.000Z</time>
      </trkpt>
      <trkpt lat="45.88258" lon="-0.9141">
        <ele>5</ele>
        <time>2018-06-30T17:45:20.000Z</time>
      </trkpt>
      <trkpt lat="45.88258" lon="-0.91411">
        <ele>5</ele>
        <time>2018-06-30T17:45:21.000Z</time>
      </trkpt>
      <trkpt lat="45.88258" lon="-0.91413">
        <ele>5</ele>
        <time>2018-06-30T17:45:22.000Z</time>
      </trkpt>
      <trkpt lat="45.88259" lon="-0.91414">
        <ele>5</ele>
        <time>2018-06-30T17:45:23.000Z</time>
      </trkpt>
      <trkpt lat="45.88259" lon="-0.91416">
        <ele>5</ele>
        <time>2018-06-30T17:45:24.000Z</time>
      </trkpt>
      <trkpt lat="45.88259" lon="-0.91417">
        <ele>5</ele>
        <time>2018-06-30T17:45:25.000Z</time>
      </trkpt>
      <trkpt lat="45.88259" lon="-0.91419">
        <ele>5</ele>
        <time>2018-06-30T17:45:26.000Z</time>
      </trkpt>
      <trkpt lat="45.88259" lon="-0.9142">
        <ele>5</ele>
        <time>2018-06-30T17:45:27.000Z</time>
      </trkpt>
      <trkpt lat="45.88259" lon="-0.91421">
        <ele>6</ele>
        <time>2018-06-30T17:45:28.000Z</time>
      </trkpt>
      <trkpt lat="45.88259" lon="-0.91422">
        <ele>6</ele>
        <time>2018-06-30T17:45:29.000Z</time>
      </trkpt>
      <trkpt lat="45.88259" lon="-0.91422">
        <ele>6</ele>
        <time>2018-06-30T17:45:30.000Z</time>
      </trkpt>
      <trkpt lat="45.88259" lon="-0.91422">
        <ele>6</ele>
        <time>2018-06-30T17:45:31.000Z</time>
      </trkpt>
      <trkpt lat="45.8826" lon="-0.91422">
        <ele>7</ele>
        <time>2018-06-30T17:45:32.000Z</time>
      </trkpt>
      <trkpt lat="45.8826" lon="-0.91423">
        <ele>7</ele>
        <time>2018-06-30T17:45:33.000Z</time>
      </trkpt>
      <trkpt lat="45.8826" lon="-0.91423">
        <ele>7</ele>
        <time>2018-06-30T17:45:34.000Z</time>
      </trkpt>
      <trkpt lat="45.8826" lon="-0.91423">
        <ele>7</ele>
        <time>2018-06-30T17:45:35.000Z</time>
      </trkpt>
      <trkpt lat="45.8826" lon="-0.91423">
        <ele>7</ele>
        <time>2018-06-30T17:45:36.000Z</time>
      </trkpt>
      <trkpt lat="45.8826" lon="-0.91423">
        <ele>7</ele>
        <time>2018-06-30T17:45:37.000Z</time>
      </trkpt>
      <trkpt lat="45.8826" lon="-0.91423">
        <ele>7</ele>
        <time>2018-06-30T17:45:38.000Z</time>
      </trkpt>
      <trkpt lat="45.8826" lon="-0.91423">
        <ele>7</ele>
        <time>2018-06-30T17:45:39.000Z</time>
      </trkpt>
      <trkpt lat="45.8826" lon="-0.91423">
        <ele>7</ele>
        <time>2018-06-30T17:45:40.000Z</time>
      </trkpt>
      <trkpt lat="45.8826" lon="-0.91423">
        <ele>7</ele>
        <time>2018-06-30T17:45:41.000Z</time>
      </trkpt>
      <trkpt lat="45.8826" lon="-0.91423">
        <ele>7</ele>
        <time>2018-06-30T17:45:42.000Z</time>
      </trkpt>
      <trkpt lat="45.8826" lon="-0.91424">
        <ele>7</ele>
        <time>2018-06-30T17:45:43.000Z</time>
      </trkpt>
      <trkpt lat="45.8826" lon="-0.91425">
        <ele>7</ele>
        <time>2018-06-30T17:45:44.000Z</time>
      </trkpt>
      <trkpt lat="45.88261" lon="-0.91425">
        <ele>7</ele>
        <time>2018-06-30T17:45:45.000Z</time>
      </trkpt>
      <trkpt lat="45.88261" lon="-0.91427">
        <ele>7</ele>
        <time>2018-06-30T17:45:46.000Z</time>
      </trkpt>
      <trkpt lat="45.88261" lon="-0.91428">
        <ele>6</ele>
        <time>2018-06-30T17:45:47.000Z</time>
      </trkpt>
      <trkpt lat="45.88261" lon="-0.91429">
        <ele>6</ele>
        <time>2018-06-30T17:45:48.000Z</time>
      </trkpt>
      <trkpt lat="45.88261" lon="-0.9143">
        <ele>6</ele>
        <time>2018-06-30T17:45:49.000Z</time>
      </trkpt>
      <trkpt lat="45.88261" lon="-0.91431">
        <ele>6</ele>
        <time>2018-06-30T17:45:50.000Z</time>
      </trkpt>
      <trkpt lat="45.88261" lon="-0.91431">
        <ele>6</ele>
        <time>2018-06-30T17:45:51.000Z</time>
      </trkpt>
      <trkpt lat="45.88261" lon="-0.91432">
        <ele>6</ele>
        <time>2018-06-30T17:45:52.000Z</time>
      </trkpt>
      <trkpt lat="45.88261" lon="-0.91432">
        <ele>5</ele>
        <time>2018-06-30T17:45:53.000Z</time>
      </trkpt>
      <trkpt lat="45.88261" lon="-0.91432">
        <ele>5</ele>
        <time>2018-06-30T17:45:54.000Z</time>
      </trkpt>
      <trkpt lat="45.88261" lon="-0.91432">
        <ele>5</ele>
        <time>2018-06-30T17:45:55.000Z</time>
      </trkpt>
      <trkpt lat="45.88261" lon="-0.91432">
        <ele>5</ele>
        <time>2018-06-30T17:45:56.000Z</time>
      </trkpt>
      <trkpt lat="45.88261" lon="-0.91432">
        <ele>5</ele>
        <time>2018-06-30T17:45:57.000Z</time>
      </trkpt>
      <trkpt lat="45.88261" lon="-0.91432">
        <ele>5</ele>
        <time>2018-06-30T17:45:58.000Z</time>
      </trkpt>
      <trkpt lat="45.88261" lon="-0.91432">
        <ele>5</ele>
        <time>2018-06-30T17:45:59.000Z</time>
      </trkpt>
      <trkpt lat="45.88261" lon="-0.91432">
        <ele>5</ele>
        <time>2018-06-30T17:46:00.000Z</time>
      </trkpt>
      <trkpt lat="45.88261" lon="-0.91432">
        <ele>5</ele>
        <time>2018-06-30T17:46:01.000Z</time>
      </trkpt>
      <trkpt lat="45.88261" lon="-0.91432">
        <ele>4</ele>
        <time>2018-06-30T17:46:02.000Z</time>
      </trkpt>
      <trkpt lat="45.88261" lon="-0.91432">
        <ele>4</ele>
        <time>2018-06-30T17:46:03.000Z</time>
      </trkpt>
      <trkpt lat="45.88261" lon="-0.91433">
        <ele>4</ele>
        <time>2018-06-30T17:46:04.000Z</time>
      </trkpt>
      <trkpt lat="45.88261" lon="-0.91433">
        <ele>4</ele>
        <time>2018-06-30T17:46:05.000Z</time>
      </trkpt>
      <trkpt lat="45.8826" lon="-0.91434">
        <ele>4</ele>
        <time>2018-06-30T17:46:06.000Z</time>
      </trkpt>
      <trkpt lat="45.8826" lon="-0.91436">
        <ele>4</ele>
        <time>2018-06-30T17:46:07.000Z</time>
      </trkpt>
      <trkpt lat="45.8826" lon="-0.91436">
        <ele>5</ele>
        <time>2018-06-30T17:46:08.000Z</time>
      </trkpt>
      <trkpt lat="45.88261" lon="-0.91437">
        <ele>5</ele>
        <time>2018-06-30T17:46:09.000Z</time>
      </trkpt>
      <trkpt lat="45.8826" lon="-0.91437">
        <ele>5</ele>
        <time>2018-06-30T17:46:10.000Z</time>
      </trkpt>
      <trkpt lat="45.8826" lon="-0.91437">
        <ele>4</ele>
        <time>2018-06-30T17:46:11.000Z</time>
      </trkpt>
      <trkpt lat="45.8826" lon="-0.91437">
        <ele>4</ele>
        <time>2018-06-30T17:46:12.000Z</time>
      </trkpt>
      <trkpt lat="45.8826" lon="-0.91437">
        <ele>4</ele>
        <time>2018-06-30T17:46:13.000Z</time>
      </trkpt>
      <trkpt lat="45.8826" lon="-0.91437">
        <ele>4</ele>
        <time>2018-06-30T17:46:14.000Z</time>
      </trkpt>
      <trkpt lat="45.8826" lon="-0.91436">
        <ele>4</ele>
        <time>2018-06-30T17:46:15.000Z</time>
      </trkpt>
      <trkpt lat="45.88261" lon="-0.91436">
        <ele>4</ele>
        <time>2018-06-30T17:46:16.000Z</time>
      </trkpt>
      <trkpt lat="45.88261" lon="-0.91435">
        <ele>4</ele>
        <time>2018-06-30T17:46:17.000Z</time>
      </trkpt>
      <trkpt lat="45.88261" lon="-0.91435">
        <ele>4</ele>
        <time>2018-06-30T17:46:18.000Z</time>
      </trkpt>
      <trkpt lat="45.88261" lon="-0.91434">
        <ele>4</ele>
        <time>2018-06-30T17:46:19.000Z</time>
      </trkpt>
      <trkpt lat="45.88261" lon="-0.91433">
        <ele>4</ele>
        <time>2018-06-30T17:46:20.000Z</time>
      </trkpt>
      <trkpt lat="45.88261" lon="-0.91433">
        <ele>4</ele>
        <time>2018-06-30T17:46:21.000Z</time>
      </trkpt>
      <trkpt lat="45.88262" lon="-0.91432">
        <ele>4</ele>
        <time>2018-06-30T17:46:22.000Z</time>
      </trkpt>
      <trkpt lat="45.88262" lon="-0.91432">
        <ele>4</ele>
        <time>2018-06-30T17:46:23.000Z</time>
      </trkpt>
      <trkpt lat="45.88262" lon="-0.91431">
        <ele>4</ele>
        <time>2018-06-30T17:46:24.000Z</time>
      </trkpt>
      <trkpt lat="45.88262" lon="-0.9143">
        <ele>4</ele>
        <time>2018-06-30T17:46:25.000Z</time>
      </trkpt>
      <trkpt lat="45.88262" lon="-0.9143">
        <ele>4</ele>
        <time>2018-06-30T17:46:26.000Z</time>
      </trkpt>
      <trkpt lat="45.88263" lon="-0.91429">
        <ele>4</ele>
        <time>2018-06-30T17:46:27.000Z</time>
      </trkpt>
      <trkpt lat="45.88263" lon="-0.91429">
        <ele>5</ele>
        <time>2018-06-30T17:46:28.000Z</time>
      </trkpt>
      <trkpt lat="45.88263" lon="-0.91428">
        <ele>4</ele>
        <time>2018-06-30T17:46:29.000Z</time>
      </trkpt>
      <trkpt lat="45.88262" lon="-0.91428">
        <ele>4</ele>
        <time>2018-06-30T17:46:30.000Z</time>
      </trkpt>
      <trkpt lat="45.88262" lon="-0.91428">
        <ele>4</ele>
        <time>2018-06-30T17:46:31.000Z</time>
      </trkpt>
      <trkpt lat="45.88262" lon="-0.91428">
        <ele>5</ele>
        <time>2018-06-30T17:46:32.000Z</time>
      </trkpt>
      <trkpt lat="45.88262" lon="-0.91427">
        <ele>5</ele>
        <time>2018-06-30T17:46:33.000Z</time>
      </trkpt>
      <trkpt lat="45.88263" lon="-0.91427">
        <ele>4</ele>
        <time>2018-06-30T17:46:34.000Z</time>
      </trkpt>
      <trkpt lat="45.88263" lon="-0.91427">
        <ele>5</ele>
        <time>2018-06-30T17:46:35.000Z</time>
      </trkpt>
      <trkpt lat="45.88264" lon="-0.91426">
        <ele>5</ele>
        <time>2018-06-30T17:46:36.000Z</time>
      </trkpt>
      <trkpt lat="45.88264" lon="-0.91426">
        <ele>5</ele>
        <time>2018-06-30T17:46:37.000Z</time>
      </trkpt>
      <trkpt lat="45.88265" lon="-0.91426">
        <ele>5</ele>
        <time>2018-06-30T17:46:38.000Z</time>
      </trkpt>
      <trkpt lat="45.88265" lon="-0.91425">
        <ele>5</ele>
        <time>2018-06-30T17:46:39.000Z</time>
      </trkpt>
      <trkpt lat="45.88266" lon="-0.91425">
        <ele>5</ele>
        <time>2018-06-30T17:46:40.000Z</time>
      </trkpt>
      <trkpt lat="45.88267" lon="-0.91424">
        <ele>6</ele>
        <time>2018-06-30T17:46:41.000Z</time>
      </trkpt>
      <trkpt lat="45.88267" lon="-0.91424">
        <ele>5</ele>
        <time>2018-06-30T17:46:42.000Z</time>
      </trkpt>
      <trkpt lat="45.88268" lon="-0.91424">
        <ele>5</ele>
        <time>2018-06-30T17:46:43.000Z</time>
      </trkpt>
      <trkpt lat="45.88269" lon="-0.91424">
        <ele>5</ele>
        <time>2018-06-30T17:46:44.000Z</time>
      </trkpt>
      <trkpt lat="45.8827" lon="-0.91424">
        <ele>5</ele>
        <time>2018-06-30T17:46:45.000Z</time>
      </trkpt>
      <trkpt lat="45.88271" lon="-0.91424">
        <ele>5</ele>
        <time>2018-06-30T17:46:46.000Z</time>
      </trkpt>
      <trkpt lat="45.88272" lon="-0.91424">
        <ele>6</ele>
        <time>2018-06-30T17:46:47.000Z</time>
      </trkpt>
      <trkpt lat="45.88273" lon="-0.91424">
        <ele>5</ele>
        <time>2018-06-30T17:46:48.000Z</time>
      </trkpt>
      <trkpt lat="45.88274" lon="-0.91425">
        <ele>6</ele>
        <time>2018-06-30T17:46:49.000Z</time>
      </trkpt>
      <trkpt lat="45.88275" lon="-0.91424">
        <ele>6</ele>
        <time>2018-06-30T17:46:50.000Z</time>
      </trkpt>
      <trkpt lat="45.88276" lon="-0.91424">
        <ele>7</ele>
        <time>2018-06-30T17:46:51.000Z</time>
      </trkpt>
      <trkpt lat="45.88277" lon="-0.91424">
        <ele>7</ele>
        <time>2018-06-30T17:46:52.000Z</time>
      </trkpt>
      <trkpt lat="45.88278" lon="-0.91424">
        <ele>7</ele>
        <time>2018-06-30T17:46:53.000Z</time>
      </trkpt>
      <trkpt lat="45.88279" lon="-0.91424">
        <ele>7</ele>
        <time>2018-06-30T17:46:54.000Z</time>
      </trkpt>
      <trkpt lat="45.8828" lon="-0.91424">
        <ele>7</ele>
        <time>2018-06-30T17:46:55.000Z</time>
      </trkpt>
      <trkpt lat="45.88282" lon="-0.91425">
        <ele>7</ele>
        <time>2018-06-30T17:46:56.000Z</time>
      </trkpt>
      <trkpt lat="45.88283" lon="-0.91425">
        <ele>7</ele>
        <time>2018-06-30T17:46:57.000Z</time>
      </trkpt>
      <trkpt lat="45.88284" lon="-0.91425">
        <ele>7</ele>
        <time>2018-06-30T17:46:58.000Z</time>
      </trkpt>
      <trkpt lat="45.88285" lon="-0.91424">
        <ele>7</ele>
        <time>2018-06-30T17:46:59.000Z</time>
      </trkpt>
      <trkpt lat="45.88286" lon="-0.91424">
        <ele>8</ele>
        <time>2018-06-30T17:47:00.000Z</time>
      </trkpt>
      <trkpt lat="45.88287" lon="-0.91424">
        <ele>8</ele>
        <time>2018-06-30T17:47:01.000Z</time>
      </trkpt>
      <trkpt lat="45.88288" lon="-0.91425">
        <ele>8</ele>
        <time>2018-06-30T17:47:02.000Z</time>
      </trkpt>
      <trkpt lat="45.88289" lon="-0.91424">
        <ele>7</ele>
        <time>2018-06-30T17:47:03.000Z</time>
      </trkpt>
      <trkpt lat="45.8829" lon="-0.91424">
        <ele>7</ele>
        <time>2018-06-30T17:47:04.000Z</time>
      </trkpt>
      <trkpt lat="45.8829" lon="-0.91424">
        <ele>7</ele>
        <time>2018-06-30T17:47:05.000Z</time>
      </trkpt>
      <trkpt lat="45.88291" lon="-0.91424">
        <ele>7</ele>
        <time>2018-06-30T17:47:06.000Z</time>
      </trkpt>
      <trkpt lat="45.88291" lon="-0.91424">
        <ele>7</ele>
        <time>2018-06-30T17:47:07.000Z</time>
      </trkpt>
      <trkpt lat="45.88292" lon="-0.91424">
        <ele>7</ele>
        <time>2018-06-30T17:47:08.000Z</time>
      </trkpt>
      <trkpt lat="45.88293" lon="-0.91424">
        <ele>7</ele>
        <time>2018-06-30T17:47:09.000Z</time>
      </trkpt>
      <trkpt lat="45.88294" lon="-0.91424">
        <ele>7</ele>
        <time>2018-06-30T17:47:10.000Z</time>
      </trkpt>
      <trkpt lat="45.88295" lon="-0.91424">
        <ele>7</ele>
        <time>2018-06-30T17:47:11.000Z</time>
      </trkpt>
      <trkpt lat="45.88297" lon="-0.91424">
        <ele>7</ele>
        <time>2018-06-30T17:47:12.000Z</time>
      </trkpt>
      <trkpt lat="45.88298" lon="-0.91424">
        <ele>7</ele>
        <time>2018-06-30T17:47:13.000Z</time>
      </trkpt>
      <trkpt lat="45.88299" lon="-0.91424">
        <ele>7</ele>
        <time>2018-06-30T17:47:14.000Z</time>
      </trkpt>
      <trkpt lat="45.883" lon="-0.91424">
        <ele>7</ele>
        <time>2018-06-30T17:47:15.000Z</time>
      </trkpt>
      <trkpt lat="45.88301" lon="-0.91424">
        <ele>7</ele>
        <time>2018-06-30T17:47:16.000Z</time>
      </trkpt>
      <trkpt lat="45.88302" lon="-0.91424">
        <ele>7</ele>
        <time>2018-06-30T17:47:17.000Z</time>
      </trkpt>
      <trkpt lat="45.88303" lon="-0.91424">
        <ele>7</ele>
        <time>2018-06-30T17:47:18.000Z</time>
      </trkpt>
      <trkpt lat="45.88304" lon="-0.91424">
        <ele>7</ele>
        <time>2018-06-30T17:47:19.000Z</time>
      </trkpt>
      <trkpt lat="45.88305" lon="-0.91424">
        <ele>7</ele>
        <time>2018-06-30T17:47:20.000Z</time>
      </trkpt>
      <trkpt lat="45.88306" lon="-0.91424">
        <ele>7</ele>
        <time>2018-06-30T17:47:21.000Z</time>
      </trkpt>
      <trkpt lat="45.88308" lon="-0.91424">
        <ele>8</ele>
        <time>2018-06-30T17:47:22.000Z</time>
      </trkpt>
      <trkpt lat="45.88309" lon="-0.91424">
        <ele>8</ele>
        <time>2018-06-30T17:47:23.000Z</time>
      </trkpt>
      <trkpt lat="45.8831" lon="-0.91424">
        <ele>8</ele>
        <time>2018-06-30T17:47:24.000Z</time>
      </trkpt>
      <trkpt lat="45.88311" lon="-0.91424">
        <ele>8</ele>
        <time>2018-06-30T17:47:25.000Z</time>
      </trkpt>
      <trkpt lat="45.88312" lon="-0.91424">
        <ele>8</ele>
        <time>2018-06-30T17:47:26.000Z</time>
      </trkpt>
      <trkpt lat="45.88313" lon="-0.91424">
        <ele>8</ele>
        <time>2018-06-30T17:47:27.000Z</time>
      </trkpt>
      <trkpt lat="45.88314" lon="-0.91424">
        <ele>7</ele>
        <time>2018-06-30T17:47:28.000Z</time>
      </trkpt>
      <trkpt lat="45.88315" lon="-0.91423">
        <ele>7</ele>
        <time>2018-06-30T17:47:29.000Z</time>
      </trkpt>
      <trkpt lat="45.88317" lon="-0.91423">
        <ele>7</ele>
        <time>2018-06-30T17:47:30.000Z</time>
      </trkpt>
      <trkpt lat="45.88318" lon="-0.91423">
        <ele>7</ele>
        <time>2018-06-30T17:47:31.000Z</time>
      </trkpt>
      <trkpt lat="45.88319" lon="-0.91423">
        <ele>8</ele>
        <time>2018-06-30T17:47:32.000Z</time>
      </trkpt>
      <trkpt lat="45.8832" lon="-0.91423">
        <ele>7</ele>
        <time>2018-06-30T17:47:33.000Z</time>
      </trkpt>
      <trkpt lat="45.88321" lon="-0.91423">
        <ele>7</ele>
        <time>2018-06-30T17:47:34.000Z</time>
      </trkpt>
      <trkpt lat="45.88322" lon="-0.91423">
        <ele>7</ele>
        <time>2018-06-30T17:47:35.000Z</time>
      </trkpt>
      <trkpt lat="45.88323" lon="-0.91423">
        <ele>7</ele>
        <time>2018-06-30T17:47:36.000Z</time>
      </trkpt>
      <trkpt lat="45.88324" lon="-0.91422">
        <ele>7</ele>
        <time>2018-06-30T17:47:37.000Z</time>
      </trkpt>
      <trkpt lat="45.88325" lon="-0.91422">
        <ele>7</ele>
        <time>2018-06-30T17:47:38.000Z</time>
      </trkpt>
      <trkpt lat="45.88326" lon="-0.91422">
        <ele>7</ele>
        <time>2018-06-30T17:47:39.000Z</time>
      </trkpt>
      <trkpt lat="45.88328" lon="-0.91422">
        <ele>7</ele>
        <time>2018-06-30T17:47:40.000Z</time>
      </trkpt>
      <trkpt lat="45.88329" lon="-0.91422">
        <ele>7</ele>
        <time>2018-06-30T17:47:41.000Z</time>
      </trkpt>
      <trkpt lat="45.8833" lon="-0.91422">
        <ele>7</ele>
        <time>2018-06-30T17:47:42.000Z</time>
      </trkpt>
      <trkpt lat="45.88331" lon="-0.91422">
        <ele>8</ele>
        <time>2018-06-30T17:47:43.000Z</time>
      </trkpt>
      <trkpt lat="45.88332" lon="-0.91422">
        <ele>8</ele>
        <time>2018-06-30T17:47:44.000Z</time>
      </trkpt>
      <trkpt lat="45.88333" lon="-0.91422">
        <ele>8</ele>
        <time>2018-06-30T17:47:45.000Z</time>
      </trkpt>
      <trkpt lat="45.88334" lon="-0.91422">
        <ele>8</ele>
        <time>2018-06-30T17:47:46.000Z</time>
      </trkpt>
      <trkpt lat="45.88336" lon="-0.91422">
        <ele>8</ele>
        <time>2018-06-30T17:47:47.000Z</time>
      </trkpt>
      <trkpt lat="45.88337" lon="-0.91422">
        <ele>8</ele>
        <time>2018-06-30T17:47:48.000Z</time>
      </trkpt>
      <trkpt lat="45.88338" lon="-0.91422">
        <ele>8</ele>
        <time>2018-06-30T17:47:49.000Z</time>
      </trkpt>
      <trkpt lat="45.88339" lon="-0.91422">
        <ele>8</ele>
        <time>2018-06-30T17:47:50.000Z</time>
      </trkpt>
      <trkpt lat="45.8834" lon="-0.91422">
        <ele>8</ele>
        <time>2018-06-30T17:47:51.000Z</time>
      </trkpt>
      <trkpt lat="45.88341" lon="-0.91422">
        <ele>8</ele>
        <time>2018-06-30T17:47:52.000Z</time>
      </trkpt>
      <trkpt lat="45.88342" lon="-0.91422">
        <ele>8</ele>
        <time>2018-06-30T17:47:53.000Z</time>
      </trkpt>
      <trkpt lat="45.88343" lon="-0.91422">
        <ele>8</ele>
        <time>2018-06-30T17:47:54.000Z</time>
      </trkpt>
      <trkpt lat="45.88344" lon="-0.91422">
        <ele>8</ele>
        <time>2018-06-30T17:47:55.000Z</time>
      </trkpt>
      <trkpt lat="45.88346" lon="-0.91422">
        <ele>8</ele>
        <time>2018-06-30T17:47:56.000Z</time>
      </trkpt>
      <trkpt lat="45.88347" lon="-0.91422">
        <ele>8</ele>
        <time>2018-06-30T17:47:57.000Z</time>
      </trkpt>
      <trkpt lat="45.88348" lon="-0.91422">
        <ele>8</ele>
        <time>2018-06-30T17:47:58.000Z</time>
      </trkpt>
      <trkpt lat="45.88349" lon="-0.91422">
        <ele>8</ele>
        <time>2018-06-30T17:47:59.000Z</time>
      </trkpt>
      <trkpt lat="45.8835" lon="-0.91422">
        <ele>9</ele>
        <time>2018-06-30T17:48:00.000Z</time>
      </trkpt>
      <trkpt lat="45.88351" lon="-0.91422">
        <ele>8</ele>
        <time>2018-06-30T17:48:01.000Z</time>
      </trkpt>
      <trkpt lat="45.88352" lon="-0.91422">
        <ele>9</ele>
        <time>2018-06-30T17:48:02.000Z</time>
      </trkpt>
      <trkpt lat="45.88353" lon="-0.91422">
        <ele>8</ele>
        <time>2018-06-30T17:48:03.000Z</time>
      </trkpt>
      <trkpt lat="45.88355" lon="-0.91422">
        <ele>8</ele>
        <time>2018-06-30T17:48:04.000Z</time>
      </trkpt>
      <trkpt lat="45.88356" lon="-0.91422">
        <ele>8</ele>
        <time>2018-06-30T17:48:05.000Z</time>
      </trkpt>
      <trkpt lat="45.88357" lon="-0.91422">
        <ele>8</ele>
        <time>2018-06-30T17:48:06.000Z</time>
      </trkpt>
      <trkpt lat="45.88358" lon="-0.91422">
        <ele>8</ele>
        <time>2018-06-30T17:48:07.000Z</time>
      </trkpt>
      <trkpt lat="45.88359" lon="-0.91422">
        <ele>8</ele>
        <time>2018-06-30T17:48:08.000Z</time>
      </trkpt>
      <trkpt lat="45.8836" lon="-0.91422">
        <ele>8</ele>
        <time>2018-06-30T17:48:09.000Z</time>
      </trkpt>
      <trkpt lat="45.88361" lon="-0.91421">
        <ele>8</ele>
        <time>2018-06-30T17:48:10.000Z</time>
      </trkpt>
      <trkpt lat="45.88362" lon="-0.91421">
        <ele>8</ele>
        <time>2018-06-30T17:48:11.000Z</time>
      </trkpt>
      <trkpt lat="45.88364" lon="-0.91422">
        <ele>8</ele>
        <time>2018-06-30T17:48:12.000Z</time>
      </trkpt>
      <trkpt lat="45.88365" lon="-0.91422">
        <ele>8</ele>
        <time>2018-06-30T17:48:13.000Z</time>
      </trkpt>
      <trkpt lat="45.88366" lon="-0.91422">
        <ele>8</ele>
        <time>2018-06-30T17:48:14.000Z</time>
      </trkpt>
      <trkpt lat="45.88367" lon="-0.91421">
        <ele>7</ele>
        <time>2018-06-30T17:48:15.000Z</time>
      </trkpt>
      <trkpt lat="45.88368" lon="-0.91421">
        <ele>7</ele>
        <time>2018-06-30T17:48:16.000Z</time>
      </trkpt>
      <trkpt lat="45.88369" lon="-0.91421">
        <ele>7</ele>
        <time>2018-06-30T17:48:17.000Z</time>
      </trkpt>
      <trkpt lat="45.8837" lon="-0.91421">
        <ele>7</ele>
        <time>2018-06-30T17:48:18.000Z</time>
      </trkpt>
      <trkpt lat="45.88371" lon="-0.91421">
        <ele>7</ele>
        <time>2018-06-30T17:48:19.000Z</time>
      </trkpt>
      <trkpt lat="45.88372" lon="-0.91421">
        <ele>7</ele>
        <time>2018-06-30T17:48:20.000Z</time>
      </trkpt>
      <trkpt lat="45.88374" lon="-0.91421">
        <ele>7</ele>
        <time>2018-06-30T17:48:21.000Z</time>
      </trkpt>
      <trkpt lat="45.88375" lon="-0.91421">
        <ele>7</ele>
        <time>2018-06-30T17:48:22.000Z</time>
      </trkpt>
      <trkpt lat="45.88376" lon="-0.91421">
        <ele>7</ele>
        <time>2018-06-30T17:48:23.000Z</time>
      </trkpt>
      <trkpt lat="45.88377" lon="-0.91421">
        <ele>7</ele>
        <time>2018-06-30T17:48:24.000Z</time>
      </trkpt>
      <trkpt lat="45.88378" lon="-0.91421">
        <ele>7</ele>
        <time>2018-06-30T17:48:25.000Z</time>
      </trkpt>
      <trkpt lat="45.8838" lon="-0.91421">
        <ele>7</ele>
        <time>2018-06-30T17:48:26.000Z</time>
      </trkpt>
      <trkpt lat="45.88381" lon="-0.91421">
        <ele>7</ele>
        <time>2018-06-30T17:48:27.000Z</time>
      </trkpt>
      <trkpt lat="45.88382" lon="-0.91421">
        <ele>7</ele>
        <time>2018-06-30T17:48:28.000Z</time>
      </trkpt>
      <trkpt lat="45.88383" lon="-0.91421">
        <ele>7</ele>
        <time>2018-06-30T17:48:29.000Z</time>
      </trkpt>
      <trkpt lat="45.88384" lon="-0.91421">
        <ele>7</ele>
        <time>2018-06-30T17:48:30.000Z</time>
      </trkpt>
      <trkpt lat="45.88385" lon="-0.91421">
        <ele>7</ele>
        <time>2018-06-30T17:48:31.000Z</time>
      </trkpt>
      <trkpt lat="45.88386" lon="-0.91421">
        <ele>7</ele>
        <time>2018-06-30T17:48:32.000Z</time>
      </trkpt>
      <trkpt lat="45.88387" lon="-0.91421">
        <ele>7</ele>
        <time>2018-06-30T17:48:33.000Z</time>
      </trkpt>
      <trkpt lat="45.88388" lon="-0.91421">
        <ele>7</ele>
        <time>2018-06-30T17:48:34.000Z</time>
      </trkpt>
      <trkpt lat="45.88389" lon="-0.91421">
        <ele>7</ele>
        <time>2018-06-30T17:48:35.000Z</time>
      </trkpt>
      <trkpt lat="45.8839" lon="-0.91421">
        <ele>6</ele>
        <time>2018-06-30T17:48:36.000Z</time>
      </trkpt>
      <trkpt lat="45.88392" lon="-0.91421">
        <ele>6</ele>
        <time>2018-06-30T17:48:37.000Z</time>
      </trkpt>
      <trkpt lat="45.88393" lon="-0.91421">
        <ele>7</ele>
        <time>2018-06-30T17:48:38.000Z</time>
      </trkpt>
      <trkpt lat="45.88394" lon="-0.91421">
        <ele>6</ele>
        <time>2018-06-30T17:48:39.000Z</time>
      </trkpt>
      <trkpt lat="45.88395" lon="-0.91421">
        <ele>6</ele>
        <time>2018-06-30T17:48:40.000Z</time>
      </trkpt>
      <trkpt lat="45.88396" lon="-0.9142">
        <ele>6</ele>
        <time>2018-06-30T17:48:41.000Z</time>
      </trkpt>
      <trkpt lat="45.88397" lon="-0.9142">
        <ele>6</ele>
        <time>2018-06-30T17:48:42.000Z</time>
      </trkpt>
      <trkpt lat="45.88398" lon="-0.9142">
        <ele>6</ele>
        <time>2018-06-30T17:48:43.000Z</time>
      </trkpt>
      <trkpt lat="45.88399" lon="-0.9142">
        <ele>6</ele>
        <time>2018-06-30T17:48:44.000Z</time>
      </trkpt>
      <trkpt lat="45.884" lon="-0.9142">
        <ele>6</ele>
        <time>2018-06-30T17:48:45.000Z</time>
      </trkpt>
      <trkpt lat="45.88401" lon="-0.9142">
        <ele>6</ele>
        <time>2018-06-30T17:48:46.000Z</time>
      </trkpt>
      <trkpt lat="45.88402" lon="-0.9142">
        <ele>6</ele>
        <time>2018-06-30T17:48:47.000Z</time>
      </trkpt>
      <trkpt lat="45.88403" lon="-0.9142">
        <ele>6</ele>
        <time>2018-06-30T17:48:48.000Z</time>
      </trkpt>
      <trkpt lat="45.88404" lon="-0.9142">
        <ele>5</ele>
        <time>2018-06-30T17:48:49.000Z</time>
      </trkpt>
      <trkpt lat="45.88406" lon="-0.9142">
        <ele>5</ele>
        <time>2018-06-30T17:48:50.000Z</time>
      </trkpt>
      <trkpt lat="45.88407" lon="-0.9142">
        <ele>5</ele>
        <time>2018-06-30T17:48:51.000Z</time>
      </trkpt>
      <trkpt lat="45.88408" lon="-0.9142">
        <ele>5</ele>
        <time>2018-06-30T17:48:52.000Z</time>
      </trkpt>
      <trkpt lat="45.88409" lon="-0.9142">
        <ele>5</ele>
        <time>2018-06-30T17:48:53.000Z</time>
      </trkpt>
      <trkpt lat="45.8841" lon="-0.9142">
        <ele>5</ele>
        <time>2018-06-30T17:48:54.000Z</time>
      </trkpt>
      <trkpt lat="45.88411" lon="-0.9142">
        <ele>5</ele>
        <time>2018-06-30T17:48:55.000Z</time>
      </trkpt>
      <trkpt lat="45.88412" lon="-0.9142">
        <ele>5</ele>
        <time>2018-06-30T17:48:56.000Z</time>
      </trkpt>
      <trkpt lat="45.88413" lon="-0.9142">
        <ele>5</ele>
        <time>2018-06-30T17:48:57.000Z</time>
      </trkpt>
      <trkpt lat="45.88414" lon="-0.9142">
        <ele>5</ele>
        <time>2018-06-30T17:48:58.000Z</time>
      </trkpt>
      <trkpt lat="45.88415" lon="-0.9142">
        <ele>5</ele>
        <time>2018-06-30T17:48:59.000Z</time>
      </trkpt>
      <trkpt lat="45.88417" lon="-0.9142">
        <ele>5</ele>
        <time>2018-06-30T17:49:00.000Z</time>
      </trkpt>
      <trkpt lat="45.88418" lon="-0.9142">
        <ele>5</ele>
        <time>2018-06-30T17:49:01.000Z</time>
      </trkpt>
      <trkpt lat="45.88419" lon="-0.91419">
        <ele>4</ele>
        <time>2018-06-30T17:49:02.000Z</time>
      </trkpt>
      <trkpt lat="45.8842" lon="-0.91419">
        <ele>4</ele>
        <time>2018-06-30T17:49:03.000Z</time>
      </trkpt>
      <trkpt lat="45.88421" lon="-0.91419">
        <ele>4</ele>
        <time>2018-06-30T17:49:04.000Z</time>
      </trkpt>
      <trkpt lat="45.88422" lon="-0.91419">
        <ele>4</ele>
        <time>2018-06-30T17:49:05.000Z</time>
      </trkpt>
      <trkpt lat="45.88423" lon="-0.91419">
        <ele>4</ele>
        <time>2018-06-30T17:49:06.000Z</time>
      </trkpt>
      <trkpt lat="45.88424" lon="-0.91419">
        <ele>5</ele>
        <time>2018-06-30T17:49:07.000Z</time>
      </trkpt>
      <trkpt lat="45.88426" lon="-0.91419">
        <ele>5</ele>
        <time>2018-06-30T17:49:08.000Z</time>
      </trkpt>
      <trkpt lat="45.88427" lon="-0.9142">
        <ele>5</ele>
        <time>2018-06-30T17:49:09.000Z</time>
      </trkpt>
      <trkpt lat="45.88428" lon="-0.9142">
        <ele>5</ele>
        <time>2018-06-30T17:49:10.000Z</time>
      </trkpt>
      <trkpt lat="45.88429" lon="-0.9142">
        <ele>5</ele>
        <time>2018-06-30T17:49:11.000Z</time>
      </trkpt>
      <trkpt lat="45.8843" lon="-0.9142">
        <ele>5</ele>
        <time>2018-06-30T17:49:12.000Z</time>
      </trkpt>
      <trkpt lat="45.88431" lon="-0.9142">
        <ele>4</ele>
        <time>2018-06-30T17:49:13.000Z</time>
      </trkpt>
      <trkpt lat="45.88432" lon="-0.9142">
        <ele>4</ele>
        <time>2018-06-30T17:49:14.000Z</time>
      </trkpt>
      <trkpt lat="45.88433" lon="-0.9142">
        <ele>4</ele>
        <time>2018-06-30T17:49:15.000Z</time>
      </trkpt>
      <trkpt lat="45.88434" lon="-0.9142">
        <ele>4</ele>
        <time>2018-06-30T17:49:16.000Z</time>
      </trkpt>
      <trkpt lat="45.88435" lon="-0.9142">
        <ele>4</ele>
        <time>2018-06-30T17:49:17.000Z</time>
      </trkpt>
      <trkpt lat="45.88436" lon="-0.9142">
        <ele>4</ele>
        <time>2018-06-30T17:49:18.000Z</time>
      </trkpt>
      <trkpt lat="45.88437" lon="-0.9142">
        <ele>4</ele>
        <time>2018-06-30T17:49:19.000Z</time>
      </trkpt>
      <trkpt lat="45.88439" lon="-0.9142">
        <ele>3</ele>
        <time>2018-06-30T17:49:20.000Z</time>
      </trkpt>
      <trkpt lat="45.8844" lon="-0.9142">
        <ele>3</ele>
        <time>2018-06-30T17:49:21.000Z</time>
      </trkpt>
      <trkpt lat="45.88441" lon="-0.9142">
        <ele>3</ele>
        <time>2018-06-30T17:49:22.000Z</time>
      </trkpt>
      <trkpt lat="45.88442" lon="-0.9142">
        <ele>3</ele>
        <time>2018-06-30T17:49:23.000Z</time>
      </trkpt>
      <trkpt lat="45.88443" lon="-0.9142">
        <ele>3</ele>
        <time>2018-06-30T17:49:24.000Z</time>
      </trkpt>
      <trkpt lat="45.88444" lon="-0.9142">
        <ele>3</ele>
        <time>2018-06-30T17:49:25.000Z</time>
      </trkpt>
      <trkpt lat="45.88445" lon="-0.9142">
        <ele>3</ele>
        <time>2018-06-30T17:49:26.000Z</time>
      </trkpt>
      <trkpt lat="45.88446" lon="-0.9142">
        <ele>3</ele>
        <time>2018-06-30T17:49:27.000Z</time>
      </trkpt>
      <trkpt lat="45.88447" lon="-0.9142">
        <ele>3</ele>
        <time>2018-06-30T17:49:28.000Z</time>
      </trkpt>
      <trkpt lat="45.88448" lon="-0.9142">
        <ele>3</ele>
        <time>2018-06-30T17:49:29.000Z</time>
      </trkpt>
      <trkpt lat="45.88449" lon="-0.9142">
        <ele>3</ele>
        <time>2018-06-30T17:49:30.000Z</time>
      </trkpt>
      <trkpt lat="45.8845" lon="-0.9142">
        <ele>3</ele>
        <time>2018-06-30T17:49:31.000Z</time>
      </trkpt>
      <trkpt lat="45.88452" lon="-0.9142">
        <ele>3</ele>
        <time>2018-06-30T17:49:32.000Z</time>
      </trkpt>
      <trkpt lat="45.88453" lon="-0.9142">
        <ele>3</ele>
        <time>2018-06-30T17:49:33.000Z</time>
      </trkpt>
      <trkpt lat="45.88454" lon="-0.9142">
        <ele>3</ele>
        <time>2018-06-30T17:49:34.000Z</time>
      </trkpt>
      <trkpt lat="45.88455" lon="-0.9142">
        <ele>3</ele>
        <time>2018-06-30T17:49:35.000Z</time>
      </trkpt>
      <trkpt lat="45.88456" lon="-0.9142">
        <ele>3</ele>
        <time>2018-06-30T17:49:36.000Z</time>
      </trkpt>
      <trkpt lat="45.88457" lon="-0.9142">
        <ele>3</ele>
        <time>2018-06-30T17:49:37.000Z</time>
      </trkpt>
      <trkpt lat="45.88459" lon="-0.9142">
        <ele>3</ele>
        <time>2018-06-30T17:49:38.000Z</time>
      </trkpt>
      <trkpt lat="45.8846" lon="-0.9142">
        <ele>3</ele>
        <time>2018-06-30T17:49:39.000Z</time>
      </trkpt>
      <trkpt lat="45.88461" lon="-0.9142">
        <ele>3</ele>
        <time>2018-06-30T17:49:40.000Z</time>
      </trkpt>
      <trkpt lat="45.88462" lon="-0.9142">
        <ele>3</ele>
        <time>2018-06-30T17:49:41.000Z</time>
      </trkpt>
      <trkpt lat="45.88463" lon="-0.9142">
        <ele>3</ele>
        <time>2018-06-30T17:49:42.000Z</time>
      </trkpt>
      <trkpt lat="45.88464" lon="-0.9142">
        <ele>3</ele>
        <time>2018-06-30T17:49:43.000Z</time>
      </trkpt>
      <trkpt lat="45.88465" lon="-0.9142">
        <ele>3</ele>
        <time>2018-06-30T17:49:44.000Z</time>
      </trkpt>
      <trkpt lat="45.88466" lon="-0.9142">
        <ele>3</ele>
        <time>2018-06-30T17:49:45.000Z</time>
      </trkpt>
      <trkpt lat="45.88467" lon="-0.9142">
        <ele>3</ele>
        <time>2018-06-30T17:49:46.000Z</time>
      </trkpt>
      <trkpt lat="45.88468" lon="-0.9142">
        <ele>4</ele>
        <time>2018-06-30T17:49:47.000Z</time>
      </trkpt>
      <trkpt lat="45.8847" lon="-0.9142">
        <ele>4</ele>
        <time>2018-06-30T17:49:48.000Z</time>
      </trkpt>
      <trkpt lat="45.88471" lon="-0.9142">
        <ele>4</ele>
        <time>2018-06-30T17:49:49.000Z</time>
      </trkpt>
      <trkpt lat="45.88472" lon="-0.9142">
        <ele>4</ele>
        <time>2018-06-30T17:49:50.000Z</time>
      </trkpt>
      <trkpt lat="45.88473" lon="-0.9142">
        <ele>4</ele>
        <time>2018-06-30T17:49:51.000Z</time>
      </trkpt>
      <trkpt lat="45.88474" lon="-0.9142">
        <ele>5</ele>
        <time>2018-06-30T17:49:52.000Z</time>
      </trkpt>
      <trkpt lat="45.88475" lon="-0.9142">
        <ele>4</ele>
        <time>2018-06-30T17:49:53.000Z</time>
      </trkpt>
      <trkpt lat="45.88476" lon="-0.91419">
        <ele>4</ele>
        <time>2018-06-30T17:49:54.000Z</time>
      </trkpt>
      <trkpt lat="45.88477" lon="-0.91419">
        <ele>4</ele>
        <time>2018-06-30T17:49:55.000Z</time>
      </trkpt>
      <trkpt lat="45.88478" lon="-0.91419">
        <ele>4</ele>
        <time>2018-06-30T17:49:56.000Z</time>
      </trkpt>
      <trkpt lat="45.88479" lon="-0.91419">
        <ele>3</ele>
        <time>2018-06-30T17:49:57.000Z</time>
      </trkpt>
      <trkpt lat="45.88481" lon="-0.91419">
        <ele>3</ele>
        <time>2018-06-30T17:49:58.000Z</time>
      </trkpt>
      <trkpt lat="45.88482" lon="-0.91419">
        <ele>3</ele>
        <time>2018-06-30T17:49:59.000Z</time>
      </trkpt>
      <trkpt lat="45.88483" lon="-0.91419">
        <ele>4</ele>
        <time>2018-06-30T17:50:00.000Z</time>
      </trkpt>
      <trkpt lat="45.88484" lon="-0.91419">
        <ele>3</ele>
        <time>2018-06-30T17:50:01.000Z</time>
      </trkpt>
      <trkpt lat="45.88485" lon="-0.91419">
        <ele>4</ele>
        <time>2018-06-30T17:50:02.000Z</time>
      </trkpt>
      <trkpt lat="45.88487" lon="-0.91419">
        <ele>4</ele>
        <time>2018-06-30T17:50:03.000Z</time>
      </trkpt>
      <trkpt lat="45.88488" lon="-0.91419">
        <ele>4</ele>
        <time>2018-06-30T17:50:04.000Z</time>
      </trkpt>
      <trkpt lat="45.88489" lon="-0.9142">
        <ele>3</ele>
        <time>2018-06-30T17:50:05.000Z</time>
      </trkpt>
      <trkpt lat="45.8849" lon="-0.9142">
        <ele>3</ele>
        <time>2018-06-30T17:50:06.000Z</time>
      </trkpt>
      <trkpt lat="45.88491" lon="-0.9142">
        <ele>3</ele>
        <time>2018-06-30T17:50:07.000Z</time>
      </trkpt>
      <trkpt lat="45.88492" lon="-0.9142">
        <ele>3</ele>
        <time>2018-06-30T17:50:08.000Z</time>
      </trkpt>
      <trkpt lat="45.88494" lon="-0.9142">
        <ele>3</ele>
        <time>2018-06-30T17:50:09.000Z</time>
      </trkpt>
      <trkpt lat="45.88495" lon="-0.9142">
        <ele>3</ele>
        <time>2018-06-30T17:50:10.000Z</time>
      </trkpt>
      <trkpt lat="45.88496" lon="-0.9142">
        <ele>3</ele>
        <time>2018-06-30T17:50:11.000Z</time>
      </trkpt>
      <trkpt lat="45.88497" lon="-0.9142">
        <ele>4</ele>
        <time>2018-06-30T17:50:12.000Z</time>
      </trkpt>
      <trkpt lat="45.88498" lon="-0.9142">
        <ele>3</ele>
        <time>2018-06-30T17:50:13.000Z</time>
      </trkpt>
      <trkpt lat="45.88499" lon="-0.9142">
        <ele>3</ele>
        <time>2018-06-30T17:50:14.000Z</time>
      </trkpt>
      <trkpt lat="45.885" lon="-0.9142">
        <ele>3</ele>
        <time>2018-06-30T17:50:15.000Z</time>
      </trkpt>
      <trkpt lat="45.88501" lon="-0.9142">
        <ele>3</ele>
        <time>2018-06-30T17:50:16.000Z</time>
      </trkpt>
      <trkpt lat="45.88502" lon="-0.9142">
        <ele>3</ele>
        <time>2018-06-30T17:50:17.000Z</time>
      </trkpt>
      <trkpt lat="45.88503" lon="-0.9142">
        <ele>3</ele>
        <time>2018-06-30T17:50:18.000Z</time>
      </trkpt>
      <trkpt lat="45.88504" lon="-0.9142">
        <ele>3</ele>
        <time>2018-06-30T17:50:19.000Z</time>
      </trkpt>
      <trkpt lat="45.88505" lon="-0.9142">
        <ele>3</ele>
        <time>2018-06-30T17:50:20.000Z</time>
      </trkpt>
      <trkpt lat="45.88506" lon="-0.9142">
        <ele>3</ele>
        <time>2018-06-30T17:50:21.000Z</time>
      </trkpt>
      <trkpt lat="45.88507" lon="-0.9142">
        <ele>3</ele>
        <time>2018-06-30T17:50:22.000Z</time>
      </trkpt>
      <trkpt lat="45.88509" lon="-0.9142">
        <ele>3</ele>
        <time>2018-06-30T17:50:23.000Z</time>
      </trkpt>
      <trkpt lat="45.8851" lon="-0.9142">
        <ele>3</ele>
        <time>2018-06-30T17:50:24.000Z</time>
      </trkpt>
      <trkpt lat="45.88511" lon="-0.9142">
        <ele>3</ele>
        <time>2018-06-30T17:50:25.000Z</time>
      </trkpt>
      <trkpt lat="45.88512" lon="-0.9142">
        <ele>3</ele>
        <time>2018-06-30T17:50:26.000Z</time>
      </trkpt>
      <trkpt lat="45.88513" lon="-0.9142">
        <ele>3</ele>
        <time>2018-06-30T17:50:27.000Z</time>
      </trkpt>
      <trkpt lat="45.88514" lon="-0.9142">
        <ele>3</ele>
        <time>2018-06-30T17:50:28.000Z</time>
      </trkpt>
      <trkpt lat="45.88516" lon="-0.9142">
        <ele>3</ele>
        <time>2018-06-30T17:50:29.000Z</time>
      </trkpt>
      <trkpt lat="45.88517" lon="-0.9142">
        <ele>3</ele>
        <time>2018-06-30T17:50:30.000Z</time>
      </trkpt>
      <trkpt lat="45.88518" lon="-0.9142">
        <ele>3</ele>
        <time>2018-06-30T17:50:31.000Z</time>
      </trkpt>
      <trkpt lat="45.88519" lon="-0.9142">
        <ele>2</ele>
        <time>2018-06-30T17:50:32.000Z</time>
      </trkpt>
      <trkpt lat="45.8852" lon="-0.91421">
        <ele>2</ele>
        <time>2018-06-30T17:50:33.000Z</time>
      </trkpt>
      <trkpt lat="45.88521" lon="-0.91422">
        <ele>2</ele>
        <time>2018-06-30T17:50:34.000Z</time>
      </trkpt>
      <trkpt lat="45.88522" lon="-0.91423">
        <ele>2</ele>
        <time>2018-06-30T17:50:35.000Z</time>
      </trkpt>
      <trkpt lat="45.88523" lon="-0.91423">
        <ele>3</ele>
        <time>2018-06-30T17:50:36.000Z</time>
      </trkpt>
      <trkpt lat="45.88524" lon="-0.91424">
        <ele>2</ele>
        <time>2018-06-30T17:50:37.000Z</time>
      </trkpt>
      <trkpt lat="45.88524" lon="-0.91424">
        <ele>2</ele>
        <time>2018-06-30T17:50:38.000Z</time>
      </trkpt>
      <trkpt lat="45.88525" lon="-0.91424">
        <ele>3</ele>
        <time>2018-06-30T17:50:39.000Z</time>
      </trkpt>
      <trkpt lat="45.88526" lon="-0.91424">
        <ele>3</ele>
        <time>2018-06-30T17:50:40.000Z</time>
      </trkpt>
      <trkpt lat="45.88526" lon="-0.91424">
        <ele>3</ele>
        <time>2018-06-30T17:50:41.000Z</time>
      </trkpt>
      <trkpt lat="45.88526" lon="-0.91425">
        <ele>3</ele>
        <time>2018-06-30T17:50:42.000Z</time>
      </trkpt>
      <trkpt lat="45.88527" lon="-0.91425">
        <ele>3</ele>
        <time>2018-06-30T17:50:43.000Z</time>
      </trkpt>
      <trkpt lat="45.88528" lon="-0.91425">
        <ele>3</ele>
        <time>2018-06-30T17:50:44.000Z</time>
      </trkpt>
      <trkpt lat="45.88528" lon="-0.91424">
        <ele>3</ele>
        <time>2018-06-30T17:50:45.000Z</time>
      </trkpt>
      <trkpt lat="45.88529" lon="-0.91423">
        <ele>3</ele>
        <time>2018-06-30T17:50:46.000Z</time>
      </trkpt>
      <trkpt lat="45.8853" lon="-0.91423">
        <ele>3</ele>
        <time>2018-06-30T17:50:47.000Z</time>
      </trkpt>
      <trkpt lat="45.88531" lon="-0.91422">
        <ele>3</ele>
        <time>2018-06-30T17:50:48.000Z</time>
      </trkpt>
      <trkpt lat="45.88532" lon="-0.91422">
        <ele>3</ele>
        <time>2018-06-30T17:50:49.000Z</time>
      </trkpt>
      <trkpt lat="45.88533" lon="-0.91422">
        <ele>3</ele>
        <time>2018-06-30T17:50:50.000Z</time>
      </trkpt>
      <trkpt lat="45.88534" lon="-0.91421">
        <ele>3</ele>
        <time>2018-06-30T17:50:51.000Z</time>
      </trkpt>
      <trkpt lat="45.88535" lon="-0.91421">
        <ele>3</ele>
        <time>2018-06-30T17:50:52.000Z</time>
      </trkpt>
      <trkpt lat="45.88536" lon="-0.91421">
        <ele>3</ele>
        <time>2018-06-30T17:50:53.000Z</time>
      </trkpt>
      <trkpt lat="45.88538" lon="-0.91421">
        <ele>3</ele>
        <time>2018-06-30T17:50:54.000Z</time>
      </trkpt>
      <trkpt lat="45.88539" lon="-0.91421">
        <ele>3</ele>
        <time>2018-06-30T17:50:55.000Z</time>
      </trkpt>
      <trkpt lat="45.8854" lon="-0.91421">
        <ele>2</ele>
        <time>2018-06-30T17:50:56.000Z</time>
      </trkpt>
      <trkpt lat="45.88541" lon="-0.91421">
        <ele>2</ele>
        <time>2018-06-30T17:50:57.000Z</time>
      </trkpt>
      <trkpt lat="45.88542" lon="-0.91421">
        <ele>2</ele>
        <time>2018-06-30T17:50:58.000Z</time>
      </trkpt>
      <trkpt lat="45.88543" lon="-0.91421">
        <ele>2</ele>
        <time>2018-06-30T17:50:59.000Z</time>
      </trkpt>
      <trkpt lat="45.88544" lon="-0.91421">
        <ele>2</ele>
        <time>2018-06-30T17:51:00.000Z</time>
      </trkpt>
      <trkpt lat="45.88545" lon="-0.91421">
        <ele>2</ele>
        <time>2018-06-30T17:51:01.000Z</time>
      </trkpt>
      <trkpt lat="45.88547" lon="-0.91421">
        <ele>2</ele>
        <time>2018-06-30T17:51:02.000Z</time>
      </trkpt>
      <trkpt lat="45.88548" lon="-0.91421">
        <ele>2</ele>
        <time>2018-06-30T17:51:03.000Z</time>
      </trkpt>
      <trkpt lat="45.88549" lon="-0.91421">
        <ele>2</ele>
        <time>2018-06-30T17:51:04.000Z</time>
      </trkpt>
      <trkpt lat="45.8855" lon="-0.91421">
        <ele>2</ele>
        <time>2018-06-30T17:51:05.000Z</time>
      </trkpt>
      <trkpt lat="45.88551" lon="-0.91421">
        <ele>3</ele>
        <time>2018-06-30T17:51:06.000Z</time>
      </trkpt>
      <trkpt lat="45.88553" lon="-0.91421">
        <ele>3</ele>
        <time>2018-06-30T17:51:07.000Z</time>
      </trkpt>
      <trkpt lat="45.88554" lon="-0.91421">
        <ele>3</ele>
        <time>2018-06-30T17:51:08.000Z</time>
      </trkpt>
      <trkpt lat="45.88555" lon="-0.91421">
        <ele>3</ele>
        <time>2018-06-30T17:51:09.000Z</time>
      </trkpt>
      <trkpt lat="45.88556" lon="-0.91421">
        <ele>3</ele>
        <time>2018-06-30T17:51:10.000Z</time>
      </trkpt>
      <trkpt lat="45.88557" lon="-0.91421">
        <ele>3</ele>
        <time>2018-06-30T17:51:11.000Z</time>
      </trkpt>
      <trkpt lat="45.88559" lon="-0.91421">
        <ele>3</ele>
        <time>2018-06-30T17:51:12.000Z</time>
      </trkpt>
      <trkpt lat="45.8856" lon="-0.91421">
        <ele>3</ele>
        <time>2018-06-30T17:51:13.000Z</time>
      </trkpt>
      <trkpt lat="45.88561" lon="-0.91421">
        <ele>3</ele>
        <time>2018-06-30T17:51:14.000Z</time>
      </trkpt>
      <trkpt lat="45.88562" lon="-0.91421">
        <ele>3</ele>
        <time>2018-06-30T17:51:15.000Z</time>
      </trkpt>
      <trkpt lat="45.88563" lon="-0.91421">
        <ele>3</ele>
        <time>2018-06-30T17:51:16.000Z</time>
      </trkpt>
      <trkpt lat="45.88565" lon="-0.91421">
        <ele>3</ele>
        <time>2018-06-30T17:51:17.000Z</time>
      </trkpt>
      <trkpt lat="45.88566" lon="-0.91421">
        <ele>3</ele>
        <time>2018-06-30T17:51:18.000Z</time>
      </trkpt>
      <trkpt lat="45.88567" lon="-0.91421">
        <ele>3</ele>
        <time>2018-06-30T17:51:19.000Z</time>
      </trkpt>
      <trkpt lat="45.88568" lon="-0.91421">
        <ele>3</ele>
        <time>2018-06-30T17:51:20.000Z</time>
      </trkpt>
      <trkpt lat="45.88569" lon="-0.91421">
        <ele>3</ele>
        <time>2018-06-30T17:51:21.000Z</time>
      </trkpt>
      <trkpt lat="45.8857" lon="-0.9142">
        <ele>3</ele>
        <time>2018-06-30T17:51:22.000Z</time>
      </trkpt>
      <trkpt lat="45.88572" lon="-0.9142">
        <ele>3</ele>
        <time>2018-06-30T17:51:23.000Z</time>
      </trkpt>
      <trkpt lat="45.88573" lon="-0.9142">
        <ele>3</ele>
        <time>2018-06-30T17:51:24.000Z</time>
      </trkpt>
      <trkpt lat="45.88574" lon="-0.9142">
        <ele>3</ele>
        <time>2018-06-30T17:51:25.000Z</time>
      </trkpt>
      <trkpt lat="45.88575" lon="-0.9142">
        <ele>3</ele>
        <time>2018-06-30T17:51:26.000Z</time>
      </trkpt>
      <trkpt lat="45.88577" lon="-0.9142">
        <ele>3</ele>
        <time>2018-06-30T17:51:27.000Z</time>
      </trkpt>
      <trkpt lat="45.88578" lon="-0.9142">
        <ele>3</ele>
        <time>2018-06-30T17:51:28.000Z</time>
      </trkpt>
      <trkpt lat="45.88579" lon="-0.91421">
        <ele>3</ele>
        <time>2018-06-30T17:51:29.000Z</time>
      </trkpt>
      <trkpt lat="45.8858" lon="-0.91421">
        <ele>3</ele>
        <time>2018-06-30T17:51:30.000Z</time>
      </trkpt>
      <trkpt lat="45.88582" lon="-0.91421">
        <ele>3</ele>
        <time>2018-06-30T17:51:31.000Z</time>
      </trkpt>
      <trkpt lat="45.88583" lon="-0.91421">
        <ele>3</ele>
        <time>2018-06-30T17:51:32.000Z</time>
      </trkpt>
      <trkpt lat="45.88584" lon="-0.91421">
        <ele>3</ele>
        <time>2018-06-30T17:51:33.000Z</time>
      </trkpt>
      <trkpt lat="45.88585" lon="-0.91421">
        <ele>3</ele>
        <time>2018-06-30T17:51:34.000Z</time>
      </trkpt>
      <trkpt lat="45.88587" lon="-0.9142">
        <ele>3</ele>
        <time>2018-06-30T17:51:35.000Z</time>
      </trkpt>
      <trkpt lat="45.88588" lon="-0.9142">
        <ele>3</ele>
        <time>2018-06-30T17:51:36.000Z</time>
      </trkpt>
      <trkpt lat="45.88589" lon="-0.9142">
        <ele>3</ele>
        <time>2018-06-30T17:51:37.000Z</time>
      </trkpt>
      <trkpt lat="45.8859" lon="-0.9142">
        <ele>3</ele>
        <time>2018-06-30T17:51:38.000Z</time>
      </trkpt>
      <trkpt lat="45.88592" lon="-0.9142">
        <ele>3</ele>
        <time>2018-06-30T17:51:39.000Z</time>
      </trkpt>
      <trkpt lat="45.88593" lon="-0.9142">
        <ele>3</ele>
        <time>2018-06-30T17:51:40.000Z</time>
      </trkpt>
      <trkpt lat="45.88594" lon="-0.9142">
        <ele>3</ele>
        <time>2018-06-30T17:51:41.000Z</time>
      </trkpt>
      <trkpt lat="45.88595" lon="-0.9142">
        <ele>3</ele>
        <time>2018-06-30T17:51:42.000Z</time>
      </trkpt>
      <trkpt lat="45.88596" lon="-0.9142">
        <ele>3</ele>
        <time>2018-06-30T17:51:43.000Z</time>
      </trkpt>
      <trkpt lat="45.88598" lon="-0.9142">
        <ele>4</ele>
        <time>2018-06-30T17:51:44.000Z</time>
      </trkpt>
      <trkpt lat="45.88599" lon="-0.9142">
        <ele>4</ele>
        <time>2018-06-30T17:51:45.000Z</time>
      </trkpt>
      <trkpt lat="45.88599" lon="-0.91419">
        <ele>4</ele>
        <time>2018-06-30T17:51:46.000Z</time>
      </trkpt>
      <trkpt lat="45.88601" lon="-0.91419">
        <ele>4</ele>
        <time>2018-06-30T17:51:47.000Z</time>
      </trkpt>
      <trkpt lat="45.88602" lon="-0.91419">
        <ele>4</ele>
        <time>2018-06-30T17:51:48.000Z</time>
      </trkpt>
      <trkpt lat="45.88603" lon="-0.9142">
        <ele>4</ele>
        <time>2018-06-30T17:51:49.000Z</time>
      </trkpt>
      <trkpt lat="45.88604" lon="-0.91419">
        <ele>3</ele>
        <time>2018-06-30T17:51:50.000Z</time>
      </trkpt>
      <trkpt lat="45.88605" lon="-0.91419">
        <ele>4</ele>
        <time>2018-06-30T17:51:51.000Z</time>
      </trkpt>
      <trkpt lat="45.88606" lon="-0.91419">
        <ele>4</ele>
        <time>2018-06-30T17:51:52.000Z</time>
      </trkpt>
      <trkpt lat="45.88607" lon="-0.9142">
        <ele>4</ele>
        <time>2018-06-30T17:51:53.000Z</time>
      </trkpt>
      <trkpt lat="45.88609" lon="-0.9142">
        <ele>4</ele>
        <time>2018-06-30T17:51:54.000Z</time>
      </trkpt>
      <trkpt lat="45.8861" lon="-0.9142">
        <ele>3</ele>
        <time>2018-06-30T17:51:55.000Z</time>
      </trkpt>
      <trkpt lat="45.88611" lon="-0.9142">
        <ele>3</ele>
        <time>2018-06-30T17:51:56.000Z</time>
      </trkpt>
      <trkpt lat="45.88612" lon="-0.9142">
        <ele>4</ele>
        <time>2018-06-30T17:51:57.000Z</time>
      </trkpt>
      <trkpt lat="45.88614" lon="-0.9142">
        <ele>4</ele>
        <time>2018-06-30T17:51:58.000Z</time>
      </trkpt>
      <trkpt lat="45.88615" lon="-0.91419">
        <ele>4</ele>
        <time>2018-06-30T17:51:59.000Z</time>
      </trkpt>
      <trkpt lat="45.88616" lon="-0.91419">
        <ele>3</ele>
        <time>2018-06-30T17:52:00.000Z</time>
      </trkpt>
      <trkpt lat="45.88617" lon="-0.91419">
        <ele>3</ele>
        <time>2018-06-30T17:52:01.000Z</time>
      </trkpt>
      <trkpt lat="45.88618" lon="-0.91419">
        <ele>3</ele>
        <time>2018-06-30T17:52:02.000Z</time>
      </trkpt>
      <trkpt lat="45.8862" lon="-0.91419">
        <ele>3</ele>
        <time>2018-06-30T17:52:03.000Z</time>
      </trkpt>
      <trkpt lat="45.88621" lon="-0.91419">
        <ele>3</ele>
        <time>2018-06-30T17:52:04.000Z</time>
      </trkpt>
      <trkpt lat="45.88622" lon="-0.91419">
        <ele>2</ele>
        <time>2018-06-30T17:52:05.000Z</time>
      </trkpt>
      <trkpt lat="45.88623" lon="-0.91419">
        <ele>2</ele>
        <time>2018-06-30T17:52:06.000Z</time>
      </trkpt>
      <trkpt lat="45.88624" lon="-0.91419">
        <ele>2</ele>
        <time>2018-06-30T17:52:07.000Z</time>
      </trkpt>
      <trkpt lat="45.88625" lon="-0.91419">
        <ele>2</ele>
        <time>2018-06-30T17:52:08.000Z</time>
      </trkpt>
      <trkpt lat="45.88626" lon="-0.91419">
        <ele>2</ele>
        <time>2018-06-30T17:52:09.000Z</time>
      </trkpt>
      <trkpt lat="45.88627" lon="-0.91419">
        <ele>2</ele>
        <time>2018-06-30T17:52:10.000Z</time>
      </trkpt>
      <trkpt lat="45.88628" lon="-0.91419">
        <ele>2</ele>
        <time>2018-06-30T17:52:11.000Z</time>
      </trkpt>
      <trkpt lat="45.8863" lon="-0.91419">
        <ele>2</ele>
        <time>2018-06-30T17:52:12.000Z</time>
      </trkpt>
      <trkpt lat="45.88631" lon="-0.91419">
        <ele>2</ele>
        <time>2018-06-30T17:52:13.000Z</time>
      </trkpt>
      <trkpt lat="45.88632" lon="-0.91419">
        <ele>3</ele>
        <time>2018-06-30T17:52:14.000Z</time>
      </trkpt>
      <trkpt lat="45.88633" lon="-0.91419">
        <ele>3</ele>
        <time>2018-06-30T17:52:15.000Z</time>
      </trkpt>
      <trkpt lat="45.88634" lon="-0.91419">
        <ele>3</ele>
        <time>2018-06-30T17:52:16.000Z</time>
      </trkpt>
      <trkpt lat="45.88635" lon="-0.91419">
        <ele>3</ele>
        <time>2018-06-30T17:52:17.000Z</time>
      </trkpt>
      <trkpt lat="45.88637" lon="-0.91418">
        <ele>3</ele>
        <time>2018-06-30T17:52:18.000Z</time>
      </trkpt>
      <trkpt lat="45.88638" lon="-0.91418">
        <ele>3</ele>
        <time>2018-06-30T17:52:19.000Z</time>
      </trkpt>
      <trkpt lat="45.88639" lon="-0.91418">
        <ele>2</ele>
        <time>2018-06-30T17:52:20.000Z</time>
      </trkpt>
      <trkpt lat="45.8864" lon="-0.91418">
        <ele>2</ele>
        <time>2018-06-30T17:52:21.000Z</time>
      </trkpt>
      <trkpt lat="45.88641" lon="-0.91418">
        <ele>3</ele>
        <time>2018-06-30T17:52:22.000Z</time>
      </trkpt>
      <trkpt lat="45.88643" lon="-0.91418">
        <ele>2</ele>
        <time>2018-06-30T17:52:23.000Z</time>
      </trkpt>
      <trkpt lat="45.88644" lon="-0.91418">
        <ele>2</ele>
        <time>2018-06-30T17:52:24.000Z</time>
      </trkpt>
      <trkpt lat="45.88646" lon="-0.91417">
        <ele>2</ele>
        <time>2018-06-30T17:52:25.000Z</time>
      </trkpt>
      <trkpt lat="45.88647" lon="-0.91417">
        <ele>2</ele>
        <time>2018-06-30T17:52:26.000Z</time>
      </trkpt>
      <trkpt lat="45.88648" lon="-0.91417">
        <ele>2</ele>
        <time>2018-06-30T17:52:27.000Z</time>
      </trkpt>
      <trkpt lat="45.88649" lon="-0.91417">
        <ele>2</ele>
        <time>2018-06-30T17:52:28.000Z</time>
      </trkpt>
      <trkpt lat="45.8865" lon="-0.91417">
        <ele>2</ele>
        <time>2018-06-30T17:52:29.000Z</time>
      </trkpt>
      <trkpt lat="45.88652" lon="-0.91417">
        <ele>2</ele>
        <time>2018-06-30T17:52:30.000Z</time>
      </trkpt>
      <trkpt lat="45.88653" lon="-0.91417">
        <ele>2</ele>
        <time>2018-06-30T17:52:31.000Z</time>
      </trkpt>
      <trkpt lat="45.88654" lon="-0.91417">
        <ele>2</ele>
        <time>2018-06-30T17:52:32.000Z</time>
      </trkpt>
      <trkpt lat="45.88655" lon="-0.91417">
        <ele>2</ele>
        <time>2018-06-30T17:52:33.000Z</time>
      </trkpt>
      <trkpt lat="45.88657" lon="-0.91417">
        <ele>2</ele>
        <time>2018-06-30T17:52:34.000Z</time>
      </trkpt>
      <trkpt lat="45.88658" lon="-0.91416">
        <ele>2</ele>
        <time>2018-06-30T17:52:35.000Z</time>
      </trkpt>
      <trkpt lat="45.88659" lon="-0.91416">
        <ele>2</ele>
        <time>2018-06-30T17:52:36.000Z</time>
      </trkpt>
      <trkpt lat="45.88661" lon="-0.91416">
        <ele>2</ele>
        <time>2018-06-30T17:52:37.000Z</time>
      </trkpt>
      <trkpt lat="45.88662" lon="-0.91416">
        <ele>2</ele>
        <time>2018-06-30T17:52:38.000Z</time>
      </trkpt>
      <trkpt lat="45.88663" lon="-0.91416">
        <ele>2</ele>
        <time>2018-06-30T17:52:39.000Z</time>
      </trkpt>
      <trkpt lat="45.88664" lon="-0.91416">
        <ele>2</ele>
        <time>2018-06-30T17:52:40.000Z</time>
      </trkpt>
      <trkpt lat="45.88666" lon="-0.91416">
        <ele>2</ele>
        <time>2018-06-30T17:52:41.000Z</time>
      </trkpt>
      <trkpt lat="45.88667" lon="-0.91416">
        <ele>2</ele>
        <time>2018-06-30T17:52:42.000Z</time>
      </trkpt>
      <trkpt lat="45.88668" lon="-0.91415">
        <ele>2</ele>
        <time>2018-06-30T17:52:43.000Z</time>
      </trkpt>
      <trkpt lat="45.88669" lon="-0.91415">
        <ele>2</ele>
        <time>2018-06-30T17:52:44.000Z</time>
      </trkpt>
      <trkpt lat="45.8867" lon="-0.91415">
        <ele>2</ele>
        <time>2018-06-30T17:52:45.000Z</time>
      </trkpt>
      <trkpt lat="45.88672" lon="-0.91416">
        <ele>2</ele>
        <time>2018-06-30T17:52:46.000Z</time>
      </trkpt>
      <trkpt lat="45.88673" lon="-0.91416">
        <ele>3</ele>
        <time>2018-06-30T17:52:47.000Z</time>
      </trkpt>
      <trkpt lat="45.88674" lon="-0.91416">
        <ele>2</ele>
        <time>2018-06-30T17:52:48.000Z</time>
      </trkpt>
      <trkpt lat="45.88675" lon="-0.91416">
        <ele>2</ele>
        <time>2018-06-30T17:52:49.000Z</time>
      </trkpt>
      <trkpt lat="45.88677" lon="-0.91416">
        <ele>2</ele>
        <time>2018-06-30T17:52:50.000Z</time>
      </trkpt>
      <trkpt lat="45.88678" lon="-0.91415">
        <ele>2</ele>
        <time>2018-06-30T17:52:51.000Z</time>
      </trkpt>
      <trkpt lat="45.88679" lon="-0.91415">
        <ele>2</ele>
        <time>2018-06-30T17:52:52.000Z</time>
      </trkpt>
      <trkpt lat="45.88681" lon="-0.91415">
        <ele>2</ele>
        <time>2018-06-30T17:52:53.000Z</time>
      </trkpt>
      <trkpt lat="45.88682" lon="-0.91415">
        <ele>2</ele>
        <time>2018-06-30T17:52:54.000Z</time>
      </trkpt>
      <trkpt lat="45.88683" lon="-0.91415">
        <ele>2</ele>
        <time>2018-06-30T17:52:55.000Z</time>
      </trkpt>
      <trkpt lat="45.88684" lon="-0.91415">
        <ele>2</ele>
        <time>2018-06-30T17:52:56.000Z</time>
      </trkpt>
      <trkpt lat="45.88686" lon="-0.91415">
        <ele>2</ele>
        <time>2018-06-30T17:52:57.000Z</time>
      </trkpt>
      <trkpt lat="45.88687" lon="-0.91415">
        <ele>2</ele>
        <time>2018-06-30T17:52:58.000Z</time>
      </trkpt>
      <trkpt lat="45.88688" lon="-0.91415">
        <ele>2</ele>
        <time>2018-06-30T17:52:59.000Z</time>
      </trkpt>
      <trkpt lat="45.8869" lon="-0.91415">
        <ele>2</ele>
        <time>2018-06-30T17:53:00.000Z</time>
      </trkpt>
      <trkpt lat="45.88691" lon="-0.91415">
        <ele>2</ele>
        <time>2018-06-30T17:53:01.000Z</time>
      </trkpt>
      <trkpt lat="45.88693" lon="-0.91416">
        <ele>2</ele>
        <time>2018-06-30T17:53:02.000Z</time>
      </trkpt>
      <trkpt lat="45.88694" lon="-0.91416">
        <ele>2</ele>
        <time>2018-06-30T17:53:03.000Z</time>
      </trkpt>
      <trkpt lat="45.88695" lon="-0.91416">
        <ele>2</ele>
        <time>2018-06-30T17:53:04.000Z</time>
      </trkpt>
      <trkpt lat="45.88696" lon="-0.91416">
        <ele>2</ele>
        <time>2018-06-30T17:53:05.000Z</time>
      </trkpt>
      <trkpt lat="45.88697" lon="-0.91417">
        <ele>2</ele>
        <time>2018-06-30T17:53:06.000Z</time>
      </trkpt>
      <trkpt lat="45.88699" lon="-0.91417">
        <ele>2</ele>
        <time>2018-06-30T17:53:07.000Z</time>
      </trkpt>
      <trkpt lat="45.887" lon="-0.91417">
        <ele>2</ele>
        <time>2018-06-30T17:53:08.000Z</time>
      </trkpt>
      <trkpt lat="45.88701" lon="-0.91417">
        <ele>2</ele>
        <time>2018-06-30T17:53:09.000Z</time>
      </trkpt>
      <trkpt lat="45.88702" lon="-0.91417">
        <ele>2</ele>
        <time>2018-06-30T17:53:10.000Z</time>
      </trkpt>
      <trkpt lat="45.88704" lon="-0.91418">
        <ele>2</ele>
        <time>2018-06-30T17:53:11.000Z</time>
      </trkpt>
      <trkpt lat="45.88705" lon="-0.91418">
        <ele>2</ele>
        <time>2018-06-30T17:53:12.000Z</time>
      </trkpt>
      <trkpt lat="45.88706" lon="-0.91419">
        <ele>2</ele>
        <time>2018-06-30T17:53:13.000Z</time>
      </trkpt>
      <trkpt lat="45.88707" lon="-0.91419">
        <ele>2</ele>
        <time>2018-06-30T17:53:14.000Z</time>
      </trkpt>
      <trkpt lat="45.88708" lon="-0.9142">
        <ele>3</ele>
        <time>2018-06-30T17:53:15.000Z</time>
      </trkpt>
      <trkpt lat="45.88709" lon="-0.9142">
        <ele>3</ele>
        <time>2018-06-30T17:53:16.000Z</time>
      </trkpt>
      <trkpt lat="45.8871" lon="-0.91421">
        <ele>3</ele>
        <time>2018-06-30T17:53:17.000Z</time>
      </trkpt>
      <trkpt lat="45.88711" lon="-0.91421">
        <ele>2</ele>
        <time>2018-06-30T17:53:18.000Z</time>
      </trkpt>
      <trkpt lat="45.88713" lon="-0.91422">
        <ele>3</ele>
        <time>2018-06-30T17:53:19.000Z</time>
      </trkpt>
      <trkpt lat="45.88714" lon="-0.91423">
        <ele>3</ele>
        <time>2018-06-30T17:53:20.000Z</time>
      </trkpt>
      <trkpt lat="45.88715" lon="-0.91424">
        <ele>3</ele>
        <time>2018-06-30T17:53:21.000Z</time>
      </trkpt>
      <trkpt lat="45.88716" lon="-0.91425">
        <ele>3</ele>
        <time>2018-06-30T17:53:22.000Z</time>
      </trkpt>
      <trkpt lat="45.88717" lon="-0.91425">
        <ele>3</ele>
        <time>2018-06-30T17:53:23.000Z</time>
      </trkpt>
      <trkpt lat="45.88718" lon="-0.91426">
        <ele>3</ele>
        <time>2018-06-30T17:53:24.000Z</time>
      </trkpt>
      <trkpt lat="45.8872" lon="-0.91427">
        <ele>3</ele>
        <time>2018-06-30T17:53:25.000Z</time>
      </trkpt>
      <trkpt lat="45.88721" lon="-0.91427">
        <ele>3</ele>
        <time>2018-06-30T17:53:26.000Z</time>
      </trkpt>
      <trkpt lat="45.88722" lon="-0.91428">
        <ele>4</ele>
        <time>2018-06-30T17:53:27.000Z</time>
      </trkpt>
      <trkpt lat="45.88723" lon="-0.91429">
        <ele>4</ele>
        <time>2018-06-30T17:53:28.000Z</time>
      </trkpt>
      <trkpt lat="45.88724" lon="-0.91429">
        <ele>4</ele>
        <time>2018-06-30T17:53:29.000Z</time>
      </trkpt>
      <trkpt lat="45.88725" lon="-0.9143">
        <ele>4</ele>
        <time>2018-06-30T17:53:30.000Z</time>
      </trkpt>
      <trkpt lat="45.88726" lon="-0.91431">
        <ele>4</ele>
        <time>2018-06-30T17:53:31.000Z</time>
      </trkpt>
      <trkpt lat="45.88727" lon="-0.91432">
        <ele>5</ele>
        <time>2018-06-30T17:53:32.000Z</time>
      </trkpt>
      <trkpt lat="45.88728" lon="-0.91433">
        <ele>6</ele>
        <time>2018-06-30T17:53:33.000Z</time>
      </trkpt>
      <trkpt lat="45.8873" lon="-0.91434">
        <ele>6</ele>
        <time>2018-06-30T17:53:34.000Z</time>
      </trkpt>
      <trkpt lat="45.88731" lon="-0.91434">
        <ele>6</ele>
        <time>2018-06-30T17:53:35.000Z</time>
      </trkpt>
      <trkpt lat="45.88732" lon="-0.91435">
        <ele>6</ele>
        <time>2018-06-30T17:53:36.000Z</time>
      </trkpt>
      <trkpt lat="45.88733" lon="-0.91436">
        <ele>7</ele>
        <time>2018-06-30T17:53:37.000Z</time>
      </trkpt>
      <trkpt lat="45.88734" lon="-0.91438">
        <ele>7</ele>
        <time>2018-06-30T17:53:38.000Z</time>
      </trkpt>
      <trkpt lat="45.88735" lon="-0.91439">
        <ele>7</ele>
        <time>2018-06-30T17:53:39.000Z</time>
      </trkpt>
      <trkpt lat="45.88736" lon="-0.9144">
        <ele>7</ele>
        <time>2018-06-30T17:53:40.000Z</time>
      </trkpt>
      <trkpt lat="45.88737" lon="-0.91441">
        <ele>8</ele>
        <time>2018-06-30T17:53:41.000Z</time>
      </trkpt>
      <trkpt lat="45.88738" lon="-0.91442">
        <ele>8</ele>
        <time>2018-06-30T17:53:42.000Z</time>
      </trkpt>
      <trkpt lat="45.88739" lon="-0.91443">
        <ele>8</ele>
        <time>2018-06-30T17:53:43.000Z</time>
      </trkpt>
      <trkpt lat="45.8874" lon="-0.91444">
        <ele>8</ele>
        <time>2018-06-30T17:53:44.000Z</time>
      </trkpt>
      <trkpt lat="45.88741" lon="-0.91445">
        <ele>8</ele>
        <time>2018-06-30T17:53:45.000Z</time>
      </trkpt>
      <trkpt lat="45.88742" lon="-0.91446">
        <ele>8</ele>
        <time>2018-06-30T17:53:46.000Z</time>
      </trkpt>
      <trkpt lat="45.88743" lon="-0.91447">
        <ele>9</ele>
        <time>2018-06-30T17:53:47.000Z</time>
      </trkpt>
      <trkpt lat="45.88744" lon="-0.91447">
        <ele>9</ele>
        <time>2018-06-30T17:53:48.000Z</time>
      </trkpt>
      <trkpt lat="45.88745" lon="-0.91448">
        <ele>9</ele>
        <time>2018-06-30T17:53:49.000Z</time>
      </trkpt>
      <trkpt lat="45.88746" lon="-0.91449">
        <ele>10</ele>
        <time>2018-06-30T17:53:50.000Z</time>
      </trkpt>
      <trkpt lat="45.88747" lon="-0.9145">
        <ele>10</ele>
        <time>2018-06-30T17:53:51.000Z</time>
      </trkpt>
      <trkpt lat="45.88748" lon="-0.91451">
        <ele>10</ele>
        <time>2018-06-30T17:53:52.000Z</time>
      </trkpt>
      <trkpt lat="45.88749" lon="-0.91451">
        <ele>11</ele>
        <time>2018-06-30T17:53:53.000Z</time>
      </trkpt>
      <trkpt lat="45.8875" lon="-0.91452">
        <ele>11</ele>
        <time>2018-06-30T17:53:54.000Z</time>
      </trkpt>
      <trkpt lat="45.88751" lon="-0.91453">
        <ele>11</ele>
        <time>2018-06-30T17:53:55.000Z</time>
      </trkpt>
      <trkpt lat="45.88752" lon="-0.91453">
        <ele>12</ele>
        <time>2018-06-30T17:53:56.000Z</time>
      </trkpt>
      <trkpt lat="45.88753" lon="-0.91454">
        <ele>12</ele>
        <time>2018-06-30T17:53:57.000Z</time>
      </trkpt>
      <trkpt lat="45.88754" lon="-0.91455">
        <ele>12</ele>
        <time>2018-06-30T17:53:58.000Z</time>
      </trkpt>
      <trkpt lat="45.88755" lon="-0.91456">
        <ele>12</ele>
        <time>2018-06-30T17:53:59.000Z</time>
      </trkpt>
      <trkpt lat="45.88756" lon="-0.91457">
        <ele>12</ele>
        <time>2018-06-30T17:54:00.000Z</time>
      </trkpt>
      <trkpt lat="45.88757" lon="-0.91457">
        <ele>12</ele>
        <time>2018-06-30T17:54:01.000Z</time>
      </trkpt>
      <trkpt lat="45.88759" lon="-0.91458">
        <ele>13</ele>
        <time>2018-06-30T17:54:02.000Z</time>
      </trkpt>
      <trkpt lat="45.8876" lon="-0.91459">
        <ele>13</ele>
        <time>2018-06-30T17:54:03.000Z</time>
      </trkpt>
      <trkpt lat="45.88761" lon="-0.9146">
        <ele>13</ele>
        <time>2018-06-30T17:54:04.000Z</time>
      </trkpt>
      <trkpt lat="45.88762" lon="-0.9146">
        <ele>13</ele>
        <time>2018-06-30T17:54:05.000Z</time>
      </trkpt>
      <trkpt lat="45.88763" lon="-0.91461">
        <ele>13</ele>
        <time>2018-06-30T17:54:06.000Z</time>
      </trkpt>
      <trkpt lat="45.88764" lon="-0.91461">
        <ele>13</ele>
        <time>2018-06-30T17:54:07.000Z</time>
      </trkpt>
      <trkpt lat="45.88765" lon="-0.91462">
        <ele>14</ele>
        <time>2018-06-30T17:54:08.000Z</time>
      </trkpt>
      <trkpt lat="45.88766" lon="-0.91463">
        <ele>13</ele>
        <time>2018-06-30T17:54:09.000Z</time>
      </trkpt>
      <trkpt lat="45.88767" lon="-0.91464">
        <ele>14</ele>
        <time>2018-06-30T17:54:10.000Z</time>
      </trkpt>
      <trkpt lat="45.88769" lon="-0.91465">
        <ele>13</ele>
        <time>2018-06-30T17:54:11.000Z</time>
      </trkpt>
      <trkpt lat="45.8877" lon="-0.91466">
        <ele>14</ele>
        <time>2018-06-30T17:54:12.000Z</time>
      </trkpt>
      <trkpt lat="45.88771" lon="-0.91467">
        <ele>14</ele>
        <time>2018-06-30T17:54:13.000Z</time>
      </trkpt>
      <trkpt lat="45.88772" lon="-0.91467">
        <ele>15</ele>
        <time>2018-06-30T17:54:14.000Z</time>
      </trkpt>
      <trkpt lat="45.88773" lon="-0.91468">
        <ele>14</ele>
        <time>2018-06-30T17:54:15.000Z</time>
      </trkpt>
      <trkpt lat="45.88774" lon="-0.91469">
        <ele>13</ele>
        <time>2018-06-30T17:54:16.000Z</time>
      </trkpt>
      <trkpt lat="45.88775" lon="-0.91469">
        <ele>13</ele>
        <time>2018-06-30T17:54:17.000Z</time>
      </trkpt>
      <trkpt lat="45.88777" lon="-0.9147">
        <ele>13</ele>
        <time>2018-06-30T17:54:18.000Z</time>
      </trkpt>
      <trkpt lat="45.88778" lon="-0.91471">
        <ele>12</ele>
        <time>2018-06-30T17:54:19.000Z</time>
      </trkpt>
      <trkpt lat="45.88779" lon="-0.91472">
        <ele>12</ele>
        <time>2018-06-30T17:54:20.000Z</time>
      </trkpt>
      <trkpt lat="45.8878" lon="-0.91472">
        <ele>11</ele>
        <time>2018-06-30T17:54:21.000Z</time>
      </trkpt>
      <trkpt lat="45.88781" lon="-0.91473">
        <ele>11</ele>
        <time>2018-06-30T17:54:22.000Z</time>
      </trkpt>
      <trkpt lat="45.88782" lon="-0.91474">
        <ele>11</ele>
        <time>2018-06-30T17:54:23.000Z</time>
      </trkpt>
      <trkpt lat="45.88783" lon="-0.91475">
        <ele>10</ele>
        <time>2018-06-30T17:54:24.000Z</time>
      </trkpt>
      <trkpt lat="45.88784" lon="-0.91476">
        <ele>10</ele>
        <time>2018-06-30T17:54:25.000Z</time>
      </trkpt>
      <trkpt lat="45.88786" lon="-0.91476">
        <ele>10</ele>
        <time>2018-06-30T17:54:26.000Z</time>
      </trkpt>
      <trkpt lat="45.88787" lon="-0.91477">
        <ele>10</ele>
        <time>2018-06-30T17:54:27.000Z</time>
      </trkpt>
      <trkpt lat="45.88788" lon="-0.91479">
        <ele>10</ele>
        <time>2018-06-30T17:54:28.000Z</time>
      </trkpt>
      <trkpt lat="45.88788" lon="-0.9148">
        <ele>10</ele>
        <time>2018-06-30T17:54:29.000Z</time>
      </trkpt>
      <trkpt lat="45.8879" lon="-0.91481">
        <ele>11</ele>
        <time>2018-06-30T17:54:30.000Z</time>
      </trkpt>
      <trkpt lat="45.88791" lon="-0.91481">
        <ele>11</ele>
        <time>2018-06-30T17:54:31.000Z</time>
      </trkpt>
      <trkpt lat="45.88792" lon="-0.91482">
        <ele>11</ele>
        <time>2018-06-30T17:54:32.000Z</time>
      </trkpt>
      <trkpt lat="45.88793" lon="-0.91483">
        <ele>11</ele>
        <time>2018-06-30T17:54:33.000Z</time>
      </trkpt>
      <trkpt lat="45.88794" lon="-0.91484">
        <ele>10</ele>
        <time>2018-06-30T17:54:34.000Z</time>
      </trkpt>
      <trkpt lat="45.88795" lon="-0.91484">
        <ele>10</ele>
        <time>2018-06-30T17:54:35.000Z</time>
      </trkpt>
      <trkpt lat="45.88796" lon="-0.91485">
        <ele>10</ele>
        <time>2018-06-30T17:54:36.000Z</time>
      </trkpt>
      <trkpt lat="45.88797" lon="-0.91485">
        <ele>10</ele>
        <time>2018-06-30T17:54:37.000Z</time>
      </trkpt>
      <trkpt lat="45.88798" lon="-0.91486">
        <ele>9</ele>
        <time>2018-06-30T17:54:38.000Z</time>
      </trkpt>
      <trkpt lat="45.88799" lon="-0.91487">
        <ele>10</ele>
        <time>2018-06-30T17:54:39.000Z</time>
      </trkpt>
      <trkpt lat="45.888" lon="-0.91488">
        <ele>10</ele>
        <time>2018-06-30T17:54:40.000Z</time>
      </trkpt>
      <trkpt lat="45.88801" lon="-0.91488">
        <ele>10</ele>
        <time>2018-06-30T17:54:41.000Z</time>
      </trkpt>
      <trkpt lat="45.88802" lon="-0.91489">
        <ele>10</ele>
        <time>2018-06-30T17:54:42.000Z</time>
      </trkpt>
      <trkpt lat="45.88803" lon="-0.9149">
        <ele>10</ele>
        <time>2018-06-30T17:54:43.000Z</time>
      </trkpt>
      <trkpt lat="45.88804" lon="-0.9149">
        <ele>10</ele>
        <time>2018-06-30T17:54:44.000Z</time>
      </trkpt>
      <trkpt lat="45.88805" lon="-0.91491">
        <ele>11</ele>
        <time>2018-06-30T17:54:45.000Z</time>
      </trkpt>
      <trkpt lat="45.88806" lon="-0.91492">
        <ele>11</ele>
        <time>2018-06-30T17:54:46.000Z</time>
      </trkpt>
      <trkpt lat="45.88807" lon="-0.91493">
        <ele>11</ele>
        <time>2018-06-30T17:54:47.000Z</time>
      </trkpt>
      <trkpt lat="45.88808" lon="-0.91494">
        <ele>11</ele>
        <time>2018-06-30T17:54:48.000Z</time>
      </trkpt>
      <trkpt lat="45.88809" lon="-0.91494">
        <ele>11</ele>
        <time>2018-06-30T17:54:49.000Z</time>
      </trkpt>
      <trkpt lat="45.8881" lon="-0.91495">
        <ele>11</ele>
        <time>2018-06-30T17:54:50.000Z</time>
      </trkpt>
      <trkpt lat="45.88811" lon="-0.91496">
        <ele>10</ele>
        <time>2018-06-30T17:54:51.000Z</time>
      </trkpt>
      <trkpt lat="45.88812" lon="-0.91497">
        <ele>10</ele>
        <time>2018-06-30T17:54:52.000Z</time>
      </trkpt>
      <trkpt lat="45.88813" lon="-0.91497">
        <ele>10</ele>
        <time>2018-06-30T17:54:53.000Z</time>
      </trkpt>
      <trkpt lat="45.88815" lon="-0.91498">
        <ele>10</ele>
        <time>2018-06-30T17:54:54.000Z</time>
      </trkpt>
      <trkpt lat="45.88816" lon="-0.91499">
        <ele>9</ele>
        <time>2018-06-30T17:54:55.000Z</time>
      </trkpt>
      <trkpt lat="45.88817" lon="-0.91499">
        <ele>9</ele>
        <time>2018-06-30T17:54:56.000Z</time>
      </trkpt>
      <trkpt lat="45.88818" lon="-0.915">
        <ele>9</ele>
        <time>2018-06-30T17:54:57.000Z</time>
      </trkpt>
      <trkpt lat="45.88819" lon="-0.91501">
        <ele>9</ele>
        <time>2018-06-30T17:54:58.000Z</time>
      </trkpt>
      <trkpt lat="45.8882" lon="-0.91502">
        <ele>9</ele>
        <time>2018-06-30T17:54:59.000Z</time>
      </trkpt>
      <trkpt lat="45.88822" lon="-0.91503">
        <ele>9</ele>
        <time>2018-06-30T17:55:00.000Z</time>
      </trkpt>
      <trkpt lat="45.88823" lon="-0.91504">
        <ele>9</ele>
        <time>2018-06-30T17:55:01.000Z</time>
      </trkpt>
      <trkpt lat="45.88824" lon="-0.91504">
        <ele>9</ele>
        <time>2018-06-30T17:55:02.000Z</time>
      </trkpt>
      <trkpt lat="45.88825" lon="-0.91505">
        <ele>8</ele>
        <time>2018-06-30T17:55:03.000Z</time>
      </trkpt>
      <trkpt lat="45.88826" lon="-0.91506">
        <ele>8</ele>
        <time>2018-06-30T17:55:04.000Z</time>
      </trkpt>
      <trkpt lat="45.88827" lon="-0.91506">
        <ele>8</ele>
        <time>2018-06-30T17:55:05.000Z</time>
      </trkpt>
      <trkpt lat="45.88829" lon="-0.91507">
        <ele>8</ele>
        <time>2018-06-30T17:55:06.000Z</time>
      </trkpt>
      <trkpt lat="45.8883" lon="-0.91508">
        <ele>8</ele>
        <time>2018-06-30T17:55:07.000Z</time>
      </trkpt>
      <trkpt lat="45.88831" lon="-0.91509">
        <ele>8</ele>
        <time>2018-06-30T17:55:08.000Z</time>
      </trkpt>
      <trkpt lat="45.88832" lon="-0.9151">
        <ele>8</ele>
        <time>2018-06-30T17:55:09.000Z</time>
      </trkpt>
      <trkpt lat="45.88833" lon="-0.91511">
        <ele>8</ele>
        <time>2018-06-30T17:55:10.000Z</time>
      </trkpt>
      <trkpt lat="45.88835" lon="-0.91512">
        <ele>8</ele>
        <time>2018-06-30T17:55:11.000Z</time>
      </trkpt>
      <trkpt lat="45.88836" lon="-0.91512">
        <ele>8</ele>
        <time>2018-06-30T17:55:12.000Z</time>
      </trkpt>
      <trkpt lat="45.88837" lon="-0.91513">
        <ele>8</ele>
        <time>2018-06-30T17:55:13.000Z</time>
      </trkpt>
      <trkpt lat="45.88838" lon="-0.91514">
        <ele>8</ele>
        <time>2018-06-30T17:55:14.000Z</time>
      </trkpt>
      <trkpt lat="45.8884" lon="-0.91514">
        <ele>7</ele>
        <time>2018-06-30T17:55:15.000Z</time>
      </trkpt>
      <trkpt lat="45.88841" lon="-0.91515">
        <ele>7</ele>
        <time>2018-06-30T17:55:16.000Z</time>
      </trkpt>
      <trkpt lat="45.88842" lon="-0.91515">
        <ele>8</ele>
        <time>2018-06-30T17:55:17.000Z</time>
      </trkpt>
      <trkpt lat="45.88844" lon="-0.91516">
        <ele>8</ele>
        <time>2018-06-30T17:55:18.000Z</time>
      </trkpt>
      <trkpt lat="45.88845" lon="-0.91517">
        <ele>7</ele>
        <time>2018-06-30T17:55:19.000Z</time>
      </trkpt>
      <trkpt lat="45.88846" lon="-0.91517">
        <ele>7</ele>
        <time>2018-06-30T17:55:20.000Z</time>
      </trkpt>
      <trkpt lat="45.88847" lon="-0.91518">
        <ele>7</ele>
        <time>2018-06-30T17:55:21.000Z</time>
      </trkpt>
      <trkpt lat="45.88848" lon="-0.91519">
        <ele>7</ele>
        <time>2018-06-30T17:55:22.000Z</time>
      </trkpt>
      <trkpt lat="45.88849" lon="-0.91519">
        <ele>6</ele>
        <time>2018-06-30T17:55:23.000Z</time>
      </trkpt>
      <trkpt lat="45.8885" lon="-0.91519">
        <ele>6</ele>
        <time>2018-06-30T17:55:24.000Z</time>
      </trkpt>
      <trkpt lat="45.88852" lon="-0.9152">
        <ele>6</ele>
        <time>2018-06-30T17:55:25.000Z</time>
      </trkpt>
      <trkpt lat="45.88853" lon="-0.9152">
        <ele>6</ele>
        <time>2018-06-30T17:55:26.000Z</time>
      </trkpt>
      <trkpt lat="45.88854" lon="-0.91521">
        <ele>6</ele>
        <time>2018-06-30T17:55:27.000Z</time>
      </trkpt>
      <trkpt lat="45.88855" lon="-0.91522">
        <ele>6</ele>
        <time>2018-06-30T17:55:28.000Z</time>
      </trkpt>
      <trkpt lat="45.88856" lon="-0.91522">
        <ele>6</ele>
        <time>2018-06-30T17:55:29.000Z</time>
      </trkpt>
      <trkpt lat="45.88858" lon="-0.91523">
        <ele>6</ele>
        <time>2018-06-30T17:55:30.000Z</time>
      </trkpt>
      <trkpt lat="45.88859" lon="-0.91523">
        <ele>6</ele>
        <time>2018-06-30T17:55:31.000Z</time>
      </trkpt>
      <trkpt lat="45.8886" lon="-0.91524">
        <ele>6</ele>
        <time>2018-06-30T17:55:32.000Z</time>
      </trkpt>
      <trkpt lat="45.88861" lon="-0.91524">
        <ele>6</ele>
        <time>2018-06-30T17:55:33.000Z</time>
      </trkpt>
      <trkpt lat="45.88862" lon="-0.91525">
        <ele>6</ele>
        <time>2018-06-30T17:55:34.000Z</time>
      </trkpt>
      <trkpt lat="45.88863" lon="-0.91525">
        <ele>5</ele>
        <time>2018-06-30T17:55:35.000Z</time>
      </trkpt>
      <trkpt lat="45.88864" lon="-0.91526">
        <ele>5</ele>
        <time>2018-06-30T17:55:36.000Z</time>
      </trkpt>
      <trkpt lat="45.88865" lon="-0.91526">
        <ele>5</ele>
        <time>2018-06-30T17:55:37.000Z</time>
      </trkpt>
      <trkpt lat="45.88866" lon="-0.91527">
        <ele>6</ele>
        <time>2018-06-30T17:55:38.000Z</time>
      </trkpt>
      <trkpt lat="45.88867" lon="-0.91528">
        <ele>7</ele>
        <time>2018-06-30T17:55:39.000Z</time>
      </trkpt>
      <trkpt lat="45.88868" lon="-0.91529">
        <ele>7</ele>
        <time>2018-06-30T17:55:40.000Z</time>
      </trkpt>
      <trkpt lat="45.88869" lon="-0.91529">
        <ele>6</ele>
        <time>2018-06-30T17:55:41.000Z</time>
      </trkpt>
      <trkpt lat="45.8887" lon="-0.9153">
        <ele>6</ele>
        <time>2018-06-30T17:55:42.000Z</time>
      </trkpt>
      <trkpt lat="45.88871" lon="-0.9153">
        <ele>6</ele>
        <time>2018-06-30T17:55:43.000Z</time>
      </trkpt>
      <trkpt lat="45.88872" lon="-0.91531">
        <ele>6</ele>
        <time>2018-06-30T17:55:44.000Z</time>
      </trkpt>
      <trkpt lat="45.88873" lon="-0.91531">
        <ele>6</ele>
        <time>2018-06-30T17:55:45.000Z</time>
      </trkpt>
      <trkpt lat="45.88874" lon="-0.91532">
        <ele>5</ele>
        <time>2018-06-30T17:55:46.000Z</time>
      </trkpt>
      <trkpt lat="45.88876" lon="-0.91533">
        <ele>6</ele>
        <time>2018-06-30T17:55:47.000Z</time>
      </trkpt>
      <trkpt lat="45.88877" lon="-0.91533">
        <ele>6</ele>
        <time>2018-06-30T17:55:48.000Z</time>
      </trkpt>
      <trkpt lat="45.88878" lon="-0.91534">
        <ele>6</ele>
        <time>2018-06-30T17:55:49.000Z</time>
      </trkpt>
      <trkpt lat="45.88879" lon="-0.91535">
        <ele>6</ele>
        <time>2018-06-30T17:55:50.000Z</time>
      </trkpt>
      <trkpt lat="45.8888" lon="-0.91535">
        <ele>5</ele>
        <time>2018-06-30T17:55:51.000Z</time>
      </trkpt>
      <trkpt lat="45.88881" lon="-0.91536">
        <ele>6</ele>
        <time>2018-06-30T17:55:52.000Z</time>
      </trkpt>
      <trkpt lat="45.88882" lon="-0.91537">
        <ele>5</ele>
        <time>2018-06-30T17:55:53.000Z</time>
      </trkpt>
      <trkpt lat="45.88883" lon="-0.91537">
        <ele>5</ele>
        <time>2018-06-30T17:55:54.000Z</time>
      </trkpt>
      <trkpt lat="45.88884" lon="-0.91538">
        <ele>6</ele>
        <time>2018-06-30T17:55:55.000Z</time>
      </trkpt>
      <trkpt lat="45.88885" lon="-0.91539">
        <ele>6</ele>
        <time>2018-06-30T17:55:56.000Z</time>
      </trkpt>
      <trkpt lat="45.88886" lon="-0.91539">
        <ele>6</ele>
        <time>2018-06-30T17:55:57.000Z</time>
      </trkpt>
      <trkpt lat="45.88887" lon="-0.9154">
        <ele>6</ele>
        <time>2018-06-30T17:55:58.000Z</time>
      </trkpt>
      <trkpt lat="45.88888" lon="-0.91541">
        <ele>6</ele>
        <time>2018-06-30T17:55:59.000Z</time>
      </trkpt>
      <trkpt lat="45.88889" lon="-0.91541">
        <ele>6</ele>
        <time>2018-06-30T17:56:00.000Z</time>
      </trkpt>
      <trkpt lat="45.88891" lon="-0.91541">
        <ele>6</ele>
        <time>2018-06-30T17:56:01.000Z</time>
      </trkpt>
      <trkpt lat="45.88892" lon="-0.91542">
        <ele>6</ele>
        <time>2018-06-30T17:56:02.000Z</time>
      </trkpt>
      <trkpt lat="45.88893" lon="-0.91543">
        <ele>5</ele>
        <time>2018-06-30T17:56:03.000Z</time>
      </trkpt>
      <trkpt lat="45.88894" lon="-0.91543">
        <ele>5</ele>
        <time>2018-06-30T17:56:04.000Z</time>
      </trkpt>
      <trkpt lat="45.88895" lon="-0.91544">
        <ele>5</ele>
        <time>2018-06-30T17:56:05.000Z</time>
      </trkpt>
      <trkpt lat="45.88896" lon="-0.91544">
        <ele>5</ele>
        <time>2018-06-30T17:56:06.000Z</time>
      </trkpt>
      <trkpt lat="45.88897" lon="-0.91545">
        <ele>5</ele>
        <time>2018-06-30T17:56:07.000Z</time>
      </trkpt>
      <trkpt lat="45.88898" lon="-0.91546">
        <ele>5</ele>
        <time>2018-06-30T17:56:08.000Z</time>
      </trkpt>
      <trkpt lat="45.88899" lon="-0.91547">
        <ele>6</ele>
        <time>2018-06-30T17:56:09.000Z</time>
      </trkpt>
      <trkpt lat="45.889" lon="-0.91548">
        <ele>5</ele>
        <time>2018-06-30T17:56:10.000Z</time>
      </trkpt>
      <trkpt lat="45.88902" lon="-0.91548">
        <ele>6</ele>
        <time>2018-06-30T17:56:11.000Z</time>
      </trkpt>
      <trkpt lat="45.88903" lon="-0.91549">
        <ele>6</ele>
        <time>2018-06-30T17:56:12.000Z</time>
      </trkpt>
      <trkpt lat="45.88904" lon="-0.9155">
        <ele>6</ele>
        <time>2018-06-30T17:56:13.000Z</time>
      </trkpt>
      <trkpt lat="45.88905" lon="-0.9155">
        <ele>6</ele>
        <time>2018-06-30T17:56:14.000Z</time>
      </trkpt>
      <trkpt lat="45.88906" lon="-0.91551">
        <ele>6</ele>
        <time>2018-06-30T17:56:15.000Z</time>
      </trkpt>
      <trkpt lat="45.88907" lon="-0.91551">
        <ele>5</ele>
        <time>2018-06-30T17:56:16.000Z</time>
      </trkpt>
      <trkpt lat="45.88908" lon="-0.91552">
        <ele>5</ele>
        <time>2018-06-30T17:56:17.000Z</time>
      </trkpt>
      <trkpt lat="45.88909" lon="-0.91552">
        <ele>5</ele>
        <time>2018-06-30T17:56:18.000Z</time>
      </trkpt>
      <trkpt lat="45.88911" lon="-0.91552">
        <ele>5</ele>
        <time>2018-06-30T17:56:19.000Z</time>
      </trkpt>
      <trkpt lat="45.88912" lon="-0.91552">
        <ele>4</ele>
        <time>2018-06-30T17:56:20.000Z</time>
      </trkpt>
      <trkpt lat="45.88913" lon="-0.91552">
        <ele>4</ele>
        <time>2018-06-30T17:56:21.000Z</time>
      </trkpt>
      <trkpt lat="45.88914" lon="-0.91552">
        <ele>4</ele>
        <time>2018-06-30T17:56:22.000Z</time>
      </trkpt>
      <trkpt lat="45.88915" lon="-0.91553">
        <ele>4</ele>
        <time>2018-06-30T17:56:23.000Z</time>
      </trkpt>
      <trkpt lat="45.88916" lon="-0.91553">
        <ele>4</ele>
        <time>2018-06-30T17:56:24.000Z</time>
      </trkpt>
      <trkpt lat="45.88918" lon="-0.91553">
        <ele>4</ele>
        <time>2018-06-30T17:56:25.000Z</time>
      </trkpt>
      <trkpt lat="45.88919" lon="-0.91554">
        <ele>4</ele>
        <time>2018-06-30T17:56:26.000Z</time>
      </trkpt>
      <trkpt lat="45.8892" lon="-0.91554">
        <ele>4</ele>
        <time>2018-06-30T17:56:27.000Z</time>
      </trkpt>
      <trkpt lat="45.88921" lon="-0.91554">
        <ele>4</ele>
        <time>2018-06-30T17:56:28.000Z</time>
      </trkpt>
      <trkpt lat="45.88922" lon="-0.91554">
        <ele>4</ele>
        <time>2018-06-30T17:56:29.000Z</time>
      </trkpt>
      <trkpt lat="45.88923" lon="-0.91554">
        <ele>4</ele>
        <time>2018-06-30T17:56:30.000Z</time>
      </trkpt>
      <trkpt lat="45.88924" lon="-0.91553">
        <ele>4</ele>
        <time>2018-06-30T17:56:31.000Z</time>
      </trkpt>
      <trkpt lat="45.88925" lon="-0.91553">
        <ele>3</ele>
        <time>2018-06-30T17:56:32.000Z</time>
      </trkpt>
      <trkpt lat="45.88926" lon="-0.91552">
        <ele>3</ele>
        <time>2018-06-30T17:56:33.000Z</time>
      </trkpt>
      <trkpt lat="45.88927" lon="-0.91552">
        <ele>3</ele>
        <time>2018-06-30T17:56:34.000Z</time>
      </trkpt>
      <trkpt lat="45.88928" lon="-0.91552">
        <ele>3</ele>
        <time>2018-06-30T17:56:35.000Z</time>
      </trkpt>
      <trkpt lat="45.88928" lon="-0.91552">
        <ele>3</ele>
        <time>2018-06-30T17:56:36.000Z</time>
      </trkpt>
      <trkpt lat="45.88929" lon="-0.91551">
        <ele>3</ele>
        <time>2018-06-30T17:56:37.000Z</time>
      </trkpt>
      <trkpt lat="45.8893" lon="-0.91551">
        <ele>2</ele>
        <time>2018-06-30T17:56:38.000Z</time>
      </trkpt>
      <trkpt lat="45.88931" lon="-0.9155">
        <ele>3</ele>
        <time>2018-06-30T17:56:39.000Z</time>
      </trkpt>
      <trkpt lat="45.88932" lon="-0.9155">
        <ele>3</ele>
        <time>2018-06-30T17:56:40.000Z</time>
      </trkpt>
      <trkpt lat="45.88933" lon="-0.91549">
        <ele>3</ele>
        <time>2018-06-30T17:56:41.000Z</time>
      </trkpt>
      <trkpt lat="45.88935" lon="-0.91549">
        <ele>3</ele>
        <time>2018-06-30T17:56:42.000Z</time>
      </trkpt>
      <trkpt lat="45.88936" lon="-0.91548">
        <ele>3</ele>
        <time>2018-06-30T17:56:43.000Z</time>
      </trkpt>
      <trkpt lat="45.88937" lon="-0.91548">
        <ele>3</ele>
        <time>2018-06-30T17:56:44.000Z</time>
      </trkpt>
      <trkpt lat="45.88938" lon="-0.91547">
        <ele>3</ele>
        <time>2018-06-30T17:56:45.000Z</time>
      </trkpt>
      <trkpt lat="45.88939" lon="-0.91547">
        <ele>2</ele>
        <time>2018-06-30T17:56:46.000Z</time>
      </trkpt>
      <trkpt lat="45.8894" lon="-0.91547">
        <ele>2</ele>
        <time>2018-06-30T17:56:47.000Z</time>
      </trkpt>
      <trkpt lat="45.88941" lon="-0.91546">
        <ele>2</ele>
        <time>2018-06-30T17:56:48.000Z</time>
      </trkpt>
      <trkpt lat="45.88942" lon="-0.91545">
        <ele>3</ele>
        <time>2018-06-30T17:56:49.000Z</time>
      </trkpt>
      <trkpt lat="45.88943" lon="-0.91544">
        <ele>3</ele>
        <time>2018-06-30T17:56:50.000Z</time>
      </trkpt>
      <trkpt lat="45.88945" lon="-0.91544">
        <ele>3</ele>
        <time>2018-06-30T17:56:51.000Z</time>
      </trkpt>
      <trkpt lat="45.88946" lon="-0.91543">
        <ele>4</ele>
        <time>2018-06-30T17:56:52.000Z</time>
      </trkpt>
      <trkpt lat="45.88947" lon="-0.91543">
        <ele>4</ele>
        <time>2018-06-30T17:56:53.000Z</time>
      </trkpt>
      <trkpt lat="45.88948" lon="-0.91543">
        <ele>4</ele>
        <time>2018-06-30T17:56:54.000Z</time>
      </trkpt>
      <trkpt lat="45.88949" lon="-0.91543">
        <ele>4</ele>
        <time>2018-06-30T17:56:55.000Z</time>
      </trkpt>
      <trkpt lat="45.8895" lon="-0.91543">
        <ele>4</ele>
        <time>2018-06-30T17:56:56.000Z</time>
      </trkpt>
      <trkpt lat="45.88951" lon="-0.91542">
        <ele>4</ele>
        <time>2018-06-30T17:56:57.000Z</time>
      </trkpt>
      <trkpt lat="45.88952" lon="-0.91542">
        <ele>4</ele>
        <time>2018-06-30T17:56:58.000Z</time>
      </trkpt>
      <trkpt lat="45.88953" lon="-0.91541">
        <ele>4</ele>
        <time>2018-06-30T17:56:59.000Z</time>
      </trkpt>
      <trkpt lat="45.88954" lon="-0.91541">
        <ele>5</ele>
        <time>2018-06-30T17:57:00.000Z</time>
      </trkpt>
      <trkpt lat="45.88955" lon="-0.91541">
        <ele>5</ele>
        <time>2018-06-30T17:57:01.000Z</time>
      </trkpt>
      <trkpt lat="45.88956" lon="-0.9154">
        <ele>5</ele>
        <time>2018-06-30T17:57:02.000Z</time>
      </trkpt>
      <trkpt lat="45.88957" lon="-0.9154">
        <ele>5</ele>
        <time>2018-06-30T17:57:03.000Z</time>
      </trkpt>
      <trkpt lat="45.88958" lon="-0.9154">
        <ele>5</ele>
        <time>2018-06-30T17:57:04.000Z</time>
      </trkpt>
      <trkpt lat="45.88959" lon="-0.9154">
        <ele>5</ele>
        <time>2018-06-30T17:57:05.000Z</time>
      </trkpt>
      <trkpt lat="45.8896" lon="-0.91539">
        <ele>6</ele>
        <time>2018-06-30T17:57:06.000Z</time>
      </trkpt>
      <trkpt lat="45.88961" lon="-0.91539">
        <ele>7</ele>
        <time>2018-06-30T17:57:07.000Z</time>
      </trkpt>
      <trkpt lat="45.88963" lon="-0.9154">
        <ele>8</ele>
        <time>2018-06-30T17:57:08.000Z</time>
      </trkpt>
      <trkpt lat="45.88964" lon="-0.91539">
        <ele>8</ele>
        <time>2018-06-30T17:57:09.000Z</time>
      </trkpt>
      <trkpt lat="45.88965" lon="-0.91539">
        <ele>9</ele>
        <time>2018-06-30T17:57:10.000Z</time>
      </trkpt>
      <trkpt lat="45.88966" lon="-0.91539">
        <ele>9</ele>
        <time>2018-06-30T17:57:11.000Z</time>
      </trkpt>
      <trkpt lat="45.88967" lon="-0.91539">
        <ele>10</ele>
        <time>2018-06-30T17:57:12.000Z</time>
      </trkpt>
      <trkpt lat="45.88969" lon="-0.91539">
        <ele>11</ele>
        <time>2018-06-30T17:57:13.000Z</time>
      </trkpt>
      <trkpt lat="45.8897" lon="-0.91539">
        <ele>11</ele>
        <time>2018-06-30T17:57:14.000Z</time>
      </trkpt>
      <trkpt lat="45.88971" lon="-0.91539">
        <ele>11</ele>
        <time>2018-06-30T17:57:15.000Z</time>
      </trkpt>
      <trkpt lat="45.88972" lon="-0.91539">
        <ele>11</ele>
        <time>2018-06-30T17:57:16.000Z</time>
      </trkpt>
      <trkpt lat="45.88973" lon="-0.91539">
        <ele>12</ele>
        <time>2018-06-30T17:57:17.000Z</time>
      </trkpt>
      <trkpt lat="45.88974" lon="-0.91539">
        <ele>12</ele>
        <time>2018-06-30T17:57:18.000Z</time>
      </trkpt>
      <trkpt lat="45.88975" lon="-0.91539">
        <ele>12</ele>
        <time>2018-06-30T17:57:19.000Z</time>
      </trkpt>
      <trkpt lat="45.88976" lon="-0.91538">
        <ele>12</ele>
        <time>2018-06-30T17:57:20.000Z</time>
      </trkpt>
      <trkpt lat="45.88977" lon="-0.91538">
        <ele>12</ele>
        <time>2018-06-30T17:57:21.000Z</time>
      </trkpt>
      <trkpt lat="45.88979" lon="-0.91538">
        <ele>12</ele>
        <time>2018-06-30T17:57:22.000Z</time>
      </trkpt>
      <trkpt lat="45.8898" lon="-0.91538">
        <ele>12</ele>
        <time>2018-06-30T17:57:23.000Z</time>
      </trkpt>
      <trkpt lat="45.88981" lon="-0.91538">
        <ele>12</ele>
        <time>2018-06-30T17:57:24.000Z</time>
      </trkpt>
      <trkpt lat="45.88982" lon="-0.91538">
        <ele>12</ele>
        <time>2018-06-30T17:57:25.000Z</time>
      </trkpt>
      <trkpt lat="45.88984" lon="-0.91538">
        <ele>13</ele>
        <time>2018-06-30T17:57:26.000Z</time>
      </trkpt>
      <trkpt lat="45.88985" lon="-0.91539">
        <ele>13</ele>
        <time>2018-06-30T17:57:27.000Z</time>
      </trkpt>
      <trkpt lat="45.88986" lon="-0.91539">
        <ele>13</ele>
        <time>2018-06-30T17:57:28.000Z</time>
      </trkpt>
      <trkpt lat="45.88987" lon="-0.9154">
        <ele>14</ele>
        <time>2018-06-30T17:57:29.000Z</time>
      </trkpt>
      <trkpt lat="45.88989" lon="-0.9154">
        <ele>14</ele>
        <time>2018-06-30T17:57:30.000Z</time>
      </trkpt>
      <trkpt lat="45.8899" lon="-0.9154">
        <ele>14</ele>
        <time>2018-06-30T17:57:31.000Z</time>
      </trkpt>
      <trkpt lat="45.88991" lon="-0.9154">
        <ele>14</ele>
        <time>2018-06-30T17:57:32.000Z</time>
      </trkpt>
      <trkpt lat="45.88993" lon="-0.9154">
        <ele>14</ele>
        <time>2018-06-30T17:57:33.000Z</time>
      </trkpt>
      <trkpt lat="45.88994" lon="-0.9154">
        <ele>15</ele>
        <time>2018-06-30T17:57:34.000Z</time>
      </trkpt>
      <trkpt lat="45.88995" lon="-0.9154">
        <ele>15</ele>
        <time>2018-06-30T17:57:35.000Z</time>
      </trkpt>
      <trkpt lat="45.88996" lon="-0.9154">
        <ele>15</ele>
        <time>2018-06-30T17:57:36.000Z</time>
      </trkpt>
      <trkpt lat="45.88997" lon="-0.9154">
        <ele>16</ele>
        <time>2018-06-30T17:57:37.000Z</time>
      </trkpt>
      <trkpt lat="45.88998" lon="-0.9154">
        <ele>15</ele>
        <time>2018-06-30T17:57:38.000Z</time>
      </trkpt>
      <trkpt lat="45.88999" lon="-0.91541">
        <ele>15</ele>
        <time>2018-06-30T17:57:39.000Z</time>
      </trkpt>
      <trkpt lat="45.89" lon="-0.91541">
        <ele>15</ele>
        <time>2018-06-30T17:57:40.000Z</time>
      </trkpt>
      <trkpt lat="45.89001" lon="-0.91541">
        <ele>15</ele>
        <time>2018-06-30T17:57:41.000Z</time>
      </trkpt>
      <trkpt lat="45.89002" lon="-0.91541">
        <ele>15</ele>
        <time>2018-06-30T17:57:42.000Z</time>
      </trkpt>
      <trkpt lat="45.89004" lon="-0.91541">
        <ele>15</ele>
        <time>2018-06-30T17:57:43.000Z</time>
      </trkpt>
      <trkpt lat="45.89005" lon="-0.91541">
        <ele>14</ele>
        <time>2018-06-30T17:57:44.000Z</time>
      </trkpt>
      <trkpt lat="45.89006" lon="-0.91541">
        <ele>14</ele>
        <time>2018-06-30T17:57:45.000Z</time>
      </trkpt>
      <trkpt lat="45.89007" lon="-0.91541">
        <ele>14</ele>
        <time>2018-06-30T17:57:46.000Z</time>
      </trkpt>
      <trkpt lat="45.89008" lon="-0.91541">
        <ele>14</ele>
        <time>2018-06-30T17:57:47.000Z</time>
      </trkpt>
      <trkpt lat="45.89009" lon="-0.91541">
        <ele>15</ele>
        <time>2018-06-30T17:57:48.000Z</time>
      </trkpt>
      <trkpt lat="45.8901" lon="-0.91541">
        <ele>15</ele>
        <time>2018-06-30T17:57:49.000Z</time>
      </trkpt>
      <trkpt lat="45.89011" lon="-0.91541">
        <ele>14</ele>
        <time>2018-06-30T17:57:50.000Z</time>
      </trkpt>
      <trkpt lat="45.89012" lon="-0.91541">
        <ele>14</ele>
        <time>2018-06-30T17:57:51.000Z</time>
      </trkpt>
      <trkpt lat="45.89013" lon="-0.91541">
        <ele>14</ele>
        <time>2018-06-30T17:57:52.000Z</time>
      </trkpt>
      <trkpt lat="45.89014" lon="-0.91541">
        <ele>13</ele>
        <time>2018-06-30T17:57:53.000Z</time>
      </trkpt>
      <trkpt lat="45.89015" lon="-0.91541">
        <ele>12</ele>
        <time>2018-06-30T17:57:54.000Z</time>
      </trkpt>
      <trkpt lat="45.89016" lon="-0.91541">
        <ele>11</ele>
        <time>2018-06-30T17:57:55.000Z</time>
      </trkpt>
      <trkpt lat="45.89018" lon="-0.91541">
        <ele>11</ele>
        <time>2018-06-30T17:57:56.000Z</time>
      </trkpt>
      <trkpt lat="45.89019" lon="-0.91541">
        <ele>11</ele>
        <time>2018-06-30T17:57:57.000Z</time>
      </trkpt>
      <trkpt lat="45.8902" lon="-0.91541">
        <ele>11</ele>
        <time>2018-06-30T17:57:58.000Z</time>
      </trkpt>
      <trkpt lat="45.89021" lon="-0.91541">
        <ele>11</ele>
        <time>2018-06-30T17:57:59.000Z</time>
      </trkpt>
      <trkpt lat="45.89022" lon="-0.91541">
        <ele>12</ele>
        <time>2018-06-30T17:58:00.000Z</time>
      </trkpt>
      <trkpt lat="45.89024" lon="-0.91541">
        <ele>11</ele>
        <time>2018-06-30T17:58:01.000Z</time>
      </trkpt>
      <trkpt lat="45.89025" lon="-0.91541">
        <ele>11</ele>
        <time>2018-06-30T17:58:02.000Z</time>
      </trkpt>
      <trkpt lat="45.89026" lon="-0.91541">
        <ele>12</ele>
        <time>2018-06-30T17:58:03.000Z</time>
      </trkpt>
      <trkpt lat="45.89027" lon="-0.91541">
        <ele>11</ele>
        <time>2018-06-30T17:58:04.000Z</time>
      </trkpt>
      <trkpt lat="45.89028" lon="-0.91541">
        <ele>11</ele>
        <time>2018-06-30T17:58:05.000Z</time>
      </trkpt>
      <trkpt lat="45.89029" lon="-0.91541">
        <ele>11</ele>
        <time>2018-06-30T17:58:06.000Z</time>
      </trkpt>
      <trkpt lat="45.8903" lon="-0.91541">
        <ele>11</ele>
        <time>2018-06-30T17:58:07.000Z</time>
      </trkpt>
      <trkpt lat="45.89031" lon="-0.91541">
        <ele>10</ele>
        <time>2018-06-30T17:58:08.000Z</time>
      </trkpt>
      <trkpt lat="45.89032" lon="-0.91541">
        <ele>10</ele>
        <time>2018-06-30T17:58:09.000Z</time>
      </trkpt>
      <trkpt lat="45.89034" lon="-0.91541">
        <ele>10</ele>
        <time>2018-06-30T17:58:10.000Z</time>
      </trkpt>
      <trkpt lat="45.89035" lon="-0.91541">
        <ele>10</ele>
        <time>2018-06-30T17:58:11.000Z</time>
      </trkpt>
      <trkpt lat="45.89036" lon="-0.91541">
        <ele>10</ele>
        <time>2018-06-30T17:58:12.000Z</time>
      </trkpt>
      <trkpt lat="45.89037" lon="-0.91541">
        <ele>10</ele>
        <time>2018-06-30T17:58:13.000Z</time>
      </trkpt>
      <trkpt lat="45.89039" lon="-0.91541">
        <ele>10</ele>
        <time>2018-06-30T17:58:14.000Z</time>
      </trkpt>
      <trkpt lat="45.8904" lon="-0.91541">
        <ele>11</ele>
        <time>2018-06-30T17:58:15.000Z</time>
      </trkpt>
      <trkpt lat="45.89042" lon="-0.91541">
        <ele>9</ele>
        <time>2018-06-30T17:58:16.000Z</time>
      </trkpt>
      <trkpt lat="45.89043" lon="-0.91541">
        <ele>8</ele>
        <time>2018-06-30T17:58:17.000Z</time>
      </trkpt>
      <trkpt lat="45.89045" lon="-0.91542">
        <ele>7</ele>
        <time>2018-06-30T17:58:18.000Z</time>
      </trkpt>
      <trkpt lat="45.89046" lon="-0.91542">
        <ele>7</ele>
        <time>2018-06-30T17:58:19.000Z</time>
      </trkpt>
      <trkpt lat="45.89048" lon="-0.91542">
        <ele>7</ele>
        <time>2018-06-30T17:58:20.000Z</time>
      </trkpt>
      <trkpt lat="45.89049" lon="-0.91542">
        <ele>7</ele>
        <time>2018-06-30T17:58:21.000Z</time>
      </trkpt>
      <trkpt lat="45.8905" lon="-0.91543">
        <ele>8</ele>
        <time>2018-06-30T17:58:22.000Z</time>
      </trkpt>
      <trkpt lat="45.89052" lon="-0.91544">
        <ele>8</ele>
        <time>2018-06-30T17:58:23.000Z</time>
      </trkpt>
      <trkpt lat="45.89053" lon="-0.91544">
        <ele>8</ele>
        <time>2018-06-30T17:58:24.000Z</time>
      </trkpt>
      <trkpt lat="45.89055" lon="-0.91544">
        <ele>8</ele>
        <time>2018-06-30T17:58:25.000Z</time>
      </trkpt>
      <trkpt lat="45.89056" lon="-0.91545">
        <ele>8</ele>
        <time>2018-06-30T17:58:26.000Z</time>
      </trkpt>
      <trkpt lat="45.89057" lon="-0.91545">
        <ele>8</ele>
        <time>2018-06-30T17:58:27.000Z</time>
      </trkpt>
      <trkpt lat="45.89059" lon="-0.91545">
        <ele>8</ele>
        <time>2018-06-30T17:58:28.000Z</time>
      </trkpt>
      <trkpt lat="45.8906" lon="-0.91545">
        <ele>9</ele>
        <time>2018-06-30T17:58:29.000Z</time>
      </trkpt>
      <trkpt lat="45.89061" lon="-0.91546">
        <ele>9</ele>
        <time>2018-06-30T17:58:30.000Z</time>
      </trkpt>
      <trkpt lat="45.89063" lon="-0.91546">
        <ele>9</ele>
        <time>2018-06-30T17:58:31.000Z</time>
      </trkpt>
      <trkpt lat="45.89064" lon="-0.91547">
        <ele>9</ele>
        <time>2018-06-30T17:58:32.000Z</time>
      </trkpt>
      <trkpt lat="45.89065" lon="-0.91547">
        <ele>9</ele>
        <time>2018-06-30T17:58:33.000Z</time>
      </trkpt>
      <trkpt lat="45.89066" lon="-0.91547">
        <ele>9</ele>
        <time>2018-06-30T17:58:34.000Z</time>
      </trkpt>
      <trkpt lat="45.89067" lon="-0.91546">
        <ele>9</ele>
        <time>2018-06-30T17:58:35.000Z</time>
      </trkpt>
      <trkpt lat="45.89069" lon="-0.91546">
        <ele>8</ele>
        <time>2018-06-30T17:58:36.000Z</time>
      </trkpt>
      <trkpt lat="45.8907" lon="-0.91546">
        <ele>8</ele>
        <time>2018-06-30T17:58:37.000Z</time>
      </trkpt>
      <trkpt lat="45.89071" lon="-0.91546">
        <ele>8</ele>
        <time>2018-06-30T17:58:38.000Z</time>
      </trkpt>
      <trkpt lat="45.89072" lon="-0.91546">
        <ele>8</ele>
        <time>2018-06-30T17:58:39.000Z</time>
      </trkpt>
      <trkpt lat="45.89073" lon="-0.91546">
        <ele>8</ele>
        <time>2018-06-30T17:58:40.000Z</time>
      </trkpt>
      <trkpt lat="45.89075" lon="-0.91546">
        <ele>8</ele>
        <time>2018-06-30T17:58:41.000Z</time>
      </trkpt>
      <trkpt lat="45.89076" lon="-0.91546">
        <ele>9</ele>
        <time>2018-06-30T17:58:42.000Z</time>
      </trkpt>
      <trkpt lat="45.89077" lon="-0.91546">
        <ele>8</ele>
        <time>2018-06-30T17:58:43.000Z</time>
      </trkpt>
      <trkpt lat="45.89078" lon="-0.91546">
        <ele>9</ele>
        <time>2018-06-30T17:58:44.000Z</time>
      </trkpt>
      <trkpt lat="45.89079" lon="-0.91546">
        <ele>9</ele>
        <time>2018-06-30T17:58:45.000Z</time>
      </trkpt>
      <trkpt lat="45.8908" lon="-0.91546">
        <ele>9</ele>
        <time>2018-06-30T17:58:46.000Z</time>
      </trkpt>
      <trkpt lat="45.89081" lon="-0.91546">
        <ele>9</ele>
        <time>2018-06-30T17:58:47.000Z</time>
      </trkpt>
      <trkpt lat="45.89082" lon="-0.91546">
        <ele>9</ele>
        <time>2018-06-30T17:58:48.000Z</time>
      </trkpt>
      <trkpt lat="45.89083" lon="-0.91546">
        <ele>8</ele>
        <time>2018-06-30T17:58:49.000Z</time>
      </trkpt>
      <trkpt lat="45.89084" lon="-0.91545">
        <ele>8</ele>
        <time>2018-06-30T17:58:50.000Z</time>
      </trkpt>
      <trkpt lat="45.89085" lon="-0.91544">
        <ele>8</ele>
        <time>2018-06-30T17:58:51.000Z</time>
      </trkpt>
      <trkpt lat="45.89086" lon="-0.91544">
        <ele>8</ele>
        <time>2018-06-30T17:58:52.000Z</time>
      </trkpt>
      <trkpt lat="45.89086" lon="-0.91543">
        <ele>7</ele>
        <time>2018-06-30T17:58:53.000Z</time>
      </trkpt>
      <trkpt lat="45.89087" lon="-0.91542">
        <ele>7</ele>
        <time>2018-06-30T17:58:54.000Z</time>
      </trkpt>
      <trkpt lat="45.89088" lon="-0.91541">
        <ele>7</ele>
        <time>2018-06-30T17:58:55.000Z</time>
      </trkpt>
      <trkpt lat="45.89089" lon="-0.9154">
        <ele>7</ele>
        <time>2018-06-30T17:58:56.000Z</time>
      </trkpt>
      <trkpt lat="45.89089" lon="-0.91539">
        <ele>7</ele>
        <time>2018-06-30T17:58:57.000Z</time>
      </trkpt>
      <trkpt lat="45.8909" lon="-0.91538">
        <ele>6</ele>
        <time>2018-06-30T17:58:58.000Z</time>
      </trkpt>
      <trkpt lat="45.89091" lon="-0.91537">
        <ele>5</ele>
        <time>2018-06-30T17:58:59.000Z</time>
      </trkpt>
      <trkpt lat="45.89092" lon="-0.91536">
        <ele>5</ele>
        <time>2018-06-30T17:59:00.000Z</time>
      </trkpt>
      <trkpt lat="45.89093" lon="-0.91536">
        <ele>5</ele>
        <time>2018-06-30T17:59:01.000Z</time>
      </trkpt>
      <trkpt lat="45.89094" lon="-0.91535">
        <ele>4</ele>
        <time>2018-06-30T17:59:02.000Z</time>
      </trkpt>
      <trkpt lat="45.89095" lon="-0.91535">
        <ele>4</ele>
        <time>2018-06-30T17:59:03.000Z</time>
      </trkpt>
      <trkpt lat="45.89096" lon="-0.91534">
        <ele>4</ele>
        <time>2018-06-30T17:59:04.000Z</time>
      </trkpt>
      <trkpt lat="45.89096" lon="-0.91533">
        <ele>4</ele>
        <time>2018-06-30T17:59:05.000Z</time>
      </trkpt>
      <trkpt lat="45.89097" lon="-0.91532">
        <ele>4</ele>
        <time>2018-06-30T17:59:06.000Z</time>
      </trkpt>
      <trkpt lat="45.89098" lon="-0.91531">
        <ele>3</ele>
        <time>2018-06-30T17:59:07.000Z</time>
      </trkpt>
      <trkpt lat="45.89099" lon="-0.91531">
        <ele>3</ele>
        <time>2018-06-30T17:59:08.000Z</time>
      </trkpt>
      <trkpt lat="45.891" lon="-0.9153">
        <ele>3</ele>
        <time>2018-06-30T17:59:09.000Z</time>
      </trkpt>
      <trkpt lat="45.89101" lon="-0.91529">
        <ele>3</ele>
        <time>2018-06-30T17:59:10.000Z</time>
      </trkpt>
      <trkpt lat="45.89102" lon="-0.91528">
        <ele>2</ele>
        <time>2018-06-30T17:59:11.000Z</time>
      </trkpt>
      <trkpt lat="45.89103" lon="-0.91527">
        <ele>2</ele>
        <time>2018-06-30T17:59:12.000Z</time>
      </trkpt>
      <trkpt lat="45.89104" lon="-0.91527">
        <ele>2</ele>
        <time>2018-06-30T17:59:13.000Z</time>
      </trkpt>
      <trkpt lat="45.89105" lon="-0.91526">
        <ele>2</ele>
        <time>2018-06-30T17:59:14.000Z</time>
      </trkpt>
      <trkpt lat="45.89106" lon="-0.91526">
        <ele>2</ele>
        <time>2018-06-30T17:59:15.000Z</time>
      </trkpt>
      <trkpt lat="45.89108" lon="-0.91525">
        <ele>3</ele>
        <time>2018-06-30T17:59:16.000Z</time>
      </trkpt>
      <trkpt lat="45.89109" lon="-0.91525">
        <ele>2</ele>
        <time>2018-06-30T17:59:17.000Z</time>
      </trkpt>
      <trkpt lat="45.8911" lon="-0.91525">
        <ele>2</ele>
        <time>2018-06-30T17:59:18.000Z</time>
      </trkpt>
      <trkpt lat="45.89111" lon="-0.91526">
        <ele>2</ele>
        <time>2018-06-30T17:59:19.000Z</time>
      </trkpt>
      <trkpt lat="45.89111" lon="-0.91526">
        <ele>2</ele>
        <time>2018-06-30T17:59:20.000Z</time>
      </trkpt>
      <trkpt lat="45.89112" lon="-0.91526">
        <ele>2</ele>
        <time>2018-06-30T17:59:21.000Z</time>
      </trkpt>
      <trkpt lat="45.89113" lon="-0.91527">
        <ele>2</ele>
        <time>2018-06-30T17:59:22.000Z</time>
      </trkpt>
      <trkpt lat="45.89114" lon="-0.91527">
        <ele>2</ele>
        <time>2018-06-30T17:59:23.000Z</time>
      </trkpt>
      <trkpt lat="45.89115" lon="-0.91528">
        <ele>2</ele>
        <time>2018-06-30T17:59:24.000Z</time>
      </trkpt>
      <trkpt lat="45.89116" lon="-0.91528">
        <ele>2</ele>
        <time>2018-06-30T17:59:25.000Z</time>
      </trkpt>
      <trkpt lat="45.89117" lon="-0.91528">
        <ele>2</ele>
        <time>2018-06-30T17:59:26.000Z</time>
      </trkpt>
      <trkpt lat="45.89118" lon="-0.91529">
        <ele>2</ele>
        <time>2018-06-30T17:59:27.000Z</time>
      </trkpt>
      <trkpt lat="45.89119" lon="-0.9153">
        <ele>2</ele>
        <time>2018-06-30T17:59:28.000Z</time>
      </trkpt>
      <trkpt lat="45.8912" lon="-0.9153">
        <ele>2</ele>
        <time>2018-06-30T17:59:29.000Z</time>
      </trkpt>
      <trkpt lat="45.89121" lon="-0.91531">
        <ele>2</ele>
        <time>2018-06-30T17:59:30.000Z</time>
      </trkpt>
      <trkpt lat="45.89122" lon="-0.91532">
        <ele>2</ele>
        <time>2018-06-30T17:59:31.000Z</time>
      </trkpt>
      <trkpt lat="45.89123" lon="-0.91533">
        <ele>2</ele>
        <time>2018-06-30T17:59:32.000Z</time>
      </trkpt>
      <trkpt lat="45.89124" lon="-0.91534">
        <ele>2</ele>
        <time>2018-06-30T17:59:33.000Z</time>
      </trkpt>
      <trkpt lat="45.89125" lon="-0.91535">
        <ele>2</ele>
        <time>2018-06-30T17:59:34.000Z</time>
      </trkpt>
      <trkpt lat="45.89126" lon="-0.91536">
        <ele>2</ele>
        <time>2018-06-30T17:59:35.000Z</time>
      </trkpt>
      <trkpt lat="45.89126" lon="-0.91537">
        <ele>2</ele>
        <time>2018-06-30T17:59:36.000Z</time>
      </trkpt>
      <trkpt lat="45.89127" lon="-0.91538">
        <ele>2</ele>
        <time>2018-06-30T17:59:37.000Z</time>
      </trkpt>
      <trkpt lat="45.89128" lon="-0.91538">
        <ele>2</ele>
        <time>2018-06-30T17:59:38.000Z</time>
      </trkpt>
      <trkpt lat="45.89129" lon="-0.91539">
        <ele>2</ele>
        <time>2018-06-30T17:59:39.000Z</time>
      </trkpt>
      <trkpt lat="45.8913" lon="-0.9154">
        <ele>2</ele>
        <time>2018-06-30T17:59:40.000Z</time>
      </trkpt>
      <trkpt lat="45.8913" lon="-0.91541">
        <ele>1</ele>
        <time>2018-06-30T17:59:41.000Z</time>
      </trkpt>
      <trkpt lat="45.89131" lon="-0.91542">
        <ele>1</ele>
        <time>2018-06-30T17:59:42.000Z</time>
      </trkpt>
      <trkpt lat="45.89132" lon="-0.91542">
        <ele>1</ele>
        <time>2018-06-30T17:59:43.000Z</time>
      </trkpt>
      <trkpt lat="45.89133" lon="-0.91543">
        <ele>1</ele>
        <time>2018-06-30T17:59:44.000Z</time>
      </trkpt>
      <trkpt lat="45.89134" lon="-0.91544">
        <ele>2</ele>
        <time>2018-06-30T17:59:45.000Z</time>
      </trkpt>
      <trkpt lat="45.89135" lon="-0.91545">
        <ele>2</ele>
        <time>2018-06-30T17:59:46.000Z</time>
      </trkpt>
      <trkpt lat="45.89136" lon="-0.91546">
        <ele>2</ele>
        <time>2018-06-30T17:59:47.000Z</time>
      </trkpt>
      <trkpt lat="45.89137" lon="-0.91547">
        <ele>2</ele>
        <time>2018-06-30T17:59:48.000Z</time>
      </trkpt>
      <trkpt lat="45.89137" lon="-0.91548">
        <ele>2</ele>
        <time>2018-06-30T17:59:49.000Z</time>
      </trkpt>
      <trkpt lat="45.89138" lon="-0.91548">
        <ele>1</ele>
        <time>2018-06-30T17:59:50.000Z</time>
      </trkpt>
      <trkpt lat="45.89139" lon="-0.91549">
        <ele>2</ele>
        <time>2018-06-30T17:59:51.000Z</time>
      </trkpt>
      <trkpt lat="45.89139" lon="-0.9155">
        <ele>1</ele>
        <time>2018-06-30T17:59:52.000Z</time>
      </trkpt>
      <trkpt lat="45.8914" lon="-0.91551">
        <ele>1</ele>
        <time>2018-06-30T17:59:53.000Z</time>
      </trkpt>
      <trkpt lat="45.89141" lon="-0.91552">
        <ele>1</ele>
        <time>2018-06-30T17:59:54.000Z</time>
      </trkpt>
      <trkpt lat="45.89141" lon="-0.91552">
        <ele>1</ele>
        <time>2018-06-30T17:59:55.000Z</time>
      </trkpt>
      <trkpt lat="45.89142" lon="-0.91553">
        <ele>1</ele>
        <time>2018-06-30T17:59:56.000Z</time>
      </trkpt>
      <trkpt lat="45.89143" lon="-0.91554">
        <ele>1</ele>
        <time>2018-06-30T17:59:57.000Z</time>
      </trkpt>
      <trkpt lat="45.89143" lon="-0.91555">
        <ele>1</ele>
        <time>2018-06-30T17:59:58.000Z</time>
      </trkpt>
      <trkpt lat="45.89144" lon="-0.91555">
        <ele>1</ele>
        <time>2018-06-30T17:59:59.000Z</time>
      </trkpt>
      <trkpt lat="45.89145" lon="-0.91556">
        <ele>1</ele>
        <time>2018-06-30T18:00:00.000Z</time>
      </trkpt>
      <trkpt lat="45.89145" lon="-0.91557">
        <ele>1</ele>
        <time>2018-06-30T18:00:01.000Z</time>
      </trkpt>
      <trkpt lat="45.89146" lon="-0.91558">
        <ele>1</ele>
        <time>2018-06-30T18:00:02.000Z</time>
      </trkpt>
      <trkpt lat="45.89147" lon="-0.91559">
        <ele>1</ele>
        <time>2018-06-30T18:00:03.000Z</time>
      </trkpt>
      <trkpt lat="45.89148" lon="-0.9156">
        <ele>1</ele>
        <time>2018-06-30T18:00:04.000Z</time>
      </trkpt>
      <trkpt lat="45.89149" lon="-0.91561">
        <ele>2</ele>
        <time>2018-06-30T18:00:05.000Z</time>
      </trkpt>
      <trkpt lat="45.89149" lon="-0.91562">
        <ele>2</ele>
        <time>2018-06-30T18:00:06.000Z</time>
      </trkpt>
      <trkpt lat="45.8915" lon="-0.91563">
        <ele>1</ele>
        <time>2018-06-30T18:00:07.000Z</time>
      </trkpt>
      <trkpt lat="45.8915" lon="-0.91564">
        <ele>2</ele>
        <time>2018-06-30T18:00:08.000Z</time>
      </trkpt>
      <trkpt lat="45.89151" lon="-0.91565">
        <ele>2</ele>
        <time>2018-06-30T18:00:09.000Z</time>
      </trkpt>
      <trkpt lat="45.89151" lon="-0.91567">
        <ele>2</ele>
        <time>2018-06-30T18:00:10.000Z</time>
      </trkpt>
      <trkpt lat="45.89152" lon="-0.91568">
        <ele>2</ele>
        <time>2018-06-30T18:00:11.000Z</time>
      </trkpt>
      <trkpt lat="45.89152" lon="-0.91569">
        <ele>2</ele>
        <time>2018-06-30T18:00:12.000Z</time>
      </trkpt>
      <trkpt lat="45.89152" lon="-0.9157">
        <ele>2</ele>
        <time>2018-06-30T18:00:13.000Z</time>
      </trkpt>
      <trkpt lat="45.89152" lon="-0.91571">
        <ele>2</ele>
        <time>2018-06-30T18:00:14.000Z</time>
      </trkpt>
      <trkpt lat="45.89152" lon="-0.91571">
        <ele>2</ele>
        <time>2018-06-30T18:00:15.000Z</time>
      </trkpt>
      <trkpt lat="45.89152" lon="-0.91572">
        <ele>2</ele>
        <time>2018-06-30T18:00:16.000Z</time>
      </trkpt>
      <trkpt lat="45.89152" lon="-0.91572">
        <ele>2</ele>
        <time>2018-06-30T18:00:17.000Z</time>
      </trkpt>
      <trkpt lat="45.89153" lon="-0.91572">
        <ele>2</ele>
        <time>2018-06-30T18:00:18.000Z</time>
      </trkpt>
      <trkpt lat="45.89153" lon="-0.91573">
        <ele>2</ele>
        <time>2018-06-30T18:00:19.000Z</time>
      </trkpt>
      <trkpt lat="45.89153" lon="-0.91573">
        <ele>3</ele>
        <time>2018-06-30T18:00:20.000Z</time>
      </trkpt>
      <trkpt lat="45.89153" lon="-0.91573">
        <ele>3</ele>
        <time>2018-06-30T18:00:21.000Z</time>
      </trkpt>
      <trkpt lat="45.89153" lon="-0.91573">
        <ele>3</ele>
        <time>2018-06-30T18:00:22.000Z</time>
      </trkpt>
      <trkpt lat="45.89153" lon="-0.91573">
        <ele>2</ele>
        <time>2018-06-30T18:00:23.000Z</time>
      </trkpt>
      <trkpt lat="45.89154" lon="-0.91574">
        <ele>3</ele>
        <time>2018-06-30T18:00:24.000Z</time>
      </trkpt>
      <trkpt lat="45.89154" lon="-0.91574">
        <ele>3</ele>
        <time>2018-06-30T18:00:25.000Z</time>
      </trkpt>
      <trkpt lat="45.89154" lon="-0.91575">
        <ele>3</ele>
        <time>2018-06-30T18:00:26.000Z</time>
      </trkpt>
      <trkpt lat="45.89154" lon="-0.91575">
        <ele>3</ele>
        <time>2018-06-30T18:00:27.000Z</time>
      </trkpt>
      <trkpt lat="45.89154" lon="-0.91576">
        <ele>3</ele>
        <time>2018-06-30T18:00:28.000Z</time>
      </trkpt>
      <trkpt lat="45.89155" lon="-0.91577">
        <ele>3</ele>
        <time>2018-06-30T18:00:29.000Z</time>
      </trkpt>
      <trkpt lat="45.89155" lon="-0.91577">
        <ele>3</ele>
        <time>2018-06-30T18:00:30.000Z</time>
      </trkpt>
      <trkpt lat="45.89155" lon="-0.91578">
        <ele>3</ele>
        <time>2018-06-30T18:00:31.000Z</time>
      </trkpt>
      <trkpt lat="45.89155" lon="-0.91579">
        <ele>2</ele>
        <time>2018-06-30T18:00:32.000Z</time>
      </trkpt>
      <trkpt lat="45.89156" lon="-0.91579">
        <ele>2</ele>
        <time>2018-06-30T18:00:33.000Z</time>
      </trkpt>
      <trkpt lat="45.89156" lon="-0.91579">
        <ele>2</ele>
        <time>2018-06-30T18:00:34.000Z</time>
      </trkpt>
      <trkpt lat="45.89156" lon="-0.91579">
        <ele>2</ele>
        <time>2018-06-30T18:00:35.000Z</time>
      </trkpt>
      <trkpt lat="45.89156" lon="-0.91579">
        <ele>2</ele>
        <time>2018-06-30T18:00:36.000Z</time>
      </trkpt>
      <trkpt lat="45.89156" lon="-0.9158">
        <ele>2</ele>
        <time>2018-06-30T18:00:37.000Z</time>
      </trkpt>
      <trkpt lat="45.89156" lon="-0.9158">
        <ele>2</ele>
        <time>2018-06-30T18:00:38.000Z</time>
      </trkpt>
      <trkpt lat="45.89156" lon="-0.91581">
        <ele>1</ele>
        <time>2018-06-30T18:00:39.000Z</time>
      </trkpt>
      <trkpt lat="45.89156" lon="-0.91581">
        <ele>2</ele>
        <time>2018-06-30T18:00:40.000Z</time>
      </trkpt>
      <trkpt lat="45.89156" lon="-0.91581">
        <ele>2</ele>
        <time>2018-06-30T18:00:41.000Z</time>
      </trkpt>
      <trkpt lat="45.89156" lon="-0.91581">
        <ele>2</ele>
        <time>2018-06-30T18:00:42.000Z</time>
      </trkpt>
      <trkpt lat="45.89156" lon="-0.91581">
        <ele>2</ele>
        <time>2018-06-30T18:00:43.000Z</time>
      </trkpt>
      <trkpt lat="45.89156" lon="-0.91581">
        <ele>2</ele>
        <time>2018-06-30T18:00:44.000Z</time>
      </trkpt>
      <trkpt lat="45.89156" lon="-0.91581">
        <ele>2</ele>
        <time>2018-06-30T18:00:45.000Z</time>
      </trkpt>
      <trkpt lat="45.89155" lon="-0.91582">
        <ele>2</ele>
        <time>2018-06-30T18:00:46.000Z</time>
      </trkpt>
      <trkpt lat="45.89155" lon="-0.91582">
        <ele>2</ele>
        <time>2018-06-30T18:00:47.000Z</time>
      </trkpt>
      <trkpt lat="45.89155" lon="-0.91582">
        <ele>2</ele>
        <time>2018-06-30T18:00:48.000Z</time>
      </trkpt>
      <trkpt lat="45.89155" lon="-0.91582">
        <ele>2</ele>
        <time>2018-06-30T18:00:49.000Z</time>
      </trkpt>
      <trkpt lat="45.89155" lon="-0.91582">
        <ele>1</ele>
        <time>2018-06-30T18:00:50.000Z</time>
      </trkpt>
      <trkpt lat="45.89155" lon="-0.91583">
        <ele>1</ele>
        <time>2018-06-30T18:00:51.000Z</time>
      </trkpt>
      <trkpt lat="45.89155" lon="-0.91583">
        <ele>1</ele>
        <time>2018-06-30T18:00:52.000Z</time>
      </trkpt>
      <trkpt lat="45.89155" lon="-0.91584">
        <ele>1</ele>
        <time>2018-06-30T18:00:53.000Z</time>
      </trkpt>
      <trkpt lat="45.89155" lon="-0.91584">
        <ele>1</ele>
        <time>2018-06-30T18:00:54.000Z</time>
      </trkpt>
      <trkpt lat="45.89155" lon="-0.91584">
        <ele>1</ele>
        <time>2018-06-30T18:00:55.000Z</time>
      </trkpt>
      <trkpt lat="45.89155" lon="-0.91584">
        <ele>1</ele>
        <time>2018-06-30T18:00:56.000Z</time>
      </trkpt>
      <trkpt lat="45.89155" lon="-0.91584">
        <ele>1</ele>
        <time>2018-06-30T18:00:57.000Z</time>
      </trkpt>
      <trkpt lat="45.89155" lon="-0.91584">
        <ele>1</ele>
        <time>2018-06-30T18:00:58.000Z</time>
      </trkpt>
      <trkpt lat="45.89155" lon="-0.91584">
        <ele>1</ele>
        <time>2018-06-30T18:00:59.000Z</time>
      </trkpt>
      <trkpt lat="45.89155" lon="-0.91584">
        <ele>1</ele>
        <time>2018-06-30T18:01:00.000Z</time>
      </trkpt>
      <trkpt lat="45.89155" lon="-0.91584">
        <ele>1</ele>
        <time>2018-06-30T18:01:01.000Z</time>
      </trkpt>
      <trkpt lat="45.89155" lon="-0.91584">
        <ele>5.6</ele>
        <time>2018-06-30T18:01:02.000Z</time>
      </trkpt>
      <trkpt lat="45.89155" lon="-0.91584">
        <ele>5.6</ele>
        <time>2018-06-30T18:01:03.000Z</time>
      </trkpt>
      <trkpt lat="45.89155" lon="-0.91584">
        <ele>5.6</ele>
        <time>2018-06-30T18:01:04.000Z</time>
      </trkpt>
      <trkpt lat="45.89156" lon="-0.91584">
        <ele>5.6</ele>
        <time>2018-06-30T18:01:05.000Z</time>
      </trkpt>
      <trkpt lat="45.89156" lon="-0.91584">
        <ele>5.6</ele>
        <time>2018-06-30T18:01:06.000Z</time>
      </trkpt>
      <trkpt lat="45.89156" lon="-0.91584">
        <ele>5.6</ele>
        <time>2018-06-30T18:01:07.000Z</time>
      </trkpt>
      <trkpt lat="45.89156" lon="-0.91584">
        <ele>5.6</ele>
        <time>2018-06-30T18:01:08.000Z</time>
      </trkpt>
      <trkpt lat="45.89156" lon="-0.91584">
        <ele>5.6</ele>
        <time>2018-06-30T18:01:09.000Z</time>
      </trkpt>
      <trkpt lat="45.89156" lon="-0.91584">
        <ele>5.6</ele>
        <time>2018-06-30T18:01:10.000Z</time>
      </trkpt>
      <trkpt lat="45.89156" lon="-0.91584">
        <ele>5.6</ele>
        <time>2018-06-30T18:01:11.000Z</time>
      </trkpt>
      <trkpt lat="45.89156" lon="-0.91584">
        <ele>5.6</ele>
        <time>2018-06-30T18:01:12.000Z</time>
      </trkpt>
      <trkpt lat="45.89156" lon="-0.91584">
        <ele>5.6</ele>
        <time>2018-06-30T18:01:13.000Z</time>
      </trkpt>
      <trkpt lat="45.89156" lon="-0.91585">
        <ele>5.6</ele>
        <time>2018-06-30T18:01:14.000Z</time>
      </trkpt>
      <trkpt lat="45.89156" lon="-0.91585">
        <ele>5.6</ele>
        <time>2018-06-30T18:01:15.000Z</time>
      </trkpt>
      <trkpt lat="45.89156" lon="-0.91585">
        <ele>5.6</ele>
        <time>2018-06-30T18:01:16.000Z</time>
      </trkpt>
      <trkpt lat="45.89156" lon="-0.91585">
        <ele>5.6</ele>
        <time>2018-06-30T18:01:17.000Z</time>
      </trkpt>
      <trkpt lat="45.89156" lon="-0.91585">
        <ele>1</ele>
        <time>2018-06-30T18:01:18.000Z</time>
      </trkpt>
      <trkpt lat="45.89156" lon="-0.91585">
        <ele>5.6</ele>
        <time>2018-06-30T18:01:19.000Z</time>
      </trkpt>
      <trkpt lat="45.89156" lon="-0.91585">
        <ele>5.6</ele>
        <time>2018-06-30T18:01:20.000Z</time>
      </trkpt>
      <trkpt lat="45.89156" lon="-0.91585">
        <ele>5.6</ele>
        <time>2018-06-30T18:01:21.000Z</time>
      </trkpt>
      <trkpt lat="45.89156" lon="-0.91585">
        <ele>5.6</ele>
        <time>2018-06-30T18:01:22.000Z</time>
      </trkpt>
      <trkpt lat="45.89156" lon="-0.91586">
        <ele>5.5</ele>
        <time>2018-06-30T18:01:23.000Z</time>
      </trkpt>
      <trkpt lat="45.89156" lon="-0.91586">
        <ele>5.5</ele>
        <time>2018-06-30T18:01:24.000Z</time>
      </trkpt>
      <trkpt lat="45.89156" lon="-0.91586">
        <ele>5.5</ele>
        <time>2018-06-30T18:01:25.000Z</time>
      </trkpt>
      <trkpt lat="45.89156" lon="-0.91586">
        <ele>5.5</ele>
        <time>2018-06-30T18:01:26.000Z</time>
      </trkpt>
      <trkpt lat="45.89156" lon="-0.91586">
        <ele>5.5</ele>
        <time>2018-06-30T18:01:27.000Z</time>
      </trkpt>
      <trkpt lat="45.89157" lon="-0.91586">
        <ele>5.5</ele>
        <time>2018-06-30T18:01:28.000Z</time>
      </trkpt>
      <trkpt lat="45.89157" lon="-0.91586">
        <ele>5.5</ele>
        <time>2018-06-30T18:01:29.000Z</time>
      </trkpt>
      <trkpt lat="45.89157" lon="-0.91586">
        <ele>5.5</ele>
        <time>2018-06-30T18:01:30.000Z</time>
      </trkpt>
      <trkpt lat="45.89157" lon="-0.91586">
        <ele>1</ele>
        <time>2018-06-30T18:01:31.000Z</time>
      </trkpt>
      <trkpt lat="45.89157" lon="-0.91586">
        <ele>1</ele>
        <time>2018-06-30T18:01:32.000Z</time>
      </trkpt>
      <trkpt lat="45.89157" lon="-0.91586">
        <ele>1</ele>
        <time>2018-06-30T18:01:33.000Z</time>
      </trkpt>
      <trkpt lat="45.89157" lon="-0.91586">
        <ele>1</ele>
        <time>2018-06-30T18:01:34.000Z</time>
      </trkpt>
      <trkpt lat="45.89156" lon="-0.91586">
        <ele>1</ele>
        <time>2018-06-30T18:01:35.000Z</time>
      </trkpt>
      <trkpt lat="45.89156" lon="-0.91586">
        <ele>1</ele>
        <time>2018-06-30T18:01:36.000Z</time>
      </trkpt>
      <trkpt lat="45.89156" lon="-0.91586">
        <ele>5.5</ele>
        <time>2018-06-30T18:01:37.000Z</time>
      </trkpt>
      <trkpt lat="45.89157" lon="-0.91586">
        <ele>5.5</ele>
        <time>2018-06-30T18:01:38.000Z</time>
      </trkpt>
      <trkpt lat="45.89157" lon="-0.91586">
        <ele>5.6</ele>
        <time>2018-06-30T18:01:39.000Z</time>
      </trkpt>
      <trkpt lat="45.89157" lon="-0.91586">
        <ele>5.6</ele>
        <time>2018-06-30T18:01:40.000Z</time>
      </trkpt>
      <trkpt lat="45.89157" lon="-0.91586">
        <ele>1</ele>
        <time>2018-06-30T18:01:41.000Z</time>
      </trkpt>
      <trkpt lat="45.89157" lon="-0.91586">
        <ele>1</ele>
        <time>2018-06-30T18:01:42.000Z</time>
      </trkpt>
      <trkpt lat="45.89157" lon="-0.91586">
        <ele>1</ele>
        <time>2018-06-30T18:01:43.000Z</time>
      </trkpt>
      <trkpt lat="45.89157" lon="-0.91586">
        <ele>1</ele>
        <time>2018-06-30T18:01:44.000Z</time>
      </trkpt>
      <trkpt lat="45.89157" lon="-0.91586">
        <ele>1</ele>
        <time>2018-06-30T18:01:45.000Z</time>
      </trkpt>
      <trkpt lat="45.89157" lon="-0.91586">
        <ele>1</ele>
        <time>2018-06-30T18:01:46.000Z</time>
      </trkpt>
      <trkpt lat="45.89157" lon="-0.91586">
        <ele>1</ele>
        <time>2018-06-30T18:01:47.000Z</time>
      </trkpt>
      <trkpt lat="45.89157" lon="-0.91586">
        <ele>2</ele>
        <time>2018-06-30T18:01:48.000Z</time>
      </trkpt>
      <trkpt lat="45.89158" lon="-0.91586">
        <ele>2</ele>
        <time>2018-06-30T18:01:49.000Z</time>
      </trkpt>
      <trkpt lat="45.89158" lon="-0.91587">
        <ele>2</ele>
        <time>2018-06-30T18:01:50.000Z</time>
      </trkpt>
      <trkpt lat="45.89158" lon="-0.91587">
        <ele>2</ele>
        <time>2018-06-30T18:01:51.000Z</time>
      </trkpt>
      <trkpt lat="45.89158" lon="-0.91586">
        <ele>2</ele>
        <time>2018-06-30T18:01:52.000Z</time>
      </trkpt>
      <trkpt lat="45.89157" lon="-0.91586">
        <ele>2</ele>
        <time>2018-06-30T18:01:53.000Z</time>
      </trkpt>
      <trkpt lat="45.89157" lon="-0.91586">
        <ele>3</ele>
        <time>2018-06-30T18:01:54.000Z</time>
      </trkpt>
      <trkpt lat="45.89157" lon="-0.91586">
        <ele>3</ele>
        <time>2018-06-30T18:01:55.000Z</time>
      </trkpt>
      <trkpt lat="45.89157" lon="-0.91586">
        <ele>2</ele>
        <time>2018-06-30T18:01:56.000Z</time>
      </trkpt>
      <trkpt lat="45.89157" lon="-0.91586">
        <ele>3</ele>
        <time>2018-06-30T18:01:57.000Z</time>
      </trkpt>
      <trkpt lat="45.89157" lon="-0.91586">
        <ele>3</ele>
        <time>2018-06-30T18:01:58.000Z</time>
      </trkpt>
      <trkpt lat="45.89157" lon="-0.91586">
        <ele>3</ele>
        <time>2018-06-30T18:01:59.000Z</time>
      </trkpt>
      <trkpt lat="45.89157" lon="-0.91586">
        <ele>3</ele>
        <time>2018-06-30T18:02:00.000Z</time>
      </trkpt>
      <trkpt lat="45.89157" lon="-0.91586">
        <ele>3</ele>
        <time>2018-06-30T18:02:01.000Z</time>
      </trkpt>
      <trkpt lat="45.89157" lon="-0.91586">
        <ele>3</ele>
        <time>2018-06-30T18:02:02.000Z</time>
      </trkpt>
      <trkpt lat="45.89157" lon="-0.91586">
        <ele>3</ele>
        <time>2018-06-30T18:02:03.000Z</time>
      </trkpt>
      <trkpt lat="45.89157" lon="-0.91586">
        <ele>2</ele>
        <time>2018-06-30T18:02:04.000Z</time>
      </trkpt>
      <trkpt lat="45.89157" lon="-0.91586">
        <ele>2</ele>
        <time>2018-06-30T18:02:05.000Z</time>
      </trkpt>
      <trkpt lat="45.89157" lon="-0.91586">
        <ele>2</ele>
        <time>2018-06-30T18:02:06.000Z</time>
      </trkpt>
      <trkpt lat="45.89157" lon="-0.91586">
        <ele>2</ele>
        <time>2018-06-30T18:02:07.000Z</time>
      </trkpt>
      <trkpt lat="45.89157" lon="-0.91586">
        <ele>2</ele>
        <time>2018-06-30T18:02:08.000Z</time>
      </trkpt>
      <trkpt lat="45.89157" lon="-0.91586">
        <ele>2</ele>
        <time>2018-06-30T18:02:09.000Z</time>
      </trkpt>
      <trkpt lat="45.89157" lon="-0.91586">
        <ele>2</ele>
        <time>2018-06-30T18:02:10.000Z</time>
      </trkpt>
      <trkpt lat="45.89157" lon="-0.91586">
        <ele>2</ele>
        <time>2018-06-30T18:02:11.000Z</time>
      </trkpt>
      <trkpt lat="45.89157" lon="-0.91586">
        <ele>2</ele>
        <time>2018-06-30T18:02:12.000Z</time>
      </trkpt>
      <trkpt lat="45.89157" lon="-0.91586">
        <ele>2</ele>
        <time>2018-06-30T18:02:13.000Z</time>
      </trkpt>
      <trkpt lat="45.89157" lon="-0.91586">
        <ele>2</ele>
        <time>2018-06-30T18:02:14.000Z</time>
      </trkpt>
      <trkpt lat="45.89157" lon="-0.91586">
        <ele>2</ele>
        <time>2018-06-30T18:02:15.000Z</time>
      </trkpt>
      <trkpt lat="45.89157" lon="-0.91586">
        <ele>2</ele>
        <time>2018-06-30T18:02:16.000Z</time>
      </trkpt>
      <trkpt lat="45.89157" lon="-0.91586">
        <ele>2</ele>
        <time>2018-06-30T18:02:17.000Z</time>
      </trkpt>
      <trkpt lat="45.89157" lon="-0.91586">
        <ele>2</ele>
        <time>2018-06-30T18:02:18.000Z</time>
      </trkpt>
      <trkpt lat="45.89157" lon="-0.91586">
        <ele>3</ele>
        <time>2018-06-30T18:02:19.000Z</time>
      </trkpt>
      <trkpt lat="45.89156" lon="-0.91585">
        <ele>2</ele>
        <time>2018-06-30T18:02:20.000Z</time>
      </trkpt>
      <trkpt lat="45.89156" lon="-0.91585">
        <ele>2</ele>
        <time>2018-06-30T18:02:21.000Z</time>
      </trkpt>
      <trkpt lat="45.89156" lon="-0.91585">
        <ele>2</ele>
        <time>2018-06-30T18:02:22.000Z</time>
      </trkpt>
      <trkpt lat="45.89156" lon="-0.91585">
        <ele>2</ele>
        <time>2018-06-30T18:02:23.000Z</time>
      </trkpt>
      <trkpt lat="45.89156" lon="-0.91585">
        <ele>2</ele>
        <time>2018-06-30T18:02:24.000Z</time>
      </trkpt>
      <trkpt lat="45.89156" lon="-0.91585">
        <ele>2</ele>
        <time>2018-06-30T18:02:25.000Z</time>
      </trkpt>
      <trkpt lat="45.89156" lon="-0.91586">
        <ele>3</ele>
        <time>2018-06-30T18:02:26.000Z</time>
      </trkpt>
      <trkpt lat="45.89156" lon="-0.91586">
        <ele>3</ele>
        <time>2018-06-30T18:02:27.000Z</time>
      </trkpt>
      <trkpt lat="45.89156" lon="-0.91586">
        <ele>3</ele>
        <time>2018-06-30T18:02:28.000Z</time>
      </trkpt>
      <trkpt lat="45.89156" lon="-0.91586">
        <ele>3</ele>
        <time>2018-06-30T18:02:29.000Z</time>
      </trkpt>
      <trkpt lat="45.89156" lon="-0.91586">
        <ele>3</ele>
        <time>2018-06-30T18:02:30.000Z</time>
      </trkpt>
      <trkpt lat="45.89156" lon="-0.91586">
        <ele>4</ele>
        <time>2018-06-30T18:02:31.000Z</time>
      </trkpt>
      <trkpt lat="45.89156" lon="-0.91586">
        <ele>4</ele>
        <time>2018-06-30T18:02:32.000Z</time>
      </trkpt>
      <trkpt lat="45.89156" lon="-0.91586">
        <ele>4</ele>
        <time>2018-06-30T18:02:33.000Z</time>
      </trkpt>
      <trkpt lat="45.89156" lon="-0.91586">
        <ele>4</ele>
        <time>2018-06-30T18:02:34.000Z</time>
      </trkpt>
      <trkpt lat="45.89156" lon="-0.91586">
        <ele>4</ele>
        <time>2018-06-30T18:02:35.000Z</time>
      </trkpt>
      <trkpt lat="45.89156" lon="-0.91586">
        <ele>4</ele>
        <time>2018-06-30T18:02:36.000Z</time>
      </trkpt>
      <trkpt lat="45.89156" lon="-0.91586">
        <ele>4</ele>
        <time>2018-06-30T18:02:37.000Z</time>
      </trkpt>
      <trkpt lat="45.89156" lon="-0.91586">
        <ele>4</ele>
        <time>2018-06-30T18:02:38.000Z</time>
      </trkpt>
      <trkpt lat="45.89156" lon="-0.91586">
        <ele>4</ele>
        <time>2018-06-30T18:02:39.000Z</time>
      </trkpt>
      <trkpt lat="45.89156" lon="-0.91586">
        <ele>4</ele>
        <time>2018-06-30T18:02:40.000Z</time>
      </trkpt>
      <trkpt lat="45.89156" lon="-0.91586">
        <ele>4</ele>
        <time>2018-06-30T18:02:41.000Z</time>
      </trkpt>
      <trkpt lat="45.89156" lon="-0.91586">
        <ele>4</ele>
        <time>2018-06-30T18:02:42.000Z</time>
      </trkpt>
      <trkpt lat="45.89156" lon="-0.91586">
        <ele>4</ele>
        <time>2018-06-30T18:02:43.000Z</time>
      </trkpt>
      <trkpt lat="45.89156" lon="-0.91586">
        <ele>4</ele>
        <time>2018-06-30T18:02:44.000Z</time>
      </trkpt>
      <trkpt lat="45.89156" lon="-0.91585">
        <ele>4</ele>
        <time>2018-06-30T18:02:45.000Z</time>
      </trkpt>
      <trkpt lat="45.89156" lon="-0.91585">
        <ele>3</ele>
        <time>2018-06-30T18:02:46.000Z</time>
      </trkpt>
      <trkpt lat="45.89156" lon="-0.91585">
        <ele>3</ele>
        <time>2018-06-30T18:02:47.000Z</time>
      </trkpt>
      <trkpt lat="45.89155" lon="-0.91585">
        <ele>3</ele>
        <time>2018-06-30T18:02:48.000Z</time>
      </trkpt>
      <trkpt lat="45.89155" lon="-0.91585">
        <ele>2</ele>
        <time>2018-06-30T18:02:49.000Z</time>
      </trkpt>
      <trkpt lat="45.89155" lon="-0.91585">
        <ele>2</ele>
        <time>2018-06-30T18:02:50.000Z</time>
      </trkpt>
      <trkpt lat="45.89155" lon="-0.91585">
        <ele>2</ele>
        <time>2018-06-30T18:02:51.000Z</time>
      </trkpt>
      <trkpt lat="45.89155" lon="-0.91585">
        <ele>2</ele>
        <time>2018-06-30T18:02:52.000Z</time>
      </trkpt>
      <trkpt lat="45.89155" lon="-0.91585">
        <ele>2</ele>
        <time>2018-06-30T18:02:53.000Z</time>
      </trkpt>
      <trkpt lat="45.89155" lon="-0.91585">
        <ele>2</ele>
        <time>2018-06-30T18:02:54.000Z</time>
      </trkpt>
      <trkpt lat="45.89155" lon="-0.91585">
        <ele>2</ele>
        <time>2018-06-30T18:02:55.000Z</time>
      </trkpt>
      <trkpt lat="45.89155" lon="-0.91585">
        <ele>2</ele>
        <time>2018-06-30T18:02:56.000Z</time>
      </trkpt>
      <trkpt lat="45.89155" lon="-0.91585">
        <ele>2</ele>
        <time>2018-06-30T18:02:57.000Z</time>
      </trkpt>
      <trkpt lat="45.89155" lon="-0.91585">
        <ele>2</ele>
        <time>2018-06-30T18:02:58.000Z</time>
      </trkpt>
      <trkpt lat="45.89155" lon="-0.91585">
        <ele>2</ele>
        <time>2018-06-30T18:02:59.000Z</time>
      </trkpt>
      <trkpt lat="45.89155" lon="-0.91585">
        <ele>2</ele>
        <time>2018-06-30T18:03:00.000Z</time>
      </trkpt>
      <trkpt lat="45.89155" lon="-0.91585">
        <ele>2</ele>
        <time>2018-06-30T18:03:01.000Z</time>
      </trkpt>
      <trkpt lat="45.89155" lon="-0.91585">
        <ele>2</ele>
        <time>2018-06-30T18:03:02.000Z</time>
      </trkpt>
      <trkpt lat="45.89155" lon="-0.91585">
        <ele>3</ele>
        <time>2018-06-30T18:03:03.000Z</time>
      </trkpt>
      <trkpt lat="45.89155" lon="-0.91585">
        <ele>3</ele>
        <time>2018-06-30T18:03:04.000Z</time>
      </trkpt>
      <trkpt lat="45.89155" lon="-0.91585">
        <ele>3</ele>
        <time>2018-06-30T18:03:05.000Z</time>
      </trkpt>
      <trkpt lat="45.89155" lon="-0.91585">
        <ele>3</ele>
        <time>2018-06-30T18:03:06.000Z</time>
      </trkpt>
      <trkpt lat="45.89155" lon="-0.91585">
        <ele>3</ele>
        <time>2018-06-30T18:03:07.000Z</time>
      </trkpt>
      <trkpt lat="45.89155" lon="-0.91585">
        <ele>3</ele>
        <time>2018-06-30T18:03:08.000Z</time>
      </trkpt>
      <trkpt lat="45.89155" lon="-0.91585">
        <ele>3</ele>
        <time>2018-06-30T18:03:09.000Z</time>
      </trkpt>
      <trkpt lat="45.89155" lon="-0.91585">
        <ele>3</ele>
        <time>2018-06-30T18:03:10.000Z</time>
      </trkpt>
      <trkpt lat="45.89155" lon="-0.91585">
        <ele>3</ele>
        <time>2018-06-30T18:03:11.000Z</time>
      </trkpt>
      <trkpt lat="45.89155" lon="-0.91585">
        <ele>3</ele>
        <time>2018-06-30T18:03:12.000Z</time>
      </trkpt>
      <trkpt lat="45.89155" lon="-0.91585">
        <ele>3</ele>
        <time>2018-06-30T18:03:13.000Z</time>
      </trkpt>
      <trkpt lat="45.89155" lon="-0.91585">
        <ele>3</ele>
        <time>2018-06-30T18:03:14.000Z</time>
      </trkpt>
      <trkpt lat="45.89155" lon="-0.91585">
        <ele>3</ele>
        <time>2018-06-30T18:03:15.000Z</time>
      </trkpt>
      <trkpt lat="45.89155" lon="-0.91585">
        <ele>4</ele>
        <time>2018-06-30T18:03:16.000Z</time>
      </trkpt>
      <trkpt lat="45.89155" lon="-0.91585">
        <ele>4</ele>
        <time>2018-06-30T18:03:17.000Z</time>
      </trkpt>
      <trkpt lat="45.89155" lon="-0.91585">
        <ele>4</ele>
        <time>2018-06-30T18:03:18.000Z</time>
      </trkpt>
      <trkpt lat="45.89155" lon="-0.91585">
        <ele>4</ele>
        <time>2018-06-30T18:03:19.000Z</time>
      </trkpt>
      <trkpt lat="45.89155" lon="-0.91585">
        <ele>4</ele>
        <time>2018-06-30T18:03:20.000Z</time>
      </trkpt>
      <trkpt lat="45.89155" lon="-0.91585">
        <ele>4</ele>
        <time>2018-06-30T18:03:21.000Z</time>
      </trkpt>
      <trkpt lat="45.89155" lon="-0.91585">
        <ele>3</ele>
        <time>2018-06-30T18:03:22.000Z</time>
      </trkpt>
      <trkpt lat="45.89155" lon="-0.91585">
        <ele>3</ele>
        <time>2018-06-30T18:03:23.000Z</time>
      </trkpt>
      <trkpt lat="45.89155" lon="-0.91585">
        <ele>3</ele>
        <time>2018-06-30T18:03:24.000Z</time>
      </trkpt>
      <trkpt lat="45.89155" lon="-0.91585">
        <ele>3</ele>
        <time>2018-06-30T18:03:25.000Z</time>
      </trkpt>
      <trkpt lat="45.89155" lon="-0.91585">
        <ele>3</ele>
        <time>2018-06-30T18:03:26.000Z</time>
      </trkpt>
      <trkpt lat="45.89155" lon="-0.91585">
        <ele>3</ele>
        <time>2018-06-30T18:03:27.000Z</time>
      </trkpt>
      <trkpt lat="45.89155" lon="-0.91585">
        <ele>3</ele>
        <time>2018-06-30T18:03:28.000Z</time>
      </trkpt>
      <trkpt lat="45.89155" lon="-0.91585">
        <ele>3</ele>
        <time>2018-06-30T18:03:29.000Z</time>
      </trkpt>
      <trkpt lat="45.89155" lon="-0.91585">
        <ele>3</ele>
        <time>2018-06-30T18:03:30.000Z</time>
      </trkpt>
      <trkpt lat="45.89155" lon="-0.91585">
        <ele>3</ele>
        <time>2018-06-30T18:03:31.000Z</time>
      </trkpt>
      <trkpt lat="45.89155" lon="-0.91585">
        <ele>3</ele>
        <time>2018-06-30T18:03:32.000Z</time>
      </trkpt>
      <trkpt lat="45.89155" lon="-0.91585">
        <ele>3</ele>
        <time>2018-06-30T18:03:33.000Z</time>
      </trkpt>
      <trkpt lat="45.89155" lon="-0.91585">
        <ele>3</ele>
        <time>2018-06-30T18:03:34.000Z</time>
      </trkpt>
      <trkpt lat="45.89155" lon="-0.91585">
        <ele>3</ele>
        <time>2018-06-30T18:03:35.000Z</time>
      </trkpt>
      <trkpt lat="45.89155" lon="-0.91585">
        <ele>4</ele>
        <time>2018-06-30T18:03:36.000Z</time>
      </trkpt>
      <trkpt lat="45.89155" lon="-0.91584">
        <ele>4</ele>
        <time>2018-06-30T18:03:37.000Z</time>
      </trkpt>
      <trkpt lat="45.89155" lon="-0.91584">
        <ele>4</ele>
        <time>2018-06-30T18:03:38.000Z</time>
      </trkpt>
      <trkpt lat="45.89154" lon="-0.91584">
        <ele>3</ele>
        <time>2018-06-30T18:03:39.000Z</time>
      </trkpt>
      <trkpt lat="45.89154" lon="-0.91584">
        <ele>4</ele>
        <time>2018-06-30T18:03:40.000Z</time>
      </trkpt>
      <trkpt lat="45.89154" lon="-0.91584">
        <ele>4</ele>
        <time>2018-06-30T18:03:41.000Z</time>
      </trkpt>
      <trkpt lat="45.89154" lon="-0.91584">
        <ele>4</ele>
        <time>2018-06-30T18:03:42.000Z</time>
      </trkpt>
      <trkpt lat="45.89155" lon="-0.91584">
        <ele>3</ele>
        <time>2018-06-30T18:03:43.000Z</time>
      </trkpt>
      <trkpt lat="45.89155" lon="-0.91584">
        <ele>4</ele>
        <time>2018-06-30T18:03:44.000Z</time>
      </trkpt>
      <trkpt lat="45.89154" lon="-0.91584">
        <ele>4</ele>
        <time>2018-06-30T18:03:45.000Z</time>
      </trkpt>
      <trkpt lat="45.89154" lon="-0.91584">
        <ele>4</ele>
        <time>2018-06-30T18:03:46.000Z</time>
      </trkpt>
      <trkpt lat="45.89154" lon="-0.91584">
        <ele>4</ele>
        <time>2018-06-30T18:03:47.000Z</time>
      </trkpt>
      <trkpt lat="45.89154" lon="-0.91584">
        <ele>4</ele>
        <time>2018-06-30T18:03:48.000Z</time>
      </trkpt>
      <trkpt lat="45.89154" lon="-0.91584">
        <ele>4</ele>
        <time>2018-06-30T18:03:49.000Z</time>
      </trkpt>
      <trkpt lat="45.89155" lon="-0.91584">
        <ele>4</ele>
        <time>2018-06-30T18:03:50.000Z</time>
      </trkpt>
      <trkpt lat="45.89155" lon="-0.91584">
        <ele>3</ele>
        <time>2018-06-30T18:03:51.000Z</time>
      </trkpt>
      <trkpt lat="45.89155" lon="-0.91584">
        <ele>3</ele>
        <time>2018-06-30T18:03:52.000Z</time>
      </trkpt>
      <trkpt lat="45.89155" lon="-0.91584">
        <ele>3</ele>
        <time>2018-06-30T18:03:53.000Z</time>
      </trkpt>
      <trkpt lat="45.89155" lon="-0.91584">
        <ele>3</ele>
        <time>2018-06-30T18:03:54.000Z</time>
      </trkpt>
      <trkpt lat="45.89155" lon="-0.91584">
        <ele>4</ele>
        <time>2018-06-30T18:03:55.000Z</time>
      </trkpt>
      <trkpt lat="45.89155" lon="-0.91584">
        <ele>4</ele>
        <time>2018-06-30T18:03:56.000Z</time>
      </trkpt>
      <trkpt lat="45.89155" lon="-0.91584">
        <ele>4</ele>
        <time>2018-06-30T18:03:57.000Z</time>
      </trkpt>
      <trkpt lat="45.89155" lon="-0.91584">
        <ele>4</ele>
        <time>2018-06-30T18:03:58.000Z</time>
      </trkpt>
      <trkpt lat="45.89155" lon="-0.91584">
        <ele>4</ele>
        <time>2018-06-30T18:03:59.000Z</time>
      </trkpt>
      <trkpt lat="45.89155" lon="-0.91585">
        <ele>5</ele>
        <time>2018-06-30T18:04:00.000Z</time>
      </trkpt>
      <trkpt lat="45.89155" lon="-0.91586">
        <ele>5</ele>
        <time>2018-06-30T18:04:01.000Z</time>
      </trkpt>
      <trkpt lat="45.89155" lon="-0.91587">
        <ele>5</ele>
        <time>2018-06-30T18:04:02.000Z</time>
      </trkpt>
      <trkpt lat="45.89155" lon="-0.91588">
        <ele>5</ele>
        <time>2018-06-30T18:04:03.000Z</time>
      </trkpt>
      <trkpt lat="45.89156" lon="-0.91589">
        <ele>6</ele>
        <time>2018-06-30T18:04:04.000Z</time>
      </trkpt>
      <trkpt lat="45.89156" lon="-0.9159">
        <ele>6</ele>
        <time>2018-06-30T18:04:05.000Z</time>
      </trkpt>
      <trkpt lat="45.89156" lon="-0.9159">
        <ele>6</ele>
        <time>2018-06-30T18:04:06.000Z</time>
      </trkpt>
      <trkpt lat="45.89157" lon="-0.9159">
        <ele>6</ele>
        <time>2018-06-30T18:04:07.000Z</time>
      </trkpt>
      <trkpt lat="45.89156" lon="-0.9159">
        <ele>5</ele>
        <time>2018-06-30T18:04:08.000Z</time>
      </trkpt>
      <trkpt lat="45.89156" lon="-0.9159">
        <ele>5</ele>
        <time>2018-06-30T18:04:09.000Z</time>
      </trkpt>
      <trkpt lat="45.89156" lon="-0.9159">
        <ele>5</ele>
        <time>2018-06-30T18:04:10.000Z</time>
      </trkpt>
      <trkpt lat="45.89156" lon="-0.9159">
        <ele>5</ele>
        <time>2018-06-30T18:04:11.000Z</time>
      </trkpt>
      <trkpt lat="45.89156" lon="-0.9159">
        <ele>5</ele>
        <time>2018-06-30T18:04:12.000Z</time>
      </trkpt>
      <trkpt lat="45.89156" lon="-0.9159">
        <ele>5</ele>
        <time>2018-06-30T18:04:13.000Z</time>
      </trkpt>
      <trkpt lat="45.89156" lon="-0.9159">
        <ele>5</ele>
        <time>2018-06-30T18:04:14.000Z</time>
      </trkpt>
      <trkpt lat="45.89156" lon="-0.9159">
        <ele>5</ele>
        <time>2018-06-30T18:04:15.000Z</time>
      </trkpt>
      <trkpt lat="45.89156" lon="-0.9159">
        <ele>5</ele>
        <time>2018-06-30T18:04:16.000Z</time>
      </trkpt>
      <trkpt lat="45.89156" lon="-0.9159">
        <ele>5</ele>
        <time>2018-06-30T18:04:17.000Z</time>
      </trkpt>
      <trkpt lat="45.89156" lon="-0.9159">
        <ele>5</ele>
        <time>2018-06-30T18:04:18.000Z</time>
      </trkpt>
      <trkpt lat="45.89156" lon="-0.9159">
        <ele>5</ele>
        <time>2018-06-30T18:04:19.000Z</time>
      </trkpt>
      <trkpt lat="45.89156" lon="-0.9159">
        <ele>5</ele>
        <time>2018-06-30T18:04:20.000Z</time>
      </trkpt>
      <trkpt lat="45.89156" lon="-0.9159">
        <ele>5</ele>
        <time>2018-06-30T18:04:21.000Z</time>
      </trkpt>
      <trkpt lat="45.89156" lon="-0.9159">
        <ele>5</ele>
        <time>2018-06-30T18:04:22.000Z</time>
      </trkpt>
      <trkpt lat="45.89156" lon="-0.9159">
        <ele>5</ele>
        <time>2018-06-30T18:04:23.000Z</time>
      </trkpt>
      <trkpt lat="45.89156" lon="-0.9159">
        <ele>5</ele>
        <time>2018-06-30T18:04:24.000Z</time>
      </trkpt>
      <trkpt lat="45.89156" lon="-0.9159">
        <ele>5</ele>
        <time>2018-06-30T18:04:25.000Z</time>
      </trkpt>
      <trkpt lat="45.89156" lon="-0.9159">
        <ele>5</ele>
        <time>2018-06-30T18:04:26.000Z</time>
      </trkpt>
      <trkpt lat="45.89156" lon="-0.9159">
        <ele>5</ele>
        <time>2018-06-30T18:04:27.000Z</time>
      </trkpt>
      <trkpt lat="45.89156" lon="-0.9159">
        <ele>5</ele>
        <time>2018-06-30T18:04:28.000Z</time>
      </trkpt>
      <trkpt lat="45.89156" lon="-0.9159">
        <ele>5</ele>
        <time>2018-06-30T18:04:29.000Z</time>
      </trkpt>
      <trkpt lat="45.89156" lon="-0.9159">
        <ele>5</ele>
        <time>2018-06-30T18:04:30.000Z</time>
      </trkpt>
      <trkpt lat="45.89156" lon="-0.9159">
        <ele>5</ele>
        <time>2018-06-30T18:04:31.000Z</time>
      </trkpt>
      <trkpt lat="45.89156" lon="-0.9159">
        <ele>5</ele>
        <time>2018-06-30T18:04:32.000Z</time>
      </trkpt>
      <trkpt lat="45.89156" lon="-0.9159">
        <ele>5</ele>
        <time>2018-06-30T18:04:33.000Z</time>
      </trkpt>
      <trkpt lat="45.89156" lon="-0.9159">
        <ele>5</ele>
        <time>2018-06-30T18:04:34.000Z</time>
      </trkpt>
      <trkpt lat="45.89157" lon="-0.91591">
        <ele>5</ele>
        <time>2018-06-30T18:04:35.000Z</time>
      </trkpt>
      <trkpt lat="45.89157" lon="-0.91591">
        <ele>6</ele>
        <time>2018-06-30T18:04:36.000Z</time>
      </trkpt>
      <trkpt lat="45.89157" lon="-0.91591">
        <ele>5</ele>
        <time>2018-06-30T18:04:37.000Z</time>
      </trkpt>
      <trkpt lat="45.89157" lon="-0.91591">
        <ele>5</ele>
        <time>2018-06-30T18:04:38.000Z</time>
      </trkpt>
      <trkpt lat="45.89157" lon="-0.91591">
        <ele>5</ele>
        <time>2018-06-30T18:04:39.000Z</time>
      </trkpt>
      <trkpt lat="45.89157" lon="-0.91591">
        <ele>5</ele>
        <time>2018-06-30T18:04:40.000Z</time>
      </trkpt>
      <trkpt lat="45.89157" lon="-0.91591">
        <ele>5</ele>
        <time>2018-06-30T18:04:41.000Z</time>
      </trkpt>
      <trkpt lat="45.89157" lon="-0.91591">
        <ele>5</ele>
        <time>2018-06-30T18:04:42.000Z</time>
      </trkpt>
      <trkpt lat="45.89157" lon="-0.91591">
        <ele>5</ele>
        <time>2018-06-30T18:04:43.000Z</time>
      </trkpt>
      <trkpt lat="45.89157" lon="-0.9159">
        <ele>6</ele>
        <time>2018-06-30T18:04:44.000Z</time>
      </trkpt>
      <trkpt lat="45.89157" lon="-0.9159">
        <ele>5</ele>
        <time>2018-06-30T18:04:45.000Z</time>
      </trkpt>
      <trkpt lat="45.89157" lon="-0.9159">
        <ele>6</ele>
        <time>2018-06-30T18:04:46.000Z</time>
      </trkpt>
      <trkpt lat="45.89157" lon="-0.9159">
        <ele>6</ele>
        <time>2018-06-30T18:04:47.000Z</time>
      </trkpt>
      <trkpt lat="45.89156" lon="-0.9159">
        <ele>6</ele>
        <time>2018-06-30T18:04:48.000Z</time>
      </trkpt>
      <trkpt lat="45.89156" lon="-0.9159">
        <ele>5</ele>
        <time>2018-06-30T18:04:49.000Z</time>
      </trkpt>
      <trkpt lat="45.89156" lon="-0.9159">
        <ele>5</ele>
        <time>2018-06-30T18:04:50.000Z</time>
      </trkpt>
      <trkpt lat="45.89156" lon="-0.9159">
        <ele>5</ele>
        <time>2018-06-30T18:04:51.000Z</time>
      </trkpt>
      <trkpt lat="45.89156" lon="-0.9159">
        <ele>5</ele>
        <time>2018-06-30T18:04:52.000Z</time>
      </trkpt>
      <trkpt lat="45.89156" lon="-0.9159">
        <ele>5</ele>
        <time>2018-06-30T18:04:53.000Z</time>
      </trkpt>
      <trkpt lat="45.89156" lon="-0.9159">
        <ele>5</ele>
        <time>2018-06-30T18:04:54.000Z</time>
      </trkpt>
      <trkpt lat="45.89157" lon="-0.9159">
        <ele>5</ele>
        <time>2018-06-30T18:04:55.000Z</time>
      </trkpt>
      <trkpt lat="45.89157" lon="-0.9159">
        <ele>5</ele>
        <time>2018-06-30T18:04:56.000Z</time>
      </trkpt>
      <trkpt lat="45.89157" lon="-0.9159">
        <ele>5</ele>
        <time>2018-06-30T18:04:57.000Z</time>
      </trkpt>
      <trkpt lat="45.89157" lon="-0.9159">
        <ele>5</ele>
        <time>2018-06-30T18:04:58.000Z</time>
      </trkpt>
      <trkpt lat="45.89157" lon="-0.9159">
        <ele>5</ele>
        <time>2018-06-30T18:04:59.000Z</time>
      </trkpt>
      <trkpt lat="45.89157" lon="-0.9159">
        <ele>4</ele>
        <time>2018-06-30T18:05:00.000Z</time>
      </trkpt>
      <trkpt lat="45.89157" lon="-0.9159">
        <ele>4</ele>
        <time>2018-06-30T18:05:01.000Z</time>
      </trkpt>
      <trkpt lat="45.89157" lon="-0.9159">
        <ele>4</ele>
        <time>2018-06-30T18:05:02.000Z</time>
      </trkpt>
      <trkpt lat="45.89157" lon="-0.9159">
        <ele>4</ele>
        <time>2018-06-30T18:05:03.000Z</time>
      </trkpt>
      <trkpt lat="45.89157" lon="-0.9159">
        <ele>5</ele>
        <time>2018-06-30T18:05:04.000Z</time>
      </trkpt>
      <trkpt lat="45.89158" lon="-0.9159">
        <ele>5</ele>
        <time>2018-06-30T18:05:05.000Z</time>
      </trkpt>
      <trkpt lat="45.89158" lon="-0.9159">
        <ele>5</ele>
        <time>2018-06-30T18:05:06.000Z</time>
      </trkpt>
      <trkpt lat="45.89158" lon="-0.9159">
        <ele>5</ele>
        <time>2018-06-30T18:05:07.000Z</time>
      </trkpt>
      <trkpt lat="45.89158" lon="-0.9159">
        <ele>5</ele>
        <time>2018-06-30T18:05:08.000Z</time>
      </trkpt>
      <trkpt lat="45.89158" lon="-0.9159">
        <ele>5</ele>
        <time>2018-06-30T18:05:09.000Z</time>
      </trkpt>
      <trkpt lat="45.89158" lon="-0.9159">
        <ele>5</ele>
        <time>2018-06-30T18:05:10.000Z</time>
      </trkpt>
      <trkpt lat="45.89158" lon="-0.9159">
        <ele>5</ele>
        <time>2018-06-30T18:05:11.000Z</time>
      </trkpt>
      <trkpt lat="45.89159" lon="-0.9159">
        <ele>5</ele>
        <time>2018-06-30T18:05:12.000Z</time>
      </trkpt>
      <trkpt lat="45.89159" lon="-0.91589">
        <ele>5</ele>
        <time>2018-06-30T18:05:13.000Z</time>
      </trkpt>
      <trkpt lat="45.89159" lon="-0.91589">
        <ele>5</ele>
        <time>2018-06-30T18:05:14.000Z</time>
      </trkpt>
      <trkpt lat="45.89159" lon="-0.91588">
        <ele>5</ele>
        <time>2018-06-30T18:05:15.000Z</time>
      </trkpt>
      <trkpt lat="45.89158" lon="-0.91588">
        <ele>5</ele>
        <time>2018-06-30T18:05:16.000Z</time>
      </trkpt>
      <trkpt lat="45.89158" lon="-0.91587">
        <ele>5</ele>
        <time>2018-06-30T18:05:17.000Z</time>
      </trkpt>
      <trkpt lat="45.89157" lon="-0.91586">
        <ele>5</ele>
        <time>2018-06-30T18:05:18.000Z</time>
      </trkpt>
      <trkpt lat="45.89157" lon="-0.91586">
        <ele>5</ele>
        <time>2018-06-30T18:05:19.000Z</time>
      </trkpt>
      <trkpt lat="45.89157" lon="-0.91585">
        <ele>4</ele>
        <time>2018-06-30T18:05:20.000Z</time>
      </trkpt>
      <trkpt lat="45.89157" lon="-0.91585">
        <ele>4</ele>
        <time>2018-06-30T18:05:21.000Z</time>
      </trkpt>
      <trkpt lat="45.89156" lon="-0.91585">
        <ele>4</ele>
        <time>2018-06-30T18:05:22.000Z</time>
      </trkpt>
      <trkpt lat="45.89156" lon="-0.91585">
        <ele>4</ele>
        <time>2018-06-30T18:05:23.000Z</time>
      </trkpt>
      <trkpt lat="45.89156" lon="-0.91585">
        <ele>4</ele>
        <time>2018-06-30T18:05:24.000Z</time>
      </trkpt>
      <trkpt lat="45.89156" lon="-0.91585">
        <ele>4</ele>
        <time>2018-06-30T18:05:25.000Z</time>
      </trkpt>
      <trkpt lat="45.89156" lon="-0.91585">
        <ele>4</ele>
        <time>2018-06-30T18:05:26.000Z</time>
      </trkpt>
      <trkpt lat="45.89156" lon="-0.91585">
        <ele>4</ele>
        <time>2018-06-30T18:05:27.000Z</time>
      </trkpt>
      <trkpt lat="45.89156" lon="-0.91585">
        <ele>4</ele>
        <time>2018-06-30T18:05:28.000Z</time>
      </trkpt>
      <trkpt lat="45.89156" lon="-0.91585">
        <ele>4</ele>
        <time>2018-06-30T18:05:29.000Z</time>
      </trkpt>
      <trkpt lat="45.89156" lon="-0.91585">
        <ele>4</ele>
        <time>2018-06-30T18:05:30.000Z</time>
      </trkpt>
      <trkpt lat="45.89156" lon="-0.91585">
        <ele>4</ele>
        <time>2018-06-30T18:05:31.000Z</time>
      </trkpt>
      <trkpt lat="45.89156" lon="-0.91585">
        <ele>4</ele>
        <time>2018-06-30T18:05:32.000Z</time>
      </trkpt>
      <trkpt lat="45.89155" lon="-0.91585">
        <ele>3</ele>
        <time>2018-06-30T18:05:33.000Z</time>
      </trkpt>
      <trkpt lat="45.89155" lon="-0.91585">
        <ele>3</ele>
        <time>2018-06-30T18:05:34.000Z</time>
      </trkpt>
      <trkpt lat="45.89155" lon="-0.91585">
        <ele>3</ele>
        <time>2018-06-30T18:05:35.000Z</time>
      </trkpt>
      <trkpt lat="45.89155" lon="-0.91585">
        <ele>3</ele>
        <time>2018-06-30T18:05:36.000Z</time>
      </trkpt>
      <trkpt lat="45.89155" lon="-0.91585">
        <ele>3</ele>
        <time>2018-06-30T18:05:37.000Z</time>
      </trkpt>
      <trkpt lat="45.89155" lon="-0.91585">
        <ele>4</ele>
        <time>2018-06-30T18:05:38.000Z</time>
      </trkpt>
      <trkpt lat="45.89155" lon="-0.91585">
        <ele>3</ele>
        <time>2018-06-30T18:05:39.000Z</time>
      </trkpt>
      <trkpt lat="45.89155" lon="-0.91585">
        <ele>3</ele>
        <time>2018-06-30T18:05:40.000Z</time>
      </trkpt>
      <trkpt lat="45.89155" lon="-0.91585">
        <ele>3</ele>
        <time>2018-06-30T18:05:41.000Z</time>
      </trkpt>
      <trkpt lat="45.89155" lon="-0.91585">
        <ele>3</ele>
        <time>2018-06-30T18:05:42.000Z</time>
      </trkpt>
      <trkpt lat="45.89155" lon="-0.91585">
        <ele>3</ele>
        <time>2018-06-30T18:05:43.000Z</time>
      </trkpt>
      <trkpt lat="45.89155" lon="-0.91585">
        <ele>3</ele>
        <time>2018-06-30T18:05:44.000Z</time>
      </trkpt>
      <trkpt lat="45.89155" lon="-0.91585">
        <ele>3</ele>
        <time>2018-06-30T18:05:45.000Z</time>
      </trkpt>
      <trkpt lat="45.89155" lon="-0.91585">
        <ele>3</ele>
        <time>2018-06-30T18:05:46.000Z</time>
      </trkpt>
      <trkpt lat="45.89155" lon="-0.91585">
        <ele>3</ele>
        <time>2018-06-30T18:05:47.000Z</time>
      </trkpt>
      <trkpt lat="45.89155" lon="-0.91585">
        <ele>3</ele>
        <time>2018-06-30T18:05:48.000Z</time>
      </trkpt>
      <trkpt lat="45.89155" lon="-0.91585">
        <ele>3</ele>
        <time>2018-06-30T18:05:49.000Z</time>
      </trkpt>
      <trkpt lat="45.89155" lon="-0.91585">
        <ele>3</ele>
        <time>2018-06-30T18:05:50.000Z</time>
      </trkpt>
      <trkpt lat="45.89155" lon="-0.91585">
        <ele>3</ele>
        <time>2018-06-30T18:05:51.000Z</time>
      </trkpt>
      <trkpt lat="45.89155" lon="-0.91585">
        <ele>3</ele>
        <time>2018-06-30T18:05:52.000Z</time>
      </trkpt>
      <trkpt lat="45.89155" lon="-0.91585">
        <ele>3</ele>
        <time>2018-06-30T18:05:53.000Z</time>
      </trkpt>
      <trkpt lat="45.89155" lon="-0.91586">
        <ele>3</ele>
        <time>2018-06-30T18:05:54.000Z</time>
      </trkpt>
      <trkpt lat="45.89155" lon="-0.91586">
        <ele>3</ele>
        <time>2018-06-30T18:05:55.000Z</time>
      </trkpt>
      <trkpt lat="45.89155" lon="-0.91586">
        <ele>3</ele>
        <time>2018-06-30T18:05:56.000Z</time>
      </trkpt>
      <trkpt lat="45.89155" lon="-0.91586">
        <ele>3</ele>
        <time>2018-06-30T18:05:57.000Z</time>
      </trkpt>
      <trkpt lat="45.89155" lon="-0.91586">
        <ele>3</ele>
        <time>2018-06-30T18:05:58.000Z</time>
      </trkpt>
      <trkpt lat="45.89155" lon="-0.91586">
        <ele>3</ele>
        <time>2018-06-30T18:05:59.000Z</time>
      </trkpt>
      <trkpt lat="45.89155" lon="-0.91586">
        <ele>3</ele>
        <time>2018-06-30T18:06:00.000Z</time>
      </trkpt>
      <trkpt lat="45.89155" lon="-0.91586">
        <ele>3</ele>
        <time>2018-06-30T18:06:01.000Z</time>
      </trkpt>
      <trkpt lat="45.89155" lon="-0.91587">
        <ele>3</ele>
        <time>2018-06-30T18:06:02.000Z</time>
      </trkpt>
      <trkpt lat="45.89155" lon="-0.91587">
        <ele>3</ele>
        <time>2018-06-30T18:06:03.000Z</time>
      </trkpt>
      <trkpt lat="45.89155" lon="-0.91587">
        <ele>3</ele>
        <time>2018-06-30T18:06:04.000Z</time>
      </trkpt>
      <trkpt lat="45.89155" lon="-0.91587">
        <ele>3</ele>
        <time>2018-06-30T18:06:05.000Z</time>
      </trkpt>
      <trkpt lat="45.89155" lon="-0.91587">
        <ele>3</ele>
        <time>2018-06-30T18:06:06.000Z</time>
      </trkpt>
      <trkpt lat="45.89155" lon="-0.91587">
        <ele>3</ele>
        <time>2018-06-30T18:06:07.000Z</time>
      </trkpt>
      <trkpt lat="45.89155" lon="-0.91587">
        <ele>3</ele>
        <time>2018-06-30T18:06:08.000Z</time>
      </trkpt>
      <trkpt lat="45.89155" lon="-0.91587">
        <ele>3</ele>
        <time>2018-06-30T18:06:09.000Z</time>
      </trkpt>
      <trkpt lat="45.89155" lon="-0.91587">
        <ele>3</ele>
        <time>2018-06-30T18:06:10.000Z</time>
      </trkpt>
      <trkpt lat="45.89155" lon="-0.91587">
        <ele>3</ele>
        <time>2018-06-30T18:06:11.000Z</time>
      </trkpt>
      <trkpt lat="45.89155" lon="-0.91587">
        <ele>3</ele>
        <time>2018-06-30T18:06:12.000Z</time>
      </trkpt>
      <trkpt lat="45.89155" lon="-0.91587">
        <ele>3</ele>
        <time>2018-06-30T18:06:13.000Z</time>
      </trkpt>
      <trkpt lat="45.89155" lon="-0.91588">
        <ele>4</ele>
        <time>2018-06-30T18:06:14.000Z</time>
      </trkpt>
      <trkpt lat="45.89155" lon="-0.91588">
        <ele>4</ele>
        <time>2018-06-30T18:06:15.000Z</time>
      </trkpt>
      <trkpt lat="45.89155" lon="-0.91588">
        <ele>4</ele>
        <time>2018-06-30T18:06:16.000Z</time>
      </trkpt>
      <trkpt lat="45.89156" lon="-0.91588">
        <ele>4</ele>
        <time>2018-06-30T18:06:17.000Z</time>
      </trkpt>
      <trkpt lat="45.89156" lon="-0.91588">
        <ele>4</ele>
        <time>2018-06-30T18:06:18.000Z</time>
      </trkpt>
      <trkpt lat="45.89156" lon="-0.91588">
        <ele>4</ele>
        <time>2018-06-30T18:06:19.000Z</time>
      </trkpt>
      <trkpt lat="45.89155" lon="-0.91588">
        <ele>4</ele>
        <time>2018-06-30T18:06:20.000Z</time>
      </trkpt>
      <trkpt lat="45.89156" lon="-0.91588">
        <ele>4</ele>
        <time>2018-06-30T18:06:21.000Z</time>
      </trkpt>
      <trkpt lat="45.89156" lon="-0.91588">
        <ele>5</ele>
        <time>2018-06-30T18:06:22.000Z</time>
      </trkpt>
      <trkpt lat="45.89156" lon="-0.91588">
        <ele>5</ele>
        <time>2018-06-30T18:06:23.000Z</time>
      </trkpt>
      <trkpt lat="45.89156" lon="-0.91588">
        <ele>5</ele>
        <time>2018-06-30T18:06:24.000Z</time>
      </trkpt>
      <trkpt lat="45.89156" lon="-0.91588">
        <ele>5</ele>
        <time>2018-06-30T18:06:25.000Z</time>
      </trkpt>
      <trkpt lat="45.89156" lon="-0.91588">
        <ele>5</ele>
        <time>2018-06-30T18:06:26.000Z</time>
      </trkpt>
      <trkpt lat="45.89155" lon="-0.91588">
        <ele>5</ele>
        <time>2018-06-30T18:06:27.000Z</time>
      </trkpt>
      <trkpt lat="45.89155" lon="-0.91588">
        <ele>4</ele>
        <time>2018-06-30T18:06:28.000Z</time>
      </trkpt>
      <trkpt lat="45.89155" lon="-0.91587">
        <ele>4</ele>
        <time>2018-06-30T18:06:29.000Z</time>
      </trkpt>
      <trkpt lat="45.89155" lon="-0.91587">
        <ele>4</ele>
        <time>2018-06-30T18:06:30.000Z</time>
      </trkpt>
      <trkpt lat="45.89155" lon="-0.91587">
        <ele>3</ele>
        <time>2018-06-30T18:06:31.000Z</time>
      </trkpt>
      <trkpt lat="45.89155" lon="-0.91587">
        <ele>3</ele>
        <time>2018-06-30T18:06:32.000Z</time>
      </trkpt>
      <trkpt lat="45.89154" lon="-0.91587">
        <ele>3</ele>
        <time>2018-06-30T18:06:33.000Z</time>
      </trkpt>
      <trkpt lat="45.89154" lon="-0.91587">
        <ele>3</ele>
        <time>2018-06-30T18:06:34.000Z</time>
      </trkpt>
      <trkpt lat="45.89154" lon="-0.91587">
        <ele>2</ele>
        <time>2018-06-30T18:06:35.000Z</time>
      </trkpt>
      <trkpt lat="45.89154" lon="-0.91587">
        <ele>2</ele>
        <time>2018-06-30T18:06:36.000Z</time>
      </trkpt>
      <trkpt lat="45.89154" lon="-0.91587">
        <ele>2</ele>
        <time>2018-06-30T18:06:37.000Z</time>
      </trkpt>
      <trkpt lat="45.89154" lon="-0.91587">
        <ele>2</ele>
        <time>2018-06-30T18:06:38.000Z</time>
      </trkpt>
      <trkpt lat="45.89154" lon="-0.91587">
        <ele>1</ele>
        <time>2018-06-30T18:06:39.000Z</time>
      </trkpt>
      <trkpt lat="45.89154" lon="-0.91586">
        <ele>1</ele>
        <time>2018-06-30T18:06:40.000Z</time>
      </trkpt>
      <trkpt lat="45.89154" lon="-0.91586">
        <ele>1</ele>
        <time>2018-06-30T18:06:41.000Z</time>
      </trkpt>
      <trkpt lat="45.89154" lon="-0.91586">
        <ele>1</ele>
        <time>2018-06-30T18:06:42.000Z</time>
      </trkpt>
      <trkpt lat="45.89154" lon="-0.91586">
        <ele>1</ele>
        <time>2018-06-30T18:06:43.000Z</time>
      </trkpt>
      <trkpt lat="45.89154" lon="-0.91586">
        <ele>5.4</ele>
        <time>2018-06-30T18:06:44.000Z</time>
      </trkpt>
      <trkpt lat="45.89153" lon="-0.91586">
        <ele>5.4</ele>
        <time>2018-06-30T18:06:45.000Z</time>
      </trkpt>
      <trkpt lat="45.89153" lon="-0.91586">
        <ele>5.4</ele>
        <time>2018-06-30T18:06:46.000Z</time>
      </trkpt>
      <trkpt lat="45.89153" lon="-0.91586">
        <ele>1</ele>
        <time>2018-06-30T18:06:47.000Z</time>
      </trkpt>
      <trkpt lat="45.89154" lon="-0.91586">
        <ele>1</ele>
        <time>2018-06-30T18:06:48.000Z</time>
      </trkpt>
      <trkpt lat="45.89154" lon="-0.91586">
        <ele>1</ele>
        <time>2018-06-30T18:06:49.000Z</time>
      </trkpt>
      <trkpt lat="45.89154" lon="-0.91586">
        <ele>1</ele>
        <time>2018-06-30T18:06:50.000Z</time>
      </trkpt>
      <trkpt lat="45.89154" lon="-0.91586">
        <ele>1</ele>
        <time>2018-06-30T18:06:51.000Z</time>
      </trkpt>
      <trkpt lat="45.89154" lon="-0.91586">
        <ele>1</ele>
        <time>2018-06-30T18:06:52.000Z</time>
      </trkpt>
      <trkpt lat="45.89154" lon="-0.91586">
        <ele>1</ele>
        <time>2018-06-30T18:06:53.000Z</time>
      </trkpt>
      <trkpt lat="45.89154" lon="-0.91586">
        <ele>1</ele>
        <time>2018-06-30T18:06:54.000Z</time>
      </trkpt>
      <trkpt lat="45.89154" lon="-0.91586">
        <ele>1</ele>
        <time>2018-06-30T18:06:55.000Z</time>
      </trkpt>
      <trkpt lat="45.89154" lon="-0.91586">
        <ele>1</ele>
        <time>2018-06-30T18:06:56.000Z</time>
      </trkpt>
      <trkpt lat="45.89154" lon="-0.91586">
        <ele>5.4</ele>
        <time>2018-06-30T18:06:57.000Z</time>
      </trkpt>
      <trkpt lat="45.89154" lon="-0.91586">
        <ele>1</ele>
        <time>2018-06-30T18:06:58.000Z</time>
      </trkpt>
      <trkpt lat="45.89154" lon="-0.91586">
        <ele>1</ele>
        <time>2018-06-30T18:06:59.000Z</time>
      </trkpt>
      <trkpt lat="45.89154" lon="-0.91586">
        <ele>1</ele>
        <time>2018-06-30T18:07:00.000Z</time>
      </trkpt>
      <trkpt lat="45.89154" lon="-0.91586">
        <ele>1</ele>
        <time>2018-06-30T18:07:01.000Z</time>
      </trkpt>
      <trkpt lat="45.89154" lon="-0.91586">
        <ele>1</ele>
        <time>2018-06-30T18:07:02.000Z</time>
      </trkpt>
      <trkpt lat="45.89154" lon="-0.91586">
        <ele>1</ele>
        <time>2018-06-30T18:07:03.000Z</time>
      </trkpt>
      <trkpt lat="45.89154" lon="-0.91586">
        <ele>1</ele>
        <time>2018-06-30T18:07:04.000Z</time>
      </trkpt>
      <trkpt lat="45.89154" lon="-0.91586">
        <ele>1</ele>
        <time>2018-06-30T18:07:05.000Z</time>
      </trkpt>
      <trkpt lat="45.89154" lon="-0.91586">
        <ele>1</ele>
        <time>2018-06-30T18:07:06.000Z</time>
      </trkpt>
      <trkpt lat="45.89154" lon="-0.91587">
        <ele>1</ele>
        <time>2018-06-30T18:07:07.000Z</time>
      </trkpt>
      <trkpt lat="45.89154" lon="-0.91587">
        <ele>1</ele>
        <time>2018-06-30T18:07:08.000Z</time>
      </trkpt>
      <trkpt lat="45.89154" lon="-0.91587">
        <ele>1</ele>
        <time>2018-06-30T18:07:09.000Z</time>
      </trkpt>
      <trkpt lat="45.89155" lon="-0.91587">
        <ele>1</ele>
        <time>2018-06-30T18:07:10.000Z</time>
      </trkpt>
      <trkpt lat="45.89155" lon="-0.91587">
        <ele>1</ele>
        <time>2018-06-30T18:07:11.000Z</time>
      </trkpt>
      <trkpt lat="45.89155" lon="-0.91587">
        <ele>2</ele>
        <time>2018-06-30T18:07:12.000Z</time>
      </trkpt>
      <trkpt lat="45.89155" lon="-0.91587">
        <ele>2</ele>
        <time>2018-06-30T18:07:13.000Z</time>
      </trkpt>
      <trkpt lat="45.89155" lon="-0.91587">
        <ele>2</ele>
        <time>2018-06-30T18:07:14.000Z</time>
      </trkpt>
      <trkpt lat="45.89155" lon="-0.91587">
        <ele>2</ele>
        <time>2018-06-30T18:07:15.000Z</time>
      </trkpt>
      <trkpt lat="45.89155" lon="-0.91588">
        <ele>2</ele>
        <time>2018-06-30T18:07:16.000Z</time>
      </trkpt>
      <trkpt lat="45.89155" lon="-0.91588">
        <ele>2</ele>
        <time>2018-06-30T18:07:17.000Z</time>
      </trkpt>
      <trkpt lat="45.89156" lon="-0.91588">
        <ele>2</ele>
        <time>2018-06-30T18:07:18.000Z</time>
      </trkpt>
      <trkpt lat="45.89156" lon="-0.91588">
        <ele>2</ele>
        <time>2018-06-30T18:07:19.000Z</time>
      </trkpt>
      <trkpt lat="45.89156" lon="-0.91588">
        <ele>2</ele>
        <time>2018-06-30T18:07:20.000Z</time>
      </trkpt>
      <trkpt lat="45.89156" lon="-0.91588">
        <ele>2</ele>
        <time>2018-06-30T18:07:21.000Z</time>
      </trkpt>
      <trkpt lat="45.89156" lon="-0.91588">
        <ele>2</ele>
        <time>2018-06-30T18:07:22.000Z</time>
      </trkpt>
      <trkpt lat="45.89155" lon="-0.91588">
        <ele>3</ele>
        <time>2018-06-30T18:07:23.000Z</time>
      </trkpt>
      <trkpt lat="45.89155" lon="-0.91588">
        <ele>2</ele>
        <time>2018-06-30T18:07:24.000Z</time>
      </trkpt>
      <trkpt lat="45.89155" lon="-0.91589">
        <ele>3</ele>
        <time>2018-06-30T18:07:25.000Z</time>
      </trkpt>
      <trkpt lat="45.89155" lon="-0.91589">
        <ele>3</ele>
        <time>2018-06-30T18:07:26.000Z</time>
      </trkpt>
      <trkpt lat="45.89155" lon="-0.91589">
        <ele>3</ele>
        <time>2018-06-30T18:07:27.000Z</time>
      </trkpt>
      <trkpt lat="45.89155" lon="-0.91589">
        <ele>4</ele>
        <time>2018-06-30T18:07:28.000Z</time>
      </trkpt>
      <trkpt lat="45.89155" lon="-0.91589">
        <ele>4</ele>
        <time>2018-06-30T18:07:29.000Z</time>
      </trkpt>
      <trkpt lat="45.89155" lon="-0.91589">
        <ele>4</ele>
        <time>2018-06-30T18:07:30.000Z</time>
      </trkpt>
      <trkpt lat="45.89155" lon="-0.91589">
        <ele>4</ele>
        <time>2018-06-30T18:07:31.000Z</time>
      </trkpt>
      <trkpt lat="45.89155" lon="-0.91589">
        <ele>4</ele>
        <time>2018-06-30T18:07:32.000Z</time>
      </trkpt>
      <trkpt lat="45.89155" lon="-0.91589">
        <ele>4</ele>
        <time>2018-06-30T18:07:33.000Z</time>
      </trkpt>
      <trkpt lat="45.89155" lon="-0.9159">
        <ele>4</ele>
        <time>2018-06-30T18:07:34.000Z</time>
      </trkpt>
      <trkpt lat="45.89155" lon="-0.9159">
        <ele>4</ele>
        <time>2018-06-30T18:07:35.000Z</time>
      </trkpt>
      <trkpt lat="45.89155" lon="-0.9159">
        <ele>4</ele>
        <time>2018-06-30T18:07:36.000Z</time>
      </trkpt>
      <trkpt lat="45.89155" lon="-0.9159">
        <ele>4</ele>
        <time>2018-06-30T18:07:37.000Z</time>
      </trkpt>
      <trkpt lat="45.89155" lon="-0.9159">
        <ele>4</ele>
        <time>2018-06-30T18:07:38.000Z</time>
      </trkpt>
      <trkpt lat="45.89155" lon="-0.9159">
        <ele>4</ele>
        <time>2018-06-30T18:07:39.000Z</time>
      </trkpt>
      <trkpt lat="45.89155" lon="-0.9159">
        <ele>3</ele>
        <time>2018-06-30T18:07:40.000Z</time>
      </trkpt>
      <trkpt lat="45.89154" lon="-0.91591">
        <ele>3</ele>
        <time>2018-06-30T18:07:41.000Z</time>
      </trkpt>
      <trkpt lat="45.89154" lon="-0.91591">
        <ele>2</ele>
        <time>2018-06-30T18:07:42.000Z</time>
      </trkpt>
      <trkpt lat="45.89154" lon="-0.91591">
        <ele>2</ele>
        <time>2018-06-30T18:07:43.000Z</time>
      </trkpt>
      <trkpt lat="45.89154" lon="-0.91591">
        <ele>2</ele>
        <time>2018-06-30T18:07:44.000Z</time>
      </trkpt>
      <trkpt lat="45.89154" lon="-0.91591">
        <ele>2</ele>
        <time>2018-06-30T18:07:45.000Z</time>
      </trkpt>
      <trkpt lat="45.89154" lon="-0.91591">
        <ele>2</ele>
        <time>2018-06-30T18:07:46.000Z</time>
      </trkpt>
      <trkpt lat="45.89153" lon="-0.91591">
        <ele>2</ele>
        <time>2018-06-30T18:07:47.000Z</time>
      </trkpt>
      <trkpt lat="45.89153" lon="-0.91591">
        <ele>2</ele>
        <time>2018-06-30T18:07:48.000Z</time>
      </trkpt>
      <trkpt lat="45.89153" lon="-0.91591">
        <ele>2</ele>
        <time>2018-06-30T18:07:49.000Z</time>
      </trkpt>
      <trkpt lat="45.89153" lon="-0.91591">
        <ele>2</ele>
        <time>2018-06-30T18:07:50.000Z</time>
      </trkpt>
      <trkpt lat="45.89153" lon="-0.91591">
        <ele>2</ele>
        <time>2018-06-30T18:07:51.000Z</time>
      </trkpt>
      <trkpt lat="45.89153" lon="-0.91591">
        <ele>2</ele>
        <time>2018-06-30T18:07:52.000Z</time>
      </trkpt>
      <trkpt lat="45.89153" lon="-0.91591">
        <ele>2</ele>
        <time>2018-06-30T18:07:53.000Z</time>
      </trkpt>
      <trkpt lat="45.89153" lon="-0.91591">
        <ele>2</ele>
        <time>2018-06-30T18:07:54.000Z</time>
      </trkpt>
      <trkpt lat="45.89153" lon="-0.91591">
        <ele>1</ele>
        <time>2018-06-30T18:07:55.000Z</time>
      </trkpt>
      <trkpt lat="45.89153" lon="-0.91591">
        <ele>2</ele>
        <time>2018-06-30T18:07:56.000Z</time>
      </trkpt>
      <trkpt lat="45.89153" lon="-0.91591">
        <ele>1</ele>
        <time>2018-06-30T18:07:57.000Z</time>
      </trkpt>
      <trkpt lat="45.89153" lon="-0.91591">
        <ele>2</ele>
        <time>2018-06-30T18:07:58.000Z</time>
      </trkpt>
      <trkpt lat="45.89153" lon="-0.91591">
        <ele>2</ele>
        <time>2018-06-30T18:07:59.000Z</time>
      </trkpt>
      <trkpt lat="45.89154" lon="-0.91591">
        <ele>2</ele>
        <time>2018-06-30T18:08:00.000Z</time>
      </trkpt>
      <trkpt lat="45.89154" lon="-0.91591">
        <ele>2</ele>
        <time>2018-06-30T18:08:01.000Z</time>
      </trkpt>
      <trkpt lat="45.89154" lon="-0.91591">
        <ele>2</ele>
        <time>2018-06-30T18:08:02.000Z</time>
      </trkpt>
      <trkpt lat="45.89154" lon="-0.91591">
        <ele>2</ele>
        <time>2018-06-30T18:08:03.000Z</time>
      </trkpt>
      <trkpt lat="45.89153" lon="-0.91591">
        <ele>2</ele>
        <time>2018-06-30T18:08:04.000Z</time>
      </trkpt>
      <trkpt lat="45.89153" lon="-0.91591">
        <ele>2</ele>
        <time>2018-06-30T18:08:05.000Z</time>
      </trkpt>
      <trkpt lat="45.89153" lon="-0.91591">
        <ele>2</ele>
        <time>2018-06-30T18:08:06.000Z</time>
      </trkpt>
      <trkpt lat="45.89153" lon="-0.91591">
        <ele>2</ele>
        <time>2018-06-30T18:08:07.000Z</time>
      </trkpt>
      <trkpt lat="45.89153" lon="-0.91591">
        <ele>2</ele>
        <time>2018-06-30T18:08:08.000Z</time>
      </trkpt>
      <trkpt lat="45.89153" lon="-0.91591">
        <ele>3</ele>
        <time>2018-06-30T18:08:09.000Z</time>
      </trkpt>
      <trkpt lat="45.89153" lon="-0.91591">
        <ele>3</ele>
        <time>2018-06-30T18:08:10.000Z</time>
      </trkpt>
      <trkpt lat="45.89153" lon="-0.91591">
        <ele>3</ele>
        <time>2018-06-30T18:08:11.000Z</time>
      </trkpt>
      <trkpt lat="45.89153" lon="-0.91591">
        <ele>3</ele>
        <time>2018-06-30T18:08:12.000Z</time>
      </trkpt>
      <trkpt lat="45.89153" lon="-0.91591">
        <ele>3</ele>
        <time>2018-06-30T18:08:13.000Z</time>
      </trkpt>
      <trkpt lat="45.89153" lon="-0.91591">
        <ele>3</ele>
        <time>2018-06-30T18:08:14.000Z</time>
      </trkpt>
      <trkpt lat="45.89154" lon="-0.91591">
        <ele>3</ele>
        <time>2018-06-30T18:08:15.000Z</time>
      </trkpt>
      <trkpt lat="45.89154" lon="-0.91591">
        <ele>3</ele>
        <time>2018-06-30T18:08:16.000Z</time>
      </trkpt>
      <trkpt lat="45.89154" lon="-0.91591">
        <ele>3</ele>
        <time>2018-06-30T18:08:17.000Z</time>
      </trkpt>
      <trkpt lat="45.89154" lon="-0.91591">
        <ele>3</ele>
        <time>2018-06-30T18:08:18.000Z</time>
      </trkpt>
      <trkpt lat="45.89154" lon="-0.91591">
        <ele>3</ele>
        <time>2018-06-30T18:08:19.000Z</time>
      </trkpt>
      <trkpt lat="45.89154" lon="-0.91591">
        <ele>3</ele>
        <time>2018-06-30T18:08:20.000Z</time>
      </trkpt>
      <trkpt lat="45.89154" lon="-0.91591">
        <ele>3</ele>
        <time>2018-06-30T18:08:21.000Z</time>
      </trkpt>
      <trkpt lat="45.89153" lon="-0.9159">
        <ele>3</ele>
        <time>2018-06-30T18:08:22.000Z</time>
      </trkpt>
      <trkpt lat="45.89153" lon="-0.9159">
        <ele>3</ele>
        <time>2018-06-30T18:08:23.000Z</time>
      </trkpt>
      <trkpt lat="45.89153" lon="-0.9159">
        <ele>3</ele>
        <time>2018-06-30T18:08:24.000Z</time>
      </trkpt>
      <trkpt lat="45.89153" lon="-0.9159">
        <ele>4</ele>
        <time>2018-06-30T18:08:25.000Z</time>
      </trkpt>
      <trkpt lat="45.89153" lon="-0.9159">
        <ele>4</ele>
        <time>2018-06-30T18:08:26.000Z</time>
      </trkpt>
      <trkpt lat="45.89153" lon="-0.9159">
        <ele>4</ele>
        <time>2018-06-30T18:08:27.000Z</time>
      </trkpt>
      <trkpt lat="45.89153" lon="-0.9159">
        <ele>4</ele>
        <time>2018-06-30T18:08:28.000Z</time>
      </trkpt>
      <trkpt lat="45.89153" lon="-0.9159">
        <ele>4</ele>
        <time>2018-06-30T18:08:29.000Z</time>
      </trkpt>
      <trkpt lat="45.89153" lon="-0.9159">
        <ele>4</ele>
        <time>2018-06-30T18:08:30.000Z</time>
      </trkpt>
      <trkpt lat="45.89153" lon="-0.9159">
        <ele>4</ele>
        <time>2018-06-30T18:08:31.000Z</time>
      </trkpt>
      <trkpt lat="45.89153" lon="-0.9159">
        <ele>4</ele>
        <time>2018-06-30T18:08:32.000Z</time>
      </trkpt>
      <trkpt lat="45.89153" lon="-0.9159">
        <ele>4</ele>
        <time>2018-06-30T18:08:33.000Z</time>
      </trkpt>
      <trkpt lat="45.89153" lon="-0.9159">
        <ele>4</ele>
        <time>2018-06-30T18:08:34.000Z</time>
      </trkpt>
      <trkpt lat="45.89153" lon="-0.9159">
        <ele>5</ele>
        <time>2018-06-30T18:08:35.000Z</time>
      </trkpt>
      <trkpt lat="45.89153" lon="-0.9159">
        <ele>5</ele>
        <time>2018-06-30T18:08:36.000Z</time>
      </trkpt>
      <trkpt lat="45.89153" lon="-0.9159">
        <ele>5</ele>
        <time>2018-06-30T18:08:37.000Z</time>
      </trkpt>
      <trkpt lat="45.89153" lon="-0.9159">
        <ele>5</ele>
        <time>2018-06-30T18:08:38.000Z</time>
      </trkpt>
      <trkpt lat="45.89153" lon="-0.9159">
        <ele>5</ele>
        <time>2018-06-30T18:08:39.000Z</time>
      </trkpt>
      <trkpt lat="45.89153" lon="-0.9159">
        <ele>5</ele>
        <time>2018-06-30T18:08:40.000Z</time>
      </trkpt>
      <trkpt lat="45.89153" lon="-0.9159">
        <ele>5</ele>
        <time>2018-06-30T18:08:41.000Z</time>
      </trkpt>
      <trkpt lat="45.89153" lon="-0.9159">
        <ele>5</ele>
        <time>2018-06-30T18:08:42.000Z</time>
      </trkpt>
      <trkpt lat="45.89154" lon="-0.9159">
        <ele>5</ele>
        <time>2018-06-30T18:08:43.000Z</time>
      </trkpt>
      <trkpt lat="45.89154" lon="-0.9159">
        <ele>5</ele>
        <time>2018-06-30T18:08:44.000Z</time>
      </trkpt>
      <trkpt lat="45.89154" lon="-0.9159">
        <ele>5</ele>
        <time>2018-06-30T18:08:45.000Z</time>
      </trkpt>
      <trkpt lat="45.89154" lon="-0.9159">
        <ele>5</ele>
        <time>2018-06-30T18:08:46.000Z</time>
      </trkpt>
      <trkpt lat="45.89154" lon="-0.9159">
        <ele>5</ele>
        <time>2018-06-30T18:08:47.000Z</time>
      </trkpt>
      <trkpt lat="45.89154" lon="-0.9159">
        <ele>5</ele>
        <time>2018-06-30T18:08:48.000Z</time>
      </trkpt>
      <trkpt lat="45.89154" lon="-0.9159">
        <ele>5</ele>
        <time>2018-06-30T18:08:49.000Z</time>
      </trkpt>
      <trkpt lat="45.89154" lon="-0.9159">
        <ele>5</ele>
        <time>2018-06-30T18:08:50.000Z</time>
      </trkpt>
      <trkpt lat="45.89154" lon="-0.9159">
        <ele>5</ele>
        <time>2018-06-30T18:08:51.000Z</time>
      </trkpt>
      <trkpt lat="45.89154" lon="-0.9159">
        <ele>5</ele>
        <time>2018-06-30T18:08:52.000Z</time>
      </trkpt>
      <trkpt lat="45.89154" lon="-0.9159">
        <ele>5</ele>
        <time>2018-06-30T18:08:53.000Z</time>
      </trkpt>
      <trkpt lat="45.89154" lon="-0.9159">
        <ele>5</ele>
        <time>2018-06-30T18:08:54.000Z</time>
      </trkpt>
      <trkpt lat="45.89154" lon="-0.9159">
        <ele>5</ele>
        <time>2018-06-30T18:08:55.000Z</time>
      </trkpt>
      <trkpt lat="45.89154" lon="-0.9159">
        <ele>5</ele>
        <time>2018-06-30T18:08:56.000Z</time>
      </trkpt>
      <trkpt lat="45.89154" lon="-0.9159">
        <ele>5</ele>
        <time>2018-06-30T18:08:57.000Z</time>
      </trkpt>
      <trkpt lat="45.89154" lon="-0.9159">
        <ele>5</ele>
        <time>2018-06-30T18:08:58.000Z</time>
      </trkpt>
      <trkpt lat="45.89154" lon="-0.9159">
        <ele>5</ele>
        <time>2018-06-30T18:08:59.000Z</time>
      </trkpt>
      <trkpt lat="45.89154" lon="-0.9159">
        <ele>5</ele>
        <time>2018-06-30T18:09:00.000Z</time>
      </trkpt>
      <trkpt lat="45.89154" lon="-0.9159">
        <ele>5</ele>
        <time>2018-06-30T18:09:01.000Z</time>
      </trkpt>
      <trkpt lat="45.89154" lon="-0.9159">
        <ele>5</ele>
        <time>2018-06-30T18:09:02.000Z</time>
      </trkpt>
      <trkpt lat="45.89154" lon="-0.9159">
        <ele>5</ele>
        <time>2018-06-30T18:09:03.000Z</time>
      </trkpt>
      <trkpt lat="45.89154" lon="-0.9159">
        <ele>5</ele>
        <time>2018-06-30T18:09:04.000Z</time>
      </trkpt>
      <trkpt lat="45.89154" lon="-0.9159">
        <ele>5</ele>
        <time>2018-06-30T18:09:05.000Z</time>
      </trkpt>
      <trkpt lat="45.89154" lon="-0.91591">
        <ele>5</ele>
        <time>2018-06-30T18:09:06.000Z</time>
      </trkpt>
      <trkpt lat="45.89154" lon="-0.91591">
        <ele>6</ele>
        <time>2018-06-30T18:09:07.000Z</time>
      </trkpt>
      <trkpt lat="45.89154" lon="-0.91591">
        <ele>6</ele>
        <time>2018-06-30T18:09:08.000Z</time>
      </trkpt>
      <trkpt lat="45.89154" lon="-0.91591">
        <ele>6</ele>
        <time>2018-06-30T18:09:09.000Z</time>
      </trkpt>
      <trkpt lat="45.89154" lon="-0.91592">
        <ele>6</ele>
        <time>2018-06-30T18:09:10.000Z</time>
      </trkpt>
      <trkpt lat="45.89154" lon="-0.91592">
        <ele>6</ele>
        <time>2018-06-30T18:09:11.000Z</time>
      </trkpt>
      <trkpt lat="45.89154" lon="-0.91592">
        <ele>7</ele>
        <time>2018-06-30T18:09:12.000Z</time>
      </trkpt>
      <trkpt lat="45.89154" lon="-0.91592">
        <ele>7</ele>
        <time>2018-06-30T18:09:13.000Z</time>
      </trkpt>
      <trkpt lat="45.89154" lon="-0.91592">
        <ele>7</ele>
        <time>2018-06-30T18:09:14.000Z</time>
      </trkpt>
      <trkpt lat="45.89154" lon="-0.91593">
        <ele>7</ele>
        <time>2018-06-30T18:09:15.000Z</time>
      </trkpt>
      <trkpt lat="45.89154" lon="-0.91593">
        <ele>7</ele>
        <time>2018-06-30T18:09:16.000Z</time>
      </trkpt>
      <trkpt lat="45.89154" lon="-0.91593">
        <ele>6</ele>
        <time>2018-06-30T18:09:17.000Z</time>
      </trkpt>
      <trkpt lat="45.89154" lon="-0.91593">
        <ele>6</ele>
        <time>2018-06-30T18:09:18.000Z</time>
      </trkpt>
      <trkpt lat="45.89154" lon="-0.91593">
        <ele>6</ele>
        <time>2018-06-30T18:09:19.000Z</time>
      </trkpt>
      <trkpt lat="45.89154" lon="-0.91593">
        <ele>6</ele>
        <time>2018-06-30T18:09:20.000Z</time>
      </trkpt>
      <trkpt lat="45.89154" lon="-0.91593">
        <ele>6</ele>
        <time>2018-06-30T18:09:21.000Z</time>
      </trkpt>
      <trkpt lat="45.89154" lon="-0.91593">
        <ele>6</ele>
        <time>2018-06-30T18:09:22.000Z</time>
      </trkpt>
      <trkpt lat="45.89154" lon="-0.91593">
        <ele>5</ele>
        <time>2018-06-30T18:09:23.000Z</time>
      </trkpt>
      <trkpt lat="45.89154" lon="-0.91592">
        <ele>6</ele>
        <time>2018-06-30T18:09:24.000Z</time>
      </trkpt>
      <trkpt lat="45.89154" lon="-0.91592">
        <ele>6</ele>
        <time>2018-06-30T18:09:25.000Z</time>
      </trkpt>
      <trkpt lat="45.89154" lon="-0.91592">
        <ele>6</ele>
        <time>2018-06-30T18:09:26.000Z</time>
      </trkpt>
      <trkpt lat="45.89154" lon="-0.91592">
        <ele>6</ele>
        <time>2018-06-30T18:09:27.000Z</time>
      </trkpt>
      <trkpt lat="45.89154" lon="-0.91592">
        <ele>5</ele>
        <time>2018-06-30T18:09:28.000Z</time>
      </trkpt>
      <trkpt lat="45.89154" lon="-0.91592">
        <ele>5</ele>
        <time>2018-06-30T18:09:29.000Z</time>
      </trkpt>
      <trkpt lat="45.89154" lon="-0.91592">
        <ele>5</ele>
        <time>2018-06-30T18:09:30.000Z</time>
      </trkpt>
      <trkpt lat="45.89154" lon="-0.91592">
        <ele>5</ele>
        <time>2018-06-30T18:09:31.000Z</time>
      </trkpt>
      <trkpt lat="45.89154" lon="-0.91592">
        <ele>5</ele>
        <time>2018-06-30T18:09:32.000Z</time>
      </trkpt>
      <trkpt lat="45.89154" lon="-0.91592">
        <ele>5</ele>
        <time>2018-06-30T18:09:33.000Z</time>
      </trkpt>
      <trkpt lat="45.89154" lon="-0.91592">
        <ele>6</ele>
        <time>2018-06-30T18:09:34.000Z</time>
      </trkpt>
      <trkpt lat="45.89154" lon="-0.91592">
        <ele>6</ele>
        <time>2018-06-30T18:09:35.000Z</time>
      </trkpt>
      <trkpt lat="45.89154" lon="-0.91592">
        <ele>6</ele>
        <time>2018-06-30T18:09:36.000Z</time>
      </trkpt>
      <trkpt lat="45.89154" lon="-0.91592">
        <ele>6</ele>
        <time>2018-06-30T18:09:37.000Z</time>
      </trkpt>
      <trkpt lat="45.89154" lon="-0.91592">
        <ele>6</ele>
        <time>2018-06-30T18:09:38.000Z</time>
      </trkpt>
      <trkpt lat="45.89154" lon="-0.91592">
        <ele>6</ele>
        <time>2018-06-30T18:09:39.000Z</time>
      </trkpt>
      <trkpt lat="45.89154" lon="-0.91592">
        <ele>6</ele>
        <time>2018-06-30T18:09:40.000Z</time>
      </trkpt>
      <trkpt lat="45.89155" lon="-0.91592">
        <ele>5</ele>
        <time>2018-06-30T18:09:41.000Z</time>
      </trkpt>
      <trkpt lat="45.89155" lon="-0.91592">
        <ele>5</ele>
        <time>2018-06-30T18:09:42.000Z</time>
      </trkpt>
      <trkpt lat="45.89155" lon="-0.91592">
        <ele>5</ele>
        <time>2018-06-30T18:09:43.000Z</time>
      </trkpt>
      <trkpt lat="45.89155" lon="-0.91592">
        <ele>5</ele>
        <time>2018-06-30T18:09:44.000Z</time>
      </trkpt>
      <trkpt lat="45.89155" lon="-0.91592">
        <ele>5</ele>
        <time>2018-06-30T18:09:45.000Z</time>
      </trkpt>
      <trkpt lat="45.89155" lon="-0.91592">
        <ele>5</ele>
        <time>2018-06-30T18:09:46.000Z</time>
      </trkpt>
      <trkpt lat="45.89155" lon="-0.91592">
        <ele>5</ele>
        <time>2018-06-30T18:09:47.000Z</time>
      </trkpt>
      <trkpt lat="45.89155" lon="-0.91592">
        <ele>5</ele>
        <time>2018-06-30T18:09:48.000Z</time>
      </trkpt>
      <trkpt lat="45.89155" lon="-0.91592">
        <ele>5</ele>
        <time>2018-06-30T18:09:49.000Z</time>
      </trkpt>
      <trkpt lat="45.89155" lon="-0.91592">
        <ele>5</ele>
        <time>2018-06-30T18:09:50.000Z</time>
      </trkpt>
      <trkpt lat="45.89155" lon="-0.91592">
        <ele>5</ele>
        <time>2018-06-30T18:09:51.000Z</time>
      </trkpt>
      <trkpt lat="45.89155" lon="-0.91591">
        <ele>5</ele>
        <time>2018-06-30T18:09:52.000Z</time>
      </trkpt>
      <trkpt lat="45.89155" lon="-0.91591">
        <ele>5</ele>
        <time>2018-06-30T18:09:53.000Z</time>
      </trkpt>
      <trkpt lat="45.89155" lon="-0.91591">
        <ele>5</ele>
        <time>2018-06-30T18:09:54.000Z</time>
      </trkpt>
      <trkpt lat="45.89155" lon="-0.91591">
        <ele>5</ele>
        <time>2018-06-30T18:09:55.000Z</time>
      </trkpt>
      <trkpt lat="45.89155" lon="-0.91591">
        <ele>5</ele>
        <time>2018-06-30T18:09:56.000Z</time>
      </trkpt>
      <trkpt lat="45.89155" lon="-0.91591">
        <ele>5</ele>
        <time>2018-06-30T18:09:57.000Z</time>
      </trkpt>
      <trkpt lat="45.89155" lon="-0.91591">
        <ele>5</ele>
        <time>2018-06-30T18:09:58.000Z</time>
      </trkpt>
      <trkpt lat="45.89155" lon="-0.91591">
        <ele>5</ele>
        <time>2018-06-30T18:09:59.000Z</time>
      </trkpt>
      <trkpt lat="45.89155" lon="-0.91591">
        <ele>5</ele>
        <time>2018-06-30T18:10:00.000Z</time>
      </trkpt>
      <trkpt lat="45.89155" lon="-0.91591">
        <ele>5</ele>
        <time>2018-06-30T18:10:01.000Z</time>
      </trkpt>
      <trkpt lat="45.89155" lon="-0.91591">
        <ele>5</ele>
        <time>2018-06-30T18:10:02.000Z</time>
      </trkpt>
      <trkpt lat="45.89155" lon="-0.91591">
        <ele>5</ele>
        <time>2018-06-30T18:10:03.000Z</time>
      </trkpt>
      <trkpt lat="45.89155" lon="-0.91591">
        <ele>5</ele>
        <time>2018-06-30T18:10:04.000Z</time>
      </trkpt>
      <trkpt lat="45.89155" lon="-0.91591">
        <ele>5</ele>
        <time>2018-06-30T18:10:05.000Z</time>
      </trkpt>
      <trkpt lat="45.89155" lon="-0.91591">
        <ele>5</ele>
        <time>2018-06-30T18:10:06.000Z</time>
      </trkpt>
      <trkpt lat="45.89155" lon="-0.91591">
        <ele>5</ele>
        <time>2018-06-30T18:10:07.000Z</time>
      </trkpt>
      <trkpt lat="45.89155" lon="-0.91591">
        <ele>4</ele>
        <time>2018-06-30T18:10:08.000Z</time>
      </trkpt>
      <trkpt lat="45.89155" lon="-0.91591">
        <ele>4</ele>
        <time>2018-06-30T18:10:09.000Z</time>
      </trkpt>
      <trkpt lat="45.89155" lon="-0.91591">
        <ele>4</ele>
        <time>2018-06-30T18:10:10.000Z</time>
      </trkpt>
      <trkpt lat="45.89155" lon="-0.91591">
        <ele>4</ele>
        <time>2018-06-30T18:10:11.000Z</time>
      </trkpt>
      <trkpt lat="45.89155" lon="-0.91591">
        <ele>4</ele>
        <time>2018-06-30T18:10:12.000Z</time>
      </trkpt>
      <trkpt lat="45.89155" lon="-0.91591">
        <ele>4</ele>
        <time>2018-06-30T18:10:13.000Z</time>
      </trkpt>
      <trkpt lat="45.89155" lon="-0.91591">
        <ele>4</ele>
        <time>2018-06-30T18:10:14.000Z</time>
      </trkpt>
      <trkpt lat="45.89154" lon="-0.91591">
        <ele>4</ele>
        <time>2018-06-30T18:10:15.000Z</time>
      </trkpt>
      <trkpt lat="45.89154" lon="-0.91591">
        <ele>4</ele>
        <time>2018-06-30T18:10:16.000Z</time>
      </trkpt>
      <trkpt lat="45.89154" lon="-0.91591">
        <ele>4</ele>
        <time>2018-06-30T18:10:17.000Z</time>
      </trkpt>
      <trkpt lat="45.89154" lon="-0.91591">
        <ele>4</ele>
        <time>2018-06-30T18:10:18.000Z</time>
      </trkpt>
      <trkpt lat="45.89154" lon="-0.91591">
        <ele>4</ele>
        <time>2018-06-30T18:10:19.000Z</time>
      </trkpt>
      <trkpt lat="45.89154" lon="-0.91591">
        <ele>4</ele>
        <time>2018-06-30T18:10:20.000Z</time>
      </trkpt>
      <trkpt lat="45.89154" lon="-0.91591">
        <ele>4</ele>
        <time>2018-06-30T18:10:21.000Z</time>
      </trkpt>
      <trkpt lat="45.89154" lon="-0.91591">
        <ele>4</ele>
        <time>2018-06-30T18:10:22.000Z</time>
      </trkpt>
      <trkpt lat="45.89154" lon="-0.91591">
        <ele>4</ele>
        <time>2018-06-30T18:10:23.000Z</time>
      </trkpt>
      <trkpt lat="45.89154" lon="-0.91591">
        <ele>4</ele>
        <time>2018-06-30T18:10:24.000Z</time>
      </trkpt>
      <trkpt lat="45.89154" lon="-0.91591">
        <ele>4</ele>
        <time>2018-06-30T18:10:25.000Z</time>
      </trkpt>
      <trkpt lat="45.89154" lon="-0.91591">
        <ele>4</ele>
        <time>2018-06-30T18:10:26.000Z</time>
      </trkpt>
      <trkpt lat="45.89154" lon="-0.91591">
        <ele>4</ele>
        <time>2018-06-30T18:10:27.000Z</time>
      </trkpt>
      <trkpt lat="45.89154" lon="-0.91591">
        <ele>4</ele>
        <time>2018-06-30T18:10:28.000Z</time>
      </trkpt>
      <trkpt lat="45.89154" lon="-0.91591">
        <ele>4</ele>
        <time>2018-06-30T18:10:29.000Z</time>
      </trkpt>
      <trkpt lat="45.89154" lon="-0.91591">
        <ele>4</ele>
        <time>2018-06-30T18:10:30.000Z</time>
      </trkpt>
      <trkpt lat="45.89154" lon="-0.91591">
        <ele>4</ele>
        <time>2018-06-30T18:10:31.000Z</time>
      </trkpt>
      <trkpt lat="45.89154" lon="-0.91591">
        <ele>5</ele>
        <time>2018-06-30T18:10:32.000Z</time>
      </trkpt>
      <trkpt lat="45.89154" lon="-0.91591">
        <ele>5</ele>
        <time>2018-06-30T18:10:33.000Z</time>
      </trkpt>
      <trkpt lat="45.89154" lon="-0.91591">
        <ele>5</ele>
        <time>2018-06-30T18:10:34.000Z</time>
      </trkpt>
      <trkpt lat="45.89154" lon="-0.91591">
        <ele>5</ele>
        <time>2018-06-30T18:10:35.000Z</time>
      </trkpt>
      <trkpt lat="45.89154" lon="-0.91591">
        <ele>5</ele>
        <time>2018-06-30T18:10:36.000Z</time>
      </trkpt>
      <trkpt lat="45.89154" lon="-0.91591">
        <ele>5</ele>
        <time>2018-06-30T18:10:37.000Z</time>
      </trkpt>
      <trkpt lat="45.89154" lon="-0.91591">
        <ele>5</ele>
        <time>2018-06-30T18:10:38.000Z</time>
      </trkpt>
      <trkpt lat="45.89154" lon="-0.91591">
        <ele>5</ele>
        <time>2018-06-30T18:10:39.000Z</time>
      </trkpt>
      <trkpt lat="45.89154" lon="-0.91591">
        <ele>5</ele>
        <time>2018-06-30T18:10:40.000Z</time>
      </trkpt>
      <trkpt lat="45.89154" lon="-0.91591">
        <ele>5</ele>
        <time>2018-06-30T18:10:41.000Z</time>
      </trkpt>
      <trkpt lat="45.89154" lon="-0.91591">
        <ele>5</ele>
        <time>2018-06-30T18:10:42.000Z</time>
      </trkpt>
      <trkpt lat="45.89154" lon="-0.91591">
        <ele>5</ele>
        <time>2018-06-30T18:10:43.000Z</time>
      </trkpt>
      <trkpt lat="45.89154" lon="-0.91591">
        <ele>5</ele>
        <time>2018-06-30T18:10:44.000Z</time>
      </trkpt>
      <trkpt lat="45.89155" lon="-0.91591">
        <ele>5</ele>
        <time>2018-06-30T18:10:45.000Z</time>
      </trkpt>
      <trkpt lat="45.89155" lon="-0.91592">
        <ele>5</ele>
        <time>2018-06-30T18:10:46.000Z</time>
      </trkpt>
      <trkpt lat="45.89155" lon="-0.91592">
        <ele>6</ele>
        <time>2018-06-30T18:10:47.000Z</time>
      </trkpt>
      <trkpt lat="45.89155" lon="-0.91592">
        <ele>6</ele>
        <time>2018-06-30T18:10:48.000Z</time>
      </trkpt>
      <trkpt lat="45.89155" lon="-0.91592">
        <ele>6</ele>
        <time>2018-06-30T18:10:49.000Z</time>
      </trkpt>
      <trkpt lat="45.89155" lon="-0.91592">
        <ele>6</ele>
        <time>2018-06-30T18:10:50.000Z</time>
      </trkpt>
      <trkpt lat="45.89155" lon="-0.91592">
        <ele>6</ele>
        <time>2018-06-30T18:10:51.000Z</time>
      </trkpt>
      <trkpt lat="45.89155" lon="-0.91592">
        <ele>6</ele>
        <time>2018-06-30T18:10:52.000Z</time>
      </trkpt>
      <trkpt lat="45.89155" lon="-0.91592">
        <ele>7</ele>
        <time>2018-06-30T18:10:53.000Z</time>
      </trkpt>
      <trkpt lat="45.89155" lon="-0.91592">
        <ele>7</ele>
        <time>2018-06-30T18:10:54.000Z</time>
      </trkpt>
      <trkpt lat="45.89155" lon="-0.91592">
        <ele>7</ele>
        <time>2018-06-30T18:10:55.000Z</time>
      </trkpt>
      <trkpt lat="45.89155" lon="-0.91592">
        <ele>6</ele>
        <time>2018-06-30T18:10:56.000Z</time>
      </trkpt>
      <trkpt lat="45.89155" lon="-0.91592">
        <ele>6</ele>
        <time>2018-06-30T18:10:57.000Z</time>
      </trkpt>
      <trkpt lat="45.89155" lon="-0.91592">
        <ele>6</ele>
        <time>2018-06-30T18:10:58.000Z</time>
      </trkpt>
      <trkpt lat="45.89155" lon="-0.91592">
        <ele>6</ele>
        <time>2018-06-30T18:10:59.000Z</time>
      </trkpt>
      <trkpt lat="45.89155" lon="-0.91592">
        <ele>6</ele>
        <time>2018-06-30T18:11:00.000Z</time>
      </trkpt>
      <trkpt lat="45.89155" lon="-0.91592">
        <ele>6</ele>
        <time>2018-06-30T18:11:01.000Z</time>
      </trkpt>
      <trkpt lat="45.89155" lon="-0.91591">
        <ele>6</ele>
        <time>2018-06-30T18:11:02.000Z</time>
      </trkpt>
      <trkpt lat="45.89155" lon="-0.91591">
        <ele>6</ele>
        <time>2018-06-30T18:11:03.000Z</time>
      </trkpt>
      <trkpt lat="45.89155" lon="-0.91591">
        <ele>6</ele>
        <time>2018-06-30T18:11:04.000Z</time>
      </trkpt>
      <trkpt lat="45.89155" lon="-0.91591">
        <ele>6</ele>
        <time>2018-06-30T18:11:05.000Z</time>
      </trkpt>
      <trkpt lat="45.89155" lon="-0.91591">
        <ele>6</ele>
        <time>2018-06-30T18:11:06.000Z</time>
      </trkpt>
      <trkpt lat="45.89155" lon="-0.91591">
        <ele>6</ele>
        <time>2018-06-30T18:11:07.000Z</time>
      </trkpt>
      <trkpt lat="45.89155" lon="-0.91591">
        <ele>6</ele>
        <time>2018-06-30T18:11:08.000Z</time>
      </trkpt>
      <trkpt lat="45.89155" lon="-0.91591">
        <ele>6</ele>
        <time>2018-06-30T18:11:09.000Z</time>
      </trkpt>
      <trkpt lat="45.89155" lon="-0.91591">
        <ele>6</ele>
        <time>2018-06-30T18:11:10.000Z</time>
      </trkpt>
      <trkpt lat="45.89155" lon="-0.91591">
        <ele>7</ele>
        <time>2018-06-30T18:11:11.000Z</time>
      </trkpt>
      <trkpt lat="45.89155" lon="-0.91591">
        <ele>7</ele>
        <time>2018-06-30T18:11:12.000Z</time>
      </trkpt>
      <trkpt lat="45.89155" lon="-0.91591">
        <ele>7</ele>
        <time>2018-06-30T18:11:13.000Z</time>
      </trkpt>
      <trkpt lat="45.89155" lon="-0.91591">
        <ele>7</ele>
        <time>2018-06-30T18:11:14.000Z</time>
      </trkpt>
      <trkpt lat="45.89155" lon="-0.91591">
        <ele>7</ele>
        <time>2018-06-30T18:11:15.000Z</time>
      </trkpt>
      <trkpt lat="45.89154" lon="-0.91591">
        <ele>7</ele>
        <time>2018-06-30T18:11:16.000Z</time>
      </trkpt>
      <trkpt lat="45.89154" lon="-0.91591">
        <ele>7</ele>
        <time>2018-06-30T18:11:17.000Z</time>
      </trkpt>
      <trkpt lat="45.89154" lon="-0.91591">
        <ele>7</ele>
        <time>2018-06-30T18:11:18.000Z</time>
      </trkpt>
      <trkpt lat="45.89155" lon="-0.91591">
        <ele>7</ele>
        <time>2018-06-30T18:11:19.000Z</time>
      </trkpt>
      <trkpt lat="45.89155" lon="-0.91591">
        <ele>6</ele>
        <time>2018-06-30T18:11:20.000Z</time>
      </trkpt>
      <trkpt lat="45.89155" lon="-0.91591">
        <ele>6</ele>
        <time>2018-06-30T18:11:21.000Z</time>
      </trkpt>
      <trkpt lat="45.89155" lon="-0.91591">
        <ele>6</ele>
        <time>2018-06-30T18:11:22.000Z</time>
      </trkpt>
      <trkpt lat="45.89155" lon="-0.91591">
        <ele>6</ele>
        <time>2018-06-30T18:11:23.000Z</time>
      </trkpt>
      <trkpt lat="45.89155" lon="-0.91591">
        <ele>6</ele>
        <time>2018-06-30T18:11:24.000Z</time>
      </trkpt>
      <trkpt lat="45.89155" lon="-0.91591">
        <ele>6</ele>
        <time>2018-06-30T18:11:25.000Z</time>
      </trkpt>
      <trkpt lat="45.89155" lon="-0.91591">
        <ele>6</ele>
        <time>2018-06-30T18:11:26.000Z</time>
      </trkpt>
      <trkpt lat="45.89155" lon="-0.91591">
        <ele>6</ele>
        <time>2018-06-30T18:11:27.000Z</time>
      </trkpt>
      <trkpt lat="45.89155" lon="-0.91591">
        <ele>6</ele>
        <time>2018-06-30T18:11:28.000Z</time>
      </trkpt>
      <trkpt lat="45.89155" lon="-0.91592">
        <ele>6</ele>
        <time>2018-06-30T18:11:29.000Z</time>
      </trkpt>
      <trkpt lat="45.89155" lon="-0.91592">
        <ele>6</ele>
        <time>2018-06-30T18:11:30.000Z</time>
      </trkpt>
      <trkpt lat="45.89155" lon="-0.91592">
        <ele>6</ele>
        <time>2018-06-30T18:11:31.000Z</time>
      </trkpt>
      <trkpt lat="45.89155" lon="-0.91592">
        <ele>6</ele>
        <time>2018-06-30T18:11:32.000Z</time>
      </trkpt>
      <trkpt lat="45.89155" lon="-0.91592">
        <ele>6</ele>
        <time>2018-06-30T18:11:33.000Z</time>
      </trkpt>
      <trkpt lat="45.89155" lon="-0.91592">
        <ele>6</ele>
        <time>2018-06-30T18:11:34.000Z</time>
      </trkpt>
      <trkpt lat="45.89155" lon="-0.91592">
        <ele>6</ele>
        <time>2018-06-30T18:11:35.000Z</time>
      </trkpt>
      <trkpt lat="45.89155" lon="-0.91592">
        <ele>6</ele>
        <time>2018-06-30T18:11:36.000Z</time>
      </trkpt>
      <trkpt lat="45.89155" lon="-0.91592">
        <ele>6</ele>
        <time>2018-06-30T18:11:37.000Z</time>
      </trkpt>
      <trkpt lat="45.89155" lon="-0.91592">
        <ele>5</ele>
        <time>2018-06-30T18:11:38.000Z</time>
      </trkpt>
      <trkpt lat="45.89155" lon="-0.91592">
        <ele>5</ele>
        <time>2018-06-30T18:11:39.000Z</time>
      </trkpt>
      <trkpt lat="45.89154" lon="-0.91592">
        <ele>5</ele>
        <time>2018-06-30T18:11:40.000Z</time>
      </trkpt>
      <trkpt lat="45.89154" lon="-0.91592">
        <ele>4</ele>
        <time>2018-06-30T18:11:41.000Z</time>
      </trkpt>
      <trkpt lat="45.89154" lon="-0.91592">
        <ele>4</ele>
        <time>2018-06-30T18:11:42.000Z</time>
      </trkpt>
      <trkpt lat="45.89154" lon="-0.91592">
        <ele>4</ele>
        <time>2018-06-30T18:11:43.000Z</time>
      </trkpt>
      <trkpt lat="45.89154" lon="-0.91592">
        <ele>4</ele>
        <time>2018-06-30T18:11:44.000Z</time>
      </trkpt>
      <trkpt lat="45.89154" lon="-0.91592">
        <ele>4</ele>
        <time>2018-06-30T18:11:45.000Z</time>
      </trkpt>
      <trkpt lat="45.89154" lon="-0.91592">
        <ele>4</ele>
        <time>2018-06-30T18:11:46.000Z</time>
      </trkpt>
      <trkpt lat="45.89154" lon="-0.91592">
        <ele>4</ele>
        <time>2018-06-30T18:11:47.000Z</time>
      </trkpt>
      <trkpt lat="45.89154" lon="-0.91592">
        <ele>4</ele>
        <time>2018-06-30T18:11:48.000Z</time>
      </trkpt>
      <trkpt lat="45.89154" lon="-0.91592">
        <ele>3</ele>
        <time>2018-06-30T18:11:49.000Z</time>
      </trkpt>
      <trkpt lat="45.89154" lon="-0.91591">
        <ele>3</ele>
        <time>2018-06-30T18:11:50.000Z</time>
      </trkpt>
      <trkpt lat="45.89154" lon="-0.91591">
        <ele>3</ele>
        <time>2018-06-30T18:11:51.000Z</time>
      </trkpt>
      <trkpt lat="45.89154" lon="-0.91591">
        <ele>3</ele>
        <time>2018-06-30T18:11:52.000Z</time>
      </trkpt>
      <trkpt lat="45.89153" lon="-0.91591">
        <ele>3</ele>
        <time>2018-06-30T18:11:53.000Z</time>
      </trkpt>
      <trkpt lat="45.89153" lon="-0.91591">
        <ele>3</ele>
        <time>2018-06-30T18:11:54.000Z</time>
      </trkpt>
      <trkpt lat="45.89153" lon="-0.91591">
        <ele>3</ele>
        <time>2018-06-30T18:11:55.000Z</time>
      </trkpt>
      <trkpt lat="45.89153" lon="-0.91591">
        <ele>3</ele>
        <time>2018-06-30T18:11:56.000Z</time>
      </trkpt>
      <trkpt lat="45.89154" lon="-0.91591">
        <ele>3</ele>
        <time>2018-06-30T18:11:57.000Z</time>
      </trkpt>
      <trkpt lat="45.89154" lon="-0.91591">
        <ele>3</ele>
        <time>2018-06-30T18:11:58.000Z</time>
      </trkpt>
      <trkpt lat="45.89154" lon="-0.91591">
        <ele>3</ele>
        <time>2018-06-30T18:11:59.000Z</time>
      </trkpt>
      <trkpt lat="45.89154" lon="-0.91591">
        <ele>3</ele>
        <time>2018-06-30T18:12:00.000Z</time>
      </trkpt>
      <trkpt lat="45.89154" lon="-0.91591">
        <ele>3</ele>
        <time>2018-06-30T18:12:01.000Z</time>
      </trkpt>
      <trkpt lat="45.89154" lon="-0.91591">
        <ele>3</ele>
        <time>2018-06-30T18:12:02.000Z</time>
      </trkpt>
      <trkpt lat="45.89154" lon="-0.91591">
        <ele>3</ele>
        <time>2018-06-30T18:12:03.000Z</time>
      </trkpt>
      <trkpt lat="45.89154" lon="-0.91591">
        <ele>3</ele>
        <time>2018-06-30T18:12:04.000Z</time>
      </trkpt>
      <trkpt lat="45.89154" lon="-0.91591">
        <ele>3</ele>
        <time>2018-06-30T18:12:05.000Z</time>
      </trkpt>
      <trkpt lat="45.89154" lon="-0.91591">
        <ele>2</ele>
        <time>2018-06-30T18:12:06.000Z</time>
      </trkpt>
      <trkpt lat="45.89154" lon="-0.91591">
        <ele>2</ele>
        <time>2018-06-30T18:12:07.000Z</time>
      </trkpt>
      <trkpt lat="45.89154" lon="-0.91592">
        <ele>2</ele>
        <time>2018-06-30T18:12:08.000Z</time>
      </trkpt>
      <trkpt lat="45.89154" lon="-0.91592">
        <ele>3</ele>
        <time>2018-06-30T18:12:09.000Z</time>
      </trkpt>
      <trkpt lat="45.89154" lon="-0.91592">
        <ele>3</ele>
        <time>2018-06-30T18:12:10.000Z</time>
      </trkpt>
      <trkpt lat="45.89154" lon="-0.91592">
        <ele>3</ele>
        <time>2018-06-30T18:12:11.000Z</time>
      </trkpt>
      <trkpt lat="45.89154" lon="-0.91592">
        <ele>3</ele>
        <time>2018-06-30T18:12:12.000Z</time>
      </trkpt>
      <trkpt lat="45.89154" lon="-0.91592">
        <ele>3</ele>
        <time>2018-06-30T18:12:13.000Z</time>
      </trkpt>
      <trkpt lat="45.89154" lon="-0.91592">
        <ele>3</ele>
        <time>2018-06-30T18:12:14.000Z</time>
      </trkpt>
      <trkpt lat="45.89154" lon="-0.91592">
        <ele>3</ele>
        <time>2018-06-30T18:12:15.000Z</time>
      </trkpt>
      <trkpt lat="45.89154" lon="-0.91592">
        <ele>3</ele>
        <time>2018-06-30T18:12:16.000Z</time>
      </trkpt>
      <trkpt lat="45.89154" lon="-0.91592">
        <ele>3</ele>
        <time>2018-06-30T18:12:17.000Z</time>
      </trkpt>
      <trkpt lat="45.89154" lon="-0.91592">
        <ele>3</ele>
        <time>2018-06-30T18:12:18.000Z</time>
      </trkpt>
      <trkpt lat="45.89154" lon="-0.91592">
        <ele>2</ele>
        <time>2018-06-30T18:12:19.000Z</time>
      </trkpt>
      <trkpt lat="45.89154" lon="-0.91592">
        <ele>2</ele>
        <time>2018-06-30T18:12:20.000Z</time>
      </trkpt>
      <trkpt lat="45.89154" lon="-0.91592">
        <ele>2</ele>
        <time>2018-06-30T18:12:21.000Z</time>
      </trkpt>
      <trkpt lat="45.89154" lon="-0.91592">
        <ele>2</ele>
        <time>2018-06-30T18:12:22.000Z</time>
      </trkpt>
      <trkpt lat="45.89154" lon="-0.91592">
        <ele>2</ele>
        <time>2018-06-30T18:12:23.000Z</time>
      </trkpt>
      <trkpt lat="45.89154" lon="-0.91592">
        <ele>2</ele>
        <time>2018-06-30T18:12:24.000Z</time>
      </trkpt>
      <trkpt lat="45.89154" lon="-0.91592">
        <ele>2</ele>
        <time>2018-06-30T18:12:25.000Z</time>
      </trkpt>
      <trkpt lat="45.89154" lon="-0.91592">
        <ele>2</ele>
        <time>2018-06-30T18:12:26.000Z</time>
      </trkpt>
      <trkpt lat="45.89154" lon="-0.91592">
        <ele>2</ele>
        <time>2018-06-30T18:12:27.000Z</time>
      </trkpt>
      <trkpt lat="45.89154" lon="-0.91592">
        <ele>2</ele>
        <time>2018-06-30T18:12:28.000Z</time>
      </trkpt>
      <trkpt lat="45.89154" lon="-0.91591">
        <ele>2</ele>
        <time>2018-06-30T18:12:29.000Z</time>
      </trkpt>
      <trkpt lat="45.89154" lon="-0.91591">
        <ele>2</ele>
        <time>2018-06-30T18:12:30.000Z</time>
      </trkpt>
      <trkpt lat="45.89154" lon="-0.91591">
        <ele>2</ele>
        <time>2018-06-30T18:12:31.000Z</time>
      </trkpt>
      <trkpt lat="45.89154" lon="-0.91591">
        <ele>2</ele>
        <time>2018-06-30T18:12:32.000Z</time>
      </trkpt>
      <trkpt lat="45.89154" lon="-0.91591">
        <ele>2</ele>
        <time>2018-06-30T18:12:33.000Z</time>
      </trkpt>
      <trkpt lat="45.89154" lon="-0.91591">
        <ele>2</ele>
        <time>2018-06-30T18:12:34.000Z</time>
      </trkpt>
      <trkpt lat="45.89154" lon="-0.91591">
        <ele>1</ele>
        <time>2018-06-30T18:12:35.000Z</time>
      </trkpt>
      <trkpt lat="45.89154" lon="-0.91591">
        <ele>2</ele>
        <time>2018-06-30T18:12:36.000Z</time>
      </trkpt>
      <trkpt lat="45.89154" lon="-0.91591">
        <ele>2</ele>
        <time>2018-06-30T18:12:37.000Z</time>
      </trkpt>
      <trkpt lat="45.89153" lon="-0.91591">
        <ele>2</ele>
        <time>2018-06-30T18:12:38.000Z</time>
      </trkpt>
      <trkpt lat="45.89153" lon="-0.91591">
        <ele>2</ele>
        <time>2018-06-30T18:12:39.000Z</time>
      </trkpt>
      <trkpt lat="45.89153" lon="-0.91591">
        <ele>2</ele>
        <time>2018-06-30T18:12:40.000Z</time>
      </trkpt>
      <trkpt lat="45.89153" lon="-0.91591">
        <ele>2</ele>
        <time>2018-06-30T18:12:41.000Z</time>
      </trkpt>
      <trkpt lat="45.89153" lon="-0.91591">
        <ele>2</ele>
        <time>2018-06-30T18:12:42.000Z</time>
      </trkpt>
      <trkpt lat="45.89153" lon="-0.91591">
        <ele>2</ele>
        <time>2018-06-30T18:12:43.000Z</time>
      </trkpt>
      <trkpt lat="45.89153" lon="-0.91591">
        <ele>2</ele>
        <time>2018-06-30T18:12:44.000Z</time>
      </trkpt>
      <trkpt lat="45.89153" lon="-0.91591">
        <ele>2</ele>
        <time>2018-06-30T18:12:45.000Z</time>
      </trkpt>
      <trkpt lat="45.89153" lon="-0.91591">
        <ele>2</ele>
        <time>2018-06-30T18:12:46.000Z</time>
      </trkpt>
      <trkpt lat="45.89154" lon="-0.91591">
        <ele>2</ele>
        <time>2018-06-30T18:12:47.000Z</time>
      </trkpt>
      <trkpt lat="45.89154" lon="-0.91591">
        <ele>2</ele>
        <time>2018-06-30T18:12:48.000Z</time>
      </trkpt>
      <trkpt lat="45.89154" lon="-0.91591">
        <ele>2</ele>
        <time>2018-06-30T18:12:49.000Z</time>
      </trkpt>
      <trkpt lat="45.89154" lon="-0.91591">
        <ele>2</ele>
        <time>2018-06-30T18:12:50.000Z</time>
      </trkpt>
      <trkpt lat="45.89154" lon="-0.91591">
        <ele>3</ele>
        <time>2018-06-30T18:12:51.000Z</time>
      </trkpt>
      <trkpt lat="45.89154" lon="-0.91591">
        <ele>3</ele>
        <time>2018-06-30T18:12:52.000Z</time>
      </trkpt>
      <trkpt lat="45.89154" lon="-0.91591">
        <ele>3</ele>
        <time>2018-06-30T18:12:53.000Z</time>
      </trkpt>
      <trkpt lat="45.89154" lon="-0.91591">
        <ele>3</ele>
        <time>2018-06-30T18:12:54.000Z</time>
      </trkpt>
      <trkpt lat="45.89154" lon="-0.91591">
        <ele>3</ele>
        <time>2018-06-30T18:12:55.000Z</time>
      </trkpt>
      <trkpt lat="45.89154" lon="-0.91591">
        <ele>3</ele>
        <time>2018-06-30T18:12:56.000Z</time>
      </trkpt>
      <trkpt lat="45.89154" lon="-0.91591">
        <ele>4</ele>
        <time>2018-06-30T18:12:57.000Z</time>
      </trkpt>
      <trkpt lat="45.89154" lon="-0.91591">
        <ele>3</ele>
        <time>2018-06-30T18:12:58.000Z</time>
      </trkpt>
      <trkpt lat="45.89154" lon="-0.91591">
        <ele>3</ele>
        <time>2018-06-30T18:12:59.000Z</time>
      </trkpt>
      <trkpt lat="45.89154" lon="-0.91591">
        <ele>3</ele>
        <time>2018-06-30T18:13:00.000Z</time>
      </trkpt>
      <trkpt lat="45.89154" lon="-0.91591">
        <ele>4</ele>
        <time>2018-06-30T18:13:01.000Z</time>
      </trkpt>
      <trkpt lat="45.89154" lon="-0.91591">
        <ele>4</ele>
        <time>2018-06-30T18:13:02.000Z</time>
      </trkpt>
      <trkpt lat="45.89154" lon="-0.91591">
        <ele>4</ele>
        <time>2018-06-30T18:13:03.000Z</time>
      </trkpt>
      <trkpt lat="45.89154" lon="-0.91591">
        <ele>4</ele>
        <time>2018-06-30T18:13:04.000Z</time>
      </trkpt>
      <trkpt lat="45.89154" lon="-0.91591">
        <ele>4</ele>
        <time>2018-06-30T18:13:05.000Z</time>
      </trkpt>
      <trkpt lat="45.89154" lon="-0.9159">
        <ele>4</ele>
        <time>2018-06-30T18:13:06.000Z</time>
      </trkpt>
      <trkpt lat="45.89154" lon="-0.9159">
        <ele>4</ele>
        <time>2018-06-30T18:13:07.000Z</time>
      </trkpt>
      <trkpt lat="45.89154" lon="-0.9159">
        <ele>4</ele>
        <time>2018-06-30T18:13:08.000Z</time>
      </trkpt>
      <trkpt lat="45.89154" lon="-0.9159">
        <ele>4</ele>
        <time>2018-06-30T18:13:09.000Z</time>
      </trkpt>
      <trkpt lat="45.89154" lon="-0.9159">
        <ele>5</ele>
        <time>2018-06-30T18:13:10.000Z</time>
      </trkpt>
      <trkpt lat="45.89154" lon="-0.9159">
        <ele>5</ele>
        <time>2018-06-30T18:13:11.000Z</time>
      </trkpt>
      <trkpt lat="45.89154" lon="-0.9159">
        <ele>5</ele>
        <time>2018-06-30T18:13:12.000Z</time>
      </trkpt>
      <trkpt lat="45.89153" lon="-0.9159">
        <ele>5</ele>
        <time>2018-06-30T18:13:13.000Z</time>
      </trkpt>
      <trkpt lat="45.89153" lon="-0.9159">
        <ele>5</ele>
        <time>2018-06-30T18:13:14.000Z</time>
      </trkpt>
      <trkpt lat="45.89153" lon="-0.9159">
        <ele>4</ele>
        <time>2018-06-30T18:13:15.000Z</time>
      </trkpt>
      <trkpt lat="45.89153" lon="-0.9159">
        <ele>5</ele>
        <time>2018-06-30T18:13:16.000Z</time>
      </trkpt>
      <trkpt lat="45.89153" lon="-0.9159">
        <ele>4</ele>
        <time>2018-06-30T18:13:17.000Z</time>
      </trkpt>
      <trkpt lat="45.89153" lon="-0.9159">
        <ele>4</ele>
        <time>2018-06-30T18:13:18.000Z</time>
      </trkpt>
      <trkpt lat="45.89153" lon="-0.9159">
        <ele>4</ele>
        <time>2018-06-30T18:13:19.000Z</time>
      </trkpt>
      <trkpt lat="45.89153" lon="-0.9159">
        <ele>4</ele>
        <time>2018-06-30T18:13:20.000Z</time>
      </trkpt>
      <trkpt lat="45.89153" lon="-0.9159">
        <ele>4</ele>
        <time>2018-06-30T18:13:21.000Z</time>
      </trkpt>
      <trkpt lat="45.89153" lon="-0.9159">
        <ele>4</ele>
        <time>2018-06-30T18:13:22.000Z</time>
      </trkpt>
      <trkpt lat="45.89153" lon="-0.9159">
        <ele>4</ele>
        <time>2018-06-30T18:13:23.000Z</time>
      </trkpt>
      <trkpt lat="45.89153" lon="-0.9159">
        <ele>4</ele>
        <time>2018-06-30T18:13:24.000Z</time>
      </trkpt>
      <trkpt lat="45.89154" lon="-0.9159">
        <ele>4</ele>
        <time>2018-06-30T18:13:25.000Z</time>
      </trkpt>
      <trkpt lat="45.89154" lon="-0.9159">
        <ele>4</ele>
        <time>2018-06-30T18:13:26.000Z</time>
      </trkpt>
      <trkpt lat="45.89154" lon="-0.9159">
        <ele>4</ele>
        <time>2018-06-30T18:13:27.000Z</time>
      </trkpt>
      <trkpt lat="45.89154" lon="-0.9159">
        <ele>3</ele>
        <time>2018-06-30T18:13:28.000Z</time>
      </trkpt>
      <trkpt lat="45.89154" lon="-0.9159">
        <ele>3</ele>
        <time>2018-06-30T18:13:29.000Z</time>
      </trkpt>
      <trkpt lat="45.89154" lon="-0.9159">
        <ele>3</ele>
        <time>2018-06-30T18:13:30.000Z</time>
      </trkpt>
      <trkpt lat="45.89153" lon="-0.9159">
        <ele>3</ele>
        <time>2018-06-30T18:13:31.000Z</time>
      </trkpt>
      <trkpt lat="45.89153" lon="-0.9159">
        <ele>3</ele>
        <time>2018-06-30T18:13:32.000Z</time>
      </trkpt>
      <trkpt lat="45.89153" lon="-0.9159">
        <ele>3</ele>
        <time>2018-06-30T18:13:33.000Z</time>
      </trkpt>
      <trkpt lat="45.89153" lon="-0.9159">
        <ele>3</ele>
        <time>2018-06-30T18:13:34.000Z</time>
      </trkpt>
      <trkpt lat="45.89153" lon="-0.9159">
        <ele>3</ele>
        <time>2018-06-30T18:13:35.000Z</time>
      </trkpt>
      <trkpt lat="45.89154" lon="-0.9159">
        <ele>3</ele>
        <time>2018-06-30T18:13:36.000Z</time>
      </trkpt>
      <trkpt lat="45.89154" lon="-0.9159">
        <ele>3</ele>
        <time>2018-06-30T18:13:37.000Z</time>
      </trkpt>
      <trkpt lat="45.89154" lon="-0.9159">
        <ele>3</ele>
        <time>2018-06-30T18:13:38.000Z</time>
      </trkpt>
      <trkpt lat="45.89154" lon="-0.9159">
        <ele>3</ele>
        <time>2018-06-30T18:13:39.000Z</time>
      </trkpt>
      <trkpt lat="45.89154" lon="-0.9159">
        <ele>3</ele>
        <time>2018-06-30T18:13:40.000Z</time>
      </trkpt>
      <trkpt lat="45.89154" lon="-0.9159">
        <ele>4</ele>
        <time>2018-06-30T18:13:41.000Z</time>
      </trkpt>
      <trkpt lat="45.89154" lon="-0.9159">
        <ele>4</ele>
        <time>2018-06-30T18:13:42.000Z</time>
      </trkpt>
      <trkpt lat="45.89154" lon="-0.9159">
        <ele>4</ele>
        <time>2018-06-30T18:13:43.000Z</time>
      </trkpt>
      <trkpt lat="45.89154" lon="-0.9159">
        <ele>4</ele>
        <time>2018-06-30T18:13:44.000Z</time>
      </trkpt>
      <trkpt lat="45.89154" lon="-0.9159">
        <ele>4</ele>
        <time>2018-06-30T18:13:45.000Z</time>
      </trkpt>
      <trkpt lat="45.89154" lon="-0.9159">
        <ele>4</ele>
        <time>2018-06-30T18:13:46.000Z</time>
      </trkpt>
      <trkpt lat="45.89154" lon="-0.9159">
        <ele>4</ele>
        <time>2018-06-30T18:13:47.000Z</time>
      </trkpt>
      <trkpt lat="45.89154" lon="-0.91589">
        <ele>4</ele>
        <time>2018-06-30T18:13:48.000Z</time>
      </trkpt>
      <trkpt lat="45.89154" lon="-0.91589">
        <ele>4</ele>
        <time>2018-06-30T18:13:49.000Z</time>
      </trkpt>
      <trkpt lat="45.89154" lon="-0.91589">
        <ele>4</ele>
        <time>2018-06-30T18:13:50.000Z</time>
      </trkpt>
      <trkpt lat="45.89154" lon="-0.91588">
        <ele>4</ele>
        <time>2018-06-30T18:13:51.000Z</time>
      </trkpt>
      <trkpt lat="45.89154" lon="-0.91587">
        <ele>3</ele>
        <time>2018-06-30T18:13:52.000Z</time>
      </trkpt>
      <trkpt lat="45.89155" lon="-0.91586">
        <ele>3</ele>
        <time>2018-06-30T18:13:53.000Z</time>
      </trkpt>
      <trkpt lat="45.89155" lon="-0.91585">
        <ele>3</ele>
        <time>2018-06-30T18:13:54.000Z</time>
      </trkpt>
      <trkpt lat="45.89155" lon="-0.91584">
        <ele>3</ele>
        <time>2018-06-30T18:13:55.000Z</time>
      </trkpt>
      <trkpt lat="45.89156" lon="-0.91584">
        <ele>3</ele>
        <time>2018-06-30T18:13:56.000Z</time>
      </trkpt>
      <trkpt lat="45.89156" lon="-0.91584">
        <ele>3</ele>
        <time>2018-06-30T18:13:57.000Z</time>
      </trkpt>
      <trkpt lat="45.89156" lon="-0.91584">
        <ele>3</ele>
        <time>2018-06-30T18:13:58.000Z</time>
      </trkpt>
      <trkpt lat="45.89156" lon="-0.91584">
        <ele>3</ele>
        <time>2018-06-30T18:13:59.000Z</time>
      </trkpt>
      <trkpt lat="45.89156" lon="-0.91584">
        <ele>3</ele>
        <time>2018-06-30T18:14:00.000Z</time>
      </trkpt>
      <trkpt lat="45.89156" lon="-0.91584">
        <ele>3</ele>
        <time>2018-06-30T18:14:01.000Z</time>
      </trkpt>
      <trkpt lat="45.89156" lon="-0.91584">
        <ele>3</ele>
        <time>2018-06-30T18:14:02.000Z</time>
      </trkpt>
      <trkpt lat="45.89156" lon="-0.91584">
        <ele>3</ele>
        <time>2018-06-30T18:14:03.000Z</time>
      </trkpt>
      <trkpt lat="45.89156" lon="-0.91584">
        <ele>3</ele>
        <time>2018-06-30T18:14:04.000Z</time>
      </trkpt>
      <trkpt lat="45.89156" lon="-0.91583">
        <ele>3</ele>
        <time>2018-06-30T18:14:05.000Z</time>
      </trkpt>
      <trkpt lat="45.89155" lon="-0.91583">
        <ele>3</ele>
        <time>2018-06-30T18:14:06.000Z</time>
      </trkpt>
      <trkpt lat="45.89156" lon="-0.91583">
        <ele>3</ele>
        <time>2018-06-30T18:14:07.000Z</time>
      </trkpt>
      <trkpt lat="45.89156" lon="-0.91584">
        <ele>3</ele>
        <time>2018-06-30T18:14:08.000Z</time>
      </trkpt>
      <trkpt lat="45.89156" lon="-0.91584">
        <ele>3</ele>
        <time>2018-06-30T18:14:09.000Z</time>
      </trkpt>
      <trkpt lat="45.89156" lon="-0.91584">
        <ele>3</ele>
        <time>2018-06-30T18:14:10.000Z</time>
      </trkpt>
      <trkpt lat="45.89156" lon="-0.91584">
        <ele>3</ele>
        <time>2018-06-30T18:14:11.000Z</time>
      </trkpt>
      <trkpt lat="45.89156" lon="-0.91584">
        <ele>3</ele>
        <time>2018-06-30T18:14:12.000Z</time>
      </trkpt>
      <trkpt lat="45.89156" lon="-0.91584">
        <ele>3</ele>
        <time>2018-06-30T18:14:13.000Z</time>
      </trkpt>
      <trkpt lat="45.89156" lon="-0.91584">
        <ele>3</ele>
        <time>2018-06-30T18:14:14.000Z</time>
      </trkpt>
      <trkpt lat="45.89156" lon="-0.91584">
        <ele>3</ele>
        <time>2018-06-30T18:14:15.000Z</time>
      </trkpt>
      <trkpt lat="45.89156" lon="-0.91584">
        <ele>3</ele>
        <time>2018-06-30T18:14:16.000Z</time>
      </trkpt>
      <trkpt lat="45.89156" lon="-0.91585">
        <ele>3</ele>
        <time>2018-06-30T18:14:17.000Z</time>
      </trkpt>
      <trkpt lat="45.89155" lon="-0.91585">
        <ele>2</ele>
        <time>2018-06-30T18:14:18.000Z</time>
      </trkpt>
      <trkpt lat="45.89155" lon="-0.91585">
        <ele>2</ele>
        <time>2018-06-30T18:14:19.000Z</time>
      </trkpt>
      <trkpt lat="45.89154" lon="-0.91585">
        <ele>2</ele>
        <time>2018-06-30T18:14:20.000Z</time>
      </trkpt>
      <trkpt lat="45.89154" lon="-0.91586">
        <ele>2</ele>
        <time>2018-06-30T18:14:21.000Z</time>
      </trkpt>
      <trkpt lat="45.89154" lon="-0.91587">
        <ele>2</ele>
        <time>2018-06-30T18:14:22.000Z</time>
      </trkpt>
      <trkpt lat="45.89153" lon="-0.91588">
        <ele>2</ele>
        <time>2018-06-30T18:14:23.000Z</time>
      </trkpt>
      <trkpt lat="45.89154" lon="-0.91588">
        <ele>2</ele>
        <time>2018-06-30T18:14:24.000Z</time>
      </trkpt>
      <trkpt lat="45.89154" lon="-0.91589">
        <ele>2</ele>
        <time>2018-06-30T18:14:25.000Z</time>
      </trkpt>
      <trkpt lat="45.89154" lon="-0.91589">
        <ele>2</ele>
        <time>2018-06-30T18:14:26.000Z</time>
      </trkpt>
      <trkpt lat="45.89154" lon="-0.91589">
        <ele>2</ele>
        <time>2018-06-30T18:14:27.000Z</time>
      </trkpt>
      <trkpt lat="45.89154" lon="-0.91589">
        <ele>3</ele>
        <time>2018-06-30T18:14:28.000Z</time>
      </trkpt>
      <trkpt lat="45.89154" lon="-0.91589">
        <ele>3</ele>
        <time>2018-06-30T18:14:29.000Z</time>
      </trkpt>
      <trkpt lat="45.89154" lon="-0.91589">
        <ele>3</ele>
        <time>2018-06-30T18:14:30.000Z</time>
      </trkpt>
      <trkpt lat="45.89154" lon="-0.91589">
        <ele>3</ele>
        <time>2018-06-30T18:14:31.000Z</time>
      </trkpt>
      <trkpt lat="45.89154" lon="-0.91589">
        <ele>3</ele>
        <time>2018-06-30T18:14:32.000Z</time>
      </trkpt>
      <trkpt lat="45.89154" lon="-0.91589">
        <ele>3</ele>
        <time>2018-06-30T18:14:33.000Z</time>
      </trkpt>
      <trkpt lat="45.89154" lon="-0.91589">
        <ele>4</ele>
        <time>2018-06-30T18:14:34.000Z</time>
      </trkpt>
      <trkpt lat="45.89154" lon="-0.9159">
        <ele>4</ele>
        <time>2018-06-30T18:14:35.000Z</time>
      </trkpt>
      <trkpt lat="45.89154" lon="-0.9159">
        <ele>4</ele>
        <time>2018-06-30T18:14:36.000Z</time>
      </trkpt>
      <trkpt lat="45.89154" lon="-0.9159">
        <ele>4</ele>
        <time>2018-06-30T18:14:37.000Z</time>
      </trkpt>
      <trkpt lat="45.89154" lon="-0.9159">
        <ele>4</ele>
        <time>2018-06-30T18:14:38.000Z</time>
      </trkpt>
      <trkpt lat="45.89154" lon="-0.9159">
        <ele>4</ele>
        <time>2018-06-30T18:14:39.000Z</time>
      </trkpt>
      <trkpt lat="45.89154" lon="-0.9159">
        <ele>4</ele>
        <time>2018-06-30T18:14:40.000Z</time>
      </trkpt>
      <trkpt lat="45.89154" lon="-0.9159">
        <ele>4</ele>
        <time>2018-06-30T18:14:41.000Z</time>
      </trkpt>
      <trkpt lat="45.89154" lon="-0.9159">
        <ele>4</ele>
        <time>2018-06-30T18:14:42.000Z</time>
      </trkpt>
      <trkpt lat="45.89154" lon="-0.91591">
        <ele>4</ele>
        <time>2018-06-30T18:14:43.000Z</time>
      </trkpt>
      <trkpt lat="45.89154" lon="-0.91591">
        <ele>4</ele>
        <time>2018-06-30T18:14:44.000Z</time>
      </trkpt>
      <trkpt lat="45.89154" lon="-0.91591">
        <ele>4</ele>
        <time>2018-06-30T18:14:45.000Z</time>
      </trkpt>
      <trkpt lat="45.89154" lon="-0.91591">
        <ele>4</ele>
        <time>2018-06-30T18:14:46.000Z</time>
      </trkpt>
      <trkpt lat="45.89154" lon="-0.91591">
        <ele>4</ele>
        <time>2018-06-30T18:14:47.000Z</time>
      </trkpt>
      <trkpt lat="45.89154" lon="-0.9159">
        <ele>3</ele>
        <time>2018-06-30T18:14:48.000Z</time>
      </trkpt>
      <trkpt lat="45.89155" lon="-0.9159">
        <ele>3</ele>
        <time>2018-06-30T18:14:49.000Z</time>
      </trkpt>
      <trkpt lat="45.89155" lon="-0.9159">
        <ele>3</ele>
        <time>2018-06-30T18:14:50.000Z</time>
      </trkpt>
      <trkpt lat="45.89155" lon="-0.9159">
        <ele>3</ele>
        <time>2018-06-30T18:14:51.000Z</time>
      </trkpt>
      <trkpt lat="45.89155" lon="-0.91589">
        <ele>3</ele>
        <time>2018-06-30T18:14:52.000Z</time>
      </trkpt>
      <trkpt lat="45.89155" lon="-0.9159">
        <ele>3</ele>
        <time>2018-06-30T18:14:53.000Z</time>
      </trkpt>
      <trkpt lat="45.89156" lon="-0.9159">
        <ele>2</ele>
        <time>2018-06-30T18:14:54.000Z</time>
      </trkpt>
      <trkpt lat="45.89156" lon="-0.9159">
        <ele>2</ele>
        <time>2018-06-30T18:14:55.000Z</time>
      </trkpt>
      <trkpt lat="45.89156" lon="-0.9159">
        <ele>2</ele>
        <time>2018-06-30T18:14:56.000Z</time>
      </trkpt>
      <trkpt lat="45.89156" lon="-0.9159">
        <ele>2</ele>
        <time>2018-06-30T18:14:57.000Z</time>
      </trkpt>
      <trkpt lat="45.89156" lon="-0.9159">
        <ele>2</ele>
        <time>2018-06-30T18:14:58.000Z</time>
      </trkpt>
      <trkpt lat="45.89156" lon="-0.91591">
        <ele>2</ele>
        <time>2018-06-30T18:14:59.000Z</time>
      </trkpt>
      <trkpt lat="45.89156" lon="-0.91591">
        <ele>2</ele>
        <time>2018-06-30T18:15:00.000Z</time>
      </trkpt>
      <trkpt lat="45.89156" lon="-0.91592">
        <ele>2</ele>
        <time>2018-06-30T18:15:01.000Z</time>
      </trkpt>
      <trkpt lat="45.89157" lon="-0.91593">
        <ele>2</ele>
        <time>2018-06-30T18:15:02.000Z</time>
      </trkpt>
      <trkpt lat="45.89158" lon="-0.91593">
        <ele>2</ele>
        <time>2018-06-30T18:15:03.000Z</time>
      </trkpt>
      <trkpt lat="45.89158" lon="-0.91594">
        <ele>2</ele>
        <time>2018-06-30T18:15:04.000Z</time>
      </trkpt>
      <trkpt lat="45.89159" lon="-0.91594">
        <ele>2</ele>
        <time>2018-06-30T18:15:05.000Z</time>
      </trkpt>
      <trkpt lat="45.8916" lon="-0.91593">
        <ele>2</ele>
        <time>2018-06-30T18:15:06.000Z</time>
      </trkpt>
      <trkpt lat="45.89161" lon="-0.91592">
        <ele>2</ele>
        <time>2018-06-30T18:15:07.000Z</time>
      </trkpt>
      <trkpt lat="45.89161" lon="-0.91592">
        <ele>2</ele>
        <time>2018-06-30T18:15:08.000Z</time>
      </trkpt>
      <trkpt lat="45.89162" lon="-0.91591">
        <ele>2</ele>
        <time>2018-06-30T18:15:09.000Z</time>
      </trkpt>
      <trkpt lat="45.89162" lon="-0.9159">
        <ele>2</ele>
        <time>2018-06-30T18:15:10.000Z</time>
      </trkpt>
      <trkpt lat="45.89163" lon="-0.91589">
        <ele>2</ele>
        <time>2018-06-30T18:15:11.000Z</time>
      </trkpt>
      <trkpt lat="45.89163" lon="-0.91588">
        <ele>2</ele>
        <time>2018-06-30T18:15:12.000Z</time>
      </trkpt>
      <trkpt lat="45.89163" lon="-0.91587">
        <ele>3</ele>
        <time>2018-06-30T18:15:13.000Z</time>
      </trkpt>
      <trkpt lat="45.89164" lon="-0.91586">
        <ele>3</ele>
        <time>2018-06-30T18:15:14.000Z</time>
      </trkpt>
      <trkpt lat="45.89163" lon="-0.91586">
        <ele>1</ele>
        <time>2018-06-30T18:15:15.000Z</time>
      </trkpt>
      <trkpt lat="45.89163" lon="-0.91586">
        <ele>2</ele>
        <time>2018-06-30T18:15:16.000Z</time>
      </trkpt>
      <trkpt lat="45.89162" lon="-0.91586">
        <ele>2</ele>
        <time>2018-06-30T18:15:17.000Z</time>
      </trkpt>
      <trkpt lat="45.89162" lon="-0.91586">
        <ele>2</ele>
        <time>2018-06-30T18:15:18.000Z</time>
      </trkpt>
      <trkpt lat="45.89162" lon="-0.91586">
        <ele>1</ele>
        <time>2018-06-30T18:15:19.000Z</time>
      </trkpt>
      <trkpt lat="45.89162" lon="-0.91586">
        <ele>1</ele>
        <time>2018-06-30T18:15:20.000Z</time>
      </trkpt>
      <trkpt lat="45.89163" lon="-0.91586">
        <ele>1</ele>
        <time>2018-06-30T18:15:21.000Z</time>
      </trkpt>
      <trkpt lat="45.89163" lon="-0.91585">
        <ele>1</ele>
        <time>2018-06-30T18:15:22.000Z</time>
      </trkpt>
      <trkpt lat="45.89164" lon="-0.91585">
        <ele>1</ele>
        <time>2018-06-30T18:15:23.000Z</time>
      </trkpt>
      <trkpt lat="45.89164" lon="-0.91584">
        <ele>1</ele>
        <time>2018-06-30T18:15:24.000Z</time>
      </trkpt>
      <trkpt lat="45.89164" lon="-0.91583">
        <ele>1</ele>
        <time>2018-06-30T18:15:25.000Z</time>
      </trkpt>
      <trkpt lat="45.89165" lon="-0.91582">
        <ele>1</ele>
        <time>2018-06-30T18:15:26.000Z</time>
      </trkpt>
      <trkpt lat="45.89165" lon="-0.91581">
        <ele>6.1</ele>
        <time>2018-06-30T18:15:27.000Z</time>
      </trkpt>
      <trkpt lat="45.89165" lon="-0.91581">
        <ele>6.1</ele>
        <time>2018-06-30T18:15:28.000Z</time>
      </trkpt>
      <trkpt lat="45.89165" lon="-0.9158">
        <ele>6.2</ele>
        <time>2018-06-30T18:15:29.000Z</time>
      </trkpt>
      <trkpt lat="45.89165" lon="-0.91579">
        <ele>6.2</ele>
        <time>2018-06-30T18:15:30.000Z</time>
      </trkpt>
      <trkpt lat="45.89165" lon="-0.91578">
        <ele>6.3</ele>
        <time>2018-06-30T18:15:31.000Z</time>
      </trkpt>
      <trkpt lat="45.89165" lon="-0.91577">
        <ele>6.4</ele>
        <time>2018-06-30T18:15:32.000Z</time>
      </trkpt>
      <trkpt lat="45.89165" lon="-0.91576">
        <ele>6.4</ele>
        <time>2018-06-30T18:15:33.000Z</time>
      </trkpt>
      <trkpt lat="45.89165" lon="-0.91575">
        <ele>6.5</ele>
        <time>2018-06-30T18:15:34.000Z</time>
      </trkpt>
      <trkpt lat="45.89165" lon="-0.91574">
        <ele>6.6</ele>
        <time>2018-06-30T18:15:35.000Z</time>
      </trkpt>
      <trkpt lat="45.89166" lon="-0.91573">
        <ele>6.6</ele>
        <time>2018-06-30T18:15:36.000Z</time>
      </trkpt>
      <trkpt lat="45.89166" lon="-0.91573">
        <ele>6.7</ele>
        <time>2018-06-30T18:15:37.000Z</time>
      </trkpt>
      <trkpt lat="45.89167" lon="-0.91572">
        <ele>1</ele>
        <time>2018-06-30T18:15:38.000Z</time>
      </trkpt>
      <trkpt lat="45.89167" lon="-0.91571">
        <ele>1</ele>
        <time>2018-06-30T18:15:39.000Z</time>
      </trkpt>
      <trkpt lat="45.89168" lon="-0.9157">
        <ele>1</ele>
        <time>2018-06-30T18:15:40.000Z</time>
      </trkpt>
      <trkpt lat="45.89168" lon="-0.91569">
        <ele>1</ele>
        <time>2018-06-30T18:15:41.000Z</time>
      </trkpt>
      <trkpt lat="45.89169" lon="-0.91568">
        <ele>1</ele>
        <time>2018-06-30T18:15:42.000Z</time>
      </trkpt>
      <trkpt lat="45.8917" lon="-0.91567">
        <ele>1</ele>
        <time>2018-06-30T18:15:43.000Z</time>
      </trkpt>
      <trkpt lat="45.8917" lon="-0.91566">
        <ele>1</ele>
        <time>2018-06-30T18:15:44.000Z</time>
      </trkpt>
      <trkpt lat="45.89171" lon="-0.91566">
        <ele>1</ele>
        <time>2018-06-30T18:15:45.000Z</time>
      </trkpt>
      <trkpt lat="45.89171" lon="-0.91565">
        <ele>1</ele>
        <time>2018-06-30T18:15:46.000Z</time>
      </trkpt>
      <trkpt lat="45.89172" lon="-0.91564">
        <ele>2</ele>
        <time>2018-06-30T18:15:47.000Z</time>
      </trkpt>
      <trkpt lat="45.89172" lon="-0.91563">
        <ele>2</ele>
        <time>2018-06-30T18:15:48.000Z</time>
      </trkpt>
      <trkpt lat="45.89173" lon="-0.91562">
        <ele>2</ele>
        <time>2018-06-30T18:15:49.000Z</time>
      </trkpt>
      <trkpt lat="45.89174" lon="-0.91562">
        <ele>2</ele>
        <time>2018-06-30T18:15:50.000Z</time>
      </trkpt>
      <trkpt lat="45.89174" lon="-0.91561">
        <ele>2</ele>
        <time>2018-06-30T18:15:51.000Z</time>
      </trkpt>
      <trkpt lat="45.89175" lon="-0.9156">
        <ele>2</ele>
        <time>2018-06-30T18:15:52.000Z</time>
      </trkpt>
      <trkpt lat="45.89175" lon="-0.91559">
        <ele>4</ele>
        <time>2018-06-30T18:15:53.000Z</time>
      </trkpt>
      <trkpt lat="45.89176" lon="-0.91559">
        <ele>4</ele>
        <time>2018-06-30T18:15:54.000Z</time>
      </trkpt>
      <trkpt lat="45.89176" lon="-0.91558">
        <ele>3</ele>
        <time>2018-06-30T18:15:55.000Z</time>
      </trkpt>
      <trkpt lat="45.89176" lon="-0.91558">
        <ele>3</ele>
        <time>2018-06-30T18:15:56.000Z</time>
      </trkpt>
      <trkpt lat="45.89176" lon="-0.91558">
        <ele>3</ele>
        <time>2018-06-30T18:15:57.000Z</time>
      </trkpt>
      <trkpt lat="45.89177" lon="-0.91558">
        <ele>3</ele>
        <time>2018-06-30T18:15:58.000Z</time>
      </trkpt>
      <trkpt lat="45.89177" lon="-0.91558">
        <ele>3</ele>
        <time>2018-06-30T18:15:59.000Z</time>
      </trkpt>
      <trkpt lat="45.89177" lon="-0.91557">
        <ele>4</ele>
        <time>2018-06-30T18:16:00.000Z</time>
      </trkpt>
      <trkpt lat="45.89177" lon="-0.91557">
        <ele>4</ele>
        <time>2018-06-30T18:16:01.000Z</time>
      </trkpt>
      <trkpt lat="45.89177" lon="-0.91557">
        <ele>4</ele>
        <time>2018-06-30T18:16:02.000Z</time>
      </trkpt>
      <trkpt lat="45.89177" lon="-0.91557">
        <ele>4</ele>
        <time>2018-06-30T18:16:03.000Z</time>
      </trkpt>
      <trkpt lat="45.89177" lon="-0.91557">
        <ele>4</ele>
        <time>2018-06-30T18:16:04.000Z</time>
      </trkpt>
      <trkpt lat="45.89177" lon="-0.91557">
        <ele>4</ele>
        <time>2018-06-30T18:16:05.000Z</time>
      </trkpt>
      <trkpt lat="45.89177" lon="-0.91556">
        <ele>4</ele>
        <time>2018-06-30T18:16:06.000Z</time>
      </trkpt>
      <trkpt lat="45.89177" lon="-0.91556">
        <ele>4</ele>
        <time>2018-06-30T18:16:07.000Z</time>
      </trkpt>
      <trkpt lat="45.89177" lon="-0.91556">
        <ele>5</ele>
        <time>2018-06-30T18:16:08.000Z</time>
      </trkpt>
      <trkpt lat="45.89177" lon="-0.91556">
        <ele>4</ele>
        <time>2018-06-30T18:16:09.000Z</time>
      </trkpt>
      <trkpt lat="45.89177" lon="-0.91556">
        <ele>5</ele>
        <time>2018-06-30T18:16:10.000Z</time>
      </trkpt>
      <trkpt lat="45.89177" lon="-0.91556">
        <ele>4</ele>
        <time>2018-06-30T18:16:11.000Z</time>
      </trkpt>
      <trkpt lat="45.89177" lon="-0.91556">
        <ele>4</ele>
        <time>2018-06-30T18:16:12.000Z</time>
      </trkpt>
      <trkpt lat="45.89177" lon="-0.91556">
        <ele>4</ele>
        <time>2018-06-30T18:16:13.000Z</time>
      </trkpt>
      <trkpt lat="45.89177" lon="-0.91556">
        <ele>4</ele>
        <time>2018-06-30T18:16:14.000Z</time>
      </trkpt>
      <trkpt lat="45.89177" lon="-0.91556">
        <ele>4</ele>
        <time>2018-06-30T18:16:15.000Z</time>
      </trkpt>
      <trkpt lat="45.89177" lon="-0.91556">
        <ele>4</ele>
        <time>2018-06-30T18:16:16.000Z</time>
      </trkpt>
      <trkpt lat="45.89177" lon="-0.91556">
        <ele>4</ele>
        <time>2018-06-30T18:16:17.000Z</time>
      </trkpt>
      <trkpt lat="45.89177" lon="-0.91555">
        <ele>4</ele>
        <time>2018-06-30T18:16:18.000Z</time>
      </trkpt>
      <trkpt lat="45.89177" lon="-0.91555">
        <ele>4</ele>
        <time>2018-06-30T18:16:19.000Z</time>
      </trkpt>
      <trkpt lat="45.89177" lon="-0.91555">
        <ele>5</ele>
        <time>2018-06-30T18:16:20.000Z</time>
      </trkpt>
      <trkpt lat="45.89177" lon="-0.91555">
        <ele>5</ele>
        <time>2018-06-30T18:16:21.000Z</time>
      </trkpt>
      <trkpt lat="45.89177" lon="-0.91555">
        <ele>5</ele>
        <time>2018-06-30T18:16:22.000Z</time>
      </trkpt>
      <trkpt lat="45.89177" lon="-0.91555">
        <ele>4</ele>
        <time>2018-06-30T18:16:23.000Z</time>
      </trkpt>
      <trkpt lat="45.89177" lon="-0.91555">
        <ele>5</ele>
        <time>2018-06-30T18:16:24.000Z</time>
      </trkpt>
      <trkpt lat="45.89177" lon="-0.91555">
        <ele>5</ele>
        <time>2018-06-30T18:16:25.000Z</time>
      </trkpt>
      <trkpt lat="45.89177" lon="-0.91555">
        <ele>6</ele>
        <time>2018-06-30T18:16:26.000Z</time>
      </trkpt>
      <trkpt lat="45.89177" lon="-0.91555">
        <ele>5</ele>
        <time>2018-06-30T18:16:27.000Z</time>
      </trkpt>
      <trkpt lat="45.89177" lon="-0.91555">
        <ele>5</ele>
        <time>2018-06-30T18:16:28.000Z</time>
      </trkpt>
      <trkpt lat="45.89177" lon="-0.91556">
        <ele>5</ele>
        <time>2018-06-30T18:16:29.000Z</time>
      </trkpt>
      <trkpt lat="45.89177" lon="-0.91556">
        <ele>5</ele>
        <time>2018-06-30T18:16:30.000Z</time>
      </trkpt>
      <trkpt lat="45.89177" lon="-0.91556">
        <ele>5</ele>
        <time>2018-06-30T18:16:31.000Z</time>
      </trkpt>
      <trkpt lat="45.89177" lon="-0.91555">
        <ele>5</ele>
        <time>2018-06-30T18:16:32.000Z</time>
      </trkpt>
      <trkpt lat="45.89177" lon="-0.91555">
        <ele>5</ele>
        <time>2018-06-30T18:16:33.000Z</time>
      </trkpt>
      <trkpt lat="45.89177" lon="-0.91555">
        <ele>5</ele>
        <time>2018-06-30T18:16:34.000Z</time>
      </trkpt>
      <trkpt lat="45.89177" lon="-0.91555">
        <ele>5</ele>
        <time>2018-06-30T18:16:35.000Z</time>
      </trkpt>
      <trkpt lat="45.89177" lon="-0.91556">
        <ele>5</ele>
        <time>2018-06-30T18:16:36.000Z</time>
      </trkpt>
      <trkpt lat="45.89177" lon="-0.91556">
        <ele>5</ele>
        <time>2018-06-30T18:16:37.000Z</time>
      </trkpt>
      <trkpt lat="45.89177" lon="-0.91556">
        <ele>5</ele>
        <time>2018-06-30T18:16:38.000Z</time>
      </trkpt>
      <trkpt lat="45.89177" lon="-0.91556">
        <ele>5</ele>
        <time>2018-06-30T18:16:39.000Z</time>
      </trkpt>
      <trkpt lat="45.89178" lon="-0.91556">
        <ele>5</ele>
        <time>2018-06-30T18:16:40.000Z</time>
      </trkpt>
      <trkpt lat="45.89178" lon="-0.91556">
        <ele>5</ele>
        <time>2018-06-30T18:16:41.000Z</time>
      </trkpt>
      <trkpt lat="45.89178" lon="-0.91555">
        <ele>5</ele>
        <time>2018-06-30T18:16:42.000Z</time>
      </trkpt>
      <trkpt lat="45.89179" lon="-0.91555">
        <ele>5</ele>
        <time>2018-06-30T18:16:43.000Z</time>
      </trkpt>
      <trkpt lat="45.89179" lon="-0.91555">
        <ele>4</ele>
        <time>2018-06-30T18:16:44.000Z</time>
      </trkpt>
      <trkpt lat="45.89179" lon="-0.91554">
        <ele>4</ele>
        <time>2018-06-30T18:16:45.000Z</time>
      </trkpt>
      <trkpt lat="45.89179" lon="-0.91554">
        <ele>4</ele>
        <time>2018-06-30T18:16:46.000Z</time>
      </trkpt>
      <trkpt lat="45.89179" lon="-0.91553">
        <ele>4</ele>
        <time>2018-06-30T18:16:47.000Z</time>
      </trkpt>
      <trkpt lat="45.89179" lon="-0.91553">
        <ele>4</ele>
        <time>2018-06-30T18:16:48.000Z</time>
      </trkpt>
      <trkpt lat="45.8918" lon="-0.91553">
        <ele>4</ele>
        <time>2018-06-30T18:16:49.000Z</time>
      </trkpt>
      <trkpt lat="45.8918" lon="-0.91552">
        <ele>4</ele>
        <time>2018-06-30T18:16:50.000Z</time>
      </trkpt>
      <trkpt lat="45.89181" lon="-0.91552">
        <ele>4</ele>
        <time>2018-06-30T18:16:51.000Z</time>
      </trkpt>
      <trkpt lat="45.89181" lon="-0.91551">
        <ele>4</ele>
        <time>2018-06-30T18:16:52.000Z</time>
      </trkpt>
      <trkpt lat="45.89182" lon="-0.91551">
        <ele>4</ele>
        <time>2018-06-30T18:16:53.000Z</time>
      </trkpt>
      <trkpt lat="45.89183" lon="-0.9155">
        <ele>4</ele>
        <time>2018-06-30T18:16:54.000Z</time>
      </trkpt>
      <trkpt lat="45.89184" lon="-0.9155">
        <ele>4</ele>
        <time>2018-06-30T18:16:55.000Z</time>
      </trkpt>
      <trkpt lat="45.89185" lon="-0.91549">
        <ele>4</ele>
        <time>2018-06-30T18:16:56.000Z</time>
      </trkpt>
      <trkpt lat="45.89186" lon="-0.91548">
        <ele>4</ele>
        <time>2018-06-30T18:16:57.000Z</time>
      </trkpt>
      <trkpt lat="45.89187" lon="-0.91548">
        <ele>4</ele>
        <time>2018-06-30T18:16:58.000Z</time>
      </trkpt>
      <trkpt lat="45.89188" lon="-0.91547">
        <ele>4</ele>
        <time>2018-06-30T18:16:59.000Z</time>
      </trkpt>
      <trkpt lat="45.89189" lon="-0.91547">
        <ele>4</ele>
        <time>2018-06-30T18:17:00.000Z</time>
      </trkpt>
      <trkpt lat="45.8919" lon="-0.91547">
        <ele>4</ele>
        <time>2018-06-30T18:17:01.000Z</time>
      </trkpt>
      <trkpt lat="45.89191" lon="-0.91547">
        <ele>4</ele>
        <time>2018-06-30T18:17:02.000Z</time>
      </trkpt>
      <trkpt lat="45.89192" lon="-0.91548">
        <ele>4</ele>
        <time>2018-06-30T18:17:03.000Z</time>
      </trkpt>
      <trkpt lat="45.89193" lon="-0.91548">
        <ele>4</ele>
        <time>2018-06-30T18:17:04.000Z</time>
      </trkpt>
      <trkpt lat="45.89194" lon="-0.91548">
        <ele>4</ele>
        <time>2018-06-30T18:17:05.000Z</time>
      </trkpt>
      <trkpt lat="45.89195" lon="-0.91549">
        <ele>3</ele>
        <time>2018-06-30T18:17:06.000Z</time>
      </trkpt>
      <trkpt lat="45.89196" lon="-0.91549">
        <ele>4</ele>
        <time>2018-06-30T18:17:07.000Z</time>
      </trkpt>
      <trkpt lat="45.89197" lon="-0.9155">
        <ele>3</ele>
        <time>2018-06-30T18:17:08.000Z</time>
      </trkpt>
      <trkpt lat="45.89198" lon="-0.91551">
        <ele>3</ele>
        <time>2018-06-30T18:17:09.000Z</time>
      </trkpt>
      <trkpt lat="45.89198" lon="-0.91552">
        <ele>4</ele>
        <time>2018-06-30T18:17:10.000Z</time>
      </trkpt>
      <trkpt lat="45.89199" lon="-0.91553">
        <ele>4</ele>
        <time>2018-06-30T18:17:11.000Z</time>
      </trkpt>
      <trkpt lat="45.892" lon="-0.91554">
        <ele>4</ele>
        <time>2018-06-30T18:17:12.000Z</time>
      </trkpt>
      <trkpt lat="45.89202" lon="-0.91555">
        <ele>3</ele>
        <time>2018-06-30T18:17:13.000Z</time>
      </trkpt>
      <trkpt lat="45.89203" lon="-0.91556">
        <ele>4</ele>
        <time>2018-06-30T18:17:14.000Z</time>
      </trkpt>
      <trkpt lat="45.89204" lon="-0.91556">
        <ele>4</ele>
        <time>2018-06-30T18:17:15.000Z</time>
      </trkpt>
      <trkpt lat="45.89205" lon="-0.91557">
        <ele>3</ele>
        <time>2018-06-30T18:17:16.000Z</time>
      </trkpt>
      <trkpt lat="45.89206" lon="-0.91557">
        <ele>3</ele>
        <time>2018-06-30T18:17:17.000Z</time>
      </trkpt>
      <trkpt lat="45.89207" lon="-0.91558">
        <ele>3</ele>
        <time>2018-06-30T18:17:18.000Z</time>
      </trkpt>
      <trkpt lat="45.89208" lon="-0.91559">
        <ele>3</ele>
        <time>2018-06-30T18:17:19.000Z</time>
      </trkpt>
      <trkpt lat="45.89209" lon="-0.9156">
        <ele>4</ele>
        <time>2018-06-30T18:17:20.000Z</time>
      </trkpt>
      <trkpt lat="45.8921" lon="-0.91561">
        <ele>4</ele>
        <time>2018-06-30T18:17:21.000Z</time>
      </trkpt>
      <trkpt lat="45.89211" lon="-0.91562">
        <ele>4</ele>
        <time>2018-06-30T18:17:22.000Z</time>
      </trkpt>
      <trkpt lat="45.89212" lon="-0.91563">
        <ele>4</ele>
        <time>2018-06-30T18:17:23.000Z</time>
      </trkpt>
      <trkpt lat="45.89213" lon="-0.91564">
        <ele>3</ele>
        <time>2018-06-30T18:17:24.000Z</time>
      </trkpt>
      <trkpt lat="45.89213" lon="-0.91565">
        <ele>4</ele>
        <time>2018-06-30T18:17:25.000Z</time>
      </trkpt>
      <trkpt lat="45.89214" lon="-0.91566">
        <ele>3</ele>
        <time>2018-06-30T18:17:26.000Z</time>
      </trkpt>
      <trkpt lat="45.89215" lon="-0.91568">
        <ele>4</ele>
        <time>2018-06-30T18:17:27.000Z</time>
      </trkpt>
      <trkpt lat="45.89216" lon="-0.91569">
        <ele>4</ele>
        <time>2018-06-30T18:17:28.000Z</time>
      </trkpt>
      <trkpt lat="45.89217" lon="-0.9157">
        <ele>4</ele>
        <time>2018-06-30T18:17:29.000Z</time>
      </trkpt>
      <trkpt lat="45.89218" lon="-0.91571">
        <ele>3</ele>
        <time>2018-06-30T18:17:30.000Z</time>
      </trkpt>
      <trkpt lat="45.89219" lon="-0.91572">
        <ele>3</ele>
        <time>2018-06-30T18:17:31.000Z</time>
      </trkpt>
      <trkpt lat="45.89219" lon="-0.91573">
        <ele>3</ele>
        <time>2018-06-30T18:17:32.000Z</time>
      </trkpt>
      <trkpt lat="45.8922" lon="-0.91574">
        <ele>3</ele>
        <time>2018-06-30T18:17:33.000Z</time>
      </trkpt>
      <trkpt lat="45.89221" lon="-0.91576">
        <ele>3</ele>
        <time>2018-06-30T18:17:34.000Z</time>
      </trkpt>
      <trkpt lat="45.89222" lon="-0.91577">
        <ele>3</ele>
        <time>2018-06-30T18:17:35.000Z</time>
      </trkpt>
      <trkpt lat="45.89222" lon="-0.91578">
        <ele>3</ele>
        <time>2018-06-30T18:17:36.000Z</time>
      </trkpt>
      <trkpt lat="45.89223" lon="-0.9158">
        <ele>3</ele>
        <time>2018-06-30T18:17:37.000Z</time>
      </trkpt>
      <trkpt lat="45.89223" lon="-0.91581">
        <ele>3</ele>
        <time>2018-06-30T18:17:38.000Z</time>
      </trkpt>
      <trkpt lat="45.89224" lon="-0.91583">
        <ele>3</ele>
        <time>2018-06-30T18:17:39.000Z</time>
      </trkpt>
      <trkpt lat="45.89225" lon="-0.91584">
        <ele>3</ele>
        <time>2018-06-30T18:17:40.000Z</time>
      </trkpt>
      <trkpt lat="45.89226" lon="-0.91586">
        <ele>3</ele>
        <time>2018-06-30T18:17:41.000Z</time>
      </trkpt>
      <trkpt lat="45.89226" lon="-0.91587">
        <ele>3</ele>
        <time>2018-06-30T18:17:42.000Z</time>
      </trkpt>
      <trkpt lat="45.89227" lon="-0.91588">
        <ele>3</ele>
        <time>2018-06-30T18:17:43.000Z</time>
      </trkpt>
      <trkpt lat="45.89228" lon="-0.9159">
        <ele>3</ele>
        <time>2018-06-30T18:17:44.000Z</time>
      </trkpt>
      <trkpt lat="45.89229" lon="-0.91591">
        <ele>3</ele>
        <time>2018-06-30T18:17:45.000Z</time>
      </trkpt>
      <trkpt lat="45.8923" lon="-0.91593">
        <ele>3</ele>
        <time>2018-06-30T18:17:46.000Z</time>
      </trkpt>
      <trkpt lat="45.8923" lon="-0.91594">
        <ele>4</ele>
        <time>2018-06-30T18:17:47.000Z</time>
      </trkpt>
      <trkpt lat="45.89231" lon="-0.91595">
        <ele>4</ele>
        <time>2018-06-30T18:17:48.000Z</time>
      </trkpt>
      <trkpt lat="45.89232" lon="-0.91597">
        <ele>3</ele>
        <time>2018-06-30T18:17:49.000Z</time>
      </trkpt>
      <trkpt lat="45.89233" lon="-0.91598">
        <ele>4</ele>
        <time>2018-06-30T18:17:50.000Z</time>
      </trkpt>
      <trkpt lat="45.89233" lon="-0.91599">
        <ele>4</ele>
        <time>2018-06-30T18:17:51.000Z</time>
      </trkpt>
      <trkpt lat="45.89234" lon="-0.91601">
        <ele>4</ele>
        <time>2018-06-30T18:17:52.000Z</time>
      </trkpt>
      <trkpt lat="45.89234" lon="-0.91602">
        <ele>4</ele>
        <time>2018-06-30T18:17:53.000Z</time>
      </trkpt>
      <trkpt lat="45.89235" lon="-0.91604">
        <ele>4</ele>
        <time>2018-06-30T18:17:54.000Z</time>
      </trkpt>
      <trkpt lat="45.89235" lon="-0.91605">
        <ele>4</ele>
        <time>2018-06-30T18:17:55.000Z</time>
      </trkpt>
      <trkpt lat="45.89235" lon="-0.91606">
        <ele>4</ele>
        <time>2018-06-30T18:17:56.000Z</time>
      </trkpt>
      <trkpt lat="45.89236" lon="-0.91608">
        <ele>4</ele>
        <time>2018-06-30T18:17:57.000Z</time>
      </trkpt>
      <trkpt lat="45.89237" lon="-0.91609">
        <ele>3</ele>
        <time>2018-06-30T18:17:58.000Z</time>
      </trkpt>
      <trkpt lat="45.89237" lon="-0.9161">
        <ele>3</ele>
        <time>2018-06-30T18:17:59.000Z</time>
      </trkpt>
      <trkpt lat="45.89238" lon="-0.91612">
        <ele>3</ele>
        <time>2018-06-30T18:18:00.000Z</time>
      </trkpt>
      <trkpt lat="45.89238" lon="-0.91613">
        <ele>3</ele>
        <time>2018-06-30T18:18:01.000Z</time>
      </trkpt>
      <trkpt lat="45.89239" lon="-0.91614">
        <ele>3</ele>
        <time>2018-06-30T18:18:02.000Z</time>
      </trkpt>
      <trkpt lat="45.8924" lon="-0.91615">
        <ele>2</ele>
        <time>2018-06-30T18:18:03.000Z</time>
      </trkpt>
      <trkpt lat="45.89241" lon="-0.91616">
        <ele>2</ele>
        <time>2018-06-30T18:18:04.000Z</time>
      </trkpt>
      <trkpt lat="45.89241" lon="-0.91617">
        <ele>2</ele>
        <time>2018-06-30T18:18:05.000Z</time>
      </trkpt>
      <trkpt lat="45.89242" lon="-0.91618">
        <ele>2</ele>
        <time>2018-06-30T18:18:06.000Z</time>
      </trkpt>
      <trkpt lat="45.89243" lon="-0.91618">
        <ele>2</ele>
        <time>2018-06-30T18:18:07.000Z</time>
      </trkpt>
      <trkpt lat="45.89243" lon="-0.91619">
        <ele>2</ele>
        <time>2018-06-30T18:18:08.000Z</time>
      </trkpt>
      <trkpt lat="45.89244" lon="-0.9162">
        <ele>2</ele>
        <time>2018-06-30T18:18:09.000Z</time>
      </trkpt>
      <trkpt lat="45.89245" lon="-0.91621">
        <ele>1</ele>
        <time>2018-06-30T18:18:10.000Z</time>
      </trkpt>
      <trkpt lat="45.89245" lon="-0.91623">
        <ele>1</ele>
        <time>2018-06-30T18:18:11.000Z</time>
      </trkpt>
      <trkpt lat="45.89246" lon="-0.91624">
        <ele>1</ele>
        <time>2018-06-30T18:18:12.000Z</time>
      </trkpt>
      <trkpt lat="45.89247" lon="-0.91625">
        <ele>1</ele>
        <time>2018-06-30T18:18:13.000Z</time>
      </trkpt>
      <trkpt lat="45.89248" lon="-0.91627">
        <ele>1</ele>
        <time>2018-06-30T18:18:14.000Z</time>
      </trkpt>
      <trkpt lat="45.89248" lon="-0.91628">
        <ele>1</ele>
        <time>2018-06-30T18:18:15.000Z</time>
      </trkpt>
      <trkpt lat="45.89249" lon="-0.9163">
        <ele>1</ele>
        <time>2018-06-30T18:18:16.000Z</time>
      </trkpt>
      <trkpt lat="45.8925" lon="-0.91631">
        <ele>1</ele>
        <time>2018-06-30T18:18:17.000Z</time>
      </trkpt>
      <trkpt lat="45.8925" lon="-0.91633">
        <ele>1</ele>
        <time>2018-06-30T18:18:18.000Z</time>
      </trkpt>
      <trkpt lat="45.89251" lon="-0.91634">
        <ele>1</ele>
        <time>2018-06-30T18:18:19.000Z</time>
      </trkpt>
      <trkpt lat="45.89251" lon="-0.91635">
        <ele>1</ele>
        <time>2018-06-30T18:18:20.000Z</time>
      </trkpt>
      <trkpt lat="45.89252" lon="-0.91636">
        <ele>1</ele>
        <time>2018-06-30T18:18:21.000Z</time>
      </trkpt>
      <trkpt lat="45.89253" lon="-0.91638">
        <ele>2</ele>
        <time>2018-06-30T18:18:22.000Z</time>
      </trkpt>
      <trkpt lat="45.89253" lon="-0.91639">
        <ele>1</ele>
        <time>2018-06-30T18:18:23.000Z</time>
      </trkpt>
      <trkpt lat="45.89254" lon="-0.91641">
        <ele>1</ele>
        <time>2018-06-30T18:18:24.000Z</time>
      </trkpt>
      <trkpt lat="45.89255" lon="-0.91642">
        <ele>1</ele>
        <time>2018-06-30T18:18:25.000Z</time>
      </trkpt>
      <trkpt lat="45.89255" lon="-0.91644">
        <ele>1</ele>
        <time>2018-06-30T18:18:26.000Z</time>
      </trkpt>
      <trkpt lat="45.89256" lon="-0.91646">
        <ele>1</ele>
        <time>2018-06-30T18:18:27.000Z</time>
      </trkpt>
      <trkpt lat="45.89256" lon="-0.91648">
        <ele>2</ele>
        <time>2018-06-30T18:18:28.000Z</time>
      </trkpt>
      <trkpt lat="45.89257" lon="-0.91649">
        <ele>1</ele>
        <time>2018-06-30T18:18:29.000Z</time>
      </trkpt>
      <trkpt lat="45.89258" lon="-0.91651">
        <ele>4.9</ele>
        <time>2018-06-30T18:18:30.000Z</time>
      </trkpt>
      <trkpt lat="45.89258" lon="-0.91652">
        <ele>5.1</ele>
        <time>2018-06-30T18:18:31.000Z</time>
      </trkpt>
      <trkpt lat="45.89258" lon="-0.91654">
        <ele>5.2</ele>
        <time>2018-06-30T18:18:32.000Z</time>
      </trkpt>
      <trkpt lat="45.89259" lon="-0.91656">
        <ele>5.4</ele>
        <time>2018-06-30T18:18:33.000Z</time>
      </trkpt>
      <trkpt lat="45.89259" lon="-0.91658">
        <ele>5.5</ele>
        <time>2018-06-30T18:18:34.000Z</time>
      </trkpt>
      <trkpt lat="45.8926" lon="-0.9166">
        <ele>5.6</ele>
        <time>2018-06-30T18:18:35.000Z</time>
      </trkpt>
      <trkpt lat="45.8926" lon="-0.91661">
        <ele>5.7</ele>
        <time>2018-06-30T18:18:36.000Z</time>
      </trkpt>
      <trkpt lat="45.89261" lon="-0.91663">
        <ele>5.7</ele>
        <time>2018-06-30T18:18:37.000Z</time>
      </trkpt>
      <trkpt lat="45.89261" lon="-0.91664">
        <ele>5.8</ele>
        <time>2018-06-30T18:18:38.000Z</time>
      </trkpt>
      <trkpt lat="45.89262" lon="-0.91666">
        <ele>5.8</ele>
        <time>2018-06-30T18:18:39.000Z</time>
      </trkpt>
      <trkpt lat="45.89263" lon="-0.91668">
        <ele>5.8</ele>
        <time>2018-06-30T18:18:40.000Z</time>
      </trkpt>
      <trkpt lat="45.89263" lon="-0.91669">
        <ele>5.7</ele>
        <time>2018-06-30T18:18:41.000Z</time>
      </trkpt>
      <trkpt lat="45.89264" lon="-0.91671">
        <ele>5.7</ele>
        <time>2018-06-30T18:18:42.000Z</time>
      </trkpt>
      <trkpt lat="45.89264" lon="-0.91673">
        <ele>5.6</ele>
        <time>2018-06-30T18:18:43.000Z</time>
      </trkpt>
      <trkpt lat="45.89265" lon="-0.91674">
        <ele>5.5</ele>
        <time>2018-06-30T18:18:44.000Z</time>
      </trkpt>
      <trkpt lat="45.89266" lon="-0.91676">
        <ele>5.4</ele>
        <time>2018-06-30T18:18:45.000Z</time>
      </trkpt>
      <trkpt lat="45.89267" lon="-0.91678">
        <ele>5.3</ele>
        <time>2018-06-30T18:18:46.000Z</time>
      </trkpt>
      <trkpt lat="45.89267" lon="-0.91679">
        <ele>5.3</ele>
        <time>2018-06-30T18:18:47.000Z</time>
      </trkpt>
      <trkpt lat="45.89268" lon="-0.91681">
        <ele>5.2</ele>
        <time>2018-06-30T18:18:48.000Z</time>
      </trkpt>
      <trkpt lat="45.89268" lon="-0.91682">
        <ele>5.1</ele>
        <time>2018-06-30T18:18:49.000Z</time>
      </trkpt>
      <trkpt lat="45.89269" lon="-0.91684">
        <ele>5.1</ele>
        <time>2018-06-30T18:18:50.000Z</time>
      </trkpt>
      <trkpt lat="45.89269" lon="-0.91686">
        <ele>5</ele>
        <time>2018-06-30T18:18:51.000Z</time>
      </trkpt>
      <trkpt lat="45.8927" lon="-0.91687">
        <ele>4.9</ele>
        <time>2018-06-30T18:18:52.000Z</time>
      </trkpt>
      <trkpt lat="45.8927" lon="-0.91689">
        <ele>4.8</ele>
        <time>2018-06-30T18:18:53.000Z</time>
      </trkpt>
      <trkpt lat="45.89271" lon="-0.91691">
        <ele>4.7</ele>
        <time>2018-06-30T18:18:54.000Z</time>
      </trkpt>
      <trkpt lat="45.89271" lon="-0.91693">
        <ele>4.6</ele>
        <time>2018-06-30T18:18:55.000Z</time>
      </trkpt>
      <trkpt lat="45.89272" lon="-0.91695">
        <ele>4.4</ele>
        <time>2018-06-30T18:18:56.000Z</time>
      </trkpt>
      <trkpt lat="45.89273" lon="-0.91696">
        <ele>4.3</ele>
        <time>2018-06-30T18:18:57.000Z</time>
      </trkpt>
      <trkpt lat="45.89273" lon="-0.91698">
        <ele>4.1</ele>
        <time>2018-06-30T18:18:58.000Z</time>
      </trkpt>
      <trkpt lat="45.89274" lon="-0.917">
        <ele>4</ele>
        <time>2018-06-30T18:18:59.000Z</time>
      </trkpt>
      <trkpt lat="45.89275" lon="-0.91701">
        <ele>3.8</ele>
        <time>2018-06-30T18:19:00.000Z</time>
      </trkpt>
      <trkpt lat="45.89275" lon="-0.91703">
        <ele>3.6</ele>
        <time>2018-06-30T18:19:01.000Z</time>
      </trkpt>
      <trkpt lat="45.89276" lon="-0.91705">
        <ele>1</ele>
        <time>2018-06-30T18:19:02.000Z</time>
      </trkpt>
      <trkpt lat="45.89276" lon="-0.91707">
        <ele>1</ele>
        <time>2018-06-30T18:19:03.000Z</time>
      </trkpt>
      <trkpt lat="45.89277" lon="-0.91709">
        <ele>1</ele>
        <time>2018-06-30T18:19:04.000Z</time>
      </trkpt>
      <trkpt lat="45.89278" lon="-0.9171">
        <ele>1</ele>
        <time>2018-06-30T18:19:05.000Z</time>
      </trkpt>
      <trkpt lat="45.89278" lon="-0.91712">
        <ele>2</ele>
        <time>2018-06-30T18:19:06.000Z</time>
      </trkpt>
      <trkpt lat="45.89279" lon="-0.91714">
        <ele>1</ele>
        <time>2018-06-30T18:19:07.000Z</time>
      </trkpt>
      <trkpt lat="45.89279" lon="-0.91716">
        <ele>2</ele>
        <time>2018-06-30T18:19:08.000Z</time>
      </trkpt>
      <trkpt lat="45.89279" lon="-0.91718">
        <ele>2</ele>
        <time>2018-06-30T18:19:09.000Z</time>
      </trkpt>
      <trkpt lat="45.89279" lon="-0.9172">
        <ele>2</ele>
        <time>2018-06-30T18:19:10.000Z</time>
      </trkpt>
      <trkpt lat="45.89279" lon="-0.91722">
        <ele>2</ele>
        <time>2018-06-30T18:19:11.000Z</time>
      </trkpt>
      <trkpt lat="45.89279" lon="-0.91724">
        <ele>2</ele>
        <time>2018-06-30T18:19:12.000Z</time>
      </trkpt>
      <trkpt lat="45.89279" lon="-0.91726">
        <ele>2</ele>
        <time>2018-06-30T18:19:13.000Z</time>
      </trkpt>
      <trkpt lat="45.89279" lon="-0.91727">
        <ele>2</ele>
        <time>2018-06-30T18:19:14.000Z</time>
      </trkpt>
      <trkpt lat="45.89279" lon="-0.91728">
        <ele>2</ele>
        <time>2018-06-30T18:19:15.000Z</time>
      </trkpt>
      <trkpt lat="45.89279" lon="-0.91729">
        <ele>3</ele>
        <time>2018-06-30T18:19:16.000Z</time>
      </trkpt>
      <trkpt lat="45.89279" lon="-0.9173">
        <ele>4</ele>
        <time>2018-06-30T18:19:17.000Z</time>
      </trkpt>
      <trkpt lat="45.89279" lon="-0.91731">
        <ele>4</ele>
        <time>2018-06-30T18:19:18.000Z</time>
      </trkpt>
      <trkpt lat="45.89279" lon="-0.91732">
        <ele>3</ele>
        <time>2018-06-30T18:19:19.000Z</time>
      </trkpt>
      <trkpt lat="45.89278" lon="-0.91732">
        <ele>3</ele>
        <time>2018-06-30T18:19:20.000Z</time>
      </trkpt>
      <trkpt lat="45.89278" lon="-0.91733">
        <ele>3</ele>
        <time>2018-06-30T18:19:21.000Z</time>
      </trkpt>
      <trkpt lat="45.89277" lon="-0.91734">
        <ele>2</ele>
        <time>2018-06-30T18:19:22.000Z</time>
      </trkpt>
      <trkpt lat="45.89277" lon="-0.91735">
        <ele>2</ele>
        <time>2018-06-30T18:19:23.000Z</time>
      </trkpt>
      <trkpt lat="45.89277" lon="-0.91736">
        <ele>2</ele>
        <time>2018-06-30T18:19:24.000Z</time>
      </trkpt>
      <trkpt lat="45.89276" lon="-0.91737">
        <ele>2</ele>
        <time>2018-06-30T18:19:25.000Z</time>
      </trkpt>
      <trkpt lat="45.89276" lon="-0.91738">
        <ele>2</ele>
        <time>2018-06-30T18:19:26.000Z</time>
      </trkpt>
      <trkpt lat="45.89276" lon="-0.91739">
        <ele>2</ele>
        <time>2018-06-30T18:19:27.000Z</time>
      </trkpt>
      <trkpt lat="45.89276" lon="-0.91739">
        <ele>2</ele>
        <time>2018-06-30T18:19:28.000Z</time>
      </trkpt>
      <trkpt lat="45.89275" lon="-0.9174">
        <ele>2</ele>
        <time>2018-06-30T18:19:29.000Z</time>
      </trkpt>
      <trkpt lat="45.89275" lon="-0.9174">
        <ele>2</ele>
        <time>2018-06-30T18:19:30.000Z</time>
      </trkpt>
      <trkpt lat="45.89274" lon="-0.91741">
        <ele>1</ele>
        <time>2018-06-30T18:19:31.000Z</time>
      </trkpt>
      <trkpt lat="45.89274" lon="-0.91741">
        <ele>1</ele>
        <time>2018-06-30T18:19:32.000Z</time>
      </trkpt>
      <trkpt lat="45.89273" lon="-0.91742">
        <ele>1</ele>
        <time>2018-06-30T18:19:33.000Z</time>
      </trkpt>
      <trkpt lat="45.89272" lon="-0.91743">
        <ele>4</ele>
        <time>2018-06-30T18:19:34.000Z</time>
      </trkpt>
      <trkpt lat="45.89272" lon="-0.91744">
        <ele>4.1</ele>
        <time>2018-06-30T18:19:35.000Z</time>
      </trkpt>
      <trkpt lat="45.89271" lon="-0.91745">
        <ele>4.2</ele>
        <time>2018-06-30T18:19:36.000Z</time>
      </trkpt>
      <trkpt lat="45.89271" lon="-0.91746">
        <ele>4.4</ele>
        <time>2018-06-30T18:19:37.000Z</time>
      </trkpt>
      <trkpt lat="45.8927" lon="-0.91747">
        <ele>4.4</ele>
        <time>2018-06-30T18:19:38.000Z</time>
      </trkpt>
      <trkpt lat="45.8927" lon="-0.91747">
        <ele>4.5</ele>
        <time>2018-06-30T18:19:39.000Z</time>
      </trkpt>
      <trkpt lat="45.89269" lon="-0.91748">
        <ele>4.6</ele>
        <time>2018-06-30T18:19:40.000Z</time>
      </trkpt>
      <trkpt lat="45.89269" lon="-0.9175">
        <ele>4.6</ele>
        <time>2018-06-30T18:19:41.000Z</time>
      </trkpt>
      <trkpt lat="45.89268" lon="-0.91751">
        <ele>4.7</ele>
        <time>2018-06-30T18:19:42.000Z</time>
      </trkpt>
      <trkpt lat="45.89268" lon="-0.91752">
        <ele>4.8</ele>
        <time>2018-06-30T18:19:43.000Z</time>
      </trkpt>
      <trkpt lat="45.89267" lon="-0.91753">
        <ele>4.9</ele>
        <time>2018-06-30T18:19:44.000Z</time>
      </trkpt>
      <trkpt lat="45.89267" lon="-0.91754">
        <ele>4.9</ele>
        <time>2018-06-30T18:19:45.000Z</time>
      </trkpt>
      <trkpt lat="45.89266" lon="-0.91755">
        <ele>5</ele>
        <time>2018-06-30T18:19:46.000Z</time>
      </trkpt>
      <trkpt lat="45.89266" lon="-0.91756">
        <ele>5.1</ele>
        <time>2018-06-30T18:19:47.000Z</time>
      </trkpt>
      <trkpt lat="45.89265" lon="-0.91757">
        <ele>5.1</ele>
        <time>2018-06-30T18:19:48.000Z</time>
      </trkpt>
      <trkpt lat="45.89265" lon="-0.91758">
        <ele>5.2</ele>
        <time>2018-06-30T18:19:49.000Z</time>
      </trkpt>
      <trkpt lat="45.89264" lon="-0.91759">
        <ele>5.3</ele>
        <time>2018-06-30T18:19:50.000Z</time>
      </trkpt>
      <trkpt lat="45.89264" lon="-0.9176">
        <ele>5.3</ele>
        <time>2018-06-30T18:19:51.000Z</time>
      </trkpt>
      <trkpt lat="45.89264" lon="-0.91761">
        <ele>5.3</ele>
        <time>2018-06-30T18:19:52.000Z</time>
      </trkpt>
      <trkpt lat="45.89263" lon="-0.91762">
        <ele>1</ele>
        <time>2018-06-30T18:19:53.000Z</time>
      </trkpt>
      <trkpt lat="45.89263" lon="-0.91763">
        <ele>1</ele>
        <time>2018-06-30T18:19:54.000Z</time>
      </trkpt>
      <trkpt lat="45.89263" lon="-0.91765">
        <ele>1</ele>
        <time>2018-06-30T18:19:55.000Z</time>
      </trkpt>
      <trkpt lat="45.89263" lon="-0.91766">
        <ele>1</ele>
        <time>2018-06-30T18:19:56.000Z</time>
      </trkpt>
      <trkpt lat="45.89263" lon="-0.91767">
        <ele>1</ele>
        <time>2018-06-30T18:19:57.000Z</time>
      </trkpt>
      <trkpt lat="45.89263" lon="-0.91769">
        <ele>5.3</ele>
        <time>2018-06-30T18:19:58.000Z</time>
      </trkpt>
      <trkpt lat="45.89263" lon="-0.9177">
        <ele>5.3</ele>
        <time>2018-06-30T18:19:59.000Z</time>
      </trkpt>
      <trkpt lat="45.89263" lon="-0.91771">
        <ele>5.3</ele>
        <time>2018-06-30T18:20:00.000Z</time>
      </trkpt>
      <trkpt lat="45.89263" lon="-0.91773">
        <ele>5.3</ele>
        <time>2018-06-30T18:20:01.000Z</time>
      </trkpt>
      <trkpt lat="45.89263" lon="-0.91774">
        <ele>5.3</ele>
        <time>2018-06-30T18:20:02.000Z</time>
      </trkpt>
      <trkpt lat="45.89263" lon="-0.91775">
        <ele>5.2</ele>
        <time>2018-06-30T18:20:03.000Z</time>
      </trkpt>
      <trkpt lat="45.89263" lon="-0.91777">
        <ele>5.2</ele>
        <time>2018-06-30T18:20:04.000Z</time>
      </trkpt>
      <trkpt lat="45.89263" lon="-0.91778">
        <ele>5.1</ele>
        <time>2018-06-30T18:20:05.000Z</time>
      </trkpt>
      <trkpt lat="45.89264" lon="-0.9178">
        <ele>5</ele>
        <time>2018-06-30T18:20:06.000Z</time>
      </trkpt>
      <trkpt lat="45.89264" lon="-0.91781">
        <ele>5</ele>
        <time>2018-06-30T18:20:07.000Z</time>
      </trkpt>
      <trkpt lat="45.89264" lon="-0.91783">
        <ele>5</ele>
        <time>2018-06-30T18:20:08.000Z</time>
      </trkpt>
      <trkpt lat="45.89264" lon="-0.91784">
        <ele>4.9</ele>
        <time>2018-06-30T18:20:09.000Z</time>
      </trkpt>
      <trkpt lat="45.89265" lon="-0.91786">
        <ele>4.9</ele>
        <time>2018-06-30T18:20:10.000Z</time>
      </trkpt>
      <trkpt lat="45.89265" lon="-0.91787">
        <ele>4.8</ele>
        <time>2018-06-30T18:20:11.000Z</time>
      </trkpt>
      <trkpt lat="45.89266" lon="-0.91789">
        <ele>4.8</ele>
        <time>2018-06-30T18:20:12.000Z</time>
      </trkpt>
      <trkpt lat="45.89266" lon="-0.9179">
        <ele>4.7</ele>
        <time>2018-06-30T18:20:13.000Z</time>
      </trkpt>
      <trkpt lat="45.89266" lon="-0.91791">
        <ele>4.7</ele>
        <time>2018-06-30T18:20:14.000Z</time>
      </trkpt>
      <trkpt lat="45.89267" lon="-0.91793">
        <ele>4.6</ele>
        <time>2018-06-30T18:20:15.000Z</time>
      </trkpt>
      <trkpt lat="45.89267" lon="-0.91794">
        <ele>4.5</ele>
        <time>2018-06-30T18:20:16.000Z</time>
      </trkpt>
      <trkpt lat="45.89268" lon="-0.91796">
        <ele>4.5</ele>
        <time>2018-06-30T18:20:17.000Z</time>
      </trkpt>
      <trkpt lat="45.89268" lon="-0.91797">
        <ele>4.4</ele>
        <time>2018-06-30T18:20:18.000Z</time>
      </trkpt>
      <trkpt lat="45.89268" lon="-0.91798">
        <ele>4.4</ele>
        <time>2018-06-30T18:20:19.000Z</time>
      </trkpt>
      <trkpt lat="45.89268" lon="-0.91799">
        <ele>4.3</ele>
        <time>2018-06-30T18:20:20.000Z</time>
      </trkpt>
      <trkpt lat="45.89269" lon="-0.918">
        <ele>4.3</ele>
        <time>2018-06-30T18:20:21.000Z</time>
      </trkpt>
      <trkpt lat="45.89269" lon="-0.91802">
        <ele>4.3</ele>
        <time>2018-06-30T18:20:22.000Z</time>
      </trkpt>
      <trkpt lat="45.89269" lon="-0.91803">
        <ele>4.2</ele>
        <time>2018-06-30T18:20:23.000Z</time>
      </trkpt>
      <trkpt lat="45.8927" lon="-0.91804">
        <ele>4.2</ele>
        <time>2018-06-30T18:20:24.000Z</time>
      </trkpt>
      <trkpt lat="45.8927" lon="-0.91806">
        <ele>4.1</ele>
        <time>2018-06-30T18:20:25.000Z</time>
      </trkpt>
      <trkpt lat="45.8927" lon="-0.91808">
        <ele>4.1</ele>
        <time>2018-06-30T18:20:26.000Z</time>
      </trkpt>
      <trkpt lat="45.8927" lon="-0.91809">
        <ele>1</ele>
        <time>2018-06-30T18:20:27.000Z</time>
      </trkpt>
      <trkpt lat="45.8927" lon="-0.91811">
        <ele>1</ele>
        <time>2018-06-30T18:20:28.000Z</time>
      </trkpt>
      <trkpt lat="45.89271" lon="-0.91813">
        <ele>1</ele>
        <time>2018-06-30T18:20:29.000Z</time>
      </trkpt>
      <trkpt lat="45.89271" lon="-0.91816">
        <ele>1</ele>
        <time>2018-06-30T18:20:30.000Z</time>
      </trkpt>
      <trkpt lat="45.89271" lon="-0.91817">
        <ele>3.8</ele>
        <time>2018-06-30T18:20:31.000Z</time>
      </trkpt>
      <trkpt lat="45.89271" lon="-0.91819">
        <ele>1</ele>
        <time>2018-06-30T18:20:32.000Z</time>
      </trkpt>
      <trkpt lat="45.89272" lon="-0.91821">
        <ele>3.6</ele>
        <time>2018-06-30T18:20:33.000Z</time>
      </trkpt>
      <trkpt lat="45.89272" lon="-0.91823">
        <ele>1</ele>
        <time>2018-06-30T18:20:34.000Z</time>
      </trkpt>
      <trkpt lat="45.89272" lon="-0.91824">
        <ele>1</ele>
        <time>2018-06-30T18:20:35.000Z</time>
      </trkpt>
      <trkpt lat="45.89273" lon="-0.91826">
        <ele>1</ele>
        <time>2018-06-30T18:20:36.000Z</time>
      </trkpt>
      <trkpt lat="45.89273" lon="-0.91827">
        <ele>1</ele>
        <time>2018-06-30T18:20:37.000Z</time>
      </trkpt>
      <trkpt lat="45.89273" lon="-0.91828">
        <ele>1</ele>
        <time>2018-06-30T18:20:38.000Z</time>
      </trkpt>
      <trkpt lat="45.89274" lon="-0.91829">
        <ele>1</ele>
        <time>2018-06-30T18:20:39.000Z</time>
      </trkpt>
      <trkpt lat="45.89274" lon="-0.91831">
        <ele>1</ele>
        <time>2018-06-30T18:20:40.000Z</time>
      </trkpt>
      <trkpt lat="45.89274" lon="-0.91832">
        <ele>1</ele>
        <time>2018-06-30T18:20:41.000Z</time>
      </trkpt>
      <trkpt lat="45.89275" lon="-0.91833">
        <ele>1</ele>
        <time>2018-06-30T18:20:42.000Z</time>
      </trkpt>
      <trkpt lat="45.89275" lon="-0.91835">
        <ele>1</ele>
        <time>2018-06-30T18:20:43.000Z</time>
      </trkpt>
      <trkpt lat="45.89275" lon="-0.91836">
        <ele>1</ele>
        <time>2018-06-30T18:20:44.000Z</time>
      </trkpt>
      <trkpt lat="45.89276" lon="-0.91838">
        <ele>1</ele>
        <time>2018-06-30T18:20:45.000Z</time>
      </trkpt>
      <trkpt lat="45.89276" lon="-0.91839">
        <ele>1</ele>
        <time>2018-06-30T18:20:46.000Z</time>
      </trkpt>
      <trkpt lat="45.89276" lon="-0.9184">
        <ele>1</ele>
        <time>2018-06-30T18:20:47.000Z</time>
      </trkpt>
      <trkpt lat="45.89277" lon="-0.91841">
        <ele>1</ele>
        <time>2018-06-30T18:20:48.000Z</time>
      </trkpt>
      <trkpt lat="45.89277" lon="-0.91843">
        <ele>1</ele>
        <time>2018-06-30T18:20:49.000Z</time>
      </trkpt>
      <trkpt lat="45.89278" lon="-0.91844">
        <ele>1</ele>
        <time>2018-06-30T18:20:50.000Z</time>
      </trkpt>
      <trkpt lat="45.89278" lon="-0.91846">
        <ele>2</ele>
        <time>2018-06-30T18:20:51.000Z</time>
      </trkpt>
      <trkpt lat="45.89279" lon="-0.91847">
        <ele>2</ele>
        <time>2018-06-30T18:20:52.000Z</time>
      </trkpt>
      <trkpt lat="45.89279" lon="-0.91848">
        <ele>2</ele>
        <time>2018-06-30T18:20:53.000Z</time>
      </trkpt>
      <trkpt lat="45.8928" lon="-0.9185">
        <ele>2</ele>
        <time>2018-06-30T18:20:54.000Z</time>
      </trkpt>
      <trkpt lat="45.8928" lon="-0.91851">
        <ele>1</ele>
        <time>2018-06-30T18:20:55.000Z</time>
      </trkpt>
      <trkpt lat="45.89281" lon="-0.91852">
        <ele>1</ele>
        <time>2018-06-30T18:20:56.000Z</time>
      </trkpt>
      <trkpt lat="45.89281" lon="-0.91853">
        <ele>1</ele>
        <time>2018-06-30T18:20:57.000Z</time>
      </trkpt>
      <trkpt lat="45.89282" lon="-0.91854">
        <ele>3.7</ele>
        <time>2018-06-30T18:20:58.000Z</time>
      </trkpt>
      <trkpt lat="45.89282" lon="-0.91855">
        <ele>3.7</ele>
        <time>2018-06-30T18:20:59.000Z</time>
      </trkpt>
      <trkpt lat="45.89282" lon="-0.91856">
        <ele>3.7</ele>
        <time>2018-06-30T18:21:00.000Z</time>
      </trkpt>
      <trkpt lat="45.89282" lon="-0.91858">
        <ele>3.7</ele>
        <time>2018-06-30T18:21:01.000Z</time>
      </trkpt>
      <trkpt lat="45.89282" lon="-0.91859">
        <ele>3.8</ele>
        <time>2018-06-30T18:21:02.000Z</time>
      </trkpt>
      <trkpt lat="45.89282" lon="-0.91861">
        <ele>3.8</ele>
        <time>2018-06-30T18:21:03.000Z</time>
      </trkpt>
      <trkpt lat="45.89282" lon="-0.91862">
        <ele>3.8</ele>
        <time>2018-06-30T18:21:04.000Z</time>
      </trkpt>
      <trkpt lat="45.89282" lon="-0.91864">
        <ele>3.8</ele>
        <time>2018-06-30T18:21:05.000Z</time>
      </trkpt>
      <trkpt lat="45.89282" lon="-0.91865">
        <ele>3.7</ele>
        <time>2018-06-30T18:21:06.000Z</time>
      </trkpt>
      <trkpt lat="45.89282" lon="-0.91867">
        <ele>3.7</ele>
        <time>2018-06-30T18:21:07.000Z</time>
      </trkpt>
      <trkpt lat="45.89281" lon="-0.91868">
        <ele>3.7</ele>
        <time>2018-06-30T18:21:08.000Z</time>
      </trkpt>
      <trkpt lat="45.89281" lon="-0.91869">
        <ele>3.6</ele>
        <time>2018-06-30T18:21:09.000Z</time>
      </trkpt>
      <trkpt lat="45.8928" lon="-0.91871">
        <ele>3.6</ele>
        <time>2018-06-30T18:21:10.000Z</time>
      </trkpt>
      <trkpt lat="45.8928" lon="-0.91872">
        <ele>3.6</ele>
        <time>2018-06-30T18:21:11.000Z</time>
      </trkpt>
      <trkpt lat="45.89279" lon="-0.91873">
        <ele>3.5</ele>
        <time>2018-06-30T18:21:12.000Z</time>
      </trkpt>
      <trkpt lat="45.89278" lon="-0.91874">
        <ele>3.5</ele>
        <time>2018-06-30T18:21:13.000Z</time>
      </trkpt>
      <trkpt lat="45.89278" lon="-0.91876">
        <ele>3.5</ele>
        <time>2018-06-30T18:21:14.000Z</time>
      </trkpt>
      <trkpt lat="45.89277" lon="-0.91877">
        <ele>3.5</ele>
        <time>2018-06-30T18:21:15.000Z</time>
      </trkpt>
      <trkpt lat="45.89277" lon="-0.91878">
        <ele>3.4</ele>
        <time>2018-06-30T18:21:16.000Z</time>
      </trkpt>
      <trkpt lat="45.89276" lon="-0.9188">
        <ele>3.4</ele>
        <time>2018-06-30T18:21:17.000Z</time>
      </trkpt>
      <trkpt lat="45.89276" lon="-0.91881">
        <ele>3.4</ele>
        <time>2018-06-30T18:21:18.000Z</time>
      </trkpt>
      <trkpt lat="45.89275" lon="-0.91883">
        <ele>3.4</ele>
        <time>2018-06-30T18:21:19.000Z</time>
      </trkpt>
      <trkpt lat="45.89275" lon="-0.91884">
        <ele>3.4</ele>
        <time>2018-06-30T18:21:20.000Z</time>
      </trkpt>
      <trkpt lat="45.89274" lon="-0.91885">
        <ele>3.4</ele>
        <time>2018-06-30T18:21:21.000Z</time>
      </trkpt>
      <trkpt lat="45.89274" lon="-0.91886">
        <ele>3.4</ele>
        <time>2018-06-30T18:21:22.000Z</time>
      </trkpt>
      <trkpt lat="45.89273" lon="-0.91888">
        <ele>3.4</ele>
        <time>2018-06-30T18:21:23.000Z</time>
      </trkpt>
      <trkpt lat="45.89273" lon="-0.91889">
        <ele>3.4</ele>
        <time>2018-06-30T18:21:24.000Z</time>
      </trkpt>
      <trkpt lat="45.89272" lon="-0.91891">
        <ele>3.4</ele>
        <time>2018-06-30T18:21:25.000Z</time>
      </trkpt>
      <trkpt lat="45.89272" lon="-0.91892">
        <ele>3.4</ele>
        <time>2018-06-30T18:21:26.000Z</time>
      </trkpt>
      <trkpt lat="45.89272" lon="-0.91894">
        <ele>3.4</ele>
        <time>2018-06-30T18:21:27.000Z</time>
      </trkpt>
      <trkpt lat="45.89272" lon="-0.91895">
        <ele>3.4</ele>
        <time>2018-06-30T18:21:28.000Z</time>
      </trkpt>
      <trkpt lat="45.89272" lon="-0.91896">
        <ele>3.4</ele>
        <time>2018-06-30T18:21:29.000Z</time>
      </trkpt>
      <trkpt lat="45.89271" lon="-0.91898">
        <ele>3.5</ele>
        <time>2018-06-30T18:21:30.000Z</time>
      </trkpt>
      <trkpt lat="45.89271" lon="-0.91899">
        <ele>3.5</ele>
        <time>2018-06-30T18:21:31.000Z</time>
      </trkpt>
      <trkpt lat="45.89271" lon="-0.91901">
        <ele>3.5</ele>
        <time>2018-06-30T18:21:32.000Z</time>
      </trkpt>
      <trkpt lat="45.89272" lon="-0.91902">
        <ele>3.4</ele>
        <time>2018-06-30T18:21:33.000Z</time>
      </trkpt>
      <trkpt lat="45.89272" lon="-0.91904">
        <ele>3.4</ele>
        <time>2018-06-30T18:21:34.000Z</time>
      </trkpt>
      <trkpt lat="45.89272" lon="-0.91905">
        <ele>3.4</ele>
        <time>2018-06-30T18:21:35.000Z</time>
      </trkpt>
      <trkpt lat="45.89273" lon="-0.91907">
        <ele>3.4</ele>
        <time>2018-06-30T18:21:36.000Z</time>
      </trkpt>
      <trkpt lat="45.89273" lon="-0.91908">
        <ele>3.3</ele>
        <time>2018-06-30T18:21:37.000Z</time>
      </trkpt>
      <trkpt lat="45.89274" lon="-0.91909">
        <ele>3.3</ele>
        <time>2018-06-30T18:21:38.000Z</time>
      </trkpt>
      <trkpt lat="45.89274" lon="-0.9191">
        <ele>3.2</ele>
        <time>2018-06-30T18:21:39.000Z</time>
      </trkpt>
      <trkpt lat="45.89275" lon="-0.91911">
        <ele>3.2</ele>
        <time>2018-06-30T18:21:40.000Z</time>
      </trkpt>
      <trkpt lat="45.89276" lon="-0.91912">
        <ele>3.1</ele>
        <time>2018-06-30T18:21:41.000Z</time>
      </trkpt>
      <trkpt lat="45.89277" lon="-0.91914">
        <ele>1</ele>
        <time>2018-06-30T18:21:42.000Z</time>
      </trkpt>
      <trkpt lat="45.89278" lon="-0.91915">
        <ele>1</ele>
        <time>2018-06-30T18:21:43.000Z</time>
      </trkpt>
      <trkpt lat="45.89278" lon="-0.91917">
        <ele>1</ele>
        <time>2018-06-30T18:21:44.000Z</time>
      </trkpt>
      <trkpt lat="45.89279" lon="-0.91918">
        <ele>2</ele>
        <time>2018-06-30T18:21:45.000Z</time>
      </trkpt>
      <trkpt lat="45.8928" lon="-0.91919">
        <ele>2</ele>
        <time>2018-06-30T18:21:46.000Z</time>
      </trkpt>
      <trkpt lat="45.8928" lon="-0.91921">
        <ele>2</ele>
        <time>2018-06-30T18:21:47.000Z</time>
      </trkpt>
      <trkpt lat="45.89281" lon="-0.91922">
        <ele>2</ele>
        <time>2018-06-30T18:21:48.000Z</time>
      </trkpt>
      <trkpt lat="45.89281" lon="-0.91923">
        <ele>2</ele>
        <time>2018-06-30T18:21:49.000Z</time>
      </trkpt>
      <trkpt lat="45.89282" lon="-0.91925">
        <ele>2</ele>
        <time>2018-06-30T18:21:50.000Z</time>
      </trkpt>
      <trkpt lat="45.89283" lon="-0.91926">
        <ele>2</ele>
        <time>2018-06-30T18:21:51.000Z</time>
      </trkpt>
      <trkpt lat="45.89284" lon="-0.91927">
        <ele>2</ele>
        <time>2018-06-30T18:21:52.000Z</time>
      </trkpt>
      <trkpt lat="45.89284" lon="-0.91929">
        <ele>2</ele>
        <time>2018-06-30T18:21:53.000Z</time>
      </trkpt>
      <trkpt lat="45.89285" lon="-0.9193">
        <ele>2</ele>
        <time>2018-06-30T18:21:54.000Z</time>
      </trkpt>
      <trkpt lat="45.89286" lon="-0.91931">
        <ele>2</ele>
        <time>2018-06-30T18:21:55.000Z</time>
      </trkpt>
      <trkpt lat="45.89286" lon="-0.91933">
        <ele>2</ele>
        <time>2018-06-30T18:21:56.000Z</time>
      </trkpt>
      <trkpt lat="45.89287" lon="-0.91934">
        <ele>2</ele>
        <time>2018-06-30T18:21:57.000Z</time>
      </trkpt>
      <trkpt lat="45.89288" lon="-0.91935">
        <ele>2</ele>
        <time>2018-06-30T18:21:58.000Z</time>
      </trkpt>
      <trkpt lat="45.89288" lon="-0.91937">
        <ele>2</ele>
        <time>2018-06-30T18:21:59.000Z</time>
      </trkpt>
      <trkpt lat="45.89289" lon="-0.91938">
        <ele>2</ele>
        <time>2018-06-30T18:22:00.000Z</time>
      </trkpt>
      <trkpt lat="45.8929" lon="-0.91939">
        <ele>1</ele>
        <time>2018-06-30T18:22:01.000Z</time>
      </trkpt>
      <trkpt lat="45.89291" lon="-0.9194">
        <ele>1</ele>
        <time>2018-06-30T18:22:02.000Z</time>
      </trkpt>
      <trkpt lat="45.89291" lon="-0.91941">
        <ele>1</ele>
        <time>2018-06-30T18:22:03.000Z</time>
      </trkpt>
      <trkpt lat="45.89292" lon="-0.91942">
        <ele>1</ele>
        <time>2018-06-30T18:22:04.000Z</time>
      </trkpt>
      <trkpt lat="45.89293" lon="-0.91942">
        <ele>1</ele>
        <time>2018-06-30T18:22:05.000Z</time>
      </trkpt>
      <trkpt lat="45.89294" lon="-0.91943">
        <ele>3</ele>
        <time>2018-06-30T18:22:06.000Z</time>
      </trkpt>
      <trkpt lat="45.89295" lon="-0.91944">
        <ele>3</ele>
        <time>2018-06-30T18:22:07.000Z</time>
      </trkpt>
      <trkpt lat="45.89296" lon="-0.91944">
        <ele>3</ele>
        <time>2018-06-30T18:22:08.000Z</time>
      </trkpt>
      <trkpt lat="45.89297" lon="-0.91944">
        <ele>3</ele>
        <time>2018-06-30T18:22:09.000Z</time>
      </trkpt>
      <trkpt lat="45.89298" lon="-0.91945">
        <ele>1</ele>
        <time>2018-06-30T18:22:10.000Z</time>
      </trkpt>
      <trkpt lat="45.89299" lon="-0.91945">
        <ele>1</ele>
        <time>2018-06-30T18:22:11.000Z</time>
      </trkpt>
      <trkpt lat="45.893" lon="-0.91945">
        <ele>1</ele>
        <time>2018-06-30T18:22:12.000Z</time>
      </trkpt>
      <trkpt lat="45.89301" lon="-0.91945">
        <ele>3</ele>
        <time>2018-06-30T18:22:13.000Z</time>
      </trkpt>
      <trkpt lat="45.89302" lon="-0.91945">
        <ele>3</ele>
        <time>2018-06-30T18:22:14.000Z</time>
      </trkpt>
      <trkpt lat="45.89303" lon="-0.91945">
        <ele>3</ele>
        <time>2018-06-30T18:22:15.000Z</time>
      </trkpt>
      <trkpt lat="45.89304" lon="-0.91944">
        <ele>3</ele>
        <time>2018-06-30T18:22:16.000Z</time>
      </trkpt>
      <trkpt lat="45.89305" lon="-0.91943">
        <ele>3</ele>
        <time>2018-06-30T18:22:17.000Z</time>
      </trkpt>
      <trkpt lat="45.89306" lon="-0.91943">
        <ele>3</ele>
        <time>2018-06-30T18:22:18.000Z</time>
      </trkpt>
      <trkpt lat="45.89306" lon="-0.91942">
        <ele>3</ele>
        <time>2018-06-30T18:22:19.000Z</time>
      </trkpt>
      <trkpt lat="45.89307" lon="-0.91941">
        <ele>3.1</ele>
        <time>2018-06-30T18:22:20.000Z</time>
      </trkpt>
      <trkpt lat="45.89308" lon="-0.91941">
        <ele>3.1</ele>
        <time>2018-06-30T18:22:21.000Z</time>
      </trkpt>
      <trkpt lat="45.89309" lon="-0.9194">
        <ele>3.1</ele>
        <time>2018-06-30T18:22:22.000Z</time>
      </trkpt>
      <trkpt lat="45.8931" lon="-0.91939">
        <ele>3.1</ele>
        <time>2018-06-30T18:22:23.000Z</time>
      </trkpt>
      <trkpt lat="45.89311" lon="-0.91938">
        <ele>3.1</ele>
        <time>2018-06-30T18:22:24.000Z</time>
      </trkpt>
      <trkpt lat="45.89311" lon="-0.91937">
        <ele>3.2</ele>
        <time>2018-06-30T18:22:25.000Z</time>
      </trkpt>
      <trkpt lat="45.89312" lon="-0.91936">
        <ele>3.2</ele>
        <time>2018-06-30T18:22:26.000Z</time>
      </trkpt>
      <trkpt lat="45.89313" lon="-0.91935">
        <ele>3.2</ele>
        <time>2018-06-30T18:22:27.000Z</time>
      </trkpt>
      <trkpt lat="45.89314" lon="-0.91935">
        <ele>3.2</ele>
        <time>2018-06-30T18:22:28.000Z</time>
      </trkpt>
      <trkpt lat="45.89314" lon="-0.91934">
        <ele>3.2</ele>
        <time>2018-06-30T18:22:29.000Z</time>
      </trkpt>
      <trkpt lat="45.89315" lon="-0.91933">
        <ele>3.2</ele>
        <time>2018-06-30T18:22:30.000Z</time>
      </trkpt>
      <trkpt lat="45.89316" lon="-0.91932">
        <ele>3.2</ele>
        <time>2018-06-30T18:22:31.000Z</time>
      </trkpt>
      <trkpt lat="45.89317" lon="-0.91932">
        <ele>3.2</ele>
        <time>2018-06-30T18:22:32.000Z</time>
      </trkpt>
      <trkpt lat="45.89318" lon="-0.91931">
        <ele>3.2</ele>
        <time>2018-06-30T18:22:33.000Z</time>
      </trkpt>
      <trkpt lat="45.89318" lon="-0.91931">
        <ele>3.2</ele>
        <time>2018-06-30T18:22:34.000Z</time>
      </trkpt>
      <trkpt lat="45.89319" lon="-0.9193">
        <ele>3.2</ele>
        <time>2018-06-30T18:22:35.000Z</time>
      </trkpt>
      <trkpt lat="45.8932" lon="-0.9193">
        <ele>3.2</ele>
        <time>2018-06-30T18:22:36.000Z</time>
      </trkpt>
      <trkpt lat="45.8932" lon="-0.91929">
        <ele>3.2</ele>
        <time>2018-06-30T18:22:37.000Z</time>
      </trkpt>
      <trkpt lat="45.89321" lon="-0.91929">
        <ele>3.2</ele>
        <time>2018-06-30T18:22:38.000Z</time>
      </trkpt>
      <trkpt lat="45.89322" lon="-0.91928">
        <ele>-1</ele>
        <time>2018-06-30T18:22:39.000Z</time>
      </trkpt>
      <trkpt lat="45.89323" lon="-0.91928">
        <ele>3.3</ele>
        <time>2018-06-30T18:22:40.000Z</time>
      </trkpt>
      <trkpt lat="45.89324" lon="-0.91928">
        <ele>3.3</ele>
        <time>2018-06-30T18:22:41.000Z</time>
      </trkpt>
      <trkpt lat="45.89325" lon="-0.91927">
        <ele>3.3</ele>
        <time>2018-06-30T18:22:42.000Z</time>
      </trkpt>
      <trkpt lat="45.89326" lon="-0.91927">
        <ele>3.3</ele>
        <time>2018-06-30T18:22:43.000Z</time>
      </trkpt>
      <trkpt lat="45.89327" lon="-0.91927">
        <ele>3.3</ele>
        <time>2018-06-30T18:22:44.000Z</time>
      </trkpt>
      <trkpt lat="45.89328" lon="-0.91926">
        <ele>3.3</ele>
        <time>2018-06-30T18:22:45.000Z</time>
      </trkpt>
      <trkpt lat="45.89329" lon="-0.91926">
        <ele>3.3</ele>
        <time>2018-06-30T18:22:46.000Z</time>
      </trkpt>
      <trkpt lat="45.8933" lon="-0.91926">
        <ele>3.3</ele>
        <time>2018-06-30T18:22:47.000Z</time>
      </trkpt>
      <trkpt lat="45.89331" lon="-0.91926">
        <ele>3.3</ele>
        <time>2018-06-30T18:22:48.000Z</time>
      </trkpt>
      <trkpt lat="45.89332" lon="-0.91925">
        <ele>3.3</ele>
        <time>2018-06-30T18:22:49.000Z</time>
      </trkpt>
      <trkpt lat="45.89333" lon="-0.91925">
        <ele>3.3</ele>
        <time>2018-06-30T18:22:50.000Z</time>
      </trkpt>
      <trkpt lat="45.89333" lon="-0.91924">
        <ele>3.3</ele>
        <time>2018-06-30T18:22:51.000Z</time>
      </trkpt>
      <trkpt lat="45.89334" lon="-0.91924">
        <ele>3.3</ele>
        <time>2018-06-30T18:22:52.000Z</time>
      </trkpt>
      <trkpt lat="45.89335" lon="-0.91923">
        <ele>3.2</ele>
        <time>2018-06-30T18:22:53.000Z</time>
      </trkpt>
      <trkpt lat="45.89336" lon="-0.91923">
        <ele>3.2</ele>
        <time>2018-06-30T18:22:54.000Z</time>
      </trkpt>
      <trkpt lat="45.89337" lon="-0.91923">
        <ele>3.2</ele>
        <time>2018-06-30T18:22:55.000Z</time>
      </trkpt>
      <trkpt lat="45.89338" lon="-0.91923">
        <ele>3.2</ele>
        <time>2018-06-30T18:22:56.000Z</time>
      </trkpt>
      <trkpt lat="45.89339" lon="-0.91922">
        <ele>3.2</ele>
        <time>2018-06-30T18:22:57.000Z</time>
      </trkpt>
      <trkpt lat="45.8934" lon="-0.91922">
        <ele>1</ele>
        <time>2018-06-30T18:22:58.000Z</time>
      </trkpt>
      <trkpt lat="45.89341" lon="-0.91921">
        <ele>1</ele>
        <time>2018-06-30T18:22:59.000Z</time>
      </trkpt>
      <trkpt lat="45.89342" lon="-0.91921">
        <ele>1</ele>
        <time>2018-06-30T18:23:00.000Z</time>
      </trkpt>
      <trkpt lat="45.89343" lon="-0.9192">
        <ele>1</ele>
        <time>2018-06-30T18:23:01.000Z</time>
      </trkpt>
      <trkpt lat="45.89343" lon="-0.9192">
        <ele>2</ele>
        <time>2018-06-30T18:23:02.000Z</time>
      </trkpt>
      <trkpt lat="45.89344" lon="-0.9192">
        <ele>1</ele>
        <time>2018-06-30T18:23:03.000Z</time>
      </trkpt>
      <trkpt lat="45.89345" lon="-0.9192">
        <ele>2</ele>
        <time>2018-06-30T18:23:04.000Z</time>
      </trkpt>
      <trkpt lat="45.89345" lon="-0.9192">
        <ele>1</ele>
        <time>2018-06-30T18:23:05.000Z</time>
      </trkpt>
      <trkpt lat="45.89346" lon="-0.91921">
        <ele>1</ele>
        <time>2018-06-30T18:23:06.000Z</time>
      </trkpt>
      <trkpt lat="45.89346" lon="-0.91921">
        <ele>1</ele>
        <time>2018-06-30T18:23:07.000Z</time>
      </trkpt>
      <trkpt lat="45.89347" lon="-0.91921">
        <ele>1</ele>
        <time>2018-06-30T18:23:08.000Z</time>
      </trkpt>
      <trkpt lat="45.89347" lon="-0.91921">
        <ele>1</ele>
        <time>2018-06-30T18:23:09.000Z</time>
      </trkpt>
      <trkpt lat="45.89347" lon="-0.91922">
        <ele>1</ele>
        <time>2018-06-30T18:23:10.000Z</time>
      </trkpt>
      <trkpt lat="45.89347" lon="-0.91922">
        <ele>1</ele>
        <time>2018-06-30T18:23:11.000Z</time>
      </trkpt>
      <trkpt lat="45.89347" lon="-0.91922">
        <ele>2</ele>
        <time>2018-06-30T18:23:12.000Z</time>
      </trkpt>
      <trkpt lat="45.89347" lon="-0.91922">
        <ele>1</ele>
        <time>2018-06-30T18:23:13.000Z</time>
      </trkpt>
      <trkpt lat="45.89347" lon="-0.91923">
        <ele>1</ele>
        <time>2018-06-30T18:23:14.000Z</time>
      </trkpt>
      <trkpt lat="45.89347" lon="-0.91923">
        <ele>1</ele>
        <time>2018-06-30T18:23:15.000Z</time>
      </trkpt>
      <trkpt lat="45.89347" lon="-0.91923">
        <ele>3.1</ele>
        <time>2018-06-30T18:23:16.000Z</time>
      </trkpt>
      <trkpt lat="45.89347" lon="-0.91923">
        <ele>3.1</ele>
        <time>2018-06-30T18:23:17.000Z</time>
      </trkpt>
      <trkpt lat="45.89347" lon="-0.91923">
        <ele>3.1</ele>
        <time>2018-06-30T18:23:18.000Z</time>
      </trkpt>
      <trkpt lat="45.89347" lon="-0.91923">
        <ele>3.1</ele>
        <time>2018-06-30T18:23:19.000Z</time>
      </trkpt>
      <trkpt lat="45.89347" lon="-0.91923">
        <ele>3.1</ele>
        <time>2018-06-30T18:23:20.000Z</time>
      </trkpt>
      <trkpt lat="45.89347" lon="-0.91923">
        <ele>3.1</ele>
        <time>2018-06-30T18:23:21.000Z</time>
      </trkpt>
      <trkpt lat="45.89347" lon="-0.91923">
        <ele>3.1</ele>
        <time>2018-06-30T18:23:22.000Z</time>
      </trkpt>
      <trkpt lat="45.89347" lon="-0.91924">
        <ele>1</ele>
        <time>2018-06-30T18:23:23.000Z</time>
      </trkpt>
      <trkpt lat="45.89348" lon="-0.91924">
        <ele>3.1</ele>
        <time>2018-06-30T18:23:24.000Z</time>
      </trkpt>
      <trkpt lat="45.89348" lon="-0.91924">
        <ele>3.1</ele>
        <time>2018-06-30T18:23:25.000Z</time>
      </trkpt>
      <trkpt lat="45.89348" lon="-0.91924">
        <ele>3.1</ele>
        <time>2018-06-30T18:23:26.000Z</time>
      </trkpt>
      <trkpt lat="45.89348" lon="-0.91924">
        <ele>3.1</ele>
        <time>2018-06-30T18:23:27.000Z</time>
      </trkpt>
      <trkpt lat="45.89348" lon="-0.91924">
        <ele>3.1</ele>
        <time>2018-06-30T18:23:28.000Z</time>
      </trkpt>
      <trkpt lat="45.89348" lon="-0.91924">
        <ele>3.1</ele>
        <time>2018-06-30T18:23:29.000Z</time>
      </trkpt>
      <trkpt lat="45.89348" lon="-0.91924">
        <ele>3.1</ele>
        <time>2018-06-30T18:23:30.000Z</time>
      </trkpt>
      <trkpt lat="45.89348" lon="-0.91924">
        <ele>3.1</ele>
        <time>2018-06-30T18:23:31.000Z</time>
      </trkpt>
      <trkpt lat="45.89348" lon="-0.91924">
        <ele>3.1</ele>
        <time>2018-06-30T18:23:32.000Z</time>
      </trkpt>
      <trkpt lat="45.89348" lon="-0.91924">
        <ele>3.1</ele>
        <time>2018-06-30T18:23:33.000Z</time>
      </trkpt>
      <trkpt lat="45.89348" lon="-0.91924">
        <ele>3.1</ele>
        <time>2018-06-30T18:23:34.000Z</time>
      </trkpt>
      <trkpt lat="45.89348" lon="-0.91924">
        <ele>3.1</ele>
        <time>2018-06-30T18:23:35.000Z</time>
      </trkpt>
      <trkpt lat="45.89347" lon="-0.91924">
        <ele>3.1</ele>
        <time>2018-06-30T18:23:36.000Z</time>
      </trkpt>
      <trkpt lat="45.89347" lon="-0.91924">
        <ele>3.1</ele>
        <time>2018-06-30T18:23:37.000Z</time>
      </trkpt>
      <trkpt lat="45.89347" lon="-0.91924">
        <ele>3.1</ele>
        <time>2018-06-30T18:23:38.000Z</time>
      </trkpt>
      <trkpt lat="45.89347" lon="-0.91924">
        <ele>3.1</ele>
        <time>2018-06-30T18:23:39.000Z</time>
      </trkpt>
      <trkpt lat="45.89347" lon="-0.91923">
        <ele>3.1</ele>
        <time>2018-06-30T18:23:40.000Z</time>
      </trkpt>
      <trkpt lat="45.89347" lon="-0.91923">
        <ele>3.1</ele>
        <time>2018-06-30T18:23:41.000Z</time>
      </trkpt>
      <trkpt lat="45.89347" lon="-0.91923">
        <ele>3.1</ele>
        <time>2018-06-30T18:23:42.000Z</time>
      </trkpt>
      <trkpt lat="45.89347" lon="-0.91924">
        <ele>3.1</ele>
        <time>2018-06-30T18:23:43.000Z</time>
      </trkpt>
      <trkpt lat="45.89347" lon="-0.91924">
        <ele>1</ele>
        <time>2018-06-30T18:23:44.000Z</time>
      </trkpt>
      <trkpt lat="45.89347" lon="-0.91924">
        <ele>1</ele>
        <time>2018-06-30T18:23:45.000Z</time>
      </trkpt>
      <trkpt lat="45.89347" lon="-0.91924">
        <ele>1</ele>
        <time>2018-06-30T18:23:46.000Z</time>
      </trkpt>
      <trkpt lat="45.89347" lon="-0.91923">
        <ele>1</ele>
        <time>2018-06-30T18:23:47.000Z</time>
      </trkpt>
      <trkpt lat="45.89347" lon="-0.91924">
        <ele>3.1</ele>
        <time>2018-06-30T18:23:48.000Z</time>
      </trkpt>
      <trkpt lat="45.89347" lon="-0.91924">
        <ele>3.1</ele>
        <time>2018-06-30T18:23:49.000Z</time>
      </trkpt>
      <trkpt lat="45.89347" lon="-0.91924">
        <ele>3.1</ele>
        <time>2018-06-30T18:23:50.000Z</time>
      </trkpt>
      <trkpt lat="45.89347" lon="-0.91924">
        <ele>3.1</ele>
        <time>2018-06-30T18:23:51.000Z</time>
      </trkpt>
      <trkpt lat="45.89347" lon="-0.91924">
        <ele>3.1</ele>
        <time>2018-06-30T18:23:52.000Z</time>
      </trkpt>
      <trkpt lat="45.89347" lon="-0.91924">
        <ele>3.1</ele>
        <time>2018-06-30T18:23:53.000Z</time>
      </trkpt>
      <trkpt lat="45.89347" lon="-0.91924">
        <ele>3.1</ele>
        <time>2018-06-30T18:23:54.000Z</time>
      </trkpt>
      <trkpt lat="45.89347" lon="-0.91924">
        <ele>1</ele>
        <time>2018-06-30T18:23:55.000Z</time>
      </trkpt>
      <trkpt lat="45.89347" lon="-0.91924">
        <ele>1</ele>
        <time>2018-06-30T18:23:56.000Z</time>
      </trkpt>
      <trkpt lat="45.89347" lon="-0.91924">
        <ele>1</ele>
        <time>2018-06-30T18:23:57.000Z</time>
      </trkpt>
      <trkpt lat="45.89347" lon="-0.91924">
        <ele>3.1</ele>
        <time>2018-06-30T18:23:58.000Z</time>
      </trkpt>
      <trkpt lat="45.89347" lon="-0.91924">
        <ele>3.1</ele>
        <time>2018-06-30T18:23:59.000Z</time>
      </trkpt>
      <trkpt lat="45.89347" lon="-0.91924">
        <ele>1</ele>
        <time>2018-06-30T18:24:00.000Z</time>
      </trkpt>
      <trkpt lat="45.89347" lon="-0.91923">
        <ele>1</ele>
        <time>2018-06-30T18:24:01.000Z</time>
      </trkpt>
      <trkpt lat="45.89347" lon="-0.91923">
        <ele>2</ele>
        <time>2018-06-30T18:24:02.000Z</time>
      </trkpt>
      <trkpt lat="45.89347" lon="-0.91923">
        <ele>2</ele>
        <time>2018-06-30T18:24:03.000Z</time>
      </trkpt>
      <trkpt lat="45.89347" lon="-0.91923">
        <ele>2</ele>
        <time>2018-06-30T18:24:04.000Z</time>
      </trkpt>
      <trkpt lat="45.89347" lon="-0.91923">
        <ele>2</ele>
        <time>2018-06-30T18:24:05.000Z</time>
      </trkpt>
      <trkpt lat="45.89347" lon="-0.91923">
        <ele>2</ele>
        <time>2018-06-30T18:24:06.000Z</time>
      </trkpt>
      <trkpt lat="45.89347" lon="-0.91923">
        <ele>2</ele>
        <time>2018-06-30T18:24:07.000Z</time>
      </trkpt>
      <trkpt lat="45.89347" lon="-0.91923">
        <ele>2</ele>
        <time>2018-06-30T18:24:08.000Z</time>
      </trkpt>
      <trkpt lat="45.89347" lon="-0.91923">
        <ele>1</ele>
        <time>2018-06-30T18:24:09.000Z</time>
      </trkpt>
      <trkpt lat="45.89347" lon="-0.91924">
        <ele>1</ele>
        <time>2018-06-30T18:24:10.000Z</time>
      </trkpt>
      <trkpt lat="45.89348" lon="-0.91924">
        <ele>1</ele>
        <time>2018-06-30T18:24:11.000Z</time>
      </trkpt>
      <trkpt lat="45.89348" lon="-0.91924">
        <ele>1</ele>
        <time>2018-06-30T18:24:12.000Z</time>
      </trkpt>
      <trkpt lat="45.89348" lon="-0.91924">
        <ele>1</ele>
        <time>2018-06-30T18:24:13.000Z</time>
      </trkpt>
      <trkpt lat="45.89348" lon="-0.91925">
        <ele>1</ele>
        <time>2018-06-30T18:24:14.000Z</time>
      </trkpt>
      <trkpt lat="45.89348" lon="-0.91925">
        <ele>1</ele>
        <time>2018-06-30T18:24:15.000Z</time>
      </trkpt>
      <trkpt lat="45.89348" lon="-0.91925">
        <ele>1</ele>
        <time>2018-06-30T18:24:16.000Z</time>
      </trkpt>
      <trkpt lat="45.89348" lon="-0.91925">
        <ele>1</ele>
        <time>2018-06-30T18:24:17.000Z</time>
      </trkpt>
      <trkpt lat="45.89348" lon="-0.91925">
        <ele>3.1</ele>
        <time>2018-06-30T18:24:18.000Z</time>
      </trkpt>
      <trkpt lat="45.89348" lon="-0.91925">
        <ele>3.1</ele>
        <time>2018-06-30T18:24:19.000Z</time>
      </trkpt>
      <trkpt lat="45.89348" lon="-0.91925">
        <ele>3.1</ele>
        <time>2018-06-30T18:24:20.000Z</time>
      </trkpt>
      <trkpt lat="45.89348" lon="-0.91925">
        <ele>3.1</ele>
        <time>2018-06-30T18:24:21.000Z</time>
      </trkpt>
      <trkpt lat="45.89348" lon="-0.91925">
        <ele>3.1</ele>
        <time>2018-06-30T18:24:22.000Z</time>
      </trkpt>
      <trkpt lat="45.89348" lon="-0.91925">
        <ele>3.1</ele>
        <time>2018-06-30T18:24:23.000Z</time>
      </trkpt>
      <trkpt lat="45.89348" lon="-0.91926">
        <ele>3.1</ele>
        <time>2018-06-30T18:24:24.000Z</time>
      </trkpt>
      <trkpt lat="45.89348" lon="-0.91926">
        <ele>3.1</ele>
        <time>2018-06-30T18:24:25.000Z</time>
      </trkpt>
      <trkpt lat="45.89348" lon="-0.91926">
        <ele>3.1</ele>
        <time>2018-06-30T18:24:26.000Z</time>
      </trkpt>
      <trkpt lat="45.89349" lon="-0.91926">
        <ele>3.2</ele>
        <time>2018-06-30T18:24:27.000Z</time>
      </trkpt>
      <trkpt lat="45.89349" lon="-0.91926">
        <ele>3.2</ele>
        <time>2018-06-30T18:24:28.000Z</time>
      </trkpt>
      <trkpt lat="45.89349" lon="-0.91926">
        <ele>3.2</ele>
        <time>2018-06-30T18:24:29.000Z</time>
      </trkpt>
      <trkpt lat="45.89349" lon="-0.91926">
        <ele>3.2</ele>
        <time>2018-06-30T18:24:30.000Z</time>
      </trkpt>
      <trkpt lat="45.89349" lon="-0.91926">
        <ele>3.2</ele>
        <time>2018-06-30T18:24:31.000Z</time>
      </trkpt>
      <trkpt lat="45.89349" lon="-0.91926">
        <ele>-1</ele>
        <time>2018-06-30T18:24:32.000Z</time>
      </trkpt>
      <trkpt lat="45.89349" lon="-0.91926">
        <ele>-1</ele>
        <time>2018-06-30T18:24:33.000Z</time>
      </trkpt>
      <trkpt lat="45.89349" lon="-0.91926">
        <ele>-1</ele>
        <time>2018-06-30T18:24:34.000Z</time>
      </trkpt>
      <trkpt lat="45.89349" lon="-0.91926">
        <ele>-1</ele>
        <time>2018-06-30T18:24:35.000Z</time>
      </trkpt>
      <trkpt lat="45.89349" lon="-0.91926">
        <ele>-1</ele>
        <time>2018-06-30T18:24:36.000Z</time>
      </trkpt>
      <trkpt lat="45.89349" lon="-0.91926">
        <ele>3.2</ele>
        <time>2018-06-30T18:24:37.000Z</time>
      </trkpt>
      <trkpt lat="45.89349" lon="-0.91926">
        <ele>3.2</ele>
        <time>2018-06-30T18:24:38.000Z</time>
      </trkpt>
      <trkpt lat="45.89349" lon="-0.91926">
        <ele>3.1</ele>
        <time>2018-06-30T18:24:39.000Z</time>
      </trkpt>
      <trkpt lat="45.89349" lon="-0.91926">
        <ele>3.1</ele>
        <time>2018-06-30T18:24:40.000Z</time>
      </trkpt>
      <trkpt lat="45.89349" lon="-0.91926">
        <ele>3.1</ele>
        <time>2018-06-30T18:24:41.000Z</time>
      </trkpt>
      <trkpt lat="45.89348" lon="-0.91925">
        <ele>3.1</ele>
        <time>2018-06-30T18:24:42.000Z</time>
      </trkpt>
      <trkpt lat="45.89349" lon="-0.91925">
        <ele>3.1</ele>
        <time>2018-06-30T18:24:43.000Z</time>
      </trkpt>
      <trkpt lat="45.89349" lon="-0.91925">
        <ele>3.1</ele>
        <time>2018-06-30T18:24:44.000Z</time>
      </trkpt>
      <trkpt lat="45.89349" lon="-0.91926">
        <ele>3.1</ele>
        <time>2018-06-30T18:24:45.000Z</time>
      </trkpt>
      <trkpt lat="45.89349" lon="-0.91926">
        <ele>3.1</ele>
        <time>2018-06-30T18:24:46.000Z</time>
      </trkpt>
      <trkpt lat="45.89349" lon="-0.91926">
        <ele>3.1</ele>
        <time>2018-06-30T18:24:47.000Z</time>
      </trkpt>
      <trkpt lat="45.89349" lon="-0.91926">
        <ele>3.1</ele>
        <time>2018-06-30T18:24:48.000Z</time>
      </trkpt>
      <trkpt lat="45.89349" lon="-0.91926">
        <ele>3.1</ele>
        <time>2018-06-30T18:24:49.000Z</time>
      </trkpt>
      <trkpt lat="45.89349" lon="-0.91925">
        <ele>3.1</ele>
        <time>2018-06-30T18:24:50.000Z</time>
      </trkpt>
      <trkpt lat="45.89349" lon="-0.91925">
        <ele>3.1</ele>
        <time>2018-06-30T18:24:51.000Z</time>
      </trkpt>
      <trkpt lat="45.89349" lon="-0.91925">
        <ele>3.1</ele>
        <time>2018-06-30T18:24:52.000Z</time>
      </trkpt>
      <trkpt lat="45.89349" lon="-0.91926">
        <ele>3.1</ele>
        <time>2018-06-30T18:24:53.000Z</time>
      </trkpt>
      <trkpt lat="45.89349" lon="-0.91926">
        <ele>3.1</ele>
        <time>2018-06-30T18:24:54.000Z</time>
      </trkpt>
      <trkpt lat="45.89349" lon="-0.91926">
        <ele>3.1</ele>
        <time>2018-06-30T18:24:55.000Z</time>
      </trkpt>
      <trkpt lat="45.89349" lon="-0.91926">
        <ele>3.1</ele>
        <time>2018-06-30T18:24:56.000Z</time>
      </trkpt>
      <trkpt lat="45.89349" lon="-0.91926">
        <ele>3.1</ele>
        <time>2018-06-30T18:24:57.000Z</time>
      </trkpt>
      <trkpt lat="45.89349" lon="-0.91926">
        <ele>3.1</ele>
        <time>2018-06-30T18:24:58.000Z</time>
      </trkpt>
      <trkpt lat="45.89349" lon="-0.91926">
        <ele>3.1</ele>
        <time>2018-06-30T18:24:59.000Z</time>
      </trkpt>
      <trkpt lat="45.89349" lon="-0.91926">
        <ele>3.1</ele>
        <time>2018-06-30T18:25:00.000Z</time>
      </trkpt>
      <trkpt lat="45.89349" lon="-0.91926">
        <ele>3.1</ele>
        <time>2018-06-30T18:25:01.000Z</time>
      </trkpt>
      <trkpt lat="45.89349" lon="-0.91925">
        <ele>3.1</ele>
        <time>2018-06-30T18:25:02.000Z</time>
      </trkpt>
      <trkpt lat="45.89349" lon="-0.91925">
        <ele>3.1</ele>
        <time>2018-06-30T18:25:03.000Z</time>
      </trkpt>
      <trkpt lat="45.89349" lon="-0.91925">
        <ele>3.1</ele>
        <time>2018-06-30T18:25:04.000Z</time>
      </trkpt>
      <trkpt lat="45.89349" lon="-0.91925">
        <ele>1</ele>
        <time>2018-06-30T18:25:05.000Z</time>
      </trkpt>
      <trkpt lat="45.89349" lon="-0.91925">
        <ele>1</ele>
        <time>2018-06-30T18:25:06.000Z</time>
      </trkpt>
      <trkpt lat="45.89349" lon="-0.91925">
        <ele>1</ele>
        <time>2018-06-30T18:25:07.000Z</time>
      </trkpt>
      <trkpt lat="45.89349" lon="-0.91925">
        <ele>1</ele>
        <time>2018-06-30T18:25:08.000Z</time>
      </trkpt>
      <trkpt lat="45.89349" lon="-0.91925">
        <ele>1</ele>
        <time>2018-06-30T18:25:09.000Z</time>
      </trkpt>
      <trkpt lat="45.89349" lon="-0.91925">
        <ele>3.1</ele>
        <time>2018-06-30T18:25:10.000Z</time>
      </trkpt>
      <trkpt lat="45.89349" lon="-0.91925">
        <ele>1</ele>
        <time>2018-06-30T18:25:11.000Z</time>
      </trkpt>
      <trkpt lat="45.89349" lon="-0.91924">
        <ele>1</ele>
        <time>2018-06-30T18:25:12.000Z</time>
      </trkpt>
      <trkpt lat="45.89349" lon="-0.91924">
        <ele>1</ele>
        <time>2018-06-30T18:25:13.000Z</time>
      </trkpt>
      <trkpt lat="45.89349" lon="-0.91924">
        <ele>1</ele>
        <time>2018-06-30T18:25:14.000Z</time>
      </trkpt>
      <trkpt lat="45.89348" lon="-0.91924">
        <ele>1</ele>
        <time>2018-06-30T18:25:15.000Z</time>
      </trkpt>
      <trkpt lat="45.89348" lon="-0.91924">
        <ele>1</ele>
        <time>2018-06-30T18:25:16.000Z</time>
      </trkpt>
      <trkpt lat="45.89348" lon="-0.91924">
        <ele>1</ele>
        <time>2018-06-30T18:25:17.000Z</time>
      </trkpt>
      <trkpt lat="45.89348" lon="-0.91924">
        <ele>2</ele>
        <time>2018-06-30T18:25:18.000Z</time>
      </trkpt>
      <trkpt lat="45.89348" lon="-0.91924">
        <ele>2</ele>
        <time>2018-06-30T18:25:19.000Z</time>
      </trkpt>
      <trkpt lat="45.89348" lon="-0.91924">
        <ele>2</ele>
        <time>2018-06-30T18:25:20.000Z</time>
      </trkpt>
      <trkpt lat="45.89348" lon="-0.91924">
        <ele>2</ele>
        <time>2018-06-30T18:25:21.000Z</time>
      </trkpt>
      <trkpt lat="45.89348" lon="-0.91924">
        <ele>2</ele>
        <time>2018-06-30T18:25:22.000Z</time>
      </trkpt>
      <trkpt lat="45.89348" lon="-0.91924">
        <ele>2</ele>
        <time>2018-06-30T18:25:23.000Z</time>
      </trkpt>
      <trkpt lat="45.89348" lon="-0.91924">
        <ele>2</ele>
        <time>2018-06-30T18:25:24.000Z</time>
      </trkpt>
      <trkpt lat="45.89348" lon="-0.91924">
        <ele>2</ele>
        <time>2018-06-30T18:25:25.000Z</time>
      </trkpt>
      <trkpt lat="45.89348" lon="-0.91924">
        <ele>3</ele>
        <time>2018-06-30T18:25:26.000Z</time>
      </trkpt>
      <trkpt lat="45.89348" lon="-0.91924">
        <ele>3</ele>
        <time>2018-06-30T18:25:27.000Z</time>
      </trkpt>
      <trkpt lat="45.89348" lon="-0.91924">
        <ele>3</ele>
        <time>2018-06-30T18:25:28.000Z</time>
      </trkpt>
      <trkpt lat="45.89347" lon="-0.91924">
        <ele>3</ele>
        <time>2018-06-30T18:25:29.000Z</time>
      </trkpt>
      <trkpt lat="45.89347" lon="-0.91923">
        <ele>3</ele>
        <time>2018-06-30T18:25:30.000Z</time>
      </trkpt>
      <trkpt lat="45.89347" lon="-0.91923">
        <ele>3</ele>
        <time>2018-06-30T18:25:31.000Z</time>
      </trkpt>
      <trkpt lat="45.89347" lon="-0.91923">
        <ele>3</ele>
        <time>2018-06-30T18:25:32.000Z</time>
      </trkpt>
      <trkpt lat="45.89347" lon="-0.91923">
        <ele>3</ele>
        <time>2018-06-30T18:25:33.000Z</time>
      </trkpt>
      <trkpt lat="45.89347" lon="-0.91923">
        <ele>3</ele>
        <time>2018-06-30T18:25:34.000Z</time>
      </trkpt>
      <trkpt lat="45.89347" lon="-0.91923">
        <ele>3</ele>
        <time>2018-06-30T18:25:35.000Z</time>
      </trkpt>
      <trkpt lat="45.89347" lon="-0.91923">
        <ele>3</ele>
        <time>2018-06-30T18:25:36.000Z</time>
      </trkpt>
      <trkpt lat="45.89347" lon="-0.91923">
        <ele>3</ele>
        <time>2018-06-30T18:25:37.000Z</time>
      </trkpt>
      <trkpt lat="45.89347" lon="-0.91923">
        <ele>3</ele>
        <time>2018-06-30T18:25:38.000Z</time>
      </trkpt>
      <trkpt lat="45.89347" lon="-0.91923">
        <ele>3</ele>
        <time>2018-06-30T18:25:39.000Z</time>
      </trkpt>
      <trkpt lat="45.89347" lon="-0.91923">
        <ele>3</ele>
        <time>2018-06-30T18:25:40.000Z</time>
      </trkpt>
      <trkpt lat="45.89347" lon="-0.91923">
        <ele>3</ele>
        <time>2018-06-30T18:25:41.000Z</time>
      </trkpt>
      <trkpt lat="45.89348" lon="-0.91923">
        <ele>3</ele>
        <time>2018-06-30T18:25:42.000Z</time>
      </trkpt>
      <trkpt lat="45.89348" lon="-0.91923">
        <ele>3</ele>
        <time>2018-06-30T18:25:43.000Z</time>
      </trkpt>
      <trkpt lat="45.89348" lon="-0.91924">
        <ele>3</ele>
        <time>2018-06-30T18:25:44.000Z</time>
      </trkpt>
      <trkpt lat="45.89348" lon="-0.91924">
        <ele>3</ele>
        <time>2018-06-30T18:25:45.000Z</time>
      </trkpt>
      <trkpt lat="45.89348" lon="-0.91923">
        <ele>3</ele>
        <time>2018-06-30T18:25:46.000Z</time>
      </trkpt>
      <trkpt lat="45.89348" lon="-0.91923">
        <ele>3</ele>
        <time>2018-06-30T18:25:47.000Z</time>
      </trkpt>
      <trkpt lat="45.89348" lon="-0.91923">
        <ele>3</ele>
        <time>2018-06-30T18:25:48.000Z</time>
      </trkpt>
      <trkpt lat="45.89348" lon="-0.91923">
        <ele>3</ele>
        <time>2018-06-30T18:25:49.000Z</time>
      </trkpt>
      <trkpt lat="45.89348" lon="-0.91923">
        <ele>2</ele>
        <time>2018-06-30T18:25:50.000Z</time>
      </trkpt>
      <trkpt lat="45.89348" lon="-0.91923">
        <ele>3</ele>
        <time>2018-06-30T18:25:51.000Z</time>
      </trkpt>
      <trkpt lat="45.89348" lon="-0.91923">
        <ele>3</ele>
        <time>2018-06-30T18:25:52.000Z</time>
      </trkpt>
      <trkpt lat="45.89348" lon="-0.91923">
        <ele>2</ele>
        <time>2018-06-30T18:25:53.000Z</time>
      </trkpt>
      <trkpt lat="45.89347" lon="-0.91923">
        <ele>2</ele>
        <time>2018-06-30T18:25:54.000Z</time>
      </trkpt>
      <trkpt lat="45.89347" lon="-0.91923">
        <ele>3</ele>
        <time>2018-06-30T18:25:55.000Z</time>
      </trkpt>
      <trkpt lat="45.89347" lon="-0.91923">
        <ele>2</ele>
        <time>2018-06-30T18:25:56.000Z</time>
      </trkpt>
      <trkpt lat="45.89347" lon="-0.91923">
        <ele>2</ele>
        <time>2018-06-30T18:25:57.000Z</time>
      </trkpt>
      <trkpt lat="45.89347" lon="-0.91923">
        <ele>2</ele>
        <time>2018-06-30T18:25:58.000Z</time>
      </trkpt>
      <trkpt lat="45.89347" lon="-0.91923">
        <ele>3</ele>
        <time>2018-06-30T18:25:59.000Z</time>
      </trkpt>
      <trkpt lat="45.89347" lon="-0.91923">
        <ele>2</ele>
        <time>2018-06-30T18:26:00.000Z</time>
      </trkpt>
      <trkpt lat="45.89347" lon="-0.91923">
        <ele>2</ele>
        <time>2018-06-30T18:26:01.000Z</time>
      </trkpt>
      <trkpt lat="45.89347" lon="-0.91923">
        <ele>2</ele>
        <time>2018-06-30T18:26:02.000Z</time>
      </trkpt>
      <trkpt lat="45.89347" lon="-0.91923">
        <ele>2</ele>
        <time>2018-06-30T18:26:03.000Z</time>
      </trkpt>
      <trkpt lat="45.89347" lon="-0.91923">
        <ele>2</ele>
        <time>2018-06-30T18:26:04.000Z</time>
      </trkpt>
      <trkpt lat="45.89347" lon="-0.91923">
        <ele>2</ele>
        <time>2018-06-30T18:26:05.000Z</time>
      </trkpt>
      <trkpt lat="45.89347" lon="-0.91923">
        <ele>2</ele>
        <time>2018-06-30T18:26:06.000Z</time>
      </trkpt>
      <trkpt lat="45.89347" lon="-0.91923">
        <ele>2</ele>
        <time>2018-06-30T18:26:07.000Z</time>
      </trkpt>
      <trkpt lat="45.89347" lon="-0.91923">
        <ele>2</ele>
        <time>2018-06-30T18:26:08.000Z</time>
      </trkpt>
      <trkpt lat="45.89347" lon="-0.91923">
        <ele>2</ele>
        <time>2018-06-30T18:26:09.000Z</time>
      </trkpt>
      <trkpt lat="45.89347" lon="-0.91922">
        <ele>2</ele>
        <time>2018-06-30T18:26:10.000Z</time>
      </trkpt>
      <trkpt lat="45.89347" lon="-0.91922">
        <ele>2</ele>
        <time>2018-06-30T18:26:11.000Z</time>
      </trkpt>
      <trkpt lat="45.89347" lon="-0.91922">
        <ele>2</ele>
        <time>2018-06-30T18:26:12.000Z</time>
      </trkpt>
      <trkpt lat="45.89347" lon="-0.91922">
        <ele>2</ele>
        <time>2018-06-30T18:26:13.000Z</time>
      </trkpt>
      <trkpt lat="45.89347" lon="-0.91922">
        <ele>2</ele>
        <time>2018-06-30T18:26:14.000Z</time>
      </trkpt>
      <trkpt lat="45.89347" lon="-0.91922">
        <ele>1</ele>
        <time>2018-06-30T18:26:15.000Z</time>
      </trkpt>
      <trkpt lat="45.89347" lon="-0.91922">
        <ele>1</ele>
        <time>2018-06-30T18:26:16.000Z</time>
      </trkpt>
      <trkpt lat="45.89347" lon="-0.91922">
        <ele>1</ele>
        <time>2018-06-30T18:26:17.000Z</time>
      </trkpt>
      <trkpt lat="45.89347" lon="-0.91923">
        <ele>1</ele>
        <time>2018-06-30T18:26:18.000Z</time>
      </trkpt>
      <trkpt lat="45.89347" lon="-0.91923">
        <ele>1</ele>
        <time>2018-06-30T18:26:19.000Z</time>
      </trkpt>
      <trkpt lat="45.89347" lon="-0.91923">
        <ele>1</ele>
        <time>2018-06-30T18:26:20.000Z</time>
      </trkpt>
      <trkpt lat="45.89347" lon="-0.91923">
        <ele>1</ele>
        <time>2018-06-30T18:26:21.000Z</time>
      </trkpt>
      <trkpt lat="45.89347" lon="-0.91923">
        <ele>1</ele>
        <time>2018-06-30T18:26:22.000Z</time>
      </trkpt>
      <trkpt lat="45.89347" lon="-0.91923">
        <ele>1</ele>
        <time>2018-06-30T18:26:23.000Z</time>
      </trkpt>
      <trkpt lat="45.89347" lon="-0.91923">
        <ele>1</ele>
        <time>2018-06-30T18:26:24.000Z</time>
      </trkpt>
      <trkpt lat="45.89347" lon="-0.91923">
        <ele>1</ele>
        <time>2018-06-30T18:26:25.000Z</time>
      </trkpt>
      <trkpt lat="45.89347" lon="-0.91923">
        <ele>1</ele>
        <time>2018-06-30T18:26:26.000Z</time>
      </trkpt>
      <trkpt lat="45.89347" lon="-0.91923">
        <ele>1</ele>
        <time>2018-06-30T18:26:27.000Z</time>
      </trkpt>
      <trkpt lat="45.89347" lon="-0.91923">
        <ele>1</ele>
        <time>2018-06-30T18:26:28.000Z</time>
      </trkpt>
      <trkpt lat="45.89347" lon="-0.91923">
        <ele>1</ele>
        <time>2018-06-30T18:26:29.000Z</time>
      </trkpt>
      <trkpt lat="45.89347" lon="-0.91923">
        <ele>2</ele>
        <time>2018-06-30T18:26:30.000Z</time>
      </trkpt>
      <trkpt lat="45.89347" lon="-0.91923">
        <ele>2</ele>
        <time>2018-06-30T18:26:31.000Z</time>
      </trkpt>
      <trkpt lat="45.89347" lon="-0.91923">
        <ele>2</ele>
        <time>2018-06-30T18:26:32.000Z</time>
      </trkpt>
      <trkpt lat="45.89347" lon="-0.91923">
        <ele>2</ele>
        <time>2018-06-30T18:26:33.000Z</time>
      </trkpt>
      <trkpt lat="45.89347" lon="-0.91923">
        <ele>2</ele>
        <time>2018-06-30T18:26:34.000Z</time>
      </trkpt>
      <trkpt lat="45.89347" lon="-0.91923">
        <ele>2</ele>
        <time>2018-06-30T18:26:35.000Z</time>
      </trkpt>
      <trkpt lat="45.89347" lon="-0.91923">
        <ele>2</ele>
        <time>2018-06-30T18:26:36.000Z</time>
      </trkpt>
      <trkpt lat="45.89347" lon="-0.91923">
        <ele>2</ele>
        <time>2018-06-30T18:26:37.000Z</time>
      </trkpt>
      <trkpt lat="45.89347" lon="-0.91923">
        <ele>2</ele>
        <time>2018-06-30T18:26:38.000Z</time>
      </trkpt>
      <trkpt lat="45.89347" lon="-0.91923">
        <ele>2</ele>
        <time>2018-06-30T18:26:39.000Z</time>
      </trkpt>
      <trkpt lat="45.89347" lon="-0.91923">
        <ele>2</ele>
        <time>2018-06-30T18:26:40.000Z</time>
      </trkpt>
      <trkpt lat="45.89347" lon="-0.91923">
        <ele>3</ele>
        <time>2018-06-30T18:26:41.000Z</time>
      </trkpt>
      <trkpt lat="45.89346" lon="-0.91923">
        <ele>2</ele>
        <time>2018-06-30T18:26:42.000Z</time>
      </trkpt>
      <trkpt lat="45.89346" lon="-0.91923">
        <ele>2</ele>
        <time>2018-06-30T18:26:43.000Z</time>
      </trkpt>
      <trkpt lat="45.89346" lon="-0.91923">
        <ele>3</ele>
        <time>2018-06-30T18:26:44.000Z</time>
      </trkpt>
      <trkpt lat="45.89346" lon="-0.91923">
        <ele>3</ele>
        <time>2018-06-30T18:26:45.000Z</time>
      </trkpt>
      <trkpt lat="45.89346" lon="-0.91923">
        <ele>3</ele>
        <time>2018-06-30T18:26:46.000Z</time>
      </trkpt>
      <trkpt lat="45.89347" lon="-0.91923">
        <ele>2</ele>
        <time>2018-06-30T18:26:47.000Z</time>
      </trkpt>
      <trkpt lat="45.89347" lon="-0.91923">
        <ele>2</ele>
        <time>2018-06-30T18:26:48.000Z</time>
      </trkpt>
      <trkpt lat="45.89347" lon="-0.91923">
        <ele>2</ele>
        <time>2018-06-30T18:26:49.000Z</time>
      </trkpt>
      <trkpt lat="45.89347" lon="-0.91923">
        <ele>2</ele>
        <time>2018-06-30T18:26:50.000Z</time>
      </trkpt>
      <trkpt lat="45.89347" lon="-0.91923">
        <ele>1</ele>
        <time>2018-06-30T18:26:51.000Z</time>
      </trkpt>
      <trkpt lat="45.89347" lon="-0.91923">
        <ele>1</ele>
        <time>2018-06-30T18:26:52.000Z</time>
      </trkpt>
      <trkpt lat="45.89347" lon="-0.91923">
        <ele>1</ele>
        <time>2018-06-30T18:26:53.000Z</time>
      </trkpt>
      <trkpt lat="45.89347" lon="-0.91923">
        <ele>1</ele>
        <time>2018-06-30T18:26:54.000Z</time>
      </trkpt>
      <trkpt lat="45.89347" lon="-0.91923">
        <ele>2</ele>
        <time>2018-06-30T18:26:55.000Z</time>
      </trkpt>
      <trkpt lat="45.89347" lon="-0.91923">
        <ele>2</ele>
        <time>2018-06-30T18:26:56.000Z</time>
      </trkpt>
      <trkpt lat="45.89347" lon="-0.91923">
        <ele>2</ele>
        <time>2018-06-30T18:26:57.000Z</time>
      </trkpt>
      <trkpt lat="45.89347" lon="-0.91923">
        <ele>2</ele>
        <time>2018-06-30T18:26:58.000Z</time>
      </trkpt>
      <trkpt lat="45.89347" lon="-0.91923">
        <ele>2</ele>
        <time>2018-06-30T18:26:59.000Z</time>
      </trkpt>
      <trkpt lat="45.89347" lon="-0.91923">
        <ele>2</ele>
        <time>2018-06-30T18:27:00.000Z</time>
      </trkpt>
      <trkpt lat="45.89347" lon="-0.91922">
        <ele>2</ele>
        <time>2018-06-30T18:27:01.000Z</time>
      </trkpt>
      <trkpt lat="45.89347" lon="-0.91922">
        <ele>2</ele>
        <time>2018-06-30T18:27:02.000Z</time>
      </trkpt>
      <trkpt lat="45.89347" lon="-0.91922">
        <ele>2</ele>
        <time>2018-06-30T18:27:03.000Z</time>
      </trkpt>
      <trkpt lat="45.89347" lon="-0.91922">
        <ele>2</ele>
        <time>2018-06-30T18:27:04.000Z</time>
      </trkpt>
      <trkpt lat="45.89347" lon="-0.91922">
        <ele>2</ele>
        <time>2018-06-30T18:27:05.000Z</time>
      </trkpt>
      <trkpt lat="45.89347" lon="-0.91922">
        <ele>2</ele>
        <time>2018-06-30T18:27:06.000Z</time>
      </trkpt>
      <trkpt lat="45.89347" lon="-0.91922">
        <ele>2</ele>
        <time>2018-06-30T18:27:07.000Z</time>
      </trkpt>
      <trkpt lat="45.89347" lon="-0.91922">
        <ele>1</ele>
        <time>2018-06-30T18:27:08.000Z</time>
      </trkpt>
      <trkpt lat="45.89347" lon="-0.91922">
        <ele>1</ele>
        <time>2018-06-30T18:27:09.000Z</time>
      </trkpt>
      <trkpt lat="45.89346" lon="-0.91922">
        <ele>1</ele>
        <time>2018-06-30T18:27:10.000Z</time>
      </trkpt>
      <trkpt lat="45.89346" lon="-0.91922">
        <ele>2</ele>
        <time>2018-06-30T18:27:11.000Z</time>
      </trkpt>
      <trkpt lat="45.89346" lon="-0.91922">
        <ele>2</ele>
        <time>2018-06-30T18:27:12.000Z</time>
      </trkpt>
      <trkpt lat="45.89346" lon="-0.91922">
        <ele>2</ele>
        <time>2018-06-30T18:27:13.000Z</time>
      </trkpt>
      <trkpt lat="45.89346" lon="-0.91922">
        <ele>2</ele>
        <time>2018-06-30T18:27:14.000Z</time>
      </trkpt>
      <trkpt lat="45.89346" lon="-0.91922">
        <ele>2</ele>
        <time>2018-06-30T18:27:15.000Z</time>
      </trkpt>
      <trkpt lat="45.89346" lon="-0.91922">
        <ele>3</ele>
        <time>2018-06-30T18:27:16.000Z</time>
      </trkpt>
      <trkpt lat="45.89346" lon="-0.91922">
        <ele>3</ele>
        <time>2018-06-30T18:27:17.000Z</time>
      </trkpt>
      <trkpt lat="45.89346" lon="-0.91922">
        <ele>3</ele>
        <time>2018-06-30T18:27:18.000Z</time>
      </trkpt>
      <trkpt lat="45.89346" lon="-0.91921">
        <ele>3</ele>
        <time>2018-06-30T18:27:19.000Z</time>
      </trkpt>
      <trkpt lat="45.89346" lon="-0.91921">
        <ele>2</ele>
        <time>2018-06-30T18:27:20.000Z</time>
      </trkpt>
      <trkpt lat="45.89346" lon="-0.91921">
        <ele>3</ele>
        <time>2018-06-30T18:27:21.000Z</time>
      </trkpt>
      <trkpt lat="45.89346" lon="-0.91921">
        <ele>3</ele>
        <time>2018-06-30T18:27:22.000Z</time>
      </trkpt>
      <trkpt lat="45.89346" lon="-0.91921">
        <ele>3</ele>
        <time>2018-06-30T18:27:23.000Z</time>
      </trkpt>
      <trkpt lat="45.89346" lon="-0.91921">
        <ele>3</ele>
        <time>2018-06-30T18:27:24.000Z</time>
      </trkpt>
      <trkpt lat="45.89346" lon="-0.91921">
        <ele>3</ele>
        <time>2018-06-30T18:27:25.000Z</time>
      </trkpt>
      <trkpt lat="45.89346" lon="-0.91921">
        <ele>2</ele>
        <time>2018-06-30T18:27:26.000Z</time>
      </trkpt>
      <trkpt lat="45.89346" lon="-0.91921">
        <ele>2</ele>
        <time>2018-06-30T18:27:27.000Z</time>
      </trkpt>
      <trkpt lat="45.89346" lon="-0.91921">
        <ele>2</ele>
        <time>2018-06-30T18:27:28.000Z</time>
      </trkpt>
      <trkpt lat="45.89346" lon="-0.91921">
        <ele>2</ele>
        <time>2018-06-30T18:27:29.000Z</time>
      </trkpt>
      <trkpt lat="45.89346" lon="-0.91921">
        <ele>1</ele>
        <time>2018-06-30T18:27:30.000Z</time>
      </trkpt>
      <trkpt lat="45.89346" lon="-0.91921">
        <ele>1</ele>
        <time>2018-06-30T18:27:31.000Z</time>
      </trkpt>
      <trkpt lat="45.89346" lon="-0.91921">
        <ele>1</ele>
        <time>2018-06-30T18:27:32.000Z</time>
      </trkpt>
      <trkpt lat="45.89346" lon="-0.91921">
        <ele>1</ele>
        <time>2018-06-30T18:27:33.000Z</time>
      </trkpt>
      <trkpt lat="45.89347" lon="-0.91922">
        <ele>1</ele>
        <time>2018-06-30T18:27:34.000Z</time>
      </trkpt>
      <trkpt lat="45.89347" lon="-0.91922">
        <ele>1</ele>
        <time>2018-06-30T18:27:35.000Z</time>
      </trkpt>
      <trkpt lat="45.89347" lon="-0.91921">
        <ele>1</ele>
        <time>2018-06-30T18:27:36.000Z</time>
      </trkpt>
      <trkpt lat="45.89347" lon="-0.91921">
        <ele>1</ele>
        <time>2018-06-30T18:27:37.000Z</time>
      </trkpt>
      <trkpt lat="45.89347" lon="-0.91921">
        <ele>1</ele>
        <time>2018-06-30T18:27:38.000Z</time>
      </trkpt>
      <trkpt lat="45.89346" lon="-0.91921">
        <ele>1</ele>
        <time>2018-06-30T18:27:39.000Z</time>
      </trkpt>
      <trkpt lat="45.89346" lon="-0.91921">
        <ele>1</ele>
        <time>2018-06-30T18:27:40.000Z</time>
      </trkpt>
      <trkpt lat="45.89346" lon="-0.91922">
        <ele>1</ele>
        <time>2018-06-30T18:27:41.000Z</time>
      </trkpt>
      <trkpt lat="45.89346" lon="-0.91921">
        <ele>2</ele>
        <time>2018-06-30T18:27:42.000Z</time>
      </trkpt>
      <trkpt lat="45.89346" lon="-0.91921">
        <ele>2</ele>
        <time>2018-06-30T18:27:43.000Z</time>
      </trkpt>
      <trkpt lat="45.89346" lon="-0.91921">
        <ele>2</ele>
        <time>2018-06-30T18:27:44.000Z</time>
      </trkpt>
      <trkpt lat="45.89346" lon="-0.91921">
        <ele>2</ele>
        <time>2018-06-30T18:27:45.000Z</time>
      </trkpt>
      <trkpt lat="45.89346" lon="-0.91921">
        <ele>2</ele>
        <time>2018-06-30T18:27:46.000Z</time>
      </trkpt>
      <trkpt lat="45.89346" lon="-0.9192">
        <ele>2</ele>
        <time>2018-06-30T18:27:47.000Z</time>
      </trkpt>
      <trkpt lat="45.89346" lon="-0.9192">
        <ele>3</ele>
        <time>2018-06-30T18:27:48.000Z</time>
      </trkpt>
      <trkpt lat="45.89346" lon="-0.9192">
        <ele>3</ele>
        <time>2018-06-30T18:27:49.000Z</time>
      </trkpt>
      <trkpt lat="45.89346" lon="-0.9192">
        <ele>3</ele>
        <time>2018-06-30T18:27:50.000Z</time>
      </trkpt>
      <trkpt lat="45.89346" lon="-0.9192">
        <ele>3</ele>
        <time>2018-06-30T18:27:51.000Z</time>
      </trkpt>
      <trkpt lat="45.89346" lon="-0.9192">
        <ele>3</ele>
        <time>2018-06-30T18:27:52.000Z</time>
      </trkpt>
      <trkpt lat="45.89346" lon="-0.9192">
        <ele>3</ele>
        <time>2018-06-30T18:27:53.000Z</time>
      </trkpt>
      <trkpt lat="45.89346" lon="-0.9192">
        <ele>3</ele>
        <time>2018-06-30T18:27:54.000Z</time>
      </trkpt>
      <trkpt lat="45.89346" lon="-0.9192">
        <ele>2</ele>
        <time>2018-06-30T18:27:55.000Z</time>
      </trkpt>
      <trkpt lat="45.89346" lon="-0.9192">
        <ele>2</ele>
        <time>2018-06-30T18:27:56.000Z</time>
      </trkpt>
      <trkpt lat="45.89346" lon="-0.9192">
        <ele>2</ele>
        <time>2018-06-30T18:27:57.000Z</time>
      </trkpt>
      <trkpt lat="45.89346" lon="-0.9192">
        <ele>2</ele>
        <time>2018-06-30T18:27:58.000Z</time>
      </trkpt>
      <trkpt lat="45.89346" lon="-0.9192">
        <ele>2</ele>
        <time>2018-06-30T18:27:59.000Z</time>
      </trkpt>
      <trkpt lat="45.89346" lon="-0.9192">
        <ele>2</ele>
        <time>2018-06-30T18:28:00.000Z</time>
      </trkpt>
      <trkpt lat="45.89346" lon="-0.9192">
        <ele>2</ele>
        <time>2018-06-30T18:28:01.000Z</time>
      </trkpt>
      <trkpt lat="45.89346" lon="-0.9192">
        <ele>2</ele>
        <time>2018-06-30T18:28:02.000Z</time>
      </trkpt>
      <trkpt lat="45.89346" lon="-0.9192">
        <ele>2</ele>
        <time>2018-06-30T18:28:03.000Z</time>
      </trkpt>
      <trkpt lat="45.89346" lon="-0.9192">
        <ele>2</ele>
        <time>2018-06-30T18:28:04.000Z</time>
      </trkpt>
      <trkpt lat="45.89346" lon="-0.9192">
        <ele>3</ele>
        <time>2018-06-30T18:28:05.000Z</time>
      </trkpt>
      <trkpt lat="45.89346" lon="-0.91919">
        <ele>3</ele>
        <time>2018-06-30T18:28:06.000Z</time>
      </trkpt>
      <trkpt lat="45.89346" lon="-0.91919">
        <ele>3</ele>
        <time>2018-06-30T18:28:07.000Z</time>
      </trkpt>
      <trkpt lat="45.89346" lon="-0.91919">
        <ele>3</ele>
        <time>2018-06-30T18:28:08.000Z</time>
      </trkpt>
      <trkpt lat="45.89346" lon="-0.91919">
        <ele>3</ele>
        <time>2018-06-30T18:28:09.000Z</time>
      </trkpt>
      <trkpt lat="45.89346" lon="-0.9192">
        <ele>3</ele>
        <time>2018-06-30T18:28:10.000Z</time>
      </trkpt>
      <trkpt lat="45.89346" lon="-0.9192">
        <ele>3</ele>
        <time>2018-06-30T18:28:11.000Z</time>
      </trkpt>
      <trkpt lat="45.89346" lon="-0.9192">
        <ele>3</ele>
        <time>2018-06-30T18:28:12.000Z</time>
      </trkpt>
      <trkpt lat="45.89346" lon="-0.9192">
        <ele>3</ele>
        <time>2018-06-30T18:28:13.000Z</time>
      </trkpt>
      <trkpt lat="45.89346" lon="-0.9192">
        <ele>3</ele>
        <time>2018-06-30T18:28:14.000Z</time>
      </trkpt>
      <trkpt lat="45.89346" lon="-0.9192">
        <ele>3</ele>
        <time>2018-06-30T18:28:15.000Z</time>
      </trkpt>
      <trkpt lat="45.89346" lon="-0.9192">
        <ele>3</ele>
        <time>2018-06-30T18:28:16.000Z</time>
      </trkpt>
      <trkpt lat="45.89346" lon="-0.91919">
        <ele>4</ele>
        <time>2018-06-30T18:28:17.000Z</time>
      </trkpt>
      <trkpt lat="45.89346" lon="-0.91919">
        <ele>4</ele>
        <time>2018-06-30T18:28:18.000Z</time>
      </trkpt>
      <trkpt lat="45.89346" lon="-0.91919">
        <ele>3</ele>
        <time>2018-06-30T18:28:19.000Z</time>
      </trkpt>
      <trkpt lat="45.89346" lon="-0.9192">
        <ele>3</ele>
        <time>2018-06-30T18:28:20.000Z</time>
      </trkpt>
      <trkpt lat="45.89346" lon="-0.9192">
        <ele>3</ele>
        <time>2018-06-30T18:28:21.000Z</time>
      </trkpt>
      <trkpt lat="45.89346" lon="-0.9192">
        <ele>3</ele>
        <time>2018-06-30T18:28:22.000Z</time>
      </trkpt>
      <trkpt lat="45.89346" lon="-0.9192">
        <ele>3</ele>
        <time>2018-06-30T18:28:23.000Z</time>
      </trkpt>
      <trkpt lat="45.89346" lon="-0.9192">
        <ele>3</ele>
        <time>2018-06-30T18:28:24.000Z</time>
      </trkpt>
      <trkpt lat="45.89346" lon="-0.9192">
        <ele>3</ele>
        <time>2018-06-30T18:28:25.000Z</time>
      </trkpt>
      <trkpt lat="45.89346" lon="-0.9192">
        <ele>3</ele>
        <time>2018-06-30T18:28:26.000Z</time>
      </trkpt>
      <trkpt lat="45.89346" lon="-0.9192">
        <ele>3</ele>
        <time>2018-06-30T18:28:27.000Z</time>
      </trkpt>
      <trkpt lat="45.89346" lon="-0.9192">
        <ele>3</ele>
        <time>2018-06-30T18:28:28.000Z</time>
      </trkpt>
      <trkpt lat="45.89346" lon="-0.9192">
        <ele>3</ele>
        <time>2018-06-30T18:28:29.000Z</time>
      </trkpt>
      <trkpt lat="45.89346" lon="-0.9192">
        <ele>3</ele>
        <time>2018-06-30T18:28:30.000Z</time>
      </trkpt>
      <trkpt lat="45.89346" lon="-0.9192">
        <ele>3</ele>
        <time>2018-06-30T18:28:31.000Z</time>
      </trkpt>
      <trkpt lat="45.89346" lon="-0.9192">
        <ele>3</ele>
        <time>2018-06-30T18:28:32.000Z</time>
      </trkpt>
      <trkpt lat="45.89346" lon="-0.9192">
        <ele>3</ele>
        <time>2018-06-30T18:28:33.000Z</time>
      </trkpt>
      <trkpt lat="45.89346" lon="-0.9192">
        <ele>3</ele>
        <time>2018-06-30T18:28:34.000Z</time>
      </trkpt>
      <trkpt lat="45.89346" lon="-0.9192">
        <ele>3</ele>
        <time>2018-06-30T18:28:35.000Z</time>
      </trkpt>
      <trkpt lat="45.89345" lon="-0.9192">
        <ele>4</ele>
        <time>2018-06-30T18:28:36.000Z</time>
      </trkpt>
      <trkpt lat="45.89345" lon="-0.9192">
        <ele>4</ele>
        <time>2018-06-30T18:28:37.000Z</time>
      </trkpt>
      <trkpt lat="45.89345" lon="-0.9192">
        <ele>3</ele>
        <time>2018-06-30T18:28:38.000Z</time>
      </trkpt>
      <trkpt lat="45.89345" lon="-0.9192">
        <ele>4</ele>
        <time>2018-06-30T18:28:39.000Z</time>
      </trkpt>
      <trkpt lat="45.89345" lon="-0.9192">
        <ele>4</ele>
        <time>2018-06-30T18:28:40.000Z</time>
      </trkpt>
      <trkpt lat="45.89345" lon="-0.9192">
        <ele>3</ele>
        <time>2018-06-30T18:28:41.000Z</time>
      </trkpt>
      <trkpt lat="45.89345" lon="-0.9192">
        <ele>3</ele>
        <time>2018-06-30T18:28:42.000Z</time>
      </trkpt>
      <trkpt lat="45.89346" lon="-0.9192">
        <ele>3</ele>
        <time>2018-06-30T18:28:43.000Z</time>
      </trkpt>
      <trkpt lat="45.89346" lon="-0.9192">
        <ele>3</ele>
        <time>2018-06-30T18:28:44.000Z</time>
      </trkpt>
      <trkpt lat="45.89346" lon="-0.91921">
        <ele>3</ele>
        <time>2018-06-30T18:28:45.000Z</time>
      </trkpt>
      <trkpt lat="45.89345" lon="-0.91921">
        <ele>3</ele>
        <time>2018-06-30T18:28:46.000Z</time>
      </trkpt>
      <trkpt lat="45.89345" lon="-0.91921">
        <ele>3</ele>
        <time>2018-06-30T18:28:47.000Z</time>
      </trkpt>
      <trkpt lat="45.89345" lon="-0.91921">
        <ele>3</ele>
        <time>2018-06-30T18:28:48.000Z</time>
      </trkpt>
      <trkpt lat="45.89345" lon="-0.91921">
        <ele>3</ele>
        <time>2018-06-30T18:28:49.000Z</time>
      </trkpt>
      <trkpt lat="45.89345" lon="-0.91921">
        <ele>3</ele>
        <time>2018-06-30T18:28:50.000Z</time>
      </trkpt>
      <trkpt lat="45.89345" lon="-0.91921">
        <ele>3</ele>
        <time>2018-06-30T18:28:51.000Z</time>
      </trkpt>
      <trkpt lat="45.89345" lon="-0.91921">
        <ele>3</ele>
        <time>2018-06-30T18:28:52.000Z</time>
      </trkpt>
      <trkpt lat="45.89345" lon="-0.91921">
        <ele>3</ele>
        <time>2018-06-30T18:28:53.000Z</time>
      </trkpt>
      <trkpt lat="45.89345" lon="-0.91921">
        <ele>3</ele>
        <time>2018-06-30T18:28:54.000Z</time>
      </trkpt>
      <trkpt lat="45.89345" lon="-0.9192">
        <ele>4</ele>
        <time>2018-06-30T18:28:55.000Z</time>
      </trkpt>
      <trkpt lat="45.89345" lon="-0.9192">
        <ele>4</ele>
        <time>2018-06-30T18:28:56.000Z</time>
      </trkpt>
      <trkpt lat="45.89345" lon="-0.9192">
        <ele>4</ele>
        <time>2018-06-30T18:28:57.000Z</time>
      </trkpt>
      <trkpt lat="45.89345" lon="-0.9192">
        <ele>4</ele>
        <time>2018-06-30T18:28:58.000Z</time>
      </trkpt>
      <trkpt lat="45.89344" lon="-0.9192">
        <ele>5</ele>
        <time>2018-06-30T18:28:59.000Z</time>
      </trkpt>
      <trkpt lat="45.89344" lon="-0.9192">
        <ele>5</ele>
        <time>2018-06-30T18:29:00.000Z</time>
      </trkpt>
      <trkpt lat="45.89344" lon="-0.9192">
        <ele>5</ele>
        <time>2018-06-30T18:29:01.000Z</time>
      </trkpt>
      <trkpt lat="45.89344" lon="-0.9192">
        <ele>5</ele>
        <time>2018-06-30T18:29:02.000Z</time>
      </trkpt>
      <trkpt lat="45.89344" lon="-0.9192">
        <ele>5</ele>
        <time>2018-06-30T18:29:03.000Z</time>
      </trkpt>
      <trkpt lat="45.89344" lon="-0.91919">
        <ele>5</ele>
        <time>2018-06-30T18:29:04.000Z</time>
      </trkpt>
      <trkpt lat="45.89344" lon="-0.91919">
        <ele>5</ele>
        <time>2018-06-30T18:29:05.000Z</time>
      </trkpt>
      <trkpt lat="45.89345" lon="-0.9192">
        <ele>5</ele>
        <time>2018-06-30T18:29:06.000Z</time>
      </trkpt>
      <trkpt lat="45.89345" lon="-0.9192">
        <ele>5</ele>
        <time>2018-06-30T18:29:07.000Z</time>
      </trkpt>
      <trkpt lat="45.89344" lon="-0.9192">
        <ele>5</ele>
        <time>2018-06-30T18:29:08.000Z</time>
      </trkpt>
      <trkpt lat="45.89344" lon="-0.91919">
        <ele>6</ele>
        <time>2018-06-30T18:29:09.000Z</time>
      </trkpt>
      <trkpt lat="45.89344" lon="-0.91919">
        <ele>6</ele>
        <time>2018-06-30T18:29:10.000Z</time>
      </trkpt>
      <trkpt lat="45.89344" lon="-0.91919">
        <ele>6</ele>
        <time>2018-06-30T18:29:11.000Z</time>
      </trkpt>
      <trkpt lat="45.89345" lon="-0.91919">
        <ele>6</ele>
        <time>2018-06-30T18:29:12.000Z</time>
      </trkpt>
      <trkpt lat="45.89345" lon="-0.91919">
        <ele>6</ele>
        <time>2018-06-30T18:29:13.000Z</time>
      </trkpt>
      <trkpt lat="45.89345" lon="-0.91919">
        <ele>6</ele>
        <time>2018-06-30T18:29:14.000Z</time>
      </trkpt>
      <trkpt lat="45.89345" lon="-0.91919">
        <ele>5</ele>
        <time>2018-06-30T18:29:15.000Z</time>
      </trkpt>
      <trkpt lat="45.89345" lon="-0.91919">
        <ele>5</ele>
        <time>2018-06-30T18:29:16.000Z</time>
      </trkpt>
      <trkpt lat="45.89345" lon="-0.91919">
        <ele>5</ele>
        <time>2018-06-30T18:29:17.000Z</time>
      </trkpt>
      <trkpt lat="45.89345" lon="-0.91919">
        <ele>5</ele>
        <time>2018-06-30T18:29:18.000Z</time>
      </trkpt>
      <trkpt lat="45.89345" lon="-0.9192">
        <ele>5</ele>
        <time>2018-06-30T18:29:19.000Z</time>
      </trkpt>
      <trkpt lat="45.89345" lon="-0.9192">
        <ele>5</ele>
        <time>2018-06-30T18:29:20.000Z</time>
      </trkpt>
      <trkpt lat="45.89345" lon="-0.9192">
        <ele>5</ele>
        <time>2018-06-30T18:29:21.000Z</time>
      </trkpt>
      <trkpt lat="45.89345" lon="-0.9192">
        <ele>5</ele>
        <time>2018-06-30T18:29:22.000Z</time>
      </trkpt>
      <trkpt lat="45.89345" lon="-0.9192">
        <ele>5</ele>
        <time>2018-06-30T18:29:23.000Z</time>
      </trkpt>
      <trkpt lat="45.89345" lon="-0.9192">
        <ele>5</ele>
        <time>2018-06-30T18:29:24.000Z</time>
      </trkpt>
      <trkpt lat="45.89345" lon="-0.9192">
        <ele>4</ele>
        <time>2018-06-30T18:29:25.000Z</time>
      </trkpt>
      <trkpt lat="45.89345" lon="-0.9192">
        <ele>4</ele>
        <time>2018-06-30T18:29:26.000Z</time>
      </trkpt>
      <trkpt lat="45.89345" lon="-0.9192">
        <ele>4</ele>
        <time>2018-06-30T18:29:27.000Z</time>
      </trkpt>
      <trkpt lat="45.89345" lon="-0.9192">
        <ele>4</ele>
        <time>2018-06-30T18:29:28.000Z</time>
      </trkpt>
      <trkpt lat="45.89345" lon="-0.9192">
        <ele>4</ele>
        <time>2018-06-30T18:29:29.000Z</time>
      </trkpt>
      <trkpt lat="45.89345" lon="-0.9192">
        <ele>4</ele>
        <time>2018-06-30T18:29:30.000Z</time>
      </trkpt>
      <trkpt lat="45.89345" lon="-0.9192">
        <ele>4</ele>
        <time>2018-06-30T18:29:31.000Z</time>
      </trkpt>
      <trkpt lat="45.89344" lon="-0.9192">
        <ele>4</ele>
        <time>2018-06-30T18:29:32.000Z</time>
      </trkpt>
      <trkpt lat="45.89344" lon="-0.9192">
        <ele>4</ele>
        <time>2018-06-30T18:29:33.000Z</time>
      </trkpt>
      <trkpt lat="45.89344" lon="-0.9192">
        <ele>4</ele>
        <time>2018-06-30T18:29:34.000Z</time>
      </trkpt>
      <trkpt lat="45.89344" lon="-0.9192">
        <ele>4</ele>
        <time>2018-06-30T18:29:35.000Z</time>
      </trkpt>
      <trkpt lat="45.89344" lon="-0.91921">
        <ele>4</ele>
        <time>2018-06-30T18:29:36.000Z</time>
      </trkpt>
      <trkpt lat="45.89344" lon="-0.91921">
        <ele>4</ele>
        <time>2018-06-30T18:29:37.000Z</time>
      </trkpt>
      <trkpt lat="45.89344" lon="-0.91921">
        <ele>4</ele>
        <time>2018-06-30T18:29:38.000Z</time>
      </trkpt>
      <trkpt lat="45.89344" lon="-0.91921">
        <ele>4</ele>
        <time>2018-06-30T18:29:39.000Z</time>
      </trkpt>
      <trkpt lat="45.89344" lon="-0.91921">
        <ele>4</ele>
        <time>2018-06-30T18:29:40.000Z</time>
      </trkpt>
      <trkpt lat="45.89344" lon="-0.91921">
        <ele>4</ele>
        <time>2018-06-30T18:29:41.000Z</time>
      </trkpt>
      <trkpt lat="45.89344" lon="-0.91921">
        <ele>4</ele>
        <time>2018-06-30T18:29:42.000Z</time>
      </trkpt>
      <trkpt lat="45.89344" lon="-0.91921">
        <ele>4</ele>
        <time>2018-06-30T18:29:43.000Z</time>
      </trkpt>
      <trkpt lat="45.89344" lon="-0.91921">
        <ele>4</ele>
        <time>2018-06-30T18:29:44.000Z</time>
      </trkpt>
      <trkpt lat="45.89344" lon="-0.91921">
        <ele>4</ele>
        <time>2018-06-30T18:29:45.000Z</time>
      </trkpt>
      <trkpt lat="45.89344" lon="-0.91921">
        <ele>4</ele>
        <time>2018-06-30T18:29:46.000Z</time>
      </trkpt>
      <trkpt lat="45.89344" lon="-0.91921">
        <ele>4</ele>
        <time>2018-06-30T18:29:47.000Z</time>
      </trkpt>
      <trkpt lat="45.89344" lon="-0.91921">
        <ele>4</ele>
        <time>2018-06-30T18:29:48.000Z</time>
      </trkpt>
      <trkpt lat="45.89344" lon="-0.91921">
        <ele>4</ele>
        <time>2018-06-30T18:29:49.000Z</time>
      </trkpt>
      <trkpt lat="45.89344" lon="-0.91921">
        <ele>4</ele>
        <time>2018-06-30T18:29:50.000Z</time>
      </trkpt>
      <trkpt lat="45.89344" lon="-0.91921">
        <ele>4</ele>
        <time>2018-06-30T18:29:51.000Z</time>
      </trkpt>
      <trkpt lat="45.89344" lon="-0.91921">
        <ele>4</ele>
        <time>2018-06-30T18:29:52.000Z</time>
      </trkpt>
      <trkpt lat="45.89344" lon="-0.91921">
        <ele>4</ele>
        <time>2018-06-30T18:29:53.000Z</time>
      </trkpt>
      <trkpt lat="45.89344" lon="-0.91921">
        <ele>4</ele>
        <time>2018-06-30T18:29:54.000Z</time>
      </trkpt>
      <trkpt lat="45.89344" lon="-0.91921">
        <ele>4</ele>
        <time>2018-06-30T18:29:55.000Z</time>
      </trkpt>
      <trkpt lat="45.89344" lon="-0.91921">
        <ele>4</ele>
        <time>2018-06-30T18:29:56.000Z</time>
      </trkpt>
      <trkpt lat="45.89344" lon="-0.91921">
        <ele>5</ele>
        <time>2018-06-30T18:29:57.000Z</time>
      </trkpt>
      <trkpt lat="45.89344" lon="-0.91921">
        <ele>5</ele>
        <time>2018-06-30T18:29:58.000Z</time>
      </trkpt>
      <trkpt lat="45.89344" lon="-0.91921">
        <ele>4</ele>
        <time>2018-06-30T18:29:59.000Z</time>
      </trkpt>
      <trkpt lat="45.89344" lon="-0.91921">
        <ele>4</ele>
        <time>2018-06-30T18:30:00.000Z</time>
      </trkpt>
      <trkpt lat="45.89344" lon="-0.91921">
        <ele>4</ele>
        <time>2018-06-30T18:30:01.000Z</time>
      </trkpt>
      <trkpt lat="45.89344" lon="-0.91921">
        <ele>4</ele>
        <time>2018-06-30T18:30:02.000Z</time>
      </trkpt>
      <trkpt lat="45.89343" lon="-0.91921">
        <ele>4</ele>
        <time>2018-06-30T18:30:03.000Z</time>
      </trkpt>
      <trkpt lat="45.89343" lon="-0.91921">
        <ele>4</ele>
        <time>2018-06-30T18:30:04.000Z</time>
      </trkpt>
      <trkpt lat="45.89343" lon="-0.91921">
        <ele>4</ele>
        <time>2018-06-30T18:30:05.000Z</time>
      </trkpt>
      <trkpt lat="45.89343" lon="-0.91921">
        <ele>4</ele>
        <time>2018-06-30T18:30:06.000Z</time>
      </trkpt>
      <trkpt lat="45.89343" lon="-0.91921">
        <ele>4</ele>
        <time>2018-06-30T18:30:07.000Z</time>
      </trkpt>
      <trkpt lat="45.89343" lon="-0.91921">
        <ele>4</ele>
        <time>2018-06-30T18:30:08.000Z</time>
      </trkpt>
      <trkpt lat="45.89344" lon="-0.91921">
        <ele>4</ele>
        <time>2018-06-30T18:30:09.000Z</time>
      </trkpt>
      <trkpt lat="45.89344" lon="-0.91921">
        <ele>4</ele>
        <time>2018-06-30T18:30:10.000Z</time>
      </trkpt>
      <trkpt lat="45.89344" lon="-0.91922">
        <ele>3</ele>
        <time>2018-06-30T18:30:11.000Z</time>
      </trkpt>
      <trkpt lat="45.89344" lon="-0.91922">
        <ele>3</ele>
        <time>2018-06-30T18:30:12.000Z</time>
      </trkpt>
      <trkpt lat="45.89344" lon="-0.91922">
        <ele>3</ele>
        <time>2018-06-30T18:30:13.000Z</time>
      </trkpt>
      <trkpt lat="45.89344" lon="-0.91922">
        <ele>3</ele>
        <time>2018-06-30T18:30:14.000Z</time>
      </trkpt>
      <trkpt lat="45.89344" lon="-0.91922">
        <ele>3</ele>
        <time>2018-06-30T18:30:15.000Z</time>
      </trkpt>
      <trkpt lat="45.89344" lon="-0.91922">
        <ele>3</ele>
        <time>2018-06-30T18:30:16.000Z</time>
      </trkpt>
      <trkpt lat="45.89344" lon="-0.91922">
        <ele>3</ele>
        <time>2018-06-30T18:30:17.000Z</time>
      </trkpt>
      <trkpt lat="45.89344" lon="-0.91922">
        <ele>3</ele>
        <time>2018-06-30T18:30:18.000Z</time>
      </trkpt>
      <trkpt lat="45.89344" lon="-0.91922">
        <ele>3</ele>
        <time>2018-06-30T18:30:19.000Z</time>
      </trkpt>
      <trkpt lat="45.89344" lon="-0.91922">
        <ele>3</ele>
        <time>2018-06-30T18:30:20.000Z</time>
      </trkpt>
      <trkpt lat="45.89344" lon="-0.91922">
        <ele>3</ele>
        <time>2018-06-30T18:30:21.000Z</time>
      </trkpt>
      <trkpt lat="45.89344" lon="-0.91922">
        <ele>3</ele>
        <time>2018-06-30T18:30:22.000Z</time>
      </trkpt>
      <trkpt lat="45.89344" lon="-0.91922">
        <ele>2</ele>
        <time>2018-06-30T18:30:23.000Z</time>
      </trkpt>
      <trkpt lat="45.89345" lon="-0.91922">
        <ele>2</ele>
        <time>2018-06-30T18:30:24.000Z</time>
      </trkpt>
      <trkpt lat="45.89345" lon="-0.91923">
        <ele>2</ele>
        <time>2018-06-30T18:30:25.000Z</time>
      </trkpt>
      <trkpt lat="45.89345" lon="-0.91923">
        <ele>2</ele>
        <time>2018-06-30T18:30:26.000Z</time>
      </trkpt>
      <trkpt lat="45.89345" lon="-0.91923">
        <ele>2</ele>
        <time>2018-06-30T18:30:27.000Z</time>
      </trkpt>
      <trkpt lat="45.89345" lon="-0.91923">
        <ele>2</ele>
        <time>2018-06-30T18:30:28.000Z</time>
      </trkpt>
      <trkpt lat="45.89345" lon="-0.91923">
        <ele>2</ele>
        <time>2018-06-30T18:30:29.000Z</time>
      </trkpt>
      <trkpt lat="45.89345" lon="-0.91923">
        <ele>2</ele>
        <time>2018-06-30T18:30:30.000Z</time>
      </trkpt>
      <trkpt lat="45.89345" lon="-0.91923">
        <ele>3</ele>
        <time>2018-06-30T18:30:31.000Z</time>
      </trkpt>
      <trkpt lat="45.89345" lon="-0.91923">
        <ele>3</ele>
        <time>2018-06-30T18:30:32.000Z</time>
      </trkpt>
      <trkpt lat="45.89344" lon="-0.91923">
        <ele>3</ele>
        <time>2018-06-30T18:30:33.000Z</time>
      </trkpt>
      <trkpt lat="45.89344" lon="-0.91923">
        <ele>3</ele>
        <time>2018-06-30T18:30:34.000Z</time>
      </trkpt>
      <trkpt lat="45.89344" lon="-0.91923">
        <ele>3</ele>
        <time>2018-06-30T18:30:35.000Z</time>
      </trkpt>
      <trkpt lat="45.89344" lon="-0.91922">
        <ele>3</ele>
        <time>2018-06-30T18:30:36.000Z</time>
      </trkpt>
      <trkpt lat="45.89344" lon="-0.91922">
        <ele>3</ele>
        <time>2018-06-30T18:30:37.000Z</time>
      </trkpt>
      <trkpt lat="45.89344" lon="-0.91922">
        <ele>3</ele>
        <time>2018-06-30T18:30:38.000Z</time>
      </trkpt>
      <trkpt lat="45.89344" lon="-0.91922">
        <ele>3</ele>
        <time>2018-06-30T18:30:39.000Z</time>
      </trkpt>
      <trkpt lat="45.89344" lon="-0.91922">
        <ele>4</ele>
        <time>2018-06-30T18:30:40.000Z</time>
      </trkpt>
      <trkpt lat="45.89344" lon="-0.91922">
        <ele>4</ele>
        <time>2018-06-30T18:30:41.000Z</time>
      </trkpt>
      <trkpt lat="45.89344" lon="-0.91922">
        <ele>4</ele>
        <time>2018-06-30T18:30:42.000Z</time>
      </trkpt>
      <trkpt lat="45.89344" lon="-0.91922">
        <ele>4</ele>
        <time>2018-06-30T18:30:43.000Z</time>
      </trkpt>
      <trkpt lat="45.89344" lon="-0.91922">
        <ele>4</ele>
        <time>2018-06-30T18:30:44.000Z</time>
      </trkpt>
      <trkpt lat="45.89344" lon="-0.91922">
        <ele>4</ele>
        <time>2018-06-30T18:30:45.000Z</time>
      </trkpt>
      <trkpt lat="45.89344" lon="-0.91922">
        <ele>4</ele>
        <time>2018-06-30T18:30:46.000Z</time>
      </trkpt>
      <trkpt lat="45.89344" lon="-0.91922">
        <ele>4</ele>
        <time>2018-06-30T18:30:47.000Z</time>
      </trkpt>
      <trkpt lat="45.89344" lon="-0.91922">
        <ele>4</ele>
        <time>2018-06-30T18:30:48.000Z</time>
      </trkpt>
      <trkpt lat="45.89344" lon="-0.91922">
        <ele>4</ele>
        <time>2018-06-30T18:30:49.000Z</time>
      </trkpt>
      <trkpt lat="45.89344" lon="-0.91922">
        <ele>4</ele>
        <time>2018-06-30T18:30:50.000Z</time>
      </trkpt>
      <trkpt lat="45.89344" lon="-0.91922">
        <ele>4</ele>
        <time>2018-06-30T18:30:51.000Z</time>
      </trkpt>
      <trkpt lat="45.89345" lon="-0.91922">
        <ele>3</ele>
        <time>2018-06-30T18:30:52.000Z</time>
      </trkpt>
      <trkpt lat="45.89345" lon="-0.91922">
        <ele>3</ele>
        <time>2018-06-30T18:30:53.000Z</time>
      </trkpt>
      <trkpt lat="45.89345" lon="-0.91922">
        <ele>3</ele>
        <time>2018-06-30T18:30:54.000Z</time>
      </trkpt>
      <trkpt lat="45.89345" lon="-0.91922">
        <ele>3</ele>
        <time>2018-06-30T18:30:55.000Z</time>
      </trkpt>
      <trkpt lat="45.89345" lon="-0.91922">
        <ele>3</ele>
        <time>2018-06-30T18:30:56.000Z</time>
      </trkpt>
      <trkpt lat="45.89345" lon="-0.91922">
        <ele>3</ele>
        <time>2018-06-30T18:30:57.000Z</time>
      </trkpt>
      <trkpt lat="45.89345" lon="-0.91922">
        <ele>3</ele>
        <time>2018-06-30T18:30:58.000Z</time>
      </trkpt>
      <trkpt lat="45.89345" lon="-0.91922">
        <ele>3</ele>
        <time>2018-06-30T18:30:59.000Z</time>
      </trkpt>
      <trkpt lat="45.89345" lon="-0.91922">
        <ele>3</ele>
        <time>2018-06-30T18:31:00.000Z</time>
      </trkpt>
      <trkpt lat="45.89345" lon="-0.91922">
        <ele>3</ele>
        <time>2018-06-30T18:31:01.000Z</time>
      </trkpt>
      <trkpt lat="45.89345" lon="-0.91922">
        <ele>4</ele>
        <time>2018-06-30T18:31:02.000Z</time>
      </trkpt>
      <trkpt lat="45.89345" lon="-0.91922">
        <ele>4</ele>
        <time>2018-06-30T18:31:03.000Z</time>
      </trkpt>
      <trkpt lat="45.89345" lon="-0.91922">
        <ele>4</ele>
        <time>2018-06-30T18:31:04.000Z</time>
      </trkpt>
      <trkpt lat="45.89345" lon="-0.91921">
        <ele>4</ele>
        <time>2018-06-30T18:31:05.000Z</time>
      </trkpt>
      <trkpt lat="45.89345" lon="-0.91921">
        <ele>4</ele>
        <time>2018-06-30T18:31:06.000Z</time>
      </trkpt>
      <trkpt lat="45.89345" lon="-0.91921">
        <ele>4</ele>
        <time>2018-06-30T18:31:07.000Z</time>
      </trkpt>
      <trkpt lat="45.89345" lon="-0.91921">
        <ele>4</ele>
        <time>2018-06-30T18:31:08.000Z</time>
      </trkpt>
      <trkpt lat="45.89345" lon="-0.91922">
        <ele>4</ele>
        <time>2018-06-30T18:31:09.000Z</time>
      </trkpt>
      <trkpt lat="45.89345" lon="-0.91922">
        <ele>4</ele>
        <time>2018-06-30T18:31:10.000Z</time>
      </trkpt>
      <trkpt lat="45.89344" lon="-0.91922">
        <ele>4</ele>
        <time>2018-06-30T18:31:11.000Z</time>
      </trkpt>
      <trkpt lat="45.89344" lon="-0.91923">
        <ele>4</ele>
        <time>2018-06-30T18:31:12.000Z</time>
      </trkpt>
      <trkpt lat="45.89344" lon="-0.91924">
        <ele>3</ele>
        <time>2018-06-30T18:31:13.000Z</time>
      </trkpt>
      <trkpt lat="45.89345" lon="-0.91925">
        <ele>3</ele>
        <time>2018-06-30T18:31:14.000Z</time>
      </trkpt>
      <trkpt lat="45.89345" lon="-0.91926">
        <ele>3</ele>
        <time>2018-06-30T18:31:15.000Z</time>
      </trkpt>
      <trkpt lat="45.89345" lon="-0.91927">
        <ele>3</ele>
        <time>2018-06-30T18:31:16.000Z</time>
      </trkpt>
      <trkpt lat="45.89346" lon="-0.91928">
        <ele>3</ele>
        <time>2018-06-30T18:31:17.000Z</time>
      </trkpt>
      <trkpt lat="45.89346" lon="-0.91929">
        <ele>4</ele>
        <time>2018-06-30T18:31:18.000Z</time>
      </trkpt>
      <trkpt lat="45.89346" lon="-0.9193">
        <ele>4</ele>
        <time>2018-06-30T18:31:19.000Z</time>
      </trkpt>
      <trkpt lat="45.89346" lon="-0.91931">
        <ele>4</ele>
        <time>2018-06-30T18:31:20.000Z</time>
      </trkpt>
      <trkpt lat="45.89347" lon="-0.91933">
        <ele>3</ele>
        <time>2018-06-30T18:31:21.000Z</time>
      </trkpt>
      <trkpt lat="45.89347" lon="-0.91934">
        <ele>3</ele>
        <time>2018-06-30T18:31:22.000Z</time>
      </trkpt>
      <trkpt lat="45.89347" lon="-0.91935">
        <ele>3</ele>
        <time>2018-06-30T18:31:23.000Z</time>
      </trkpt>
      <trkpt lat="45.89348" lon="-0.91936">
        <ele>3</ele>
        <time>2018-06-30T18:31:24.000Z</time>
      </trkpt>
      <trkpt lat="45.89348" lon="-0.91936">
        <ele>3</ele>
        <time>2018-06-30T18:31:25.000Z</time>
      </trkpt>
      <trkpt lat="45.89349" lon="-0.91937">
        <ele>3</ele>
        <time>2018-06-30T18:31:26.000Z</time>
      </trkpt>
      <trkpt lat="45.8935" lon="-0.91938">
        <ele>3</ele>
        <time>2018-06-30T18:31:27.000Z</time>
      </trkpt>
      <trkpt lat="45.89351" lon="-0.91939">
        <ele>3</ele>
        <time>2018-06-30T18:31:28.000Z</time>
      </trkpt>
      <trkpt lat="45.89351" lon="-0.91939">
        <ele>3</ele>
        <time>2018-06-30T18:31:29.000Z</time>
      </trkpt>
      <trkpt lat="45.89352" lon="-0.9194">
        <ele>4</ele>
        <time>2018-06-30T18:31:30.000Z</time>
      </trkpt>
      <trkpt lat="45.89353" lon="-0.91941">
        <ele>4</ele>
        <time>2018-06-30T18:31:31.000Z</time>
      </trkpt>
      <trkpt lat="45.89354" lon="-0.91942">
        <ele>4</ele>
        <time>2018-06-30T18:31:32.000Z</time>
      </trkpt>
      <trkpt lat="45.89354" lon="-0.91942">
        <ele>4</ele>
        <time>2018-06-30T18:31:33.000Z</time>
      </trkpt>
      <trkpt lat="45.89355" lon="-0.91943">
        <ele>4</ele>
        <time>2018-06-30T18:31:34.000Z</time>
      </trkpt>
      <trkpt lat="45.89356" lon="-0.91944">
        <ele>4</ele>
        <time>2018-06-30T18:31:35.000Z</time>
      </trkpt>
      <trkpt lat="45.89357" lon="-0.91944">
        <ele>3</ele>
        <time>2018-06-30T18:31:36.000Z</time>
      </trkpt>
      <trkpt lat="45.89358" lon="-0.91945">
        <ele>3</ele>
        <time>2018-06-30T18:31:37.000Z</time>
      </trkpt>
      <trkpt lat="45.89359" lon="-0.91945">
        <ele>3</ele>
        <time>2018-06-30T18:31:38.000Z</time>
      </trkpt>
      <trkpt lat="45.8936" lon="-0.91946">
        <ele>3</ele>
        <time>2018-06-30T18:31:39.000Z</time>
      </trkpt>
      <trkpt lat="45.89361" lon="-0.91947">
        <ele>3</ele>
        <time>2018-06-30T18:31:40.000Z</time>
      </trkpt>
      <trkpt lat="45.89362" lon="-0.91947">
        <ele>3</ele>
        <time>2018-06-30T18:31:41.000Z</time>
      </trkpt>
      <trkpt lat="45.89363" lon="-0.91948">
        <ele>3</ele>
        <time>2018-06-30T18:31:42.000Z</time>
      </trkpt>
      <trkpt lat="45.89365" lon="-0.91948">
        <ele>3</ele>
        <time>2018-06-30T18:31:43.000Z</time>
      </trkpt>
      <trkpt lat="45.89366" lon="-0.91948">
        <ele>2</ele>
        <time>2018-06-30T18:31:44.000Z</time>
      </trkpt>
      <trkpt lat="45.89367" lon="-0.91948">
        <ele>2</ele>
        <time>2018-06-30T18:31:45.000Z</time>
      </trkpt>
      <trkpt lat="45.89368" lon="-0.91949">
        <ele>2</ele>
        <time>2018-06-30T18:31:46.000Z</time>
      </trkpt>
      <trkpt lat="45.89369" lon="-0.91949">
        <ele>2</ele>
        <time>2018-06-30T18:31:47.000Z</time>
      </trkpt>
      <trkpt lat="45.8937" lon="-0.9195">
        <ele>2</ele>
        <time>2018-06-30T18:31:48.000Z</time>
      </trkpt>
      <trkpt lat="45.89371" lon="-0.91951">
        <ele>2</ele>
        <time>2018-06-30T18:31:49.000Z</time>
      </trkpt>
      <trkpt lat="45.89372" lon="-0.91951">
        <ele>2</ele>
        <time>2018-06-30T18:31:50.000Z</time>
      </trkpt>
      <trkpt lat="45.89373" lon="-0.91953">
        <ele>1</ele>
        <time>2018-06-30T18:31:51.000Z</time>
      </trkpt>
      <trkpt lat="45.89373" lon="-0.91954">
        <ele>1</ele>
        <time>2018-06-30T18:31:52.000Z</time>
      </trkpt>
      <trkpt lat="45.89374" lon="-0.91955">
        <ele>1</ele>
        <time>2018-06-30T18:31:53.000Z</time>
      </trkpt>
      <trkpt lat="45.89375" lon="-0.91957">
        <ele>1</ele>
        <time>2018-06-30T18:31:54.000Z</time>
      </trkpt>
      <trkpt lat="45.89375" lon="-0.91958">
        <ele>1</ele>
        <time>2018-06-30T18:31:55.000Z</time>
      </trkpt>
      <trkpt lat="45.89376" lon="-0.9196">
        <ele>1</ele>
        <time>2018-06-30T18:31:56.000Z</time>
      </trkpt>
      <trkpt lat="45.89376" lon="-0.91961">
        <ele>3.3</ele>
        <time>2018-06-30T18:31:57.000Z</time>
      </trkpt>
      <trkpt lat="45.89377" lon="-0.91962">
        <ele>3.3</ele>
        <time>2018-06-30T18:31:58.000Z</time>
      </trkpt>
      <trkpt lat="45.89377" lon="-0.91963">
        <ele>3.3</ele>
        <time>2018-06-30T18:31:59.000Z</time>
      </trkpt>
      <trkpt lat="45.89377" lon="-0.91965">
        <ele>3.3</ele>
        <time>2018-06-30T18:32:00.000Z</time>
      </trkpt>
      <trkpt lat="45.89378" lon="-0.91966">
        <ele>3.3</ele>
        <time>2018-06-30T18:32:01.000Z</time>
      </trkpt>
      <trkpt lat="45.89378" lon="-0.91967">
        <ele>3.3</ele>
        <time>2018-06-30T18:32:02.000Z</time>
      </trkpt>
      <trkpt lat="45.89378" lon="-0.91968">
        <ele>3.3</ele>
        <time>2018-06-30T18:32:03.000Z</time>
      </trkpt>
      <trkpt lat="45.89378" lon="-0.9197">
        <ele>3.3</ele>
        <time>2018-06-30T18:32:04.000Z</time>
      </trkpt>
      <trkpt lat="45.89378" lon="-0.91971">
        <ele>3.4</ele>
        <time>2018-06-30T18:32:05.000Z</time>
      </trkpt>
      <trkpt lat="45.89379" lon="-0.91973">
        <ele>3.4</ele>
        <time>2018-06-30T18:32:06.000Z</time>
      </trkpt>
      <trkpt lat="45.89379" lon="-0.91974">
        <ele>3.3</ele>
        <time>2018-06-30T18:32:07.000Z</time>
      </trkpt>
      <trkpt lat="45.89379" lon="-0.91976">
        <ele>3.3</ele>
        <time>2018-06-30T18:32:08.000Z</time>
      </trkpt>
      <trkpt lat="45.8938" lon="-0.91977">
        <ele>3.3</ele>
        <time>2018-06-30T18:32:09.000Z</time>
      </trkpt>
      <trkpt lat="45.8938" lon="-0.91979">
        <ele>3.2</ele>
        <time>2018-06-30T18:32:10.000Z</time>
      </trkpt>
      <trkpt lat="45.8938" lon="-0.9198">
        <ele>-1</ele>
        <time>2018-06-30T18:32:11.000Z</time>
      </trkpt>
      <trkpt lat="45.89381" lon="-0.91982">
        <ele>-1</ele>
        <time>2018-06-30T18:32:12.000Z</time>
      </trkpt>
      <trkpt lat="45.89381" lon="-0.91983">
        <ele>-1</ele>
        <time>2018-06-30T18:32:13.000Z</time>
      </trkpt>
      <trkpt lat="45.89381" lon="-0.91985">
        <ele>-2</ele>
        <time>2018-06-30T18:32:14.000Z</time>
      </trkpt>
      <trkpt lat="45.89381" lon="-0.91986">
        <ele>-2</ele>
        <time>2018-06-30T18:32:15.000Z</time>
      </trkpt>
      <trkpt lat="45.89381" lon="-0.91988">
        <ele>-1</ele>
        <time>2018-06-30T18:32:16.000Z</time>
      </trkpt>
      <trkpt lat="45.89381" lon="-0.9199">
        <ele>-1</ele>
        <time>2018-06-30T18:32:17.000Z</time>
      </trkpt>
      <trkpt lat="45.89382" lon="-0.91992">
        <ele>3.1</ele>
        <time>2018-06-30T18:32:18.000Z</time>
      </trkpt>
      <trkpt lat="45.89382" lon="-0.91994">
        <ele>3.1</ele>
        <time>2018-06-30T18:32:19.000Z</time>
      </trkpt>
      <trkpt lat="45.89382" lon="-0.91997">
        <ele>3</ele>
        <time>2018-06-30T18:32:20.000Z</time>
      </trkpt>
      <trkpt lat="45.89382" lon="-0.91999">
        <ele>3</ele>
        <time>2018-06-30T18:32:21.000Z</time>
      </trkpt>
      <trkpt lat="45.89382" lon="-0.92">
        <ele>3</ele>
        <time>2018-06-30T18:32:22.000Z</time>
      </trkpt>
      <trkpt lat="45.89383" lon="-0.92002">
        <ele>3</ele>
        <time>2018-06-30T18:32:23.000Z</time>
      </trkpt>
      <trkpt lat="45.89383" lon="-0.92004">
        <ele>3</ele>
        <time>2018-06-30T18:32:24.000Z</time>
      </trkpt>
      <trkpt lat="45.89383" lon="-0.92006">
        <ele>3</ele>
        <time>2018-06-30T18:32:25.000Z</time>
      </trkpt>
      <trkpt lat="45.89384" lon="-0.92008">
        <ele>1</ele>
        <time>2018-06-30T18:32:26.000Z</time>
      </trkpt>
      <trkpt lat="45.89384" lon="-0.9201">
        <ele>1</ele>
        <time>2018-06-30T18:32:27.000Z</time>
      </trkpt>
      <trkpt lat="45.89384" lon="-0.92012">
        <ele>1</ele>
        <time>2018-06-30T18:32:28.000Z</time>
      </trkpt>
      <trkpt lat="45.89385" lon="-0.92014">
        <ele>1</ele>
        <time>2018-06-30T18:32:29.000Z</time>
      </trkpt>
      <trkpt lat="45.89385" lon="-0.92016">
        <ele>1</ele>
        <time>2018-06-30T18:32:30.000Z</time>
      </trkpt>
      <trkpt lat="45.89385" lon="-0.92017">
        <ele>1</ele>
        <time>2018-06-30T18:32:31.000Z</time>
      </trkpt>
      <trkpt lat="45.89386" lon="-0.92018">
        <ele>1</ele>
        <time>2018-06-30T18:32:32.000Z</time>
      </trkpt>
      <trkpt lat="45.89386" lon="-0.9202">
        <ele>1</ele>
        <time>2018-06-30T18:32:33.000Z</time>
      </trkpt>
      <trkpt lat="45.89386" lon="-0.92022">
        <ele>2</ele>
        <time>2018-06-30T18:32:34.000Z</time>
      </trkpt>
      <trkpt lat="45.89387" lon="-0.92023">
        <ele>2</ele>
        <time>2018-06-30T18:32:35.000Z</time>
      </trkpt>
      <trkpt lat="45.89387" lon="-0.92024">
        <ele>3</ele>
        <time>2018-06-30T18:32:36.000Z</time>
      </trkpt>
      <trkpt lat="45.89388" lon="-0.92026">
        <ele>3</ele>
        <time>2018-06-30T18:32:37.000Z</time>
      </trkpt>
      <trkpt lat="45.89388" lon="-0.92027">
        <ele>3</ele>
        <time>2018-06-30T18:32:38.000Z</time>
      </trkpt>
      <trkpt lat="45.89389" lon="-0.92028">
        <ele>3</ele>
        <time>2018-06-30T18:32:39.000Z</time>
      </trkpt>
      <trkpt lat="45.8939" lon="-0.9203">
        <ele>3</ele>
        <time>2018-06-30T18:32:40.000Z</time>
      </trkpt>
      <trkpt lat="45.89391" lon="-0.92031">
        <ele>3</ele>
        <time>2018-06-30T18:32:41.000Z</time>
      </trkpt>
      <trkpt lat="45.89391" lon="-0.92032">
        <ele>3</ele>
        <time>2018-06-30T18:32:42.000Z</time>
      </trkpt>
      <trkpt lat="45.89392" lon="-0.92034">
        <ele>3</ele>
        <time>2018-06-30T18:32:43.000Z</time>
      </trkpt>
      <trkpt lat="45.89392" lon="-0.92035">
        <ele>3</ele>
        <time>2018-06-30T18:32:44.000Z</time>
      </trkpt>
      <trkpt lat="45.89393" lon="-0.92036">
        <ele>3</ele>
        <time>2018-06-30T18:32:45.000Z</time>
      </trkpt>
      <trkpt lat="45.89393" lon="-0.92037">
        <ele>3</ele>
        <time>2018-06-30T18:32:46.000Z</time>
      </trkpt>
      <trkpt lat="45.89394" lon="-0.92039">
        <ele>3</ele>
        <time>2018-06-30T18:32:47.000Z</time>
      </trkpt>
      <trkpt lat="45.89394" lon="-0.9204">
        <ele>3</ele>
        <time>2018-06-30T18:32:48.000Z</time>
      </trkpt>
      <trkpt lat="45.89394" lon="-0.92041">
        <ele>3</ele>
        <time>2018-06-30T18:32:49.000Z</time>
      </trkpt>
      <trkpt lat="45.89395" lon="-0.92042">
        <ele>3</ele>
        <time>2018-06-30T18:32:50.000Z</time>
      </trkpt>
      <trkpt lat="45.89395" lon="-0.92044">
        <ele>3</ele>
        <time>2018-06-30T18:32:51.000Z</time>
      </trkpt>
      <trkpt lat="45.89396" lon="-0.92045">
        <ele>2</ele>
        <time>2018-06-30T18:32:52.000Z</time>
      </trkpt>
      <trkpt lat="45.89397" lon="-0.92047">
        <ele>2</ele>
        <time>2018-06-30T18:32:53.000Z</time>
      </trkpt>
      <trkpt lat="45.89397" lon="-0.92048">
        <ele>2</ele>
        <time>2018-06-30T18:32:54.000Z</time>
      </trkpt>
      <trkpt lat="45.89398" lon="-0.9205">
        <ele>2</ele>
        <time>2018-06-30T18:32:55.000Z</time>
      </trkpt>
      <trkpt lat="45.89398" lon="-0.92051">
        <ele>1</ele>
        <time>2018-06-30T18:32:56.000Z</time>
      </trkpt>
      <trkpt lat="45.89398" lon="-0.92052">
        <ele>1</ele>
        <time>2018-06-30T18:32:57.000Z</time>
      </trkpt>
      <trkpt lat="45.89399" lon="-0.92053">
        <ele>1</ele>
        <time>2018-06-30T18:32:58.000Z</time>
      </trkpt>
      <trkpt lat="45.89399" lon="-0.92055">
        <ele>1</ele>
        <time>2018-06-30T18:32:59.000Z</time>
      </trkpt>
      <trkpt lat="45.894" lon="-0.92057">
        <ele>1</ele>
        <time>2018-06-30T18:33:00.000Z</time>
      </trkpt>
      <trkpt lat="45.894" lon="-0.92058">
        <ele>1</ele>
        <time>2018-06-30T18:33:01.000Z</time>
      </trkpt>
      <trkpt lat="45.89401" lon="-0.92059">
        <ele>3</ele>
        <time>2018-06-30T18:33:02.000Z</time>
      </trkpt>
      <trkpt lat="45.89401" lon="-0.92061">
        <ele>3</ele>
        <time>2018-06-30T18:33:03.000Z</time>
      </trkpt>
      <trkpt lat="45.89402" lon="-0.92063">
        <ele>3</ele>
        <time>2018-06-30T18:33:04.000Z</time>
      </trkpt>
      <trkpt lat="45.89402" lon="-0.92064">
        <ele>3</ele>
        <time>2018-06-30T18:33:05.000Z</time>
      </trkpt>
      <trkpt lat="45.89403" lon="-0.92066">
        <ele>3</ele>
        <time>2018-06-30T18:33:06.000Z</time>
      </trkpt>
      <trkpt lat="45.89404" lon="-0.92068">
        <ele>3</ele>
        <time>2018-06-30T18:33:07.000Z</time>
      </trkpt>
      <trkpt lat="45.89404" lon="-0.92069">
        <ele>-1</ele>
        <time>2018-06-30T18:33:08.000Z</time>
      </trkpt>
      <trkpt lat="45.89405" lon="-0.9207">
        <ele>-1</ele>
        <time>2018-06-30T18:33:09.000Z</time>
      </trkpt>
      <trkpt lat="45.89406" lon="-0.92072">
        <ele>-1</ele>
        <time>2018-06-30T18:33:10.000Z</time>
      </trkpt>
      <trkpt lat="45.89406" lon="-0.92073">
        <ele>-2</ele>
        <time>2018-06-30T18:33:11.000Z</time>
      </trkpt>
      <trkpt lat="45.89407" lon="-0.92074">
        <ele>-1</ele>
        <time>2018-06-30T18:33:12.000Z</time>
      </trkpt>
      <trkpt lat="45.89408" lon="-0.92075">
        <ele>-1</ele>
        <time>2018-06-30T18:33:13.000Z</time>
      </trkpt>
      <trkpt lat="45.89408" lon="-0.92077">
        <ele>-1</ele>
        <time>2018-06-30T18:33:14.000Z</time>
      </trkpt>
      <trkpt lat="45.89409" lon="-0.92078">
        <ele>-1</ele>
        <time>2018-06-30T18:33:15.000Z</time>
      </trkpt>
      <trkpt lat="45.8941" lon="-0.92079">
        <ele>-1</ele>
        <time>2018-06-30T18:33:16.000Z</time>
      </trkpt>
      <trkpt lat="45.8941" lon="-0.92081">
        <ele>3</ele>
        <time>2018-06-30T18:33:17.000Z</time>
      </trkpt>
      <trkpt lat="45.8941" lon="-0.92083">
        <ele>-1</ele>
        <time>2018-06-30T18:33:18.000Z</time>
      </trkpt>
      <trkpt lat="45.89411" lon="-0.92084">
        <ele>-1</ele>
        <time>2018-06-30T18:33:19.000Z</time>
      </trkpt>
      <trkpt lat="45.89411" lon="-0.92086">
        <ele>-1</ele>
        <time>2018-06-30T18:33:20.000Z</time>
      </trkpt>
      <trkpt lat="45.89412" lon="-0.92087">
        <ele>-1</ele>
        <time>2018-06-30T18:33:21.000Z</time>
      </trkpt>
      <trkpt lat="45.89412" lon="-0.92089">
        <ele>3</ele>
        <time>2018-06-30T18:33:22.000Z</time>
      </trkpt>
      <trkpt lat="45.89412" lon="-0.92091">
        <ele>3</ele>
        <time>2018-06-30T18:33:23.000Z</time>
      </trkpt>
      <trkpt lat="45.89411" lon="-0.92093">
        <ele>3</ele>
        <time>2018-06-30T18:33:24.000Z</time>
      </trkpt>
      <trkpt lat="45.89411" lon="-0.92095">
        <ele>3</ele>
        <time>2018-06-30T18:33:25.000Z</time>
      </trkpt>
      <trkpt lat="45.89411" lon="-0.92097">
        <ele>3</ele>
        <time>2018-06-30T18:33:26.000Z</time>
      </trkpt>
      <trkpt lat="45.89411" lon="-0.92099">
        <ele>1</ele>
        <time>2018-06-30T18:33:27.000Z</time>
      </trkpt>
      <trkpt lat="45.8941" lon="-0.92101">
        <ele>1</ele>
        <time>2018-06-30T18:33:28.000Z</time>
      </trkpt>
      <trkpt lat="45.8941" lon="-0.92103">
        <ele>2</ele>
        <time>2018-06-30T18:33:29.000Z</time>
      </trkpt>
      <trkpt lat="45.8941" lon="-0.92105">
        <ele>1</ele>
        <time>2018-06-30T18:33:30.000Z</time>
      </trkpt>
      <trkpt lat="45.89411" lon="-0.92107">
        <ele>1</ele>
        <time>2018-06-30T18:33:31.000Z</time>
      </trkpt>
      <trkpt lat="45.89411" lon="-0.92108">
        <ele>1</ele>
        <time>2018-06-30T18:33:32.000Z</time>
      </trkpt>
      <trkpt lat="45.89411" lon="-0.9211">
        <ele>1</ele>
        <time>2018-06-30T18:33:33.000Z</time>
      </trkpt>
      <trkpt lat="45.89411" lon="-0.92112">
        <ele>1</ele>
        <time>2018-06-30T18:33:34.000Z</time>
      </trkpt>
      <trkpt lat="45.89411" lon="-0.92114">
        <ele>1</ele>
        <time>2018-06-30T18:33:35.000Z</time>
      </trkpt>
      <trkpt lat="45.89411" lon="-0.92115">
        <ele>1</ele>
        <time>2018-06-30T18:33:36.000Z</time>
      </trkpt>
      <trkpt lat="45.89411" lon="-0.92117">
        <ele>2</ele>
        <time>2018-06-30T18:33:37.000Z</time>
      </trkpt>
      <trkpt lat="45.89411" lon="-0.92119">
        <ele>2</ele>
        <time>2018-06-30T18:33:38.000Z</time>
      </trkpt>
      <trkpt lat="45.89411" lon="-0.92121">
        <ele>2</ele>
        <time>2018-06-30T18:33:39.000Z</time>
      </trkpt>
      <trkpt lat="45.89412" lon="-0.92123">
        <ele>2</ele>
        <time>2018-06-30T18:33:40.000Z</time>
      </trkpt>
      <trkpt lat="45.89412" lon="-0.92124">
        <ele>2</ele>
        <time>2018-06-30T18:33:41.000Z</time>
      </trkpt>
      <trkpt lat="45.89412" lon="-0.92126">
        <ele>3</ele>
        <time>2018-06-30T18:33:42.000Z</time>
      </trkpt>
      <trkpt lat="45.89412" lon="-0.92127">
        <ele>3</ele>
        <time>2018-06-30T18:33:43.000Z</time>
      </trkpt>
      <trkpt lat="45.89412" lon="-0.92128">
        <ele>3</ele>
        <time>2018-06-30T18:33:44.000Z</time>
      </trkpt>
      <trkpt lat="45.89412" lon="-0.9213">
        <ele>3</ele>
        <time>2018-06-30T18:33:45.000Z</time>
      </trkpt>
      <trkpt lat="45.89412" lon="-0.92131">
        <ele>4</ele>
        <time>2018-06-30T18:33:46.000Z</time>
      </trkpt>
      <trkpt lat="45.89412" lon="-0.92133">
        <ele>4</ele>
        <time>2018-06-30T18:33:47.000Z</time>
      </trkpt>
      <trkpt lat="45.89413" lon="-0.92135">
        <ele>5</ele>
        <time>2018-06-30T18:33:48.000Z</time>
      </trkpt>
      <trkpt lat="45.89413" lon="-0.92136">
        <ele>6</ele>
        <time>2018-06-30T18:33:49.000Z</time>
      </trkpt>
      <trkpt lat="45.89413" lon="-0.92138">
        <ele>5</ele>
        <time>2018-06-30T18:33:50.000Z</time>
      </trkpt>
      <trkpt lat="45.89413" lon="-0.92139">
        <ele>5</ele>
        <time>2018-06-30T18:33:51.000Z</time>
      </trkpt>
      <trkpt lat="45.89413" lon="-0.92141">
        <ele>6</ele>
        <time>2018-06-30T18:33:52.000Z</time>
      </trkpt>
      <trkpt lat="45.89413" lon="-0.92142">
        <ele>6</ele>
        <time>2018-06-30T18:33:53.000Z</time>
      </trkpt>
      <trkpt lat="45.89413" lon="-0.92143">
        <ele>6</ele>
        <time>2018-06-30T18:33:54.000Z</time>
      </trkpt>
      <trkpt lat="45.89414" lon="-0.92145">
        <ele>6</ele>
        <time>2018-06-30T18:33:55.000Z</time>
      </trkpt>
      <trkpt lat="45.89414" lon="-0.92146">
        <ele>6</ele>
        <time>2018-06-30T18:33:56.000Z</time>
      </trkpt>
      <trkpt lat="45.89415" lon="-0.92146">
        <ele>6</ele>
        <time>2018-06-30T18:33:57.000Z</time>
      </trkpt>
      <trkpt lat="45.89416" lon="-0.92146">
        <ele>6</ele>
        <time>2018-06-30T18:33:58.000Z</time>
      </trkpt>
      <trkpt lat="45.89416" lon="-0.92146">
        <ele>5</ele>
        <time>2018-06-30T18:33:59.000Z</time>
      </trkpt>
      <trkpt lat="45.89417" lon="-0.92146">
        <ele>5</ele>
        <time>2018-06-30T18:34:00.000Z</time>
      </trkpt>
      <trkpt lat="45.89418" lon="-0.92146">
        <ele>5</ele>
        <time>2018-06-30T18:34:01.000Z</time>
      </trkpt>
      <trkpt lat="45.89419" lon="-0.92146">
        <ele>5</ele>
        <time>2018-06-30T18:34:02.000Z</time>
      </trkpt>
      <trkpt lat="45.8942" lon="-0.92146">
        <ele>5</ele>
        <time>2018-06-30T18:34:03.000Z</time>
      </trkpt>
      <trkpt lat="45.89421" lon="-0.92145">
        <ele>5</ele>
        <time>2018-06-30T18:34:04.000Z</time>
      </trkpt>
      <trkpt lat="45.89422" lon="-0.92145">
        <ele>6</ele>
        <time>2018-06-30T18:34:05.000Z</time>
      </trkpt>
      <trkpt lat="45.89423" lon="-0.92144">
        <ele>6</ele>
        <time>2018-06-30T18:34:06.000Z</time>
      </trkpt>
      <trkpt lat="45.89423" lon="-0.92144">
        <ele>6</ele>
        <time>2018-06-30T18:34:07.000Z</time>
      </trkpt>
      <trkpt lat="45.89424" lon="-0.92143">
        <ele>6</ele>
        <time>2018-06-30T18:34:08.000Z</time>
      </trkpt>
      <trkpt lat="45.89425" lon="-0.92142">
        <ele>6</ele>
        <time>2018-06-30T18:34:09.000Z</time>
      </trkpt>
      <trkpt lat="45.89426" lon="-0.92142">
        <ele>5</ele>
        <time>2018-06-30T18:34:10.000Z</time>
      </trkpt>
      <trkpt lat="45.89427" lon="-0.92141">
        <ele>5</ele>
        <time>2018-06-30T18:34:11.000Z</time>
      </trkpt>
      <trkpt lat="45.89428" lon="-0.92141">
        <ele>5</ele>
        <time>2018-06-30T18:34:12.000Z</time>
      </trkpt>
      <trkpt lat="45.89429" lon="-0.9214">
        <ele>5</ele>
        <time>2018-06-30T18:34:13.000Z</time>
      </trkpt>
      <trkpt lat="45.8943" lon="-0.9214">
        <ele>4</ele>
        <time>2018-06-30T18:34:14.000Z</time>
      </trkpt>
      <trkpt lat="45.89432" lon="-0.9214">
        <ele>3</ele>
        <time>2018-06-30T18:34:15.000Z</time>
      </trkpt>
      <trkpt lat="45.89433" lon="-0.92139">
        <ele>4</ele>
        <time>2018-06-30T18:34:16.000Z</time>
      </trkpt>
      <trkpt lat="45.89434" lon="-0.92139">
        <ele>4</ele>
        <time>2018-06-30T18:34:17.000Z</time>
      </trkpt>
      <trkpt lat="45.89435" lon="-0.92139">
        <ele>3</ele>
        <time>2018-06-30T18:34:18.000Z</time>
      </trkpt>
      <trkpt lat="45.89436" lon="-0.92138">
        <ele>3</ele>
        <time>2018-06-30T18:34:19.000Z</time>
      </trkpt>
      <trkpt lat="45.89436" lon="-0.92138">
        <ele>3</ele>
        <time>2018-06-30T18:34:20.000Z</time>
      </trkpt>
      <trkpt lat="45.89437" lon="-0.92138">
        <ele>3</ele>
        <time>2018-06-30T18:34:21.000Z</time>
      </trkpt>
      <trkpt lat="45.89438" lon="-0.92137">
        <ele>4</ele>
        <time>2018-06-30T18:34:22.000Z</time>
      </trkpt>
      <trkpt lat="45.89439" lon="-0.92136">
        <ele>3</ele>
        <time>2018-06-30T18:34:23.000Z</time>
      </trkpt>
      <trkpt lat="45.89439" lon="-0.92135">
        <ele>4</ele>
        <time>2018-06-30T18:34:24.000Z</time>
      </trkpt>
      <trkpt lat="45.8944" lon="-0.92135">
        <ele>4</ele>
        <time>2018-06-30T18:34:25.000Z</time>
      </trkpt>
      <trkpt lat="45.89441" lon="-0.92135">
        <ele>5</ele>
        <time>2018-06-30T18:34:26.000Z</time>
      </trkpt>
      <trkpt lat="45.89443" lon="-0.92134">
        <ele>5</ele>
        <time>2018-06-30T18:34:27.000Z</time>
      </trkpt>
      <trkpt lat="45.89444" lon="-0.92134">
        <ele>5</ele>
        <time>2018-06-30T18:34:28.000Z</time>
      </trkpt>
      <trkpt lat="45.89446" lon="-0.92134">
        <ele>4</ele>
        <time>2018-06-30T18:34:29.000Z</time>
      </trkpt>
      <trkpt lat="45.89447" lon="-0.92135">
        <ele>4</ele>
        <time>2018-06-30T18:34:30.000Z</time>
      </trkpt>
      <trkpt lat="45.89448" lon="-0.92135">
        <ele>4</ele>
        <time>2018-06-30T18:34:31.000Z</time>
      </trkpt>
      <trkpt lat="45.89449" lon="-0.92135">
        <ele>4</ele>
        <time>2018-06-30T18:34:32.000Z</time>
      </trkpt>
      <trkpt lat="45.89451" lon="-0.92135">
        <ele>4</ele>
        <time>2018-06-30T18:34:33.000Z</time>
      </trkpt>
      <trkpt lat="45.89451" lon="-0.92135">
        <ele>4</ele>
        <time>2018-06-30T18:34:34.000Z</time>
      </trkpt>
      <trkpt lat="45.89452" lon="-0.92135">
        <ele>4</ele>
        <time>2018-06-30T18:34:35.000Z</time>
      </trkpt>
      <trkpt lat="45.89453" lon="-0.92135">
        <ele>3</ele>
        <time>2018-06-30T18:34:36.000Z</time>
      </trkpt>
      <trkpt lat="45.89454" lon="-0.92136">
        <ele>3</ele>
        <time>2018-06-30T18:34:37.000Z</time>
      </trkpt>
      <trkpt lat="45.89455" lon="-0.92136">
        <ele>3</ele>
        <time>2018-06-30T18:34:38.000Z</time>
      </trkpt>
      <trkpt lat="45.89456" lon="-0.92136">
        <ele>3</ele>
        <time>2018-06-30T18:34:39.000Z</time>
      </trkpt>
      <trkpt lat="45.89457" lon="-0.92136">
        <ele>3</ele>
        <time>2018-06-30T18:34:40.000Z</time>
      </trkpt>
      <trkpt lat="45.89458" lon="-0.92136">
        <ele>3</ele>
        <time>2018-06-30T18:34:41.000Z</time>
      </trkpt>
      <trkpt lat="45.89459" lon="-0.92136">
        <ele>4</ele>
        <time>2018-06-30T18:34:42.000Z</time>
      </trkpt>
      <trkpt lat="45.8946" lon="-0.92136">
        <ele>4</ele>
        <time>2018-06-30T18:34:43.000Z</time>
      </trkpt>
      <trkpt lat="45.8946" lon="-0.92136">
        <ele>4</ele>
        <time>2018-06-30T18:34:44.000Z</time>
      </trkpt>
      <trkpt lat="45.89461" lon="-0.92135">
        <ele>3</ele>
        <time>2018-06-30T18:34:45.000Z</time>
      </trkpt>
      <trkpt lat="45.89462" lon="-0.92135">
        <ele>3</ele>
        <time>2018-06-30T18:34:46.000Z</time>
      </trkpt>
      <trkpt lat="45.89463" lon="-0.92135">
        <ele>3</ele>
        <time>2018-06-30T18:34:47.000Z</time>
      </trkpt>
      <trkpt lat="45.89465" lon="-0.92135">
        <ele>3</ele>
        <time>2018-06-30T18:34:48.000Z</time>
      </trkpt>
      <trkpt lat="45.89466" lon="-0.92134">
        <ele>3</ele>
        <time>2018-06-30T18:34:49.000Z</time>
      </trkpt>
      <trkpt lat="45.89467" lon="-0.92134">
        <ele>3</ele>
        <time>2018-06-30T18:34:50.000Z</time>
      </trkpt>
      <trkpt lat="45.89468" lon="-0.92134">
        <ele>3</ele>
        <time>2018-06-30T18:34:51.000Z</time>
      </trkpt>
      <trkpt lat="45.89469" lon="-0.92134">
        <ele>3</ele>
        <time>2018-06-30T18:34:52.000Z</time>
      </trkpt>
      <trkpt lat="45.8947" lon="-0.92135">
        <ele>3</ele>
        <time>2018-06-30T18:34:53.000Z</time>
      </trkpt>
      <trkpt lat="45.89471" lon="-0.92135">
        <ele>2</ele>
        <time>2018-06-30T18:34:54.000Z</time>
      </trkpt>
      <trkpt lat="45.89472" lon="-0.92135">
        <ele>2</ele>
        <time>2018-06-30T18:34:55.000Z</time>
      </trkpt>
      <trkpt lat="45.89473" lon="-0.92136">
        <ele>2</ele>
        <time>2018-06-30T18:34:56.000Z</time>
      </trkpt>
      <trkpt lat="45.89474" lon="-0.92136">
        <ele>1</ele>
        <time>2018-06-30T18:34:57.000Z</time>
      </trkpt>
      <trkpt lat="45.89476" lon="-0.92137">
        <ele>2</ele>
        <time>2018-06-30T18:34:58.000Z</time>
      </trkpt>
      <trkpt lat="45.89477" lon="-0.92137">
        <ele>2</ele>
        <time>2018-06-30T18:34:59.000Z</time>
      </trkpt>
      <trkpt lat="45.89478" lon="-0.92137">
        <ele>2</ele>
        <time>2018-06-30T18:35:00.000Z</time>
      </trkpt>
      <trkpt lat="45.8948" lon="-0.92137">
        <ele>2</ele>
        <time>2018-06-30T18:35:01.000Z</time>
      </trkpt>
      <trkpt lat="45.89481" lon="-0.92137">
        <ele>1</ele>
        <time>2018-06-30T18:35:02.000Z</time>
      </trkpt>
      <trkpt lat="45.89482" lon="-0.92138">
        <ele>1</ele>
        <time>2018-06-30T18:35:03.000Z</time>
      </trkpt>
      <trkpt lat="45.89483" lon="-0.92138">
        <ele>1</ele>
        <time>2018-06-30T18:35:04.000Z</time>
      </trkpt>
      <trkpt lat="45.89484" lon="-0.92138">
        <ele>1</ele>
        <time>2018-06-30T18:35:05.000Z</time>
      </trkpt>
      <trkpt lat="45.89486" lon="-0.92138">
        <ele>1</ele>
        <time>2018-06-30T18:35:06.000Z</time>
      </trkpt>
      <trkpt lat="45.89487" lon="-0.92138">
        <ele>1</ele>
        <time>2018-06-30T18:35:07.000Z</time>
      </trkpt>
      <trkpt lat="45.89488" lon="-0.92139">
        <ele>1</ele>
        <time>2018-06-30T18:35:08.000Z</time>
      </trkpt>
      <trkpt lat="45.89489" lon="-0.92139">
        <ele>1</ele>
        <time>2018-06-30T18:35:09.000Z</time>
      </trkpt>
      <trkpt lat="45.8949" lon="-0.92139">
        <ele>2</ele>
        <time>2018-06-30T18:35:10.000Z</time>
      </trkpt>
      <trkpt lat="45.89492" lon="-0.92139">
        <ele>2</ele>
        <time>2018-06-30T18:35:11.000Z</time>
      </trkpt>
      <trkpt lat="45.89493" lon="-0.92138">
        <ele>2</ele>
        <time>2018-06-30T18:35:12.000Z</time>
      </trkpt>
      <trkpt lat="45.89494" lon="-0.92138">
        <ele>2</ele>
        <time>2018-06-30T18:35:13.000Z</time>
      </trkpt>
      <trkpt lat="45.89495" lon="-0.92138">
        <ele>2</ele>
        <time>2018-06-30T18:35:14.000Z</time>
      </trkpt>
      <trkpt lat="45.89496" lon="-0.92138">
        <ele>2</ele>
        <time>2018-06-30T18:35:15.000Z</time>
      </trkpt>
      <trkpt lat="45.89497" lon="-0.92138">
        <ele>3</ele>
        <time>2018-06-30T18:35:16.000Z</time>
      </trkpt>
      <trkpt lat="45.89498" lon="-0.92138">
        <ele>3</ele>
        <time>2018-06-30T18:35:17.000Z</time>
      </trkpt>
      <trkpt lat="45.89499" lon="-0.92138">
        <ele>3</ele>
        <time>2018-06-30T18:35:18.000Z</time>
      </trkpt>
      <trkpt lat="45.895" lon="-0.92138">
        <ele>3</ele>
        <time>2018-06-30T18:35:19.000Z</time>
      </trkpt>
      <trkpt lat="45.89502" lon="-0.92139">
        <ele>3</ele>
        <time>2018-06-30T18:35:20.000Z</time>
      </trkpt>
      <trkpt lat="45.89503" lon="-0.92139">
        <ele>3</ele>
        <time>2018-06-30T18:35:21.000Z</time>
      </trkpt>
      <trkpt lat="45.89504" lon="-0.92139">
        <ele>3</ele>
        <time>2018-06-30T18:35:22.000Z</time>
      </trkpt>
      <trkpt lat="45.89505" lon="-0.92139">
        <ele>3</ele>
        <time>2018-06-30T18:35:23.000Z</time>
      </trkpt>
      <trkpt lat="45.89506" lon="-0.92139">
        <ele>3</ele>
        <time>2018-06-30T18:35:24.000Z</time>
      </trkpt>
      <trkpt lat="45.89506" lon="-0.92139">
        <ele>3</ele>
        <time>2018-06-30T18:35:25.000Z</time>
      </trkpt>
      <trkpt lat="45.89507" lon="-0.9214">
        <ele>3</ele>
        <time>2018-06-30T18:35:26.000Z</time>
      </trkpt>
      <trkpt lat="45.89509" lon="-0.9214">
        <ele>3</ele>
        <time>2018-06-30T18:35:27.000Z</time>
      </trkpt>
      <trkpt lat="45.8951" lon="-0.9214">
        <ele>3</ele>
        <time>2018-06-30T18:35:28.000Z</time>
      </trkpt>
      <trkpt lat="45.89511" lon="-0.92141">
        <ele>3</ele>
        <time>2018-06-30T18:35:29.000Z</time>
      </trkpt>
      <trkpt lat="45.89512" lon="-0.92141">
        <ele>3</ele>
        <time>2018-06-30T18:35:30.000Z</time>
      </trkpt>
      <trkpt lat="45.89513" lon="-0.92141">
        <ele>3</ele>
        <time>2018-06-30T18:35:31.000Z</time>
      </trkpt>
      <trkpt lat="45.89514" lon="-0.92142">
        <ele>3</ele>
        <time>2018-06-30T18:35:32.000Z</time>
      </trkpt>
      <trkpt lat="45.89515" lon="-0.92142">
        <ele>3</ele>
        <time>2018-06-30T18:35:33.000Z</time>
      </trkpt>
      <trkpt lat="45.89516" lon="-0.92142">
        <ele>3</ele>
        <time>2018-06-30T18:35:34.000Z</time>
      </trkpt>
      <trkpt lat="45.89517" lon="-0.92143">
        <ele>3</ele>
        <time>2018-06-30T18:35:35.000Z</time>
      </trkpt>
      <trkpt lat="45.89518" lon="-0.92143">
        <ele>3</ele>
        <time>2018-06-30T18:35:36.000Z</time>
      </trkpt>
      <trkpt lat="45.89519" lon="-0.92143">
        <ele>3</ele>
        <time>2018-06-30T18:35:37.000Z</time>
      </trkpt>
      <trkpt lat="45.8952" lon="-0.92142">
        <ele>3</ele>
        <time>2018-06-30T18:35:38.000Z</time>
      </trkpt>
      <trkpt lat="45.89521" lon="-0.92142">
        <ele>4</ele>
        <time>2018-06-30T18:35:39.000Z</time>
      </trkpt>
      <trkpt lat="45.89522" lon="-0.92142">
        <ele>5</ele>
        <time>2018-06-30T18:35:40.000Z</time>
      </trkpt>
      <trkpt lat="45.89523" lon="-0.92143">
        <ele>5</ele>
        <time>2018-06-30T18:35:41.000Z</time>
      </trkpt>
      <trkpt lat="45.89525" lon="-0.92144">
        <ele>4</ele>
        <time>2018-06-30T18:35:42.000Z</time>
      </trkpt>
      <trkpt lat="45.89526" lon="-0.92145">
        <ele>4</ele>
        <time>2018-06-30T18:35:43.000Z</time>
      </trkpt>
      <trkpt lat="45.89527" lon="-0.92145">
        <ele>4</ele>
        <time>2018-06-30T18:35:44.000Z</time>
      </trkpt>
      <trkpt lat="45.89528" lon="-0.92146">
        <ele>4</ele>
        <time>2018-06-30T18:35:45.000Z</time>
      </trkpt>
      <trkpt lat="45.8953" lon="-0.92146">
        <ele>3</ele>
        <time>2018-06-30T18:35:46.000Z</time>
      </trkpt>
      <trkpt lat="45.89531" lon="-0.92147">
        <ele>3</ele>
        <time>2018-06-30T18:35:47.000Z</time>
      </trkpt>
      <trkpt lat="45.89532" lon="-0.92147">
        <ele>3</ele>
        <time>2018-06-30T18:35:48.000Z</time>
      </trkpt>
      <trkpt lat="45.89533" lon="-0.92148">
        <ele>3</ele>
        <time>2018-06-30T18:35:49.000Z</time>
      </trkpt>
      <trkpt lat="45.89534" lon="-0.92148">
        <ele>3</ele>
        <time>2018-06-30T18:35:50.000Z</time>
      </trkpt>
      <trkpt lat="45.89535" lon="-0.92149">
        <ele>3</ele>
        <time>2018-06-30T18:35:51.000Z</time>
      </trkpt>
      <trkpt lat="45.89537" lon="-0.92149">
        <ele>3</ele>
        <time>2018-06-30T18:35:52.000Z</time>
      </trkpt>
      <trkpt lat="45.89538" lon="-0.9215">
        <ele>3</ele>
        <time>2018-06-30T18:35:53.000Z</time>
      </trkpt>
      <trkpt lat="45.89539" lon="-0.92151">
        <ele>3</ele>
        <time>2018-06-30T18:35:54.000Z</time>
      </trkpt>
      <trkpt lat="45.8954" lon="-0.92152">
        <ele>3</ele>
        <time>2018-06-30T18:35:55.000Z</time>
      </trkpt>
      <trkpt lat="45.89541" lon="-0.92152">
        <ele>3</ele>
        <time>2018-06-30T18:35:56.000Z</time>
      </trkpt>
      <trkpt lat="45.89542" lon="-0.92153">
        <ele>3</ele>
        <time>2018-06-30T18:35:57.000Z</time>
      </trkpt>
      <trkpt lat="45.89543" lon="-0.92154">
        <ele>3</ele>
        <time>2018-06-30T18:35:58.000Z</time>
      </trkpt>
      <trkpt lat="45.89544" lon="-0.92155">
        <ele>3</ele>
        <time>2018-06-30T18:35:59.000Z</time>
      </trkpt>
      <trkpt lat="45.89545" lon="-0.92155">
        <ele>3</ele>
        <time>2018-06-30T18:36:00.000Z</time>
      </trkpt>
      <trkpt lat="45.89546" lon="-0.92156">
        <ele>3</ele>
        <time>2018-06-30T18:36:01.000Z</time>
      </trkpt>
      <trkpt lat="45.89547" lon="-0.92156">
        <ele>3</ele>
        <time>2018-06-30T18:36:02.000Z</time>
      </trkpt>
      <trkpt lat="45.89548" lon="-0.92157">
        <ele>3</ele>
        <time>2018-06-30T18:36:03.000Z</time>
      </trkpt>
      <trkpt lat="45.89549" lon="-0.92157">
        <ele>3</ele>
        <time>2018-06-30T18:36:04.000Z</time>
      </trkpt>
      <trkpt lat="45.8955" lon="-0.92158">
        <ele>3</ele>
        <time>2018-06-30T18:36:05.000Z</time>
      </trkpt>
      <trkpt lat="45.89551" lon="-0.92159">
        <ele>3</ele>
        <time>2018-06-30T18:36:06.000Z</time>
      </trkpt>
      <trkpt lat="45.89552" lon="-0.92159">
        <ele>3</ele>
        <time>2018-06-30T18:36:07.000Z</time>
      </trkpt>
      <trkpt lat="45.89553" lon="-0.9216">
        <ele>2</ele>
        <time>2018-06-30T18:36:08.000Z</time>
      </trkpt>
      <trkpt lat="45.89554" lon="-0.92161">
        <ele>2</ele>
        <time>2018-06-30T18:36:09.000Z</time>
      </trkpt>
      <trkpt lat="45.89555" lon="-0.92161">
        <ele>3</ele>
        <time>2018-06-30T18:36:10.000Z</time>
      </trkpt>
      <trkpt lat="45.89556" lon="-0.92162">
        <ele>2</ele>
        <time>2018-06-30T18:36:11.000Z</time>
      </trkpt>
      <trkpt lat="45.89557" lon="-0.92162">
        <ele>2</ele>
        <time>2018-06-30T18:36:12.000Z</time>
      </trkpt>
      <trkpt lat="45.89558" lon="-0.92163">
        <ele>2</ele>
        <time>2018-06-30T18:36:13.000Z</time>
      </trkpt>
      <trkpt lat="45.89559" lon="-0.92163">
        <ele>3</ele>
        <time>2018-06-30T18:36:14.000Z</time>
      </trkpt>
      <trkpt lat="45.8956" lon="-0.92164">
        <ele>3</ele>
        <time>2018-06-30T18:36:15.000Z</time>
      </trkpt>
      <trkpt lat="45.89561" lon="-0.92166">
        <ele>3</ele>
        <time>2018-06-30T18:36:16.000Z</time>
      </trkpt>
      <trkpt lat="45.89562" lon="-0.92166">
        <ele>3</ele>
        <time>2018-06-30T18:36:17.000Z</time>
      </trkpt>
      <trkpt lat="45.89563" lon="-0.92167">
        <ele>3</ele>
        <time>2018-06-30T18:36:18.000Z</time>
      </trkpt>
      <trkpt lat="45.89564" lon="-0.92168">
        <ele>3</ele>
        <time>2018-06-30T18:36:19.000Z</time>
      </trkpt>
      <trkpt lat="45.89565" lon="-0.92169">
        <ele>3</ele>
        <time>2018-06-30T18:36:20.000Z</time>
      </trkpt>
      <trkpt lat="45.89566" lon="-0.9217">
        <ele>3</ele>
        <time>2018-06-30T18:36:21.000Z</time>
      </trkpt>
      <trkpt lat="45.89567" lon="-0.92171">
        <ele>3</ele>
        <time>2018-06-30T18:36:22.000Z</time>
      </trkpt>
      <trkpt lat="45.89568" lon="-0.92172">
        <ele>3</ele>
        <time>2018-06-30T18:36:23.000Z</time>
      </trkpt>
      <trkpt lat="45.89569" lon="-0.92173">
        <ele>3</ele>
        <time>2018-06-30T18:36:24.000Z</time>
      </trkpt>
      <trkpt lat="45.8957" lon="-0.92174">
        <ele>3</ele>
        <time>2018-06-30T18:36:25.000Z</time>
      </trkpt>
      <trkpt lat="45.8957" lon="-0.92176">
        <ele>3</ele>
        <time>2018-06-30T18:36:26.000Z</time>
      </trkpt>
      <trkpt lat="45.89571" lon="-0.92178">
        <ele>4</ele>
        <time>2018-06-30T18:36:27.000Z</time>
      </trkpt>
      <trkpt lat="45.89571" lon="-0.9218">
        <ele>4</ele>
        <time>2018-06-30T18:36:28.000Z</time>
      </trkpt>
      <trkpt lat="45.8957" lon="-0.92182">
        <ele>4</ele>
        <time>2018-06-30T18:36:29.000Z</time>
      </trkpt>
      <trkpt lat="45.8957" lon="-0.92184">
        <ele>4</ele>
        <time>2018-06-30T18:36:30.000Z</time>
      </trkpt>
      <trkpt lat="45.8957" lon="-0.92186">
        <ele>4</ele>
        <time>2018-06-30T18:36:31.000Z</time>
      </trkpt>
      <trkpt lat="45.8957" lon="-0.92188">
        <ele>5</ele>
        <time>2018-06-30T18:36:32.000Z</time>
      </trkpt>
      <trkpt lat="45.8957" lon="-0.9219">
        <ele>4</ele>
        <time>2018-06-30T18:36:33.000Z</time>
      </trkpt>
      <trkpt lat="45.8957" lon="-0.92191">
        <ele>5</ele>
        <time>2018-06-30T18:36:34.000Z</time>
      </trkpt>
      <trkpt lat="45.89569" lon="-0.92193">
        <ele>5</ele>
        <time>2018-06-30T18:36:35.000Z</time>
      </trkpt>
      <trkpt lat="45.89569" lon="-0.92195">
        <ele>5</ele>
        <time>2018-06-30T18:36:36.000Z</time>
      </trkpt>
      <trkpt lat="45.89569" lon="-0.92197">
        <ele>5</ele>
        <time>2018-06-30T18:36:37.000Z</time>
      </trkpt>
      <trkpt lat="45.89569" lon="-0.92198">
        <ele>5</ele>
        <time>2018-06-30T18:36:38.000Z</time>
      </trkpt>
      <trkpt lat="45.89569" lon="-0.922">
        <ele>5</ele>
        <time>2018-06-30T18:36:39.000Z</time>
      </trkpt>
      <trkpt lat="45.89569" lon="-0.92201">
        <ele>5</ele>
        <time>2018-06-30T18:36:40.000Z</time>
      </trkpt>
      <trkpt lat="45.89569" lon="-0.92203">
        <ele>5</ele>
        <time>2018-06-30T18:36:41.000Z</time>
      </trkpt>
      <trkpt lat="45.89568" lon="-0.92204">
        <ele>5</ele>
        <time>2018-06-30T18:36:42.000Z</time>
      </trkpt>
      <trkpt lat="45.89568" lon="-0.92206">
        <ele>5</ele>
        <time>2018-06-30T18:36:43.000Z</time>
      </trkpt>
      <trkpt lat="45.89568" lon="-0.92207">
        <ele>5</ele>
        <time>2018-06-30T18:36:44.000Z</time>
      </trkpt>
      <trkpt lat="45.89568" lon="-0.92209">
        <ele>6</ele>
        <time>2018-06-30T18:36:45.000Z</time>
      </trkpt>
      <trkpt lat="45.89567" lon="-0.9221">
        <ele>6</ele>
        <time>2018-06-30T18:36:46.000Z</time>
      </trkpt>
      <trkpt lat="45.89567" lon="-0.92212">
        <ele>6</ele>
        <time>2018-06-30T18:36:47.000Z</time>
      </trkpt>
      <trkpt lat="45.89567" lon="-0.92213">
        <ele>6</ele>
        <time>2018-06-30T18:36:48.000Z</time>
      </trkpt>
      <trkpt lat="45.89567" lon="-0.92215">
        <ele>6</ele>
        <time>2018-06-30T18:36:49.000Z</time>
      </trkpt>
      <trkpt lat="45.89566" lon="-0.92217">
        <ele>6</ele>
        <time>2018-06-30T18:36:50.000Z</time>
      </trkpt>
      <trkpt lat="45.89566" lon="-0.92218">
        <ele>6</ele>
        <time>2018-06-30T18:36:51.000Z</time>
      </trkpt>
      <trkpt lat="45.89566" lon="-0.9222">
        <ele>6</ele>
        <time>2018-06-30T18:36:52.000Z</time>
      </trkpt>
      <trkpt lat="45.89566" lon="-0.92221">
        <ele>5</ele>
        <time>2018-06-30T18:36:53.000Z</time>
      </trkpt>
      <trkpt lat="45.89565" lon="-0.92223">
        <ele>6</ele>
        <time>2018-06-30T18:36:54.000Z</time>
      </trkpt>
      <trkpt lat="45.89565" lon="-0.92225">
        <ele>6</ele>
        <time>2018-06-30T18:36:55.000Z</time>
      </trkpt>
      <trkpt lat="45.89565" lon="-0.92226">
        <ele>6</ele>
        <time>2018-06-30T18:36:56.000Z</time>
      </trkpt>
      <trkpt lat="45.89565" lon="-0.92228">
        <ele>5</ele>
        <time>2018-06-30T18:36:57.000Z</time>
      </trkpt>
      <trkpt lat="45.89565" lon="-0.92229">
        <ele>5</ele>
        <time>2018-06-30T18:36:58.000Z</time>
      </trkpt>
      <trkpt lat="45.89565" lon="-0.92231">
        <ele>6</ele>
        <time>2018-06-30T18:36:59.000Z</time>
      </trkpt>
      <trkpt lat="45.89565" lon="-0.92232">
        <ele>6</ele>
        <time>2018-06-30T18:37:00.000Z</time>
      </trkpt>
      <trkpt lat="45.89565" lon="-0.92233">
        <ele>6</ele>
        <time>2018-06-30T18:37:01.000Z</time>
      </trkpt>
      <trkpt lat="45.89565" lon="-0.92235">
        <ele>5</ele>
        <time>2018-06-30T18:37:02.000Z</time>
      </trkpt>
      <trkpt lat="45.89564" lon="-0.92236">
        <ele>5</ele>
        <time>2018-06-30T18:37:03.000Z</time>
      </trkpt>
      <trkpt lat="45.89564" lon="-0.92238">
        <ele>6</ele>
        <time>2018-06-30T18:37:04.000Z</time>
      </trkpt>
      <trkpt lat="45.89564" lon="-0.92239">
        <ele>6</ele>
        <time>2018-06-30T18:37:05.000Z</time>
      </trkpt>
      <trkpt lat="45.89564" lon="-0.92241">
        <ele>6</ele>
        <time>2018-06-30T18:37:06.000Z</time>
      </trkpt>
      <trkpt lat="45.89563" lon="-0.92243">
        <ele>6</ele>
        <time>2018-06-30T18:37:07.000Z</time>
      </trkpt>
      <trkpt lat="45.89563" lon="-0.92244">
        <ele>6</ele>
        <time>2018-06-30T18:37:08.000Z</time>
      </trkpt>
      <trkpt lat="45.89562" lon="-0.92246">
        <ele>6</ele>
        <time>2018-06-30T18:37:09.000Z</time>
      </trkpt>
      <trkpt lat="45.89562" lon="-0.92247">
        <ele>6</ele>
        <time>2018-06-30T18:37:10.000Z</time>
      </trkpt>
      <trkpt lat="45.89562" lon="-0.92249">
        <ele>6</ele>
        <time>2018-06-30T18:37:11.000Z</time>
      </trkpt>
      <trkpt lat="45.89562" lon="-0.9225">
        <ele>6</ele>
        <time>2018-06-30T18:37:12.000Z</time>
      </trkpt>
      <trkpt lat="45.89562" lon="-0.92252">
        <ele>6</ele>
        <time>2018-06-30T18:37:13.000Z</time>
      </trkpt>
      <trkpt lat="45.89563" lon="-0.92253">
        <ele>6</ele>
        <time>2018-06-30T18:37:14.000Z</time>
      </trkpt>
      <trkpt lat="45.89563" lon="-0.92255">
        <ele>6</ele>
        <time>2018-06-30T18:37:15.000Z</time>
      </trkpt>
      <trkpt lat="45.89564" lon="-0.92256">
        <ele>6</ele>
        <time>2018-06-30T18:37:16.000Z</time>
      </trkpt>
      <trkpt lat="45.89565" lon="-0.92257">
        <ele>7</ele>
        <time>2018-06-30T18:37:17.000Z</time>
      </trkpt>
      <trkpt lat="45.89566" lon="-0.92258">
        <ele>7</ele>
        <time>2018-06-30T18:37:18.000Z</time>
      </trkpt>
      <trkpt lat="45.89567" lon="-0.92259">
        <ele>7</ele>
        <time>2018-06-30T18:37:19.000Z</time>
      </trkpt>
      <trkpt lat="45.89568" lon="-0.92259">
        <ele>6</ele>
        <time>2018-06-30T18:37:20.000Z</time>
      </trkpt>
      <trkpt lat="45.89569" lon="-0.92257">
        <ele>6</ele>
        <time>2018-06-30T18:37:21.000Z</time>
      </trkpt>
      <trkpt lat="45.8957" lon="-0.92256">
        <ele>6</ele>
        <time>2018-06-30T18:37:22.000Z</time>
      </trkpt>
      <trkpt lat="45.89571" lon="-0.92254">
        <ele>6</ele>
        <time>2018-06-30T18:37:23.000Z</time>
      </trkpt>
      <trkpt lat="45.89572" lon="-0.92253">
        <ele>6</ele>
        <time>2018-06-30T18:37:24.000Z</time>
      </trkpt>
      <trkpt lat="45.89573" lon="-0.92252">
        <ele>6</ele>
        <time>2018-06-30T18:37:25.000Z</time>
      </trkpt>
      <trkpt lat="45.89574" lon="-0.92251">
        <ele>5</ele>
        <time>2018-06-30T18:37:26.000Z</time>
      </trkpt>
      <trkpt lat="45.89574" lon="-0.9225">
        <ele>6</ele>
        <time>2018-06-30T18:37:27.000Z</time>
      </trkpt>
      <trkpt lat="45.89575" lon="-0.92248">
        <ele>6</ele>
        <time>2018-06-30T18:37:28.000Z</time>
      </trkpt>
      <trkpt lat="45.89575" lon="-0.92247">
        <ele>6</ele>
        <time>2018-06-30T18:37:29.000Z</time>
      </trkpt>
      <trkpt lat="45.89576" lon="-0.92246">
        <ele>5</ele>
        <time>2018-06-30T18:37:30.000Z</time>
      </trkpt>
      <trkpt lat="45.89576" lon="-0.92244">
        <ele>5</ele>
        <time>2018-06-30T18:37:31.000Z</time>
      </trkpt>
      <trkpt lat="45.89577" lon="-0.92243">
        <ele>5</ele>
        <time>2018-06-30T18:37:32.000Z</time>
      </trkpt>
      <trkpt lat="45.89577" lon="-0.92242">
        <ele>5</ele>
        <time>2018-06-30T18:37:33.000Z</time>
      </trkpt>
      <trkpt lat="45.89577" lon="-0.92241">
        <ele>4</ele>
        <time>2018-06-30T18:37:34.000Z</time>
      </trkpt>
      <trkpt lat="45.89578" lon="-0.9224">
        <ele>5</ele>
        <time>2018-06-30T18:37:35.000Z</time>
      </trkpt>
      <trkpt lat="45.89578" lon="-0.92238">
        <ele>5</ele>
        <time>2018-06-30T18:37:36.000Z</time>
      </trkpt>
      <trkpt lat="45.89578" lon="-0.92237">
        <ele>5</ele>
        <time>2018-06-30T18:37:37.000Z</time>
      </trkpt>
      <trkpt lat="45.89579" lon="-0.92236">
        <ele>5</ele>
        <time>2018-06-30T18:37:38.000Z</time>
      </trkpt>
      <trkpt lat="45.89579" lon="-0.92234">
        <ele>5</ele>
        <time>2018-06-30T18:37:39.000Z</time>
      </trkpt>
      <trkpt lat="45.8958" lon="-0.92233">
        <ele>6</ele>
        <time>2018-06-30T18:37:40.000Z</time>
      </trkpt>
      <trkpt lat="45.89581" lon="-0.92232">
        <ele>6</ele>
        <time>2018-06-30T18:37:41.000Z</time>
      </trkpt>
      <trkpt lat="45.89581" lon="-0.92231">
        <ele>5</ele>
        <time>2018-06-30T18:37:42.000Z</time>
      </trkpt>
      <trkpt lat="45.89582" lon="-0.92229">
        <ele>5</ele>
        <time>2018-06-30T18:37:43.000Z</time>
      </trkpt>
      <trkpt lat="45.89583" lon="-0.92228">
        <ele>5</ele>
        <time>2018-06-30T18:37:44.000Z</time>
      </trkpt>
      <trkpt lat="45.89583" lon="-0.92227">
        <ele>5</ele>
        <time>2018-06-30T18:37:45.000Z</time>
      </trkpt>
      <trkpt lat="45.89584" lon="-0.92225">
        <ele>4</ele>
        <time>2018-06-30T18:37:46.000Z</time>
      </trkpt>
      <trkpt lat="45.89584" lon="-0.92224">
        <ele>4</ele>
        <time>2018-06-30T18:37:47.000Z</time>
      </trkpt>
      <trkpt lat="45.89585" lon="-0.92223">
        <ele>4</ele>
        <time>2018-06-30T18:37:48.000Z</time>
      </trkpt>
      <trkpt lat="45.89585" lon="-0.92222">
        <ele>4</ele>
        <time>2018-06-30T18:37:49.000Z</time>
      </trkpt>
      <trkpt lat="45.89586" lon="-0.92221">
        <ele>4</ele>
        <time>2018-06-30T18:37:50.000Z</time>
      </trkpt>
      <trkpt lat="45.89586" lon="-0.92219">
        <ele>4</ele>
        <time>2018-06-30T18:37:51.000Z</time>
      </trkpt>
      <trkpt lat="45.89587" lon="-0.92218">
        <ele>4</ele>
        <time>2018-06-30T18:37:52.000Z</time>
      </trkpt>
      <trkpt lat="45.89587" lon="-0.92217">
        <ele>4</ele>
        <time>2018-06-30T18:37:53.000Z</time>
      </trkpt>
      <trkpt lat="45.89588" lon="-0.92216">
        <ele>4</ele>
        <time>2018-06-30T18:37:54.000Z</time>
      </trkpt>
      <trkpt lat="45.89588" lon="-0.92214">
        <ele>5</ele>
        <time>2018-06-30T18:37:55.000Z</time>
      </trkpt>
      <trkpt lat="45.89589" lon="-0.92213">
        <ele>5</ele>
        <time>2018-06-30T18:37:56.000Z</time>
      </trkpt>
      <trkpt lat="45.89589" lon="-0.92212">
        <ele>5</ele>
        <time>2018-06-30T18:37:57.000Z</time>
      </trkpt>
      <trkpt lat="45.8959" lon="-0.92211">
        <ele>5</ele>
        <time>2018-06-30T18:37:58.000Z</time>
      </trkpt>
      <trkpt lat="45.8959" lon="-0.9221">
        <ele>5</ele>
        <time>2018-06-30T18:37:59.000Z</time>
      </trkpt>
      <trkpt lat="45.89591" lon="-0.92208">
        <ele>5</ele>
        <time>2018-06-30T18:38:00.000Z</time>
      </trkpt>
      <trkpt lat="45.89592" lon="-0.92207">
        <ele>5</ele>
        <time>2018-06-30T18:38:01.000Z</time>
      </trkpt>
      <trkpt lat="45.89592" lon="-0.92206">
        <ele>5</ele>
        <time>2018-06-30T18:38:02.000Z</time>
      </trkpt>
      <trkpt lat="45.89592" lon="-0.92205">
        <ele>5</ele>
        <time>2018-06-30T18:38:03.000Z</time>
      </trkpt>
      <trkpt lat="45.89593" lon="-0.92203">
        <ele>5</ele>
        <time>2018-06-30T18:38:04.000Z</time>
      </trkpt>
      <trkpt lat="45.89593" lon="-0.92201">
        <ele>5</ele>
        <time>2018-06-30T18:38:05.000Z</time>
      </trkpt>
      <trkpt lat="45.89594" lon="-0.922">
        <ele>5</ele>
        <time>2018-06-30T18:38:06.000Z</time>
      </trkpt>
      <trkpt lat="45.89595" lon="-0.92198">
        <ele>5</ele>
        <time>2018-06-30T18:38:07.000Z</time>
      </trkpt>
      <trkpt lat="45.89595" lon="-0.92197">
        <ele>5</ele>
        <time>2018-06-30T18:38:08.000Z</time>
      </trkpt>
      <trkpt lat="45.89595" lon="-0.92195">
        <ele>5</ele>
        <time>2018-06-30T18:38:09.000Z</time>
      </trkpt>
      <trkpt lat="45.89596" lon="-0.92194">
        <ele>5</ele>
        <time>2018-06-30T18:38:10.000Z</time>
      </trkpt>
      <trkpt lat="45.89596" lon="-0.92193">
        <ele>5</ele>
        <time>2018-06-30T18:38:11.000Z</time>
      </trkpt>
      <trkpt lat="45.89597" lon="-0.92192">
        <ele>6</ele>
        <time>2018-06-30T18:38:12.000Z</time>
      </trkpt>
      <trkpt lat="45.89597" lon="-0.9219">
        <ele>6</ele>
        <time>2018-06-30T18:38:13.000Z</time>
      </trkpt>
      <trkpt lat="45.89598" lon="-0.92189">
        <ele>6</ele>
        <time>2018-06-30T18:38:14.000Z</time>
      </trkpt>
      <trkpt lat="45.89598" lon="-0.92188">
        <ele>6</ele>
        <time>2018-06-30T18:38:15.000Z</time>
      </trkpt>
      <trkpt lat="45.89599" lon="-0.92187">
        <ele>6</ele>
        <time>2018-06-30T18:38:16.000Z</time>
      </trkpt>
      <trkpt lat="45.89599" lon="-0.92185">
        <ele>6</ele>
        <time>2018-06-30T18:38:17.000Z</time>
      </trkpt>
      <trkpt lat="45.896" lon="-0.92184">
        <ele>6</ele>
        <time>2018-06-30T18:38:18.000Z</time>
      </trkpt>
      <trkpt lat="45.89601" lon="-0.92183">
        <ele>5</ele>
        <time>2018-06-30T18:38:19.000Z</time>
      </trkpt>
      <trkpt lat="45.89601" lon="-0.92182">
        <ele>5</ele>
        <time>2018-06-30T18:38:20.000Z</time>
      </trkpt>
      <trkpt lat="45.89601" lon="-0.9218">
        <ele>5</ele>
        <time>2018-06-30T18:38:21.000Z</time>
      </trkpt>
      <trkpt lat="45.89602" lon="-0.92179">
        <ele>4</ele>
        <time>2018-06-30T18:38:22.000Z</time>
      </trkpt>
      <trkpt lat="45.89602" lon="-0.92178">
        <ele>4</ele>
        <time>2018-06-30T18:38:23.000Z</time>
      </trkpt>
      <trkpt lat="45.89603" lon="-0.92177">
        <ele>4</ele>
        <time>2018-06-30T18:38:24.000Z</time>
      </trkpt>
      <trkpt lat="45.89603" lon="-0.92176">
        <ele>3</ele>
        <time>2018-06-30T18:38:25.000Z</time>
      </trkpt>
      <trkpt lat="45.89603" lon="-0.92175">
        <ele>3</ele>
        <time>2018-06-30T18:38:26.000Z</time>
      </trkpt>
      <trkpt lat="45.89604" lon="-0.92174">
        <ele>3</ele>
        <time>2018-06-30T18:38:27.000Z</time>
      </trkpt>
      <trkpt lat="45.89605" lon="-0.92173">
        <ele>3</ele>
        <time>2018-06-30T18:38:28.000Z</time>
      </trkpt>
      <trkpt lat="45.89605" lon="-0.92172">
        <ele>2</ele>
        <time>2018-06-30T18:38:29.000Z</time>
      </trkpt>
      <trkpt lat="45.89606" lon="-0.92171">
        <ele>2</ele>
        <time>2018-06-30T18:38:30.000Z</time>
      </trkpt>
      <trkpt lat="45.89606" lon="-0.92169">
        <ele>2</ele>
        <time>2018-06-30T18:38:31.000Z</time>
      </trkpt>
      <trkpt lat="45.89607" lon="-0.92168">
        <ele>2</ele>
        <time>2018-06-30T18:38:32.000Z</time>
      </trkpt>
      <trkpt lat="45.89607" lon="-0.92167">
        <ele>2</ele>
        <time>2018-06-30T18:38:33.000Z</time>
      </trkpt>
      <trkpt lat="45.89608" lon="-0.92166">
        <ele>1</ele>
        <time>2018-06-30T18:38:34.000Z</time>
      </trkpt>
      <trkpt lat="45.89608" lon="-0.92164">
        <ele>2</ele>
        <time>2018-06-30T18:38:35.000Z</time>
      </trkpt>
      <trkpt lat="45.89609" lon="-0.92162">
        <ele>3</ele>
        <time>2018-06-30T18:38:36.000Z</time>
      </trkpt>
      <trkpt lat="45.89609" lon="-0.92161">
        <ele>3</ele>
        <time>2018-06-30T18:38:37.000Z</time>
      </trkpt>
      <trkpt lat="45.8961" lon="-0.92159">
        <ele>3</ele>
        <time>2018-06-30T18:38:38.000Z</time>
      </trkpt>
      <trkpt lat="45.8961" lon="-0.92158">
        <ele>3</ele>
        <time>2018-06-30T18:38:39.000Z</time>
      </trkpt>
      <trkpt lat="45.89611" lon="-0.92157">
        <ele>3</ele>
        <time>2018-06-30T18:38:40.000Z</time>
      </trkpt>
      <trkpt lat="45.89611" lon="-0.92156">
        <ele>3</ele>
        <time>2018-06-30T18:38:41.000Z</time>
      </trkpt>
      <trkpt lat="45.89612" lon="-0.92154">
        <ele>3</ele>
        <time>2018-06-30T18:38:42.000Z</time>
      </trkpt>
      <trkpt lat="45.89613" lon="-0.92153">
        <ele>3</ele>
        <time>2018-06-30T18:38:43.000Z</time>
      </trkpt>
      <trkpt lat="45.89613" lon="-0.92152">
        <ele>3</ele>
        <time>2018-06-30T18:38:44.000Z</time>
      </trkpt>
      <trkpt lat="45.89614" lon="-0.92151">
        <ele>3</ele>
        <time>2018-06-30T18:38:45.000Z</time>
      </trkpt>
      <trkpt lat="45.89614" lon="-0.92149">
        <ele>3</ele>
        <time>2018-06-30T18:38:46.000Z</time>
      </trkpt>
      <trkpt lat="45.89615" lon="-0.92148">
        <ele>2</ele>
        <time>2018-06-30T18:38:47.000Z</time>
      </trkpt>
      <trkpt lat="45.89616" lon="-0.92146">
        <ele>2</ele>
        <time>2018-06-30T18:38:48.000Z</time>
      </trkpt>
      <trkpt lat="45.89616" lon="-0.92145">
        <ele>2</ele>
        <time>2018-06-30T18:38:49.000Z</time>
      </trkpt>
      <trkpt lat="45.89616" lon="-0.92143">
        <ele>2</ele>
        <time>2018-06-30T18:38:50.000Z</time>
      </trkpt>
      <trkpt lat="45.89617" lon="-0.92142">
        <ele>2</ele>
        <time>2018-06-30T18:38:51.000Z</time>
      </trkpt>
      <trkpt lat="45.89617" lon="-0.92141">
        <ele>2</ele>
        <time>2018-06-30T18:38:52.000Z</time>
      </trkpt>
      <trkpt lat="45.89618" lon="-0.9214">
        <ele>2</ele>
        <time>2018-06-30T18:38:53.000Z</time>
      </trkpt>
      <trkpt lat="45.89618" lon="-0.92139">
        <ele>2</ele>
        <time>2018-06-30T18:38:54.000Z</time>
      </trkpt>
      <trkpt lat="45.89619" lon="-0.92138">
        <ele>2</ele>
        <time>2018-06-30T18:38:55.000Z</time>
      </trkpt>
      <trkpt lat="45.89619" lon="-0.92136">
        <ele>2</ele>
        <time>2018-06-30T18:38:56.000Z</time>
      </trkpt>
      <trkpt lat="45.89619" lon="-0.92135">
        <ele>2</ele>
        <time>2018-06-30T18:38:57.000Z</time>
      </trkpt>
      <trkpt lat="45.8962" lon="-0.92134">
        <ele>2</ele>
        <time>2018-06-30T18:38:58.000Z</time>
      </trkpt>
      <trkpt lat="45.89621" lon="-0.92133">
        <ele>2</ele>
        <time>2018-06-30T18:38:59.000Z</time>
      </trkpt>
      <trkpt lat="45.89621" lon="-0.92132">
        <ele>1</ele>
        <time>2018-06-30T18:39:00.000Z</time>
      </trkpt>
      <trkpt lat="45.89622" lon="-0.9213">
        <ele>1</ele>
        <time>2018-06-30T18:39:01.000Z</time>
      </trkpt>
      <trkpt lat="45.89623" lon="-0.92129">
        <ele>1</ele>
        <time>2018-06-30T18:39:02.000Z</time>
      </trkpt>
      <trkpt lat="45.89623" lon="-0.92128">
        <ele>1</ele>
        <time>2018-06-30T18:39:03.000Z</time>
      </trkpt>
      <trkpt lat="45.89624" lon="-0.92127">
        <ele>1</ele>
        <time>2018-06-30T18:39:04.000Z</time>
      </trkpt>
      <trkpt lat="45.89625" lon="-0.92126">
        <ele>1</ele>
        <time>2018-06-30T18:39:05.000Z</time>
      </trkpt>
      <trkpt lat="45.89626" lon="-0.92125">
        <ele>1</ele>
        <time>2018-06-30T18:39:06.000Z</time>
      </trkpt>
      <trkpt lat="45.89627" lon="-0.92123">
        <ele>1</ele>
        <time>2018-06-30T18:39:07.000Z</time>
      </trkpt>
      <trkpt lat="45.89628" lon="-0.92122">
        <ele>1</ele>
        <time>2018-06-30T18:39:08.000Z</time>
      </trkpt>
      <trkpt lat="45.89628" lon="-0.9212">
        <ele>1</ele>
        <time>2018-06-30T18:39:09.000Z</time>
      </trkpt>
      <trkpt lat="45.89629" lon="-0.92119">
        <ele>4.2</ele>
        <time>2018-06-30T18:39:10.000Z</time>
      </trkpt>
      <trkpt lat="45.8963" lon="-0.92117">
        <ele>4.3</ele>
        <time>2018-06-30T18:39:11.000Z</time>
      </trkpt>
      <trkpt lat="45.89631" lon="-0.92116">
        <ele>4.3</ele>
        <time>2018-06-30T18:39:12.000Z</time>
      </trkpt>
      <trkpt lat="45.89631" lon="-0.92115">
        <ele>4.4</ele>
        <time>2018-06-30T18:39:13.000Z</time>
      </trkpt>
      <trkpt lat="45.89632" lon="-0.92113">
        <ele>4.4</ele>
        <time>2018-06-30T18:39:14.000Z</time>
      </trkpt>
      <trkpt lat="45.89632" lon="-0.92112">
        <ele>4.5</ele>
        <time>2018-06-30T18:39:15.000Z</time>
      </trkpt>
      <trkpt lat="45.89633" lon="-0.9211">
        <ele>4.6</ele>
        <time>2018-06-30T18:39:16.000Z</time>
      </trkpt>
      <trkpt lat="45.89633" lon="-0.92109">
        <ele>4.7</ele>
        <time>2018-06-30T18:39:17.000Z</time>
      </trkpt>
      <trkpt lat="45.89634" lon="-0.92108">
        <ele>4.8</ele>
        <time>2018-06-30T18:39:18.000Z</time>
      </trkpt>
      <trkpt lat="45.89634" lon="-0.92107">
        <ele>4.9</ele>
        <time>2018-06-30T18:39:19.000Z</time>
      </trkpt>
      <trkpt lat="45.89635" lon="-0.92105">
        <ele>5</ele>
        <time>2018-06-30T18:39:20.000Z</time>
      </trkpt>
      <trkpt lat="45.89635" lon="-0.92104">
        <ele>5.1</ele>
        <time>2018-06-30T18:39:21.000Z</time>
      </trkpt>
      <trkpt lat="45.89635" lon="-0.92103">
        <ele>5.2</ele>
        <time>2018-06-30T18:39:22.000Z</time>
      </trkpt>
      <trkpt lat="45.89636" lon="-0.92102">
        <ele>5.4</ele>
        <time>2018-06-30T18:39:23.000Z</time>
      </trkpt>
      <trkpt lat="45.89636" lon="-0.921">
        <ele>5.5</ele>
        <time>2018-06-30T18:39:24.000Z</time>
      </trkpt>
      <trkpt lat="45.89637" lon="-0.92099">
        <ele>1</ele>
        <time>2018-06-30T18:39:25.000Z</time>
      </trkpt>
      <trkpt lat="45.89638" lon="-0.92098">
        <ele>1</ele>
        <time>2018-06-30T18:39:26.000Z</time>
      </trkpt>
      <trkpt lat="45.89639" lon="-0.92096">
        <ele>1</ele>
        <time>2018-06-30T18:39:27.000Z</time>
      </trkpt>
      <trkpt lat="45.89639" lon="-0.92095">
        <ele>1</ele>
        <time>2018-06-30T18:39:28.000Z</time>
      </trkpt>
      <trkpt lat="45.8964" lon="-0.92093">
        <ele>1</ele>
        <time>2018-06-30T18:39:29.000Z</time>
      </trkpt>
      <trkpt lat="45.89641" lon="-0.92092">
        <ele>2</ele>
        <time>2018-06-30T18:39:30.000Z</time>
      </trkpt>
      <trkpt lat="45.89641" lon="-0.9209">
        <ele>2</ele>
        <time>2018-06-30T18:39:31.000Z</time>
      </trkpt>
      <trkpt lat="45.89642" lon="-0.92089">
        <ele>2</ele>
        <time>2018-06-30T18:39:32.000Z</time>
      </trkpt>
      <trkpt lat="45.89642" lon="-0.92087">
        <ele>2</ele>
        <time>2018-06-30T18:39:33.000Z</time>
      </trkpt>
      <trkpt lat="45.89643" lon="-0.92086">
        <ele>2</ele>
        <time>2018-06-30T18:39:34.000Z</time>
      </trkpt>
      <trkpt lat="45.89643" lon="-0.92085">
        <ele>2</ele>
        <time>2018-06-30T18:39:35.000Z</time>
      </trkpt>
      <trkpt lat="45.89644" lon="-0.92084">
        <ele>2</ele>
        <time>2018-06-30T18:39:36.000Z</time>
      </trkpt>
      <trkpt lat="45.89645" lon="-0.92082">
        <ele>2</ele>
        <time>2018-06-30T18:39:37.000Z</time>
      </trkpt>
      <trkpt lat="45.89645" lon="-0.92081">
        <ele>2</ele>
        <time>2018-06-30T18:39:38.000Z</time>
      </trkpt>
      <trkpt lat="45.89645" lon="-0.92079">
        <ele>2</ele>
        <time>2018-06-30T18:39:39.000Z</time>
      </trkpt>
      <trkpt lat="45.89646" lon="-0.92078">
        <ele>2</ele>
        <time>2018-06-30T18:39:40.000Z</time>
      </trkpt>
      <trkpt lat="45.89647" lon="-0.92076">
        <ele>1</ele>
        <time>2018-06-30T18:39:41.000Z</time>
      </trkpt>
      <trkpt lat="45.89647" lon="-0.92075">
        <ele>1</ele>
        <time>2018-06-30T18:39:42.000Z</time>
      </trkpt>
      <trkpt lat="45.89648" lon="-0.92073">
        <ele>1</ele>
        <time>2018-06-30T18:39:43.000Z</time>
      </trkpt>
      <trkpt lat="45.89648" lon="-0.92072">
        <ele>1</ele>
        <time>2018-06-30T18:39:44.000Z</time>
      </trkpt>
      <trkpt lat="45.89649" lon="-0.92071">
        <ele>1</ele>
        <time>2018-06-30T18:39:45.000Z</time>
      </trkpt>
      <trkpt lat="45.89649" lon="-0.92069">
        <ele>1</ele>
        <time>2018-06-30T18:39:46.000Z</time>
      </trkpt>
      <trkpt lat="45.8965" lon="-0.92068">
        <ele>1</ele>
        <time>2018-06-30T18:39:47.000Z</time>
      </trkpt>
      <trkpt lat="45.89651" lon="-0.92066">
        <ele>1</ele>
        <time>2018-06-30T18:39:48.000Z</time>
      </trkpt>
      <trkpt lat="45.89651" lon="-0.92065">
        <ele>1</ele>
        <time>2018-06-30T18:39:49.000Z</time>
      </trkpt>
      <trkpt lat="45.89652" lon="-0.92063">
        <ele>1</ele>
        <time>2018-06-30T18:39:50.000Z</time>
      </trkpt>
      <trkpt lat="45.89652" lon="-0.92062">
        <ele>1</ele>
        <time>2018-06-30T18:39:51.000Z</time>
      </trkpt>
      <trkpt lat="45.89653" lon="-0.92061">
        <ele>4.2</ele>
        <time>2018-06-30T18:39:52.000Z</time>
      </trkpt>
      <trkpt lat="45.89653" lon="-0.92059">
        <ele>4.1</ele>
        <time>2018-06-30T18:39:53.000Z</time>
      </trkpt>
      <trkpt lat="45.89654" lon="-0.92058">
        <ele>4.1</ele>
        <time>2018-06-30T18:39:54.000Z</time>
      </trkpt>
      <trkpt lat="45.89654" lon="-0.92056">
        <ele>1</ele>
        <time>2018-06-30T18:39:55.000Z</time>
      </trkpt>
      <trkpt lat="45.89655" lon="-0.92055">
        <ele>1</ele>
        <time>2018-06-30T18:39:56.000Z</time>
      </trkpt>
      <trkpt lat="45.89655" lon="-0.92053">
        <ele>1</ele>
        <time>2018-06-30T18:39:57.000Z</time>
      </trkpt>
      <trkpt lat="45.89656" lon="-0.92052">
        <ele>1</ele>
        <time>2018-06-30T18:39:58.000Z</time>
      </trkpt>
      <trkpt lat="45.89656" lon="-0.92051">
        <ele>4.1</ele>
        <time>2018-06-30T18:39:59.000Z</time>
      </trkpt>
      <trkpt lat="45.89656" lon="-0.9205">
        <ele>4.2</ele>
        <time>2018-06-30T18:40:00.000Z</time>
      </trkpt>
      <trkpt lat="45.89657" lon="-0.92048">
        <ele>4.3</ele>
        <time>2018-06-30T18:40:01.000Z</time>
      </trkpt>
      <trkpt lat="45.89657" lon="-0.92047">
        <ele>-1</ele>
        <time>2018-06-30T18:40:02.000Z</time>
      </trkpt>
      <trkpt lat="45.89658" lon="-0.92045">
        <ele>-1</ele>
        <time>2018-06-30T18:40:03.000Z</time>
      </trkpt>
      <trkpt lat="45.89658" lon="-0.92044">
        <ele>4.5</ele>
        <time>2018-06-30T18:40:04.000Z</time>
      </trkpt>
      <trkpt lat="45.89659" lon="-0.92043">
        <ele>-1</ele>
        <time>2018-06-30T18:40:05.000Z</time>
      </trkpt>
      <trkpt lat="45.8966" lon="-0.92042">
        <ele>4.6</ele>
        <time>2018-06-30T18:40:06.000Z</time>
      </trkpt>
      <trkpt lat="45.8966" lon="-0.9204">
        <ele>4.7</ele>
        <time>2018-06-30T18:40:07.000Z</time>
      </trkpt>
      <trkpt lat="45.89661" lon="-0.92039">
        <ele>4.8</ele>
        <time>2018-06-30T18:40:08.000Z</time>
      </trkpt>
      <trkpt lat="45.89662" lon="-0.92038">
        <ele>5</ele>
        <time>2018-06-30T18:40:09.000Z</time>
      </trkpt>
      <trkpt lat="45.89663" lon="-0.92036">
        <ele>5.1</ele>
        <time>2018-06-30T18:40:10.000Z</time>
      </trkpt>
      <trkpt lat="45.89663" lon="-0.92035">
        <ele>5.2</ele>
        <time>2018-06-30T18:40:11.000Z</time>
      </trkpt>
      <trkpt lat="45.89664" lon="-0.92033">
        <ele>5.4</ele>
        <time>2018-06-30T18:40:12.000Z</time>
      </trkpt>
      <trkpt lat="45.89664" lon="-0.92031">
        <ele>5.5</ele>
        <time>2018-06-30T18:40:13.000Z</time>
      </trkpt>
      <trkpt lat="45.89665" lon="-0.9203">
        <ele>5.6</ele>
        <time>2018-06-30T18:40:14.000Z</time>
      </trkpt>
      <trkpt lat="45.89665" lon="-0.92028">
        <ele>5.8</ele>
        <time>2018-06-30T18:40:15.000Z</time>
      </trkpt>
      <trkpt lat="45.89665" lon="-0.92027">
        <ele>5.8</ele>
        <time>2018-06-30T18:40:16.000Z</time>
      </trkpt>
      <trkpt lat="45.89665" lon="-0.92025">
        <ele>1</ele>
        <time>2018-06-30T18:40:17.000Z</time>
      </trkpt>
      <trkpt lat="45.89666" lon="-0.92024">
        <ele>5.8</ele>
        <time>2018-06-30T18:40:18.000Z</time>
      </trkpt>
      <trkpt lat="45.89666" lon="-0.92023">
        <ele>5.8</ele>
        <time>2018-06-30T18:40:19.000Z</time>
      </trkpt>
      <trkpt lat="45.89667" lon="-0.92022">
        <ele>5.8</ele>
        <time>2018-06-30T18:40:20.000Z</time>
      </trkpt>
      <trkpt lat="45.89667" lon="-0.92021">
        <ele>5.7</ele>
        <time>2018-06-30T18:40:21.000Z</time>
      </trkpt>
      <trkpt lat="45.89668" lon="-0.9202">
        <ele>5.6</ele>
        <time>2018-06-30T18:40:22.000Z</time>
      </trkpt>
      <trkpt lat="45.89668" lon="-0.92018">
        <ele>5.5</ele>
        <time>2018-06-30T18:40:23.000Z</time>
      </trkpt>
      <trkpt lat="45.89668" lon="-0.92017">
        <ele>5.5</ele>
        <time>2018-06-30T18:40:24.000Z</time>
      </trkpt>
      <trkpt lat="45.89669" lon="-0.92016">
        <ele>5.4</ele>
        <time>2018-06-30T18:40:25.000Z</time>
      </trkpt>
      <trkpt lat="45.8967" lon="-0.92015">
        <ele>5.2</ele>
        <time>2018-06-30T18:40:26.000Z</time>
      </trkpt>
      <trkpt lat="45.89671" lon="-0.92013">
        <ele>5.1</ele>
        <time>2018-06-30T18:40:27.000Z</time>
      </trkpt>
      <trkpt lat="45.89671" lon="-0.92012">
        <ele>5</ele>
        <time>2018-06-30T18:40:28.000Z</time>
      </trkpt>
      <trkpt lat="45.89672" lon="-0.92011">
        <ele>4.9</ele>
        <time>2018-06-30T18:40:29.000Z</time>
      </trkpt>
      <trkpt lat="45.89673" lon="-0.92009">
        <ele>4.8</ele>
        <time>2018-06-30T18:40:30.000Z</time>
      </trkpt>
      <trkpt lat="45.89674" lon="-0.92007">
        <ele>4.7</ele>
        <time>2018-06-30T18:40:31.000Z</time>
      </trkpt>
      <trkpt lat="45.89674" lon="-0.92006">
        <ele>4.6</ele>
        <time>2018-06-30T18:40:32.000Z</time>
      </trkpt>
      <trkpt lat="45.89675" lon="-0.92004">
        <ele>4.5</ele>
        <time>2018-06-30T18:40:33.000Z</time>
      </trkpt>
      <trkpt lat="45.89676" lon="-0.92003">
        <ele>4.4</ele>
        <time>2018-06-30T18:40:34.000Z</time>
      </trkpt>
      <trkpt lat="45.89676" lon="-0.92001">
        <ele>1</ele>
        <time>2018-06-30T18:40:35.000Z</time>
      </trkpt>
      <trkpt lat="45.89677" lon="-0.91999">
        <ele>1</ele>
        <time>2018-06-30T18:40:36.000Z</time>
      </trkpt>
      <trkpt lat="45.89678" lon="-0.91998">
        <ele>1</ele>
        <time>2018-06-30T18:40:37.000Z</time>
      </trkpt>
      <trkpt lat="45.89679" lon="-0.91996">
        <ele>4.1</ele>
        <time>2018-06-30T18:40:38.000Z</time>
      </trkpt>
      <trkpt lat="45.8968" lon="-0.91995">
        <ele>1</ele>
        <time>2018-06-30T18:40:39.000Z</time>
      </trkpt>
      <trkpt lat="45.8968" lon="-0.91994">
        <ele>4.1</ele>
        <time>2018-06-30T18:40:40.000Z</time>
      </trkpt>
      <trkpt lat="45.89681" lon="-0.91992">
        <ele>4.1</ele>
        <time>2018-06-30T18:40:41.000Z</time>
      </trkpt>
      <trkpt lat="45.89682" lon="-0.91991">
        <ele>4.1</ele>
        <time>2018-06-30T18:40:42.000Z</time>
      </trkpt>
      <trkpt lat="45.89682" lon="-0.9199">
        <ele>1</ele>
        <time>2018-06-30T18:40:43.000Z</time>
      </trkpt>
      <trkpt lat="45.89683" lon="-0.91988">
        <ele>1</ele>
        <time>2018-06-30T18:40:44.000Z</time>
      </trkpt>
      <trkpt lat="45.89683" lon="-0.91986">
        <ele>1</ele>
        <time>2018-06-30T18:40:45.000Z</time>
      </trkpt>
      <trkpt lat="45.89684" lon="-0.91985">
        <ele>4.4</ele>
        <time>2018-06-30T18:40:46.000Z</time>
      </trkpt>
      <trkpt lat="45.89685" lon="-0.91983">
        <ele>4.4</ele>
        <time>2018-06-30T18:40:47.000Z</time>
      </trkpt>
      <trkpt lat="45.89685" lon="-0.91982">
        <ele>4.5</ele>
        <time>2018-06-30T18:40:48.000Z</time>
      </trkpt>
      <trkpt lat="45.89686" lon="-0.91981">
        <ele>1</ele>
        <time>2018-06-30T18:40:49.000Z</time>
      </trkpt>
      <trkpt lat="45.89686" lon="-0.91979">
        <ele>1</ele>
        <time>2018-06-30T18:40:50.000Z</time>
      </trkpt>
      <trkpt lat="45.89687" lon="-0.91978">
        <ele>1</ele>
        <time>2018-06-30T18:40:51.000Z</time>
      </trkpt>
      <trkpt lat="45.89687" lon="-0.91976">
        <ele>5</ele>
        <time>2018-06-30T18:40:52.000Z</time>
      </trkpt>
      <trkpt lat="45.89688" lon="-0.91975">
        <ele>5.1</ele>
        <time>2018-06-30T18:40:53.000Z</time>
      </trkpt>
      <trkpt lat="45.89688" lon="-0.91973">
        <ele>5.3</ele>
        <time>2018-06-30T18:40:54.000Z</time>
      </trkpt>
      <trkpt lat="45.89689" lon="-0.91972">
        <ele>5.4</ele>
        <time>2018-06-30T18:40:55.000Z</time>
      </trkpt>
      <trkpt lat="45.89689" lon="-0.91971">
        <ele>5.5</ele>
        <time>2018-06-30T18:40:56.000Z</time>
      </trkpt>
      <trkpt lat="45.8969" lon="-0.91969">
        <ele>5.5</ele>
        <time>2018-06-30T18:40:57.000Z</time>
      </trkpt>
      <trkpt lat="45.89691" lon="-0.91968">
        <ele>5.6</ele>
        <time>2018-06-30T18:40:58.000Z</time>
      </trkpt>
      <trkpt lat="45.89691" lon="-0.91967">
        <ele>5.6</ele>
        <time>2018-06-30T18:40:59.000Z</time>
      </trkpt>
      <trkpt lat="45.89692" lon="-0.91965">
        <ele>5.7</ele>
        <time>2018-06-30T18:41:00.000Z</time>
      </trkpt>
      <trkpt lat="45.89692" lon="-0.91964">
        <ele>5.8</ele>
        <time>2018-06-30T18:41:01.000Z</time>
      </trkpt>
      <trkpt lat="45.89693" lon="-0.91962">
        <ele>5.8</ele>
        <time>2018-06-30T18:41:02.000Z</time>
      </trkpt>
      <trkpt lat="45.89694" lon="-0.91961">
        <ele>5.9</ele>
        <time>2018-06-30T18:41:03.000Z</time>
      </trkpt>
      <trkpt lat="45.89694" lon="-0.9196">
        <ele>6</ele>
        <time>2018-06-30T18:41:04.000Z</time>
      </trkpt>
      <trkpt lat="45.89695" lon="-0.91959">
        <ele>5.9</ele>
        <time>2018-06-30T18:41:05.000Z</time>
      </trkpt>
      <trkpt lat="45.89696" lon="-0.91957">
        <ele>5.9</ele>
        <time>2018-06-30T18:41:06.000Z</time>
      </trkpt>
      <trkpt lat="45.89696" lon="-0.91956">
        <ele>5.8</ele>
        <time>2018-06-30T18:41:07.000Z</time>
      </trkpt>
      <trkpt lat="45.89697" lon="-0.91955">
        <ele>5.7</ele>
        <time>2018-06-30T18:41:08.000Z</time>
      </trkpt>
      <trkpt lat="45.89697" lon="-0.91953">
        <ele>5.7</ele>
        <time>2018-06-30T18:41:09.000Z</time>
      </trkpt>
      <trkpt lat="45.89698" lon="-0.91952">
        <ele>5.6</ele>
        <time>2018-06-30T18:41:10.000Z</time>
      </trkpt>
      <trkpt lat="45.89699" lon="-0.91951">
        <ele>5.5</ele>
        <time>2018-06-30T18:41:11.000Z</time>
      </trkpt>
      <trkpt lat="45.89699" lon="-0.91949">
        <ele>5.5</ele>
        <time>2018-06-30T18:41:12.000Z</time>
      </trkpt>
      <trkpt lat="45.897" lon="-0.91948">
        <ele>5.4</ele>
        <time>2018-06-30T18:41:13.000Z</time>
      </trkpt>
      <trkpt lat="45.89701" lon="-0.91947">
        <ele>5.3</ele>
        <time>2018-06-30T18:41:14.000Z</time>
      </trkpt>
      <trkpt lat="45.89702" lon="-0.91945">
        <ele>5.2</ele>
        <time>2018-06-30T18:41:15.000Z</time>
      </trkpt>
      <trkpt lat="45.89702" lon="-0.91944">
        <ele>5.1</ele>
        <time>2018-06-30T18:41:16.000Z</time>
      </trkpt>
      <trkpt lat="45.89703" lon="-0.91942">
        <ele>5</ele>
        <time>2018-06-30T18:41:17.000Z</time>
      </trkpt>
      <trkpt lat="45.89703" lon="-0.91941">
        <ele>4.8</ele>
        <time>2018-06-30T18:41:18.000Z</time>
      </trkpt>
      <trkpt lat="45.89704" lon="-0.91939">
        <ele>4.7</ele>
        <time>2018-06-30T18:41:19.000Z</time>
      </trkpt>
      <trkpt lat="45.89705" lon="-0.91937">
        <ele>4.6</ele>
        <time>2018-06-30T18:41:20.000Z</time>
      </trkpt>
      <trkpt lat="45.89706" lon="-0.91936">
        <ele>4.5</ele>
        <time>2018-06-30T18:41:21.000Z</time>
      </trkpt>
      <trkpt lat="45.89707" lon="-0.91934">
        <ele>4.4</ele>
        <time>2018-06-30T18:41:22.000Z</time>
      </trkpt>
      <trkpt lat="45.89708" lon="-0.91933">
        <ele>1</ele>
        <time>2018-06-30T18:41:23.000Z</time>
      </trkpt>
      <trkpt lat="45.89709" lon="-0.91932">
        <ele>1</ele>
        <time>2018-06-30T18:41:24.000Z</time>
      </trkpt>
      <trkpt lat="45.8971" lon="-0.91931">
        <ele>1</ele>
        <time>2018-06-30T18:41:25.000Z</time>
      </trkpt>
      <trkpt lat="45.8971" lon="-0.91929">
        <ele>1</ele>
        <time>2018-06-30T18:41:26.000Z</time>
      </trkpt>
      <trkpt lat="45.89711" lon="-0.91928">
        <ele>1</ele>
        <time>2018-06-30T18:41:27.000Z</time>
      </trkpt>
      <trkpt lat="45.89712" lon="-0.91926">
        <ele>4.2</ele>
        <time>2018-06-30T18:41:28.000Z</time>
      </trkpt>
      <trkpt lat="45.89712" lon="-0.91925">
        <ele>4.2</ele>
        <time>2018-06-30T18:41:29.000Z</time>
      </trkpt>
      <trkpt lat="45.89713" lon="-0.91924">
        <ele>4.2</ele>
        <time>2018-06-30T18:41:30.000Z</time>
      </trkpt>
      <trkpt lat="45.89713" lon="-0.91922">
        <ele>4.3</ele>
        <time>2018-06-30T18:41:31.000Z</time>
      </trkpt>
      <trkpt lat="45.89714" lon="-0.91921">
        <ele>4.3</ele>
        <time>2018-06-30T18:41:32.000Z</time>
      </trkpt>
      <trkpt lat="45.89714" lon="-0.9192">
        <ele>1</ele>
        <time>2018-06-30T18:41:33.000Z</time>
      </trkpt>
      <trkpt lat="45.89715" lon="-0.91919">
        <ele>1</ele>
        <time>2018-06-30T18:41:34.000Z</time>
      </trkpt>
      <trkpt lat="45.89715" lon="-0.91918">
        <ele>1</ele>
        <time>2018-06-30T18:41:35.000Z</time>
      </trkpt>
      <trkpt lat="45.89716" lon="-0.91916">
        <ele>1</ele>
        <time>2018-06-30T18:41:36.000Z</time>
      </trkpt>
      <trkpt lat="45.89716" lon="-0.91915">
        <ele>4.6</ele>
        <time>2018-06-30T18:41:37.000Z</time>
      </trkpt>
      <trkpt lat="45.89717" lon="-0.91914">
        <ele>1</ele>
        <time>2018-06-30T18:41:38.000Z</time>
      </trkpt>
      <trkpt lat="45.89717" lon="-0.91913">
        <ele>1</ele>
        <time>2018-06-30T18:41:39.000Z</time>
      </trkpt>
      <trkpt lat="45.89718" lon="-0.91911">
        <ele>1</ele>
        <time>2018-06-30T18:41:40.000Z</time>
      </trkpt>
      <trkpt lat="45.89719" lon="-0.9191">
        <ele>1</ele>
        <time>2018-06-30T18:41:41.000Z</time>
      </trkpt>
      <trkpt lat="45.89719" lon="-0.91908">
        <ele>1</ele>
        <time>2018-06-30T18:41:42.000Z</time>
      </trkpt>
      <trkpt lat="45.8972" lon="-0.91907">
        <ele>1</ele>
        <time>2018-06-30T18:41:43.000Z</time>
      </trkpt>
      <trkpt lat="45.8972" lon="-0.91905">
        <ele>5.2</ele>
        <time>2018-06-30T18:41:44.000Z</time>
      </trkpt>
      <trkpt lat="45.89721" lon="-0.91904">
        <ele>5.3</ele>
        <time>2018-06-30T18:41:45.000Z</time>
      </trkpt>
      <trkpt lat="45.89722" lon="-0.91903">
        <ele>5.4</ele>
        <time>2018-06-30T18:41:46.000Z</time>
      </trkpt>
      <trkpt lat="45.89722" lon="-0.91902">
        <ele>5.5</ele>
        <time>2018-06-30T18:41:47.000Z</time>
      </trkpt>
      <trkpt lat="45.89723" lon="-0.919">
        <ele>5.5</ele>
        <time>2018-06-30T18:41:48.000Z</time>
      </trkpt>
      <trkpt lat="45.89723" lon="-0.91899">
        <ele>5.5</ele>
        <time>2018-06-30T18:41:49.000Z</time>
      </trkpt>
      <trkpt lat="45.89724" lon="-0.91898">
        <ele>5.5</ele>
        <time>2018-06-30T18:41:50.000Z</time>
      </trkpt>
      <trkpt lat="45.89724" lon="-0.91896">
        <ele>5.5</ele>
        <time>2018-06-30T18:41:51.000Z</time>
      </trkpt>
      <trkpt lat="45.89725" lon="-0.91895">
        <ele>5.5</ele>
        <time>2018-06-30T18:41:52.000Z</time>
      </trkpt>
      <trkpt lat="45.89726" lon="-0.91893">
        <ele>5.5</ele>
        <time>2018-06-30T18:41:53.000Z</time>
      </trkpt>
      <trkpt lat="45.89727" lon="-0.91892">
        <ele>5.4</ele>
        <time>2018-06-30T18:41:54.000Z</time>
      </trkpt>
      <trkpt lat="45.89728" lon="-0.91891">
        <ele>5.4</ele>
        <time>2018-06-30T18:41:55.000Z</time>
      </trkpt>
      <trkpt lat="45.89728" lon="-0.91889">
        <ele>5.3</ele>
        <time>2018-06-30T18:41:56.000Z</time>
      </trkpt>
      <trkpt lat="45.89729" lon="-0.91888">
        <ele>5.2</ele>
        <time>2018-06-30T18:41:57.000Z</time>
      </trkpt>
      <trkpt lat="45.8973" lon="-0.91886">
        <ele>-1</ele>
        <time>2018-06-30T18:41:58.000Z</time>
      </trkpt>
      <trkpt lat="45.89731" lon="-0.91885">
        <ele>-1</ele>
        <time>2018-06-30T18:41:59.000Z</time>
      </trkpt>
      <trkpt lat="45.89731" lon="-0.91883">
        <ele>-1</ele>
        <time>2018-06-30T18:42:00.000Z</time>
      </trkpt>
      <trkpt lat="45.89732" lon="-0.91882">
        <ele>-1</ele>
        <time>2018-06-30T18:42:01.000Z</time>
      </trkpt>
      <trkpt lat="45.89733" lon="-0.91881">
        <ele>-1</ele>
        <time>2018-06-30T18:42:02.000Z</time>
      </trkpt>
      <trkpt lat="45.89734" lon="-0.9188">
        <ele>4.4</ele>
        <time>2018-06-30T18:42:03.000Z</time>
      </trkpt>
      <trkpt lat="45.89735" lon="-0.91878">
        <ele>4.4</ele>
        <time>2018-06-30T18:42:04.000Z</time>
      </trkpt>
      <trkpt lat="45.89735" lon="-0.91877">
        <ele>4.3</ele>
        <time>2018-06-30T18:42:05.000Z</time>
      </trkpt>
      <trkpt lat="45.89736" lon="-0.91876">
        <ele>4.3</ele>
        <time>2018-06-30T18:42:06.000Z</time>
      </trkpt>
      <trkpt lat="45.89737" lon="-0.91875">
        <ele>4.2</ele>
        <time>2018-06-30T18:42:07.000Z</time>
      </trkpt>
      <trkpt lat="45.89737" lon="-0.91874">
        <ele>-1</ele>
        <time>2018-06-30T18:42:08.000Z</time>
      </trkpt>
      <trkpt lat="45.89738" lon="-0.91873">
        <ele>4.2</ele>
        <time>2018-06-30T18:42:09.000Z</time>
      </trkpt>
      <trkpt lat="45.89738" lon="-0.91872">
        <ele>4.2</ele>
        <time>2018-06-30T18:42:10.000Z</time>
      </trkpt>
      <trkpt lat="45.89739" lon="-0.91872">
        <ele>4.2</ele>
        <time>2018-06-30T18:42:11.000Z</time>
      </trkpt>
      <trkpt lat="45.89739" lon="-0.9187">
        <ele>4.2</ele>
        <time>2018-06-30T18:42:12.000Z</time>
      </trkpt>
      <trkpt lat="45.8974" lon="-0.91869">
        <ele>4.2</ele>
        <time>2018-06-30T18:42:13.000Z</time>
      </trkpt>
      <trkpt lat="45.8974" lon="-0.91867">
        <ele>4.2</ele>
        <time>2018-06-30T18:42:14.000Z</time>
      </trkpt>
      <trkpt lat="45.89741" lon="-0.91866">
        <ele>4.3</ele>
        <time>2018-06-30T18:42:15.000Z</time>
      </trkpt>
      <trkpt lat="45.89741" lon="-0.91864">
        <ele>-1</ele>
        <time>2018-06-30T18:42:16.000Z</time>
      </trkpt>
      <trkpt lat="45.89742" lon="-0.91862">
        <ele>-1</ele>
        <time>2018-06-30T18:42:17.000Z</time>
      </trkpt>
      <trkpt lat="45.89742" lon="-0.91861">
        <ele>-1</ele>
        <time>2018-06-30T18:42:18.000Z</time>
      </trkpt>
      <trkpt lat="45.89742" lon="-0.9186">
        <ele>-1</ele>
        <time>2018-06-30T18:42:19.000Z</time>
      </trkpt>
      <trkpt lat="45.89742" lon="-0.91858">
        <ele>-1</ele>
        <time>2018-06-30T18:42:20.000Z</time>
      </trkpt>
      <trkpt lat="45.89742" lon="-0.91857">
        <ele>-1</ele>
        <time>2018-06-30T18:42:21.000Z</time>
      </trkpt>
      <trkpt lat="45.89742" lon="-0.91856">
        <ele>-2</ele>
        <time>2018-06-30T18:42:22.000Z</time>
      </trkpt>
      <trkpt lat="45.89743" lon="-0.91854">
        <ele>-2</ele>
        <time>2018-06-30T18:42:23.000Z</time>
      </trkpt>
      <trkpt lat="45.89743" lon="-0.91853">
        <ele>-2</ele>
        <time>2018-06-30T18:42:24.000Z</time>
      </trkpt>
      <trkpt lat="45.89744" lon="-0.91851">
        <ele>-2</ele>
        <time>2018-06-30T18:42:25.000Z</time>
      </trkpt>
      <trkpt lat="45.89744" lon="-0.9185">
        <ele>-2</ele>
        <time>2018-06-30T18:42:26.000Z</time>
      </trkpt>
      <trkpt lat="45.89744" lon="-0.91849">
        <ele>-2</ele>
        <time>2018-06-30T18:42:27.000Z</time>
      </trkpt>
      <trkpt lat="45.89745" lon="-0.91848">
        <ele>-1</ele>
        <time>2018-06-30T18:42:28.000Z</time>
      </trkpt>
      <trkpt lat="45.89745" lon="-0.91847">
        <ele>-1</ele>
        <time>2018-06-30T18:42:29.000Z</time>
      </trkpt>
      <trkpt lat="45.89746" lon="-0.91845">
        <ele>5.9</ele>
        <time>2018-06-30T18:42:30.000Z</time>
      </trkpt>
      <trkpt lat="45.89748" lon="-0.91844">
        <ele>6.1</ele>
        <time>2018-06-30T18:42:31.000Z</time>
      </trkpt>
      <trkpt lat="45.89749" lon="-0.91843">
        <ele>6.2</ele>
        <time>2018-06-30T18:42:32.000Z</time>
      </trkpt>
      <trkpt lat="45.8975" lon="-0.91841">
        <ele>6.4</ele>
        <time>2018-06-30T18:42:33.000Z</time>
      </trkpt>
      <trkpt lat="45.89751" lon="-0.9184">
        <ele>6.4</ele>
        <time>2018-06-30T18:42:34.000Z</time>
      </trkpt>
      <trkpt lat="45.89752" lon="-0.91839">
        <ele>1</ele>
        <time>2018-06-30T18:42:35.000Z</time>
      </trkpt>
      <trkpt lat="45.89752" lon="-0.91837">
        <ele>1</ele>
        <time>2018-06-30T18:42:36.000Z</time>
      </trkpt>
      <trkpt lat="45.89753" lon="-0.91836">
        <ele>1</ele>
        <time>2018-06-30T18:42:37.000Z</time>
      </trkpt>
      <trkpt lat="45.89754" lon="-0.91835">
        <ele>1</ele>
        <time>2018-06-30T18:42:38.000Z</time>
      </trkpt>
      <trkpt lat="45.89755" lon="-0.91833">
        <ele>1</ele>
        <time>2018-06-30T18:42:39.000Z</time>
      </trkpt>
      <trkpt lat="45.89756" lon="-0.91832">
        <ele>1</ele>
        <time>2018-06-30T18:42:40.000Z</time>
      </trkpt>
      <trkpt lat="45.89757" lon="-0.9183">
        <ele>1</ele>
        <time>2018-06-30T18:42:41.000Z</time>
      </trkpt>
      <trkpt lat="45.89758" lon="-0.91829">
        <ele>6.3</ele>
        <time>2018-06-30T18:42:42.000Z</time>
      </trkpt>
      <trkpt lat="45.89758" lon="-0.91828">
        <ele>1</ele>
        <time>2018-06-30T18:42:43.000Z</time>
      </trkpt>
      <trkpt lat="45.89759" lon="-0.91827">
        <ele>1</ele>
        <time>2018-06-30T18:42:44.000Z</time>
      </trkpt>
      <trkpt lat="45.8976" lon="-0.91825">
        <ele>1</ele>
        <time>2018-06-30T18:42:45.000Z</time>
      </trkpt>
      <trkpt lat="45.8976" lon="-0.91824">
        <ele>1</ele>
        <time>2018-06-30T18:42:46.000Z</time>
      </trkpt>
      <trkpt lat="45.89761" lon="-0.91823">
        <ele>2</ele>
        <time>2018-06-30T18:42:47.000Z</time>
      </trkpt>
      <trkpt lat="45.89762" lon="-0.91822">
        <ele>2</ele>
        <time>2018-06-30T18:42:48.000Z</time>
      </trkpt>
      <trkpt lat="45.89763" lon="-0.91821">
        <ele>1</ele>
        <time>2018-06-30T18:42:49.000Z</time>
      </trkpt>
      <trkpt lat="45.89764" lon="-0.91819">
        <ele>1</ele>
        <time>2018-06-30T18:42:50.000Z</time>
      </trkpt>
      <trkpt lat="45.89764" lon="-0.91818">
        <ele>1</ele>
        <time>2018-06-30T18:42:51.000Z</time>
      </trkpt>
      <trkpt lat="45.89765" lon="-0.91816">
        <ele>1</ele>
        <time>2018-06-30T18:42:52.000Z</time>
      </trkpt>
      <trkpt lat="45.89766" lon="-0.91815">
        <ele>1</ele>
        <time>2018-06-30T18:42:53.000Z</time>
      </trkpt>
      <trkpt lat="45.89767" lon="-0.91814">
        <ele>1</ele>
        <time>2018-06-30T18:42:54.000Z</time>
      </trkpt>
      <trkpt lat="45.89768" lon="-0.91812">
        <ele>1</ele>
        <time>2018-06-30T18:42:55.000Z</time>
      </trkpt>
      <trkpt lat="45.89769" lon="-0.91811">
        <ele>1</ele>
        <time>2018-06-30T18:42:56.000Z</time>
      </trkpt>
      <trkpt lat="45.8977" lon="-0.9181">
        <ele>2</ele>
        <time>2018-06-30T18:42:57.000Z</time>
      </trkpt>
      <trkpt lat="45.89771" lon="-0.91809">
        <ele>2</ele>
        <time>2018-06-30T18:42:58.000Z</time>
      </trkpt>
      <trkpt lat="45.89772" lon="-0.91808">
        <ele>2</ele>
        <time>2018-06-30T18:42:59.000Z</time>
      </trkpt>
      <trkpt lat="45.89773" lon="-0.91807">
        <ele>1</ele>
        <time>2018-06-30T18:43:00.000Z</time>
      </trkpt>
      <trkpt lat="45.89774" lon="-0.91806">
        <ele>1</ele>
        <time>2018-06-30T18:43:01.000Z</time>
      </trkpt>
      <trkpt lat="45.89774" lon="-0.91804">
        <ele>1</ele>
        <time>2018-06-30T18:43:02.000Z</time>
      </trkpt>
      <trkpt lat="45.89775" lon="-0.91803">
        <ele>1</ele>
        <time>2018-06-30T18:43:03.000Z</time>
      </trkpt>
      <trkpt lat="45.89776" lon="-0.91801">
        <ele>1</ele>
        <time>2018-06-30T18:43:04.000Z</time>
      </trkpt>
      <trkpt lat="45.89777" lon="-0.91799">
        <ele>1</ele>
        <time>2018-06-30T18:43:05.000Z</time>
      </trkpt>
      <trkpt lat="45.89777" lon="-0.91798">
        <ele>1</ele>
        <time>2018-06-30T18:43:06.000Z</time>
      </trkpt>
      <trkpt lat="45.89778" lon="-0.91797">
        <ele>1</ele>
        <time>2018-06-30T18:43:07.000Z</time>
      </trkpt>
      <trkpt lat="45.89779" lon="-0.91795">
        <ele>5.7</ele>
        <time>2018-06-30T18:43:08.000Z</time>
      </trkpt>
      <trkpt lat="45.89779" lon="-0.91794">
        <ele>5.8</ele>
        <time>2018-06-30T18:43:09.000Z</time>
      </trkpt>
      <trkpt lat="45.8978" lon="-0.91793">
        <ele>5.9</ele>
        <time>2018-06-30T18:43:10.000Z</time>
      </trkpt>
      <trkpt lat="45.8978" lon="-0.91791">
        <ele>6</ele>
        <time>2018-06-30T18:43:11.000Z</time>
      </trkpt>
      <trkpt lat="45.89781" lon="-0.9179">
        <ele>6.1</ele>
        <time>2018-06-30T18:43:12.000Z</time>
      </trkpt>
      <trkpt lat="45.89782" lon="-0.91789">
        <ele>6.2</ele>
        <time>2018-06-30T18:43:13.000Z</time>
      </trkpt>
      <trkpt lat="45.89782" lon="-0.91787">
        <ele>-1</ele>
        <time>2018-06-30T18:43:14.000Z</time>
      </trkpt>
      <trkpt lat="45.89783" lon="-0.91786">
        <ele>-1</ele>
        <time>2018-06-30T18:43:15.000Z</time>
      </trkpt>
      <trkpt lat="45.89783" lon="-0.91785">
        <ele>-1</ele>
        <time>2018-06-30T18:43:16.000Z</time>
      </trkpt>
      <trkpt lat="45.89784" lon="-0.91783">
        <ele>-2</ele>
        <time>2018-06-30T18:43:17.000Z</time>
      </trkpt>
      <trkpt lat="45.89784" lon="-0.91782">
        <ele>-2</ele>
        <time>2018-06-30T18:43:18.000Z</time>
      </trkpt>
      <trkpt lat="45.89785" lon="-0.91781">
        <ele>-2</ele>
        <time>2018-06-30T18:43:19.000Z</time>
      </trkpt>
      <trkpt lat="45.89785" lon="-0.91779">
        <ele>-1</ele>
        <time>2018-06-30T18:43:20.000Z</time>
      </trkpt>
      <trkpt lat="45.89786" lon="-0.91778">
        <ele>-2</ele>
        <time>2018-06-30T18:43:21.000Z</time>
      </trkpt>
      <trkpt lat="45.89787" lon="-0.91777">
        <ele>-2</ele>
        <time>2018-06-30T18:43:22.000Z</time>
      </trkpt>
      <trkpt lat="45.89788" lon="-0.91775">
        <ele>-1</ele>
        <time>2018-06-30T18:43:23.000Z</time>
      </trkpt>
      <trkpt lat="45.89788" lon="-0.91774">
        <ele>-1</ele>
        <time>2018-06-30T18:43:24.000Z</time>
      </trkpt>
      <trkpt lat="45.89789" lon="-0.91773">
        <ele>-1</ele>
        <time>2018-06-30T18:43:25.000Z</time>
      </trkpt>
      <trkpt lat="45.8979" lon="-0.91771">
        <ele>6.8</ele>
        <time>2018-06-30T18:43:26.000Z</time>
      </trkpt>
      <trkpt lat="45.89791" lon="-0.91769">
        <ele>6.8</ele>
        <time>2018-06-30T18:43:27.000Z</time>
      </trkpt>
      <trkpt lat="45.89792" lon="-0.91768">
        <ele>6.9</ele>
        <time>2018-06-30T18:43:28.000Z</time>
      </trkpt>
      <trkpt lat="45.89793" lon="-0.91767">
        <ele>6.9</ele>
        <time>2018-06-30T18:43:29.000Z</time>
      </trkpt>
      <trkpt lat="45.89794" lon="-0.91766">
        <ele>6.9</ele>
        <time>2018-06-30T18:43:30.000Z</time>
      </trkpt>
      <trkpt lat="45.89795" lon="-0.91765">
        <ele>1</ele>
        <time>2018-06-30T18:43:31.000Z</time>
      </trkpt>
      <trkpt lat="45.89796" lon="-0.91763">
        <ele>1</ele>
        <time>2018-06-30T18:43:32.000Z</time>
      </trkpt>
      <trkpt lat="45.89796" lon="-0.91762">
        <ele>1</ele>
        <time>2018-06-30T18:43:33.000Z</time>
      </trkpt>
      <trkpt lat="45.89797" lon="-0.91761">
        <ele>1</ele>
        <time>2018-06-30T18:43:34.000Z</time>
      </trkpt>
      <trkpt lat="45.89798" lon="-0.9176">
        <ele>1</ele>
        <time>2018-06-30T18:43:35.000Z</time>
      </trkpt>
      <trkpt lat="45.89799" lon="-0.91758">
        <ele>2</ele>
        <time>2018-06-30T18:43:36.000Z</time>
      </trkpt>
      <trkpt lat="45.898" lon="-0.91757">
        <ele>2</ele>
        <time>2018-06-30T18:43:37.000Z</time>
      </trkpt>
      <trkpt lat="45.89801" lon="-0.91756">
        <ele>2</ele>
        <time>2018-06-30T18:43:38.000Z</time>
      </trkpt>
      <trkpt lat="45.89801" lon="-0.91755">
        <ele>2</ele>
        <time>2018-06-30T18:43:39.000Z</time>
      </trkpt>
      <trkpt lat="45.89802" lon="-0.91754">
        <ele>2</ele>
        <time>2018-06-30T18:43:40.000Z</time>
      </trkpt>
      <trkpt lat="45.89803" lon="-0.91753">
        <ele>2</ele>
        <time>2018-06-30T18:43:41.000Z</time>
      </trkpt>
      <trkpt lat="45.89803" lon="-0.91752">
        <ele>2</ele>
        <time>2018-06-30T18:43:42.000Z</time>
      </trkpt>
      <trkpt lat="45.89804" lon="-0.91751">
        <ele>2</ele>
        <time>2018-06-30T18:43:43.000Z</time>
      </trkpt>
      <trkpt lat="45.89805" lon="-0.91749">
        <ele>2</ele>
        <time>2018-06-30T18:43:44.000Z</time>
      </trkpt>
      <trkpt lat="45.89806" lon="-0.91748">
        <ele>2</ele>
        <time>2018-06-30T18:43:45.000Z</time>
      </trkpt>
      <trkpt lat="45.89806" lon="-0.91747">
        <ele>2</ele>
        <time>2018-06-30T18:43:46.000Z</time>
      </trkpt>
      <trkpt lat="45.89807" lon="-0.91746">
        <ele>2</ele>
        <time>2018-06-30T18:43:47.000Z</time>
      </trkpt>
      <trkpt lat="45.89808" lon="-0.91745">
        <ele>2</ele>
        <time>2018-06-30T18:43:48.000Z</time>
      </trkpt>
      <trkpt lat="45.89808" lon="-0.91744">
        <ele>2</ele>
        <time>2018-06-30T18:43:49.000Z</time>
      </trkpt>
      <trkpt lat="45.89809" lon="-0.91743">
        <ele>2</ele>
        <time>2018-06-30T18:43:50.000Z</time>
      </trkpt>
      <trkpt lat="45.8981" lon="-0.91742">
        <ele>3</ele>
        <time>2018-06-30T18:43:51.000Z</time>
      </trkpt>
      <trkpt lat="45.89811" lon="-0.91741">
        <ele>2</ele>
        <time>2018-06-30T18:43:52.000Z</time>
      </trkpt>
      <trkpt lat="45.89812" lon="-0.91739">
        <ele>2</ele>
        <time>2018-06-30T18:43:53.000Z</time>
      </trkpt>
      <trkpt lat="45.89812" lon="-0.91738">
        <ele>2</ele>
        <time>2018-06-30T18:43:54.000Z</time>
      </trkpt>
      <trkpt lat="45.89813" lon="-0.91737">
        <ele>3</ele>
        <time>2018-06-30T18:43:55.000Z</time>
      </trkpt>
      <trkpt lat="45.89814" lon="-0.91735">
        <ele>3</ele>
        <time>2018-06-30T18:43:56.000Z</time>
      </trkpt>
      <trkpt lat="45.89814" lon="-0.91734">
        <ele>3</ele>
        <time>2018-06-30T18:43:57.000Z</time>
      </trkpt>
      <trkpt lat="45.89815" lon="-0.91733">
        <ele>3</ele>
        <time>2018-06-30T18:43:58.000Z</time>
      </trkpt>
      <trkpt lat="45.89816" lon="-0.91732">
        <ele>3</ele>
        <time>2018-06-30T18:43:59.000Z</time>
      </trkpt>
      <trkpt lat="45.89817" lon="-0.9173">
        <ele>3</ele>
        <time>2018-06-30T18:44:00.000Z</time>
      </trkpt>
      <trkpt lat="45.89818" lon="-0.91729">
        <ele>3</ele>
        <time>2018-06-30T18:44:01.000Z</time>
      </trkpt>
      <trkpt lat="45.89818" lon="-0.91728">
        <ele>3</ele>
        <time>2018-06-30T18:44:02.000Z</time>
      </trkpt>
      <trkpt lat="45.89819" lon="-0.91727">
        <ele>3</ele>
        <time>2018-06-30T18:44:03.000Z</time>
      </trkpt>
      <trkpt lat="45.8982" lon="-0.91725">
        <ele>3</ele>
        <time>2018-06-30T18:44:04.000Z</time>
      </trkpt>
      <trkpt lat="45.89821" lon="-0.91724">
        <ele>4</ele>
        <time>2018-06-30T18:44:05.000Z</time>
      </trkpt>
      <trkpt lat="45.89822" lon="-0.91723">
        <ele>4</ele>
        <time>2018-06-30T18:44:06.000Z</time>
      </trkpt>
      <trkpt lat="45.89823" lon="-0.91723">
        <ele>4</ele>
        <time>2018-06-30T18:44:07.000Z</time>
      </trkpt>
      <trkpt lat="45.89824" lon="-0.91722">
        <ele>5</ele>
        <time>2018-06-30T18:44:08.000Z</time>
      </trkpt>
      <trkpt lat="45.89826" lon="-0.91721">
        <ele>5</ele>
        <time>2018-06-30T18:44:09.000Z</time>
      </trkpt>
      <trkpt lat="45.89827" lon="-0.9172">
        <ele>5</ele>
        <time>2018-06-30T18:44:10.000Z</time>
      </trkpt>
      <trkpt lat="45.89828" lon="-0.91719">
        <ele>6</ele>
        <time>2018-06-30T18:44:11.000Z</time>
      </trkpt>
      <trkpt lat="45.89829" lon="-0.91718">
        <ele>6</ele>
        <time>2018-06-30T18:44:12.000Z</time>
      </trkpt>
      <trkpt lat="45.89829" lon="-0.91716">
        <ele>6</ele>
        <time>2018-06-30T18:44:13.000Z</time>
      </trkpt>
      <trkpt lat="45.8983" lon="-0.91715">
        <ele>7</ele>
        <time>2018-06-30T18:44:14.000Z</time>
      </trkpt>
      <trkpt lat="45.8983" lon="-0.91713">
        <ele>7</ele>
        <time>2018-06-30T18:44:15.000Z</time>
      </trkpt>
      <trkpt lat="45.89831" lon="-0.91711">
        <ele>7</ele>
        <time>2018-06-30T18:44:16.000Z</time>
      </trkpt>
      <trkpt lat="45.89831" lon="-0.9171">
        <ele>7</ele>
        <time>2018-06-30T18:44:17.000Z</time>
      </trkpt>
      <trkpt lat="45.89831" lon="-0.91709">
        <ele>7</ele>
        <time>2018-06-30T18:44:18.000Z</time>
      </trkpt>
      <trkpt lat="45.89832" lon="-0.91708">
        <ele>7</ele>
        <time>2018-06-30T18:44:19.000Z</time>
      </trkpt>
      <trkpt lat="45.89833" lon="-0.91707">
        <ele>7</ele>
        <time>2018-06-30T18:44:20.000Z</time>
      </trkpt>
      <trkpt lat="45.89833" lon="-0.91705">
        <ele>6</ele>
        <time>2018-06-30T18:44:21.000Z</time>
      </trkpt>
      <trkpt lat="45.89834" lon="-0.91704">
        <ele>6</ele>
        <time>2018-06-30T18:44:22.000Z</time>
      </trkpt>
      <trkpt lat="45.89834" lon="-0.91702">
        <ele>7</ele>
        <time>2018-06-30T18:44:23.000Z</time>
      </trkpt>
      <trkpt lat="45.89835" lon="-0.91701">
        <ele>7</ele>
        <time>2018-06-30T18:44:24.000Z</time>
      </trkpt>
      <trkpt lat="45.89835" lon="-0.917">
        <ele>7</ele>
        <time>2018-06-30T18:44:25.000Z</time>
      </trkpt>
      <trkpt lat="45.89836" lon="-0.91699">
        <ele>7</ele>
        <time>2018-06-30T18:44:26.000Z</time>
      </trkpt>
      <trkpt lat="45.89836" lon="-0.91698">
        <ele>7</ele>
        <time>2018-06-30T18:44:27.000Z</time>
      </trkpt>
      <trkpt lat="45.89837" lon="-0.91697">
        <ele>7</ele>
        <time>2018-06-30T18:44:28.000Z</time>
      </trkpt>
      <trkpt lat="45.89837" lon="-0.91696">
        <ele>6</ele>
        <time>2018-06-30T18:44:29.000Z</time>
      </trkpt>
      <trkpt lat="45.89838" lon="-0.91695">
        <ele>7</ele>
        <time>2018-06-30T18:44:30.000Z</time>
      </trkpt>
      <trkpt lat="45.89839" lon="-0.91694">
        <ele>7</ele>
        <time>2018-06-30T18:44:31.000Z</time>
      </trkpt>
      <trkpt lat="45.89839" lon="-0.91693">
        <ele>7</ele>
        <time>2018-06-30T18:44:32.000Z</time>
      </trkpt>
      <trkpt lat="45.89841" lon="-0.91692">
        <ele>8</ele>
        <time>2018-06-30T18:44:33.000Z</time>
      </trkpt>
      <trkpt lat="45.89842" lon="-0.91692">
        <ele>8</ele>
        <time>2018-06-30T18:44:34.000Z</time>
      </trkpt>
      <trkpt lat="45.89843" lon="-0.91691">
        <ele>8</ele>
        <time>2018-06-30T18:44:35.000Z</time>
      </trkpt>
      <trkpt lat="45.89843" lon="-0.91689">
        <ele>8</ele>
        <time>2018-06-30T18:44:36.000Z</time>
      </trkpt>
      <trkpt lat="45.89843" lon="-0.91688">
        <ele>7</ele>
        <time>2018-06-30T18:44:37.000Z</time>
      </trkpt>
      <trkpt lat="45.89843" lon="-0.91687">
        <ele>7</ele>
        <time>2018-06-30T18:44:38.000Z</time>
      </trkpt>
      <trkpt lat="45.89843" lon="-0.91686">
        <ele>6</ele>
        <time>2018-06-30T18:44:39.000Z</time>
      </trkpt>
      <trkpt lat="45.89843" lon="-0.91685">
        <ele>6</ele>
        <time>2018-06-30T18:44:40.000Z</time>
      </trkpt>
      <trkpt lat="45.89843" lon="-0.91684">
        <ele>6</ele>
        <time>2018-06-30T18:44:41.000Z</time>
      </trkpt>
      <trkpt lat="45.89844" lon="-0.91683">
        <ele>6</ele>
        <time>2018-06-30T18:44:42.000Z</time>
      </trkpt>
      <trkpt lat="45.89844" lon="-0.91683">
        <ele>6</ele>
        <time>2018-06-30T18:44:43.000Z</time>
      </trkpt>
      <trkpt lat="45.89844" lon="-0.91682">
        <ele>5</ele>
        <time>2018-06-30T18:44:44.000Z</time>
      </trkpt>
      <trkpt lat="45.89845" lon="-0.9168">
        <ele>5</ele>
        <time>2018-06-30T18:44:45.000Z</time>
      </trkpt>
      <trkpt lat="45.89846" lon="-0.91679">
        <ele>5</ele>
        <time>2018-06-30T18:44:46.000Z</time>
      </trkpt>
      <trkpt lat="45.89846" lon="-0.91678">
        <ele>5</ele>
        <time>2018-06-30T18:44:47.000Z</time>
      </trkpt>
      <trkpt lat="45.89847" lon="-0.91677">
        <ele>5</ele>
        <time>2018-06-30T18:44:48.000Z</time>
      </trkpt>
      <trkpt lat="45.89847" lon="-0.91676">
        <ele>4</ele>
        <time>2018-06-30T18:44:49.000Z</time>
      </trkpt>
      <trkpt lat="45.89848" lon="-0.91675">
        <ele>4</ele>
        <time>2018-06-30T18:44:50.000Z</time>
      </trkpt>
      <trkpt lat="45.89848" lon="-0.91674">
        <ele>4</ele>
        <time>2018-06-30T18:44:51.000Z</time>
      </trkpt>
      <trkpt lat="45.89849" lon="-0.91673">
        <ele>4</ele>
        <time>2018-06-30T18:44:52.000Z</time>
      </trkpt>
      <trkpt lat="45.8985" lon="-0.91672">
        <ele>4</ele>
        <time>2018-06-30T18:44:53.000Z</time>
      </trkpt>
      <trkpt lat="45.8985" lon="-0.91671">
        <ele>4</ele>
        <time>2018-06-30T18:44:54.000Z</time>
      </trkpt>
      <trkpt lat="45.89851" lon="-0.91669">
        <ele>4</ele>
        <time>2018-06-30T18:44:55.000Z</time>
      </trkpt>
      <trkpt lat="45.89851" lon="-0.91668">
        <ele>3</ele>
        <time>2018-06-30T18:44:56.000Z</time>
      </trkpt>
      <trkpt lat="45.89852" lon="-0.91667">
        <ele>3</ele>
        <time>2018-06-30T18:44:57.000Z</time>
      </trkpt>
      <trkpt lat="45.89853" lon="-0.91666">
        <ele>3</ele>
        <time>2018-06-30T18:44:58.000Z</time>
      </trkpt>
      <trkpt lat="45.89853" lon="-0.91665">
        <ele>3</ele>
        <time>2018-06-30T18:44:59.000Z</time>
      </trkpt>
      <trkpt lat="45.89854" lon="-0.91664">
        <ele>3</ele>
        <time>2018-06-30T18:45:00.000Z</time>
      </trkpt>
      <trkpt lat="45.89855" lon="-0.91663">
        <ele>3</ele>
        <time>2018-06-30T18:45:01.000Z</time>
      </trkpt>
      <trkpt lat="45.89855" lon="-0.91662">
        <ele>3</ele>
        <time>2018-06-30T18:45:02.000Z</time>
      </trkpt>
      <trkpt lat="45.89856" lon="-0.91661">
        <ele>3</ele>
        <time>2018-06-30T18:45:03.000Z</time>
      </trkpt>
      <trkpt lat="45.89857" lon="-0.9166">
        <ele>3</ele>
        <time>2018-06-30T18:45:04.000Z</time>
      </trkpt>
      <trkpt lat="45.89858" lon="-0.91659">
        <ele>3</ele>
        <time>2018-06-30T18:45:05.000Z</time>
      </trkpt>
      <trkpt lat="45.89858" lon="-0.91657">
        <ele>3</ele>
        <time>2018-06-30T18:45:06.000Z</time>
      </trkpt>
      <trkpt lat="45.89859" lon="-0.91656">
        <ele>4</ele>
        <time>2018-06-30T18:45:07.000Z</time>
      </trkpt>
      <trkpt lat="45.8986" lon="-0.91655">
        <ele>4</ele>
        <time>2018-06-30T18:45:08.000Z</time>
      </trkpt>
      <trkpt lat="45.89861" lon="-0.91654">
        <ele>3</ele>
        <time>2018-06-30T18:45:09.000Z</time>
      </trkpt>
      <trkpt lat="45.89862" lon="-0.91653">
        <ele>3</ele>
        <time>2018-06-30T18:45:10.000Z</time>
      </trkpt>
      <trkpt lat="45.89862" lon="-0.91652">
        <ele>3</ele>
        <time>2018-06-30T18:45:11.000Z</time>
      </trkpt>
      <trkpt lat="45.89863" lon="-0.9165">
        <ele>3</ele>
        <time>2018-06-30T18:45:12.000Z</time>
      </trkpt>
      <trkpt lat="45.89863" lon="-0.91649">
        <ele>3</ele>
        <time>2018-06-30T18:45:13.000Z</time>
      </trkpt>
      <trkpt lat="45.89864" lon="-0.91648">
        <ele>4</ele>
        <time>2018-06-30T18:45:14.000Z</time>
      </trkpt>
      <trkpt lat="45.89865" lon="-0.91647">
        <ele>4</ele>
        <time>2018-06-30T18:45:15.000Z</time>
      </trkpt>
      <trkpt lat="45.89866" lon="-0.91645">
        <ele>4</ele>
        <time>2018-06-30T18:45:16.000Z</time>
      </trkpt>
      <trkpt lat="45.89867" lon="-0.91644">
        <ele>4</ele>
        <time>2018-06-30T18:45:17.000Z</time>
      </trkpt>
      <trkpt lat="45.89868" lon="-0.91643">
        <ele>4</ele>
        <time>2018-06-30T18:45:18.000Z</time>
      </trkpt>
      <trkpt lat="45.89868" lon="-0.91642">
        <ele>4</ele>
        <time>2018-06-30T18:45:19.000Z</time>
      </trkpt>
      <trkpt lat="45.89869" lon="-0.91641">
        <ele>4</ele>
        <time>2018-06-30T18:45:20.000Z</time>
      </trkpt>
      <trkpt lat="45.8987" lon="-0.9164">
        <ele>3</ele>
        <time>2018-06-30T18:45:21.000Z</time>
      </trkpt>
      <trkpt lat="45.89871" lon="-0.91639">
        <ele>3</ele>
        <time>2018-06-30T18:45:22.000Z</time>
      </trkpt>
      <trkpt lat="45.89871" lon="-0.91637">
        <ele>3</ele>
        <time>2018-06-30T18:45:23.000Z</time>
      </trkpt>
      <trkpt lat="45.89872" lon="-0.91636">
        <ele>4</ele>
        <time>2018-06-30T18:45:24.000Z</time>
      </trkpt>
      <trkpt lat="45.89873" lon="-0.91635">
        <ele>4</ele>
        <time>2018-06-30T18:45:25.000Z</time>
      </trkpt>
      <trkpt lat="45.89874" lon="-0.91634">
        <ele>4</ele>
        <time>2018-06-30T18:45:26.000Z</time>
      </trkpt>
      <trkpt lat="45.89875" lon="-0.91632">
        <ele>4</ele>
        <time>2018-06-30T18:45:27.000Z</time>
      </trkpt>
      <trkpt lat="45.89875" lon="-0.91631">
        <ele>4</ele>
        <time>2018-06-30T18:45:28.000Z</time>
      </trkpt>
      <trkpt lat="45.89876" lon="-0.9163">
        <ele>4</ele>
        <time>2018-06-30T18:45:29.000Z</time>
      </trkpt>
      <trkpt lat="45.89877" lon="-0.91629">
        <ele>5</ele>
        <time>2018-06-30T18:45:30.000Z</time>
      </trkpt>
      <trkpt lat="45.89878" lon="-0.91627">
        <ele>5</ele>
        <time>2018-06-30T18:45:31.000Z</time>
      </trkpt>
      <trkpt lat="45.89879" lon="-0.91626">
        <ele>5</ele>
        <time>2018-06-30T18:45:32.000Z</time>
      </trkpt>
      <trkpt lat="45.89879" lon="-0.91625">
        <ele>5</ele>
        <time>2018-06-30T18:45:33.000Z</time>
      </trkpt>
      <trkpt lat="45.8988" lon="-0.91624">
        <ele>5</ele>
        <time>2018-06-30T18:45:34.000Z</time>
      </trkpt>
      <trkpt lat="45.89881" lon="-0.91623">
        <ele>5</ele>
        <time>2018-06-30T18:45:35.000Z</time>
      </trkpt>
      <trkpt lat="45.89882" lon="-0.91622">
        <ele>5</ele>
        <time>2018-06-30T18:45:36.000Z</time>
      </trkpt>
      <trkpt lat="45.89883" lon="-0.9162">
        <ele>5</ele>
        <time>2018-06-30T18:45:37.000Z</time>
      </trkpt>
      <trkpt lat="45.89883" lon="-0.91619">
        <ele>5</ele>
        <time>2018-06-30T18:45:38.000Z</time>
      </trkpt>
      <trkpt lat="45.89884" lon="-0.91618">
        <ele>5</ele>
        <time>2018-06-30T18:45:39.000Z</time>
      </trkpt>
      <trkpt lat="45.89885" lon="-0.91617">
        <ele>5</ele>
        <time>2018-06-30T18:45:40.000Z</time>
      </trkpt>
      <trkpt lat="45.89886" lon="-0.91616">
        <ele>5</ele>
        <time>2018-06-30T18:45:41.000Z</time>
      </trkpt>
      <trkpt lat="45.89886" lon="-0.91615">
        <ele>5</ele>
        <time>2018-06-30T18:45:42.000Z</time>
      </trkpt>
      <trkpt lat="45.89887" lon="-0.91614">
        <ele>5</ele>
        <time>2018-06-30T18:45:43.000Z</time>
      </trkpt>
      <trkpt lat="45.89888" lon="-0.91613">
        <ele>5</ele>
        <time>2018-06-30T18:45:44.000Z</time>
      </trkpt>
      <trkpt lat="45.89888" lon="-0.91612">
        <ele>5</ele>
        <time>2018-06-30T18:45:45.000Z</time>
      </trkpt>
      <trkpt lat="45.89889" lon="-0.9161">
        <ele>5</ele>
        <time>2018-06-30T18:45:46.000Z</time>
      </trkpt>
      <trkpt lat="45.8989" lon="-0.91609">
        <ele>5</ele>
        <time>2018-06-30T18:45:47.000Z</time>
      </trkpt>
      <trkpt lat="45.8989" lon="-0.91608">
        <ele>5</ele>
        <time>2018-06-30T18:45:48.000Z</time>
      </trkpt>
      <trkpt lat="45.89891" lon="-0.91607">
        <ele>5</ele>
        <time>2018-06-30T18:45:49.000Z</time>
      </trkpt>
      <trkpt lat="45.89892" lon="-0.91606">
        <ele>5</ele>
        <time>2018-06-30T18:45:50.000Z</time>
      </trkpt>
      <trkpt lat="45.89893" lon="-0.91605">
        <ele>5</ele>
        <time>2018-06-30T18:45:51.000Z</time>
      </trkpt>
      <trkpt lat="45.89893" lon="-0.91604">
        <ele>5</ele>
        <time>2018-06-30T18:45:52.000Z</time>
      </trkpt>
      <trkpt lat="45.89894" lon="-0.91602">
        <ele>5</ele>
        <time>2018-06-30T18:45:53.000Z</time>
      </trkpt>
      <trkpt lat="45.89894" lon="-0.91601">
        <ele>5</ele>
        <time>2018-06-30T18:45:54.000Z</time>
      </trkpt>
      <trkpt lat="45.89895" lon="-0.916">
        <ele>5</ele>
        <time>2018-06-30T18:45:55.000Z</time>
      </trkpt>
      <trkpt lat="45.89896" lon="-0.91599">
        <ele>5</ele>
        <time>2018-06-30T18:45:56.000Z</time>
      </trkpt>
      <trkpt lat="45.89897" lon="-0.91598">
        <ele>5</ele>
        <time>2018-06-30T18:45:57.000Z</time>
      </trkpt>
      <trkpt lat="45.89898" lon="-0.91597">
        <ele>5</ele>
        <time>2018-06-30T18:45:58.000Z</time>
      </trkpt>
      <trkpt lat="45.89898" lon="-0.91596">
        <ele>5</ele>
        <time>2018-06-30T18:45:59.000Z</time>
      </trkpt>
      <trkpt lat="45.89899" lon="-0.91595">
        <ele>5</ele>
        <time>2018-06-30T18:46:00.000Z</time>
      </trkpt>
      <trkpt lat="45.899" lon="-0.91593">
        <ele>4</ele>
        <time>2018-06-30T18:46:01.000Z</time>
      </trkpt>
      <trkpt lat="45.89901" lon="-0.91592">
        <ele>4</ele>
        <time>2018-06-30T18:46:02.000Z</time>
      </trkpt>
      <trkpt lat="45.89901" lon="-0.91591">
        <ele>4</ele>
        <time>2018-06-30T18:46:03.000Z</time>
      </trkpt>
      <trkpt lat="45.89902" lon="-0.9159">
        <ele>4</ele>
        <time>2018-06-30T18:46:04.000Z</time>
      </trkpt>
      <trkpt lat="45.89903" lon="-0.91589">
        <ele>4</ele>
        <time>2018-06-30T18:46:05.000Z</time>
      </trkpt>
      <trkpt lat="45.89903" lon="-0.91588">
        <ele>4</ele>
        <time>2018-06-30T18:46:06.000Z</time>
      </trkpt>
      <trkpt lat="45.89904" lon="-0.91587">
        <ele>4</ele>
        <time>2018-06-30T18:46:07.000Z</time>
      </trkpt>
      <trkpt lat="45.89905" lon="-0.91585">
        <ele>4</ele>
        <time>2018-06-30T18:46:08.000Z</time>
      </trkpt>
      <trkpt lat="45.89906" lon="-0.91584">
        <ele>4</ele>
        <time>2018-06-30T18:46:09.000Z</time>
      </trkpt>
      <trkpt lat="45.89906" lon="-0.91583">
        <ele>4</ele>
        <time>2018-06-30T18:46:10.000Z</time>
      </trkpt>
      <trkpt lat="45.89907" lon="-0.91582">
        <ele>3</ele>
        <time>2018-06-30T18:46:11.000Z</time>
      </trkpt>
      <trkpt lat="45.89908" lon="-0.91581">
        <ele>4</ele>
        <time>2018-06-30T18:46:12.000Z</time>
      </trkpt>
      <trkpt lat="45.89909" lon="-0.9158">
        <ele>3</ele>
        <time>2018-06-30T18:46:13.000Z</time>
      </trkpt>
      <trkpt lat="45.89909" lon="-0.91579">
        <ele>3</ele>
        <time>2018-06-30T18:46:14.000Z</time>
      </trkpt>
      <trkpt lat="45.8991" lon="-0.91578">
        <ele>4</ele>
        <time>2018-06-30T18:46:15.000Z</time>
      </trkpt>
      <trkpt lat="45.89911" lon="-0.91576">
        <ele>3</ele>
        <time>2018-06-30T18:46:16.000Z</time>
      </trkpt>
      <trkpt lat="45.89911" lon="-0.91575">
        <ele>3</ele>
        <time>2018-06-30T18:46:17.000Z</time>
      </trkpt>
      <trkpt lat="45.89912" lon="-0.91574">
        <ele>4</ele>
        <time>2018-06-30T18:46:18.000Z</time>
      </trkpt>
      <trkpt lat="45.89913" lon="-0.91573">
        <ele>4</ele>
        <time>2018-06-30T18:46:19.000Z</time>
      </trkpt>
      <trkpt lat="45.89914" lon="-0.91572">
        <ele>4</ele>
        <time>2018-06-30T18:46:20.000Z</time>
      </trkpt>
      <trkpt lat="45.89914" lon="-0.9157">
        <ele>4</ele>
        <time>2018-06-30T18:46:21.000Z</time>
      </trkpt>
      <trkpt lat="45.89915" lon="-0.91569">
        <ele>4</ele>
        <time>2018-06-30T18:46:22.000Z</time>
      </trkpt>
      <trkpt lat="45.89916" lon="-0.91568">
        <ele>4</ele>
        <time>2018-06-30T18:46:23.000Z</time>
      </trkpt>
      <trkpt lat="45.89916" lon="-0.91566">
        <ele>4</ele>
        <time>2018-06-30T18:46:24.000Z</time>
      </trkpt>
      <trkpt lat="45.89917" lon="-0.91565">
        <ele>4</ele>
        <time>2018-06-30T18:46:25.000Z</time>
      </trkpt>
      <trkpt lat="45.89917" lon="-0.91563">
        <ele>4</ele>
        <time>2018-06-30T18:46:26.000Z</time>
      </trkpt>
      <trkpt lat="45.89918" lon="-0.91562">
        <ele>3</ele>
        <time>2018-06-30T18:46:27.000Z</time>
      </trkpt>
      <trkpt lat="45.89918" lon="-0.9156">
        <ele>3</ele>
        <time>2018-06-30T18:46:28.000Z</time>
      </trkpt>
      <trkpt lat="45.89919" lon="-0.91559">
        <ele>3</ele>
        <time>2018-06-30T18:46:29.000Z</time>
      </trkpt>
      <trkpt lat="45.89919" lon="-0.91558">
        <ele>3</ele>
        <time>2018-06-30T18:46:30.000Z</time>
      </trkpt>
      <trkpt lat="45.8992" lon="-0.91557">
        <ele>2</ele>
        <time>2018-06-30T18:46:31.000Z</time>
      </trkpt>
      <trkpt lat="45.8992" lon="-0.91556">
        <ele>2</ele>
        <time>2018-06-30T18:46:32.000Z</time>
      </trkpt>
      <trkpt lat="45.89921" lon="-0.91555">
        <ele>2</ele>
        <time>2018-06-30T18:46:33.000Z</time>
      </trkpt>
      <trkpt lat="45.89921" lon="-0.91554">
        <ele>1</ele>
        <time>2018-06-30T18:46:34.000Z</time>
      </trkpt>
      <trkpt lat="45.89922" lon="-0.91553">
        <ele>1</ele>
        <time>2018-06-30T18:46:35.000Z</time>
      </trkpt>
      <trkpt lat="45.89922" lon="-0.91552">
        <ele>1</ele>
        <time>2018-06-30T18:46:36.000Z</time>
      </trkpt>
      <trkpt lat="45.89923" lon="-0.91551">
        <ele>1</ele>
        <time>2018-06-30T18:46:37.000Z</time>
      </trkpt>
      <trkpt lat="45.89923" lon="-0.91551">
        <ele>1</ele>
        <time>2018-06-30T18:46:38.000Z</time>
      </trkpt>
      <trkpt lat="45.89923" lon="-0.9155">
        <ele>1</ele>
        <time>2018-06-30T18:46:39.000Z</time>
      </trkpt>
      <trkpt lat="45.89924" lon="-0.91549">
        <ele>1</ele>
        <time>2018-06-30T18:46:40.000Z</time>
      </trkpt>
      <trkpt lat="45.89924" lon="-0.91548">
        <ele>1</ele>
        <time>2018-06-30T18:46:41.000Z</time>
      </trkpt>
      <trkpt lat="45.89925" lon="-0.91548">
        <ele>1</ele>
        <time>2018-06-30T18:46:42.000Z</time>
      </trkpt>
      <trkpt lat="45.89926" lon="-0.91547">
        <ele>2</ele>
        <time>2018-06-30T18:46:43.000Z</time>
      </trkpt>
      <trkpt lat="45.89926" lon="-0.91546">
        <ele>2</ele>
        <time>2018-06-30T18:46:44.000Z</time>
      </trkpt>
      <trkpt lat="45.89927" lon="-0.91545">
        <ele>2</ele>
        <time>2018-06-30T18:46:45.000Z</time>
      </trkpt>
      <trkpt lat="45.89928" lon="-0.91544">
        <ele>2</ele>
        <time>2018-06-30T18:46:46.000Z</time>
      </trkpt>
      <trkpt lat="45.89928" lon="-0.91543">
        <ele>2</ele>
        <time>2018-06-30T18:46:47.000Z</time>
      </trkpt>
      <trkpt lat="45.89929" lon="-0.91542">
        <ele>2</ele>
        <time>2018-06-30T18:46:48.000Z</time>
      </trkpt>
      <trkpt lat="45.8993" lon="-0.91541">
        <ele>3</ele>
        <time>2018-06-30T18:46:49.000Z</time>
      </trkpt>
      <trkpt lat="45.8993" lon="-0.91539">
        <ele>2</ele>
        <time>2018-06-30T18:46:50.000Z</time>
      </trkpt>
      <trkpt lat="45.89931" lon="-0.91538">
        <ele>3</ele>
        <time>2018-06-30T18:46:51.000Z</time>
      </trkpt>
      <trkpt lat="45.89932" lon="-0.91537">
        <ele>3</ele>
        <time>2018-06-30T18:46:52.000Z</time>
      </trkpt>
      <trkpt lat="45.89933" lon="-0.91536">
        <ele>3</ele>
        <time>2018-06-30T18:46:53.000Z</time>
      </trkpt>
      <trkpt lat="45.89934" lon="-0.91534">
        <ele>3</ele>
        <time>2018-06-30T18:46:54.000Z</time>
      </trkpt>
      <trkpt lat="45.89934" lon="-0.91532">
        <ele>3</ele>
        <time>2018-06-30T18:46:55.000Z</time>
      </trkpt>
      <trkpt lat="45.89935" lon="-0.91531">
        <ele>4</ele>
        <time>2018-06-30T18:46:56.000Z</time>
      </trkpt>
      <trkpt lat="45.89936" lon="-0.9153">
        <ele>4</ele>
        <time>2018-06-30T18:46:57.000Z</time>
      </trkpt>
      <trkpt lat="45.89937" lon="-0.91528">
        <ele>4</ele>
        <time>2018-06-30T18:46:58.000Z</time>
      </trkpt>
      <trkpt lat="45.89938" lon="-0.91527">
        <ele>4</ele>
        <time>2018-06-30T18:46:59.000Z</time>
      </trkpt>
      <trkpt lat="45.89938" lon="-0.91525">
        <ele>4</ele>
        <time>2018-06-30T18:47:00.000Z</time>
      </trkpt>
      <trkpt lat="45.89939" lon="-0.91524">
        <ele>4</ele>
        <time>2018-06-30T18:47:01.000Z</time>
      </trkpt>
      <trkpt lat="45.8994" lon="-0.91523">
        <ele>4</ele>
        <time>2018-06-30T18:47:02.000Z</time>
      </trkpt>
      <trkpt lat="45.89941" lon="-0.91521">
        <ele>4</ele>
        <time>2018-06-30T18:47:03.000Z</time>
      </trkpt>
      <trkpt lat="45.89941" lon="-0.91519">
        <ele>4</ele>
        <time>2018-06-30T18:47:04.000Z</time>
      </trkpt>
      <trkpt lat="45.89942" lon="-0.91518">
        <ele>4</ele>
        <time>2018-06-30T18:47:05.000Z</time>
      </trkpt>
      <trkpt lat="45.89943" lon="-0.91516">
        <ele>5</ele>
        <time>2018-06-30T18:47:06.000Z</time>
      </trkpt>
      <trkpt lat="45.89944" lon="-0.91515">
        <ele>5</ele>
        <time>2018-06-30T18:47:07.000Z</time>
      </trkpt>
      <trkpt lat="45.89945" lon="-0.91513">
        <ele>6</ele>
        <time>2018-06-30T18:47:08.000Z</time>
      </trkpt>
      <trkpt lat="45.89946" lon="-0.91511">
        <ele>6</ele>
        <time>2018-06-30T18:47:09.000Z</time>
      </trkpt>
      <trkpt lat="45.89948" lon="-0.9151">
        <ele>6</ele>
        <time>2018-06-30T18:47:10.000Z</time>
      </trkpt>
      <trkpt lat="45.89949" lon="-0.91508">
        <ele>6</ele>
        <time>2018-06-30T18:47:11.000Z</time>
      </trkpt>
      <trkpt lat="45.8995" lon="-0.91507">
        <ele>7</ele>
        <time>2018-06-30T18:47:12.000Z</time>
      </trkpt>
      <trkpt lat="45.89951" lon="-0.91505">
        <ele>7</ele>
        <time>2018-06-30T18:47:13.000Z</time>
      </trkpt>
      <trkpt lat="45.89952" lon="-0.91504">
        <ele>7</ele>
        <time>2018-06-30T18:47:14.000Z</time>
      </trkpt>
      <trkpt lat="45.89952" lon="-0.91502">
        <ele>7</ele>
        <time>2018-06-30T18:47:15.000Z</time>
      </trkpt>
      <trkpt lat="45.89953" lon="-0.91501">
        <ele>6</ele>
        <time>2018-06-30T18:47:16.000Z</time>
      </trkpt>
      <trkpt lat="45.89954" lon="-0.91499">
        <ele>6</ele>
        <time>2018-06-30T18:47:17.000Z</time>
      </trkpt>
      <trkpt lat="45.89956" lon="-0.91498">
        <ele>6</ele>
        <time>2018-06-30T18:47:18.000Z</time>
      </trkpt>
      <trkpt lat="45.89957" lon="-0.91497">
        <ele>6</ele>
        <time>2018-06-30T18:47:19.000Z</time>
      </trkpt>
      <trkpt lat="45.89958" lon="-0.91495">
        <ele>6</ele>
        <time>2018-06-30T18:47:20.000Z</time>
      </trkpt>
      <trkpt lat="45.89959" lon="-0.91494">
        <ele>6</ele>
        <time>2018-06-30T18:47:21.000Z</time>
      </trkpt>
      <trkpt lat="45.8996" lon="-0.91492">
        <ele>6</ele>
        <time>2018-06-30T18:47:22.000Z</time>
      </trkpt>
      <trkpt lat="45.89961" lon="-0.91491">
        <ele>6</ele>
        <time>2018-06-30T18:47:23.000Z</time>
      </trkpt>
      <trkpt lat="45.89962" lon="-0.91489">
        <ele>5</ele>
        <time>2018-06-30T18:47:24.000Z</time>
      </trkpt>
      <trkpt lat="45.89963" lon="-0.91487">
        <ele>5</ele>
        <time>2018-06-30T18:47:25.000Z</time>
      </trkpt>
      <trkpt lat="45.89963" lon="-0.91486">
        <ele>6</ele>
        <time>2018-06-30T18:47:26.000Z</time>
      </trkpt>
      <trkpt lat="45.89964" lon="-0.91484">
        <ele>6</ele>
        <time>2018-06-30T18:47:27.000Z</time>
      </trkpt>
      <trkpt lat="45.89965" lon="-0.91482">
        <ele>6</ele>
        <time>2018-06-30T18:47:28.000Z</time>
      </trkpt>
      <trkpt lat="45.89966" lon="-0.91481">
        <ele>6</ele>
        <time>2018-06-30T18:47:29.000Z</time>
      </trkpt>
      <trkpt lat="45.89967" lon="-0.9148">
        <ele>8</ele>
        <time>2018-06-30T18:47:30.000Z</time>
      </trkpt>
      <trkpt lat="45.89967" lon="-0.9148">
        <ele>9</ele>
        <time>2018-06-30T18:47:31.000Z</time>
      </trkpt>
      <trkpt lat="45.89967" lon="-0.9148">
        <ele>9</ele>
        <time>2018-06-30T18:47:32.000Z</time>
      </trkpt>
      <trkpt lat="45.89967" lon="-0.9148">
        <ele>9</ele>
        <time>2018-06-30T18:47:33.000Z</time>
      </trkpt>
      <trkpt lat="45.89967" lon="-0.9148">
        <ele>9</ele>
        <time>2018-06-30T18:47:34.000Z</time>
      </trkpt>
      <trkpt lat="45.89968" lon="-0.9148">
        <ele>9</ele>
        <time>2018-06-30T18:47:35.000Z</time>
      </trkpt>
      <trkpt lat="45.89968" lon="-0.91481">
        <ele>9</ele>
        <time>2018-06-30T18:47:36.000Z</time>
      </trkpt>
      <trkpt lat="45.89968" lon="-0.91481">
        <ele>10</ele>
        <time>2018-06-30T18:47:37.000Z</time>
      </trkpt>
      <trkpt lat="45.89968" lon="-0.91481">
        <ele>10</ele>
        <time>2018-06-30T18:47:38.000Z</time>
      </trkpt>
      <trkpt lat="45.89968" lon="-0.91481">
        <ele>10</ele>
        <time>2018-06-30T18:47:39.000Z</time>
      </trkpt>
      <trkpt lat="45.89968" lon="-0.91481">
        <ele>10</ele>
        <time>2018-06-30T18:47:40.000Z</time>
      </trkpt>
      <trkpt lat="45.89968" lon="-0.91481">
        <ele>10</ele>
        <time>2018-06-30T18:47:41.000Z</time>
      </trkpt>
      <trkpt lat="45.89968" lon="-0.91481">
        <ele>10</ele>
        <time>2018-06-30T18:47:42.000Z</time>
      </trkpt>
      <trkpt lat="45.89968" lon="-0.91481">
        <ele>10</ele>
        <time>2018-06-30T18:47:43.000Z</time>
      </trkpt>
      <trkpt lat="45.89968" lon="-0.9148">
        <ele>10</ele>
        <time>2018-06-30T18:47:44.000Z</time>
      </trkpt>
      <trkpt lat="45.89969" lon="-0.9148">
        <ele>10</ele>
        <time>2018-06-30T18:47:45.000Z</time>
      </trkpt>
      <trkpt lat="45.89969" lon="-0.91479">
        <ele>9</ele>
        <time>2018-06-30T18:47:46.000Z</time>
      </trkpt>
      <trkpt lat="45.8997" lon="-0.91478">
        <ele>9</ele>
        <time>2018-06-30T18:47:47.000Z</time>
      </trkpt>
      <trkpt lat="45.8997" lon="-0.91477">
        <ele>9</ele>
        <time>2018-06-30T18:47:48.000Z</time>
      </trkpt>
      <trkpt lat="45.89971" lon="-0.91475">
        <ele>9</ele>
        <time>2018-06-30T18:47:49.000Z</time>
      </trkpt>
      <trkpt lat="45.89972" lon="-0.91474">
        <ele>8</ele>
        <time>2018-06-30T18:47:50.000Z</time>
      </trkpt>
      <trkpt lat="45.89972" lon="-0.91473">
        <ele>8</ele>
        <time>2018-06-30T18:47:51.000Z</time>
      </trkpt>
      <trkpt lat="45.89973" lon="-0.91472">
        <ele>8</ele>
        <time>2018-06-30T18:47:52.000Z</time>
      </trkpt>
      <trkpt lat="45.89974" lon="-0.91471">
        <ele>7</ele>
        <time>2018-06-30T18:47:53.000Z</time>
      </trkpt>
      <trkpt lat="45.89975" lon="-0.91469">
        <ele>7</ele>
        <time>2018-06-30T18:47:54.000Z</time>
      </trkpt>
      <trkpt lat="45.89976" lon="-0.91468">
        <ele>7</ele>
        <time>2018-06-30T18:47:55.000Z</time>
      </trkpt>
      <trkpt lat="45.89976" lon="-0.91466">
        <ele>7</ele>
        <time>2018-06-30T18:47:56.000Z</time>
      </trkpt>
      <trkpt lat="45.89977" lon="-0.91465">
        <ele>7</ele>
        <time>2018-06-30T18:47:57.000Z</time>
      </trkpt>
      <trkpt lat="45.89978" lon="-0.91464">
        <ele>7</ele>
        <time>2018-06-30T18:47:58.000Z</time>
      </trkpt>
      <trkpt lat="45.89978" lon="-0.91462">
        <ele>6</ele>
        <time>2018-06-30T18:47:59.000Z</time>
      </trkpt>
      <trkpt lat="45.89979" lon="-0.91461">
        <ele>6</ele>
        <time>2018-06-30T18:48:00.000Z</time>
      </trkpt>
      <trkpt lat="45.8998" lon="-0.9146">
        <ele>6</ele>
        <time>2018-06-30T18:48:01.000Z</time>
      </trkpt>
      <trkpt lat="45.8998" lon="-0.91459">
        <ele>6</ele>
        <time>2018-06-30T18:48:02.000Z</time>
      </trkpt>
      <trkpt lat="45.89981" lon="-0.91457">
        <ele>5</ele>
        <time>2018-06-30T18:48:03.000Z</time>
      </trkpt>
      <trkpt lat="45.89981" lon="-0.91456">
        <ele>5</ele>
        <time>2018-06-30T18:48:04.000Z</time>
      </trkpt>
      <trkpt lat="45.89982" lon="-0.91455">
        <ele>5</ele>
        <time>2018-06-30T18:48:05.000Z</time>
      </trkpt>
      <trkpt lat="45.89983" lon="-0.91454">
        <ele>5</ele>
        <time>2018-06-30T18:48:06.000Z</time>
      </trkpt>
      <trkpt lat="45.89983" lon="-0.91452">
        <ele>5</ele>
        <time>2018-06-30T18:48:07.000Z</time>
      </trkpt>
      <trkpt lat="45.89984" lon="-0.91451">
        <ele>5</ele>
        <time>2018-06-30T18:48:08.000Z</time>
      </trkpt>
      <trkpt lat="45.89984" lon="-0.9145">
        <ele>5</ele>
        <time>2018-06-30T18:48:09.000Z</time>
      </trkpt>
      <trkpt lat="45.89985" lon="-0.91449">
        <ele>5</ele>
        <time>2018-06-30T18:48:10.000Z</time>
      </trkpt>
      <trkpt lat="45.89986" lon="-0.91447">
        <ele>5</ele>
        <time>2018-06-30T18:48:11.000Z</time>
      </trkpt>
      <trkpt lat="45.89986" lon="-0.91446">
        <ele>5</ele>
        <time>2018-06-30T18:48:12.000Z</time>
      </trkpt>
      <trkpt lat="45.89987" lon="-0.91445">
        <ele>5</ele>
        <time>2018-06-30T18:48:13.000Z</time>
      </trkpt>
      <trkpt lat="45.89988" lon="-0.91443">
        <ele>5</ele>
        <time>2018-06-30T18:48:14.000Z</time>
      </trkpt>
      <trkpt lat="45.89989" lon="-0.91442">
        <ele>4</ele>
        <time>2018-06-30T18:48:15.000Z</time>
      </trkpt>
      <trkpt lat="45.89989" lon="-0.9144">
        <ele>4</ele>
        <time>2018-06-30T18:48:16.000Z</time>
      </trkpt>
      <trkpt lat="45.8999" lon="-0.91439">
        <ele>4</ele>
        <time>2018-06-30T18:48:17.000Z</time>
      </trkpt>
      <trkpt lat="45.8999" lon="-0.91437">
        <ele>4</ele>
        <time>2018-06-30T18:48:18.000Z</time>
      </trkpt>
      <trkpt lat="45.89991" lon="-0.91436">
        <ele>3</ele>
        <time>2018-06-30T18:48:19.000Z</time>
      </trkpt>
      <trkpt lat="45.89991" lon="-0.91435">
        <ele>3</ele>
        <time>2018-06-30T18:48:20.000Z</time>
      </trkpt>
      <trkpt lat="45.89992" lon="-0.91434">
        <ele>3</ele>
        <time>2018-06-30T18:48:21.000Z</time>
      </trkpt>
      <trkpt lat="45.89992" lon="-0.91432">
        <ele>3</ele>
        <time>2018-06-30T18:48:22.000Z</time>
      </trkpt>
      <trkpt lat="45.89993" lon="-0.91431">
        <ele>3</ele>
        <time>2018-06-30T18:48:23.000Z</time>
      </trkpt>
      <trkpt lat="45.89993" lon="-0.9143">
        <ele>3</ele>
        <time>2018-06-30T18:48:24.000Z</time>
      </trkpt>
      <trkpt lat="45.89994" lon="-0.91428">
        <ele>3</ele>
        <time>2018-06-30T18:48:25.000Z</time>
      </trkpt>
      <trkpt lat="45.89995" lon="-0.91427">
        <ele>2</ele>
        <time>2018-06-30T18:48:26.000Z</time>
      </trkpt>
      <trkpt lat="45.89995" lon="-0.91426">
        <ele>2</ele>
        <time>2018-06-30T18:48:27.000Z</time>
      </trkpt>
      <trkpt lat="45.89996" lon="-0.91425">
        <ele>2</ele>
        <time>2018-06-30T18:48:28.000Z</time>
      </trkpt>
      <trkpt lat="45.89996" lon="-0.91423">
        <ele>2</ele>
        <time>2018-06-30T18:48:29.000Z</time>
      </trkpt>
      <trkpt lat="45.89997" lon="-0.91422">
        <ele>2</ele>
        <time>2018-06-30T18:48:30.000Z</time>
      </trkpt>
      <trkpt lat="45.89998" lon="-0.91421">
        <ele>2</ele>
        <time>2018-06-30T18:48:31.000Z</time>
      </trkpt>
      <trkpt lat="45.89999" lon="-0.9142">
        <ele>3</ele>
        <time>2018-06-30T18:48:32.000Z</time>
      </trkpt>
      <trkpt lat="45.9" lon="-0.91419">
        <ele>3</ele>
        <time>2018-06-30T18:48:33.000Z</time>
      </trkpt>
      <trkpt lat="45.90001" lon="-0.91418">
        <ele>3</ele>
        <time>2018-06-30T18:48:34.000Z</time>
      </trkpt>
      <trkpt lat="45.90002" lon="-0.91416">
        <ele>3</ele>
        <time>2018-06-30T18:48:35.000Z</time>
      </trkpt>
      <trkpt lat="45.90002" lon="-0.91415">
        <ele>3</ele>
        <time>2018-06-30T18:48:36.000Z</time>
      </trkpt>
      <trkpt lat="45.90003" lon="-0.91414">
        <ele>3</ele>
        <time>2018-06-30T18:48:37.000Z</time>
      </trkpt>
      <trkpt lat="45.90004" lon="-0.91412">
        <ele>4</ele>
        <time>2018-06-30T18:48:38.000Z</time>
      </trkpt>
      <trkpt lat="45.90004" lon="-0.9141">
        <ele>4</ele>
        <time>2018-06-30T18:48:39.000Z</time>
      </trkpt>
      <trkpt lat="45.90005" lon="-0.91408">
        <ele>4</ele>
        <time>2018-06-30T18:48:40.000Z</time>
      </trkpt>
      <trkpt lat="45.90005" lon="-0.91407">
        <ele>4</ele>
        <time>2018-06-30T18:48:41.000Z</time>
      </trkpt>
      <trkpt lat="45.90006" lon="-0.91406">
        <ele>4</ele>
        <time>2018-06-30T18:48:42.000Z</time>
      </trkpt>
      <trkpt lat="45.90007" lon="-0.91404">
        <ele>5</ele>
        <time>2018-06-30T18:48:43.000Z</time>
      </trkpt>
      <trkpt lat="45.90008" lon="-0.91403">
        <ele>5</ele>
        <time>2018-06-30T18:48:44.000Z</time>
      </trkpt>
      <trkpt lat="45.90009" lon="-0.91402">
        <ele>5</ele>
        <time>2018-06-30T18:48:45.000Z</time>
      </trkpt>
      <trkpt lat="45.90009" lon="-0.91401">
        <ele>5</ele>
        <time>2018-06-30T18:48:46.000Z</time>
      </trkpt>
      <trkpt lat="45.9001" lon="-0.914">
        <ele>5</ele>
        <time>2018-06-30T18:48:47.000Z</time>
      </trkpt>
      <trkpt lat="45.90011" lon="-0.91399">
        <ele>5</ele>
        <time>2018-06-30T18:48:48.000Z</time>
      </trkpt>
      <trkpt lat="45.90012" lon="-0.91398">
        <ele>5</ele>
        <time>2018-06-30T18:48:49.000Z</time>
      </trkpt>
      <trkpt lat="45.90013" lon="-0.91397">
        <ele>5</ele>
        <time>2018-06-30T18:48:50.000Z</time>
      </trkpt>
      <trkpt lat="45.90013" lon="-0.91395">
        <ele>5</ele>
        <time>2018-06-30T18:48:51.000Z</time>
      </trkpt>
      <trkpt lat="45.90014" lon="-0.91394">
        <ele>5</ele>
        <time>2018-06-30T18:48:52.000Z</time>
      </trkpt>
      <trkpt lat="45.90015" lon="-0.91393">
        <ele>5</ele>
        <time>2018-06-30T18:48:53.000Z</time>
      </trkpt>
      <trkpt lat="45.90015" lon="-0.91391">
        <ele>5</ele>
        <time>2018-06-30T18:48:54.000Z</time>
      </trkpt>
      <trkpt lat="45.90016" lon="-0.9139">
        <ele>4</ele>
        <time>2018-06-30T18:48:55.000Z</time>
      </trkpt>
      <trkpt lat="45.90016" lon="-0.91389">
        <ele>4</ele>
        <time>2018-06-30T18:48:56.000Z</time>
      </trkpt>
      <trkpt lat="45.90017" lon="-0.91388">
        <ele>4</ele>
        <time>2018-06-30T18:48:57.000Z</time>
      </trkpt>
      <trkpt lat="45.90018" lon="-0.91387">
        <ele>4</ele>
        <time>2018-06-30T18:48:58.000Z</time>
      </trkpt>
      <trkpt lat="45.90019" lon="-0.91385">
        <ele>4</ele>
        <time>2018-06-30T18:48:59.000Z</time>
      </trkpt>
      <trkpt lat="45.9002" lon="-0.91384">
        <ele>4</ele>
        <time>2018-06-30T18:49:00.000Z</time>
      </trkpt>
      <trkpt lat="45.9002" lon="-0.91383">
        <ele>4</ele>
        <time>2018-06-30T18:49:01.000Z</time>
      </trkpt>
      <trkpt lat="45.90021" lon="-0.91382">
        <ele>4</ele>
        <time>2018-06-30T18:49:02.000Z</time>
      </trkpt>
      <trkpt lat="45.90022" lon="-0.91381">
        <ele>4</ele>
        <time>2018-06-30T18:49:03.000Z</time>
      </trkpt>
      <trkpt lat="45.90023" lon="-0.9138">
        <ele>3</ele>
        <time>2018-06-30T18:49:04.000Z</time>
      </trkpt>
      <trkpt lat="45.90023" lon="-0.91379">
        <ele>3</ele>
        <time>2018-06-30T18:49:05.000Z</time>
      </trkpt>
      <trkpt lat="45.90024" lon="-0.91378">
        <ele>3</ele>
        <time>2018-06-30T18:49:06.000Z</time>
      </trkpt>
      <trkpt lat="45.90025" lon="-0.91376">
        <ele>4</ele>
        <time>2018-06-30T18:49:07.000Z</time>
      </trkpt>
      <trkpt lat="45.90026" lon="-0.91375">
        <ele>3</ele>
        <time>2018-06-30T18:49:08.000Z</time>
      </trkpt>
      <trkpt lat="45.90026" lon="-0.91374">
        <ele>3</ele>
        <time>2018-06-30T18:49:09.000Z</time>
      </trkpt>
      <trkpt lat="45.90027" lon="-0.91373">
        <ele>3</ele>
        <time>2018-06-30T18:49:10.000Z</time>
      </trkpt>
      <trkpt lat="45.90028" lon="-0.91372">
        <ele>3</ele>
        <time>2018-06-30T18:49:11.000Z</time>
      </trkpt>
      <trkpt lat="45.90028" lon="-0.9137">
        <ele>2</ele>
        <time>2018-06-30T18:49:12.000Z</time>
      </trkpt>
      <trkpt lat="45.90029" lon="-0.91369">
        <ele>2</ele>
        <time>2018-06-30T18:49:13.000Z</time>
      </trkpt>
      <trkpt lat="45.90029" lon="-0.91369">
        <ele>1</ele>
        <time>2018-06-30T18:49:14.000Z</time>
      </trkpt>
      <trkpt lat="45.9003" lon="-0.91368">
        <ele>1</ele>
        <time>2018-06-30T18:49:15.000Z</time>
      </trkpt>
      <trkpt lat="45.90031" lon="-0.91366">
        <ele>2</ele>
        <time>2018-06-30T18:49:16.000Z</time>
      </trkpt>
      <trkpt lat="45.90031" lon="-0.91365">
        <ele>2</ele>
        <time>2018-06-30T18:49:17.000Z</time>
      </trkpt>
      <trkpt lat="45.90032" lon="-0.91363">
        <ele>2</ele>
        <time>2018-06-30T18:49:18.000Z</time>
      </trkpt>
      <trkpt lat="45.90033" lon="-0.91362">
        <ele>2</ele>
        <time>2018-06-30T18:49:19.000Z</time>
      </trkpt>
      <trkpt lat="45.90034" lon="-0.9136">
        <ele>2</ele>
        <time>2018-06-30T18:49:20.000Z</time>
      </trkpt>
      <trkpt lat="45.90034" lon="-0.91359">
        <ele>2</ele>
        <time>2018-06-30T18:49:21.000Z</time>
      </trkpt>
      <trkpt lat="45.90035" lon="-0.91358">
        <ele>1</ele>
        <time>2018-06-30T18:49:22.000Z</time>
      </trkpt>
      <trkpt lat="45.90036" lon="-0.91356">
        <ele>1</ele>
        <time>2018-06-30T18:49:23.000Z</time>
      </trkpt>
      <trkpt lat="45.90036" lon="-0.91355">
        <ele>1</ele>
        <time>2018-06-30T18:49:24.000Z</time>
      </trkpt>
      <trkpt lat="45.90037" lon="-0.91353">
        <ele>1</ele>
        <time>2018-06-30T18:49:25.000Z</time>
      </trkpt>
      <trkpt lat="45.90038" lon="-0.91352">
        <ele>14.1</ele>
        <time>2018-06-30T18:49:26.000Z</time>
      </trkpt>
      <trkpt lat="45.90038" lon="-0.91351">
        <ele>14.2</ele>
        <time>2018-06-30T18:49:27.000Z</time>
      </trkpt>
      <trkpt lat="45.90039" lon="-0.91349">
        <ele>1</ele>
        <time>2018-06-30T18:49:28.000Z</time>
      </trkpt>
      <trkpt lat="45.9004" lon="-0.91348">
        <ele>1</ele>
        <time>2018-06-30T18:49:29.000Z</time>
      </trkpt>
      <trkpt lat="45.9004" lon="-0.91346">
        <ele>2</ele>
        <time>2018-06-30T18:49:30.000Z</time>
      </trkpt>
      <trkpt lat="45.90041" lon="-0.91344">
        <ele>2</ele>
        <time>2018-06-30T18:49:31.000Z</time>
      </trkpt>
      <trkpt lat="45.90041" lon="-0.91343">
        <ele>2</ele>
        <time>2018-06-30T18:49:32.000Z</time>
      </trkpt>
      <trkpt lat="45.90042" lon="-0.91341">
        <ele>2</ele>
        <time>2018-06-30T18:49:33.000Z</time>
      </trkpt>
      <trkpt lat="45.90042" lon="-0.9134">
        <ele>2</ele>
        <time>2018-06-30T18:49:34.000Z</time>
      </trkpt>
      <trkpt lat="45.90043" lon="-0.91338">
        <ele>2</ele>
        <time>2018-06-30T18:49:35.000Z</time>
      </trkpt>
      <trkpt lat="45.90043" lon="-0.91337">
        <ele>2</ele>
        <time>2018-06-30T18:49:36.000Z</time>
      </trkpt>
      <trkpt lat="45.90044" lon="-0.91336">
        <ele>2</ele>
        <time>2018-06-30T18:49:37.000Z</time>
      </trkpt>
      <trkpt lat="45.90045" lon="-0.91334">
        <ele>2</ele>
        <time>2018-06-30T18:49:38.000Z</time>
      </trkpt>
      <trkpt lat="45.90046" lon="-0.91333">
        <ele>2</ele>
        <time>2018-06-30T18:49:39.000Z</time>
      </trkpt>
      <trkpt lat="45.90046" lon="-0.91332">
        <ele>2</ele>
        <time>2018-06-30T18:49:40.000Z</time>
      </trkpt>
      <trkpt lat="45.90047" lon="-0.91331">
        <ele>2</ele>
        <time>2018-06-30T18:49:41.000Z</time>
      </trkpt>
      <trkpt lat="45.90048" lon="-0.91329">
        <ele>2</ele>
        <time>2018-06-30T18:49:42.000Z</time>
      </trkpt>
      <trkpt lat="45.90049" lon="-0.91327">
        <ele>3</ele>
        <time>2018-06-30T18:49:43.000Z</time>
      </trkpt>
      <trkpt lat="45.90049" lon="-0.91326">
        <ele>4</ele>
        <time>2018-06-30T18:49:44.000Z</time>
      </trkpt>
      <trkpt lat="45.9005" lon="-0.91324">
        <ele>4</ele>
        <time>2018-06-30T18:49:45.000Z</time>
      </trkpt>
      <trkpt lat="45.9005" lon="-0.91322">
        <ele>3</ele>
        <time>2018-06-30T18:49:46.000Z</time>
      </trkpt>
      <trkpt lat="45.9005" lon="-0.91321">
        <ele>4</ele>
        <time>2018-06-30T18:49:47.000Z</time>
      </trkpt>
      <trkpt lat="45.90051" lon="-0.91319">
        <ele>5</ele>
        <time>2018-06-30T18:49:48.000Z</time>
      </trkpt>
      <trkpt lat="45.90052" lon="-0.91317">
        <ele>5</ele>
        <time>2018-06-30T18:49:49.000Z</time>
      </trkpt>
      <trkpt lat="45.90052" lon="-0.91316">
        <ele>5</ele>
        <time>2018-06-30T18:49:50.000Z</time>
      </trkpt>
      <trkpt lat="45.90053" lon="-0.91314">
        <ele>4</ele>
        <time>2018-06-30T18:49:51.000Z</time>
      </trkpt>
      <trkpt lat="45.90053" lon="-0.91313">
        <ele>4</ele>
        <time>2018-06-30T18:49:52.000Z</time>
      </trkpt>
      <trkpt lat="45.90054" lon="-0.91311">
        <ele>3</ele>
        <time>2018-06-30T18:49:53.000Z</time>
      </trkpt>
      <trkpt lat="45.90054" lon="-0.9131">
        <ele>3</ele>
        <time>2018-06-30T18:49:54.000Z</time>
      </trkpt>
      <trkpt lat="45.90054" lon="-0.91309">
        <ele>2</ele>
        <time>2018-06-30T18:49:55.000Z</time>
      </trkpt>
      <trkpt lat="45.90055" lon="-0.91307">
        <ele>2</ele>
        <time>2018-06-30T18:49:56.000Z</time>
      </trkpt>
      <trkpt lat="45.90056" lon="-0.91306">
        <ele>2</ele>
        <time>2018-06-30T18:49:57.000Z</time>
      </trkpt>
      <trkpt lat="45.90056" lon="-0.91304">
        <ele>3</ele>
        <time>2018-06-30T18:49:58.000Z</time>
      </trkpt>
      <trkpt lat="45.90057" lon="-0.91302">
        <ele>3</ele>
        <time>2018-06-30T18:49:59.000Z</time>
      </trkpt>
      <trkpt lat="45.90058" lon="-0.91301">
        <ele>4</ele>
        <time>2018-06-30T18:50:00.000Z</time>
      </trkpt>
      <trkpt lat="45.90058" lon="-0.91299">
        <ele>4</ele>
        <time>2018-06-30T18:50:01.000Z</time>
      </trkpt>
      <trkpt lat="45.90059" lon="-0.91298">
        <ele>4</ele>
        <time>2018-06-30T18:50:02.000Z</time>
      </trkpt>
      <trkpt lat="45.9006" lon="-0.91296">
        <ele>5</ele>
        <time>2018-06-30T18:50:03.000Z</time>
      </trkpt>
      <trkpt lat="45.9006" lon="-0.91295">
        <ele>6</ele>
        <time>2018-06-30T18:50:04.000Z</time>
      </trkpt>
      <trkpt lat="45.90061" lon="-0.91293">
        <ele>6</ele>
        <time>2018-06-30T18:50:05.000Z</time>
      </trkpt>
      <trkpt lat="45.90062" lon="-0.91292">
        <ele>5</ele>
        <time>2018-06-30T18:50:06.000Z</time>
      </trkpt>
      <trkpt lat="45.90062" lon="-0.9129">
        <ele>5</ele>
        <time>2018-06-30T18:50:07.000Z</time>
      </trkpt>
      <trkpt lat="45.90063" lon="-0.91289">
        <ele>5</ele>
        <time>2018-06-30T18:50:08.000Z</time>
      </trkpt>
      <trkpt lat="45.90063" lon="-0.91288">
        <ele>5</ele>
        <time>2018-06-30T18:50:09.000Z</time>
      </trkpt>
      <trkpt lat="45.90064" lon="-0.91287">
        <ele>5</ele>
        <time>2018-06-30T18:50:10.000Z</time>
      </trkpt>
      <trkpt lat="45.90064" lon="-0.91286">
        <ele>5</ele>
        <time>2018-06-30T18:50:11.000Z</time>
      </trkpt>
      <trkpt lat="45.90065" lon="-0.91284">
        <ele>5</ele>
        <time>2018-06-30T18:50:12.000Z</time>
      </trkpt>
      <trkpt lat="45.90065" lon="-0.91283">
        <ele>5</ele>
        <time>2018-06-30T18:50:13.000Z</time>
      </trkpt>
      <trkpt lat="45.90066" lon="-0.91281">
        <ele>5</ele>
        <time>2018-06-30T18:50:14.000Z</time>
      </trkpt>
      <trkpt lat="45.90067" lon="-0.91279">
        <ele>5</ele>
        <time>2018-06-30T18:50:15.000Z</time>
      </trkpt>
      <trkpt lat="45.90068" lon="-0.91277">
        <ele>5</ele>
        <time>2018-06-30T18:50:16.000Z</time>
      </trkpt>
      <trkpt lat="45.90069" lon="-0.91276">
        <ele>6</ele>
        <time>2018-06-30T18:50:17.000Z</time>
      </trkpt>
      <trkpt lat="45.90069" lon="-0.91274">
        <ele>6</ele>
        <time>2018-06-30T18:50:18.000Z</time>
      </trkpt>
      <trkpt lat="45.9007" lon="-0.91273">
        <ele>6</ele>
        <time>2018-06-30T18:50:19.000Z</time>
      </trkpt>
      <trkpt lat="45.9007" lon="-0.91271">
        <ele>6</ele>
        <time>2018-06-30T18:50:20.000Z</time>
      </trkpt>
      <trkpt lat="45.90071" lon="-0.9127">
        <ele>6</ele>
        <time>2018-06-30T18:50:21.000Z</time>
      </trkpt>
      <trkpt lat="45.90071" lon="-0.91269">
        <ele>6</ele>
        <time>2018-06-30T18:50:22.000Z</time>
      </trkpt>
      <trkpt lat="45.90072" lon="-0.91267">
        <ele>7</ele>
        <time>2018-06-30T18:50:23.000Z</time>
      </trkpt>
      <trkpt lat="45.90073" lon="-0.91266">
        <ele>7</ele>
        <time>2018-06-30T18:50:24.000Z</time>
      </trkpt>
      <trkpt lat="45.90073" lon="-0.91264">
        <ele>7</ele>
        <time>2018-06-30T18:50:25.000Z</time>
      </trkpt>
      <trkpt lat="45.90074" lon="-0.91263">
        <ele>7</ele>
        <time>2018-06-30T18:50:26.000Z</time>
      </trkpt>
      <trkpt lat="45.90074" lon="-0.91261">
        <ele>7</ele>
        <time>2018-06-30T18:50:27.000Z</time>
      </trkpt>
      <trkpt lat="45.90075" lon="-0.9126">
        <ele>8</ele>
        <time>2018-06-30T18:50:28.000Z</time>
      </trkpt>
      <trkpt lat="45.90075" lon="-0.91258">
        <ele>8</ele>
        <time>2018-06-30T18:50:29.000Z</time>
      </trkpt>
      <trkpt lat="45.90076" lon="-0.91256">
        <ele>8</ele>
        <time>2018-06-30T18:50:30.000Z</time>
      </trkpt>
      <trkpt lat="45.90077" lon="-0.91255">
        <ele>9</ele>
        <time>2018-06-30T18:50:31.000Z</time>
      </trkpt>
      <trkpt lat="45.90077" lon="-0.91253">
        <ele>9</ele>
        <time>2018-06-30T18:50:32.000Z</time>
      </trkpt>
      <trkpt lat="45.90078" lon="-0.91252">
        <ele>9</ele>
        <time>2018-06-30T18:50:33.000Z</time>
      </trkpt>
      <trkpt lat="45.90079" lon="-0.9125">
        <ele>9</ele>
        <time>2018-06-30T18:50:34.000Z</time>
      </trkpt>
      <trkpt lat="45.9008" lon="-0.91249">
        <ele>9</ele>
        <time>2018-06-30T18:50:35.000Z</time>
      </trkpt>
      <trkpt lat="45.9008" lon="-0.91247">
        <ele>9</ele>
        <time>2018-06-30T18:50:36.000Z</time>
      </trkpt>
      <trkpt lat="45.90081" lon="-0.91245">
        <ele>9</ele>
        <time>2018-06-30T18:50:37.000Z</time>
      </trkpt>
      <trkpt lat="45.90081" lon="-0.91244">
        <ele>9</ele>
        <time>2018-06-30T18:50:38.000Z</time>
      </trkpt>
      <trkpt lat="45.90082" lon="-0.91242">
        <ele>10</ele>
        <time>2018-06-30T18:50:39.000Z</time>
      </trkpt>
      <trkpt lat="45.90082" lon="-0.9124">
        <ele>9</ele>
        <time>2018-06-30T18:50:40.000Z</time>
      </trkpt>
      <trkpt lat="45.90083" lon="-0.91239">
        <ele>9</ele>
        <time>2018-06-30T18:50:41.000Z</time>
      </trkpt>
      <trkpt lat="45.90083" lon="-0.91237">
        <ele>9</ele>
        <time>2018-06-30T18:50:42.000Z</time>
      </trkpt>
      <trkpt lat="45.90084" lon="-0.91236">
        <ele>9</ele>
        <time>2018-06-30T18:50:43.000Z</time>
      </trkpt>
      <trkpt lat="45.90084" lon="-0.91235">
        <ele>9</ele>
        <time>2018-06-30T18:50:44.000Z</time>
      </trkpt>
      <trkpt lat="45.90085" lon="-0.91233">
        <ele>9</ele>
        <time>2018-06-30T18:50:45.000Z</time>
      </trkpt>
      <trkpt lat="45.90085" lon="-0.91232">
        <ele>9</ele>
        <time>2018-06-30T18:50:46.000Z</time>
      </trkpt>
      <trkpt lat="45.90086" lon="-0.91231">
        <ele>9</ele>
        <time>2018-06-30T18:50:47.000Z</time>
      </trkpt>
      <trkpt lat="45.90086" lon="-0.91229">
        <ele>9</ele>
        <time>2018-06-30T18:50:48.000Z</time>
      </trkpt>
      <trkpt lat="45.90087" lon="-0.91228">
        <ele>9</ele>
        <time>2018-06-30T18:50:49.000Z</time>
      </trkpt>
      <trkpt lat="45.90087" lon="-0.91226">
        <ele>9</ele>
        <time>2018-06-30T18:50:50.000Z</time>
      </trkpt>
      <trkpt lat="45.90088" lon="-0.91225">
        <ele>9</ele>
        <time>2018-06-30T18:50:51.000Z</time>
      </trkpt>
      <trkpt lat="45.90089" lon="-0.91223">
        <ele>9</ele>
        <time>2018-06-30T18:50:52.000Z</time>
      </trkpt>
      <trkpt lat="45.9009" lon="-0.91222">
        <ele>9</ele>
        <time>2018-06-30T18:50:53.000Z</time>
      </trkpt>
      <trkpt lat="45.9009" lon="-0.9122">
        <ele>10</ele>
        <time>2018-06-30T18:50:54.000Z</time>
      </trkpt>
      <trkpt lat="45.90091" lon="-0.91219">
        <ele>10</ele>
        <time>2018-06-30T18:50:55.000Z</time>
      </trkpt>
      <trkpt lat="45.90091" lon="-0.91217">
        <ele>10</ele>
        <time>2018-06-30T18:50:56.000Z</time>
      </trkpt>
      <trkpt lat="45.90092" lon="-0.91216">
        <ele>10</ele>
        <time>2018-06-30T18:50:57.000Z</time>
      </trkpt>
      <trkpt lat="45.90092" lon="-0.91214">
        <ele>10</ele>
        <time>2018-06-30T18:50:58.000Z</time>
      </trkpt>
      <trkpt lat="45.90093" lon="-0.91213">
        <ele>10</ele>
        <time>2018-06-30T18:50:59.000Z</time>
      </trkpt>
      <trkpt lat="45.90093" lon="-0.91212">
        <ele>10</ele>
        <time>2018-06-30T18:51:00.000Z</time>
      </trkpt>
      <trkpt lat="45.90093" lon="-0.9121">
        <ele>10</ele>
        <time>2018-06-30T18:51:01.000Z</time>
      </trkpt>
      <trkpt lat="45.90094" lon="-0.91209">
        <ele>10</ele>
        <time>2018-06-30T18:51:02.000Z</time>
      </trkpt>
      <trkpt lat="45.90094" lon="-0.91207">
        <ele>9</ele>
        <time>2018-06-30T18:51:03.000Z</time>
      </trkpt>
      <trkpt lat="45.90094" lon="-0.91206">
        <ele>9</ele>
        <time>2018-06-30T18:51:04.000Z</time>
      </trkpt>
      <trkpt lat="45.90095" lon="-0.91205">
        <ele>9</ele>
        <time>2018-06-30T18:51:05.000Z</time>
      </trkpt>
      <trkpt lat="45.90095" lon="-0.91203">
        <ele>9</ele>
        <time>2018-06-30T18:51:06.000Z</time>
      </trkpt>
      <trkpt lat="45.90095" lon="-0.91202">
        <ele>9</ele>
        <time>2018-06-30T18:51:07.000Z</time>
      </trkpt>
      <trkpt lat="45.90096" lon="-0.912">
        <ele>9</ele>
        <time>2018-06-30T18:51:08.000Z</time>
      </trkpt>
      <trkpt lat="45.90096" lon="-0.91199">
        <ele>9</ele>
        <time>2018-06-30T18:51:09.000Z</time>
      </trkpt>
      <trkpt lat="45.90096" lon="-0.91197">
        <ele>9</ele>
        <time>2018-06-30T18:51:10.000Z</time>
      </trkpt>
      <trkpt lat="45.90097" lon="-0.91195">
        <ele>9</ele>
        <time>2018-06-30T18:51:11.000Z</time>
      </trkpt>
      <trkpt lat="45.90097" lon="-0.91194">
        <ele>9</ele>
        <time>2018-06-30T18:51:12.000Z</time>
      </trkpt>
      <trkpt lat="45.90097" lon="-0.91193">
        <ele>8</ele>
        <time>2018-06-30T18:51:13.000Z</time>
      </trkpt>
      <trkpt lat="45.90097" lon="-0.91191">
        <ele>8</ele>
        <time>2018-06-30T18:51:14.000Z</time>
      </trkpt>
      <trkpt lat="45.90097" lon="-0.91189">
        <ele>8</ele>
        <time>2018-06-30T18:51:15.000Z</time>
      </trkpt>
      <trkpt lat="45.90097" lon="-0.91188">
        <ele>8</ele>
        <time>2018-06-30T18:51:16.000Z</time>
      </trkpt>
      <trkpt lat="45.90098" lon="-0.91186">
        <ele>8</ele>
        <time>2018-06-30T18:51:17.000Z</time>
      </trkpt>
      <trkpt lat="45.90098" lon="-0.91185">
        <ele>8</ele>
        <time>2018-06-30T18:51:18.000Z</time>
      </trkpt>
      <trkpt lat="45.90098" lon="-0.91183">
        <ele>8</ele>
        <time>2018-06-30T18:51:19.000Z</time>
      </trkpt>
      <trkpt lat="45.90099" lon="-0.91182">
        <ele>8</ele>
        <time>2018-06-30T18:51:20.000Z</time>
      </trkpt>
      <trkpt lat="45.90099" lon="-0.9118">
        <ele>8</ele>
        <time>2018-06-30T18:51:21.000Z</time>
      </trkpt>
      <trkpt lat="45.901" lon="-0.91178">
        <ele>8</ele>
        <time>2018-06-30T18:51:22.000Z</time>
      </trkpt>
      <trkpt lat="45.901" lon="-0.91177">
        <ele>8</ele>
        <time>2018-06-30T18:51:23.000Z</time>
      </trkpt>
      <trkpt lat="45.901" lon="-0.91175">
        <ele>8</ele>
        <time>2018-06-30T18:51:24.000Z</time>
      </trkpt>
      <trkpt lat="45.90101" lon="-0.91174">
        <ele>8</ele>
        <time>2018-06-30T18:51:25.000Z</time>
      </trkpt>
      <trkpt lat="45.90101" lon="-0.91173">
        <ele>8</ele>
        <time>2018-06-30T18:51:26.000Z</time>
      </trkpt>
      <trkpt lat="45.90101" lon="-0.91171">
        <ele>8</ele>
        <time>2018-06-30T18:51:27.000Z</time>
      </trkpt>
      <trkpt lat="45.90102" lon="-0.9117">
        <ele>8</ele>
        <time>2018-06-30T18:51:28.000Z</time>
      </trkpt>
      <trkpt lat="45.90102" lon="-0.91168">
        <ele>8</ele>
        <time>2018-06-30T18:51:29.000Z</time>
      </trkpt>
      <trkpt lat="45.90102" lon="-0.91167">
        <ele>8</ele>
        <time>2018-06-30T18:51:30.000Z</time>
      </trkpt>
      <trkpt lat="45.90103" lon="-0.91165">
        <ele>8</ele>
        <time>2018-06-30T18:51:31.000Z</time>
      </trkpt>
      <trkpt lat="45.90103" lon="-0.91164">
        <ele>8</ele>
        <time>2018-06-30T18:51:32.000Z</time>
      </trkpt>
      <trkpt lat="45.90103" lon="-0.91162">
        <ele>8</ele>
        <time>2018-06-30T18:51:33.000Z</time>
      </trkpt>
      <trkpt lat="45.90104" lon="-0.9116">
        <ele>8</ele>
        <time>2018-06-30T18:51:34.000Z</time>
      </trkpt>
      <trkpt lat="45.90104" lon="-0.91159">
        <ele>8</ele>
        <time>2018-06-30T18:51:35.000Z</time>
      </trkpt>
      <trkpt lat="45.90104" lon="-0.91157">
        <ele>7</ele>
        <time>2018-06-30T18:51:36.000Z</time>
      </trkpt>
      <trkpt lat="45.90105" lon="-0.91155">
        <ele>8</ele>
        <time>2018-06-30T18:51:37.000Z</time>
      </trkpt>
      <trkpt lat="45.90105" lon="-0.91154">
        <ele>8</ele>
        <time>2018-06-30T18:51:38.000Z</time>
      </trkpt>
      <trkpt lat="45.90105" lon="-0.91152">
        <ele>8</ele>
        <time>2018-06-30T18:51:39.000Z</time>
      </trkpt>
      <trkpt lat="45.90106" lon="-0.91151">
        <ele>8</ele>
        <time>2018-06-30T18:51:40.000Z</time>
      </trkpt>
      <trkpt lat="45.90106" lon="-0.91149">
        <ele>8</ele>
        <time>2018-06-30T18:51:41.000Z</time>
      </trkpt>
      <trkpt lat="45.90106" lon="-0.91148">
        <ele>8</ele>
        <time>2018-06-30T18:51:42.000Z</time>
      </trkpt>
      <trkpt lat="45.90107" lon="-0.91146">
        <ele>8</ele>
        <time>2018-06-30T18:51:43.000Z</time>
      </trkpt>
      <trkpt lat="45.90107" lon="-0.91145">
        <ele>8</ele>
        <time>2018-06-30T18:51:44.000Z</time>
      </trkpt>
      <trkpt lat="45.90107" lon="-0.91143">
        <ele>8</ele>
        <time>2018-06-30T18:51:45.000Z</time>
      </trkpt>
      <trkpt lat="45.90108" lon="-0.91142">
        <ele>8</ele>
        <time>2018-06-30T18:51:46.000Z</time>
      </trkpt>
      <trkpt lat="45.90108" lon="-0.9114">
        <ele>8</ele>
        <time>2018-06-30T18:51:47.000Z</time>
      </trkpt>
      <trkpt lat="45.90109" lon="-0.91138">
        <ele>8</ele>
        <time>2018-06-30T18:51:48.000Z</time>
      </trkpt>
      <trkpt lat="45.90109" lon="-0.91137">
        <ele>8</ele>
        <time>2018-06-30T18:51:49.000Z</time>
      </trkpt>
      <trkpt lat="45.90109" lon="-0.91135">
        <ele>8</ele>
        <time>2018-06-30T18:51:50.000Z</time>
      </trkpt>
      <trkpt lat="45.9011" lon="-0.91134">
        <ele>8</ele>
        <time>2018-06-30T18:51:51.000Z</time>
      </trkpt>
      <trkpt lat="45.9011" lon="-0.91132">
        <ele>8</ele>
        <time>2018-06-30T18:51:52.000Z</time>
      </trkpt>
      <trkpt lat="45.90111" lon="-0.9113">
        <ele>8</ele>
        <time>2018-06-30T18:51:53.000Z</time>
      </trkpt>
      <trkpt lat="45.90111" lon="-0.91129">
        <ele>8</ele>
        <time>2018-06-30T18:51:54.000Z</time>
      </trkpt>
      <trkpt lat="45.90111" lon="-0.91127">
        <ele>8</ele>
        <time>2018-06-30T18:51:55.000Z</time>
      </trkpt>
      <trkpt lat="45.90112" lon="-0.91125">
        <ele>8</ele>
        <time>2018-06-30T18:51:56.000Z</time>
      </trkpt>
      <trkpt lat="45.90112" lon="-0.91123">
        <ele>9</ele>
        <time>2018-06-30T18:51:57.000Z</time>
      </trkpt>
      <trkpt lat="45.90112" lon="-0.91122">
        <ele>9</ele>
        <time>2018-06-30T18:51:58.000Z</time>
      </trkpt>
      <trkpt lat="45.90112" lon="-0.9112">
        <ele>9</ele>
        <time>2018-06-30T18:51:59.000Z</time>
      </trkpt>
      <trkpt lat="45.90113" lon="-0.91119">
        <ele>9</ele>
        <time>2018-06-30T18:52:00.000Z</time>
      </trkpt>
      <trkpt lat="45.90113" lon="-0.91117">
        <ele>9</ele>
        <time>2018-06-30T18:52:01.000Z</time>
      </trkpt>
      <trkpt lat="45.90113" lon="-0.91115">
        <ele>9</ele>
        <time>2018-06-30T18:52:02.000Z</time>
      </trkpt>
      <trkpt lat="45.90113" lon="-0.91114">
        <ele>9</ele>
        <time>2018-06-30T18:52:03.000Z</time>
      </trkpt>
      <trkpt lat="45.90114" lon="-0.91112">
        <ele>9</ele>
        <time>2018-06-30T18:52:04.000Z</time>
      </trkpt>
      <trkpt lat="45.90114" lon="-0.9111">
        <ele>9</ele>
        <time>2018-06-30T18:52:05.000Z</time>
      </trkpt>
      <trkpt lat="45.90114" lon="-0.91108">
        <ele>9</ele>
        <time>2018-06-30T18:52:06.000Z</time>
      </trkpt>
      <trkpt lat="45.90114" lon="-0.91107">
        <ele>10</ele>
        <time>2018-06-30T18:52:07.000Z</time>
      </trkpt>
      <trkpt lat="45.90114" lon="-0.91105">
        <ele>9</ele>
        <time>2018-06-30T18:52:08.000Z</time>
      </trkpt>
      <trkpt lat="45.90115" lon="-0.91103">
        <ele>9</ele>
        <time>2018-06-30T18:52:09.000Z</time>
      </trkpt>
      <trkpt lat="45.90115" lon="-0.91102">
        <ele>10</ele>
        <time>2018-06-30T18:52:10.000Z</time>
      </trkpt>
      <trkpt lat="45.90115" lon="-0.911">
        <ele>9</ele>
        <time>2018-06-30T18:52:11.000Z</time>
      </trkpt>
      <trkpt lat="45.90116" lon="-0.91099">
        <ele>9</ele>
        <time>2018-06-30T18:52:12.000Z</time>
      </trkpt>
      <trkpt lat="45.90116" lon="-0.91097">
        <ele>9</ele>
        <time>2018-06-30T18:52:13.000Z</time>
      </trkpt>
      <trkpt lat="45.90116" lon="-0.91096">
        <ele>9</ele>
        <time>2018-06-30T18:52:14.000Z</time>
      </trkpt>
      <trkpt lat="45.90116" lon="-0.91094">
        <ele>9</ele>
        <time>2018-06-30T18:52:15.000Z</time>
      </trkpt>
      <trkpt lat="45.90116" lon="-0.91092">
        <ele>9</ele>
        <time>2018-06-30T18:52:16.000Z</time>
      </trkpt>
      <trkpt lat="45.90117" lon="-0.9109">
        <ele>9</ele>
        <time>2018-06-30T18:52:17.000Z</time>
      </trkpt>
      <trkpt lat="45.90117" lon="-0.91088">
        <ele>9</ele>
        <time>2018-06-30T18:52:18.000Z</time>
      </trkpt>
      <trkpt lat="45.90117" lon="-0.91086">
        <ele>9</ele>
        <time>2018-06-30T18:52:19.000Z</time>
      </trkpt>
      <trkpt lat="45.90118" lon="-0.91084">
        <ele>9</ele>
        <time>2018-06-30T18:52:20.000Z</time>
      </trkpt>
      <trkpt lat="45.90118" lon="-0.91083">
        <ele>9</ele>
        <time>2018-06-30T18:52:21.000Z</time>
      </trkpt>
      <trkpt lat="45.90119" lon="-0.91081">
        <ele>9</ele>
        <time>2018-06-30T18:52:22.000Z</time>
      </trkpt>
      <trkpt lat="45.90119" lon="-0.91079">
        <ele>9</ele>
        <time>2018-06-30T18:52:23.000Z</time>
      </trkpt>
      <trkpt lat="45.90119" lon="-0.91077">
        <ele>9</ele>
        <time>2018-06-30T18:52:24.000Z</time>
      </trkpt>
      <trkpt lat="45.90119" lon="-0.91076">
        <ele>8</ele>
        <time>2018-06-30T18:52:25.000Z</time>
      </trkpt>
      <trkpt lat="45.90119" lon="-0.91074">
        <ele>8</ele>
        <time>2018-06-30T18:52:26.000Z</time>
      </trkpt>
      <trkpt lat="45.90119" lon="-0.91072">
        <ele>8</ele>
        <time>2018-06-30T18:52:27.000Z</time>
      </trkpt>
      <trkpt lat="45.90119" lon="-0.91071">
        <ele>8</ele>
        <time>2018-06-30T18:52:28.000Z</time>
      </trkpt>
      <trkpt lat="45.90119" lon="-0.91069">
        <ele>7</ele>
        <time>2018-06-30T18:52:29.000Z</time>
      </trkpt>
      <trkpt lat="45.9012" lon="-0.91068">
        <ele>7</ele>
        <time>2018-06-30T18:52:30.000Z</time>
      </trkpt>
      <trkpt lat="45.9012" lon="-0.91066">
        <ele>7</ele>
        <time>2018-06-30T18:52:31.000Z</time>
      </trkpt>
      <trkpt lat="45.9012" lon="-0.91065">
        <ele>7</ele>
        <time>2018-06-30T18:52:32.000Z</time>
      </trkpt>
      <trkpt lat="45.9012" lon="-0.91063">
        <ele>7</ele>
        <time>2018-06-30T18:52:33.000Z</time>
      </trkpt>
      <trkpt lat="45.9012" lon="-0.91061">
        <ele>6</ele>
        <time>2018-06-30T18:52:34.000Z</time>
      </trkpt>
      <trkpt lat="45.9012" lon="-0.9106">
        <ele>7</ele>
        <time>2018-06-30T18:52:35.000Z</time>
      </trkpt>
      <trkpt lat="45.90121" lon="-0.91058">
        <ele>7</ele>
        <time>2018-06-30T18:52:36.000Z</time>
      </trkpt>
      <trkpt lat="45.90121" lon="-0.91057">
        <ele>7</ele>
        <time>2018-06-30T18:52:37.000Z</time>
      </trkpt>
      <trkpt lat="45.90122" lon="-0.91055">
        <ele>7</ele>
        <time>2018-06-30T18:52:38.000Z</time>
      </trkpt>
      <trkpt lat="45.90122" lon="-0.91053">
        <ele>7</ele>
        <time>2018-06-30T18:52:39.000Z</time>
      </trkpt>
      <trkpt lat="45.90123" lon="-0.91052">
        <ele>7</ele>
        <time>2018-06-30T18:52:40.000Z</time>
      </trkpt>
      <trkpt lat="45.90123" lon="-0.9105">
        <ele>7</ele>
        <time>2018-06-30T18:52:41.000Z</time>
      </trkpt>
      <trkpt lat="45.90123" lon="-0.91048">
        <ele>7</ele>
        <time>2018-06-30T18:52:42.000Z</time>
      </trkpt>
      <trkpt lat="45.90123" lon="-0.91046">
        <ele>7</ele>
        <time>2018-06-30T18:52:43.000Z</time>
      </trkpt>
      <trkpt lat="45.90123" lon="-0.91045">
        <ele>7</ele>
        <time>2018-06-30T18:52:44.000Z</time>
      </trkpt>
      <trkpt lat="45.90124" lon="-0.91043">
        <ele>7</ele>
        <time>2018-06-30T18:52:45.000Z</time>
      </trkpt>
      <trkpt lat="45.90124" lon="-0.91041">
        <ele>7</ele>
        <time>2018-06-30T18:52:46.000Z</time>
      </trkpt>
      <trkpt lat="45.90124" lon="-0.91039">
        <ele>6</ele>
        <time>2018-06-30T18:52:47.000Z</time>
      </trkpt>
      <trkpt lat="45.90124" lon="-0.91038">
        <ele>7</ele>
        <time>2018-06-30T18:52:48.000Z</time>
      </trkpt>
      <trkpt lat="45.90124" lon="-0.91036">
        <ele>7</ele>
        <time>2018-06-30T18:52:49.000Z</time>
      </trkpt>
      <trkpt lat="45.90125" lon="-0.91035">
        <ele>7</ele>
        <time>2018-06-30T18:52:50.000Z</time>
      </trkpt>
      <trkpt lat="45.90125" lon="-0.91033">
        <ele>7</ele>
        <time>2018-06-30T18:52:51.000Z</time>
      </trkpt>
      <trkpt lat="45.90125" lon="-0.91031">
        <ele>8</ele>
        <time>2018-06-30T18:52:52.000Z</time>
      </trkpt>
      <trkpt lat="45.90126" lon="-0.91029">
        <ele>8</ele>
        <time>2018-06-30T18:52:53.000Z</time>
      </trkpt>
      <trkpt lat="45.90126" lon="-0.91028">
        <ele>8</ele>
        <time>2018-06-30T18:52:54.000Z</time>
      </trkpt>
      <trkpt lat="45.90126" lon="-0.91026">
        <ele>8</ele>
        <time>2018-06-30T18:52:55.000Z</time>
      </trkpt>
      <trkpt lat="45.90127" lon="-0.91024">
        <ele>8</ele>
        <time>2018-06-30T18:52:56.000Z</time>
      </trkpt>
      <trkpt lat="45.90127" lon="-0.91023">
        <ele>8</ele>
        <time>2018-06-30T18:52:57.000Z</time>
      </trkpt>
      <trkpt lat="45.90127" lon="-0.91021">
        <ele>8</ele>
        <time>2018-06-30T18:52:58.000Z</time>
      </trkpt>
      <trkpt lat="45.90127" lon="-0.91019">
        <ele>9</ele>
        <time>2018-06-30T18:52:59.000Z</time>
      </trkpt>
      <trkpt lat="45.90128" lon="-0.91018">
        <ele>9</ele>
        <time>2018-06-30T18:53:00.000Z</time>
      </trkpt>
      <trkpt lat="45.90128" lon="-0.91016">
        <ele>9</ele>
        <time>2018-06-30T18:53:01.000Z</time>
      </trkpt>
      <trkpt lat="45.90128" lon="-0.91014">
        <ele>9</ele>
        <time>2018-06-30T18:53:02.000Z</time>
      </trkpt>
      <trkpt lat="45.90128" lon="-0.91013">
        <ele>9</ele>
        <time>2018-06-30T18:53:03.000Z</time>
      </trkpt>
      <trkpt lat="45.90128" lon="-0.91011">
        <ele>9</ele>
        <time>2018-06-30T18:53:04.000Z</time>
      </trkpt>
      <trkpt lat="45.90128" lon="-0.9101">
        <ele>9</ele>
        <time>2018-06-30T18:53:05.000Z</time>
      </trkpt>
      <trkpt lat="45.90128" lon="-0.91008">
        <ele>9</ele>
        <time>2018-06-30T18:53:06.000Z</time>
      </trkpt>
      <trkpt lat="45.90128" lon="-0.91007">
        <ele>9</ele>
        <time>2018-06-30T18:53:07.000Z</time>
      </trkpt>
      <trkpt lat="45.90129" lon="-0.91005">
        <ele>8</ele>
        <time>2018-06-30T18:53:08.000Z</time>
      </trkpt>
      <trkpt lat="45.90129" lon="-0.91003">
        <ele>8</ele>
        <time>2018-06-30T18:53:09.000Z</time>
      </trkpt>
      <trkpt lat="45.90129" lon="-0.91002">
        <ele>8</ele>
        <time>2018-06-30T18:53:10.000Z</time>
      </trkpt>
      <trkpt lat="45.90129" lon="-0.91">
        <ele>8</ele>
        <time>2018-06-30T18:53:11.000Z</time>
      </trkpt>
      <trkpt lat="45.9013" lon="-0.90998">
        <ele>8</ele>
        <time>2018-06-30T18:53:12.000Z</time>
      </trkpt>
      <trkpt lat="45.9013" lon="-0.90997">
        <ele>8</ele>
        <time>2018-06-30T18:53:13.000Z</time>
      </trkpt>
      <trkpt lat="45.9013" lon="-0.90995">
        <ele>8</ele>
        <time>2018-06-30T18:53:14.000Z</time>
      </trkpt>
      <trkpt lat="45.9013" lon="-0.90993">
        <ele>9</ele>
        <time>2018-06-30T18:53:15.000Z</time>
      </trkpt>
      <trkpt lat="45.90131" lon="-0.90991">
        <ele>9</ele>
        <time>2018-06-30T18:53:16.000Z</time>
      </trkpt>
      <trkpt lat="45.90131" lon="-0.90989">
        <ele>9</ele>
        <time>2018-06-30T18:53:17.000Z</time>
      </trkpt>
      <trkpt lat="45.90131" lon="-0.90987">
        <ele>9</ele>
        <time>2018-06-30T18:53:18.000Z</time>
      </trkpt>
      <trkpt lat="45.90131" lon="-0.90986">
        <ele>9</ele>
        <time>2018-06-30T18:53:19.000Z</time>
      </trkpt>
      <trkpt lat="45.90131" lon="-0.90984">
        <ele>9</ele>
        <time>2018-06-30T18:53:20.000Z</time>
      </trkpt>
      <trkpt lat="45.90131" lon="-0.90982">
        <ele>9</ele>
        <time>2018-06-30T18:53:21.000Z</time>
      </trkpt>
      <trkpt lat="45.90131" lon="-0.90981">
        <ele>9</ele>
        <time>2018-06-30T18:53:22.000Z</time>
      </trkpt>
      <trkpt lat="45.90132" lon="-0.90979">
        <ele>9</ele>
        <time>2018-06-30T18:53:23.000Z</time>
      </trkpt>
      <trkpt lat="45.90132" lon="-0.90978">
        <ele>9</ele>
        <time>2018-06-30T18:53:24.000Z</time>
      </trkpt>
      <trkpt lat="45.90132" lon="-0.90976">
        <ele>9</ele>
        <time>2018-06-30T18:53:25.000Z</time>
      </trkpt>
      <trkpt lat="45.90132" lon="-0.90975">
        <ele>9</ele>
        <time>2018-06-30T18:53:26.000Z</time>
      </trkpt>
      <trkpt lat="45.90132" lon="-0.90973">
        <ele>9</ele>
        <time>2018-06-30T18:53:27.000Z</time>
      </trkpt>
      <trkpt lat="45.90133" lon="-0.90971">
        <ele>9</ele>
        <time>2018-06-30T18:53:28.000Z</time>
      </trkpt>
      <trkpt lat="45.90133" lon="-0.9097">
        <ele>9</ele>
        <time>2018-06-30T18:53:29.000Z</time>
      </trkpt>
      <trkpt lat="45.90133" lon="-0.90968">
        <ele>8</ele>
        <time>2018-06-30T18:53:30.000Z</time>
      </trkpt>
      <trkpt lat="45.90133" lon="-0.90966">
        <ele>8</ele>
        <time>2018-06-30T18:53:31.000Z</time>
      </trkpt>
      <trkpt lat="45.90133" lon="-0.90965">
        <ele>8</ele>
        <time>2018-06-30T18:53:32.000Z</time>
      </trkpt>
      <trkpt lat="45.90134" lon="-0.90963">
        <ele>8</ele>
        <time>2018-06-30T18:53:33.000Z</time>
      </trkpt>
      <trkpt lat="45.90134" lon="-0.90962">
        <ele>8</ele>
        <time>2018-06-30T18:53:34.000Z</time>
      </trkpt>
      <trkpt lat="45.90134" lon="-0.9096">
        <ele>8</ele>
        <time>2018-06-30T18:53:35.000Z</time>
      </trkpt>
      <trkpt lat="45.90134" lon="-0.90958">
        <ele>8</ele>
        <time>2018-06-30T18:53:36.000Z</time>
      </trkpt>
      <trkpt lat="45.90135" lon="-0.90957">
        <ele>8</ele>
        <time>2018-06-30T18:53:37.000Z</time>
      </trkpt>
      <trkpt lat="45.90135" lon="-0.90955">
        <ele>9</ele>
        <time>2018-06-30T18:53:38.000Z</time>
      </trkpt>
      <trkpt lat="45.90135" lon="-0.90953">
        <ele>9</ele>
        <time>2018-06-30T18:53:39.000Z</time>
      </trkpt>
      <trkpt lat="45.90136" lon="-0.90951">
        <ele>10</ele>
        <time>2018-06-30T18:53:40.000Z</time>
      </trkpt>
      <trkpt lat="45.90136" lon="-0.9095">
        <ele>10</ele>
        <time>2018-06-30T18:53:41.000Z</time>
      </trkpt>
      <trkpt lat="45.90137" lon="-0.90948">
        <ele>9</ele>
        <time>2018-06-30T18:53:42.000Z</time>
      </trkpt>
      <trkpt lat="45.90137" lon="-0.90946">
        <ele>9</ele>
        <time>2018-06-30T18:53:43.000Z</time>
      </trkpt>
      <trkpt lat="45.90137" lon="-0.90944">
        <ele>9</ele>
        <time>2018-06-30T18:53:44.000Z</time>
      </trkpt>
      <trkpt lat="45.90137" lon="-0.90943">
        <ele>9</ele>
        <time>2018-06-30T18:53:45.000Z</time>
      </trkpt>
      <trkpt lat="45.90137" lon="-0.90941">
        <ele>9</ele>
        <time>2018-06-30T18:53:46.000Z</time>
      </trkpt>
      <trkpt lat="45.90137" lon="-0.9094">
        <ele>9</ele>
        <time>2018-06-30T18:53:47.000Z</time>
      </trkpt>
      <trkpt lat="45.90138" lon="-0.90938">
        <ele>9</ele>
        <time>2018-06-30T18:53:48.000Z</time>
      </trkpt>
      <trkpt lat="45.90138" lon="-0.90936">
        <ele>9</ele>
        <time>2018-06-30T18:53:49.000Z</time>
      </trkpt>
      <trkpt lat="45.90138" lon="-0.90935">
        <ele>9</ele>
        <time>2018-06-30T18:53:50.000Z</time>
      </trkpt>
      <trkpt lat="45.90138" lon="-0.90933">
        <ele>8</ele>
        <time>2018-06-30T18:53:51.000Z</time>
      </trkpt>
      <trkpt lat="45.90138" lon="-0.90931">
        <ele>8</ele>
        <time>2018-06-30T18:53:52.000Z</time>
      </trkpt>
      <trkpt lat="45.90138" lon="-0.9093">
        <ele>8</ele>
        <time>2018-06-30T18:53:53.000Z</time>
      </trkpt>
      <trkpt lat="45.90139" lon="-0.90928">
        <ele>8</ele>
        <time>2018-06-30T18:53:54.000Z</time>
      </trkpt>
      <trkpt lat="45.90139" lon="-0.90927">
        <ele>8</ele>
        <time>2018-06-30T18:53:55.000Z</time>
      </trkpt>
      <trkpt lat="45.90139" lon="-0.90925">
        <ele>7</ele>
        <time>2018-06-30T18:53:56.000Z</time>
      </trkpt>
      <trkpt lat="45.90139" lon="-0.90923">
        <ele>7</ele>
        <time>2018-06-30T18:53:57.000Z</time>
      </trkpt>
      <trkpt lat="45.90139" lon="-0.90922">
        <ele>7</ele>
        <time>2018-06-30T18:53:58.000Z</time>
      </trkpt>
      <trkpt lat="45.90139" lon="-0.9092">
        <ele>7</ele>
        <time>2018-06-30T18:53:59.000Z</time>
      </trkpt>
      <trkpt lat="45.90139" lon="-0.90918">
        <ele>7</ele>
        <time>2018-06-30T18:54:00.000Z</time>
      </trkpt>
      <trkpt lat="45.90139" lon="-0.90917">
        <ele>7</ele>
        <time>2018-06-30T18:54:01.000Z</time>
      </trkpt>
      <trkpt lat="45.90139" lon="-0.90915">
        <ele>6</ele>
        <time>2018-06-30T18:54:02.000Z</time>
      </trkpt>
      <trkpt lat="45.90139" lon="-0.90912">
        <ele>6</ele>
        <time>2018-06-30T18:54:03.000Z</time>
      </trkpt>
      <trkpt lat="45.90138" lon="-0.9091">
        <ele>5</ele>
        <time>2018-06-30T18:54:04.000Z</time>
      </trkpt>
      <trkpt lat="45.90138" lon="-0.90909">
        <ele>5</ele>
        <time>2018-06-30T18:54:05.000Z</time>
      </trkpt>
      <trkpt lat="45.90138" lon="-0.90907">
        <ele>5</ele>
        <time>2018-06-30T18:54:06.000Z</time>
      </trkpt>
      <trkpt lat="45.90138" lon="-0.90905">
        <ele>5</ele>
        <time>2018-06-30T18:54:07.000Z</time>
      </trkpt>
      <trkpt lat="45.90138" lon="-0.90903">
        <ele>6</ele>
        <time>2018-06-30T18:54:08.000Z</time>
      </trkpt>
      <trkpt lat="45.90139" lon="-0.90902">
        <ele>6</ele>
        <time>2018-06-30T18:54:09.000Z</time>
      </trkpt>
      <trkpt lat="45.90139" lon="-0.909">
        <ele>6</ele>
        <time>2018-06-30T18:54:10.000Z</time>
      </trkpt>
      <trkpt lat="45.90139" lon="-0.90898">
        <ele>6</ele>
        <time>2018-06-30T18:54:11.000Z</time>
      </trkpt>
      <trkpt lat="45.9014" lon="-0.90897">
        <ele>7</ele>
        <time>2018-06-30T18:54:12.000Z</time>
      </trkpt>
      <trkpt lat="45.9014" lon="-0.90895">
        <ele>7</ele>
        <time>2018-06-30T18:54:13.000Z</time>
      </trkpt>
      <trkpt lat="45.9014" lon="-0.90894">
        <ele>8</ele>
        <time>2018-06-30T18:54:14.000Z</time>
      </trkpt>
      <trkpt lat="45.90141" lon="-0.90892">
        <ele>8</ele>
        <time>2018-06-30T18:54:15.000Z</time>
      </trkpt>
      <trkpt lat="45.90141" lon="-0.90891">
        <ele>8</ele>
        <time>2018-06-30T18:54:16.000Z</time>
      </trkpt>
      <trkpt lat="45.90141" lon="-0.90889">
        <ele>8</ele>
        <time>2018-06-30T18:54:17.000Z</time>
      </trkpt>
      <trkpt lat="45.90142" lon="-0.90887">
        <ele>8</ele>
        <time>2018-06-30T18:54:18.000Z</time>
      </trkpt>
      <trkpt lat="45.90142" lon="-0.90886">
        <ele>8</ele>
        <time>2018-06-30T18:54:19.000Z</time>
      </trkpt>
      <trkpt lat="45.90142" lon="-0.90884">
        <ele>8</ele>
        <time>2018-06-30T18:54:20.000Z</time>
      </trkpt>
      <trkpt lat="45.90143" lon="-0.90882">
        <ele>8</ele>
        <time>2018-06-30T18:54:21.000Z</time>
      </trkpt>
      <trkpt lat="45.90143" lon="-0.9088">
        <ele>9</ele>
        <time>2018-06-30T18:54:22.000Z</time>
      </trkpt>
      <trkpt lat="45.90143" lon="-0.90879">
        <ele>9</ele>
        <time>2018-06-30T18:54:23.000Z</time>
      </trkpt>
      <trkpt lat="45.90144" lon="-0.90877">
        <ele>10</ele>
        <time>2018-06-30T18:54:24.000Z</time>
      </trkpt>
      <trkpt lat="45.90144" lon="-0.90875">
        <ele>10</ele>
        <time>2018-06-30T18:54:25.000Z</time>
      </trkpt>
      <trkpt lat="45.90144" lon="-0.90874">
        <ele>10</ele>
        <time>2018-06-30T18:54:26.000Z</time>
      </trkpt>
      <trkpt lat="45.90144" lon="-0.90872">
        <ele>10</ele>
        <time>2018-06-30T18:54:27.000Z</time>
      </trkpt>
      <trkpt lat="45.90144" lon="-0.9087">
        <ele>10</ele>
        <time>2018-06-30T18:54:28.000Z</time>
      </trkpt>
      <trkpt lat="45.90145" lon="-0.90869">
        <ele>9</ele>
        <time>2018-06-30T18:54:29.000Z</time>
      </trkpt>
      <trkpt lat="45.90145" lon="-0.90867">
        <ele>10</ele>
        <time>2018-06-30T18:54:30.000Z</time>
      </trkpt>
      <trkpt lat="45.90145" lon="-0.90866">
        <ele>10</ele>
        <time>2018-06-30T18:54:31.000Z</time>
      </trkpt>
      <trkpt lat="45.90145" lon="-0.90864">
        <ele>10</ele>
        <time>2018-06-30T18:54:32.000Z</time>
      </trkpt>
      <trkpt lat="45.90146" lon="-0.90862">
        <ele>10</ele>
        <time>2018-06-30T18:54:33.000Z</time>
      </trkpt>
      <trkpt lat="45.90146" lon="-0.90861">
        <ele>10</ele>
        <time>2018-06-30T18:54:34.000Z</time>
      </trkpt>
      <trkpt lat="45.90146" lon="-0.90859">
        <ele>10</ele>
        <time>2018-06-30T18:54:35.000Z</time>
      </trkpt>
      <trkpt lat="45.90147" lon="-0.90858">
        <ele>11</ele>
        <time>2018-06-30T18:54:36.000Z</time>
      </trkpt>
      <trkpt lat="45.90147" lon="-0.90856">
        <ele>11</ele>
        <time>2018-06-30T18:54:37.000Z</time>
      </trkpt>
      <trkpt lat="45.90147" lon="-0.90855">
        <ele>11</ele>
        <time>2018-06-30T18:54:38.000Z</time>
      </trkpt>
      <trkpt lat="45.90148" lon="-0.90853">
        <ele>11</ele>
        <time>2018-06-30T18:54:39.000Z</time>
      </trkpt>
      <trkpt lat="45.90148" lon="-0.90852">
        <ele>11</ele>
        <time>2018-06-30T18:54:40.000Z</time>
      </trkpt>
      <trkpt lat="45.90148" lon="-0.90851">
        <ele>11</ele>
        <time>2018-06-30T18:54:41.000Z</time>
      </trkpt>
      <trkpt lat="45.90149" lon="-0.9085">
        <ele>11</ele>
        <time>2018-06-30T18:54:42.000Z</time>
      </trkpt>
      <trkpt lat="45.90149" lon="-0.90848">
        <ele>11</ele>
        <time>2018-06-30T18:54:43.000Z</time>
      </trkpt>
      <trkpt lat="45.90149" lon="-0.90847">
        <ele>11</ele>
        <time>2018-06-30T18:54:44.000Z</time>
      </trkpt>
      <trkpt lat="45.90149" lon="-0.90845">
        <ele>11</ele>
        <time>2018-06-30T18:54:45.000Z</time>
      </trkpt>
      <trkpt lat="45.90149" lon="-0.90844">
        <ele>11</ele>
        <time>2018-06-30T18:54:46.000Z</time>
      </trkpt>
      <trkpt lat="45.9015" lon="-0.90842">
        <ele>11</ele>
        <time>2018-06-30T18:54:47.000Z</time>
      </trkpt>
      <trkpt lat="45.9015" lon="-0.90841">
        <ele>11</ele>
        <time>2018-06-30T18:54:48.000Z</time>
      </trkpt>
      <trkpt lat="45.9015" lon="-0.90839">
        <ele>11</ele>
        <time>2018-06-30T18:54:49.000Z</time>
      </trkpt>
      <trkpt lat="45.90151" lon="-0.90837">
        <ele>11</ele>
        <time>2018-06-30T18:54:50.000Z</time>
      </trkpt>
      <trkpt lat="45.90151" lon="-0.90836">
        <ele>11</ele>
        <time>2018-06-30T18:54:51.000Z</time>
      </trkpt>
      <trkpt lat="45.90152" lon="-0.90834">
        <ele>11</ele>
        <time>2018-06-30T18:54:52.000Z</time>
      </trkpt>
      <trkpt lat="45.90152" lon="-0.90832">
        <ele>11</ele>
        <time>2018-06-30T18:54:53.000Z</time>
      </trkpt>
      <trkpt lat="45.90152" lon="-0.90831">
        <ele>11</ele>
        <time>2018-06-30T18:54:54.000Z</time>
      </trkpt>
      <trkpt lat="45.90152" lon="-0.90829">
        <ele>11</ele>
        <time>2018-06-30T18:54:55.000Z</time>
      </trkpt>
      <trkpt lat="45.90152" lon="-0.90828">
        <ele>11</ele>
        <time>2018-06-30T18:54:56.000Z</time>
      </trkpt>
      <trkpt lat="45.90152" lon="-0.90826">
        <ele>10</ele>
        <time>2018-06-30T18:54:57.000Z</time>
      </trkpt>
      <trkpt lat="45.90152" lon="-0.90824">
        <ele>11</ele>
        <time>2018-06-30T18:54:58.000Z</time>
      </trkpt>
      <trkpt lat="45.90152" lon="-0.90822">
        <ele>12</ele>
        <time>2018-06-30T18:54:59.000Z</time>
      </trkpt>
      <trkpt lat="45.90153" lon="-0.90819">
        <ele>12</ele>
        <time>2018-06-30T18:55:00.000Z</time>
      </trkpt>
      <trkpt lat="45.90153" lon="-0.90817">
        <ele>12</ele>
        <time>2018-06-30T18:55:01.000Z</time>
      </trkpt>
      <trkpt lat="45.90154" lon="-0.90815">
        <ele>12</ele>
        <time>2018-06-30T18:55:02.000Z</time>
      </trkpt>
      <trkpt lat="45.90154" lon="-0.90813">
        <ele>12</ele>
        <time>2018-06-30T18:55:03.000Z</time>
      </trkpt>
      <trkpt lat="45.90154" lon="-0.90811">
        <ele>12</ele>
        <time>2018-06-30T18:55:04.000Z</time>
      </trkpt>
      <trkpt lat="45.90154" lon="-0.90809">
        <ele>12</ele>
        <time>2018-06-30T18:55:05.000Z</time>
      </trkpt>
      <trkpt lat="45.90154" lon="-0.90808">
        <ele>12</ele>
        <time>2018-06-30T18:55:06.000Z</time>
      </trkpt>
      <trkpt lat="45.90154" lon="-0.90806">
        <ele>12</ele>
        <time>2018-06-30T18:55:07.000Z</time>
      </trkpt>
      <trkpt lat="45.90154" lon="-0.90804">
        <ele>12</ele>
        <time>2018-06-30T18:55:08.000Z</time>
      </trkpt>
      <trkpt lat="45.90154" lon="-0.90802">
        <ele>12</ele>
        <time>2018-06-30T18:55:09.000Z</time>
      </trkpt>
      <trkpt lat="45.90154" lon="-0.908">
        <ele>12</ele>
        <time>2018-06-30T18:55:10.000Z</time>
      </trkpt>
      <trkpt lat="45.90155" lon="-0.90798">
        <ele>13</ele>
        <time>2018-06-30T18:55:11.000Z</time>
      </trkpt>
      <trkpt lat="45.90155" lon="-0.90797">
        <ele>13</ele>
        <time>2018-06-30T18:55:12.000Z</time>
      </trkpt>
      <trkpt lat="45.90155" lon="-0.90795">
        <ele>13</ele>
        <time>2018-06-30T18:55:13.000Z</time>
      </trkpt>
      <trkpt lat="45.90156" lon="-0.90793">
        <ele>12</ele>
        <time>2018-06-30T18:55:14.000Z</time>
      </trkpt>
      <trkpt lat="45.90156" lon="-0.90792">
        <ele>13</ele>
        <time>2018-06-30T18:55:15.000Z</time>
      </trkpt>
      <trkpt lat="45.90156" lon="-0.9079">
        <ele>13</ele>
        <time>2018-06-30T18:55:16.000Z</time>
      </trkpt>
      <trkpt lat="45.90156" lon="-0.90789">
        <ele>13</ele>
        <time>2018-06-30T18:55:17.000Z</time>
      </trkpt>
      <trkpt lat="45.90157" lon="-0.90787">
        <ele>12</ele>
        <time>2018-06-30T18:55:18.000Z</time>
      </trkpt>
      <trkpt lat="45.90157" lon="-0.90786">
        <ele>12</ele>
        <time>2018-06-30T18:55:19.000Z</time>
      </trkpt>
      <trkpt lat="45.90157" lon="-0.90784">
        <ele>11</ele>
        <time>2018-06-30T18:55:20.000Z</time>
      </trkpt>
      <trkpt lat="45.90158" lon="-0.90783">
        <ele>11</ele>
        <time>2018-06-30T18:55:21.000Z</time>
      </trkpt>
      <trkpt lat="45.90158" lon="-0.90781">
        <ele>11</ele>
        <time>2018-06-30T18:55:22.000Z</time>
      </trkpt>
      <trkpt lat="45.90158" lon="-0.90779">
        <ele>11</ele>
        <time>2018-06-30T18:55:23.000Z</time>
      </trkpt>
      <trkpt lat="45.90158" lon="-0.90777">
        <ele>11</ele>
        <time>2018-06-30T18:55:24.000Z</time>
      </trkpt>
      <trkpt lat="45.90158" lon="-0.90775">
        <ele>11</ele>
        <time>2018-06-30T18:55:25.000Z</time>
      </trkpt>
      <trkpt lat="45.90159" lon="-0.90773">
        <ele>12</ele>
        <time>2018-06-30T18:55:26.000Z</time>
      </trkpt>
      <trkpt lat="45.90159" lon="-0.90771">
        <ele>12</ele>
        <time>2018-06-30T18:55:27.000Z</time>
      </trkpt>
      <trkpt lat="45.90159" lon="-0.90769">
        <ele>12</ele>
        <time>2018-06-30T18:55:28.000Z</time>
      </trkpt>
      <trkpt lat="45.9016" lon="-0.90768">
        <ele>12</ele>
        <time>2018-06-30T18:55:29.000Z</time>
      </trkpt>
      <trkpt lat="45.9016" lon="-0.90766">
        <ele>12</ele>
        <time>2018-06-30T18:55:30.000Z</time>
      </trkpt>
      <trkpt lat="45.9016" lon="-0.90764">
        <ele>12</ele>
        <time>2018-06-30T18:55:31.000Z</time>
      </trkpt>
      <trkpt lat="45.9016" lon="-0.90762">
        <ele>12</ele>
        <time>2018-06-30T18:55:32.000Z</time>
      </trkpt>
      <trkpt lat="45.90161" lon="-0.9076">
        <ele>12</ele>
        <time>2018-06-30T18:55:33.000Z</time>
      </trkpt>
      <trkpt lat="45.90161" lon="-0.90759">
        <ele>12</ele>
        <time>2018-06-30T18:55:34.000Z</time>
      </trkpt>
      <trkpt lat="45.90161" lon="-0.90757">
        <ele>11</ele>
        <time>2018-06-30T18:55:35.000Z</time>
      </trkpt>
      <trkpt lat="45.90161" lon="-0.90755">
        <ele>11</ele>
        <time>2018-06-30T18:55:36.000Z</time>
      </trkpt>
      <trkpt lat="45.90161" lon="-0.90753">
        <ele>11</ele>
        <time>2018-06-30T18:55:37.000Z</time>
      </trkpt>
      <trkpt lat="45.90162" lon="-0.90752">
        <ele>11</ele>
        <time>2018-06-30T18:55:38.000Z</time>
      </trkpt>
      <trkpt lat="45.90162" lon="-0.9075">
        <ele>11</ele>
        <time>2018-06-30T18:55:39.000Z</time>
      </trkpt>
      <trkpt lat="45.90162" lon="-0.90748">
        <ele>11</ele>
        <time>2018-06-30T18:55:40.000Z</time>
      </trkpt>
      <trkpt lat="45.90162" lon="-0.90746">
        <ele>11</ele>
        <time>2018-06-30T18:55:41.000Z</time>
      </trkpt>
      <trkpt lat="45.90163" lon="-0.90745">
        <ele>11</ele>
        <time>2018-06-30T18:55:42.000Z</time>
      </trkpt>
      <trkpt lat="45.90163" lon="-0.90743">
        <ele>11</ele>
        <time>2018-06-30T18:55:43.000Z</time>
      </trkpt>
      <trkpt lat="45.90163" lon="-0.90741">
        <ele>11</ele>
        <time>2018-06-30T18:55:44.000Z</time>
      </trkpt>
      <trkpt lat="45.90163" lon="-0.9074">
        <ele>11</ele>
        <time>2018-06-30T18:55:45.000Z</time>
      </trkpt>
      <trkpt lat="45.90164" lon="-0.90738">
        <ele>11</ele>
        <time>2018-06-30T18:55:46.000Z</time>
      </trkpt>
      <trkpt lat="45.90164" lon="-0.90736">
        <ele>11</ele>
        <time>2018-06-30T18:55:47.000Z</time>
      </trkpt>
      <trkpt lat="45.90164" lon="-0.90734">
        <ele>11</ele>
        <time>2018-06-30T18:55:48.000Z</time>
      </trkpt>
      <trkpt lat="45.90164" lon="-0.90732">
        <ele>11</ele>
        <time>2018-06-30T18:55:49.000Z</time>
      </trkpt>
      <trkpt lat="45.90165" lon="-0.90731">
        <ele>11</ele>
        <time>2018-06-30T18:55:50.000Z</time>
      </trkpt>
      <trkpt lat="45.90165" lon="-0.90729">
        <ele>12</ele>
        <time>2018-06-30T18:55:51.000Z</time>
      </trkpt>
      <trkpt lat="45.90165" lon="-0.90727">
        <ele>12</ele>
        <time>2018-06-30T18:55:52.000Z</time>
      </trkpt>
      <trkpt lat="45.90165" lon="-0.90726">
        <ele>12</ele>
        <time>2018-06-30T18:55:53.000Z</time>
      </trkpt>
      <trkpt lat="45.90165" lon="-0.90724">
        <ele>13</ele>
        <time>2018-06-30T18:55:54.000Z</time>
      </trkpt>
      <trkpt lat="45.90165" lon="-0.90722">
        <ele>12</ele>
        <time>2018-06-30T18:55:55.000Z</time>
      </trkpt>
      <trkpt lat="45.90166" lon="-0.9072">
        <ele>12</ele>
        <time>2018-06-30T18:55:56.000Z</time>
      </trkpt>
      <trkpt lat="45.90166" lon="-0.90719">
        <ele>13</ele>
        <time>2018-06-30T18:55:57.000Z</time>
      </trkpt>
      <trkpt lat="45.90166" lon="-0.90717">
        <ele>12</ele>
        <time>2018-06-30T18:55:58.000Z</time>
      </trkpt>
      <trkpt lat="45.90166" lon="-0.90716">
        <ele>13</ele>
        <time>2018-06-30T18:55:59.000Z</time>
      </trkpt>
      <trkpt lat="45.90166" lon="-0.90715">
        <ele>13</ele>
        <time>2018-06-30T18:56:00.000Z</time>
      </trkpt>
      <trkpt lat="45.90166" lon="-0.90713">
        <ele>14</ele>
        <time>2018-06-30T18:56:01.000Z</time>
      </trkpt>
      <trkpt lat="45.90166" lon="-0.90711">
        <ele>14</ele>
        <time>2018-06-30T18:56:02.000Z</time>
      </trkpt>
      <trkpt lat="45.90166" lon="-0.9071">
        <ele>13</ele>
        <time>2018-06-30T18:56:03.000Z</time>
      </trkpt>
      <trkpt lat="45.90166" lon="-0.90708">
        <ele>14</ele>
        <time>2018-06-30T18:56:04.000Z</time>
      </trkpt>
      <trkpt lat="45.90166" lon="-0.90707">
        <ele>14</ele>
        <time>2018-06-30T18:56:05.000Z</time>
      </trkpt>
      <trkpt lat="45.90166" lon="-0.90705">
        <ele>14</ele>
        <time>2018-06-30T18:56:06.000Z</time>
      </trkpt>
      <trkpt lat="45.90167" lon="-0.90704">
        <ele>13</ele>
        <time>2018-06-30T18:56:07.000Z</time>
      </trkpt>
      <trkpt lat="45.90167" lon="-0.90702">
        <ele>13</ele>
        <time>2018-06-30T18:56:08.000Z</time>
      </trkpt>
      <trkpt lat="45.90167" lon="-0.907">
        <ele>14</ele>
        <time>2018-06-30T18:56:09.000Z</time>
      </trkpt>
      <trkpt lat="45.90168" lon="-0.90698">
        <ele>14</ele>
        <time>2018-06-30T18:56:10.000Z</time>
      </trkpt>
      <trkpt lat="45.90168" lon="-0.90696">
        <ele>14</ele>
        <time>2018-06-30T18:56:11.000Z</time>
      </trkpt>
      <trkpt lat="45.90169" lon="-0.90695">
        <ele>14</ele>
        <time>2018-06-30T18:56:12.000Z</time>
      </trkpt>
      <trkpt lat="45.90169" lon="-0.90693">
        <ele>14</ele>
        <time>2018-06-30T18:56:13.000Z</time>
      </trkpt>
      <trkpt lat="45.9017" lon="-0.90691">
        <ele>14</ele>
        <time>2018-06-30T18:56:14.000Z</time>
      </trkpt>
      <trkpt lat="45.9017" lon="-0.9069">
        <ele>14</ele>
        <time>2018-06-30T18:56:15.000Z</time>
      </trkpt>
      <trkpt lat="45.9017" lon="-0.90688">
        <ele>15</ele>
        <time>2018-06-30T18:56:16.000Z</time>
      </trkpt>
      <trkpt lat="45.90171" lon="-0.90687">
        <ele>15</ele>
        <time>2018-06-30T18:56:17.000Z</time>
      </trkpt>
      <trkpt lat="45.90172" lon="-0.90685">
        <ele>14</ele>
        <time>2018-06-30T18:56:18.000Z</time>
      </trkpt>
      <trkpt lat="45.90172" lon="-0.90684">
        <ele>14</ele>
        <time>2018-06-30T18:56:19.000Z</time>
      </trkpt>
      <trkpt lat="45.90173" lon="-0.90682">
        <ele>14</ele>
        <time>2018-06-30T18:56:20.000Z</time>
      </trkpt>
      <trkpt lat="45.90173" lon="-0.9068">
        <ele>14</ele>
        <time>2018-06-30T18:56:21.000Z</time>
      </trkpt>
      <trkpt lat="45.90174" lon="-0.90678">
        <ele>14</ele>
        <time>2018-06-30T18:56:22.000Z</time>
      </trkpt>
      <trkpt lat="45.90174" lon="-0.90676">
        <ele>14</ele>
        <time>2018-06-30T18:56:23.000Z</time>
      </trkpt>
      <trkpt lat="45.90175" lon="-0.90674">
        <ele>14</ele>
        <time>2018-06-30T18:56:24.000Z</time>
      </trkpt>
      <trkpt lat="45.90175" lon="-0.90672">
        <ele>14</ele>
        <time>2018-06-30T18:56:25.000Z</time>
      </trkpt>
      <trkpt lat="45.90175" lon="-0.90671">
        <ele>14</ele>
        <time>2018-06-30T18:56:26.000Z</time>
      </trkpt>
      <trkpt lat="45.90175" lon="-0.90669">
        <ele>14</ele>
        <time>2018-06-30T18:56:27.000Z</time>
      </trkpt>
      <trkpt lat="45.90175" lon="-0.90667">
        <ele>14</ele>
        <time>2018-06-30T18:56:28.000Z</time>
      </trkpt>
      <trkpt lat="45.90175" lon="-0.90664">
        <ele>15</ele>
        <time>2018-06-30T18:56:29.000Z</time>
      </trkpt>
      <trkpt lat="45.90175" lon="-0.90662">
        <ele>15</ele>
        <time>2018-06-30T18:56:30.000Z</time>
      </trkpt>
      <trkpt lat="45.90175" lon="-0.9066">
        <ele>15</ele>
        <time>2018-06-30T18:56:31.000Z</time>
      </trkpt>
      <trkpt lat="45.90176" lon="-0.90658">
        <ele>15</ele>
        <time>2018-06-30T18:56:32.000Z</time>
      </trkpt>
      <trkpt lat="45.90176" lon="-0.90656">
        <ele>15</ele>
        <time>2018-06-30T18:56:33.000Z</time>
      </trkpt>
      <trkpt lat="45.90176" lon="-0.90654">
        <ele>15</ele>
        <time>2018-06-30T18:56:34.000Z</time>
      </trkpt>
      <trkpt lat="45.90176" lon="-0.90652">
        <ele>15</ele>
        <time>2018-06-30T18:56:35.000Z</time>
      </trkpt>
      <trkpt lat="45.90176" lon="-0.90651">
        <ele>16</ele>
        <time>2018-06-30T18:56:36.000Z</time>
      </trkpt>
      <trkpt lat="45.90176" lon="-0.90649">
        <ele>16</ele>
        <time>2018-06-30T18:56:37.000Z</time>
      </trkpt>
      <trkpt lat="45.90176" lon="-0.90647">
        <ele>16</ele>
        <time>2018-06-30T18:56:38.000Z</time>
      </trkpt>
      <trkpt lat="45.90177" lon="-0.90645">
        <ele>16</ele>
        <time>2018-06-30T18:56:39.000Z</time>
      </trkpt>
      <trkpt lat="45.90177" lon="-0.90643">
        <ele>16</ele>
        <time>2018-06-30T18:56:40.000Z</time>
      </trkpt>
      <trkpt lat="45.90177" lon="-0.90642">
        <ele>16</ele>
        <time>2018-06-30T18:56:41.000Z</time>
      </trkpt>
      <trkpt lat="45.90177" lon="-0.9064">
        <ele>16</ele>
        <time>2018-06-30T18:56:42.000Z</time>
      </trkpt>
      <trkpt lat="45.90177" lon="-0.90638">
        <ele>16</ele>
        <time>2018-06-30T18:56:43.000Z</time>
      </trkpt>
      <trkpt lat="45.90177" lon="-0.90636">
        <ele>16</ele>
        <time>2018-06-30T18:56:44.000Z</time>
      </trkpt>
      <trkpt lat="45.90177" lon="-0.90634">
        <ele>16</ele>
        <time>2018-06-30T18:56:45.000Z</time>
      </trkpt>
      <trkpt lat="45.90177" lon="-0.90633">
        <ele>16</ele>
        <time>2018-06-30T18:56:46.000Z</time>
      </trkpt>
      <trkpt lat="45.90178" lon="-0.90631">
        <ele>16</ele>
        <time>2018-06-30T18:56:47.000Z</time>
      </trkpt>
      <trkpt lat="45.90178" lon="-0.90629">
        <ele>17</ele>
        <time>2018-06-30T18:56:48.000Z</time>
      </trkpt>
      <trkpt lat="45.90178" lon="-0.90628">
        <ele>17</ele>
        <time>2018-06-30T18:56:49.000Z</time>
      </trkpt>
      <trkpt lat="45.90178" lon="-0.90626">
        <ele>17</ele>
        <time>2018-06-30T18:56:50.000Z</time>
      </trkpt>
      <trkpt lat="45.90178" lon="-0.90624">
        <ele>17</ele>
        <time>2018-06-30T18:56:51.000Z</time>
      </trkpt>
      <trkpt lat="45.90179" lon="-0.90623">
        <ele>17</ele>
        <time>2018-06-30T18:56:52.000Z</time>
      </trkpt>
      <trkpt lat="45.90179" lon="-0.90621">
        <ele>16</ele>
        <time>2018-06-30T18:56:53.000Z</time>
      </trkpt>
      <trkpt lat="45.90179" lon="-0.9062">
        <ele>16</ele>
        <time>2018-06-30T18:56:54.000Z</time>
      </trkpt>
      <trkpt lat="45.90179" lon="-0.90619">
        <ele>15</ele>
        <time>2018-06-30T18:56:55.000Z</time>
      </trkpt>
      <trkpt lat="45.90179" lon="-0.90617">
        <ele>15</ele>
        <time>2018-06-30T18:56:56.000Z</time>
      </trkpt>
      <trkpt lat="45.9018" lon="-0.90616">
        <ele>15</ele>
        <time>2018-06-30T18:56:57.000Z</time>
      </trkpt>
      <trkpt lat="45.9018" lon="-0.90614">
        <ele>15</ele>
        <time>2018-06-30T18:56:58.000Z</time>
      </trkpt>
      <trkpt lat="45.9018" lon="-0.90613">
        <ele>14</ele>
        <time>2018-06-30T18:56:59.000Z</time>
      </trkpt>
      <trkpt lat="45.9018" lon="-0.90612">
        <ele>14</ele>
        <time>2018-06-30T18:57:00.000Z</time>
      </trkpt>
      <trkpt lat="45.9018" lon="-0.90611">
        <ele>14</ele>
        <time>2018-06-30T18:57:01.000Z</time>
      </trkpt>
      <trkpt lat="45.90181" lon="-0.9061">
        <ele>14</ele>
        <time>2018-06-30T18:57:02.000Z</time>
      </trkpt>
      <trkpt lat="45.90181" lon="-0.90608">
        <ele>14</ele>
        <time>2018-06-30T18:57:03.000Z</time>
      </trkpt>
      <trkpt lat="45.90181" lon="-0.90606">
        <ele>16</ele>
        <time>2018-06-30T18:57:04.000Z</time>
      </trkpt>
      <trkpt lat="45.90181" lon="-0.90604">
        <ele>16</ele>
        <time>2018-06-30T18:57:05.000Z</time>
      </trkpt>
      <trkpt lat="45.90181" lon="-0.90602">
        <ele>16</ele>
        <time>2018-06-30T18:57:06.000Z</time>
      </trkpt>
      <trkpt lat="45.90182" lon="-0.906">
        <ele>16</ele>
        <time>2018-06-30T18:57:07.000Z</time>
      </trkpt>
      <trkpt lat="45.90182" lon="-0.90598">
        <ele>15</ele>
        <time>2018-06-30T18:57:08.000Z</time>
      </trkpt>
      <trkpt lat="45.90182" lon="-0.90596">
        <ele>15</ele>
        <time>2018-06-30T18:57:09.000Z</time>
      </trkpt>
      <trkpt lat="45.90183" lon="-0.90594">
        <ele>15</ele>
        <time>2018-06-30T18:57:10.000Z</time>
      </trkpt>
      <trkpt lat="45.90183" lon="-0.90592">
        <ele>15</ele>
        <time>2018-06-30T18:57:11.000Z</time>
      </trkpt>
      <trkpt lat="45.90183" lon="-0.90591">
        <ele>14</ele>
        <time>2018-06-30T18:57:12.000Z</time>
      </trkpt>
      <trkpt lat="45.90183" lon="-0.90589">
        <ele>14</ele>
        <time>2018-06-30T18:57:13.000Z</time>
      </trkpt>
      <trkpt lat="45.90183" lon="-0.90587">
        <ele>14</ele>
        <time>2018-06-30T18:57:14.000Z</time>
      </trkpt>
      <trkpt lat="45.90183" lon="-0.90585">
        <ele>15</ele>
        <time>2018-06-30T18:57:15.000Z</time>
      </trkpt>
      <trkpt lat="45.90183" lon="-0.90583">
        <ele>15</ele>
        <time>2018-06-30T18:57:16.000Z</time>
      </trkpt>
      <trkpt lat="45.90183" lon="-0.90581">
        <ele>14</ele>
        <time>2018-06-30T18:57:17.000Z</time>
      </trkpt>
      <trkpt lat="45.90183" lon="-0.9058">
        <ele>14</ele>
        <time>2018-06-30T18:57:18.000Z</time>
      </trkpt>
      <trkpt lat="45.90184" lon="-0.90578">
        <ele>14</ele>
        <time>2018-06-30T18:57:19.000Z</time>
      </trkpt>
      <trkpt lat="45.90184" lon="-0.90577">
        <ele>14</ele>
        <time>2018-06-30T18:57:20.000Z</time>
      </trkpt>
      <trkpt lat="45.90184" lon="-0.90575">
        <ele>14</ele>
        <time>2018-06-30T18:57:21.000Z</time>
      </trkpt>
      <trkpt lat="45.90184" lon="-0.90573">
        <ele>14</ele>
        <time>2018-06-30T18:57:22.000Z</time>
      </trkpt>
      <trkpt lat="45.90184" lon="-0.90572">
        <ele>13</ele>
        <time>2018-06-30T18:57:23.000Z</time>
      </trkpt>
      <trkpt lat="45.90184" lon="-0.9057">
        <ele>13</ele>
        <time>2018-06-30T18:57:24.000Z</time>
      </trkpt>
      <trkpt lat="45.90184" lon="-0.90569">
        <ele>13</ele>
        <time>2018-06-30T18:57:25.000Z</time>
      </trkpt>
      <trkpt lat="45.90184" lon="-0.90567">
        <ele>13</ele>
        <time>2018-06-30T18:57:26.000Z</time>
      </trkpt>
      <trkpt lat="45.90184" lon="-0.90566">
        <ele>13</ele>
        <time>2018-06-30T18:57:27.000Z</time>
      </trkpt>
      <trkpt lat="45.90185" lon="-0.90565">
        <ele>12</ele>
        <time>2018-06-30T18:57:28.000Z</time>
      </trkpt>
      <trkpt lat="45.90185" lon="-0.90564">
        <ele>12</ele>
        <time>2018-06-30T18:57:29.000Z</time>
      </trkpt>
      <trkpt lat="45.90185" lon="-0.90563">
        <ele>12</ele>
        <time>2018-06-30T18:57:30.000Z</time>
      </trkpt>
      <trkpt lat="45.90185" lon="-0.90561">
        <ele>12</ele>
        <time>2018-06-30T18:57:31.000Z</time>
      </trkpt>
      <trkpt lat="45.90186" lon="-0.9056">
        <ele>12</ele>
        <time>2018-06-30T18:57:32.000Z</time>
      </trkpt>
      <trkpt lat="45.90186" lon="-0.90558">
        <ele>13</ele>
        <time>2018-06-30T18:57:33.000Z</time>
      </trkpt>
      <trkpt lat="45.90186" lon="-0.90556">
        <ele>12</ele>
        <time>2018-06-30T18:57:34.000Z</time>
      </trkpt>
      <trkpt lat="45.90187" lon="-0.90555">
        <ele>12</ele>
        <time>2018-06-30T18:57:35.000Z</time>
      </trkpt>
      <trkpt lat="45.90187" lon="-0.90553">
        <ele>13</ele>
        <time>2018-06-30T18:57:36.000Z</time>
      </trkpt>
      <trkpt lat="45.90187" lon="-0.90552">
        <ele>14</ele>
        <time>2018-06-30T18:57:37.000Z</time>
      </trkpt>
      <trkpt lat="45.90188" lon="-0.9055">
        <ele>14</ele>
        <time>2018-06-30T18:57:38.000Z</time>
      </trkpt>
      <trkpt lat="45.90188" lon="-0.90548">
        <ele>14</ele>
        <time>2018-06-30T18:57:39.000Z</time>
      </trkpt>
      <trkpt lat="45.90189" lon="-0.90546">
        <ele>14</ele>
        <time>2018-06-30T18:57:40.000Z</time>
      </trkpt>
      <trkpt lat="45.90189" lon="-0.90544">
        <ele>14</ele>
        <time>2018-06-30T18:57:41.000Z</time>
      </trkpt>
      <trkpt lat="45.90189" lon="-0.90542">
        <ele>14</ele>
        <time>2018-06-30T18:57:42.000Z</time>
      </trkpt>
      <trkpt lat="45.90189" lon="-0.9054">
        <ele>14</ele>
        <time>2018-06-30T18:57:43.000Z</time>
      </trkpt>
      <trkpt lat="45.90189" lon="-0.90538">
        <ele>14</ele>
        <time>2018-06-30T18:57:44.000Z</time>
      </trkpt>
      <trkpt lat="45.90189" lon="-0.90537">
        <ele>14</ele>
        <time>2018-06-30T18:57:45.000Z</time>
      </trkpt>
      <trkpt lat="45.90189" lon="-0.90535">
        <ele>15</ele>
        <time>2018-06-30T18:57:46.000Z</time>
      </trkpt>
      <trkpt lat="45.90189" lon="-0.90533">
        <ele>15</ele>
        <time>2018-06-30T18:57:47.000Z</time>
      </trkpt>
      <trkpt lat="45.9019" lon="-0.90531">
        <ele>15</ele>
        <time>2018-06-30T18:57:48.000Z</time>
      </trkpt>
      <trkpt lat="45.9019" lon="-0.90529">
        <ele>14</ele>
        <time>2018-06-30T18:57:49.000Z</time>
      </trkpt>
      <trkpt lat="45.9019" lon="-0.90528">
        <ele>14</ele>
        <time>2018-06-30T18:57:50.000Z</time>
      </trkpt>
      <trkpt lat="45.9019" lon="-0.90526">
        <ele>14</ele>
        <time>2018-06-30T18:57:51.000Z</time>
      </trkpt>
      <trkpt lat="45.9019" lon="-0.90524">
        <ele>14</ele>
        <time>2018-06-30T18:57:52.000Z</time>
      </trkpt>
      <trkpt lat="45.9019" lon="-0.90523">
        <ele>14</ele>
        <time>2018-06-30T18:57:53.000Z</time>
      </trkpt>
      <trkpt lat="45.90191" lon="-0.90521">
        <ele>14</ele>
        <time>2018-06-30T18:57:54.000Z</time>
      </trkpt>
      <trkpt lat="45.90191" lon="-0.90519">
        <ele>14</ele>
        <time>2018-06-30T18:57:55.000Z</time>
      </trkpt>
      <trkpt lat="45.90191" lon="-0.90518">
        <ele>14</ele>
        <time>2018-06-30T18:57:56.000Z</time>
      </trkpt>
      <trkpt lat="45.90191" lon="-0.90516">
        <ele>14</ele>
        <time>2018-06-30T18:57:57.000Z</time>
      </trkpt>
      <trkpt lat="45.90192" lon="-0.90515">
        <ele>14</ele>
        <time>2018-06-30T18:57:58.000Z</time>
      </trkpt>
      <trkpt lat="45.90192" lon="-0.90514">
        <ele>13</ele>
        <time>2018-06-30T18:57:59.000Z</time>
      </trkpt>
      <trkpt lat="45.90192" lon="-0.90512">
        <ele>13</ele>
        <time>2018-06-30T18:58:00.000Z</time>
      </trkpt>
      <trkpt lat="45.90192" lon="-0.9051">
        <ele>13</ele>
        <time>2018-06-30T18:58:01.000Z</time>
      </trkpt>
      <trkpt lat="45.90192" lon="-0.90509">
        <ele>13</ele>
        <time>2018-06-30T18:58:02.000Z</time>
      </trkpt>
      <trkpt lat="45.90192" lon="-0.90507">
        <ele>14</ele>
        <time>2018-06-30T18:58:03.000Z</time>
      </trkpt>
      <trkpt lat="45.90193" lon="-0.90505">
        <ele>14</ele>
        <time>2018-06-30T18:58:04.000Z</time>
      </trkpt>
      <trkpt lat="45.90193" lon="-0.90503">
        <ele>13</ele>
        <time>2018-06-30T18:58:05.000Z</time>
      </trkpt>
      <trkpt lat="45.90193" lon="-0.90501">
        <ele>13</ele>
        <time>2018-06-30T18:58:06.000Z</time>
      </trkpt>
      <trkpt lat="45.90193" lon="-0.90499">
        <ele>14</ele>
        <time>2018-06-30T18:58:07.000Z</time>
      </trkpt>
      <trkpt lat="45.90194" lon="-0.90496">
        <ele>13</ele>
        <time>2018-06-30T18:58:08.000Z</time>
      </trkpt>
      <trkpt lat="45.90194" lon="-0.90495">
        <ele>13</ele>
        <time>2018-06-30T18:58:09.000Z</time>
      </trkpt>
      <trkpt lat="45.90194" lon="-0.90493">
        <ele>14</ele>
        <time>2018-06-30T18:58:10.000Z</time>
      </trkpt>
      <trkpt lat="45.90194" lon="-0.90491">
        <ele>14</ele>
        <time>2018-06-30T18:58:11.000Z</time>
      </trkpt>
      <trkpt lat="45.90195" lon="-0.90489">
        <ele>14</ele>
        <time>2018-06-30T18:58:12.000Z</time>
      </trkpt>
      <trkpt lat="45.90195" lon="-0.90488">
        <ele>14</ele>
        <time>2018-06-30T18:58:13.000Z</time>
      </trkpt>
      <trkpt lat="45.90195" lon="-0.90486">
        <ele>14</ele>
        <time>2018-06-30T18:58:14.000Z</time>
      </trkpt>
      <trkpt lat="45.90195" lon="-0.90485">
        <ele>14</ele>
        <time>2018-06-30T18:58:15.000Z</time>
      </trkpt>
      <trkpt lat="45.90196" lon="-0.90483">
        <ele>14</ele>
        <time>2018-06-30T18:58:16.000Z</time>
      </trkpt>
      <trkpt lat="45.90196" lon="-0.90481">
        <ele>15</ele>
        <time>2018-06-30T18:58:17.000Z</time>
      </trkpt>
      <trkpt lat="45.90196" lon="-0.90478">
        <ele>15</ele>
        <time>2018-06-30T18:58:18.000Z</time>
      </trkpt>
      <trkpt lat="45.90196" lon="-0.90476">
        <ele>15</ele>
        <time>2018-06-30T18:58:19.000Z</time>
      </trkpt>
      <trkpt lat="45.90197" lon="-0.90474">
        <ele>16</ele>
        <time>2018-06-30T18:58:20.000Z</time>
      </trkpt>
      <trkpt lat="45.90198" lon="-0.90472">
        <ele>16</ele>
        <time>2018-06-30T18:58:21.000Z</time>
      </trkpt>
      <trkpt lat="45.90198" lon="-0.90471">
        <ele>16</ele>
        <time>2018-06-30T18:58:22.000Z</time>
      </trkpt>
      <trkpt lat="45.90198" lon="-0.90469">
        <ele>16</ele>
        <time>2018-06-30T18:58:23.000Z</time>
      </trkpt>
      <trkpt lat="45.90198" lon="-0.90467">
        <ele>16</ele>
        <time>2018-06-30T18:58:24.000Z</time>
      </trkpt>
      <trkpt lat="45.90199" lon="-0.90465">
        <ele>16</ele>
        <time>2018-06-30T18:58:25.000Z</time>
      </trkpt>
      <trkpt lat="45.90199" lon="-0.90463">
        <ele>16</ele>
        <time>2018-06-30T18:58:26.000Z</time>
      </trkpt>
      <trkpt lat="45.90199" lon="-0.90461">
        <ele>16</ele>
        <time>2018-06-30T18:58:27.000Z</time>
      </trkpt>
      <trkpt lat="45.90199" lon="-0.90459">
        <ele>16</ele>
        <time>2018-06-30T18:58:28.000Z</time>
      </trkpt>
      <trkpt lat="45.90199" lon="-0.90457">
        <ele>16</ele>
        <time>2018-06-30T18:58:29.000Z</time>
      </trkpt>
      <trkpt lat="45.902" lon="-0.90455">
        <ele>16</ele>
        <time>2018-06-30T18:58:30.000Z</time>
      </trkpt>
      <trkpt lat="45.902" lon="-0.90454">
        <ele>16</ele>
        <time>2018-06-30T18:58:31.000Z</time>
      </trkpt>
      <trkpt lat="45.902" lon="-0.90452">
        <ele>16</ele>
        <time>2018-06-30T18:58:32.000Z</time>
      </trkpt>
      <trkpt lat="45.902" lon="-0.9045">
        <ele>16</ele>
        <time>2018-06-30T18:58:33.000Z</time>
      </trkpt>
      <trkpt lat="45.902" lon="-0.90449">
        <ele>16</ele>
        <time>2018-06-30T18:58:34.000Z</time>
      </trkpt>
      <trkpt lat="45.902" lon="-0.90447">
        <ele>16</ele>
        <time>2018-06-30T18:58:35.000Z</time>
      </trkpt>
      <trkpt lat="45.902" lon="-0.90445">
        <ele>16</ele>
        <time>2018-06-30T18:58:36.000Z</time>
      </trkpt>
      <trkpt lat="45.90201" lon="-0.90444">
        <ele>16</ele>
        <time>2018-06-30T18:58:37.000Z</time>
      </trkpt>
      <trkpt lat="45.90201" lon="-0.90442">
        <ele>16</ele>
        <time>2018-06-30T18:58:38.000Z</time>
      </trkpt>
      <trkpt lat="45.90201" lon="-0.9044">
        <ele>16</ele>
        <time>2018-06-30T18:58:39.000Z</time>
      </trkpt>
      <trkpt lat="45.90201" lon="-0.90438">
        <ele>16</ele>
        <time>2018-06-30T18:58:40.000Z</time>
      </trkpt>
      <trkpt lat="45.90201" lon="-0.90436">
        <ele>16</ele>
        <time>2018-06-30T18:58:41.000Z</time>
      </trkpt>
      <trkpt lat="45.90202" lon="-0.90434">
        <ele>16</ele>
        <time>2018-06-30T18:58:42.000Z</time>
      </trkpt>
      <trkpt lat="45.90202" lon="-0.90433">
        <ele>16</ele>
        <time>2018-06-30T18:58:43.000Z</time>
      </trkpt>
      <trkpt lat="45.90202" lon="-0.90431">
        <ele>16</ele>
        <time>2018-06-30T18:58:44.000Z</time>
      </trkpt>
      <trkpt lat="45.90202" lon="-0.90429">
        <ele>17</ele>
        <time>2018-06-30T18:58:45.000Z</time>
      </trkpt>
      <trkpt lat="45.90203" lon="-0.90428">
        <ele>17</ele>
        <time>2018-06-30T18:58:46.000Z</time>
      </trkpt>
      <trkpt lat="45.90203" lon="-0.90426">
        <ele>17</ele>
        <time>2018-06-30T18:58:47.000Z</time>
      </trkpt>
      <trkpt lat="45.90203" lon="-0.90424">
        <ele>17</ele>
        <time>2018-06-30T18:58:48.000Z</time>
      </trkpt>
      <trkpt lat="45.90203" lon="-0.90423">
        <ele>17</ele>
        <time>2018-06-30T18:58:49.000Z</time>
      </trkpt>
      <trkpt lat="45.90204" lon="-0.90421">
        <ele>17</ele>
        <time>2018-06-30T18:58:50.000Z</time>
      </trkpt>
      <trkpt lat="45.90204" lon="-0.90419">
        <ele>17</ele>
        <time>2018-06-30T18:58:51.000Z</time>
      </trkpt>
      <trkpt lat="45.90204" lon="-0.90418">
        <ele>17</ele>
        <time>2018-06-30T18:58:52.000Z</time>
      </trkpt>
      <trkpt lat="45.90204" lon="-0.90416">
        <ele>18</ele>
        <time>2018-06-30T18:58:53.000Z</time>
      </trkpt>
      <trkpt lat="45.90205" lon="-0.90414">
        <ele>18</ele>
        <time>2018-06-30T18:58:54.000Z</time>
      </trkpt>
      <trkpt lat="45.90205" lon="-0.90412">
        <ele>18</ele>
        <time>2018-06-30T18:58:55.000Z</time>
      </trkpt>
      <trkpt lat="45.90205" lon="-0.90411">
        <ele>17</ele>
        <time>2018-06-30T18:58:56.000Z</time>
      </trkpt>
      <trkpt lat="45.90205" lon="-0.90409">
        <ele>18</ele>
        <time>2018-06-30T18:58:57.000Z</time>
      </trkpt>
      <trkpt lat="45.90205" lon="-0.90408">
        <ele>17</ele>
        <time>2018-06-30T18:58:58.000Z</time>
      </trkpt>
      <trkpt lat="45.90205" lon="-0.90406">
        <ele>18</ele>
        <time>2018-06-30T18:58:59.000Z</time>
      </trkpt>
      <trkpt lat="45.90205" lon="-0.90405">
        <ele>18</ele>
        <time>2018-06-30T18:59:00.000Z</time>
      </trkpt>
      <trkpt lat="45.90206" lon="-0.90404">
        <ele>18</ele>
        <time>2018-06-30T18:59:01.000Z</time>
      </trkpt>
      <trkpt lat="45.90206" lon="-0.90402">
        <ele>18</ele>
        <time>2018-06-30T18:59:02.000Z</time>
      </trkpt>
      <trkpt lat="45.90206" lon="-0.90401">
        <ele>18</ele>
        <time>2018-06-30T18:59:03.000Z</time>
      </trkpt>
      <trkpt lat="45.90206" lon="-0.90399">
        <ele>17</ele>
        <time>2018-06-30T18:59:04.000Z</time>
      </trkpt>
      <trkpt lat="45.90206" lon="-0.90397">
        <ele>18</ele>
        <time>2018-06-30T18:59:05.000Z</time>
      </trkpt>
      <trkpt lat="45.90206" lon="-0.90395">
        <ele>17</ele>
        <time>2018-06-30T18:59:06.000Z</time>
      </trkpt>
      <trkpt lat="45.90207" lon="-0.90393">
        <ele>17</ele>
        <time>2018-06-30T18:59:07.000Z</time>
      </trkpt>
      <trkpt lat="45.90207" lon="-0.90392">
        <ele>17</ele>
        <time>2018-06-30T18:59:08.000Z</time>
      </trkpt>
      <trkpt lat="45.90207" lon="-0.9039">
        <ele>16</ele>
        <time>2018-06-30T18:59:09.000Z</time>
      </trkpt>
      <trkpt lat="45.90207" lon="-0.90389">
        <ele>16</ele>
        <time>2018-06-30T18:59:10.000Z</time>
      </trkpt>
      <trkpt lat="45.90207" lon="-0.90387">
        <ele>16</ele>
        <time>2018-06-30T18:59:11.000Z</time>
      </trkpt>
      <trkpt lat="45.90208" lon="-0.90386">
        <ele>16</ele>
        <time>2018-06-30T18:59:12.000Z</time>
      </trkpt>
      <trkpt lat="45.90208" lon="-0.90384">
        <ele>16</ele>
        <time>2018-06-30T18:59:13.000Z</time>
      </trkpt>
      <trkpt lat="45.90208" lon="-0.90382">
        <ele>16</ele>
        <time>2018-06-30T18:59:14.000Z</time>
      </trkpt>
      <trkpt lat="45.90208" lon="-0.90381">
        <ele>16</ele>
        <time>2018-06-30T18:59:15.000Z</time>
      </trkpt>
      <trkpt lat="45.90208" lon="-0.90379">
        <ele>16</ele>
        <time>2018-06-30T18:59:16.000Z</time>
      </trkpt>
      <trkpt lat="45.90209" lon="-0.90377">
        <ele>16</ele>
        <time>2018-06-30T18:59:17.000Z</time>
      </trkpt>
      <trkpt lat="45.90209" lon="-0.90376">
        <ele>16</ele>
        <time>2018-06-30T18:59:18.000Z</time>
      </trkpt>
      <trkpt lat="45.90209" lon="-0.90374">
        <ele>16</ele>
        <time>2018-06-30T18:59:19.000Z</time>
      </trkpt>
      <trkpt lat="45.90209" lon="-0.90372">
        <ele>16</ele>
        <time>2018-06-30T18:59:20.000Z</time>
      </trkpt>
      <trkpt lat="45.90209" lon="-0.9037">
        <ele>15</ele>
        <time>2018-06-30T18:59:21.000Z</time>
      </trkpt>
      <trkpt lat="45.90209" lon="-0.90369">
        <ele>15</ele>
        <time>2018-06-30T18:59:22.000Z</time>
      </trkpt>
      <trkpt lat="45.9021" lon="-0.90367">
        <ele>16</ele>
        <time>2018-06-30T18:59:23.000Z</time>
      </trkpt>
      <trkpt lat="45.9021" lon="-0.90365">
        <ele>15</ele>
        <time>2018-06-30T18:59:24.000Z</time>
      </trkpt>
      <trkpt lat="45.9021" lon="-0.90364">
        <ele>16</ele>
        <time>2018-06-30T18:59:25.000Z</time>
      </trkpt>
      <trkpt lat="45.9021" lon="-0.90362">
        <ele>16</ele>
        <time>2018-06-30T18:59:26.000Z</time>
      </trkpt>
      <trkpt lat="45.9021" lon="-0.9036">
        <ele>16</ele>
        <time>2018-06-30T18:59:27.000Z</time>
      </trkpt>
      <trkpt lat="45.9021" lon="-0.90359">
        <ele>16</ele>
        <time>2018-06-30T18:59:28.000Z</time>
      </trkpt>
      <trkpt lat="45.9021" lon="-0.90357">
        <ele>16</ele>
        <time>2018-06-30T18:59:29.000Z</time>
      </trkpt>
      <trkpt lat="45.90211" lon="-0.90355">
        <ele>17</ele>
        <time>2018-06-30T18:59:30.000Z</time>
      </trkpt>
      <trkpt lat="45.90211" lon="-0.90353">
        <ele>17</ele>
        <time>2018-06-30T18:59:31.000Z</time>
      </trkpt>
      <trkpt lat="45.90211" lon="-0.90352">
        <ele>17</ele>
        <time>2018-06-30T18:59:32.000Z</time>
      </trkpt>
      <trkpt lat="45.90212" lon="-0.9035">
        <ele>16</ele>
        <time>2018-06-30T18:59:33.000Z</time>
      </trkpt>
      <trkpt lat="45.90212" lon="-0.90349">
        <ele>16</ele>
        <time>2018-06-30T18:59:34.000Z</time>
      </trkpt>
      <trkpt lat="45.90212" lon="-0.90347">
        <ele>16</ele>
        <time>2018-06-30T18:59:35.000Z</time>
      </trkpt>
      <trkpt lat="45.90212" lon="-0.90346">
        <ele>16</ele>
        <time>2018-06-30T18:59:36.000Z</time>
      </trkpt>
      <trkpt lat="45.90213" lon="-0.90344">
        <ele>16</ele>
        <time>2018-06-30T18:59:37.000Z</time>
      </trkpt>
      <trkpt lat="45.90213" lon="-0.90342">
        <ele>16</ele>
        <time>2018-06-30T18:59:38.000Z</time>
      </trkpt>
      <trkpt lat="45.90213" lon="-0.90341">
        <ele>16</ele>
        <time>2018-06-30T18:59:39.000Z</time>
      </trkpt>
      <trkpt lat="45.90213" lon="-0.90339">
        <ele>16</ele>
        <time>2018-06-30T18:59:40.000Z</time>
      </trkpt>
      <trkpt lat="45.90213" lon="-0.90338">
        <ele>17</ele>
        <time>2018-06-30T18:59:41.000Z</time>
      </trkpt>
      <trkpt lat="45.90213" lon="-0.90336">
        <ele>17</ele>
        <time>2018-06-30T18:59:42.000Z</time>
      </trkpt>
      <trkpt lat="45.90214" lon="-0.90334">
        <ele>16</ele>
        <time>2018-06-30T18:59:43.000Z</time>
      </trkpt>
      <trkpt lat="45.90214" lon="-0.90333">
        <ele>17</ele>
        <time>2018-06-30T18:59:44.000Z</time>
      </trkpt>
      <trkpt lat="45.90214" lon="-0.90331">
        <ele>17</ele>
        <time>2018-06-30T18:59:45.000Z</time>
      </trkpt>
      <trkpt lat="45.90215" lon="-0.9033">
        <ele>17</ele>
        <time>2018-06-30T18:59:46.000Z</time>
      </trkpt>
      <trkpt lat="45.90215" lon="-0.90328">
        <ele>17</ele>
        <time>2018-06-30T18:59:47.000Z</time>
      </trkpt>
      <trkpt lat="45.90216" lon="-0.90327">
        <ele>17</ele>
        <time>2018-06-30T18:59:48.000Z</time>
      </trkpt>
      <trkpt lat="45.90216" lon="-0.90325">
        <ele>17</ele>
        <time>2018-06-30T18:59:49.000Z</time>
      </trkpt>
      <trkpt lat="45.90216" lon="-0.90324">
        <ele>17</ele>
        <time>2018-06-30T18:59:50.000Z</time>
      </trkpt>
      <trkpt lat="45.90217" lon="-0.90322">
        <ele>17</ele>
        <time>2018-06-30T18:59:51.000Z</time>
      </trkpt>
      <trkpt lat="45.90217" lon="-0.90321">
        <ele>17</ele>
        <time>2018-06-30T18:59:52.000Z</time>
      </trkpt>
      <trkpt lat="45.90217" lon="-0.90319">
        <ele>17</ele>
        <time>2018-06-30T18:59:53.000Z</time>
      </trkpt>
      <trkpt lat="45.90217" lon="-0.90317">
        <ele>17</ele>
        <time>2018-06-30T18:59:54.000Z</time>
      </trkpt>
      <trkpt lat="45.90217" lon="-0.90316">
        <ele>17</ele>
        <time>2018-06-30T18:59:55.000Z</time>
      </trkpt>
      <trkpt lat="45.90217" lon="-0.90314">
        <ele>18</ele>
        <time>2018-06-30T18:59:56.000Z</time>
      </trkpt>
      <trkpt lat="45.90217" lon="-0.90311">
        <ele>18</ele>
        <time>2018-06-30T18:59:57.000Z</time>
      </trkpt>
      <trkpt lat="45.90217" lon="-0.90309">
        <ele>18</ele>
        <time>2018-06-30T18:59:58.000Z</time>
      </trkpt>
      <trkpt lat="45.90217" lon="-0.90308">
        <ele>18</ele>
        <time>2018-06-30T18:59:59.000Z</time>
      </trkpt>
      <trkpt lat="45.90218" lon="-0.90306">
        <ele>18</ele>
        <time>2018-06-30T19:00:00.000Z</time>
      </trkpt>
      <trkpt lat="45.90218" lon="-0.90304">
        <ele>18</ele>
        <time>2018-06-30T19:00:01.000Z</time>
      </trkpt>
      <trkpt lat="45.90218" lon="-0.90303">
        <ele>18</ele>
        <time>2018-06-30T19:00:02.000Z</time>
      </trkpt>
      <trkpt lat="45.90218" lon="-0.90301">
        <ele>17</ele>
        <time>2018-06-30T19:00:03.000Z</time>
      </trkpt>
      <trkpt lat="45.90218" lon="-0.903">
        <ele>17</ele>
        <time>2018-06-30T19:00:04.000Z</time>
      </trkpt>
      <trkpt lat="45.90219" lon="-0.90298">
        <ele>18</ele>
        <time>2018-06-30T19:00:05.000Z</time>
      </trkpt>
      <trkpt lat="45.90219" lon="-0.90296">
        <ele>18</ele>
        <time>2018-06-30T19:00:06.000Z</time>
      </trkpt>
      <trkpt lat="45.90219" lon="-0.90295">
        <ele>18</ele>
        <time>2018-06-30T19:00:07.000Z</time>
      </trkpt>
      <trkpt lat="45.9022" lon="-0.90294">
        <ele>17</ele>
        <time>2018-06-30T19:00:08.000Z</time>
      </trkpt>
      <trkpt lat="45.9022" lon="-0.90292">
        <ele>17</ele>
        <time>2018-06-30T19:00:09.000Z</time>
      </trkpt>
      <trkpt lat="45.9022" lon="-0.90291">
        <ele>17</ele>
        <time>2018-06-30T19:00:10.000Z</time>
      </trkpt>
      <trkpt lat="45.9022" lon="-0.90289">
        <ele>17</ele>
        <time>2018-06-30T19:00:11.000Z</time>
      </trkpt>
      <trkpt lat="45.90221" lon="-0.90287">
        <ele>17</ele>
        <time>2018-06-30T19:00:12.000Z</time>
      </trkpt>
      <trkpt lat="45.90221" lon="-0.90285">
        <ele>17</ele>
        <time>2018-06-30T19:00:13.000Z</time>
      </trkpt>
      <trkpt lat="45.90221" lon="-0.90284">
        <ele>17</ele>
        <time>2018-06-30T19:00:14.000Z</time>
      </trkpt>
      <trkpt lat="45.90221" lon="-0.90282">
        <ele>16</ele>
        <time>2018-06-30T19:00:15.000Z</time>
      </trkpt>
      <trkpt lat="45.90221" lon="-0.90281">
        <ele>16</ele>
        <time>2018-06-30T19:00:16.000Z</time>
      </trkpt>
      <trkpt lat="45.90221" lon="-0.90279">
        <ele>16</ele>
        <time>2018-06-30T19:00:17.000Z</time>
      </trkpt>
      <trkpt lat="45.90222" lon="-0.90277">
        <ele>16</ele>
        <time>2018-06-30T19:00:18.000Z</time>
      </trkpt>
      <trkpt lat="45.90222" lon="-0.90275">
        <ele>16</ele>
        <time>2018-06-30T19:00:19.000Z</time>
      </trkpt>
      <trkpt lat="45.90222" lon="-0.90274">
        <ele>16</ele>
        <time>2018-06-30T19:00:20.000Z</time>
      </trkpt>
      <trkpt lat="45.90222" lon="-0.90272">
        <ele>16</ele>
        <time>2018-06-30T19:00:21.000Z</time>
      </trkpt>
      <trkpt lat="45.90223" lon="-0.9027">
        <ele>16</ele>
        <time>2018-06-30T19:00:22.000Z</time>
      </trkpt>
      <trkpt lat="45.90223" lon="-0.90269">
        <ele>15</ele>
        <time>2018-06-30T19:00:23.000Z</time>
      </trkpt>
      <trkpt lat="45.90223" lon="-0.90267">
        <ele>15</ele>
        <time>2018-06-30T19:00:24.000Z</time>
      </trkpt>
      <trkpt lat="45.90224" lon="-0.90265">
        <ele>15</ele>
        <time>2018-06-30T19:00:25.000Z</time>
      </trkpt>
      <trkpt lat="45.90224" lon="-0.90264">
        <ele>15</ele>
        <time>2018-06-30T19:00:26.000Z</time>
      </trkpt>
      <trkpt lat="45.90224" lon="-0.90262">
        <ele>15</ele>
        <time>2018-06-30T19:00:27.000Z</time>
      </trkpt>
      <trkpt lat="45.90224" lon="-0.9026">
        <ele>15</ele>
        <time>2018-06-30T19:00:28.000Z</time>
      </trkpt>
      <trkpt lat="45.90224" lon="-0.90258">
        <ele>15</ele>
        <time>2018-06-30T19:00:29.000Z</time>
      </trkpt>
      <trkpt lat="45.90224" lon="-0.90256">
        <ele>15</ele>
        <time>2018-06-30T19:00:30.000Z</time>
      </trkpt>
      <trkpt lat="45.90224" lon="-0.90254">
        <ele>15</ele>
        <time>2018-06-30T19:00:31.000Z</time>
      </trkpt>
      <trkpt lat="45.90225" lon="-0.90253">
        <ele>15</ele>
        <time>2018-06-30T19:00:32.000Z</time>
      </trkpt>
      <trkpt lat="45.90225" lon="-0.90251">
        <ele>16</ele>
        <time>2018-06-30T19:00:33.000Z</time>
      </trkpt>
      <trkpt lat="45.90225" lon="-0.90249">
        <ele>15</ele>
        <time>2018-06-30T19:00:34.000Z</time>
      </trkpt>
      <trkpt lat="45.90225" lon="-0.90248">
        <ele>15</ele>
        <time>2018-06-30T19:00:35.000Z</time>
      </trkpt>
      <trkpt lat="45.90226" lon="-0.90246">
        <ele>16</ele>
        <time>2018-06-30T19:00:36.000Z</time>
      </trkpt>
      <trkpt lat="45.90226" lon="-0.90244">
        <ele>16</ele>
        <time>2018-06-30T19:00:37.000Z</time>
      </trkpt>
      <trkpt lat="45.90226" lon="-0.90243">
        <ele>16</ele>
        <time>2018-06-30T19:00:38.000Z</time>
      </trkpt>
      <trkpt lat="45.90227" lon="-0.90241">
        <ele>16</ele>
        <time>2018-06-30T19:00:39.000Z</time>
      </trkpt>
      <trkpt lat="45.90227" lon="-0.90239">
        <ele>16</ele>
        <time>2018-06-30T19:00:40.000Z</time>
      </trkpt>
      <trkpt lat="45.90228" lon="-0.90237">
        <ele>16</ele>
        <time>2018-06-30T19:00:41.000Z</time>
      </trkpt>
      <trkpt lat="45.90228" lon="-0.90235">
        <ele>16</ele>
        <time>2018-06-30T19:00:42.000Z</time>
      </trkpt>
      <trkpt lat="45.90228" lon="-0.90233">
        <ele>17</ele>
        <time>2018-06-30T19:00:43.000Z</time>
      </trkpt>
      <trkpt lat="45.90228" lon="-0.90231">
        <ele>17</ele>
        <time>2018-06-30T19:00:44.000Z</time>
      </trkpt>
      <trkpt lat="45.90228" lon="-0.9023">
        <ele>17</ele>
        <time>2018-06-30T19:00:45.000Z</time>
      </trkpt>
      <trkpt lat="45.90229" lon="-0.90228">
        <ele>17</ele>
        <time>2018-06-30T19:00:46.000Z</time>
      </trkpt>
      <trkpt lat="45.90229" lon="-0.90227">
        <ele>17</ele>
        <time>2018-06-30T19:00:47.000Z</time>
      </trkpt>
      <trkpt lat="45.90229" lon="-0.90226">
        <ele>17</ele>
        <time>2018-06-30T19:00:48.000Z</time>
      </trkpt>
      <trkpt lat="45.90229" lon="-0.90225">
        <ele>17</ele>
        <time>2018-06-30T19:00:49.000Z</time>
      </trkpt>
      <trkpt lat="45.90229" lon="-0.90223">
        <ele>17</ele>
        <time>2018-06-30T19:00:50.000Z</time>
      </trkpt>
      <trkpt lat="45.90229" lon="-0.90222">
        <ele>17</ele>
        <time>2018-06-30T19:00:51.000Z</time>
      </trkpt>
      <trkpt lat="45.9023" lon="-0.9022">
        <ele>17</ele>
        <time>2018-06-30T19:00:52.000Z</time>
      </trkpt>
      <trkpt lat="45.9023" lon="-0.90219">
        <ele>17</ele>
        <time>2018-06-30T19:00:53.000Z</time>
      </trkpt>
      <trkpt lat="45.9023" lon="-0.90218">
        <ele>17</ele>
        <time>2018-06-30T19:00:54.000Z</time>
      </trkpt>
      <trkpt lat="45.9023" lon="-0.90216">
        <ele>17</ele>
        <time>2018-06-30T19:00:55.000Z</time>
      </trkpt>
      <trkpt lat="45.9023" lon="-0.90214">
        <ele>17</ele>
        <time>2018-06-30T19:00:56.000Z</time>
      </trkpt>
      <trkpt lat="45.9023" lon="-0.90213">
        <ele>17</ele>
        <time>2018-06-30T19:00:57.000Z</time>
      </trkpt>
      <trkpt lat="45.90231" lon="-0.90211">
        <ele>17</ele>
        <time>2018-06-30T19:00:58.000Z</time>
      </trkpt>
      <trkpt lat="45.90231" lon="-0.9021">
        <ele>17</ele>
        <time>2018-06-30T19:00:59.000Z</time>
      </trkpt>
      <trkpt lat="45.90231" lon="-0.90208">
        <ele>17</ele>
        <time>2018-06-30T19:01:00.000Z</time>
      </trkpt>
      <trkpt lat="45.90231" lon="-0.90206">
        <ele>17</ele>
        <time>2018-06-30T19:01:01.000Z</time>
      </trkpt>
      <trkpt lat="45.90231" lon="-0.90205">
        <ele>17</ele>
        <time>2018-06-30T19:01:02.000Z</time>
      </trkpt>
      <trkpt lat="45.90231" lon="-0.90203">
        <ele>17</ele>
        <time>2018-06-30T19:01:03.000Z</time>
      </trkpt>
      <trkpt lat="45.90232" lon="-0.90201">
        <ele>17</ele>
        <time>2018-06-30T19:01:04.000Z</time>
      </trkpt>
      <trkpt lat="45.90232" lon="-0.902">
        <ele>17</ele>
        <time>2018-06-30T19:01:05.000Z</time>
      </trkpt>
      <trkpt lat="45.90232" lon="-0.90198">
        <ele>17</ele>
        <time>2018-06-30T19:01:06.000Z</time>
      </trkpt>
      <trkpt lat="45.90232" lon="-0.90196">
        <ele>17</ele>
        <time>2018-06-30T19:01:07.000Z</time>
      </trkpt>
      <trkpt lat="45.90232" lon="-0.90195">
        <ele>17</ele>
        <time>2018-06-30T19:01:08.000Z</time>
      </trkpt>
      <trkpt lat="45.90233" lon="-0.90193">
        <ele>17</ele>
        <time>2018-06-30T19:01:09.000Z</time>
      </trkpt>
      <trkpt lat="45.90233" lon="-0.90191">
        <ele>17</ele>
        <time>2018-06-30T19:01:10.000Z</time>
      </trkpt>
      <trkpt lat="45.90233" lon="-0.9019">
        <ele>16</ele>
        <time>2018-06-30T19:01:11.000Z</time>
      </trkpt>
      <trkpt lat="45.90233" lon="-0.90188">
        <ele>16</ele>
        <time>2018-06-30T19:01:12.000Z</time>
      </trkpt>
      <trkpt lat="45.90233" lon="-0.90186">
        <ele>16</ele>
        <time>2018-06-30T19:01:13.000Z</time>
      </trkpt>
      <trkpt lat="45.90233" lon="-0.90185">
        <ele>17</ele>
        <time>2018-06-30T19:01:14.000Z</time>
      </trkpt>
      <trkpt lat="45.90233" lon="-0.90183">
        <ele>16</ele>
        <time>2018-06-30T19:01:15.000Z</time>
      </trkpt>
      <trkpt lat="45.90234" lon="-0.90181">
        <ele>16</ele>
        <time>2018-06-30T19:01:16.000Z</time>
      </trkpt>
      <trkpt lat="45.90234" lon="-0.9018">
        <ele>16</ele>
        <time>2018-06-30T19:01:17.000Z</time>
      </trkpt>
      <trkpt lat="45.90234" lon="-0.90178">
        <ele>16</ele>
        <time>2018-06-30T19:01:18.000Z</time>
      </trkpt>
      <trkpt lat="45.90234" lon="-0.90176">
        <ele>16</ele>
        <time>2018-06-30T19:01:19.000Z</time>
      </trkpt>
      <trkpt lat="45.90234" lon="-0.90175">
        <ele>16</ele>
        <time>2018-06-30T19:01:20.000Z</time>
      </trkpt>
      <trkpt lat="45.90234" lon="-0.90173">
        <ele>16</ele>
        <time>2018-06-30T19:01:21.000Z</time>
      </trkpt>
      <trkpt lat="45.90234" lon="-0.90171">
        <ele>16</ele>
        <time>2018-06-30T19:01:22.000Z</time>
      </trkpt>
      <trkpt lat="45.90234" lon="-0.9017">
        <ele>16</ele>
        <time>2018-06-30T19:01:23.000Z</time>
      </trkpt>
      <trkpt lat="45.90234" lon="-0.90168">
        <ele>16</ele>
        <time>2018-06-30T19:01:24.000Z</time>
      </trkpt>
      <trkpt lat="45.90234" lon="-0.90166">
        <ele>16</ele>
        <time>2018-06-30T19:01:25.000Z</time>
      </trkpt>
      <trkpt lat="45.90234" lon="-0.90164">
        <ele>16</ele>
        <time>2018-06-30T19:01:26.000Z</time>
      </trkpt>
      <trkpt lat="45.90234" lon="-0.90162">
        <ele>17</ele>
        <time>2018-06-30T19:01:27.000Z</time>
      </trkpt>
      <trkpt lat="45.90235" lon="-0.9016">
        <ele>17</ele>
        <time>2018-06-30T19:01:28.000Z</time>
      </trkpt>
      <trkpt lat="45.90235" lon="-0.90158">
        <ele>18</ele>
        <time>2018-06-30T19:01:29.000Z</time>
      </trkpt>
      <trkpt lat="45.90235" lon="-0.90156">
        <ele>18</ele>
        <time>2018-06-30T19:01:30.000Z</time>
      </trkpt>
      <trkpt lat="45.90235" lon="-0.90154">
        <ele>19</ele>
        <time>2018-06-30T19:01:31.000Z</time>
      </trkpt>
      <trkpt lat="45.90235" lon="-0.90152">
        <ele>19</ele>
        <time>2018-06-30T19:01:32.000Z</time>
      </trkpt>
      <trkpt lat="45.90236" lon="-0.9015">
        <ele>19</ele>
        <time>2018-06-30T19:01:33.000Z</time>
      </trkpt>
      <trkpt lat="45.90236" lon="-0.90148">
        <ele>19</ele>
        <time>2018-06-30T19:01:34.000Z</time>
      </trkpt>
      <trkpt lat="45.90236" lon="-0.90146">
        <ele>19</ele>
        <time>2018-06-30T19:01:35.000Z</time>
      </trkpt>
      <trkpt lat="45.90236" lon="-0.90144">
        <ele>18</ele>
        <time>2018-06-30T19:01:36.000Z</time>
      </trkpt>
      <trkpt lat="45.90236" lon="-0.90142">
        <ele>19</ele>
        <time>2018-06-30T19:01:37.000Z</time>
      </trkpt>
      <trkpt lat="45.90237" lon="-0.9014">
        <ele>19</ele>
        <time>2018-06-30T19:01:38.000Z</time>
      </trkpt>
      <trkpt lat="45.90237" lon="-0.90138">
        <ele>19</ele>
        <time>2018-06-30T19:01:39.000Z</time>
      </trkpt>
      <trkpt lat="45.90237" lon="-0.90136">
        <ele>19</ele>
        <time>2018-06-30T19:01:40.000Z</time>
      </trkpt>
      <trkpt lat="45.90237" lon="-0.90134">
        <ele>19</ele>
        <time>2018-06-30T19:01:41.000Z</time>
      </trkpt>
      <trkpt lat="45.90238" lon="-0.90132">
        <ele>19</ele>
        <time>2018-06-30T19:01:42.000Z</time>
      </trkpt>
      <trkpt lat="45.90238" lon="-0.90131">
        <ele>19</ele>
        <time>2018-06-30T19:01:43.000Z</time>
      </trkpt>
      <trkpt lat="45.90238" lon="-0.90129">
        <ele>20</ele>
        <time>2018-06-30T19:01:44.000Z</time>
      </trkpt>
      <trkpt lat="45.90239" lon="-0.90127">
        <ele>20</ele>
        <time>2018-06-30T19:01:45.000Z</time>
      </trkpt>
      <trkpt lat="45.90239" lon="-0.90125">
        <ele>20</ele>
        <time>2018-06-30T19:01:46.000Z</time>
      </trkpt>
      <trkpt lat="45.90239" lon="-0.90123">
        <ele>20</ele>
        <time>2018-06-30T19:01:47.000Z</time>
      </trkpt>
      <trkpt lat="45.90239" lon="-0.90122">
        <ele>20</ele>
        <time>2018-06-30T19:01:48.000Z</time>
      </trkpt>
      <trkpt lat="45.90239" lon="-0.9012">
        <ele>20</ele>
        <time>2018-06-30T19:01:49.000Z</time>
      </trkpt>
      <trkpt lat="45.9024" lon="-0.90118">
        <ele>20</ele>
        <time>2018-06-30T19:01:50.000Z</time>
      </trkpt>
      <trkpt lat="45.9024" lon="-0.90117">
        <ele>20</ele>
        <time>2018-06-30T19:01:51.000Z</time>
      </trkpt>
      <trkpt lat="45.9024" lon="-0.90115">
        <ele>19</ele>
        <time>2018-06-30T19:01:52.000Z</time>
      </trkpt>
      <trkpt lat="45.9024" lon="-0.90113">
        <ele>19</ele>
        <time>2018-06-30T19:01:53.000Z</time>
      </trkpt>
      <trkpt lat="45.9024" lon="-0.90112">
        <ele>19</ele>
        <time>2018-06-30T19:01:54.000Z</time>
      </trkpt>
      <trkpt lat="45.9024" lon="-0.9011">
        <ele>19</ele>
        <time>2018-06-30T19:01:55.000Z</time>
      </trkpt>
      <trkpt lat="45.90241" lon="-0.90108">
        <ele>19</ele>
        <time>2018-06-30T19:01:56.000Z</time>
      </trkpt>
      <trkpt lat="45.90241" lon="-0.90106">
        <ele>19</ele>
        <time>2018-06-30T19:01:57.000Z</time>
      </trkpt>
      <trkpt lat="45.90241" lon="-0.90105">
        <ele>19</ele>
        <time>2018-06-30T19:01:58.000Z</time>
      </trkpt>
      <trkpt lat="45.90241" lon="-0.90103">
        <ele>19</ele>
        <time>2018-06-30T19:01:59.000Z</time>
      </trkpt>
      <trkpt lat="45.90242" lon="-0.90102">
        <ele>19</ele>
        <time>2018-06-30T19:02:00.000Z</time>
      </trkpt>
      <trkpt lat="45.90242" lon="-0.90101">
        <ele>19</ele>
        <time>2018-06-30T19:02:01.000Z</time>
      </trkpt>
      <trkpt lat="45.90242" lon="-0.90099">
        <ele>19</ele>
        <time>2018-06-30T19:02:02.000Z</time>
      </trkpt>
      <trkpt lat="45.90242" lon="-0.90097">
        <ele>18</ele>
        <time>2018-06-30T19:02:03.000Z</time>
      </trkpt>
      <trkpt lat="45.90242" lon="-0.90096">
        <ele>19</ele>
        <time>2018-06-30T19:02:04.000Z</time>
      </trkpt>
      <trkpt lat="45.90242" lon="-0.90094">
        <ele>18</ele>
        <time>2018-06-30T19:02:05.000Z</time>
      </trkpt>
      <trkpt lat="45.90242" lon="-0.90092">
        <ele>19</ele>
        <time>2018-06-30T19:02:06.000Z</time>
      </trkpt>
      <trkpt lat="45.90243" lon="-0.9009">
        <ele>19</ele>
        <time>2018-06-30T19:02:07.000Z</time>
      </trkpt>
      <trkpt lat="45.90243" lon="-0.90088">
        <ele>19</ele>
        <time>2018-06-30T19:02:08.000Z</time>
      </trkpt>
      <trkpt lat="45.90243" lon="-0.90087">
        <ele>19</ele>
        <time>2018-06-30T19:02:09.000Z</time>
      </trkpt>
      <trkpt lat="45.90243" lon="-0.90085">
        <ele>19</ele>
        <time>2018-06-30T19:02:10.000Z</time>
      </trkpt>
      <trkpt lat="45.90243" lon="-0.90083">
        <ele>19</ele>
        <time>2018-06-30T19:02:11.000Z</time>
      </trkpt>
      <trkpt lat="45.90244" lon="-0.90082">
        <ele>19</ele>
        <time>2018-06-30T19:02:12.000Z</time>
      </trkpt>
      <trkpt lat="45.90244" lon="-0.9008">
        <ele>19</ele>
        <time>2018-06-30T19:02:13.000Z</time>
      </trkpt>
      <trkpt lat="45.90244" lon="-0.90078">
        <ele>19</ele>
        <time>2018-06-30T19:02:14.000Z</time>
      </trkpt>
      <trkpt lat="45.90244" lon="-0.90076">
        <ele>19</ele>
        <time>2018-06-30T19:02:15.000Z</time>
      </trkpt>
      <trkpt lat="45.90244" lon="-0.90074">
        <ele>19</ele>
        <time>2018-06-30T19:02:16.000Z</time>
      </trkpt>
      <trkpt lat="45.90244" lon="-0.90072">
        <ele>19</ele>
        <time>2018-06-30T19:02:17.000Z</time>
      </trkpt>
      <trkpt lat="45.90244" lon="-0.9007">
        <ele>19</ele>
        <time>2018-06-30T19:02:18.000Z</time>
      </trkpt>
      <trkpt lat="45.90244" lon="-0.90068">
        <ele>20</ele>
        <time>2018-06-30T19:02:19.000Z</time>
      </trkpt>
      <trkpt lat="45.90244" lon="-0.90066">
        <ele>20</ele>
        <time>2018-06-30T19:02:20.000Z</time>
      </trkpt>
      <trkpt lat="45.90244" lon="-0.90064">
        <ele>19</ele>
        <time>2018-06-30T19:02:21.000Z</time>
      </trkpt>
      <trkpt lat="45.90244" lon="-0.90062">
        <ele>19</ele>
        <time>2018-06-30T19:02:22.000Z</time>
      </trkpt>
      <trkpt lat="45.90244" lon="-0.90061">
        <ele>19</ele>
        <time>2018-06-30T19:02:23.000Z</time>
      </trkpt>
      <trkpt lat="45.90244" lon="-0.90059">
        <ele>19</ele>
        <time>2018-06-30T19:02:24.000Z</time>
      </trkpt>
      <trkpt lat="45.90245" lon="-0.90057">
        <ele>19</ele>
        <time>2018-06-30T19:02:25.000Z</time>
      </trkpt>
      <trkpt lat="45.90245" lon="-0.90055">
        <ele>19</ele>
        <time>2018-06-30T19:02:26.000Z</time>
      </trkpt>
      <trkpt lat="45.90245" lon="-0.90054">
        <ele>19</ele>
        <time>2018-06-30T19:02:27.000Z</time>
      </trkpt>
      <trkpt lat="45.90245" lon="-0.90052">
        <ele>18</ele>
        <time>2018-06-30T19:02:28.000Z</time>
      </trkpt>
      <trkpt lat="45.90245" lon="-0.9005">
        <ele>18</ele>
        <time>2018-06-30T19:02:29.000Z</time>
      </trkpt>
      <trkpt lat="45.90245" lon="-0.90048">
        <ele>18</ele>
        <time>2018-06-30T19:02:30.000Z</time>
      </trkpt>
      <trkpt lat="45.90245" lon="-0.90047">
        <ele>18</ele>
        <time>2018-06-30T19:02:31.000Z</time>
      </trkpt>
      <trkpt lat="45.90246" lon="-0.90045">
        <ele>18</ele>
        <time>2018-06-30T19:02:32.000Z</time>
      </trkpt>
      <trkpt lat="45.90246" lon="-0.90043">
        <ele>18</ele>
        <time>2018-06-30T19:02:33.000Z</time>
      </trkpt>
      <trkpt lat="45.90246" lon="-0.90041">
        <ele>18</ele>
        <time>2018-06-30T19:02:34.000Z</time>
      </trkpt>
      <trkpt lat="45.90246" lon="-0.90039">
        <ele>18</ele>
        <time>2018-06-30T19:02:35.000Z</time>
      </trkpt>
      <trkpt lat="45.90246" lon="-0.90038">
        <ele>18</ele>
        <time>2018-06-30T19:02:36.000Z</time>
      </trkpt>
      <trkpt lat="45.90246" lon="-0.90036">
        <ele>18</ele>
        <time>2018-06-30T19:02:37.000Z</time>
      </trkpt>
      <trkpt lat="45.90246" lon="-0.90034">
        <ele>18</ele>
        <time>2018-06-30T19:02:38.000Z</time>
      </trkpt>
      <trkpt lat="45.90246" lon="-0.90032">
        <ele>18</ele>
        <time>2018-06-30T19:02:39.000Z</time>
      </trkpt>
      <trkpt lat="45.90246" lon="-0.9003">
        <ele>18</ele>
        <time>2018-06-30T19:02:40.000Z</time>
      </trkpt>
      <trkpt lat="45.90246" lon="-0.90029">
        <ele>18</ele>
        <time>2018-06-30T19:02:41.000Z</time>
      </trkpt>
      <trkpt lat="45.90246" lon="-0.90027">
        <ele>18</ele>
        <time>2018-06-30T19:02:42.000Z</time>
      </trkpt>
      <trkpt lat="45.90246" lon="-0.90025">
        <ele>18</ele>
        <time>2018-06-30T19:02:43.000Z</time>
      </trkpt>
      <trkpt lat="45.90246" lon="-0.90023">
        <ele>17</ele>
        <time>2018-06-30T19:02:44.000Z</time>
      </trkpt>
      <trkpt lat="45.90246" lon="-0.90021">
        <ele>17</ele>
        <time>2018-06-30T19:02:45.000Z</time>
      </trkpt>
      <trkpt lat="45.90245" lon="-0.9002">
        <ele>17</ele>
        <time>2018-06-30T19:02:46.000Z</time>
      </trkpt>
      <trkpt lat="45.90245" lon="-0.90018">
        <ele>17</ele>
        <time>2018-06-30T19:02:47.000Z</time>
      </trkpt>
      <trkpt lat="45.90245" lon="-0.90017">
        <ele>16</ele>
        <time>2018-06-30T19:02:48.000Z</time>
      </trkpt>
      <trkpt lat="45.90245" lon="-0.90016">
        <ele>16</ele>
        <time>2018-06-30T19:02:49.000Z</time>
      </trkpt>
      <trkpt lat="45.90245" lon="-0.90014">
        <ele>16</ele>
        <time>2018-06-30T19:02:50.000Z</time>
      </trkpt>
      <trkpt lat="45.90245" lon="-0.90013">
        <ele>16</ele>
        <time>2018-06-30T19:02:51.000Z</time>
      </trkpt>
      <trkpt lat="45.90245" lon="-0.90012">
        <ele>16</ele>
        <time>2018-06-30T19:02:52.000Z</time>
      </trkpt>
      <trkpt lat="45.90245" lon="-0.9001">
        <ele>16</ele>
        <time>2018-06-30T19:02:53.000Z</time>
      </trkpt>
      <trkpt lat="45.90246" lon="-0.90008">
        <ele>16</ele>
        <time>2018-06-30T19:02:54.000Z</time>
      </trkpt>
      <trkpt lat="45.90246" lon="-0.90007">
        <ele>16</ele>
        <time>2018-06-30T19:02:55.000Z</time>
      </trkpt>
      <trkpt lat="45.90246" lon="-0.90005">
        <ele>16</ele>
        <time>2018-06-30T19:02:56.000Z</time>
      </trkpt>
      <trkpt lat="45.90246" lon="-0.90003">
        <ele>16</ele>
        <time>2018-06-30T19:02:57.000Z</time>
      </trkpt>
      <trkpt lat="45.90246" lon="-0.90001">
        <ele>16</ele>
        <time>2018-06-30T19:02:58.000Z</time>
      </trkpt>
      <trkpt lat="45.90246" lon="-0.9">
        <ele>16</ele>
        <time>2018-06-30T19:02:59.000Z</time>
      </trkpt>
      <trkpt lat="45.90246" lon="-0.89998">
        <ele>16</ele>
        <time>2018-06-30T19:03:00.000Z</time>
      </trkpt>
      <trkpt lat="45.90247" lon="-0.89996">
        <ele>17</ele>
        <time>2018-06-30T19:03:01.000Z</time>
      </trkpt>
      <trkpt lat="45.90247" lon="-0.89995">
        <ele>17</ele>
        <time>2018-06-30T19:03:02.000Z</time>
      </trkpt>
      <trkpt lat="45.90246" lon="-0.89993">
        <ele>17</ele>
        <time>2018-06-30T19:03:03.000Z</time>
      </trkpt>
      <trkpt lat="45.90246" lon="-0.89991">
        <ele>17</ele>
        <time>2018-06-30T19:03:04.000Z</time>
      </trkpt>
      <trkpt lat="45.90246" lon="-0.89989">
        <ele>17</ele>
        <time>2018-06-30T19:03:05.000Z</time>
      </trkpt>
      <trkpt lat="45.90246" lon="-0.89987">
        <ele>18</ele>
        <time>2018-06-30T19:03:06.000Z</time>
      </trkpt>
      <trkpt lat="45.90246" lon="-0.89986">
        <ele>18</ele>
        <time>2018-06-30T19:03:07.000Z</time>
      </trkpt>
      <trkpt lat="45.90246" lon="-0.89983">
        <ele>19</ele>
        <time>2018-06-30T19:03:08.000Z</time>
      </trkpt>
      <trkpt lat="45.90246" lon="-0.89982">
        <ele>19</ele>
        <time>2018-06-30T19:03:09.000Z</time>
      </trkpt>
      <trkpt lat="45.90246" lon="-0.89979">
        <ele>19</ele>
        <time>2018-06-30T19:03:10.000Z</time>
      </trkpt>
      <trkpt lat="45.90246" lon="-0.89978">
        <ele>19</ele>
        <time>2018-06-30T19:03:11.000Z</time>
      </trkpt>
      <trkpt lat="45.90246" lon="-0.89976">
        <ele>19</ele>
        <time>2018-06-30T19:03:12.000Z</time>
      </trkpt>
      <trkpt lat="45.90246" lon="-0.89974">
        <ele>19</ele>
        <time>2018-06-30T19:03:13.000Z</time>
      </trkpt>
      <trkpt lat="45.90246" lon="-0.89972">
        <ele>19</ele>
        <time>2018-06-30T19:03:14.000Z</time>
      </trkpt>
      <trkpt lat="45.90246" lon="-0.8997">
        <ele>19</ele>
        <time>2018-06-30T19:03:15.000Z</time>
      </trkpt>
      <trkpt lat="45.90246" lon="-0.89968">
        <ele>19</ele>
        <time>2018-06-30T19:03:16.000Z</time>
      </trkpt>
      <trkpt lat="45.90246" lon="-0.89966">
        <ele>20</ele>
        <time>2018-06-30T19:03:17.000Z</time>
      </trkpt>
      <trkpt lat="45.90246" lon="-0.89963">
        <ele>20</ele>
        <time>2018-06-30T19:03:18.000Z</time>
      </trkpt>
      <trkpt lat="45.90246" lon="-0.89961">
        <ele>19</ele>
        <time>2018-06-30T19:03:19.000Z</time>
      </trkpt>
      <trkpt lat="45.90246" lon="-0.8996">
        <ele>20</ele>
        <time>2018-06-30T19:03:20.000Z</time>
      </trkpt>
      <trkpt lat="45.90246" lon="-0.89958">
        <ele>20</ele>
        <time>2018-06-30T19:03:21.000Z</time>
      </trkpt>
      <trkpt lat="45.90246" lon="-0.89956">
        <ele>21</ele>
        <time>2018-06-30T19:03:22.000Z</time>
      </trkpt>
      <trkpt lat="45.90246" lon="-0.89954">
        <ele>21</ele>
        <time>2018-06-30T19:03:23.000Z</time>
      </trkpt>
      <trkpt lat="45.90246" lon="-0.89951">
        <ele>21</ele>
        <time>2018-06-30T19:03:24.000Z</time>
      </trkpt>
      <trkpt lat="45.90246" lon="-0.89949">
        <ele>20</ele>
        <time>2018-06-30T19:03:25.000Z</time>
      </trkpt>
      <trkpt lat="45.90246" lon="-0.89947">
        <ele>20</ele>
        <time>2018-06-30T19:03:26.000Z</time>
      </trkpt>
      <trkpt lat="45.90246" lon="-0.89945">
        <ele>20</ele>
        <time>2018-06-30T19:03:27.000Z</time>
      </trkpt>
      <trkpt lat="45.90246" lon="-0.89943">
        <ele>20</ele>
        <time>2018-06-30T19:03:28.000Z</time>
      </trkpt>
      <trkpt lat="45.90246" lon="-0.89941">
        <ele>19</ele>
        <time>2018-06-30T19:03:29.000Z</time>
      </trkpt>
      <trkpt lat="45.90246" lon="-0.8994">
        <ele>19</ele>
        <time>2018-06-30T19:03:30.000Z</time>
      </trkpt>
      <trkpt lat="45.90246" lon="-0.89938">
        <ele>20</ele>
        <time>2018-06-30T19:03:31.000Z</time>
      </trkpt>
      <trkpt lat="45.90246" lon="-0.89936">
        <ele>20</ele>
        <time>2018-06-30T19:03:32.000Z</time>
      </trkpt>
      <trkpt lat="45.90245" lon="-0.89934">
        <ele>19</ele>
        <time>2018-06-30T19:03:33.000Z</time>
      </trkpt>
      <trkpt lat="45.90246" lon="-0.89932">
        <ele>20</ele>
        <time>2018-06-30T19:03:34.000Z</time>
      </trkpt>
      <trkpt lat="45.90246" lon="-0.8993">
        <ele>20</ele>
        <time>2018-06-30T19:03:35.000Z</time>
      </trkpt>
      <trkpt lat="45.90246" lon="-0.89928">
        <ele>20</ele>
        <time>2018-06-30T19:03:36.000Z</time>
      </trkpt>
      <trkpt lat="45.90246" lon="-0.89927">
        <ele>20</ele>
        <time>2018-06-30T19:03:37.000Z</time>
      </trkpt>
      <trkpt lat="45.90246" lon="-0.89925">
        <ele>20</ele>
        <time>2018-06-30T19:03:38.000Z</time>
      </trkpt>
      <trkpt lat="45.90246" lon="-0.89923">
        <ele>20</ele>
        <time>2018-06-30T19:03:39.000Z</time>
      </trkpt>
      <trkpt lat="45.90246" lon="-0.89921">
        <ele>20</ele>
        <time>2018-06-30T19:03:40.000Z</time>
      </trkpt>
      <trkpt lat="45.90246" lon="-0.89919">
        <ele>20</ele>
        <time>2018-06-30T19:03:41.000Z</time>
      </trkpt>
      <trkpt lat="45.90247" lon="-0.89918">
        <ele>20</ele>
        <time>2018-06-30T19:03:42.000Z</time>
      </trkpt>
      <trkpt lat="45.90247" lon="-0.89916">
        <ele>21</ele>
        <time>2018-06-30T19:03:43.000Z</time>
      </trkpt>
      <trkpt lat="45.90248" lon="-0.89914">
        <ele>20</ele>
        <time>2018-06-30T19:03:44.000Z</time>
      </trkpt>
      <trkpt lat="45.90248" lon="-0.89913">
        <ele>20</ele>
        <time>2018-06-30T19:03:45.000Z</time>
      </trkpt>
      <trkpt lat="45.90248" lon="-0.89911">
        <ele>20</ele>
        <time>2018-06-30T19:03:46.000Z</time>
      </trkpt>
      <trkpt lat="45.90247" lon="-0.89909">
        <ele>20</ele>
        <time>2018-06-30T19:03:47.000Z</time>
      </trkpt>
      <trkpt lat="45.90247" lon="-0.89907">
        <ele>21</ele>
        <time>2018-06-30T19:03:48.000Z</time>
      </trkpt>
      <trkpt lat="45.90246" lon="-0.89905">
        <ele>21</ele>
        <time>2018-06-30T19:03:49.000Z</time>
      </trkpt>
      <trkpt lat="45.90246" lon="-0.89903">
        <ele>20</ele>
        <time>2018-06-30T19:03:50.000Z</time>
      </trkpt>
      <trkpt lat="45.90245" lon="-0.89901">
        <ele>19</ele>
        <time>2018-06-30T19:03:51.000Z</time>
      </trkpt>
      <trkpt lat="45.90245" lon="-0.89899">
        <ele>19</ele>
        <time>2018-06-30T19:03:52.000Z</time>
      </trkpt>
      <trkpt lat="45.90246" lon="-0.89897">
        <ele>19</ele>
        <time>2018-06-30T19:03:53.000Z</time>
      </trkpt>
      <trkpt lat="45.90246" lon="-0.89896">
        <ele>19</ele>
        <time>2018-06-30T19:03:54.000Z</time>
      </trkpt>
      <trkpt lat="45.90246" lon="-0.89894">
        <ele>19</ele>
        <time>2018-06-30T19:03:55.000Z</time>
      </trkpt>
      <trkpt lat="45.90246" lon="-0.89893">
        <ele>19</ele>
        <time>2018-06-30T19:03:56.000Z</time>
      </trkpt>
      <trkpt lat="45.90247" lon="-0.89891">
        <ele>19</ele>
        <time>2018-06-30T19:03:57.000Z</time>
      </trkpt>
      <trkpt lat="45.90247" lon="-0.89889">
        <ele>19</ele>
        <time>2018-06-30T19:03:58.000Z</time>
      </trkpt>
      <trkpt lat="45.90247" lon="-0.89887">
        <ele>18</ele>
        <time>2018-06-30T19:03:59.000Z</time>
      </trkpt>
      <trkpt lat="45.90247" lon="-0.89885">
        <ele>18</ele>
        <time>2018-06-30T19:04:00.000Z</time>
      </trkpt>
      <trkpt lat="45.90247" lon="-0.89883">
        <ele>18</ele>
        <time>2018-06-30T19:04:01.000Z</time>
      </trkpt>
      <trkpt lat="45.90247" lon="-0.89882">
        <ele>18</ele>
        <time>2018-06-30T19:04:02.000Z</time>
      </trkpt>
      <trkpt lat="45.90247" lon="-0.8988">
        <ele>18</ele>
        <time>2018-06-30T19:04:03.000Z</time>
      </trkpt>
      <trkpt lat="45.90247" lon="-0.89878">
        <ele>19</ele>
        <time>2018-06-30T19:04:04.000Z</time>
      </trkpt>
      <trkpt lat="45.90247" lon="-0.89876">
        <ele>19</ele>
        <time>2018-06-30T19:04:05.000Z</time>
      </trkpt>
      <trkpt lat="45.90247" lon="-0.89874">
        <ele>19</ele>
        <time>2018-06-30T19:04:06.000Z</time>
      </trkpt>
      <trkpt lat="45.90247" lon="-0.89872">
        <ele>19</ele>
        <time>2018-06-30T19:04:07.000Z</time>
      </trkpt>
      <trkpt lat="45.90247" lon="-0.89871">
        <ele>19</ele>
        <time>2018-06-30T19:04:08.000Z</time>
      </trkpt>
      <trkpt lat="45.90247" lon="-0.89869">
        <ele>19</ele>
        <time>2018-06-30T19:04:09.000Z</time>
      </trkpt>
      <trkpt lat="45.90247" lon="-0.89867">
        <ele>19</ele>
        <time>2018-06-30T19:04:10.000Z</time>
      </trkpt>
      <trkpt lat="45.90247" lon="-0.89866">
        <ele>19</ele>
        <time>2018-06-30T19:04:11.000Z</time>
      </trkpt>
      <trkpt lat="45.90246" lon="-0.89864">
        <ele>19</ele>
        <time>2018-06-30T19:04:12.000Z</time>
      </trkpt>
      <trkpt lat="45.90246" lon="-0.89862">
        <ele>19</ele>
        <time>2018-06-30T19:04:13.000Z</time>
      </trkpt>
      <trkpt lat="45.90246" lon="-0.8986">
        <ele>19</ele>
        <time>2018-06-30T19:04:14.000Z</time>
      </trkpt>
      <trkpt lat="45.90246" lon="-0.89859">
        <ele>20</ele>
        <time>2018-06-30T19:04:15.000Z</time>
      </trkpt>
      <trkpt lat="45.90246" lon="-0.89857">
        <ele>19</ele>
        <time>2018-06-30T19:04:16.000Z</time>
      </trkpt>
      <trkpt lat="45.90246" lon="-0.89855">
        <ele>19</ele>
        <time>2018-06-30T19:04:17.000Z</time>
      </trkpt>
      <trkpt lat="45.90246" lon="-0.89853">
        <ele>19</ele>
        <time>2018-06-30T19:04:18.000Z</time>
      </trkpt>
      <trkpt lat="45.90246" lon="-0.89852">
        <ele>19</ele>
        <time>2018-06-30T19:04:19.000Z</time>
      </trkpt>
      <trkpt lat="45.90246" lon="-0.8985">
        <ele>19</ele>
        <time>2018-06-30T19:04:20.000Z</time>
      </trkpt>
      <trkpt lat="45.90246" lon="-0.89848">
        <ele>19</ele>
        <time>2018-06-30T19:04:21.000Z</time>
      </trkpt>
      <trkpt lat="45.90246" lon="-0.89846">
        <ele>20</ele>
        <time>2018-06-30T19:04:22.000Z</time>
      </trkpt>
      <trkpt lat="45.90245" lon="-0.89845">
        <ele>20</ele>
        <time>2018-06-30T19:04:23.000Z</time>
      </trkpt>
      <trkpt lat="45.90245" lon="-0.89843">
        <ele>19</ele>
        <time>2018-06-30T19:04:24.000Z</time>
      </trkpt>
      <trkpt lat="45.90245" lon="-0.89841">
        <ele>19</ele>
        <time>2018-06-30T19:04:25.000Z</time>
      </trkpt>
      <trkpt lat="45.90245" lon="-0.8984">
        <ele>19</ele>
        <time>2018-06-30T19:04:26.000Z</time>
      </trkpt>
      <trkpt lat="45.90245" lon="-0.89838">
        <ele>20</ele>
        <time>2018-06-30T19:04:27.000Z</time>
      </trkpt>
      <trkpt lat="45.90245" lon="-0.89836">
        <ele>20</ele>
        <time>2018-06-30T19:04:28.000Z</time>
      </trkpt>
      <trkpt lat="45.90245" lon="-0.89834">
        <ele>20</ele>
        <time>2018-06-30T19:04:29.000Z</time>
      </trkpt>
      <trkpt lat="45.90244" lon="-0.89833">
        <ele>21</ele>
        <time>2018-06-30T19:04:30.000Z</time>
      </trkpt>
      <trkpt lat="45.90244" lon="-0.89831">
        <ele>21</ele>
        <time>2018-06-30T19:04:31.000Z</time>
      </trkpt>
      <trkpt lat="45.90244" lon="-0.89829">
        <ele>21</ele>
        <time>2018-06-30T19:04:32.000Z</time>
      </trkpt>
      <trkpt lat="45.90243" lon="-0.89827">
        <ele>21</ele>
        <time>2018-06-30T19:04:33.000Z</time>
      </trkpt>
      <trkpt lat="45.90243" lon="-0.89826">
        <ele>21</ele>
        <time>2018-06-30T19:04:34.000Z</time>
      </trkpt>
      <trkpt lat="45.90243" lon="-0.89824">
        <ele>20</ele>
        <time>2018-06-30T19:04:35.000Z</time>
      </trkpt>
      <trkpt lat="45.90243" lon="-0.89822">
        <ele>20</ele>
        <time>2018-06-30T19:04:36.000Z</time>
      </trkpt>
      <trkpt lat="45.90243" lon="-0.8982">
        <ele>20</ele>
        <time>2018-06-30T19:04:37.000Z</time>
      </trkpt>
      <trkpt lat="45.90242" lon="-0.89819">
        <ele>20</ele>
        <time>2018-06-30T19:04:38.000Z</time>
      </trkpt>
      <trkpt lat="45.90242" lon="-0.89817">
        <ele>20</ele>
        <time>2018-06-30T19:04:39.000Z</time>
      </trkpt>
      <trkpt lat="45.90242" lon="-0.89815">
        <ele>20</ele>
        <time>2018-06-30T19:04:40.000Z</time>
      </trkpt>
      <trkpt lat="45.90242" lon="-0.89813">
        <ele>20</ele>
        <time>2018-06-30T19:04:41.000Z</time>
      </trkpt>
      <trkpt lat="45.90242" lon="-0.89812">
        <ele>20</ele>
        <time>2018-06-30T19:04:42.000Z</time>
      </trkpt>
      <trkpt lat="45.90241" lon="-0.8981">
        <ele>20</ele>
        <time>2018-06-30T19:04:43.000Z</time>
      </trkpt>
      <trkpt lat="45.90241" lon="-0.89808">
        <ele>20</ele>
        <time>2018-06-30T19:04:44.000Z</time>
      </trkpt>
      <trkpt lat="45.90241" lon="-0.89807">
        <ele>20</ele>
        <time>2018-06-30T19:04:45.000Z</time>
      </trkpt>
      <trkpt lat="45.90241" lon="-0.89805">
        <ele>20</ele>
        <time>2018-06-30T19:04:46.000Z</time>
      </trkpt>
      <trkpt lat="45.90241" lon="-0.89804">
        <ele>20</ele>
        <time>2018-06-30T19:04:47.000Z</time>
      </trkpt>
      <trkpt lat="45.90241" lon="-0.89802">
        <ele>20</ele>
        <time>2018-06-30T19:04:48.000Z</time>
      </trkpt>
      <trkpt lat="45.90241" lon="-0.898">
        <ele>20</ele>
        <time>2018-06-30T19:04:49.000Z</time>
      </trkpt>
      <trkpt lat="45.90241" lon="-0.89799">
        <ele>20</ele>
        <time>2018-06-30T19:04:50.000Z</time>
      </trkpt>
      <trkpt lat="45.90241" lon="-0.89797">
        <ele>19</ele>
        <time>2018-06-30T19:04:51.000Z</time>
      </trkpt>
      <trkpt lat="45.9024" lon="-0.89795">
        <ele>19</ele>
        <time>2018-06-30T19:04:52.000Z</time>
      </trkpt>
      <trkpt lat="45.9024" lon="-0.89794">
        <ele>19</ele>
        <time>2018-06-30T19:04:53.000Z</time>
      </trkpt>
      <trkpt lat="45.9024" lon="-0.89792">
        <ele>19</ele>
        <time>2018-06-30T19:04:54.000Z</time>
      </trkpt>
      <trkpt lat="45.9024" lon="-0.8979">
        <ele>19</ele>
        <time>2018-06-30T19:04:55.000Z</time>
      </trkpt>
      <trkpt lat="45.9024" lon="-0.89789">
        <ele>19</ele>
        <time>2018-06-30T19:04:56.000Z</time>
      </trkpt>
      <trkpt lat="45.9024" lon="-0.89787">
        <ele>20</ele>
        <time>2018-06-30T19:04:57.000Z</time>
      </trkpt>
      <trkpt lat="45.9024" lon="-0.89786">
        <ele>20</ele>
        <time>2018-06-30T19:04:58.000Z</time>
      </trkpt>
      <trkpt lat="45.9024" lon="-0.89784">
        <ele>20</ele>
        <time>2018-06-30T19:04:59.000Z</time>
      </trkpt>
      <trkpt lat="45.90239" lon="-0.89783">
        <ele>19</ele>
        <time>2018-06-30T19:05:00.000Z</time>
      </trkpt>
      <trkpt lat="45.90239" lon="-0.89781">
        <ele>19</ele>
        <time>2018-06-30T19:05:01.000Z</time>
      </trkpt>
      <trkpt lat="45.90239" lon="-0.89779">
        <ele>19</ele>
        <time>2018-06-30T19:05:02.000Z</time>
      </trkpt>
      <trkpt lat="45.90239" lon="-0.89778">
        <ele>19</ele>
        <time>2018-06-30T19:05:03.000Z</time>
      </trkpt>
      <trkpt lat="45.90239" lon="-0.89776">
        <ele>19</ele>
        <time>2018-06-30T19:05:04.000Z</time>
      </trkpt>
      <trkpt lat="45.90239" lon="-0.89774">
        <ele>19</ele>
        <time>2018-06-30T19:05:05.000Z</time>
      </trkpt>
      <trkpt lat="45.90239" lon="-0.89773">
        <ele>19</ele>
        <time>2018-06-30T19:05:06.000Z</time>
      </trkpt>
      <trkpt lat="45.90238" lon="-0.89771">
        <ele>19</ele>
        <time>2018-06-30T19:05:07.000Z</time>
      </trkpt>
      <trkpt lat="45.90238" lon="-0.8977">
        <ele>19</ele>
        <time>2018-06-30T19:05:08.000Z</time>
      </trkpt>
      <trkpt lat="45.90238" lon="-0.89768">
        <ele>19</ele>
        <time>2018-06-30T19:05:09.000Z</time>
      </trkpt>
      <trkpt lat="45.90238" lon="-0.89766">
        <ele>19</ele>
        <time>2018-06-30T19:05:10.000Z</time>
      </trkpt>
      <trkpt lat="45.90238" lon="-0.89764">
        <ele>19</ele>
        <time>2018-06-30T19:05:11.000Z</time>
      </trkpt>
      <trkpt lat="45.90237" lon="-0.89763">
        <ele>19</ele>
        <time>2018-06-30T19:05:12.000Z</time>
      </trkpt>
      <trkpt lat="45.90237" lon="-0.89761">
        <ele>19</ele>
        <time>2018-06-30T19:05:13.000Z</time>
      </trkpt>
      <trkpt lat="45.90237" lon="-0.89759">
        <ele>19</ele>
        <time>2018-06-30T19:05:14.000Z</time>
      </trkpt>
      <trkpt lat="45.90237" lon="-0.89757">
        <ele>19</ele>
        <time>2018-06-30T19:05:15.000Z</time>
      </trkpt>
      <trkpt lat="45.90237" lon="-0.89756">
        <ele>19</ele>
        <time>2018-06-30T19:05:16.000Z</time>
      </trkpt>
      <trkpt lat="45.90236" lon="-0.89754">
        <ele>18</ele>
        <time>2018-06-30T19:05:17.000Z</time>
      </trkpt>
      <trkpt lat="45.90236" lon="-0.89752">
        <ele>18</ele>
        <time>2018-06-30T19:05:18.000Z</time>
      </trkpt>
      <trkpt lat="45.90236" lon="-0.8975">
        <ele>19</ele>
        <time>2018-06-30T19:05:19.000Z</time>
      </trkpt>
      <trkpt lat="45.90236" lon="-0.89749">
        <ele>19</ele>
        <time>2018-06-30T19:05:20.000Z</time>
      </trkpt>
      <trkpt lat="45.90236" lon="-0.89747">
        <ele>19</ele>
        <time>2018-06-30T19:05:21.000Z</time>
      </trkpt>
      <trkpt lat="45.90236" lon="-0.89745">
        <ele>19</ele>
        <time>2018-06-30T19:05:22.000Z</time>
      </trkpt>
      <trkpt lat="45.90235" lon="-0.89743">
        <ele>19</ele>
        <time>2018-06-30T19:05:23.000Z</time>
      </trkpt>
      <trkpt lat="45.90235" lon="-0.89741">
        <ele>19</ele>
        <time>2018-06-30T19:05:24.000Z</time>
      </trkpt>
      <trkpt lat="45.90235" lon="-0.8974">
        <ele>18</ele>
        <time>2018-06-30T19:05:25.000Z</time>
      </trkpt>
      <trkpt lat="45.90235" lon="-0.89738">
        <ele>19</ele>
        <time>2018-06-30T19:05:26.000Z</time>
      </trkpt>
      <trkpt lat="45.90234" lon="-0.89736">
        <ele>18</ele>
        <time>2018-06-30T19:05:27.000Z</time>
      </trkpt>
      <trkpt lat="45.90234" lon="-0.89735">
        <ele>19</ele>
        <time>2018-06-30T19:05:28.000Z</time>
      </trkpt>
      <trkpt lat="45.90234" lon="-0.89733">
        <ele>19</ele>
        <time>2018-06-30T19:05:29.000Z</time>
      </trkpt>
      <trkpt lat="45.90234" lon="-0.89731">
        <ele>19</ele>
        <time>2018-06-30T19:05:30.000Z</time>
      </trkpt>
      <trkpt lat="45.90233" lon="-0.89729">
        <ele>19</ele>
        <time>2018-06-30T19:05:31.000Z</time>
      </trkpt>
      <trkpt lat="45.90233" lon="-0.89727">
        <ele>19</ele>
        <time>2018-06-30T19:05:32.000Z</time>
      </trkpt>
      <trkpt lat="45.90233" lon="-0.89726">
        <ele>19</ele>
        <time>2018-06-30T19:05:33.000Z</time>
      </trkpt>
      <trkpt lat="45.90233" lon="-0.89724">
        <ele>19</ele>
        <time>2018-06-30T19:05:34.000Z</time>
      </trkpt>
      <trkpt lat="45.90232" lon="-0.89723">
        <ele>19</ele>
        <time>2018-06-30T19:05:35.000Z</time>
      </trkpt>
      <trkpt lat="45.90232" lon="-0.89721">
        <ele>19</ele>
        <time>2018-06-30T19:05:36.000Z</time>
      </trkpt>
      <trkpt lat="45.90232" lon="-0.8972">
        <ele>18</ele>
        <time>2018-06-30T19:05:37.000Z</time>
      </trkpt>
      <trkpt lat="45.90231" lon="-0.89719">
        <ele>18</ele>
        <time>2018-06-30T19:05:38.000Z</time>
      </trkpt>
      <trkpt lat="45.90231" lon="-0.89717">
        <ele>18</ele>
        <time>2018-06-30T19:05:39.000Z</time>
      </trkpt>
      <trkpt lat="45.90231" lon="-0.89716">
        <ele>18</ele>
        <time>2018-06-30T19:05:40.000Z</time>
      </trkpt>
      <trkpt lat="45.90231" lon="-0.89714">
        <ele>18</ele>
        <time>2018-06-30T19:05:41.000Z</time>
      </trkpt>
      <trkpt lat="45.90231" lon="-0.89712">
        <ele>18</ele>
        <time>2018-06-30T19:05:42.000Z</time>
      </trkpt>
      <trkpt lat="45.9023" lon="-0.8971">
        <ele>18</ele>
        <time>2018-06-30T19:05:43.000Z</time>
      </trkpt>
      <trkpt lat="45.9023" lon="-0.89709">
        <ele>19</ele>
        <time>2018-06-30T19:05:44.000Z</time>
      </trkpt>
      <trkpt lat="45.9023" lon="-0.89707">
        <ele>18</ele>
        <time>2018-06-30T19:05:45.000Z</time>
      </trkpt>
      <trkpt lat="45.90229" lon="-0.89705">
        <ele>18</ele>
        <time>2018-06-30T19:05:46.000Z</time>
      </trkpt>
      <trkpt lat="45.90229" lon="-0.89704">
        <ele>18</ele>
        <time>2018-06-30T19:05:47.000Z</time>
      </trkpt>
      <trkpt lat="45.90229" lon="-0.89702">
        <ele>18</ele>
        <time>2018-06-30T19:05:48.000Z</time>
      </trkpt>
      <trkpt lat="45.90228" lon="-0.89701">
        <ele>18</ele>
        <time>2018-06-30T19:05:49.000Z</time>
      </trkpt>
      <trkpt lat="45.90228" lon="-0.897">
        <ele>18</ele>
        <time>2018-06-30T19:05:50.000Z</time>
      </trkpt>
      <trkpt lat="45.90228" lon="-0.89698">
        <ele>18</ele>
        <time>2018-06-30T19:05:51.000Z</time>
      </trkpt>
      <trkpt lat="45.90228" lon="-0.89697">
        <ele>18</ele>
        <time>2018-06-30T19:05:52.000Z</time>
      </trkpt>
      <trkpt lat="45.90228" lon="-0.89695">
        <ele>18</ele>
        <time>2018-06-30T19:05:53.000Z</time>
      </trkpt>
      <trkpt lat="45.90228" lon="-0.89693">
        <ele>18</ele>
        <time>2018-06-30T19:05:54.000Z</time>
      </trkpt>
      <trkpt lat="45.90228" lon="-0.89691">
        <ele>18</ele>
        <time>2018-06-30T19:05:55.000Z</time>
      </trkpt>
      <trkpt lat="45.90227" lon="-0.8969">
        <ele>18</ele>
        <time>2018-06-30T19:05:56.000Z</time>
      </trkpt>
      <trkpt lat="45.90227" lon="-0.89688">
        <ele>19</ele>
        <time>2018-06-30T19:05:57.000Z</time>
      </trkpt>
      <trkpt lat="45.90227" lon="-0.89686">
        <ele>19</ele>
        <time>2018-06-30T19:05:58.000Z</time>
      </trkpt>
      <trkpt lat="45.90226" lon="-0.89684">
        <ele>19</ele>
        <time>2018-06-30T19:05:59.000Z</time>
      </trkpt>
      <trkpt lat="45.90226" lon="-0.89682">
        <ele>19</ele>
        <time>2018-06-30T19:06:00.000Z</time>
      </trkpt>
      <trkpt lat="45.90226" lon="-0.8968">
        <ele>19</ele>
        <time>2018-06-30T19:06:01.000Z</time>
      </trkpt>
      <trkpt lat="45.90226" lon="-0.89678">
        <ele>20</ele>
        <time>2018-06-30T19:06:02.000Z</time>
      </trkpt>
      <trkpt lat="45.90226" lon="-0.89676">
        <ele>20</ele>
        <time>2018-06-30T19:06:03.000Z</time>
      </trkpt>
      <trkpt lat="45.90226" lon="-0.89675">
        <ele>20</ele>
        <time>2018-06-30T19:06:04.000Z</time>
      </trkpt>
      <trkpt lat="45.90226" lon="-0.89673">
        <ele>20</ele>
        <time>2018-06-30T19:06:05.000Z</time>
      </trkpt>
      <trkpt lat="45.90225" lon="-0.89671">
        <ele>20</ele>
        <time>2018-06-30T19:06:06.000Z</time>
      </trkpt>
      <trkpt lat="45.90225" lon="-0.89669">
        <ele>19</ele>
        <time>2018-06-30T19:06:07.000Z</time>
      </trkpt>
      <trkpt lat="45.90225" lon="-0.89668">
        <ele>20</ele>
        <time>2018-06-30T19:06:08.000Z</time>
      </trkpt>
      <trkpt lat="45.90225" lon="-0.89666">
        <ele>20</ele>
        <time>2018-06-30T19:06:09.000Z</time>
      </trkpt>
      <trkpt lat="45.90224" lon="-0.89664">
        <ele>19</ele>
        <time>2018-06-30T19:06:10.000Z</time>
      </trkpt>
      <trkpt lat="45.90224" lon="-0.89662">
        <ele>19</ele>
        <time>2018-06-30T19:06:11.000Z</time>
      </trkpt>
      <trkpt lat="45.90224" lon="-0.8966">
        <ele>20</ele>
        <time>2018-06-30T19:06:12.000Z</time>
      </trkpt>
      <trkpt lat="45.90224" lon="-0.89659">
        <ele>20</ele>
        <time>2018-06-30T19:06:13.000Z</time>
      </trkpt>
      <trkpt lat="45.90224" lon="-0.89657">
        <ele>19</ele>
        <time>2018-06-30T19:06:14.000Z</time>
      </trkpt>
      <trkpt lat="45.90223" lon="-0.89656">
        <ele>19</ele>
        <time>2018-06-30T19:06:15.000Z</time>
      </trkpt>
      <trkpt lat="45.90223" lon="-0.89654">
        <ele>19</ele>
        <time>2018-06-30T19:06:16.000Z</time>
      </trkpt>
      <trkpt lat="45.90223" lon="-0.89653">
        <ele>19</ele>
        <time>2018-06-30T19:06:17.000Z</time>
      </trkpt>
      <trkpt lat="45.90223" lon="-0.89651">
        <ele>18</ele>
        <time>2018-06-30T19:06:18.000Z</time>
      </trkpt>
      <trkpt lat="45.90222" lon="-0.89649">
        <ele>18</ele>
        <time>2018-06-30T19:06:19.000Z</time>
      </trkpt>
      <trkpt lat="45.90222" lon="-0.89648">
        <ele>18</ele>
        <time>2018-06-30T19:06:20.000Z</time>
      </trkpt>
      <trkpt lat="45.90221" lon="-0.89646">
        <ele>18</ele>
        <time>2018-06-30T19:06:21.000Z</time>
      </trkpt>
      <trkpt lat="45.90221" lon="-0.89645">
        <ele>18</ele>
        <time>2018-06-30T19:06:22.000Z</time>
      </trkpt>
      <trkpt lat="45.90221" lon="-0.89643">
        <ele>18</ele>
        <time>2018-06-30T19:06:23.000Z</time>
      </trkpt>
      <trkpt lat="45.9022" lon="-0.89641">
        <ele>18</ele>
        <time>2018-06-30T19:06:24.000Z</time>
      </trkpt>
      <trkpt lat="45.90219" lon="-0.8964">
        <ele>18</ele>
        <time>2018-06-30T19:06:25.000Z</time>
      </trkpt>
      <trkpt lat="45.90219" lon="-0.89638">
        <ele>18</ele>
        <time>2018-06-30T19:06:26.000Z</time>
      </trkpt>
      <trkpt lat="45.90219" lon="-0.89636">
        <ele>18</ele>
        <time>2018-06-30T19:06:27.000Z</time>
      </trkpt>
      <trkpt lat="45.90218" lon="-0.89634">
        <ele>18</ele>
        <time>2018-06-30T19:06:28.000Z</time>
      </trkpt>
      <trkpt lat="45.90218" lon="-0.89633">
        <ele>18</ele>
        <time>2018-06-30T19:06:29.000Z</time>
      </trkpt>
      <trkpt lat="45.90218" lon="-0.89631">
        <ele>18</ele>
        <time>2018-06-30T19:06:30.000Z</time>
      </trkpt>
      <trkpt lat="45.90217" lon="-0.89629">
        <ele>18</ele>
        <time>2018-06-30T19:06:31.000Z</time>
      </trkpt>
      <trkpt lat="45.90217" lon="-0.89628">
        <ele>18</ele>
        <time>2018-06-30T19:06:32.000Z</time>
      </trkpt>
      <trkpt lat="45.90217" lon="-0.89626">
        <ele>18</ele>
        <time>2018-06-30T19:06:33.000Z</time>
      </trkpt>
      <trkpt lat="45.90216" lon="-0.89624">
        <ele>18</ele>
        <time>2018-06-30T19:06:34.000Z</time>
      </trkpt>
      <trkpt lat="45.90216" lon="-0.89623">
        <ele>18</ele>
        <time>2018-06-30T19:06:35.000Z</time>
      </trkpt>
      <trkpt lat="45.90215" lon="-0.89621">
        <ele>17</ele>
        <time>2018-06-30T19:06:36.000Z</time>
      </trkpt>
      <trkpt lat="45.90215" lon="-0.89619">
        <ele>17</ele>
        <time>2018-06-30T19:06:37.000Z</time>
      </trkpt>
      <trkpt lat="45.90215" lon="-0.89618">
        <ele>17</ele>
        <time>2018-06-30T19:06:38.000Z</time>
      </trkpt>
      <trkpt lat="45.90214" lon="-0.89616">
        <ele>17</ele>
        <time>2018-06-30T19:06:39.000Z</time>
      </trkpt>
      <trkpt lat="45.90214" lon="-0.89614">
        <ele>17</ele>
        <time>2018-06-30T19:06:40.000Z</time>
      </trkpt>
      <trkpt lat="45.90214" lon="-0.89613">
        <ele>17</ele>
        <time>2018-06-30T19:06:41.000Z</time>
      </trkpt>
      <trkpt lat="45.90214" lon="-0.89611">
        <ele>17</ele>
        <time>2018-06-30T19:06:42.000Z</time>
      </trkpt>
      <trkpt lat="45.90213" lon="-0.8961">
        <ele>16</ele>
        <time>2018-06-30T19:06:43.000Z</time>
      </trkpt>
      <trkpt lat="45.90213" lon="-0.89608">
        <ele>16</ele>
        <time>2018-06-30T19:06:44.000Z</time>
      </trkpt>
      <trkpt lat="45.90213" lon="-0.89607">
        <ele>16</ele>
        <time>2018-06-30T19:06:45.000Z</time>
      </trkpt>
      <trkpt lat="45.90213" lon="-0.89605">
        <ele>16</ele>
        <time>2018-06-30T19:06:46.000Z</time>
      </trkpt>
      <trkpt lat="45.90212" lon="-0.89604">
        <ele>16</ele>
        <time>2018-06-30T19:06:47.000Z</time>
      </trkpt>
      <trkpt lat="45.90212" lon="-0.89602">
        <ele>16</ele>
        <time>2018-06-30T19:06:48.000Z</time>
      </trkpt>
      <trkpt lat="45.90212" lon="-0.89601">
        <ele>16</ele>
        <time>2018-06-30T19:06:49.000Z</time>
      </trkpt>
      <trkpt lat="45.90212" lon="-0.89599">
        <ele>16</ele>
        <time>2018-06-30T19:06:50.000Z</time>
      </trkpt>
      <trkpt lat="45.90212" lon="-0.89597">
        <ele>16</ele>
        <time>2018-06-30T19:06:51.000Z</time>
      </trkpt>
      <trkpt lat="45.90211" lon="-0.89596">
        <ele>16</ele>
        <time>2018-06-30T19:06:52.000Z</time>
      </trkpt>
      <trkpt lat="45.90211" lon="-0.89594">
        <ele>16</ele>
        <time>2018-06-30T19:06:53.000Z</time>
      </trkpt>
      <trkpt lat="45.9021" lon="-0.89592">
        <ele>16</ele>
        <time>2018-06-30T19:06:54.000Z</time>
      </trkpt>
      <trkpt lat="45.9021" lon="-0.89591">
        <ele>16</ele>
        <time>2018-06-30T19:06:55.000Z</time>
      </trkpt>
      <trkpt lat="45.9021" lon="-0.89589">
        <ele>17</ele>
        <time>2018-06-30T19:06:56.000Z</time>
      </trkpt>
      <trkpt lat="45.9021" lon="-0.89587">
        <ele>16</ele>
        <time>2018-06-30T19:06:57.000Z</time>
      </trkpt>
      <trkpt lat="45.90209" lon="-0.89586">
        <ele>17</ele>
        <time>2018-06-30T19:06:58.000Z</time>
      </trkpt>
      <trkpt lat="45.90209" lon="-0.89584">
        <ele>17</ele>
        <time>2018-06-30T19:06:59.000Z</time>
      </trkpt>
      <trkpt lat="45.90209" lon="-0.89582">
        <ele>17</ele>
        <time>2018-06-30T19:07:00.000Z</time>
      </trkpt>
      <trkpt lat="45.90209" lon="-0.89581">
        <ele>17</ele>
        <time>2018-06-30T19:07:01.000Z</time>
      </trkpt>
      <trkpt lat="45.90208" lon="-0.89579">
        <ele>17</ele>
        <time>2018-06-30T19:07:02.000Z</time>
      </trkpt>
      <trkpt lat="45.90208" lon="-0.89577">
        <ele>17</ele>
        <time>2018-06-30T19:07:03.000Z</time>
      </trkpt>
      <trkpt lat="45.90207" lon="-0.89575">
        <ele>17</ele>
        <time>2018-06-30T19:07:04.000Z</time>
      </trkpt>
      <trkpt lat="45.90207" lon="-0.89574">
        <ele>17</ele>
        <time>2018-06-30T19:07:05.000Z</time>
      </trkpt>
      <trkpt lat="45.90206" lon="-0.89572">
        <ele>17</ele>
        <time>2018-06-30T19:07:06.000Z</time>
      </trkpt>
      <trkpt lat="45.90206" lon="-0.89571">
        <ele>17</ele>
        <time>2018-06-30T19:07:07.000Z</time>
      </trkpt>
      <trkpt lat="45.90206" lon="-0.89569">
        <ele>17</ele>
        <time>2018-06-30T19:07:08.000Z</time>
      </trkpt>
      <trkpt lat="45.90205" lon="-0.89568">
        <ele>17</ele>
        <time>2018-06-30T19:07:09.000Z</time>
      </trkpt>
      <trkpt lat="45.90205" lon="-0.89566">
        <ele>17</ele>
        <time>2018-06-30T19:07:10.000Z</time>
      </trkpt>
      <trkpt lat="45.90205" lon="-0.89565">
        <ele>17</ele>
        <time>2018-06-30T19:07:11.000Z</time>
      </trkpt>
      <trkpt lat="45.90204" lon="-0.89563">
        <ele>17</ele>
        <time>2018-06-30T19:07:12.000Z</time>
      </trkpt>
      <trkpt lat="45.90204" lon="-0.89561">
        <ele>17</ele>
        <time>2018-06-30T19:07:13.000Z</time>
      </trkpt>
      <trkpt lat="45.90203" lon="-0.8956">
        <ele>16</ele>
        <time>2018-06-30T19:07:14.000Z</time>
      </trkpt>
      <trkpt lat="45.90203" lon="-0.89558">
        <ele>16</ele>
        <time>2018-06-30T19:07:15.000Z</time>
      </trkpt>
      <trkpt lat="45.90202" lon="-0.89557">
        <ele>16</ele>
        <time>2018-06-30T19:07:16.000Z</time>
      </trkpt>
      <trkpt lat="45.90202" lon="-0.89555">
        <ele>16</ele>
        <time>2018-06-30T19:07:17.000Z</time>
      </trkpt>
      <trkpt lat="45.90202" lon="-0.89554">
        <ele>15</ele>
        <time>2018-06-30T19:07:18.000Z</time>
      </trkpt>
      <trkpt lat="45.90201" lon="-0.89552">
        <ele>15</ele>
        <time>2018-06-30T19:07:19.000Z</time>
      </trkpt>
      <trkpt lat="45.90201" lon="-0.89551">
        <ele>16</ele>
        <time>2018-06-30T19:07:20.000Z</time>
      </trkpt>
      <trkpt lat="45.90201" lon="-0.8955">
        <ele>16</ele>
        <time>2018-06-30T19:07:21.000Z</time>
      </trkpt>
      <trkpt lat="45.902" lon="-0.89548">
        <ele>16</ele>
        <time>2018-06-30T19:07:22.000Z</time>
      </trkpt>
      <trkpt lat="45.902" lon="-0.89546">
        <ele>16</ele>
        <time>2018-06-30T19:07:23.000Z</time>
      </trkpt>
      <trkpt lat="45.902" lon="-0.89545">
        <ele>16</ele>
        <time>2018-06-30T19:07:24.000Z</time>
      </trkpt>
      <trkpt lat="45.902" lon="-0.89543">
        <ele>16</ele>
        <time>2018-06-30T19:07:25.000Z</time>
      </trkpt>
      <trkpt lat="45.90199" lon="-0.89542">
        <ele>16</ele>
        <time>2018-06-30T19:07:26.000Z</time>
      </trkpt>
      <trkpt lat="45.90199" lon="-0.8954">
        <ele>16</ele>
        <time>2018-06-30T19:07:27.000Z</time>
      </trkpt>
      <trkpt lat="45.90199" lon="-0.89538">
        <ele>16</ele>
        <time>2018-06-30T19:07:28.000Z</time>
      </trkpt>
      <trkpt lat="45.90198" lon="-0.89537">
        <ele>16</ele>
        <time>2018-06-30T19:07:29.000Z</time>
      </trkpt>
      <trkpt lat="45.90198" lon="-0.89535">
        <ele>16</ele>
        <time>2018-06-30T19:07:30.000Z</time>
      </trkpt>
      <trkpt lat="45.90197" lon="-0.89534">
        <ele>16</ele>
        <time>2018-06-30T19:07:31.000Z</time>
      </trkpt>
      <trkpt lat="45.90197" lon="-0.89532">
        <ele>16</ele>
        <time>2018-06-30T19:07:32.000Z</time>
      </trkpt>
      <trkpt lat="45.90197" lon="-0.89531">
        <ele>16</ele>
        <time>2018-06-30T19:07:33.000Z</time>
      </trkpt>
      <trkpt lat="45.90197" lon="-0.89529">
        <ele>16</ele>
        <time>2018-06-30T19:07:34.000Z</time>
      </trkpt>
      <trkpt lat="45.90197" lon="-0.89527">
        <ele>16</ele>
        <time>2018-06-30T19:07:35.000Z</time>
      </trkpt>
      <trkpt lat="45.90196" lon="-0.89526">
        <ele>16</ele>
        <time>2018-06-30T19:07:36.000Z</time>
      </trkpt>
      <trkpt lat="45.90196" lon="-0.89524">
        <ele>16</ele>
        <time>2018-06-30T19:07:37.000Z</time>
      </trkpt>
      <trkpt lat="45.90195" lon="-0.89522">
        <ele>16</ele>
        <time>2018-06-30T19:07:38.000Z</time>
      </trkpt>
      <trkpt lat="45.90195" lon="-0.8952">
        <ele>16</ele>
        <time>2018-06-30T19:07:39.000Z</time>
      </trkpt>
      <trkpt lat="45.90195" lon="-0.89518">
        <ele>15</ele>
        <time>2018-06-30T19:07:40.000Z</time>
      </trkpt>
      <trkpt lat="45.90195" lon="-0.89516">
        <ele>15</ele>
        <time>2018-06-30T19:07:41.000Z</time>
      </trkpt>
      <trkpt lat="45.90194" lon="-0.89514">
        <ele>14</ele>
        <time>2018-06-30T19:07:42.000Z</time>
      </trkpt>
      <trkpt lat="45.90194" lon="-0.89513">
        <ele>14</ele>
        <time>2018-06-30T19:07:43.000Z</time>
      </trkpt>
      <trkpt lat="45.90193" lon="-0.89511">
        <ele>14</ele>
        <time>2018-06-30T19:07:44.000Z</time>
      </trkpt>
      <trkpt lat="45.90192" lon="-0.89509">
        <ele>14</ele>
        <time>2018-06-30T19:07:45.000Z</time>
      </trkpt>
      <trkpt lat="45.90192" lon="-0.89507">
        <ele>15</ele>
        <time>2018-06-30T19:07:46.000Z</time>
      </trkpt>
      <trkpt lat="45.90191" lon="-0.89506">
        <ele>14</ele>
        <time>2018-06-30T19:07:47.000Z</time>
      </trkpt>
      <trkpt lat="45.90191" lon="-0.89504">
        <ele>14</ele>
        <time>2018-06-30T19:07:48.000Z</time>
      </trkpt>
      <trkpt lat="45.90191" lon="-0.89503">
        <ele>14</ele>
        <time>2018-06-30T19:07:49.000Z</time>
      </trkpt>
      <trkpt lat="45.9019" lon="-0.89501">
        <ele>14</ele>
        <time>2018-06-30T19:07:50.000Z</time>
      </trkpt>
      <trkpt lat="45.9019" lon="-0.895">
        <ele>14</ele>
        <time>2018-06-30T19:07:51.000Z</time>
      </trkpt>
      <trkpt lat="45.9019" lon="-0.89498">
        <ele>14</ele>
        <time>2018-06-30T19:07:52.000Z</time>
      </trkpt>
      <trkpt lat="45.90189" lon="-0.89497">
        <ele>13</ele>
        <time>2018-06-30T19:07:53.000Z</time>
      </trkpt>
      <trkpt lat="45.90189" lon="-0.89496">
        <ele>14</ele>
        <time>2018-06-30T19:07:54.000Z</time>
      </trkpt>
      <trkpt lat="45.90188" lon="-0.89494">
        <ele>14</ele>
        <time>2018-06-30T19:07:55.000Z</time>
      </trkpt>
      <trkpt lat="45.90188" lon="-0.89493">
        <ele>14</ele>
        <time>2018-06-30T19:07:56.000Z</time>
      </trkpt>
      <trkpt lat="45.90188" lon="-0.89491">
        <ele>13</ele>
        <time>2018-06-30T19:07:57.000Z</time>
      </trkpt>
      <trkpt lat="45.90187" lon="-0.89489">
        <ele>13</ele>
        <time>2018-06-30T19:07:58.000Z</time>
      </trkpt>
      <trkpt lat="45.90187" lon="-0.89488">
        <ele>13</ele>
        <time>2018-06-30T19:07:59.000Z</time>
      </trkpt>
      <trkpt lat="45.90187" lon="-0.89486">
        <ele>13</ele>
        <time>2018-06-30T19:08:00.000Z</time>
      </trkpt>
      <trkpt lat="45.90187" lon="-0.89485">
        <ele>13</ele>
        <time>2018-06-30T19:08:01.000Z</time>
      </trkpt>
      <trkpt lat="45.90187" lon="-0.89483">
        <ele>13</ele>
        <time>2018-06-30T19:08:02.000Z</time>
      </trkpt>
      <trkpt lat="45.90187" lon="-0.89482">
        <ele>13</ele>
        <time>2018-06-30T19:08:03.000Z</time>
      </trkpt>
      <trkpt lat="45.90186" lon="-0.89481">
        <ele>13</ele>
        <time>2018-06-30T19:08:04.000Z</time>
      </trkpt>
      <trkpt lat="45.90186" lon="-0.89479">
        <ele>14</ele>
        <time>2018-06-30T19:08:05.000Z</time>
      </trkpt>
      <trkpt lat="45.90186" lon="-0.89477">
        <ele>14</ele>
        <time>2018-06-30T19:08:06.000Z</time>
      </trkpt>
      <trkpt lat="45.90186" lon="-0.89475">
        <ele>14</ele>
        <time>2018-06-30T19:08:07.000Z</time>
      </trkpt>
      <trkpt lat="45.90185" lon="-0.89474">
        <ele>14</ele>
        <time>2018-06-30T19:08:08.000Z</time>
      </trkpt>
      <trkpt lat="45.90185" lon="-0.89472">
        <ele>13</ele>
        <time>2018-06-30T19:08:09.000Z</time>
      </trkpt>
      <trkpt lat="45.90184" lon="-0.89471">
        <ele>13</ele>
        <time>2018-06-30T19:08:10.000Z</time>
      </trkpt>
      <trkpt lat="45.90184" lon="-0.89469">
        <ele>13</ele>
        <time>2018-06-30T19:08:11.000Z</time>
      </trkpt>
      <trkpt lat="45.90184" lon="-0.89467">
        <ele>14</ele>
        <time>2018-06-30T19:08:12.000Z</time>
      </trkpt>
      <trkpt lat="45.90184" lon="-0.89466">
        <ele>14</ele>
        <time>2018-06-30T19:08:13.000Z</time>
      </trkpt>
      <trkpt lat="45.90183" lon="-0.89464">
        <ele>14</ele>
        <time>2018-06-30T19:08:14.000Z</time>
      </trkpt>
      <trkpt lat="45.90183" lon="-0.89462">
        <ele>14</ele>
        <time>2018-06-30T19:08:15.000Z</time>
      </trkpt>
      <trkpt lat="45.90183" lon="-0.89461">
        <ele>15</ele>
        <time>2018-06-30T19:08:16.000Z</time>
      </trkpt>
      <trkpt lat="45.90183" lon="-0.89459">
        <ele>15</ele>
        <time>2018-06-30T19:08:17.000Z</time>
      </trkpt>
      <trkpt lat="45.90183" lon="-0.89457">
        <ele>15</ele>
        <time>2018-06-30T19:08:18.000Z</time>
      </trkpt>
      <trkpt lat="45.90182" lon="-0.89455">
        <ele>15</ele>
        <time>2018-06-30T19:08:19.000Z</time>
      </trkpt>
      <trkpt lat="45.90182" lon="-0.89454">
        <ele>15</ele>
        <time>2018-06-30T19:08:20.000Z</time>
      </trkpt>
      <trkpt lat="45.90181" lon="-0.89452">
        <ele>15</ele>
        <time>2018-06-30T19:08:21.000Z</time>
      </trkpt>
      <trkpt lat="45.90181" lon="-0.8945">
        <ele>15</ele>
        <time>2018-06-30T19:08:22.000Z</time>
      </trkpt>
      <trkpt lat="45.90181" lon="-0.89448">
        <ele>15</ele>
        <time>2018-06-30T19:08:23.000Z</time>
      </trkpt>
      <trkpt lat="45.9018" lon="-0.89445">
        <ele>15</ele>
        <time>2018-06-30T19:08:24.000Z</time>
      </trkpt>
      <trkpt lat="45.9018" lon="-0.89443">
        <ele>15</ele>
        <time>2018-06-30T19:08:25.000Z</time>
      </trkpt>
      <trkpt lat="45.90179" lon="-0.89442">
        <ele>15</ele>
        <time>2018-06-30T19:08:26.000Z</time>
      </trkpt>
      <trkpt lat="45.90179" lon="-0.8944">
        <ele>15</ele>
        <time>2018-06-30T19:08:27.000Z</time>
      </trkpt>
      <trkpt lat="45.90179" lon="-0.89438">
        <ele>15</ele>
        <time>2018-06-30T19:08:28.000Z</time>
      </trkpt>
      <trkpt lat="45.90178" lon="-0.89437">
        <ele>15</ele>
        <time>2018-06-30T19:08:29.000Z</time>
      </trkpt>
      <trkpt lat="45.90178" lon="-0.89435">
        <ele>15</ele>
        <time>2018-06-30T19:08:30.000Z</time>
      </trkpt>
      <trkpt lat="45.90177" lon="-0.89433">
        <ele>15</ele>
        <time>2018-06-30T19:08:31.000Z</time>
      </trkpt>
      <trkpt lat="45.90177" lon="-0.89432">
        <ele>15</ele>
        <time>2018-06-30T19:08:32.000Z</time>
      </trkpt>
      <trkpt lat="45.90176" lon="-0.8943">
        <ele>14</ele>
        <time>2018-06-30T19:08:33.000Z</time>
      </trkpt>
      <trkpt lat="45.90176" lon="-0.89428">
        <ele>14</ele>
        <time>2018-06-30T19:08:34.000Z</time>
      </trkpt>
      <trkpt lat="45.90175" lon="-0.89426">
        <ele>14</ele>
        <time>2018-06-30T19:08:35.000Z</time>
      </trkpt>
      <trkpt lat="45.90175" lon="-0.89424">
        <ele>14</ele>
        <time>2018-06-30T19:08:36.000Z</time>
      </trkpt>
      <trkpt lat="45.90175" lon="-0.89422">
        <ele>14</ele>
        <time>2018-06-30T19:08:37.000Z</time>
      </trkpt>
      <trkpt lat="45.90174" lon="-0.89421">
        <ele>14</ele>
        <time>2018-06-30T19:08:38.000Z</time>
      </trkpt>
      <trkpt lat="45.90174" lon="-0.89419">
        <ele>14</ele>
        <time>2018-06-30T19:08:39.000Z</time>
      </trkpt>
      <trkpt lat="45.90174" lon="-0.89418">
        <ele>14</ele>
        <time>2018-06-30T19:08:40.000Z</time>
      </trkpt>
      <trkpt lat="45.90173" lon="-0.89416">
        <ele>14</ele>
        <time>2018-06-30T19:08:41.000Z</time>
      </trkpt>
      <trkpt lat="45.90173" lon="-0.89414">
        <ele>15</ele>
        <time>2018-06-30T19:08:42.000Z</time>
      </trkpt>
      <trkpt lat="45.90172" lon="-0.89411">
        <ele>15</ele>
        <time>2018-06-30T19:08:43.000Z</time>
      </trkpt>
      <trkpt lat="45.90172" lon="-0.89409">
        <ele>15</ele>
        <time>2018-06-30T19:08:44.000Z</time>
      </trkpt>
      <trkpt lat="45.90171" lon="-0.89408">
        <ele>15</ele>
        <time>2018-06-30T19:08:45.000Z</time>
      </trkpt>
      <trkpt lat="45.90171" lon="-0.89406">
        <ele>15</ele>
        <time>2018-06-30T19:08:46.000Z</time>
      </trkpt>
      <trkpt lat="45.90171" lon="-0.89404">
        <ele>15</ele>
        <time>2018-06-30T19:08:47.000Z</time>
      </trkpt>
      <trkpt lat="45.9017" lon="-0.89402">
        <ele>15</ele>
        <time>2018-06-30T19:08:48.000Z</time>
      </trkpt>
      <trkpt lat="45.9017" lon="-0.894">
        <ele>15</ele>
        <time>2018-06-30T19:08:49.000Z</time>
      </trkpt>
      <trkpt lat="45.90169" lon="-0.89399">
        <ele>15</ele>
        <time>2018-06-30T19:08:50.000Z</time>
      </trkpt>
      <trkpt lat="45.90169" lon="-0.89398">
        <ele>15</ele>
        <time>2018-06-30T19:08:51.000Z</time>
      </trkpt>
      <trkpt lat="45.90169" lon="-0.89396">
        <ele>15</ele>
        <time>2018-06-30T19:08:52.000Z</time>
      </trkpt>
      <trkpt lat="45.90168" lon="-0.89395">
        <ele>15</ele>
        <time>2018-06-30T19:08:53.000Z</time>
      </trkpt>
      <trkpt lat="45.90168" lon="-0.89393">
        <ele>15</ele>
        <time>2018-06-30T19:08:54.000Z</time>
      </trkpt>
      <trkpt lat="45.90168" lon="-0.89391">
        <ele>15</ele>
        <time>2018-06-30T19:08:55.000Z</time>
      </trkpt>
      <trkpt lat="45.90167" lon="-0.8939">
        <ele>14</ele>
        <time>2018-06-30T19:08:56.000Z</time>
      </trkpt>
      <trkpt lat="45.90167" lon="-0.89388">
        <ele>14</ele>
        <time>2018-06-30T19:08:57.000Z</time>
      </trkpt>
      <trkpt lat="45.90167" lon="-0.89387">
        <ele>14</ele>
        <time>2018-06-30T19:08:58.000Z</time>
      </trkpt>
      <trkpt lat="45.90166" lon="-0.89385">
        <ele>14</ele>
        <time>2018-06-30T19:08:59.000Z</time>
      </trkpt>
      <trkpt lat="45.90166" lon="-0.89384">
        <ele>14</ele>
        <time>2018-06-30T19:09:00.000Z</time>
      </trkpt>
      <trkpt lat="45.90165" lon="-0.89382">
        <ele>14</ele>
        <time>2018-06-30T19:09:01.000Z</time>
      </trkpt>
      <trkpt lat="45.90165" lon="-0.8938">
        <ele>14</ele>
        <time>2018-06-30T19:09:02.000Z</time>
      </trkpt>
      <trkpt lat="45.90164" lon="-0.89379">
        <ele>13</ele>
        <time>2018-06-30T19:09:03.000Z</time>
      </trkpt>
      <trkpt lat="45.90164" lon="-0.89377">
        <ele>13</ele>
        <time>2018-06-30T19:09:04.000Z</time>
      </trkpt>
      <trkpt lat="45.90163" lon="-0.89376">
        <ele>13</ele>
        <time>2018-06-30T19:09:05.000Z</time>
      </trkpt>
      <trkpt lat="45.90163" lon="-0.89374">
        <ele>13</ele>
        <time>2018-06-30T19:09:06.000Z</time>
      </trkpt>
      <trkpt lat="45.90162" lon="-0.89372">
        <ele>13</ele>
        <time>2018-06-30T19:09:07.000Z</time>
      </trkpt>
      <trkpt lat="45.90162" lon="-0.89371">
        <ele>13</ele>
        <time>2018-06-30T19:09:08.000Z</time>
      </trkpt>
      <trkpt lat="45.90161" lon="-0.89369">
        <ele>13</ele>
        <time>2018-06-30T19:09:09.000Z</time>
      </trkpt>
      <trkpt lat="45.90161" lon="-0.89368">
        <ele>12</ele>
        <time>2018-06-30T19:09:10.000Z</time>
      </trkpt>
      <trkpt lat="45.90161" lon="-0.89366">
        <ele>12</ele>
        <time>2018-06-30T19:09:11.000Z</time>
      </trkpt>
      <trkpt lat="45.9016" lon="-0.89365">
        <ele>12</ele>
        <time>2018-06-30T19:09:12.000Z</time>
      </trkpt>
      <trkpt lat="45.9016" lon="-0.89363">
        <ele>12</ele>
        <time>2018-06-30T19:09:13.000Z</time>
      </trkpt>
      <trkpt lat="45.90159" lon="-0.89362">
        <ele>11</ele>
        <time>2018-06-30T19:09:14.000Z</time>
      </trkpt>
      <trkpt lat="45.90159" lon="-0.89361">
        <ele>12</ele>
        <time>2018-06-30T19:09:15.000Z</time>
      </trkpt>
      <trkpt lat="45.90159" lon="-0.8936">
        <ele>11</ele>
        <time>2018-06-30T19:09:16.000Z</time>
      </trkpt>
      <trkpt lat="45.90158" lon="-0.89358">
        <ele>11</ele>
        <time>2018-06-30T19:09:17.000Z</time>
      </trkpt>
      <trkpt lat="45.90158" lon="-0.89357">
        <ele>11</ele>
        <time>2018-06-30T19:09:18.000Z</time>
      </trkpt>
      <trkpt lat="45.90157" lon="-0.89355">
        <ele>11</ele>
        <time>2018-06-30T19:09:19.000Z</time>
      </trkpt>
      <trkpt lat="45.90157" lon="-0.89354">
        <ele>11</ele>
        <time>2018-06-30T19:09:20.000Z</time>
      </trkpt>
      <trkpt lat="45.90156" lon="-0.89352">
        <ele>11</ele>
        <time>2018-06-30T19:09:21.000Z</time>
      </trkpt>
      <trkpt lat="45.90156" lon="-0.89351">
        <ele>11</ele>
        <time>2018-06-30T19:09:22.000Z</time>
      </trkpt>
      <trkpt lat="45.90156" lon="-0.89349">
        <ele>11</ele>
        <time>2018-06-30T19:09:23.000Z</time>
      </trkpt>
      <trkpt lat="45.90155" lon="-0.89347">
        <ele>12</ele>
        <time>2018-06-30T19:09:24.000Z</time>
      </trkpt>
      <trkpt lat="45.90155" lon="-0.89346">
        <ele>12</ele>
        <time>2018-06-30T19:09:25.000Z</time>
      </trkpt>
      <trkpt lat="45.90155" lon="-0.89344">
        <ele>12</ele>
        <time>2018-06-30T19:09:26.000Z</time>
      </trkpt>
      <trkpt lat="45.90155" lon="-0.89342">
        <ele>13</ele>
        <time>2018-06-30T19:09:27.000Z</time>
      </trkpt>
      <trkpt lat="45.90154" lon="-0.8934">
        <ele>13</ele>
        <time>2018-06-30T19:09:28.000Z</time>
      </trkpt>
      <trkpt lat="45.90154" lon="-0.89339">
        <ele>13</ele>
        <time>2018-06-30T19:09:29.000Z</time>
      </trkpt>
      <trkpt lat="45.90154" lon="-0.89337">
        <ele>13</ele>
        <time>2018-06-30T19:09:30.000Z</time>
      </trkpt>
      <trkpt lat="45.90153" lon="-0.89336">
        <ele>13</ele>
        <time>2018-06-30T19:09:31.000Z</time>
      </trkpt>
      <trkpt lat="45.90153" lon="-0.89334">
        <ele>13</ele>
        <time>2018-06-30T19:09:32.000Z</time>
      </trkpt>
      <trkpt lat="45.90153" lon="-0.89333">
        <ele>13</ele>
        <time>2018-06-30T19:09:33.000Z</time>
      </trkpt>
      <trkpt lat="45.90152" lon="-0.89331">
        <ele>13</ele>
        <time>2018-06-30T19:09:34.000Z</time>
      </trkpt>
      <trkpt lat="45.90152" lon="-0.89329">
        <ele>13</ele>
        <time>2018-06-30T19:09:35.000Z</time>
      </trkpt>
      <trkpt lat="45.90152" lon="-0.89328">
        <ele>13</ele>
        <time>2018-06-30T19:09:36.000Z</time>
      </trkpt>
      <trkpt lat="45.90152" lon="-0.89326">
        <ele>13</ele>
        <time>2018-06-30T19:09:37.000Z</time>
      </trkpt>
      <trkpt lat="45.90151" lon="-0.89324">
        <ele>14</ele>
        <time>2018-06-30T19:09:38.000Z</time>
      </trkpt>
      <trkpt lat="45.90151" lon="-0.89322">
        <ele>14</ele>
        <time>2018-06-30T19:09:39.000Z</time>
      </trkpt>
      <trkpt lat="45.90151" lon="-0.8932">
        <ele>14</ele>
        <time>2018-06-30T19:09:40.000Z</time>
      </trkpt>
      <trkpt lat="45.9015" lon="-0.89319">
        <ele>14</ele>
        <time>2018-06-30T19:09:41.000Z</time>
      </trkpt>
      <trkpt lat="45.9015" lon="-0.89317">
        <ele>13</ele>
        <time>2018-06-30T19:09:42.000Z</time>
      </trkpt>
      <trkpt lat="45.9015" lon="-0.89316">
        <ele>13</ele>
        <time>2018-06-30T19:09:43.000Z</time>
      </trkpt>
      <trkpt lat="45.90149" lon="-0.89314">
        <ele>13</ele>
        <time>2018-06-30T19:09:44.000Z</time>
      </trkpt>
      <trkpt lat="45.90149" lon="-0.89312">
        <ele>13</ele>
        <time>2018-06-30T19:09:45.000Z</time>
      </trkpt>
      <trkpt lat="45.90149" lon="-0.8931">
        <ele>13</ele>
        <time>2018-06-30T19:09:46.000Z</time>
      </trkpt>
      <trkpt lat="45.90148" lon="-0.89308">
        <ele>13</ele>
        <time>2018-06-30T19:09:47.000Z</time>
      </trkpt>
      <trkpt lat="45.90148" lon="-0.89307">
        <ele>13</ele>
        <time>2018-06-30T19:09:48.000Z</time>
      </trkpt>
      <trkpt lat="45.90148" lon="-0.89305">
        <ele>13</ele>
        <time>2018-06-30T19:09:49.000Z</time>
      </trkpt>
      <trkpt lat="45.90147" lon="-0.89304">
        <ele>13</ele>
        <time>2018-06-30T19:09:50.000Z</time>
      </trkpt>
      <trkpt lat="45.90147" lon="-0.89302">
        <ele>12</ele>
        <time>2018-06-30T19:09:51.000Z</time>
      </trkpt>
      <trkpt lat="45.90147" lon="-0.893">
        <ele>12</ele>
        <time>2018-06-30T19:09:52.000Z</time>
      </trkpt>
      <trkpt lat="45.90147" lon="-0.89299">
        <ele>13</ele>
        <time>2018-06-30T19:09:53.000Z</time>
      </trkpt>
      <trkpt lat="45.90147" lon="-0.89297">
        <ele>13</ele>
        <time>2018-06-30T19:09:54.000Z</time>
      </trkpt>
      <trkpt lat="45.90146" lon="-0.89295">
        <ele>13</ele>
        <time>2018-06-30T19:09:55.000Z</time>
      </trkpt>
      <trkpt lat="45.90146" lon="-0.89293">
        <ele>14</ele>
        <time>2018-06-30T19:09:56.000Z</time>
      </trkpt>
      <trkpt lat="45.90146" lon="-0.89291">
        <ele>14</ele>
        <time>2018-06-30T19:09:57.000Z</time>
      </trkpt>
      <trkpt lat="45.90145" lon="-0.8929">
        <ele>14</ele>
        <time>2018-06-30T19:09:58.000Z</time>
      </trkpt>
      <trkpt lat="45.90145" lon="-0.89288">
        <ele>14</ele>
        <time>2018-06-30T19:09:59.000Z</time>
      </trkpt>
      <trkpt lat="45.90145" lon="-0.89287">
        <ele>14</ele>
        <time>2018-06-30T19:10:00.000Z</time>
      </trkpt>
      <trkpt lat="45.90144" lon="-0.89285">
        <ele>14</ele>
        <time>2018-06-30T19:10:01.000Z</time>
      </trkpt>
      <trkpt lat="45.90144" lon="-0.89283">
        <ele>14</ele>
        <time>2018-06-30T19:10:02.000Z</time>
      </trkpt>
      <trkpt lat="45.90144" lon="-0.89281">
        <ele>15</ele>
        <time>2018-06-30T19:10:03.000Z</time>
      </trkpt>
      <trkpt lat="45.90144" lon="-0.89279">
        <ele>15</ele>
        <time>2018-06-30T19:10:04.000Z</time>
      </trkpt>
      <trkpt lat="45.90144" lon="-0.89278">
        <ele>15</ele>
        <time>2018-06-30T19:10:05.000Z</time>
      </trkpt>
      <trkpt lat="45.90143" lon="-0.89276">
        <ele>15</ele>
        <time>2018-06-30T19:10:06.000Z</time>
      </trkpt>
      <trkpt lat="45.90143" lon="-0.89274">
        <ele>15</ele>
        <time>2018-06-30T19:10:07.000Z</time>
      </trkpt>
      <trkpt lat="45.90143" lon="-0.89272">
        <ele>15</ele>
        <time>2018-06-30T19:10:08.000Z</time>
      </trkpt>
      <trkpt lat="45.90143" lon="-0.8927">
        <ele>16</ele>
        <time>2018-06-30T19:10:09.000Z</time>
      </trkpt>
      <trkpt lat="45.90143" lon="-0.89268">
        <ele>16</ele>
        <time>2018-06-30T19:10:10.000Z</time>
      </trkpt>
      <trkpt lat="45.90143" lon="-0.89266">
        <ele>16</ele>
        <time>2018-06-30T19:10:11.000Z</time>
      </trkpt>
      <trkpt lat="45.90142" lon="-0.89265">
        <ele>15</ele>
        <time>2018-06-30T19:10:12.000Z</time>
      </trkpt>
      <trkpt lat="45.90142" lon="-0.89263">
        <ele>15</ele>
        <time>2018-06-30T19:10:13.000Z</time>
      </trkpt>
      <trkpt lat="45.90142" lon="-0.89262">
        <ele>15</ele>
        <time>2018-06-30T19:10:14.000Z</time>
      </trkpt>
      <trkpt lat="45.90141" lon="-0.8926">
        <ele>14</ele>
        <time>2018-06-30T19:10:15.000Z</time>
      </trkpt>
      <trkpt lat="45.90141" lon="-0.89259">
        <ele>13</ele>
        <time>2018-06-30T19:10:16.000Z</time>
      </trkpt>
      <trkpt lat="45.90141" lon="-0.89257">
        <ele>13</ele>
        <time>2018-06-30T19:10:17.000Z</time>
      </trkpt>
      <trkpt lat="45.9014" lon="-0.89256">
        <ele>13</ele>
        <time>2018-06-30T19:10:18.000Z</time>
      </trkpt>
      <trkpt lat="45.9014" lon="-0.89254">
        <ele>13</ele>
        <time>2018-06-30T19:10:19.000Z</time>
      </trkpt>
      <trkpt lat="45.9014" lon="-0.89252">
        <ele>14</ele>
        <time>2018-06-30T19:10:20.000Z</time>
      </trkpt>
      <trkpt lat="45.9014" lon="-0.89251">
        <ele>13</ele>
        <time>2018-06-30T19:10:21.000Z</time>
      </trkpt>
      <trkpt lat="45.9014" lon="-0.89249">
        <ele>14</ele>
        <time>2018-06-30T19:10:22.000Z</time>
      </trkpt>
      <trkpt lat="45.9014" lon="-0.89248">
        <ele>14</ele>
        <time>2018-06-30T19:10:23.000Z</time>
      </trkpt>
      <trkpt lat="45.90139" lon="-0.89246">
        <ele>14</ele>
        <time>2018-06-30T19:10:24.000Z</time>
      </trkpt>
      <trkpt lat="45.90139" lon="-0.89245">
        <ele>14</ele>
        <time>2018-06-30T19:10:25.000Z</time>
      </trkpt>
      <trkpt lat="45.90139" lon="-0.89243">
        <ele>14</ele>
        <time>2018-06-30T19:10:26.000Z</time>
      </trkpt>
      <trkpt lat="45.90138" lon="-0.89241">
        <ele>14</ele>
        <time>2018-06-30T19:10:27.000Z</time>
      </trkpt>
      <trkpt lat="45.90138" lon="-0.89239">
        <ele>14</ele>
        <time>2018-06-30T19:10:28.000Z</time>
      </trkpt>
      <trkpt lat="45.90138" lon="-0.89238">
        <ele>14</ele>
        <time>2018-06-30T19:10:29.000Z</time>
      </trkpt>
      <trkpt lat="45.90138" lon="-0.89236">
        <ele>14</ele>
        <time>2018-06-30T19:10:30.000Z</time>
      </trkpt>
      <trkpt lat="45.90137" lon="-0.89234">
        <ele>14</ele>
        <time>2018-06-30T19:10:31.000Z</time>
      </trkpt>
      <trkpt lat="45.90137" lon="-0.89232">
        <ele>14</ele>
        <time>2018-06-30T19:10:32.000Z</time>
      </trkpt>
      <trkpt lat="45.90136" lon="-0.89231">
        <ele>14</ele>
        <time>2018-06-30T19:10:33.000Z</time>
      </trkpt>
      <trkpt lat="45.90136" lon="-0.89229">
        <ele>14</ele>
        <time>2018-06-30T19:10:34.000Z</time>
      </trkpt>
      <trkpt lat="45.90136" lon="-0.89227">
        <ele>14</ele>
        <time>2018-06-30T19:10:35.000Z</time>
      </trkpt>
      <trkpt lat="45.90136" lon="-0.89226">
        <ele>14</ele>
        <time>2018-06-30T19:10:36.000Z</time>
      </trkpt>
      <trkpt lat="45.90135" lon="-0.89224">
        <ele>14</ele>
        <time>2018-06-30T19:10:37.000Z</time>
      </trkpt>
      <trkpt lat="45.90135" lon="-0.89222">
        <ele>13</ele>
        <time>2018-06-30T19:10:38.000Z</time>
      </trkpt>
      <trkpt lat="45.90135" lon="-0.89221">
        <ele>13</ele>
        <time>2018-06-30T19:10:39.000Z</time>
      </trkpt>
      <trkpt lat="45.90135" lon="-0.89219">
        <ele>13</ele>
        <time>2018-06-30T19:10:40.000Z</time>
      </trkpt>
      <trkpt lat="45.90135" lon="-0.89217">
        <ele>13</ele>
        <time>2018-06-30T19:10:41.000Z</time>
      </trkpt>
      <trkpt lat="45.90135" lon="-0.89215">
        <ele>14</ele>
        <time>2018-06-30T19:10:42.000Z</time>
      </trkpt>
      <trkpt lat="45.90134" lon="-0.89214">
        <ele>14</ele>
        <time>2018-06-30T19:10:43.000Z</time>
      </trkpt>
      <trkpt lat="45.90134" lon="-0.89212">
        <ele>14</ele>
        <time>2018-06-30T19:10:44.000Z</time>
      </trkpt>
      <trkpt lat="45.90134" lon="-0.8921">
        <ele>13</ele>
        <time>2018-06-30T19:10:45.000Z</time>
      </trkpt>
      <trkpt lat="45.90134" lon="-0.89209">
        <ele>13</ele>
        <time>2018-06-30T19:10:46.000Z</time>
      </trkpt>
      <trkpt lat="45.90133" lon="-0.89207">
        <ele>13</ele>
        <time>2018-06-30T19:10:47.000Z</time>
      </trkpt>
      <trkpt lat="45.90133" lon="-0.89205">
        <ele>13</ele>
        <time>2018-06-30T19:10:48.000Z</time>
      </trkpt>
      <trkpt lat="45.90133" lon="-0.89204">
        <ele>12</ele>
        <time>2018-06-30T19:10:49.000Z</time>
      </trkpt>
      <trkpt lat="45.90133" lon="-0.89202">
        <ele>12</ele>
        <time>2018-06-30T19:10:50.000Z</time>
      </trkpt>
      <trkpt lat="45.90133" lon="-0.89201">
        <ele>11</ele>
        <time>2018-06-30T19:10:51.000Z</time>
      </trkpt>
      <trkpt lat="45.90133" lon="-0.89199">
        <ele>11</ele>
        <time>2018-06-30T19:10:52.000Z</time>
      </trkpt>
      <trkpt lat="45.90133" lon="-0.89198">
        <ele>11</ele>
        <time>2018-06-30T19:10:53.000Z</time>
      </trkpt>
      <trkpt lat="45.90133" lon="-0.89196">
        <ele>11</ele>
        <time>2018-06-30T19:10:54.000Z</time>
      </trkpt>
      <trkpt lat="45.90133" lon="-0.89195">
        <ele>11</ele>
        <time>2018-06-30T19:10:55.000Z</time>
      </trkpt>
      <trkpt lat="45.90133" lon="-0.89194">
        <ele>10</ele>
        <time>2018-06-30T19:10:56.000Z</time>
      </trkpt>
      <trkpt lat="45.90132" lon="-0.89192">
        <ele>10</ele>
        <time>2018-06-30T19:10:57.000Z</time>
      </trkpt>
      <trkpt lat="45.90132" lon="-0.8919">
        <ele>11</ele>
        <time>2018-06-30T19:10:58.000Z</time>
      </trkpt>
      <trkpt lat="45.90132" lon="-0.89188">
        <ele>11</ele>
        <time>2018-06-30T19:10:59.000Z</time>
      </trkpt>
      <trkpt lat="45.90132" lon="-0.89186">
        <ele>11</ele>
        <time>2018-06-30T19:11:00.000Z</time>
      </trkpt>
      <trkpt lat="45.90131" lon="-0.89184">
        <ele>12</ele>
        <time>2018-06-30T19:11:01.000Z</time>
      </trkpt>
      <trkpt lat="45.90131" lon="-0.89181">
        <ele>12</ele>
        <time>2018-06-30T19:11:02.000Z</time>
      </trkpt>
      <trkpt lat="45.90131" lon="-0.89179">
        <ele>12</ele>
        <time>2018-06-30T19:11:03.000Z</time>
      </trkpt>
      <trkpt lat="45.9013" lon="-0.89177">
        <ele>12</ele>
        <time>2018-06-30T19:11:04.000Z</time>
      </trkpt>
      <trkpt lat="45.9013" lon="-0.89176">
        <ele>12</ele>
        <time>2018-06-30T19:11:05.000Z</time>
      </trkpt>
      <trkpt lat="45.9013" lon="-0.89174">
        <ele>12</ele>
        <time>2018-06-30T19:11:06.000Z</time>
      </trkpt>
      <trkpt lat="45.9013" lon="-0.89172">
        <ele>12</ele>
        <time>2018-06-30T19:11:07.000Z</time>
      </trkpt>
      <trkpt lat="45.9013" lon="-0.8917">
        <ele>12</ele>
        <time>2018-06-30T19:11:08.000Z</time>
      </trkpt>
      <trkpt lat="45.9013" lon="-0.89168">
        <ele>12</ele>
        <time>2018-06-30T19:11:09.000Z</time>
      </trkpt>
      <trkpt lat="45.90129" lon="-0.89166">
        <ele>12</ele>
        <time>2018-06-30T19:11:10.000Z</time>
      </trkpt>
      <trkpt lat="45.90129" lon="-0.89164">
        <ele>12</ele>
        <time>2018-06-30T19:11:11.000Z</time>
      </trkpt>
      <trkpt lat="45.90129" lon="-0.89162">
        <ele>13</ele>
        <time>2018-06-30T19:11:12.000Z</time>
      </trkpt>
      <trkpt lat="45.90129" lon="-0.8916">
        <ele>13</ele>
        <time>2018-06-30T19:11:13.000Z</time>
      </trkpt>
      <trkpt lat="45.90129" lon="-0.89158">
        <ele>13</ele>
        <time>2018-06-30T19:11:14.000Z</time>
      </trkpt>
      <trkpt lat="45.90128" lon="-0.89156">
        <ele>13</ele>
        <time>2018-06-30T19:11:15.000Z</time>
      </trkpt>
      <trkpt lat="45.90128" lon="-0.89154">
        <ele>13</ele>
        <time>2018-06-30T19:11:16.000Z</time>
      </trkpt>
      <trkpt lat="45.90128" lon="-0.89152">
        <ele>14</ele>
        <time>2018-06-30T19:11:17.000Z</time>
      </trkpt>
      <trkpt lat="45.90128" lon="-0.8915">
        <ele>14</ele>
        <time>2018-06-30T19:11:18.000Z</time>
      </trkpt>
      <trkpt lat="45.90128" lon="-0.89148">
        <ele>14</ele>
        <time>2018-06-30T19:11:19.000Z</time>
      </trkpt>
      <trkpt lat="45.90128" lon="-0.89147">
        <ele>14</ele>
        <time>2018-06-30T19:11:20.000Z</time>
      </trkpt>
      <trkpt lat="45.90128" lon="-0.89145">
        <ele>14</ele>
        <time>2018-06-30T19:11:21.000Z</time>
      </trkpt>
      <trkpt lat="45.90128" lon="-0.89143">
        <ele>14</ele>
        <time>2018-06-30T19:11:22.000Z</time>
      </trkpt>
      <trkpt lat="45.90127" lon="-0.89141">
        <ele>14</ele>
        <time>2018-06-30T19:11:23.000Z</time>
      </trkpt>
      <trkpt lat="45.90127" lon="-0.89139">
        <ele>15</ele>
        <time>2018-06-30T19:11:24.000Z</time>
      </trkpt>
      <trkpt lat="45.90127" lon="-0.89137">
        <ele>15</ele>
        <time>2018-06-30T19:11:25.000Z</time>
      </trkpt>
      <trkpt lat="45.90127" lon="-0.89136">
        <ele>14</ele>
        <time>2018-06-30T19:11:26.000Z</time>
      </trkpt>
      <trkpt lat="45.90126" lon="-0.89134">
        <ele>15</ele>
        <time>2018-06-30T19:11:27.000Z</time>
      </trkpt>
      <trkpt lat="45.90126" lon="-0.89133">
        <ele>15</ele>
        <time>2018-06-30T19:11:28.000Z</time>
      </trkpt>
      <trkpt lat="45.90126" lon="-0.89131">
        <ele>15</ele>
        <time>2018-06-30T19:11:29.000Z</time>
      </trkpt>
      <trkpt lat="45.90126" lon="-0.8913">
        <ele>14</ele>
        <time>2018-06-30T19:11:30.000Z</time>
      </trkpt>
      <trkpt lat="45.90125" lon="-0.89128">
        <ele>15</ele>
        <time>2018-06-30T19:11:31.000Z</time>
      </trkpt>
      <trkpt lat="45.90125" lon="-0.89127">
        <ele>14</ele>
        <time>2018-06-30T19:11:32.000Z</time>
      </trkpt>
      <trkpt lat="45.90125" lon="-0.89125">
        <ele>14</ele>
        <time>2018-06-30T19:11:33.000Z</time>
      </trkpt>
      <trkpt lat="45.90125" lon="-0.89123">
        <ele>14</ele>
        <time>2018-06-30T19:11:34.000Z</time>
      </trkpt>
      <trkpt lat="45.90124" lon="-0.89121">
        <ele>14</ele>
        <time>2018-06-30T19:11:35.000Z</time>
      </trkpt>
      <trkpt lat="45.90124" lon="-0.8912">
        <ele>14</ele>
        <time>2018-06-30T19:11:36.000Z</time>
      </trkpt>
      <trkpt lat="45.90124" lon="-0.89118">
        <ele>14</ele>
        <time>2018-06-30T19:11:37.000Z</time>
      </trkpt>
      <trkpt lat="45.90123" lon="-0.89117">
        <ele>14</ele>
        <time>2018-06-30T19:11:38.000Z</time>
      </trkpt>
      <trkpt lat="45.90123" lon="-0.89116">
        <ele>14</ele>
        <time>2018-06-30T19:11:39.000Z</time>
      </trkpt>
      <trkpt lat="45.90123" lon="-0.89115">
        <ele>14</ele>
        <time>2018-06-30T19:11:40.000Z</time>
      </trkpt>
      <trkpt lat="45.90123" lon="-0.89113">
        <ele>14</ele>
        <time>2018-06-30T19:11:41.000Z</time>
      </trkpt>
      <trkpt lat="45.90124" lon="-0.89111">
        <ele>15</ele>
        <time>2018-06-30T19:11:42.000Z</time>
      </trkpt>
      <trkpt lat="45.90124" lon="-0.8911">
        <ele>14</ele>
        <time>2018-06-30T19:11:43.000Z</time>
      </trkpt>
      <trkpt lat="45.90124" lon="-0.89108">
        <ele>14</ele>
        <time>2018-06-30T19:11:44.000Z</time>
      </trkpt>
      <trkpt lat="45.90124" lon="-0.89107">
        <ele>14</ele>
        <time>2018-06-30T19:11:45.000Z</time>
      </trkpt>
      <trkpt lat="45.90124" lon="-0.89105">
        <ele>14</ele>
        <time>2018-06-30T19:11:46.000Z</time>
      </trkpt>
      <trkpt lat="45.90124" lon="-0.89103">
        <ele>14</ele>
        <time>2018-06-30T19:11:47.000Z</time>
      </trkpt>
      <trkpt lat="45.90124" lon="-0.89101">
        <ele>14</ele>
        <time>2018-06-30T19:11:48.000Z</time>
      </trkpt>
      <trkpt lat="45.90124" lon="-0.891">
        <ele>14</ele>
        <time>2018-06-30T19:11:49.000Z</time>
      </trkpt>
      <trkpt lat="45.90124" lon="-0.89098">
        <ele>14</ele>
        <time>2018-06-30T19:11:50.000Z</time>
      </trkpt>
      <trkpt lat="45.90124" lon="-0.89097">
        <ele>14</ele>
        <time>2018-06-30T19:11:51.000Z</time>
      </trkpt>
      <trkpt lat="45.90124" lon="-0.89095">
        <ele>14</ele>
        <time>2018-06-30T19:11:52.000Z</time>
      </trkpt>
      <trkpt lat="45.90123" lon="-0.89093">
        <ele>14</ele>
        <time>2018-06-30T19:11:53.000Z</time>
      </trkpt>
      <trkpt lat="45.90123" lon="-0.89091">
        <ele>14</ele>
        <time>2018-06-30T19:11:54.000Z</time>
      </trkpt>
      <trkpt lat="45.90123" lon="-0.8909">
        <ele>14</ele>
        <time>2018-06-30T19:11:55.000Z</time>
      </trkpt>
      <trkpt lat="45.90122" lon="-0.89088">
        <ele>14</ele>
        <time>2018-06-30T19:11:56.000Z</time>
      </trkpt>
      <trkpt lat="45.90122" lon="-0.89086">
        <ele>14</ele>
        <time>2018-06-30T19:11:57.000Z</time>
      </trkpt>
      <trkpt lat="45.90121" lon="-0.89085">
        <ele>14</ele>
        <time>2018-06-30T19:11:58.000Z</time>
      </trkpt>
      <trkpt lat="45.90121" lon="-0.89083">
        <ele>14</ele>
        <time>2018-06-30T19:11:59.000Z</time>
      </trkpt>
      <trkpt lat="45.90121" lon="-0.89081">
        <ele>14</ele>
        <time>2018-06-30T19:12:00.000Z</time>
      </trkpt>
      <trkpt lat="45.9012" lon="-0.89079">
        <ele>14</ele>
        <time>2018-06-30T19:12:01.000Z</time>
      </trkpt>
      <trkpt lat="45.9012" lon="-0.89077">
        <ele>14</ele>
        <time>2018-06-30T19:12:02.000Z</time>
      </trkpt>
      <trkpt lat="45.9012" lon="-0.89075">
        <ele>14</ele>
        <time>2018-06-30T19:12:03.000Z</time>
      </trkpt>
      <trkpt lat="45.9012" lon="-0.89074">
        <ele>14</ele>
        <time>2018-06-30T19:12:04.000Z</time>
      </trkpt>
      <trkpt lat="45.9012" lon="-0.89072">
        <ele>14</ele>
        <time>2018-06-30T19:12:05.000Z</time>
      </trkpt>
      <trkpt lat="45.90119" lon="-0.8907">
        <ele>14</ele>
        <time>2018-06-30T19:12:06.000Z</time>
      </trkpt>
      <trkpt lat="45.90119" lon="-0.89068">
        <ele>14</ele>
        <time>2018-06-30T19:12:07.000Z</time>
      </trkpt>
      <trkpt lat="45.90119" lon="-0.89067">
        <ele>14</ele>
        <time>2018-06-30T19:12:08.000Z</time>
      </trkpt>
      <trkpt lat="45.90119" lon="-0.89065">
        <ele>13</ele>
        <time>2018-06-30T19:12:09.000Z</time>
      </trkpt>
      <trkpt lat="45.90119" lon="-0.89063">
        <ele>13</ele>
        <time>2018-06-30T19:12:10.000Z</time>
      </trkpt>
      <trkpt lat="45.90119" lon="-0.89062">
        <ele>14</ele>
        <time>2018-06-30T19:12:11.000Z</time>
      </trkpt>
      <trkpt lat="45.90118" lon="-0.8906">
        <ele>13</ele>
        <time>2018-06-30T19:12:12.000Z</time>
      </trkpt>
      <trkpt lat="45.90118" lon="-0.89059">
        <ele>13</ele>
        <time>2018-06-30T19:12:13.000Z</time>
      </trkpt>
      <trkpt lat="45.90118" lon="-0.89057">
        <ele>13</ele>
        <time>2018-06-30T19:12:14.000Z</time>
      </trkpt>
      <trkpt lat="45.90118" lon="-0.89055">
        <ele>13</ele>
        <time>2018-06-30T19:12:15.000Z</time>
      </trkpt>
      <trkpt lat="45.90118" lon="-0.89054">
        <ele>12</ele>
        <time>2018-06-30T19:12:16.000Z</time>
      </trkpt>
      <trkpt lat="45.90118" lon="-0.89052">
        <ele>13</ele>
        <time>2018-06-30T19:12:17.000Z</time>
      </trkpt>
      <trkpt lat="45.90118" lon="-0.8905">
        <ele>12</ele>
        <time>2018-06-30T19:12:18.000Z</time>
      </trkpt>
      <trkpt lat="45.90118" lon="-0.89049">
        <ele>13</ele>
        <time>2018-06-30T19:12:19.000Z</time>
      </trkpt>
      <trkpt lat="45.90118" lon="-0.89047">
        <ele>12</ele>
        <time>2018-06-30T19:12:20.000Z</time>
      </trkpt>
      <trkpt lat="45.90118" lon="-0.89045">
        <ele>12</ele>
        <time>2018-06-30T19:12:21.000Z</time>
      </trkpt>
      <trkpt lat="45.90117" lon="-0.89043">
        <ele>13</ele>
        <time>2018-06-30T19:12:22.000Z</time>
      </trkpt>
      <trkpt lat="45.90117" lon="-0.89041">
        <ele>12</ele>
        <time>2018-06-30T19:12:23.000Z</time>
      </trkpt>
      <trkpt lat="45.90117" lon="-0.8904">
        <ele>12</ele>
        <time>2018-06-30T19:12:24.000Z</time>
      </trkpt>
      <trkpt lat="45.90117" lon="-0.89038">
        <ele>12</ele>
        <time>2018-06-30T19:12:25.000Z</time>
      </trkpt>
      <trkpt lat="45.90117" lon="-0.89036">
        <ele>12</ele>
        <time>2018-06-30T19:12:26.000Z</time>
      </trkpt>
      <trkpt lat="45.90117" lon="-0.89034">
        <ele>12</ele>
        <time>2018-06-30T19:12:27.000Z</time>
      </trkpt>
      <trkpt lat="45.90117" lon="-0.89032">
        <ele>12</ele>
        <time>2018-06-30T19:12:28.000Z</time>
      </trkpt>
      <trkpt lat="45.90117" lon="-0.8903">
        <ele>12</ele>
        <time>2018-06-30T19:12:29.000Z</time>
      </trkpt>
      <trkpt lat="45.90117" lon="-0.89028">
        <ele>12</ele>
        <time>2018-06-30T19:12:30.000Z</time>
      </trkpt>
      <trkpt lat="45.90117" lon="-0.89026">
        <ele>13</ele>
        <time>2018-06-30T19:12:31.000Z</time>
      </trkpt>
      <trkpt lat="45.90117" lon="-0.89024">
        <ele>13</ele>
        <time>2018-06-30T19:12:32.000Z</time>
      </trkpt>
      <trkpt lat="45.90116" lon="-0.89022">
        <ele>13</ele>
        <time>2018-06-30T19:12:33.000Z</time>
      </trkpt>
      <trkpt lat="45.90116" lon="-0.8902">
        <ele>13</ele>
        <time>2018-06-30T19:12:34.000Z</time>
      </trkpt>
      <trkpt lat="45.90116" lon="-0.89018">
        <ele>13</ele>
        <time>2018-06-30T19:12:35.000Z</time>
      </trkpt>
      <trkpt lat="45.90116" lon="-0.89016">
        <ele>13</ele>
        <time>2018-06-30T19:12:36.000Z</time>
      </trkpt>
      <trkpt lat="45.90116" lon="-0.89014">
        <ele>13</ele>
        <time>2018-06-30T19:12:37.000Z</time>
      </trkpt>
      <trkpt lat="45.90116" lon="-0.89013">
        <ele>13</ele>
        <time>2018-06-30T19:12:38.000Z</time>
      </trkpt>
      <trkpt lat="45.90116" lon="-0.89011">
        <ele>13</ele>
        <time>2018-06-30T19:12:39.000Z</time>
      </trkpt>
      <trkpt lat="45.90115" lon="-0.89009">
        <ele>13</ele>
        <time>2018-06-30T19:12:40.000Z</time>
      </trkpt>
      <trkpt lat="45.90115" lon="-0.89007">
        <ele>13</ele>
        <time>2018-06-30T19:12:41.000Z</time>
      </trkpt>
      <trkpt lat="45.90115" lon="-0.89005">
        <ele>13</ele>
        <time>2018-06-30T19:12:42.000Z</time>
      </trkpt>
      <trkpt lat="45.90115" lon="-0.89003">
        <ele>13</ele>
        <time>2018-06-30T19:12:43.000Z</time>
      </trkpt>
      <trkpt lat="45.90115" lon="-0.89002">
        <ele>12</ele>
        <time>2018-06-30T19:12:44.000Z</time>
      </trkpt>
      <trkpt lat="45.90115" lon="-0.89">
        <ele>12</ele>
        <time>2018-06-30T19:12:45.000Z</time>
      </trkpt>
      <trkpt lat="45.90114" lon="-0.88998">
        <ele>12</ele>
        <time>2018-06-30T19:12:46.000Z</time>
      </trkpt>
      <trkpt lat="45.90115" lon="-0.88996">
        <ele>12</ele>
        <time>2018-06-30T19:12:47.000Z</time>
      </trkpt>
      <trkpt lat="45.90115" lon="-0.88994">
        <ele>12</ele>
        <time>2018-06-30T19:12:48.000Z</time>
      </trkpt>
      <trkpt lat="45.90115" lon="-0.88993">
        <ele>13</ele>
        <time>2018-06-30T19:12:49.000Z</time>
      </trkpt>
      <trkpt lat="45.90115" lon="-0.88991">
        <ele>13</ele>
        <time>2018-06-30T19:12:50.000Z</time>
      </trkpt>
      <trkpt lat="45.90115" lon="-0.88989">
        <ele>13</ele>
        <time>2018-06-30T19:12:51.000Z</time>
      </trkpt>
      <trkpt lat="45.90115" lon="-0.88987">
        <ele>13</ele>
        <time>2018-06-30T19:12:52.000Z</time>
      </trkpt>
      <trkpt lat="45.90114" lon="-0.88985">
        <ele>13</ele>
        <time>2018-06-30T19:12:53.000Z</time>
      </trkpt>
      <trkpt lat="45.90114" lon="-0.88984">
        <ele>13</ele>
        <time>2018-06-30T19:12:54.000Z</time>
      </trkpt>
      <trkpt lat="45.90114" lon="-0.88982">
        <ele>13</ele>
        <time>2018-06-30T19:12:55.000Z</time>
      </trkpt>
      <trkpt lat="45.90114" lon="-0.88981">
        <ele>13</ele>
        <time>2018-06-30T19:12:56.000Z</time>
      </trkpt>
      <trkpt lat="45.90114" lon="-0.88979">
        <ele>13</ele>
        <time>2018-06-30T19:12:57.000Z</time>
      </trkpt>
      <trkpt lat="45.90114" lon="-0.88977">
        <ele>13</ele>
        <time>2018-06-30T19:12:58.000Z</time>
      </trkpt>
      <trkpt lat="45.90114" lon="-0.88975">
        <ele>13</ele>
        <time>2018-06-30T19:12:59.000Z</time>
      </trkpt>
      <trkpt lat="45.90114" lon="-0.88974">
        <ele>13</ele>
        <time>2018-06-30T19:13:00.000Z</time>
      </trkpt>
      <trkpt lat="45.90114" lon="-0.88972">
        <ele>13</ele>
        <time>2018-06-30T19:13:01.000Z</time>
      </trkpt>
      <trkpt lat="45.90114" lon="-0.8897">
        <ele>12</ele>
        <time>2018-06-30T19:13:02.000Z</time>
      </trkpt>
      <trkpt lat="45.90114" lon="-0.88969">
        <ele>12</ele>
        <time>2018-06-30T19:13:03.000Z</time>
      </trkpt>
      <trkpt lat="45.90114" lon="-0.88967">
        <ele>12</ele>
        <time>2018-06-30T19:13:04.000Z</time>
      </trkpt>
      <trkpt lat="45.90114" lon="-0.88965">
        <ele>13</ele>
        <time>2018-06-30T19:13:05.000Z</time>
      </trkpt>
      <trkpt lat="45.90114" lon="-0.88963">
        <ele>13</ele>
        <time>2018-06-30T19:13:06.000Z</time>
      </trkpt>
      <trkpt lat="45.90113" lon="-0.88961">
        <ele>13</ele>
        <time>2018-06-30T19:13:07.000Z</time>
      </trkpt>
      <trkpt lat="45.90113" lon="-0.8896">
        <ele>13</ele>
        <time>2018-06-30T19:13:08.000Z</time>
      </trkpt>
      <trkpt lat="45.90113" lon="-0.88958">
        <ele>13</ele>
        <time>2018-06-30T19:13:09.000Z</time>
      </trkpt>
      <trkpt lat="45.90113" lon="-0.88956">
        <ele>13</ele>
        <time>2018-06-30T19:13:10.000Z</time>
      </trkpt>
      <trkpt lat="45.90113" lon="-0.88954">
        <ele>13</ele>
        <time>2018-06-30T19:13:11.000Z</time>
      </trkpt>
      <trkpt lat="45.90113" lon="-0.88952">
        <ele>14</ele>
        <time>2018-06-30T19:13:12.000Z</time>
      </trkpt>
      <trkpt lat="45.90113" lon="-0.8895">
        <ele>14</ele>
        <time>2018-06-30T19:13:13.000Z</time>
      </trkpt>
      <trkpt lat="45.90113" lon="-0.88948">
        <ele>14</ele>
        <time>2018-06-30T19:13:14.000Z</time>
      </trkpt>
      <trkpt lat="45.90113" lon="-0.88946">
        <ele>14</ele>
        <time>2018-06-30T19:13:15.000Z</time>
      </trkpt>
      <trkpt lat="45.90113" lon="-0.88945">
        <ele>13</ele>
        <time>2018-06-30T19:13:16.000Z</time>
      </trkpt>
      <trkpt lat="45.90113" lon="-0.88943">
        <ele>13</ele>
        <time>2018-06-30T19:13:17.000Z</time>
      </trkpt>
      <trkpt lat="45.90113" lon="-0.88941">
        <ele>13</ele>
        <time>2018-06-30T19:13:18.000Z</time>
      </trkpt>
      <trkpt lat="45.90113" lon="-0.88939">
        <ele>14</ele>
        <time>2018-06-30T19:13:19.000Z</time>
      </trkpt>
      <trkpt lat="45.90113" lon="-0.88938">
        <ele>13</ele>
        <time>2018-06-30T19:13:20.000Z</time>
      </trkpt>
      <trkpt lat="45.90113" lon="-0.88936">
        <ele>13</ele>
        <time>2018-06-30T19:13:21.000Z</time>
      </trkpt>
      <trkpt lat="45.90113" lon="-0.88934">
        <ele>13</ele>
        <time>2018-06-30T19:13:22.000Z</time>
      </trkpt>
      <trkpt lat="45.90113" lon="-0.88933">
        <ele>13</ele>
        <time>2018-06-30T19:13:23.000Z</time>
      </trkpt>
      <trkpt lat="45.90113" lon="-0.88931">
        <ele>13</ele>
        <time>2018-06-30T19:13:24.000Z</time>
      </trkpt>
      <trkpt lat="45.90113" lon="-0.88929">
        <ele>13</ele>
        <time>2018-06-30T19:13:25.000Z</time>
      </trkpt>
      <trkpt lat="45.90113" lon="-0.88927">
        <ele>13</ele>
        <time>2018-06-30T19:13:26.000Z</time>
      </trkpt>
      <trkpt lat="45.90113" lon="-0.88925">
        <ele>13</ele>
        <time>2018-06-30T19:13:27.000Z</time>
      </trkpt>
      <trkpt lat="45.90112" lon="-0.88924">
        <ele>13</ele>
        <time>2018-06-30T19:13:28.000Z</time>
      </trkpt>
      <trkpt lat="45.90112" lon="-0.88922">
        <ele>13</ele>
        <time>2018-06-30T19:13:29.000Z</time>
      </trkpt>
      <trkpt lat="45.90112" lon="-0.8892">
        <ele>13</ele>
        <time>2018-06-30T19:13:30.000Z</time>
      </trkpt>
      <trkpt lat="45.90112" lon="-0.88918">
        <ele>13</ele>
        <time>2018-06-30T19:13:31.000Z</time>
      </trkpt>
      <trkpt lat="45.90112" lon="-0.88917">
        <ele>12</ele>
        <time>2018-06-30T19:13:32.000Z</time>
      </trkpt>
      <trkpt lat="45.90113" lon="-0.88915">
        <ele>13</ele>
        <time>2018-06-30T19:13:33.000Z</time>
      </trkpt>
      <trkpt lat="45.90113" lon="-0.88913">
        <ele>12</ele>
        <time>2018-06-30T19:13:34.000Z</time>
      </trkpt>
      <trkpt lat="45.90113" lon="-0.88912">
        <ele>12</ele>
        <time>2018-06-30T19:13:35.000Z</time>
      </trkpt>
      <trkpt lat="45.90113" lon="-0.8891">
        <ele>12</ele>
        <time>2018-06-30T19:13:36.000Z</time>
      </trkpt>
      <trkpt lat="45.90113" lon="-0.88909">
        <ele>12</ele>
        <time>2018-06-30T19:13:37.000Z</time>
      </trkpt>
      <trkpt lat="45.90114" lon="-0.88907">
        <ele>12</ele>
        <time>2018-06-30T19:13:38.000Z</time>
      </trkpt>
      <trkpt lat="45.90114" lon="-0.88905">
        <ele>12</ele>
        <time>2018-06-30T19:13:39.000Z</time>
      </trkpt>
      <trkpt lat="45.90114" lon="-0.88903">
        <ele>12</ele>
        <time>2018-06-30T19:13:40.000Z</time>
      </trkpt>
      <trkpt lat="45.90114" lon="-0.88901">
        <ele>11</ele>
        <time>2018-06-30T19:13:41.000Z</time>
      </trkpt>
      <trkpt lat="45.90114" lon="-0.88899">
        <ele>12</ele>
        <time>2018-06-30T19:13:42.000Z</time>
      </trkpt>
      <trkpt lat="45.90114" lon="-0.88897">
        <ele>12</ele>
        <time>2018-06-30T19:13:43.000Z</time>
      </trkpt>
      <trkpt lat="45.90114" lon="-0.88896">
        <ele>12</ele>
        <time>2018-06-30T19:13:44.000Z</time>
      </trkpt>
      <trkpt lat="45.90114" lon="-0.88894">
        <ele>12</ele>
        <time>2018-06-30T19:13:45.000Z</time>
      </trkpt>
      <trkpt lat="45.90114" lon="-0.88892">
        <ele>12</ele>
        <time>2018-06-30T19:13:46.000Z</time>
      </trkpt>
      <trkpt lat="45.90114" lon="-0.8889">
        <ele>11</ele>
        <time>2018-06-30T19:13:47.000Z</time>
      </trkpt>
      <trkpt lat="45.90114" lon="-0.88888">
        <ele>11</ele>
        <time>2018-06-30T19:13:48.000Z</time>
      </trkpt>
      <trkpt lat="45.90114" lon="-0.88887">
        <ele>11</ele>
        <time>2018-06-30T19:13:49.000Z</time>
      </trkpt>
      <trkpt lat="45.90114" lon="-0.88885">
        <ele>11</ele>
        <time>2018-06-30T19:13:50.000Z</time>
      </trkpt>
      <trkpt lat="45.90114" lon="-0.88883">
        <ele>11</ele>
        <time>2018-06-30T19:13:51.000Z</time>
      </trkpt>
      <trkpt lat="45.90114" lon="-0.88882">
        <ele>11</ele>
        <time>2018-06-30T19:13:52.000Z</time>
      </trkpt>
      <trkpt lat="45.90114" lon="-0.8888">
        <ele>10</ele>
        <time>2018-06-30T19:13:53.000Z</time>
      </trkpt>
      <trkpt lat="45.90114" lon="-0.88879">
        <ele>10</ele>
        <time>2018-06-30T19:13:54.000Z</time>
      </trkpt>
      <trkpt lat="45.90114" lon="-0.88877">
        <ele>10</ele>
        <time>2018-06-30T19:13:55.000Z</time>
      </trkpt>
      <trkpt lat="45.90114" lon="-0.88875">
        <ele>10</ele>
        <time>2018-06-30T19:13:56.000Z</time>
      </trkpt>
      <trkpt lat="45.90114" lon="-0.88874">
        <ele>9</ele>
        <time>2018-06-30T19:13:57.000Z</time>
      </trkpt>
      <trkpt lat="45.90114" lon="-0.88872">
        <ele>10</ele>
        <time>2018-06-30T19:13:58.000Z</time>
      </trkpt>
      <trkpt lat="45.90114" lon="-0.88871">
        <ele>9</ele>
        <time>2018-06-30T19:13:59.000Z</time>
      </trkpt>
      <trkpt lat="45.90114" lon="-0.88869">
        <ele>9</ele>
        <time>2018-06-30T19:14:00.000Z</time>
      </trkpt>
      <trkpt lat="45.90114" lon="-0.88868">
        <ele>9</ele>
        <time>2018-06-30T19:14:01.000Z</time>
      </trkpt>
      <trkpt lat="45.90114" lon="-0.88866">
        <ele>9</ele>
        <time>2018-06-30T19:14:02.000Z</time>
      </trkpt>
      <trkpt lat="45.90114" lon="-0.88865">
        <ele>9</ele>
        <time>2018-06-30T19:14:03.000Z</time>
      </trkpt>
      <trkpt lat="45.90114" lon="-0.88863">
        <ele>9</ele>
        <time>2018-06-30T19:14:04.000Z</time>
      </trkpt>
      <trkpt lat="45.90114" lon="-0.88862">
        <ele>9</ele>
        <time>2018-06-30T19:14:05.000Z</time>
      </trkpt>
      <trkpt lat="45.90114" lon="-0.88861">
        <ele>10</ele>
        <time>2018-06-30T19:14:06.000Z</time>
      </trkpt>
      <trkpt lat="45.90114" lon="-0.88859">
        <ele>10</ele>
        <time>2018-06-30T19:14:07.000Z</time>
      </trkpt>
      <trkpt lat="45.90114" lon="-0.88858">
        <ele>10</ele>
        <time>2018-06-30T19:14:08.000Z</time>
      </trkpt>
      <trkpt lat="45.90114" lon="-0.88856">
        <ele>10</ele>
        <time>2018-06-30T19:14:09.000Z</time>
      </trkpt>
      <trkpt lat="45.90114" lon="-0.88854">
        <ele>10</ele>
        <time>2018-06-30T19:14:10.000Z</time>
      </trkpt>
      <trkpt lat="45.90115" lon="-0.88852">
        <ele>10</ele>
        <time>2018-06-30T19:14:11.000Z</time>
      </trkpt>
      <trkpt lat="45.90115" lon="-0.8885">
        <ele>10</ele>
        <time>2018-06-30T19:14:12.000Z</time>
      </trkpt>
      <trkpt lat="45.90115" lon="-0.88848">
        <ele>10</ele>
        <time>2018-06-30T19:14:13.000Z</time>
      </trkpt>
      <trkpt lat="45.90115" lon="-0.88846">
        <ele>11</ele>
        <time>2018-06-30T19:14:14.000Z</time>
      </trkpt>
      <trkpt lat="45.90115" lon="-0.88844">
        <ele>11</ele>
        <time>2018-06-30T19:14:15.000Z</time>
      </trkpt>
      <trkpt lat="45.90115" lon="-0.88843">
        <ele>11</ele>
        <time>2018-06-30T19:14:16.000Z</time>
      </trkpt>
      <trkpt lat="45.90115" lon="-0.88841">
        <ele>11</ele>
        <time>2018-06-30T19:14:17.000Z</time>
      </trkpt>
      <trkpt lat="45.90115" lon="-0.88839">
        <ele>11</ele>
        <time>2018-06-30T19:14:18.000Z</time>
      </trkpt>
      <trkpt lat="45.90115" lon="-0.88837">
        <ele>12</ele>
        <time>2018-06-30T19:14:19.000Z</time>
      </trkpt>
      <trkpt lat="45.90115" lon="-0.88835">
        <ele>11</ele>
        <time>2018-06-30T19:14:20.000Z</time>
      </trkpt>
      <trkpt lat="45.90115" lon="-0.88833">
        <ele>11</ele>
        <time>2018-06-30T19:14:21.000Z</time>
      </trkpt>
      <trkpt lat="45.90115" lon="-0.88832">
        <ele>11</ele>
        <time>2018-06-30T19:14:22.000Z</time>
      </trkpt>
      <trkpt lat="45.90115" lon="-0.8883">
        <ele>11</ele>
        <time>2018-06-30T19:14:23.000Z</time>
      </trkpt>
      <trkpt lat="45.90115" lon="-0.88828">
        <ele>11</ele>
        <time>2018-06-30T19:14:24.000Z</time>
      </trkpt>
      <trkpt lat="45.90115" lon="-0.88826">
        <ele>11</ele>
        <time>2018-06-30T19:14:25.000Z</time>
      </trkpt>
      <trkpt lat="45.90115" lon="-0.88824">
        <ele>10</ele>
        <time>2018-06-30T19:14:26.000Z</time>
      </trkpt>
      <trkpt lat="45.90115" lon="-0.88822">
        <ele>10</ele>
        <time>2018-06-30T19:14:27.000Z</time>
      </trkpt>
      <trkpt lat="45.90115" lon="-0.88821">
        <ele>10</ele>
        <time>2018-06-30T19:14:28.000Z</time>
      </trkpt>
      <trkpt lat="45.90115" lon="-0.88819">
        <ele>10</ele>
        <time>2018-06-30T19:14:29.000Z</time>
      </trkpt>
      <trkpt lat="45.90115" lon="-0.88818">
        <ele>10</ele>
        <time>2018-06-30T19:14:30.000Z</time>
      </trkpt>
      <trkpt lat="45.90115" lon="-0.88816">
        <ele>10</ele>
        <time>2018-06-30T19:14:31.000Z</time>
      </trkpt>
      <trkpt lat="45.90115" lon="-0.88814">
        <ele>10</ele>
        <time>2018-06-30T19:14:32.000Z</time>
      </trkpt>
      <trkpt lat="45.90115" lon="-0.88812">
        <ele>10</ele>
        <time>2018-06-30T19:14:33.000Z</time>
      </trkpt>
      <trkpt lat="45.90115" lon="-0.8881">
        <ele>10</ele>
        <time>2018-06-30T19:14:34.000Z</time>
      </trkpt>
      <trkpt lat="45.90115" lon="-0.88808">
        <ele>10</ele>
        <time>2018-06-30T19:14:35.000Z</time>
      </trkpt>
      <trkpt lat="45.90115" lon="-0.88806">
        <ele>10</ele>
        <time>2018-06-30T19:14:36.000Z</time>
      </trkpt>
      <trkpt lat="45.90115" lon="-0.88804">
        <ele>10</ele>
        <time>2018-06-30T19:14:37.000Z</time>
      </trkpt>
      <trkpt lat="45.90115" lon="-0.88802">
        <ele>11</ele>
        <time>2018-06-30T19:14:38.000Z</time>
      </trkpt>
      <trkpt lat="45.90116" lon="-0.888">
        <ele>11</ele>
        <time>2018-06-30T19:14:39.000Z</time>
      </trkpt>
      <trkpt lat="45.90116" lon="-0.88798">
        <ele>11</ele>
        <time>2018-06-30T19:14:40.000Z</time>
      </trkpt>
      <trkpt lat="45.90116" lon="-0.88797">
        <ele>11</ele>
        <time>2018-06-30T19:14:41.000Z</time>
      </trkpt>
      <trkpt lat="45.90116" lon="-0.88795">
        <ele>11</ele>
        <time>2018-06-30T19:14:42.000Z</time>
      </trkpt>
      <trkpt lat="45.90116" lon="-0.88793">
        <ele>11</ele>
        <time>2018-06-30T19:14:43.000Z</time>
      </trkpt>
      <trkpt lat="45.90116" lon="-0.88791">
        <ele>11</ele>
        <time>2018-06-30T19:14:44.000Z</time>
      </trkpt>
      <trkpt lat="45.90116" lon="-0.8879">
        <ele>11</ele>
        <time>2018-06-30T19:14:45.000Z</time>
      </trkpt>
      <trkpt lat="45.90116" lon="-0.88788">
        <ele>11</ele>
        <time>2018-06-30T19:14:46.000Z</time>
      </trkpt>
      <trkpt lat="45.90116" lon="-0.88786">
        <ele>12</ele>
        <time>2018-06-30T19:14:47.000Z</time>
      </trkpt>
      <trkpt lat="45.90117" lon="-0.88783">
        <ele>12</ele>
        <time>2018-06-30T19:14:48.000Z</time>
      </trkpt>
      <trkpt lat="45.90117" lon="-0.88782">
        <ele>12</ele>
        <time>2018-06-30T19:14:49.000Z</time>
      </trkpt>
      <trkpt lat="45.90117" lon="-0.8878">
        <ele>12</ele>
        <time>2018-06-30T19:14:50.000Z</time>
      </trkpt>
      <trkpt lat="45.90117" lon="-0.88778">
        <ele>12</ele>
        <time>2018-06-30T19:14:51.000Z</time>
      </trkpt>
      <trkpt lat="45.90117" lon="-0.88776">
        <ele>12</ele>
        <time>2018-06-30T19:14:52.000Z</time>
      </trkpt>
      <trkpt lat="45.90117" lon="-0.88774">
        <ele>12</ele>
        <time>2018-06-30T19:14:53.000Z</time>
      </trkpt>
      <trkpt lat="45.90117" lon="-0.88772">
        <ele>12</ele>
        <time>2018-06-30T19:14:54.000Z</time>
      </trkpt>
      <trkpt lat="45.90117" lon="-0.8877">
        <ele>12</ele>
        <time>2018-06-30T19:14:55.000Z</time>
      </trkpt>
      <trkpt lat="45.90118" lon="-0.88768">
        <ele>12</ele>
        <time>2018-06-30T19:14:56.000Z</time>
      </trkpt>
      <trkpt lat="45.90118" lon="-0.88767">
        <ele>12</ele>
        <time>2018-06-30T19:14:57.000Z</time>
      </trkpt>
      <trkpt lat="45.90118" lon="-0.88765">
        <ele>12</ele>
        <time>2018-06-30T19:14:58.000Z</time>
      </trkpt>
      <trkpt lat="45.90118" lon="-0.88763">
        <ele>12</ele>
        <time>2018-06-30T19:14:59.000Z</time>
      </trkpt>
      <trkpt lat="45.90118" lon="-0.88762">
        <ele>13</ele>
        <time>2018-06-30T19:15:00.000Z</time>
      </trkpt>
      <trkpt lat="45.90118" lon="-0.8876">
        <ele>13</ele>
        <time>2018-06-30T19:15:01.000Z</time>
      </trkpt>
      <trkpt lat="45.90119" lon="-0.88758">
        <ele>13</ele>
        <time>2018-06-30T19:15:02.000Z</time>
      </trkpt>
      <trkpt lat="45.90119" lon="-0.88756">
        <ele>13</ele>
        <time>2018-06-30T19:15:03.000Z</time>
      </trkpt>
      <trkpt lat="45.90119" lon="-0.88755">
        <ele>12</ele>
        <time>2018-06-30T19:15:04.000Z</time>
      </trkpt>
      <trkpt lat="45.90119" lon="-0.88753">
        <ele>13</ele>
        <time>2018-06-30T19:15:05.000Z</time>
      </trkpt>
      <trkpt lat="45.90119" lon="-0.88751">
        <ele>12</ele>
        <time>2018-06-30T19:15:06.000Z</time>
      </trkpt>
      <trkpt lat="45.9012" lon="-0.88749">
        <ele>12</ele>
        <time>2018-06-30T19:15:07.000Z</time>
      </trkpt>
      <trkpt lat="45.9012" lon="-0.88748">
        <ele>12</ele>
        <time>2018-06-30T19:15:08.000Z</time>
      </trkpt>
      <trkpt lat="45.9012" lon="-0.88746">
        <ele>12</ele>
        <time>2018-06-30T19:15:09.000Z</time>
      </trkpt>
      <trkpt lat="45.9012" lon="-0.88744">
        <ele>12</ele>
        <time>2018-06-30T19:15:10.000Z</time>
      </trkpt>
      <trkpt lat="45.9012" lon="-0.88742">
        <ele>12</ele>
        <time>2018-06-30T19:15:11.000Z</time>
      </trkpt>
      <trkpt lat="45.9012" lon="-0.88741">
        <ele>12</ele>
        <time>2018-06-30T19:15:12.000Z</time>
      </trkpt>
      <trkpt lat="45.9012" lon="-0.88739">
        <ele>12</ele>
        <time>2018-06-30T19:15:13.000Z</time>
      </trkpt>
      <trkpt lat="45.9012" lon="-0.88737">
        <ele>12</ele>
        <time>2018-06-30T19:15:14.000Z</time>
      </trkpt>
      <trkpt lat="45.9012" lon="-0.88735">
        <ele>12</ele>
        <time>2018-06-30T19:15:15.000Z</time>
      </trkpt>
      <trkpt lat="45.90121" lon="-0.88734">
        <ele>12</ele>
        <time>2018-06-30T19:15:16.000Z</time>
      </trkpt>
      <trkpt lat="45.90121" lon="-0.88732">
        <ele>12</ele>
        <time>2018-06-30T19:15:17.000Z</time>
      </trkpt>
      <trkpt lat="45.90121" lon="-0.8873">
        <ele>11</ele>
        <time>2018-06-30T19:15:18.000Z</time>
      </trkpt>
      <trkpt lat="45.90121" lon="-0.88728">
        <ele>11</ele>
        <time>2018-06-30T19:15:19.000Z</time>
      </trkpt>
      <trkpt lat="45.90121" lon="-0.88727">
        <ele>11</ele>
        <time>2018-06-30T19:15:20.000Z</time>
      </trkpt>
      <trkpt lat="45.90121" lon="-0.88725">
        <ele>11</ele>
        <time>2018-06-30T19:15:21.000Z</time>
      </trkpt>
      <trkpt lat="45.90121" lon="-0.88723">
        <ele>11</ele>
        <time>2018-06-30T19:15:22.000Z</time>
      </trkpt>
      <trkpt lat="45.90122" lon="-0.88722">
        <ele>11</ele>
        <time>2018-06-30T19:15:23.000Z</time>
      </trkpt>
      <trkpt lat="45.90122" lon="-0.8872">
        <ele>11</ele>
        <time>2018-06-30T19:15:24.000Z</time>
      </trkpt>
      <trkpt lat="45.90122" lon="-0.88718">
        <ele>12</ele>
        <time>2018-06-30T19:15:25.000Z</time>
      </trkpt>
      <trkpt lat="45.90122" lon="-0.88716">
        <ele>12</ele>
        <time>2018-06-30T19:15:26.000Z</time>
      </trkpt>
      <trkpt lat="45.90122" lon="-0.88714">
        <ele>12</ele>
        <time>2018-06-30T19:15:27.000Z</time>
      </trkpt>
      <trkpt lat="45.90123" lon="-0.88712">
        <ele>11</ele>
        <time>2018-06-30T19:15:28.000Z</time>
      </trkpt>
      <trkpt lat="45.90123" lon="-0.8871">
        <ele>11</ele>
        <time>2018-06-30T19:15:29.000Z</time>
      </trkpt>
      <trkpt lat="45.90123" lon="-0.88709">
        <ele>11</ele>
        <time>2018-06-30T19:15:30.000Z</time>
      </trkpt>
      <trkpt lat="45.90123" lon="-0.88707">
        <ele>11</ele>
        <time>2018-06-30T19:15:31.000Z</time>
      </trkpt>
      <trkpt lat="45.90123" lon="-0.88705">
        <ele>11</ele>
        <time>2018-06-30T19:15:32.000Z</time>
      </trkpt>
      <trkpt lat="45.90123" lon="-0.88703">
        <ele>10</ele>
        <time>2018-06-30T19:15:33.000Z</time>
      </trkpt>
      <trkpt lat="45.90124" lon="-0.88701">
        <ele>10</ele>
        <time>2018-06-30T19:15:34.000Z</time>
      </trkpt>
      <trkpt lat="45.90124" lon="-0.88699">
        <ele>10</ele>
        <time>2018-06-30T19:15:35.000Z</time>
      </trkpt>
      <trkpt lat="45.90124" lon="-0.88698">
        <ele>9</ele>
        <time>2018-06-30T19:15:36.000Z</time>
      </trkpt>
      <trkpt lat="45.90124" lon="-0.88696">
        <ele>9</ele>
        <time>2018-06-30T19:15:37.000Z</time>
      </trkpt>
      <trkpt lat="45.90125" lon="-0.88694">
        <ele>9</ele>
        <time>2018-06-30T19:15:38.000Z</time>
      </trkpt>
      <trkpt lat="45.90125" lon="-0.88692">
        <ele>9</ele>
        <time>2018-06-30T19:15:39.000Z</time>
      </trkpt>
      <trkpt lat="45.90125" lon="-0.8869">
        <ele>9</ele>
        <time>2018-06-30T19:15:40.000Z</time>
      </trkpt>
      <trkpt lat="45.90125" lon="-0.88689">
        <ele>9</ele>
        <time>2018-06-30T19:15:41.000Z</time>
      </trkpt>
      <trkpt lat="45.90125" lon="-0.88687">
        <ele>9</ele>
        <time>2018-06-30T19:15:42.000Z</time>
      </trkpt>
      <trkpt lat="45.90125" lon="-0.88685">
        <ele>9</ele>
        <time>2018-06-30T19:15:43.000Z</time>
      </trkpt>
      <trkpt lat="45.90125" lon="-0.88683">
        <ele>9</ele>
        <time>2018-06-30T19:15:44.000Z</time>
      </trkpt>
      <trkpt lat="45.90125" lon="-0.88681">
        <ele>9</ele>
        <time>2018-06-30T19:15:45.000Z</time>
      </trkpt>
      <trkpt lat="45.90126" lon="-0.88679">
        <ele>9</ele>
        <time>2018-06-30T19:15:46.000Z</time>
      </trkpt>
      <trkpt lat="45.90126" lon="-0.88677">
        <ele>9</ele>
        <time>2018-06-30T19:15:47.000Z</time>
      </trkpt>
      <trkpt lat="45.90126" lon="-0.88676">
        <ele>9</ele>
        <time>2018-06-30T19:15:48.000Z</time>
      </trkpt>
      <trkpt lat="45.90126" lon="-0.88674">
        <ele>9</ele>
        <time>2018-06-30T19:15:49.000Z</time>
      </trkpt>
      <trkpt lat="45.90126" lon="-0.88672">
        <ele>9</ele>
        <time>2018-06-30T19:15:50.000Z</time>
      </trkpt>
      <trkpt lat="45.90126" lon="-0.8867">
        <ele>9</ele>
        <time>2018-06-30T19:15:51.000Z</time>
      </trkpt>
      <trkpt lat="45.90127" lon="-0.88669">
        <ele>9</ele>
        <time>2018-06-30T19:15:52.000Z</time>
      </trkpt>
      <trkpt lat="45.90127" lon="-0.88667">
        <ele>9</ele>
        <time>2018-06-30T19:15:53.000Z</time>
      </trkpt>
      <trkpt lat="45.90127" lon="-0.88665">
        <ele>9</ele>
        <time>2018-06-30T19:15:54.000Z</time>
      </trkpt>
      <trkpt lat="45.90127" lon="-0.88663">
        <ele>9</ele>
        <time>2018-06-30T19:15:55.000Z</time>
      </trkpt>
      <trkpt lat="45.90127" lon="-0.88661">
        <ele>9</ele>
        <time>2018-06-30T19:15:56.000Z</time>
      </trkpt>
      <trkpt lat="45.90128" lon="-0.88659">
        <ele>9</ele>
        <time>2018-06-30T19:15:57.000Z</time>
      </trkpt>
      <trkpt lat="45.90128" lon="-0.88658">
        <ele>9</ele>
        <time>2018-06-30T19:15:58.000Z</time>
      </trkpt>
      <trkpt lat="45.90128" lon="-0.88656">
        <ele>9</ele>
        <time>2018-06-30T19:15:59.000Z</time>
      </trkpt>
      <trkpt lat="45.90128" lon="-0.88654">
        <ele>9</ele>
        <time>2018-06-30T19:16:00.000Z</time>
      </trkpt>
      <trkpt lat="45.90129" lon="-0.88652">
        <ele>9</ele>
        <time>2018-06-30T19:16:01.000Z</time>
      </trkpt>
      <trkpt lat="45.90129" lon="-0.8865">
        <ele>9</ele>
        <time>2018-06-30T19:16:02.000Z</time>
      </trkpt>
      <trkpt lat="45.90129" lon="-0.88648">
        <ele>9</ele>
        <time>2018-06-30T19:16:03.000Z</time>
      </trkpt>
      <trkpt lat="45.90129" lon="-0.88647">
        <ele>9</ele>
        <time>2018-06-30T19:16:04.000Z</time>
      </trkpt>
      <trkpt lat="45.9013" lon="-0.88645">
        <ele>9</ele>
        <time>2018-06-30T19:16:05.000Z</time>
      </trkpt>
      <trkpt lat="45.9013" lon="-0.88643">
        <ele>9</ele>
        <time>2018-06-30T19:16:06.000Z</time>
      </trkpt>
      <trkpt lat="45.9013" lon="-0.88641">
        <ele>10</ele>
        <time>2018-06-30T19:16:07.000Z</time>
      </trkpt>
      <trkpt lat="45.9013" lon="-0.8864">
        <ele>9</ele>
        <time>2018-06-30T19:16:08.000Z</time>
      </trkpt>
      <trkpt lat="45.9013" lon="-0.88638">
        <ele>9</ele>
        <time>2018-06-30T19:16:09.000Z</time>
      </trkpt>
      <trkpt lat="45.90131" lon="-0.88636">
        <ele>9</ele>
        <time>2018-06-30T19:16:10.000Z</time>
      </trkpt>
      <trkpt lat="45.90131" lon="-0.88635">
        <ele>9</ele>
        <time>2018-06-30T19:16:11.000Z</time>
      </trkpt>
      <trkpt lat="45.90131" lon="-0.88633">
        <ele>9</ele>
        <time>2018-06-30T19:16:12.000Z</time>
      </trkpt>
      <trkpt lat="45.90131" lon="-0.88631">
        <ele>9</ele>
        <time>2018-06-30T19:16:13.000Z</time>
      </trkpt>
      <trkpt lat="45.90131" lon="-0.8863">
        <ele>9</ele>
        <time>2018-06-30T19:16:14.000Z</time>
      </trkpt>
      <trkpt lat="45.90132" lon="-0.88628">
        <ele>9</ele>
        <time>2018-06-30T19:16:15.000Z</time>
      </trkpt>
      <trkpt lat="45.90132" lon="-0.88626">
        <ele>9</ele>
        <time>2018-06-30T19:16:16.000Z</time>
      </trkpt>
      <trkpt lat="45.90132" lon="-0.88625">
        <ele>9</ele>
        <time>2018-06-30T19:16:17.000Z</time>
      </trkpt>
      <trkpt lat="45.90132" lon="-0.88623">
        <ele>9</ele>
        <time>2018-06-30T19:16:18.000Z</time>
      </trkpt>
      <trkpt lat="45.90132" lon="-0.88621">
        <ele>9</ele>
        <time>2018-06-30T19:16:19.000Z</time>
      </trkpt>
      <trkpt lat="45.90133" lon="-0.8862">
        <ele>9</ele>
        <time>2018-06-30T19:16:20.000Z</time>
      </trkpt>
      <trkpt lat="45.90133" lon="-0.88618">
        <ele>9</ele>
        <time>2018-06-30T19:16:21.000Z</time>
      </trkpt>
      <trkpt lat="45.90133" lon="-0.88617">
        <ele>9</ele>
        <time>2018-06-30T19:16:22.000Z</time>
      </trkpt>
      <trkpt lat="45.90134" lon="-0.88615">
        <ele>9</ele>
        <time>2018-06-30T19:16:23.000Z</time>
      </trkpt>
      <trkpt lat="45.90134" lon="-0.88613">
        <ele>9</ele>
        <time>2018-06-30T19:16:24.000Z</time>
      </trkpt>
      <trkpt lat="45.90134" lon="-0.88612">
        <ele>9</ele>
        <time>2018-06-30T19:16:25.000Z</time>
      </trkpt>
      <trkpt lat="45.90135" lon="-0.8861">
        <ele>9</ele>
        <time>2018-06-30T19:16:26.000Z</time>
      </trkpt>
      <trkpt lat="45.90135" lon="-0.88609">
        <ele>9</ele>
        <time>2018-06-30T19:16:27.000Z</time>
      </trkpt>
      <trkpt lat="45.90135" lon="-0.88607">
        <ele>9</ele>
        <time>2018-06-30T19:16:28.000Z</time>
      </trkpt>
      <trkpt lat="45.90136" lon="-0.88606">
        <ele>9</ele>
        <time>2018-06-30T19:16:29.000Z</time>
      </trkpt>
      <trkpt lat="45.90136" lon="-0.88604">
        <ele>9</ele>
        <time>2018-06-30T19:16:30.000Z</time>
      </trkpt>
      <trkpt lat="45.90136" lon="-0.88603">
        <ele>9</ele>
        <time>2018-06-30T19:16:31.000Z</time>
      </trkpt>
      <trkpt lat="45.90136" lon="-0.88601">
        <ele>9</ele>
        <time>2018-06-30T19:16:32.000Z</time>
      </trkpt>
      <trkpt lat="45.90137" lon="-0.88599">
        <ele>9</ele>
        <time>2018-06-30T19:16:33.000Z</time>
      </trkpt>
      <trkpt lat="45.90137" lon="-0.88598">
        <ele>9</ele>
        <time>2018-06-30T19:16:34.000Z</time>
      </trkpt>
      <trkpt lat="45.90137" lon="-0.88596">
        <ele>9</ele>
        <time>2018-06-30T19:16:35.000Z</time>
      </trkpt>
      <trkpt lat="45.90137" lon="-0.88595">
        <ele>9</ele>
        <time>2018-06-30T19:16:36.000Z</time>
      </trkpt>
      <trkpt lat="45.90137" lon="-0.88593">
        <ele>9</ele>
        <time>2018-06-30T19:16:37.000Z</time>
      </trkpt>
      <trkpt lat="45.90138" lon="-0.88591">
        <ele>9</ele>
        <time>2018-06-30T19:16:38.000Z</time>
      </trkpt>
      <trkpt lat="45.90138" lon="-0.8859">
        <ele>9</ele>
        <time>2018-06-30T19:16:39.000Z</time>
      </trkpt>
      <trkpt lat="45.90138" lon="-0.88588">
        <ele>9</ele>
        <time>2018-06-30T19:16:40.000Z</time>
      </trkpt>
      <trkpt lat="45.90138" lon="-0.88587">
        <ele>9</ele>
        <time>2018-06-30T19:16:41.000Z</time>
      </trkpt>
      <trkpt lat="45.90139" lon="-0.88585">
        <ele>9</ele>
        <time>2018-06-30T19:16:42.000Z</time>
      </trkpt>
      <trkpt lat="45.90139" lon="-0.88584">
        <ele>9</ele>
        <time>2018-06-30T19:16:43.000Z</time>
      </trkpt>
      <trkpt lat="45.90139" lon="-0.88582">
        <ele>9</ele>
        <time>2018-06-30T19:16:44.000Z</time>
      </trkpt>
      <trkpt lat="45.90139" lon="-0.8858">
        <ele>9</ele>
        <time>2018-06-30T19:16:45.000Z</time>
      </trkpt>
      <trkpt lat="45.9014" lon="-0.88579">
        <ele>9</ele>
        <time>2018-06-30T19:16:46.000Z</time>
      </trkpt>
      <trkpt lat="45.9014" lon="-0.88577">
        <ele>9</ele>
        <time>2018-06-30T19:16:47.000Z</time>
      </trkpt>
      <trkpt lat="45.9014" lon="-0.88576">
        <ele>9</ele>
        <time>2018-06-30T19:16:48.000Z</time>
      </trkpt>
      <trkpt lat="45.9014" lon="-0.88574">
        <ele>9</ele>
        <time>2018-06-30T19:16:49.000Z</time>
      </trkpt>
      <trkpt lat="45.9014" lon="-0.88572">
        <ele>10</ele>
        <time>2018-06-30T19:16:50.000Z</time>
      </trkpt>
      <trkpt lat="45.90141" lon="-0.88571">
        <ele>9</ele>
        <time>2018-06-30T19:16:51.000Z</time>
      </trkpt>
      <trkpt lat="45.90141" lon="-0.88569">
        <ele>9</ele>
        <time>2018-06-30T19:16:52.000Z</time>
      </trkpt>
      <trkpt lat="45.90141" lon="-0.88568">
        <ele>9</ele>
        <time>2018-06-30T19:16:53.000Z</time>
      </trkpt>
      <trkpt lat="45.90141" lon="-0.88566">
        <ele>9</ele>
        <time>2018-06-30T19:16:54.000Z</time>
      </trkpt>
      <trkpt lat="45.90142" lon="-0.88564">
        <ele>9</ele>
        <time>2018-06-30T19:16:55.000Z</time>
      </trkpt>
      <trkpt lat="45.90142" lon="-0.88563">
        <ele>9</ele>
        <time>2018-06-30T19:16:56.000Z</time>
      </trkpt>
      <trkpt lat="45.90142" lon="-0.88561">
        <ele>9</ele>
        <time>2018-06-30T19:16:57.000Z</time>
      </trkpt>
      <trkpt lat="45.90142" lon="-0.8856">
        <ele>8</ele>
        <time>2018-06-30T19:16:58.000Z</time>
      </trkpt>
      <trkpt lat="45.90142" lon="-0.88558">
        <ele>8</ele>
        <time>2018-06-30T19:16:59.000Z</time>
      </trkpt>
      <trkpt lat="45.90143" lon="-0.88556">
        <ele>8</ele>
        <time>2018-06-30T19:17:00.000Z</time>
      </trkpt>
      <trkpt lat="45.90143" lon="-0.88555">
        <ele>8</ele>
        <time>2018-06-30T19:17:01.000Z</time>
      </trkpt>
      <trkpt lat="45.90143" lon="-0.88553">
        <ele>8</ele>
        <time>2018-06-30T19:17:02.000Z</time>
      </trkpt>
      <trkpt lat="45.90143" lon="-0.88552">
        <ele>8</ele>
        <time>2018-06-30T19:17:03.000Z</time>
      </trkpt>
      <trkpt lat="45.90144" lon="-0.8855">
        <ele>8</ele>
        <time>2018-06-30T19:17:04.000Z</time>
      </trkpt>
      <trkpt lat="45.90144" lon="-0.88549">
        <ele>8</ele>
        <time>2018-06-30T19:17:05.000Z</time>
      </trkpt>
      <trkpt lat="45.90144" lon="-0.88547">
        <ele>8</ele>
        <time>2018-06-30T19:17:06.000Z</time>
      </trkpt>
      <trkpt lat="45.90144" lon="-0.88546">
        <ele>7</ele>
        <time>2018-06-30T19:17:07.000Z</time>
      </trkpt>
      <trkpt lat="45.90144" lon="-0.88544">
        <ele>7</ele>
        <time>2018-06-30T19:17:08.000Z</time>
      </trkpt>
      <trkpt lat="45.90145" lon="-0.88542">
        <ele>7</ele>
        <time>2018-06-30T19:17:09.000Z</time>
      </trkpt>
      <trkpt lat="45.90145" lon="-0.88541">
        <ele>7</ele>
        <time>2018-06-30T19:17:10.000Z</time>
      </trkpt>
      <trkpt lat="45.90145" lon="-0.88539">
        <ele>7</ele>
        <time>2018-06-30T19:17:11.000Z</time>
      </trkpt>
      <trkpt lat="45.90145" lon="-0.88538">
        <ele>7</ele>
        <time>2018-06-30T19:17:12.000Z</time>
      </trkpt>
      <trkpt lat="45.90145" lon="-0.88536">
        <ele>7</ele>
        <time>2018-06-30T19:17:13.000Z</time>
      </trkpt>
      <trkpt lat="45.90145" lon="-0.88534">
        <ele>6</ele>
        <time>2018-06-30T19:17:14.000Z</time>
      </trkpt>
      <trkpt lat="45.90145" lon="-0.88533">
        <ele>6</ele>
        <time>2018-06-30T19:17:15.000Z</time>
      </trkpt>
      <trkpt lat="45.90146" lon="-0.88531">
        <ele>6</ele>
        <time>2018-06-30T19:17:16.000Z</time>
      </trkpt>
      <trkpt lat="45.90146" lon="-0.88529">
        <ele>6</ele>
        <time>2018-06-30T19:17:17.000Z</time>
      </trkpt>
      <trkpt lat="45.90146" lon="-0.88527">
        <ele>6</ele>
        <time>2018-06-30T19:17:18.000Z</time>
      </trkpt>
      <trkpt lat="45.90147" lon="-0.88526">
        <ele>6</ele>
        <time>2018-06-30T19:17:19.000Z</time>
      </trkpt>
      <trkpt lat="45.90147" lon="-0.88524">
        <ele>6</ele>
        <time>2018-06-30T19:17:20.000Z</time>
      </trkpt>
      <trkpt lat="45.90147" lon="-0.88522">
        <ele>6</ele>
        <time>2018-06-30T19:17:21.000Z</time>
      </trkpt>
      <trkpt lat="45.90148" lon="-0.88521">
        <ele>6</ele>
        <time>2018-06-30T19:17:22.000Z</time>
      </trkpt>
      <trkpt lat="45.90148" lon="-0.88519">
        <ele>6</ele>
        <time>2018-06-30T19:17:23.000Z</time>
      </trkpt>
      <trkpt lat="45.90149" lon="-0.88518">
        <ele>6</ele>
        <time>2018-06-30T19:17:24.000Z</time>
      </trkpt>
      <trkpt lat="45.90149" lon="-0.88516">
        <ele>6</ele>
        <time>2018-06-30T19:17:25.000Z</time>
      </trkpt>
      <trkpt lat="45.9015" lon="-0.88514">
        <ele>6</ele>
        <time>2018-06-30T19:17:26.000Z</time>
      </trkpt>
      <trkpt lat="45.9015" lon="-0.88513">
        <ele>6</ele>
        <time>2018-06-30T19:17:27.000Z</time>
      </trkpt>
      <trkpt lat="45.9015" lon="-0.88511">
        <ele>6</ele>
        <time>2018-06-30T19:17:28.000Z</time>
      </trkpt>
      <trkpt lat="45.90151" lon="-0.88509">
        <ele>6</ele>
        <time>2018-06-30T19:17:29.000Z</time>
      </trkpt>
      <trkpt lat="45.90151" lon="-0.88507">
        <ele>6</ele>
        <time>2018-06-30T19:17:30.000Z</time>
      </trkpt>
      <trkpt lat="45.90152" lon="-0.88505">
        <ele>6</ele>
        <time>2018-06-30T19:17:31.000Z</time>
      </trkpt>
      <trkpt lat="45.90152" lon="-0.88504">
        <ele>6</ele>
        <time>2018-06-30T19:17:32.000Z</time>
      </trkpt>
      <trkpt lat="45.90152" lon="-0.88502">
        <ele>7</ele>
        <time>2018-06-30T19:17:33.000Z</time>
      </trkpt>
      <trkpt lat="45.90152" lon="-0.885">
        <ele>6</ele>
        <time>2018-06-30T19:17:34.000Z</time>
      </trkpt>
      <trkpt lat="45.90153" lon="-0.88498">
        <ele>6</ele>
        <time>2018-06-30T19:17:35.000Z</time>
      </trkpt>
      <trkpt lat="45.90153" lon="-0.88497">
        <ele>7</ele>
        <time>2018-06-30T19:17:36.000Z</time>
      </trkpt>
      <trkpt lat="45.90153" lon="-0.88495">
        <ele>7</ele>
        <time>2018-06-30T19:17:37.000Z</time>
      </trkpt>
      <trkpt lat="45.90154" lon="-0.88493">
        <ele>7</ele>
        <time>2018-06-30T19:17:38.000Z</time>
      </trkpt>
      <trkpt lat="45.90154" lon="-0.88491">
        <ele>7</ele>
        <time>2018-06-30T19:17:39.000Z</time>
      </trkpt>
      <trkpt lat="45.90154" lon="-0.88489">
        <ele>7</ele>
        <time>2018-06-30T19:17:40.000Z</time>
      </trkpt>
      <trkpt lat="45.90155" lon="-0.88488">
        <ele>7</ele>
        <time>2018-06-30T19:17:41.000Z</time>
      </trkpt>
      <trkpt lat="45.90155" lon="-0.88486">
        <ele>7</ele>
        <time>2018-06-30T19:17:42.000Z</time>
      </trkpt>
      <trkpt lat="45.90155" lon="-0.88484">
        <ele>7</ele>
        <time>2018-06-30T19:17:43.000Z</time>
      </trkpt>
      <trkpt lat="45.90156" lon="-0.88483">
        <ele>7</ele>
        <time>2018-06-30T19:17:44.000Z</time>
      </trkpt>
      <trkpt lat="45.90156" lon="-0.88481">
        <ele>7</ele>
        <time>2018-06-30T19:17:45.000Z</time>
      </trkpt>
      <trkpt lat="45.90156" lon="-0.88479">
        <ele>7</ele>
        <time>2018-06-30T19:17:46.000Z</time>
      </trkpt>
      <trkpt lat="45.90157" lon="-0.88477">
        <ele>8</ele>
        <time>2018-06-30T19:17:47.000Z</time>
      </trkpt>
      <trkpt lat="45.90157" lon="-0.88475">
        <ele>8</ele>
        <time>2018-06-30T19:17:48.000Z</time>
      </trkpt>
      <trkpt lat="45.90157" lon="-0.88473">
        <ele>8</ele>
        <time>2018-06-30T19:17:49.000Z</time>
      </trkpt>
      <trkpt lat="45.90158" lon="-0.88471">
        <ele>8</ele>
        <time>2018-06-30T19:17:50.000Z</time>
      </trkpt>
      <trkpt lat="45.90158" lon="-0.8847">
        <ele>8</ele>
        <time>2018-06-30T19:17:51.000Z</time>
      </trkpt>
      <trkpt lat="45.90159" lon="-0.88468">
        <ele>8</ele>
        <time>2018-06-30T19:17:52.000Z</time>
      </trkpt>
      <trkpt lat="45.90159" lon="-0.88466">
        <ele>8</ele>
        <time>2018-06-30T19:17:53.000Z</time>
      </trkpt>
      <trkpt lat="45.9016" lon="-0.88464">
        <ele>8</ele>
        <time>2018-06-30T19:17:54.000Z</time>
      </trkpt>
      <trkpt lat="45.9016" lon="-0.88462">
        <ele>8</ele>
        <time>2018-06-30T19:17:55.000Z</time>
      </trkpt>
      <trkpt lat="45.9016" lon="-0.8846">
        <ele>8</ele>
        <time>2018-06-30T19:17:56.000Z</time>
      </trkpt>
      <trkpt lat="45.90161" lon="-0.88458">
        <ele>8</ele>
        <time>2018-06-30T19:17:57.000Z</time>
      </trkpt>
      <trkpt lat="45.90161" lon="-0.88456">
        <ele>8</ele>
        <time>2018-06-30T19:17:58.000Z</time>
      </trkpt>
      <trkpt lat="45.90161" lon="-0.88455">
        <ele>8</ele>
        <time>2018-06-30T19:17:59.000Z</time>
      </trkpt>
      <trkpt lat="45.90162" lon="-0.88453">
        <ele>8</ele>
        <time>2018-06-30T19:18:00.000Z</time>
      </trkpt>
      <trkpt lat="45.90162" lon="-0.88451">
        <ele>8</ele>
        <time>2018-06-30T19:18:01.000Z</time>
      </trkpt>
      <trkpt lat="45.90163" lon="-0.8845">
        <ele>8</ele>
        <time>2018-06-30T19:18:02.000Z</time>
      </trkpt>
      <trkpt lat="45.90163" lon="-0.88448">
        <ele>8</ele>
        <time>2018-06-30T19:18:03.000Z</time>
      </trkpt>
      <trkpt lat="45.90163" lon="-0.88446">
        <ele>8</ele>
        <time>2018-06-30T19:18:04.000Z</time>
      </trkpt>
      <trkpt lat="45.90164" lon="-0.88445">
        <ele>8</ele>
        <time>2018-06-30T19:18:05.000Z</time>
      </trkpt>
      <trkpt lat="45.90164" lon="-0.88443">
        <ele>8</ele>
        <time>2018-06-30T19:18:06.000Z</time>
      </trkpt>
      <trkpt lat="45.90165" lon="-0.88442">
        <ele>8</ele>
        <time>2018-06-30T19:18:07.000Z</time>
      </trkpt>
      <trkpt lat="45.90165" lon="-0.8844">
        <ele>8</ele>
        <time>2018-06-30T19:18:08.000Z</time>
      </trkpt>
      <trkpt lat="45.90166" lon="-0.88439">
        <ele>8</ele>
        <time>2018-06-30T19:18:09.000Z</time>
      </trkpt>
      <trkpt lat="45.90166" lon="-0.88437">
        <ele>8</ele>
        <time>2018-06-30T19:18:10.000Z</time>
      </trkpt>
      <trkpt lat="45.90166" lon="-0.88436">
        <ele>8</ele>
        <time>2018-06-30T19:18:11.000Z</time>
      </trkpt>
      <trkpt lat="45.90167" lon="-0.88434">
        <ele>8</ele>
        <time>2018-06-30T19:18:12.000Z</time>
      </trkpt>
      <trkpt lat="45.90167" lon="-0.88432">
        <ele>8</ele>
        <time>2018-06-30T19:18:13.000Z</time>
      </trkpt>
      <trkpt lat="45.90168" lon="-0.8843">
        <ele>8</ele>
        <time>2018-06-30T19:18:14.000Z</time>
      </trkpt>
      <trkpt lat="45.90168" lon="-0.88429">
        <ele>9</ele>
        <time>2018-06-30T19:18:15.000Z</time>
      </trkpt>
      <trkpt lat="45.90169" lon="-0.88427">
        <ele>9</ele>
        <time>2018-06-30T19:18:16.000Z</time>
      </trkpt>
      <trkpt lat="45.90169" lon="-0.88425">
        <ele>9</ele>
        <time>2018-06-30T19:18:17.000Z</time>
      </trkpt>
      <trkpt lat="45.9017" lon="-0.88423">
        <ele>9</ele>
        <time>2018-06-30T19:18:18.000Z</time>
      </trkpt>
      <trkpt lat="45.9017" lon="-0.88422">
        <ele>9</ele>
        <time>2018-06-30T19:18:19.000Z</time>
      </trkpt>
      <trkpt lat="45.90171" lon="-0.8842">
        <ele>9</ele>
        <time>2018-06-30T19:18:20.000Z</time>
      </trkpt>
      <trkpt lat="45.90171" lon="-0.88418">
        <ele>9</ele>
        <time>2018-06-30T19:18:21.000Z</time>
      </trkpt>
      <trkpt lat="45.90172" lon="-0.88417">
        <ele>9</ele>
        <time>2018-06-30T19:18:22.000Z</time>
      </trkpt>
      <trkpt lat="45.90172" lon="-0.88415">
        <ele>9</ele>
        <time>2018-06-30T19:18:23.000Z</time>
      </trkpt>
      <trkpt lat="45.90172" lon="-0.88413">
        <ele>8</ele>
        <time>2018-06-30T19:18:24.000Z</time>
      </trkpt>
      <trkpt lat="45.90172" lon="-0.88412">
        <ele>8</ele>
        <time>2018-06-30T19:18:25.000Z</time>
      </trkpt>
      <trkpt lat="45.90172" lon="-0.8841">
        <ele>8</ele>
        <time>2018-06-30T19:18:26.000Z</time>
      </trkpt>
      <trkpt lat="45.90172" lon="-0.88408">
        <ele>8</ele>
        <time>2018-06-30T19:18:27.000Z</time>
      </trkpt>
      <trkpt lat="45.90171" lon="-0.88406">
        <ele>8</ele>
        <time>2018-06-30T19:18:28.000Z</time>
      </trkpt>
      <trkpt lat="45.90171" lon="-0.88404">
        <ele>8</ele>
        <time>2018-06-30T19:18:29.000Z</time>
      </trkpt>
      <trkpt lat="45.9017" lon="-0.88403">
        <ele>7</ele>
        <time>2018-06-30T19:18:30.000Z</time>
      </trkpt>
      <trkpt lat="45.90169" lon="-0.88403">
        <ele>7</ele>
        <time>2018-06-30T19:18:31.000Z</time>
      </trkpt>
      <trkpt lat="45.90168" lon="-0.88402">
        <ele>7</ele>
        <time>2018-06-30T19:18:32.000Z</time>
      </trkpt>
      <trkpt lat="45.90167" lon="-0.88402">
        <ele>7</ele>
        <time>2018-06-30T19:18:33.000Z</time>
      </trkpt>
      <trkpt lat="45.90165" lon="-0.88402">
        <ele>6</ele>
        <time>2018-06-30T19:18:34.000Z</time>
      </trkpt>
      <trkpt lat="45.90164" lon="-0.88402">
        <ele>6</ele>
        <time>2018-06-30T19:18:35.000Z</time>
      </trkpt>
      <trkpt lat="45.90163" lon="-0.88402">
        <ele>6</ele>
        <time>2018-06-30T19:18:36.000Z</time>
      </trkpt>
      <trkpt lat="45.90162" lon="-0.88402">
        <ele>6</ele>
        <time>2018-06-30T19:18:37.000Z</time>
      </trkpt>
      <trkpt lat="45.90161" lon="-0.88403">
        <ele>6</ele>
        <time>2018-06-30T19:18:38.000Z</time>
      </trkpt>
      <trkpt lat="45.9016" lon="-0.88403">
        <ele>6</ele>
        <time>2018-06-30T19:18:39.000Z</time>
      </trkpt>
      <trkpt lat="45.90159" lon="-0.88403">
        <ele>6</ele>
        <time>2018-06-30T19:18:40.000Z</time>
      </trkpt>
      <trkpt lat="45.90158" lon="-0.88403">
        <ele>7</ele>
        <time>2018-06-30T19:18:41.000Z</time>
      </trkpt>
      <trkpt lat="45.90156" lon="-0.88403">
        <ele>7</ele>
        <time>2018-06-30T19:18:42.000Z</time>
      </trkpt>
      <trkpt lat="45.90155" lon="-0.88404">
        <ele>7</ele>
        <time>2018-06-30T19:18:43.000Z</time>
      </trkpt>
      <trkpt lat="45.90154" lon="-0.88405">
        <ele>7</ele>
        <time>2018-06-30T19:18:44.000Z</time>
      </trkpt>
      <trkpt lat="45.90152" lon="-0.88405">
        <ele>8</ele>
        <time>2018-06-30T19:18:45.000Z</time>
      </trkpt>
      <trkpt lat="45.90151" lon="-0.88406">
        <ele>8</ele>
        <time>2018-06-30T19:18:46.000Z</time>
      </trkpt>
      <trkpt lat="45.9015" lon="-0.88407">
        <ele>8</ele>
        <time>2018-06-30T19:18:47.000Z</time>
      </trkpt>
      <trkpt lat="45.90149" lon="-0.88408">
        <ele>9</ele>
        <time>2018-06-30T19:18:48.000Z</time>
      </trkpt>
      <trkpt lat="45.90147" lon="-0.88408">
        <ele>8</ele>
        <time>2018-06-30T19:18:49.000Z</time>
      </trkpt>
      <trkpt lat="45.90146" lon="-0.88409">
        <ele>8</ele>
        <time>2018-06-30T19:18:50.000Z</time>
      </trkpt>
      <trkpt lat="45.90145" lon="-0.8841">
        <ele>8</ele>
        <time>2018-06-30T19:18:51.000Z</time>
      </trkpt>
      <trkpt lat="45.90144" lon="-0.88411">
        <ele>9</ele>
        <time>2018-06-30T19:18:52.000Z</time>
      </trkpt>
      <trkpt lat="45.90143" lon="-0.88411">
        <ele>9</ele>
        <time>2018-06-30T19:18:53.000Z</time>
      </trkpt>
      <trkpt lat="45.90142" lon="-0.88412">
        <ele>9</ele>
        <time>2018-06-30T19:18:54.000Z</time>
      </trkpt>
      <trkpt lat="45.90141" lon="-0.88413">
        <ele>9</ele>
        <time>2018-06-30T19:18:55.000Z</time>
      </trkpt>
      <trkpt lat="45.9014" lon="-0.88414">
        <ele>9</ele>
        <time>2018-06-30T19:18:56.000Z</time>
      </trkpt>
      <trkpt lat="45.90139" lon="-0.88415">
        <ele>9</ele>
        <time>2018-06-30T19:18:57.000Z</time>
      </trkpt>
      <trkpt lat="45.90138" lon="-0.88415">
        <ele>9</ele>
        <time>2018-06-30T19:18:58.000Z</time>
      </trkpt>
      <trkpt lat="45.90137" lon="-0.88416">
        <ele>9</ele>
        <time>2018-06-30T19:18:59.000Z</time>
      </trkpt>
      <trkpt lat="45.90136" lon="-0.88417">
        <ele>9</ele>
        <time>2018-06-30T19:19:00.000Z</time>
      </trkpt>
      <trkpt lat="45.90135" lon="-0.88418">
        <ele>9</ele>
        <time>2018-06-30T19:19:01.000Z</time>
      </trkpt>
      <trkpt lat="45.90134" lon="-0.88419">
        <ele>9</ele>
        <time>2018-06-30T19:19:02.000Z</time>
      </trkpt>
      <trkpt lat="45.90133" lon="-0.8842">
        <ele>9</ele>
        <time>2018-06-30T19:19:03.000Z</time>
      </trkpt>
      <trkpt lat="45.90132" lon="-0.88421">
        <ele>9</ele>
        <time>2018-06-30T19:19:04.000Z</time>
      </trkpt>
      <trkpt lat="45.90131" lon="-0.88422">
        <ele>9</ele>
        <time>2018-06-30T19:19:05.000Z</time>
      </trkpt>
      <trkpt lat="45.9013" lon="-0.88423">
        <ele>9</ele>
        <time>2018-06-30T19:19:06.000Z</time>
      </trkpt>
      <trkpt lat="45.90129" lon="-0.88424">
        <ele>9</ele>
        <time>2018-06-30T19:19:07.000Z</time>
      </trkpt>
      <trkpt lat="45.90128" lon="-0.88425">
        <ele>9</ele>
        <time>2018-06-30T19:19:08.000Z</time>
      </trkpt>
      <trkpt lat="45.90126" lon="-0.88425">
        <ele>9</ele>
        <time>2018-06-30T19:19:09.000Z</time>
      </trkpt>
      <trkpt lat="45.90125" lon="-0.88426">
        <ele>9</ele>
        <time>2018-06-30T19:19:10.000Z</time>
      </trkpt>
      <trkpt lat="45.90124" lon="-0.88427">
        <ele>9</ele>
        <time>2018-06-30T19:19:11.000Z</time>
      </trkpt>
      <trkpt lat="45.90123" lon="-0.88428">
        <ele>9</ele>
        <time>2018-06-30T19:19:12.000Z</time>
      </trkpt>
      <trkpt lat="45.90122" lon="-0.88429">
        <ele>9</ele>
        <time>2018-06-30T19:19:13.000Z</time>
      </trkpt>
      <trkpt lat="45.90121" lon="-0.8843">
        <ele>9</ele>
        <time>2018-06-30T19:19:14.000Z</time>
      </trkpt>
      <trkpt lat="45.9012" lon="-0.88431">
        <ele>9</ele>
        <time>2018-06-30T19:19:15.000Z</time>
      </trkpt>
      <trkpt lat="45.90119" lon="-0.88431">
        <ele>9</ele>
        <time>2018-06-30T19:19:16.000Z</time>
      </trkpt>
      <trkpt lat="45.90118" lon="-0.88432">
        <ele>10</ele>
        <time>2018-06-30T19:19:17.000Z</time>
      </trkpt>
      <trkpt lat="45.90117" lon="-0.88433">
        <ele>10</ele>
        <time>2018-06-30T19:19:18.000Z</time>
      </trkpt>
      <trkpt lat="45.90116" lon="-0.88434">
        <ele>10</ele>
        <time>2018-06-30T19:19:19.000Z</time>
      </trkpt>
      <trkpt lat="45.90115" lon="-0.88435">
        <ele>10</ele>
        <time>2018-06-30T19:19:20.000Z</time>
      </trkpt>
      <trkpt lat="45.90114" lon="-0.88436">
        <ele>10</ele>
        <time>2018-06-30T19:19:21.000Z</time>
      </trkpt>
      <trkpt lat="45.90113" lon="-0.88437">
        <ele>10</ele>
        <time>2018-06-30T19:19:22.000Z</time>
      </trkpt>
      <trkpt lat="45.90112" lon="-0.88437">
        <ele>10</ele>
        <time>2018-06-30T19:19:23.000Z</time>
      </trkpt>
      <trkpt lat="45.9011" lon="-0.88438">
        <ele>10</ele>
        <time>2018-06-30T19:19:24.000Z</time>
      </trkpt>
      <trkpt lat="45.90109" lon="-0.88439">
        <ele>10</ele>
        <time>2018-06-30T19:19:25.000Z</time>
      </trkpt>
      <trkpt lat="45.90108" lon="-0.8844">
        <ele>10</ele>
        <time>2018-06-30T19:19:26.000Z</time>
      </trkpt>
      <trkpt lat="45.90107" lon="-0.88441">
        <ele>10</ele>
        <time>2018-06-30T19:19:27.000Z</time>
      </trkpt>
      <trkpt lat="45.90106" lon="-0.88441">
        <ele>10</ele>
        <time>2018-06-30T19:19:28.000Z</time>
      </trkpt>
      <trkpt lat="45.90105" lon="-0.88442">
        <ele>10</ele>
        <time>2018-06-30T19:19:29.000Z</time>
      </trkpt>
      <trkpt lat="45.90104" lon="-0.88443">
        <ele>10</ele>
        <time>2018-06-30T19:19:30.000Z</time>
      </trkpt>
      <trkpt lat="45.90103" lon="-0.88443">
        <ele>10</ele>
        <time>2018-06-30T19:19:31.000Z</time>
      </trkpt>
      <trkpt lat="45.90102" lon="-0.88444">
        <ele>10</ele>
        <time>2018-06-30T19:19:32.000Z</time>
      </trkpt>
      <trkpt lat="45.901" lon="-0.88445">
        <ele>10</ele>
        <time>2018-06-30T19:19:33.000Z</time>
      </trkpt>
      <trkpt lat="45.90099" lon="-0.88446">
        <ele>10</ele>
        <time>2018-06-30T19:19:34.000Z</time>
      </trkpt>
      <trkpt lat="45.90098" lon="-0.88446">
        <ele>10</ele>
        <time>2018-06-30T19:19:35.000Z</time>
      </trkpt>
      <trkpt lat="45.90097" lon="-0.88447">
        <ele>10</ele>
        <time>2018-06-30T19:19:36.000Z</time>
      </trkpt>
      <trkpt lat="45.90096" lon="-0.88448">
        <ele>10</ele>
        <time>2018-06-30T19:19:37.000Z</time>
      </trkpt>
      <trkpt lat="45.90095" lon="-0.88448">
        <ele>11</ele>
        <time>2018-06-30T19:19:38.000Z</time>
      </trkpt>
      <trkpt lat="45.90093" lon="-0.88449">
        <ele>11</ele>
        <time>2018-06-30T19:19:39.000Z</time>
      </trkpt>
      <trkpt lat="45.90092" lon="-0.8845">
        <ele>11</ele>
        <time>2018-06-30T19:19:40.000Z</time>
      </trkpt>
      <trkpt lat="45.90091" lon="-0.8845">
        <ele>11</ele>
        <time>2018-06-30T19:19:41.000Z</time>
      </trkpt>
      <trkpt lat="45.9009" lon="-0.88451">
        <ele>11</ele>
        <time>2018-06-30T19:19:42.000Z</time>
      </trkpt>
      <trkpt lat="45.90089" lon="-0.88452">
        <ele>11</ele>
        <time>2018-06-30T19:19:43.000Z</time>
      </trkpt>
      <trkpt lat="45.90088" lon="-0.88452">
        <ele>11</ele>
        <time>2018-06-30T19:19:44.000Z</time>
      </trkpt>
      <trkpt lat="45.90087" lon="-0.88453">
        <ele>11</ele>
        <time>2018-06-30T19:19:45.000Z</time>
      </trkpt>
      <trkpt lat="45.90085" lon="-0.88453">
        <ele>11</ele>
        <time>2018-06-30T19:19:46.000Z</time>
      </trkpt>
      <trkpt lat="45.90084" lon="-0.88454">
        <ele>11</ele>
        <time>2018-06-30T19:19:47.000Z</time>
      </trkpt>
      <trkpt lat="45.90083" lon="-0.88455">
        <ele>11</ele>
        <time>2018-06-30T19:19:48.000Z</time>
      </trkpt>
      <trkpt lat="45.90082" lon="-0.88455">
        <ele>11</ele>
        <time>2018-06-30T19:19:49.000Z</time>
      </trkpt>
      <trkpt lat="45.90081" lon="-0.88456">
        <ele>11</ele>
        <time>2018-06-30T19:19:50.000Z</time>
      </trkpt>
      <trkpt lat="45.9008" lon="-0.88456">
        <ele>11</ele>
        <time>2018-06-30T19:19:51.000Z</time>
      </trkpt>
      <trkpt lat="45.90078" lon="-0.88457">
        <ele>11</ele>
        <time>2018-06-30T19:19:52.000Z</time>
      </trkpt>
      <trkpt lat="45.90077" lon="-0.88457">
        <ele>10</ele>
        <time>2018-06-30T19:19:53.000Z</time>
      </trkpt>
      <trkpt lat="45.90076" lon="-0.88458">
        <ele>10</ele>
        <time>2018-06-30T19:19:54.000Z</time>
      </trkpt>
      <trkpt lat="45.90075" lon="-0.88458">
        <ele>10</ele>
        <time>2018-06-30T19:19:55.000Z</time>
      </trkpt>
      <trkpt lat="45.90074" lon="-0.88459">
        <ele>10</ele>
        <time>2018-06-30T19:19:56.000Z</time>
      </trkpt>
      <trkpt lat="45.90073" lon="-0.88459">
        <ele>10</ele>
        <time>2018-06-30T19:19:57.000Z</time>
      </trkpt>
      <trkpt lat="45.90071" lon="-0.88459">
        <ele>10</ele>
        <time>2018-06-30T19:19:58.000Z</time>
      </trkpt>
      <trkpt lat="45.9007" lon="-0.8846">
        <ele>11</ele>
        <time>2018-06-30T19:19:59.000Z</time>
      </trkpt>
      <trkpt lat="45.90069" lon="-0.8846">
        <ele>11</ele>
        <time>2018-06-30T19:20:00.000Z</time>
      </trkpt>
      <trkpt lat="45.90068" lon="-0.8846">
        <ele>11</ele>
        <time>2018-06-30T19:20:01.000Z</time>
      </trkpt>
      <trkpt lat="45.90067" lon="-0.88461">
        <ele>11</ele>
        <time>2018-06-30T19:20:02.000Z</time>
      </trkpt>
      <trkpt lat="45.90065" lon="-0.88461">
        <ele>11</ele>
        <time>2018-06-30T19:20:03.000Z</time>
      </trkpt>
      <trkpt lat="45.90064" lon="-0.88462">
        <ele>11</ele>
        <time>2018-06-30T19:20:04.000Z</time>
      </trkpt>
      <trkpt lat="45.90063" lon="-0.88462">
        <ele>11</ele>
        <time>2018-06-30T19:20:05.000Z</time>
      </trkpt>
      <trkpt lat="45.90062" lon="-0.88462">
        <ele>11</ele>
        <time>2018-06-30T19:20:06.000Z</time>
      </trkpt>
      <trkpt lat="45.90061" lon="-0.88463">
        <ele>11</ele>
        <time>2018-06-30T19:20:07.000Z</time>
      </trkpt>
      <trkpt lat="45.90059" lon="-0.88463">
        <ele>11</ele>
        <time>2018-06-30T19:20:08.000Z</time>
      </trkpt>
      <trkpt lat="45.90058" lon="-0.88463">
        <ele>11</ele>
        <time>2018-06-30T19:20:09.000Z</time>
      </trkpt>
      <trkpt lat="45.90057" lon="-0.88464">
        <ele>11</ele>
        <time>2018-06-30T19:20:10.000Z</time>
      </trkpt>
      <trkpt lat="45.90056" lon="-0.88464">
        <ele>11</ele>
        <time>2018-06-30T19:20:11.000Z</time>
      </trkpt>
      <trkpt lat="45.90054" lon="-0.88464">
        <ele>11</ele>
        <time>2018-06-30T19:20:12.000Z</time>
      </trkpt>
      <trkpt lat="45.90053" lon="-0.88464">
        <ele>11</ele>
        <time>2018-06-30T19:20:13.000Z</time>
      </trkpt>
      <trkpt lat="45.90052" lon="-0.88464">
        <ele>11</ele>
        <time>2018-06-30T19:20:14.000Z</time>
      </trkpt>
      <trkpt lat="45.90051" lon="-0.88464">
        <ele>11</ele>
        <time>2018-06-30T19:20:15.000Z</time>
      </trkpt>
      <trkpt lat="45.90049" lon="-0.88464">
        <ele>11</ele>
        <time>2018-06-30T19:20:16.000Z</time>
      </trkpt>
      <trkpt lat="45.90048" lon="-0.88465">
        <ele>11</ele>
        <time>2018-06-30T19:20:17.000Z</time>
      </trkpt>
      <trkpt lat="45.90047" lon="-0.88464">
        <ele>11</ele>
        <time>2018-06-30T19:20:18.000Z</time>
      </trkpt>
      <trkpt lat="45.90046" lon="-0.88464">
        <ele>11</ele>
        <time>2018-06-30T19:20:19.000Z</time>
      </trkpt>
      <trkpt lat="45.90044" lon="-0.88464">
        <ele>11</ele>
        <time>2018-06-30T19:20:20.000Z</time>
      </trkpt>
      <trkpt lat="45.90043" lon="-0.88464">
        <ele>11</ele>
        <time>2018-06-30T19:20:21.000Z</time>
      </trkpt>
      <trkpt lat="45.90042" lon="-0.88464">
        <ele>11</ele>
        <time>2018-06-30T19:20:22.000Z</time>
      </trkpt>
      <trkpt lat="45.90041" lon="-0.88464">
        <ele>11</ele>
        <time>2018-06-30T19:20:23.000Z</time>
      </trkpt>
      <trkpt lat="45.9004" lon="-0.88464">
        <ele>11</ele>
        <time>2018-06-30T19:20:24.000Z</time>
      </trkpt>
      <trkpt lat="45.90038" lon="-0.88464">
        <ele>11</ele>
        <time>2018-06-30T19:20:25.000Z</time>
      </trkpt>
      <trkpt lat="45.90037" lon="-0.88463">
        <ele>11</ele>
        <time>2018-06-30T19:20:26.000Z</time>
      </trkpt>
      <trkpt lat="45.90036" lon="-0.88463">
        <ele>10</ele>
        <time>2018-06-30T19:20:27.000Z</time>
      </trkpt>
      <trkpt lat="45.90035" lon="-0.88463">
        <ele>10</ele>
        <time>2018-06-30T19:20:28.000Z</time>
      </trkpt>
      <trkpt lat="45.90034" lon="-0.88463">
        <ele>11</ele>
        <time>2018-06-30T19:20:29.000Z</time>
      </trkpt>
      <trkpt lat="45.90032" lon="-0.88464">
        <ele>10</ele>
        <time>2018-06-30T19:20:30.000Z</time>
      </trkpt>
      <trkpt lat="45.90031" lon="-0.88463">
        <ele>11</ele>
        <time>2018-06-30T19:20:31.000Z</time>
      </trkpt>
      <trkpt lat="45.9003" lon="-0.88463">
        <ele>10</ele>
        <time>2018-06-30T19:20:32.000Z</time>
      </trkpt>
      <trkpt lat="45.90029" lon="-0.88463">
        <ele>11</ele>
        <time>2018-06-30T19:20:33.000Z</time>
      </trkpt>
      <trkpt lat="45.90027" lon="-0.88463">
        <ele>11</ele>
        <time>2018-06-30T19:20:34.000Z</time>
      </trkpt>
      <trkpt lat="45.90026" lon="-0.88463">
        <ele>11</ele>
        <time>2018-06-30T19:20:35.000Z</time>
      </trkpt>
      <trkpt lat="45.90025" lon="-0.88463">
        <ele>11</ele>
        <time>2018-06-30T19:20:36.000Z</time>
      </trkpt>
      <trkpt lat="45.90024" lon="-0.88463">
        <ele>11</ele>
        <time>2018-06-30T19:20:37.000Z</time>
      </trkpt>
      <trkpt lat="45.90022" lon="-0.88463">
        <ele>11</ele>
        <time>2018-06-30T19:20:38.000Z</time>
      </trkpt>
      <trkpt lat="45.90021" lon="-0.88463">
        <ele>11</ele>
        <time>2018-06-30T19:20:39.000Z</time>
      </trkpt>
      <trkpt lat="45.9002" lon="-0.88463">
        <ele>11</ele>
        <time>2018-06-30T19:20:40.000Z</time>
      </trkpt>
      <trkpt lat="45.90019" lon="-0.88462">
        <ele>11</ele>
        <time>2018-06-30T19:20:41.000Z</time>
      </trkpt>
      <trkpt lat="45.90017" lon="-0.88462">
        <ele>11</ele>
        <time>2018-06-30T19:20:42.000Z</time>
      </trkpt>
      <trkpt lat="45.90016" lon="-0.88462">
        <ele>11</ele>
        <time>2018-06-30T19:20:43.000Z</time>
      </trkpt>
      <trkpt lat="45.90015" lon="-0.88462">
        <ele>11</ele>
        <time>2018-06-30T19:20:44.000Z</time>
      </trkpt>
      <trkpt lat="45.90014" lon="-0.88462">
        <ele>11</ele>
        <time>2018-06-30T19:20:45.000Z</time>
      </trkpt>
      <trkpt lat="45.90012" lon="-0.88461">
        <ele>11</ele>
        <time>2018-06-30T19:20:46.000Z</time>
      </trkpt>
      <trkpt lat="45.90011" lon="-0.88461">
        <ele>11</ele>
        <time>2018-06-30T19:20:47.000Z</time>
      </trkpt>
      <trkpt lat="45.9001" lon="-0.88461">
        <ele>11</ele>
        <time>2018-06-30T19:20:48.000Z</time>
      </trkpt>
      <trkpt lat="45.90009" lon="-0.8846">
        <ele>10</ele>
        <time>2018-06-30T19:20:49.000Z</time>
      </trkpt>
      <trkpt lat="45.90008" lon="-0.8846">
        <ele>10</ele>
        <time>2018-06-30T19:20:50.000Z</time>
      </trkpt>
      <trkpt lat="45.90007" lon="-0.88459">
        <ele>11</ele>
        <time>2018-06-30T19:20:51.000Z</time>
      </trkpt>
      <trkpt lat="45.90005" lon="-0.88459">
        <ele>10</ele>
        <time>2018-06-30T19:20:52.000Z</time>
      </trkpt>
      <trkpt lat="45.90004" lon="-0.88459">
        <ele>10</ele>
        <time>2018-06-30T19:20:53.000Z</time>
      </trkpt>
      <trkpt lat="45.90003" lon="-0.88459">
        <ele>10</ele>
        <time>2018-06-30T19:20:54.000Z</time>
      </trkpt>
      <trkpt lat="45.90002" lon="-0.88458">
        <ele>10</ele>
        <time>2018-06-30T19:20:55.000Z</time>
      </trkpt>
      <trkpt lat="45.90001" lon="-0.88458">
        <ele>10</ele>
        <time>2018-06-30T19:20:56.000Z</time>
      </trkpt>
      <trkpt lat="45.89999" lon="-0.88457">
        <ele>10</ele>
        <time>2018-06-30T19:20:57.000Z</time>
      </trkpt>
      <trkpt lat="45.89998" lon="-0.88457">
        <ele>10</ele>
        <time>2018-06-30T19:20:58.000Z</time>
      </trkpt>
      <trkpt lat="45.89997" lon="-0.88456">
        <ele>10</ele>
        <time>2018-06-30T19:20:59.000Z</time>
      </trkpt>
      <trkpt lat="45.89996" lon="-0.88456">
        <ele>9</ele>
        <time>2018-06-30T19:21:00.000Z</time>
      </trkpt>
      <trkpt lat="45.89994" lon="-0.88456">
        <ele>10</ele>
        <time>2018-06-30T19:21:01.000Z</time>
      </trkpt>
      <trkpt lat="45.89993" lon="-0.88455">
        <ele>9</ele>
        <time>2018-06-30T19:21:02.000Z</time>
      </trkpt>
      <trkpt lat="45.89992" lon="-0.88455">
        <ele>9</ele>
        <time>2018-06-30T19:21:03.000Z</time>
      </trkpt>
      <trkpt lat="45.89991" lon="-0.88455">
        <ele>9</ele>
        <time>2018-06-30T19:21:04.000Z</time>
      </trkpt>
      <trkpt lat="45.8999" lon="-0.88454">
        <ele>10</ele>
        <time>2018-06-30T19:21:05.000Z</time>
      </trkpt>
      <trkpt lat="45.89989" lon="-0.88454">
        <ele>10</ele>
        <time>2018-06-30T19:21:06.000Z</time>
      </trkpt>
      <trkpt lat="45.89988" lon="-0.88453">
        <ele>9</ele>
        <time>2018-06-30T19:21:07.000Z</time>
      </trkpt>
      <trkpt lat="45.89987" lon="-0.88453">
        <ele>9</ele>
        <time>2018-06-30T19:21:08.000Z</time>
      </trkpt>
      <trkpt lat="45.89986" lon="-0.88452">
        <ele>9</ele>
        <time>2018-06-30T19:21:09.000Z</time>
      </trkpt>
      <trkpt lat="45.89985" lon="-0.88452">
        <ele>9</ele>
        <time>2018-06-30T19:21:10.000Z</time>
      </trkpt>
      <trkpt lat="45.89984" lon="-0.88452">
        <ele>9</ele>
        <time>2018-06-30T19:21:11.000Z</time>
      </trkpt>
      <trkpt lat="45.89983" lon="-0.88451">
        <ele>9</ele>
        <time>2018-06-30T19:21:12.000Z</time>
      </trkpt>
      <trkpt lat="45.89982" lon="-0.8845">
        <ele>9</ele>
        <time>2018-06-30T19:21:13.000Z</time>
      </trkpt>
      <trkpt lat="45.8998" lon="-0.8845">
        <ele>9</ele>
        <time>2018-06-30T19:21:14.000Z</time>
      </trkpt>
      <trkpt lat="45.89979" lon="-0.8845">
        <ele>9</ele>
        <time>2018-06-30T19:21:15.000Z</time>
      </trkpt>
      <trkpt lat="45.89978" lon="-0.88449">
        <ele>10</ele>
        <time>2018-06-30T19:21:16.000Z</time>
      </trkpt>
      <trkpt lat="45.89977" lon="-0.88449">
        <ele>10</ele>
        <time>2018-06-30T19:21:17.000Z</time>
      </trkpt>
      <trkpt lat="45.89976" lon="-0.88449">
        <ele>10</ele>
        <time>2018-06-30T19:21:18.000Z</time>
      </trkpt>
      <trkpt lat="45.89975" lon="-0.88448">
        <ele>10</ele>
        <time>2018-06-30T19:21:19.000Z</time>
      </trkpt>
      <trkpt lat="45.89974" lon="-0.88447">
        <ele>10</ele>
        <time>2018-06-30T19:21:20.000Z</time>
      </trkpt>
      <trkpt lat="45.89973" lon="-0.88447">
        <ele>10</ele>
        <time>2018-06-30T19:21:21.000Z</time>
      </trkpt>
      <trkpt lat="45.89972" lon="-0.88447">
        <ele>10</ele>
        <time>2018-06-30T19:21:22.000Z</time>
      </trkpt>
      <trkpt lat="45.8997" lon="-0.88446">
        <ele>10</ele>
        <time>2018-06-30T19:21:23.000Z</time>
      </trkpt>
      <trkpt lat="45.89969" lon="-0.88446">
        <ele>10</ele>
        <time>2018-06-30T19:21:24.000Z</time>
      </trkpt>
      <trkpt lat="45.89968" lon="-0.88445">
        <ele>10</ele>
        <time>2018-06-30T19:21:25.000Z</time>
      </trkpt>
      <trkpt lat="45.89967" lon="-0.88445">
        <ele>10</ele>
        <time>2018-06-30T19:21:26.000Z</time>
      </trkpt>
      <trkpt lat="45.89966" lon="-0.88444">
        <ele>10</ele>
        <time>2018-06-30T19:21:27.000Z</time>
      </trkpt>
      <trkpt lat="45.89965" lon="-0.88444">
        <ele>9</ele>
        <time>2018-06-30T19:21:28.000Z</time>
      </trkpt>
      <trkpt lat="45.89964" lon="-0.88443">
        <ele>9</ele>
        <time>2018-06-30T19:21:29.000Z</time>
      </trkpt>
      <trkpt lat="45.89963" lon="-0.88443">
        <ele>9</ele>
        <time>2018-06-30T19:21:30.000Z</time>
      </trkpt>
      <trkpt lat="45.89962" lon="-0.88442">
        <ele>9</ele>
        <time>2018-06-30T19:21:31.000Z</time>
      </trkpt>
      <trkpt lat="45.8996" lon="-0.88442">
        <ele>9</ele>
        <time>2018-06-30T19:21:32.000Z</time>
      </trkpt>
      <trkpt lat="45.89959" lon="-0.88442">
        <ele>10</ele>
        <time>2018-06-30T19:21:33.000Z</time>
      </trkpt>
      <trkpt lat="45.89958" lon="-0.88442">
        <ele>10</ele>
        <time>2018-06-30T19:21:34.000Z</time>
      </trkpt>
      <trkpt lat="45.89957" lon="-0.88441">
        <ele>9</ele>
        <time>2018-06-30T19:21:35.000Z</time>
      </trkpt>
      <trkpt lat="45.89956" lon="-0.88441">
        <ele>10</ele>
        <time>2018-06-30T19:21:36.000Z</time>
      </trkpt>
      <trkpt lat="45.89955" lon="-0.8844">
        <ele>11</ele>
        <time>2018-06-30T19:21:37.000Z</time>
      </trkpt>
      <trkpt lat="45.89953" lon="-0.8844">
        <ele>12</ele>
        <time>2018-06-30T19:21:38.000Z</time>
      </trkpt>
      <trkpt lat="45.89953" lon="-0.88439">
        <ele>12</ele>
        <time>2018-06-30T19:21:39.000Z</time>
      </trkpt>
      <trkpt lat="45.89952" lon="-0.88439">
        <ele>12</ele>
        <time>2018-06-30T19:21:40.000Z</time>
      </trkpt>
      <trkpt lat="45.89951" lon="-0.88438">
        <ele>12</ele>
        <time>2018-06-30T19:21:41.000Z</time>
      </trkpt>
      <trkpt lat="45.8995" lon="-0.88437">
        <ele>13</ele>
        <time>2018-06-30T19:21:42.000Z</time>
      </trkpt>
      <trkpt lat="45.89949" lon="-0.88436">
        <ele>13</ele>
        <time>2018-06-30T19:21:43.000Z</time>
      </trkpt>
      <trkpt lat="45.89948" lon="-0.88436">
        <ele>13</ele>
        <time>2018-06-30T19:21:44.000Z</time>
      </trkpt>
      <trkpt lat="45.89947" lon="-0.88435">
        <ele>13</ele>
        <time>2018-06-30T19:21:45.000Z</time>
      </trkpt>
      <trkpt lat="45.89945" lon="-0.88435">
        <ele>13</ele>
        <time>2018-06-30T19:21:46.000Z</time>
      </trkpt>
      <trkpt lat="45.89944" lon="-0.88434">
        <ele>13</ele>
        <time>2018-06-30T19:21:47.000Z</time>
      </trkpt>
      <trkpt lat="45.89943" lon="-0.88433">
        <ele>13</ele>
        <time>2018-06-30T19:21:48.000Z</time>
      </trkpt>
      <trkpt lat="45.89942" lon="-0.88433">
        <ele>14</ele>
        <time>2018-06-30T19:21:49.000Z</time>
      </trkpt>
      <trkpt lat="45.89941" lon="-0.88432">
        <ele>14</ele>
        <time>2018-06-30T19:21:50.000Z</time>
      </trkpt>
      <trkpt lat="45.89939" lon="-0.88432">
        <ele>14</ele>
        <time>2018-06-30T19:21:51.000Z</time>
      </trkpt>
      <trkpt lat="45.89938" lon="-0.88431">
        <ele>14</ele>
        <time>2018-06-30T19:21:52.000Z</time>
      </trkpt>
      <trkpt lat="45.89937" lon="-0.88431">
        <ele>14</ele>
        <time>2018-06-30T19:21:53.000Z</time>
      </trkpt>
      <trkpt lat="45.89936" lon="-0.8843">
        <ele>14</ele>
        <time>2018-06-30T19:21:54.000Z</time>
      </trkpt>
      <trkpt lat="45.89935" lon="-0.88429">
        <ele>14</ele>
        <time>2018-06-30T19:21:55.000Z</time>
      </trkpt>
      <trkpt lat="45.89934" lon="-0.88428">
        <ele>14</ele>
        <time>2018-06-30T19:21:56.000Z</time>
      </trkpt>
      <trkpt lat="45.89933" lon="-0.88428">
        <ele>14</ele>
        <time>2018-06-30T19:21:57.000Z</time>
      </trkpt>
      <trkpt lat="45.89932" lon="-0.88427">
        <ele>14</ele>
        <time>2018-06-30T19:21:58.000Z</time>
      </trkpt>
      <trkpt lat="45.8993" lon="-0.88426">
        <ele>14</ele>
        <time>2018-06-30T19:21:59.000Z</time>
      </trkpt>
      <trkpt lat="45.89929" lon="-0.88426">
        <ele>14</ele>
        <time>2018-06-30T19:22:00.000Z</time>
      </trkpt>
      <trkpt lat="45.89928" lon="-0.88425">
        <ele>14</ele>
        <time>2018-06-30T19:22:01.000Z</time>
      </trkpt>
      <trkpt lat="45.89927" lon="-0.88424">
        <ele>14</ele>
        <time>2018-06-30T19:22:02.000Z</time>
      </trkpt>
      <trkpt lat="45.89926" lon="-0.88424">
        <ele>15</ele>
        <time>2018-06-30T19:22:03.000Z</time>
      </trkpt>
      <trkpt lat="45.89925" lon="-0.88423">
        <ele>15</ele>
        <time>2018-06-30T19:22:04.000Z</time>
      </trkpt>
      <trkpt lat="45.89924" lon="-0.88422">
        <ele>15</ele>
        <time>2018-06-30T19:22:05.000Z</time>
      </trkpt>
      <trkpt lat="45.89922" lon="-0.88422">
        <ele>15</ele>
        <time>2018-06-30T19:22:06.000Z</time>
      </trkpt>
      <trkpt lat="45.89921" lon="-0.88421">
        <ele>15</ele>
        <time>2018-06-30T19:22:07.000Z</time>
      </trkpt>
      <trkpt lat="45.8992" lon="-0.8842">
        <ele>15</ele>
        <time>2018-06-30T19:22:08.000Z</time>
      </trkpt>
      <trkpt lat="45.89919" lon="-0.88419">
        <ele>15</ele>
        <time>2018-06-30T19:22:09.000Z</time>
      </trkpt>
      <trkpt lat="45.89918" lon="-0.88419">
        <ele>15</ele>
        <time>2018-06-30T19:22:10.000Z</time>
      </trkpt>
      <trkpt lat="45.89917" lon="-0.88418">
        <ele>15</ele>
        <time>2018-06-30T19:22:11.000Z</time>
      </trkpt>
      <trkpt lat="45.89916" lon="-0.88417">
        <ele>15</ele>
        <time>2018-06-30T19:22:12.000Z</time>
      </trkpt>
      <trkpt lat="45.89915" lon="-0.88416">
        <ele>15</ele>
        <time>2018-06-30T19:22:13.000Z</time>
      </trkpt>
      <trkpt lat="45.89913" lon="-0.88415">
        <ele>15</ele>
        <time>2018-06-30T19:22:14.000Z</time>
      </trkpt>
      <trkpt lat="45.89912" lon="-0.88415">
        <ele>15</ele>
        <time>2018-06-30T19:22:15.000Z</time>
      </trkpt>
      <trkpt lat="45.89911" lon="-0.88414">
        <ele>14</ele>
        <time>2018-06-30T19:22:16.000Z</time>
      </trkpt>
      <trkpt lat="45.8991" lon="-0.88413">
        <ele>14</ele>
        <time>2018-06-30T19:22:17.000Z</time>
      </trkpt>
      <trkpt lat="45.89909" lon="-0.88412">
        <ele>14</ele>
        <time>2018-06-30T19:22:18.000Z</time>
      </trkpt>
      <trkpt lat="45.89908" lon="-0.88412">
        <ele>15</ele>
        <time>2018-06-30T19:22:19.000Z</time>
      </trkpt>
      <trkpt lat="45.89906" lon="-0.88411">
        <ele>15</ele>
        <time>2018-06-30T19:22:20.000Z</time>
      </trkpt>
      <trkpt lat="45.89905" lon="-0.8841">
        <ele>15</ele>
        <time>2018-06-30T19:22:21.000Z</time>
      </trkpt>
      <trkpt lat="45.89904" lon="-0.8841">
        <ele>15</ele>
        <time>2018-06-30T19:22:22.000Z</time>
      </trkpt>
      <trkpt lat="45.89903" lon="-0.88409">
        <ele>15</ele>
        <time>2018-06-30T19:22:23.000Z</time>
      </trkpt>
      <trkpt lat="45.89902" lon="-0.88408">
        <ele>15</ele>
        <time>2018-06-30T19:22:24.000Z</time>
      </trkpt>
      <trkpt lat="45.899" lon="-0.88407">
        <ele>15</ele>
        <time>2018-06-30T19:22:25.000Z</time>
      </trkpt>
      <trkpt lat="45.89899" lon="-0.88407">
        <ele>15</ele>
        <time>2018-06-30T19:22:26.000Z</time>
      </trkpt>
      <trkpt lat="45.89898" lon="-0.88406">
        <ele>15</ele>
        <time>2018-06-30T19:22:27.000Z</time>
      </trkpt>
      <trkpt lat="45.89897" lon="-0.88405">
        <ele>15</ele>
        <time>2018-06-30T19:22:28.000Z</time>
      </trkpt>
      <trkpt lat="45.89896" lon="-0.88404">
        <ele>15</ele>
        <time>2018-06-30T19:22:29.000Z</time>
      </trkpt>
      <trkpt lat="45.89895" lon="-0.88403">
        <ele>15</ele>
        <time>2018-06-30T19:22:30.000Z</time>
      </trkpt>
      <trkpt lat="45.89894" lon="-0.88403">
        <ele>15</ele>
        <time>2018-06-30T19:22:31.000Z</time>
      </trkpt>
      <trkpt lat="45.89892" lon="-0.88402">
        <ele>15</ele>
        <time>2018-06-30T19:22:32.000Z</time>
      </trkpt>
      <trkpt lat="45.89891" lon="-0.88401">
        <ele>15</ele>
        <time>2018-06-30T19:22:33.000Z</time>
      </trkpt>
      <trkpt lat="45.8989" lon="-0.88401">
        <ele>15</ele>
        <time>2018-06-30T19:22:34.000Z</time>
      </trkpt>
      <trkpt lat="45.89889" lon="-0.884">
        <ele>15</ele>
        <time>2018-06-30T19:22:35.000Z</time>
      </trkpt>
      <trkpt lat="45.89888" lon="-0.88399">
        <ele>15</ele>
        <time>2018-06-30T19:22:36.000Z</time>
      </trkpt>
      <trkpt lat="45.89887" lon="-0.88398">
        <ele>14</ele>
        <time>2018-06-30T19:22:37.000Z</time>
      </trkpt>
      <trkpt lat="45.89886" lon="-0.88398">
        <ele>14</ele>
        <time>2018-06-30T19:22:38.000Z</time>
      </trkpt>
      <trkpt lat="45.89885" lon="-0.88397">
        <ele>14</ele>
        <time>2018-06-30T19:22:39.000Z</time>
      </trkpt>
      <trkpt lat="45.89884" lon="-0.88396">
        <ele>14</ele>
        <time>2018-06-30T19:22:40.000Z</time>
      </trkpt>
      <trkpt lat="45.89883" lon="-0.88395">
        <ele>14</ele>
        <time>2018-06-30T19:22:41.000Z</time>
      </trkpt>
      <trkpt lat="45.89882" lon="-0.88394">
        <ele>14</ele>
        <time>2018-06-30T19:22:42.000Z</time>
      </trkpt>
      <trkpt lat="45.89881" lon="-0.88394">
        <ele>15</ele>
        <time>2018-06-30T19:22:43.000Z</time>
      </trkpt>
      <trkpt lat="45.89879" lon="-0.88393">
        <ele>15</ele>
        <time>2018-06-30T19:22:44.000Z</time>
      </trkpt>
      <trkpt lat="45.89878" lon="-0.88393">
        <ele>15</ele>
        <time>2018-06-30T19:22:45.000Z</time>
      </trkpt>
      <trkpt lat="45.89877" lon="-0.88392">
        <ele>15</ele>
        <time>2018-06-30T19:22:46.000Z</time>
      </trkpt>
      <trkpt lat="45.89876" lon="-0.88391">
        <ele>15</ele>
        <time>2018-06-30T19:22:47.000Z</time>
      </trkpt>
      <trkpt lat="45.89874" lon="-0.8839">
        <ele>14</ele>
        <time>2018-06-30T19:22:48.000Z</time>
      </trkpt>
      <trkpt lat="45.89873" lon="-0.8839">
        <ele>14</ele>
        <time>2018-06-30T19:22:49.000Z</time>
      </trkpt>
      <trkpt lat="45.89872" lon="-0.88389">
        <ele>14</ele>
        <time>2018-06-30T19:22:50.000Z</time>
      </trkpt>
      <trkpt lat="45.89871" lon="-0.88388">
        <ele>14</ele>
        <time>2018-06-30T19:22:51.000Z</time>
      </trkpt>
      <trkpt lat="45.8987" lon="-0.88388">
        <ele>14</ele>
        <time>2018-06-30T19:22:52.000Z</time>
      </trkpt>
      <trkpt lat="45.89869" lon="-0.88387">
        <ele>14</ele>
        <time>2018-06-30T19:22:53.000Z</time>
      </trkpt>
      <trkpt lat="45.89868" lon="-0.88386">
        <ele>14</ele>
        <time>2018-06-30T19:22:54.000Z</time>
      </trkpt>
      <trkpt lat="45.89866" lon="-0.88386">
        <ele>14</ele>
        <time>2018-06-30T19:22:55.000Z</time>
      </trkpt>
      <trkpt lat="45.89865" lon="-0.88385">
        <ele>14</ele>
        <time>2018-06-30T19:22:56.000Z</time>
      </trkpt>
      <trkpt lat="45.89864" lon="-0.88384">
        <ele>14</ele>
        <time>2018-06-30T19:22:57.000Z</time>
      </trkpt>
      <trkpt lat="45.89863" lon="-0.88383">
        <ele>14</ele>
        <time>2018-06-30T19:22:58.000Z</time>
      </trkpt>
      <trkpt lat="45.89862" lon="-0.88383">
        <ele>14</ele>
        <time>2018-06-30T19:22:59.000Z</time>
      </trkpt>
      <trkpt lat="45.89861" lon="-0.88382">
        <ele>14</ele>
        <time>2018-06-30T19:23:00.000Z</time>
      </trkpt>
      <trkpt lat="45.8986" lon="-0.88381">
        <ele>14</ele>
        <time>2018-06-30T19:23:01.000Z</time>
      </trkpt>
      <trkpt lat="45.89858" lon="-0.8838">
        <ele>13</ele>
        <time>2018-06-30T19:23:02.000Z</time>
      </trkpt>
      <trkpt lat="45.89857" lon="-0.8838">
        <ele>13</ele>
        <time>2018-06-30T19:23:03.000Z</time>
      </trkpt>
      <trkpt lat="45.89856" lon="-0.88379">
        <ele>13</ele>
        <time>2018-06-30T19:23:04.000Z</time>
      </trkpt>
      <trkpt lat="45.89855" lon="-0.88378">
        <ele>12</ele>
        <time>2018-06-30T19:23:05.000Z</time>
      </trkpt>
      <trkpt lat="45.89854" lon="-0.88377">
        <ele>13</ele>
        <time>2018-06-30T19:23:06.000Z</time>
      </trkpt>
      <trkpt lat="45.89853" lon="-0.88376">
        <ele>13</ele>
        <time>2018-06-30T19:23:07.000Z</time>
      </trkpt>
      <trkpt lat="45.89852" lon="-0.88376">
        <ele>13</ele>
        <time>2018-06-30T19:23:08.000Z</time>
      </trkpt>
      <trkpt lat="45.89851" lon="-0.88375">
        <ele>13</ele>
        <time>2018-06-30T19:23:09.000Z</time>
      </trkpt>
      <trkpt lat="45.8985" lon="-0.88375">
        <ele>13</ele>
        <time>2018-06-30T19:23:10.000Z</time>
      </trkpt>
      <trkpt lat="45.89848" lon="-0.88374">
        <ele>13</ele>
        <time>2018-06-30T19:23:11.000Z</time>
      </trkpt>
      <trkpt lat="45.89847" lon="-0.88374">
        <ele>13</ele>
        <time>2018-06-30T19:23:12.000Z</time>
      </trkpt>
      <trkpt lat="45.89846" lon="-0.88373">
        <ele>13</ele>
        <time>2018-06-30T19:23:13.000Z</time>
      </trkpt>
      <trkpt lat="45.89845" lon="-0.88373">
        <ele>14</ele>
        <time>2018-06-30T19:23:14.000Z</time>
      </trkpt>
      <trkpt lat="45.89844" lon="-0.88372">
        <ele>14</ele>
        <time>2018-06-30T19:23:15.000Z</time>
      </trkpt>
      <trkpt lat="45.89842" lon="-0.88371">
        <ele>14</ele>
        <time>2018-06-30T19:23:16.000Z</time>
      </trkpt>
      <trkpt lat="45.89841" lon="-0.8837">
        <ele>14</ele>
        <time>2018-06-30T19:23:17.000Z</time>
      </trkpt>
      <trkpt lat="45.8984" lon="-0.8837">
        <ele>14</ele>
        <time>2018-06-30T19:23:18.000Z</time>
      </trkpt>
      <trkpt lat="45.89839" lon="-0.88369">
        <ele>14</ele>
        <time>2018-06-30T19:23:19.000Z</time>
      </trkpt>
      <trkpt lat="45.89838" lon="-0.88368">
        <ele>14</ele>
        <time>2018-06-30T19:23:20.000Z</time>
      </trkpt>
      <trkpt lat="45.89837" lon="-0.88367">
        <ele>14</ele>
        <time>2018-06-30T19:23:21.000Z</time>
      </trkpt>
      <trkpt lat="45.89836" lon="-0.88367">
        <ele>14</ele>
        <time>2018-06-30T19:23:22.000Z</time>
      </trkpt>
      <trkpt lat="45.89835" lon="-0.88366">
        <ele>15</ele>
        <time>2018-06-30T19:23:23.000Z</time>
      </trkpt>
      <trkpt lat="45.89834" lon="-0.88366">
        <ele>15</ele>
        <time>2018-06-30T19:23:24.000Z</time>
      </trkpt>
      <trkpt lat="45.89833" lon="-0.88365">
        <ele>15</ele>
        <time>2018-06-30T19:23:25.000Z</time>
      </trkpt>
      <trkpt lat="45.89832" lon="-0.88364">
        <ele>15</ele>
        <time>2018-06-30T19:23:26.000Z</time>
      </trkpt>
      <trkpt lat="45.89831" lon="-0.88364">
        <ele>16</ele>
        <time>2018-06-30T19:23:27.000Z</time>
      </trkpt>
      <trkpt lat="45.8983" lon="-0.88363">
        <ele>16</ele>
        <time>2018-06-30T19:23:28.000Z</time>
      </trkpt>
      <trkpt lat="45.89829" lon="-0.88362">
        <ele>16</ele>
        <time>2018-06-30T19:23:29.000Z</time>
      </trkpt>
      <trkpt lat="45.89827" lon="-0.88361">
        <ele>16</ele>
        <time>2018-06-30T19:23:30.000Z</time>
      </trkpt>
      <trkpt lat="45.89826" lon="-0.88361">
        <ele>17</ele>
        <time>2018-06-30T19:23:31.000Z</time>
      </trkpt>
      <trkpt lat="45.89825" lon="-0.8836">
        <ele>16</ele>
        <time>2018-06-30T19:23:32.000Z</time>
      </trkpt>
      <trkpt lat="45.89824" lon="-0.88359">
        <ele>16</ele>
        <time>2018-06-30T19:23:33.000Z</time>
      </trkpt>
      <trkpt lat="45.89823" lon="-0.88358">
        <ele>17</ele>
        <time>2018-06-30T19:23:34.000Z</time>
      </trkpt>
      <trkpt lat="45.89822" lon="-0.88358">
        <ele>17</ele>
        <time>2018-06-30T19:23:35.000Z</time>
      </trkpt>
      <trkpt lat="45.89821" lon="-0.88357">
        <ele>17</ele>
        <time>2018-06-30T19:23:36.000Z</time>
      </trkpt>
      <trkpt lat="45.8982" lon="-0.88357">
        <ele>17</ele>
        <time>2018-06-30T19:23:37.000Z</time>
      </trkpt>
      <trkpt lat="45.89819" lon="-0.88356">
        <ele>17</ele>
        <time>2018-06-30T19:23:38.000Z</time>
      </trkpt>
      <trkpt lat="45.89818" lon="-0.88355">
        <ele>17</ele>
        <time>2018-06-30T19:23:39.000Z</time>
      </trkpt>
      <trkpt lat="45.89816" lon="-0.88355">
        <ele>17</ele>
        <time>2018-06-30T19:23:40.000Z</time>
      </trkpt>
      <trkpt lat="45.89815" lon="-0.88354">
        <ele>17</ele>
        <time>2018-06-30T19:23:41.000Z</time>
      </trkpt>
      <trkpt lat="45.89814" lon="-0.88353">
        <ele>18</ele>
        <time>2018-06-30T19:23:42.000Z</time>
      </trkpt>
      <trkpt lat="45.89813" lon="-0.88352">
        <ele>18</ele>
        <time>2018-06-30T19:23:43.000Z</time>
      </trkpt>
      <trkpt lat="45.89812" lon="-0.88351">
        <ele>18</ele>
        <time>2018-06-30T19:23:44.000Z</time>
      </trkpt>
      <trkpt lat="45.89811" lon="-0.8835">
        <ele>19</ele>
        <time>2018-06-30T19:23:45.000Z</time>
      </trkpt>
      <trkpt lat="45.8981" lon="-0.8835">
        <ele>20</ele>
        <time>2018-06-30T19:23:46.000Z</time>
      </trkpt>
      <trkpt lat="45.89809" lon="-0.88349">
        <ele>20</ele>
        <time>2018-06-30T19:23:47.000Z</time>
      </trkpt>
      <trkpt lat="45.89808" lon="-0.88348">
        <ele>20</ele>
        <time>2018-06-30T19:23:48.000Z</time>
      </trkpt>
      <trkpt lat="45.89807" lon="-0.88348">
        <ele>20</ele>
        <time>2018-06-30T19:23:49.000Z</time>
      </trkpt>
      <trkpt lat="45.89806" lon="-0.88347">
        <ele>20</ele>
        <time>2018-06-30T19:23:50.000Z</time>
      </trkpt>
      <trkpt lat="45.89805" lon="-0.88346">
        <ele>20</ele>
        <time>2018-06-30T19:23:51.000Z</time>
      </trkpt>
      <trkpt lat="45.89805" lon="-0.88346">
        <ele>20</ele>
        <time>2018-06-30T19:23:52.000Z</time>
      </trkpt>
      <trkpt lat="45.89804" lon="-0.88345">
        <ele>20</ele>
        <time>2018-06-30T19:23:53.000Z</time>
      </trkpt>
      <trkpt lat="45.89802" lon="-0.88344">
        <ele>20</ele>
        <time>2018-06-30T19:23:54.000Z</time>
      </trkpt>
      <trkpt lat="45.89801" lon="-0.88344">
        <ele>20</ele>
        <time>2018-06-30T19:23:55.000Z</time>
      </trkpt>
      <trkpt lat="45.898" lon="-0.88343">
        <ele>20</ele>
        <time>2018-06-30T19:23:56.000Z</time>
      </trkpt>
      <trkpt lat="45.89799" lon="-0.88342">
        <ele>20</ele>
        <time>2018-06-30T19:23:57.000Z</time>
      </trkpt>
      <trkpt lat="45.89798" lon="-0.88341">
        <ele>20</ele>
        <time>2018-06-30T19:23:58.000Z</time>
      </trkpt>
      <trkpt lat="45.89797" lon="-0.8834">
        <ele>21</ele>
        <time>2018-06-30T19:23:59.000Z</time>
      </trkpt>
      <trkpt lat="45.89796" lon="-0.88339">
        <ele>21</ele>
        <time>2018-06-30T19:24:00.000Z</time>
      </trkpt>
      <trkpt lat="45.89795" lon="-0.88337">
        <ele>21</ele>
        <time>2018-06-30T19:24:01.000Z</time>
      </trkpt>
      <trkpt lat="45.89794" lon="-0.88336">
        <ele>22</ele>
        <time>2018-06-30T19:24:02.000Z</time>
      </trkpt>
      <trkpt lat="45.89792" lon="-0.88334">
        <ele>23</ele>
        <time>2018-06-30T19:24:03.000Z</time>
      </trkpt>
      <trkpt lat="45.89791" lon="-0.88333">
        <ele>23</ele>
        <time>2018-06-30T19:24:04.000Z</time>
      </trkpt>
      <trkpt lat="45.8979" lon="-0.88332">
        <ele>23</ele>
        <time>2018-06-30T19:24:05.000Z</time>
      </trkpt>
      <trkpt lat="45.89789" lon="-0.88331">
        <ele>23</ele>
        <time>2018-06-30T19:24:06.000Z</time>
      </trkpt>
      <trkpt lat="45.89788" lon="-0.88329">
        <ele>23</ele>
        <time>2018-06-30T19:24:07.000Z</time>
      </trkpt>
      <trkpt lat="45.89787" lon="-0.88328">
        <ele>23</ele>
        <time>2018-06-30T19:24:08.000Z</time>
      </trkpt>
      <trkpt lat="45.89786" lon="-0.88327">
        <ele>24</ele>
        <time>2018-06-30T19:24:09.000Z</time>
      </trkpt>
      <trkpt lat="45.89786" lon="-0.88325">
        <ele>24</ele>
        <time>2018-06-30T19:24:10.000Z</time>
      </trkpt>
      <trkpt lat="45.89785" lon="-0.88324">
        <ele>24</ele>
        <time>2018-06-30T19:24:11.000Z</time>
      </trkpt>
      <trkpt lat="45.89784" lon="-0.88323">
        <ele>25</ele>
        <time>2018-06-30T19:24:12.000Z</time>
      </trkpt>
      <trkpt lat="45.89783" lon="-0.88321">
        <ele>25</ele>
        <time>2018-06-30T19:24:13.000Z</time>
      </trkpt>
      <trkpt lat="45.89783" lon="-0.8832">
        <ele>25</ele>
        <time>2018-06-30T19:24:14.000Z</time>
      </trkpt>
      <trkpt lat="45.89782" lon="-0.88319">
        <ele>25</ele>
        <time>2018-06-30T19:24:15.000Z</time>
      </trkpt>
      <trkpt lat="45.89781" lon="-0.88317">
        <ele>25</ele>
        <time>2018-06-30T19:24:16.000Z</time>
      </trkpt>
      <trkpt lat="45.89781" lon="-0.88315">
        <ele>25</ele>
        <time>2018-06-30T19:24:17.000Z</time>
      </trkpt>
      <trkpt lat="45.8978" lon="-0.88314">
        <ele>25</ele>
        <time>2018-06-30T19:24:18.000Z</time>
      </trkpt>
      <trkpt lat="45.8978" lon="-0.88312">
        <ele>25</ele>
        <time>2018-06-30T19:24:19.000Z</time>
      </trkpt>
      <trkpt lat="45.89779" lon="-0.88311">
        <ele>24</ele>
        <time>2018-06-30T19:24:20.000Z</time>
      </trkpt>
      <trkpt lat="45.89779" lon="-0.8831">
        <ele>24</ele>
        <time>2018-06-30T19:24:21.000Z</time>
      </trkpt>
      <trkpt lat="45.89778" lon="-0.88308">
        <ele>24</ele>
        <time>2018-06-30T19:24:22.000Z</time>
      </trkpt>
      <trkpt lat="45.89778" lon="-0.88307">
        <ele>24</ele>
        <time>2018-06-30T19:24:23.000Z</time>
      </trkpt>
      <trkpt lat="45.89777" lon="-0.88306">
        <ele>24</ele>
        <time>2018-06-30T19:24:24.000Z</time>
      </trkpt>
      <trkpt lat="45.89777" lon="-0.88305">
        <ele>24</ele>
        <time>2018-06-30T19:24:25.000Z</time>
      </trkpt>
      <trkpt lat="45.89777" lon="-0.88305">
        <ele>23</ele>
        <time>2018-06-30T19:24:26.000Z</time>
      </trkpt>
      <trkpt lat="45.89776" lon="-0.88304">
        <ele>23</ele>
        <time>2018-06-30T19:24:27.000Z</time>
      </trkpt>
      <trkpt lat="45.89776" lon="-0.88304">
        <ele>24</ele>
        <time>2018-06-30T19:24:28.000Z</time>
      </trkpt>
      <trkpt lat="45.89775" lon="-0.88304">
        <ele>23</ele>
        <time>2018-06-30T19:24:29.000Z</time>
      </trkpt>
      <trkpt lat="45.89774" lon="-0.88303">
        <ele>23</ele>
        <time>2018-06-30T19:24:30.000Z</time>
      </trkpt>
      <trkpt lat="45.89774" lon="-0.88303">
        <ele>23</ele>
        <time>2018-06-30T19:24:31.000Z</time>
      </trkpt>
      <trkpt lat="45.89773" lon="-0.88303">
        <ele>23</ele>
        <time>2018-06-30T19:24:32.000Z</time>
      </trkpt>
      <trkpt lat="45.89772" lon="-0.88303">
        <ele>23</ele>
        <time>2018-06-30T19:24:33.000Z</time>
      </trkpt>
      <trkpt lat="45.89771" lon="-0.88303">
        <ele>23</ele>
        <time>2018-06-30T19:24:34.000Z</time>
      </trkpt>
      <trkpt lat="45.89771" lon="-0.88303">
        <ele>23</ele>
        <time>2018-06-30T19:24:35.000Z</time>
      </trkpt>
      <trkpt lat="45.8977" lon="-0.88303">
        <ele>22</ele>
        <time>2018-06-30T19:24:36.000Z</time>
      </trkpt>
      <trkpt lat="45.8977" lon="-0.88303">
        <ele>22</ele>
        <time>2018-06-30T19:24:37.000Z</time>
      </trkpt>
      <trkpt lat="45.8977" lon="-0.88303">
        <ele>22</ele>
        <time>2018-06-30T19:24:38.000Z</time>
      </trkpt>
      <trkpt lat="45.89769" lon="-0.88303">
        <ele>22</ele>
        <time>2018-06-30T19:24:39.000Z</time>
      </trkpt>
      <trkpt lat="45.89769" lon="-0.88303">
        <ele>22</ele>
        <time>2018-06-30T19:24:40.000Z</time>
      </trkpt>
      <trkpt lat="45.89769" lon="-0.88303">
        <ele>22</ele>
        <time>2018-06-30T19:24:41.000Z</time>
      </trkpt>
      <trkpt lat="45.89769" lon="-0.88303">
        <ele>22</ele>
        <time>2018-06-30T19:24:42.000Z</time>
      </trkpt>
      <trkpt lat="45.89769" lon="-0.88304">
        <ele>22</ele>
        <time>2018-06-30T19:24:43.000Z</time>
      </trkpt>
      <trkpt lat="45.89769" lon="-0.88304">
        <ele>22</ele>
        <time>2018-06-30T19:24:44.000Z</time>
      </trkpt>
      <trkpt lat="45.89769" lon="-0.88304">
        <ele>22</ele>
        <time>2018-06-30T19:24:45.000Z</time>
      </trkpt>
      <trkpt lat="45.89769" lon="-0.88304">
        <ele>22</ele>
        <time>2018-06-30T19:24:46.000Z</time>
      </trkpt>
      <trkpt lat="45.89769" lon="-0.88304">
        <ele>22</ele>
        <time>2018-06-30T19:24:47.000Z</time>
      </trkpt>
      <trkpt lat="45.89769" lon="-0.88304">
        <ele>22</ele>
        <time>2018-06-30T19:24:48.000Z</time>
      </trkpt>
      <trkpt lat="45.89769" lon="-0.88304">
        <ele>22</ele>
        <time>2018-06-30T19:24:49.000Z</time>
      </trkpt>
      <trkpt lat="45.89768" lon="-0.88304">
        <ele>23</ele>
        <time>2018-06-30T19:24:50.000Z</time>
      </trkpt>
      <trkpt lat="45.89768" lon="-0.88304">
        <ele>23</ele>
        <time>2018-06-30T19:24:51.000Z</time>
      </trkpt>
      <trkpt lat="45.89768" lon="-0.88303">
        <ele>24</ele>
        <time>2018-06-30T19:24:52.000Z</time>
      </trkpt>
      <trkpt lat="45.89768" lon="-0.88303">
        <ele>24</ele>
        <time>2018-06-30T19:24:53.000Z</time>
      </trkpt>
      <trkpt lat="45.89768" lon="-0.88302">
        <ele>23</ele>
        <time>2018-06-30T19:24:54.000Z</time>
      </trkpt>
      <trkpt lat="45.89768" lon="-0.88302">
        <ele>23</ele>
        <time>2018-06-30T19:24:55.000Z</time>
      </trkpt>
      <trkpt lat="45.89768" lon="-0.88302">
        <ele>24</ele>
        <time>2018-06-30T19:24:56.000Z</time>
      </trkpt>
      <trkpt lat="45.89768" lon="-0.88302">
        <ele>24</ele>
        <time>2018-06-30T19:24:57.000Z</time>
      </trkpt>
      <trkpt lat="45.89768" lon="-0.88302">
        <ele>24</ele>
        <time>2018-06-30T19:24:58.000Z</time>
      </trkpt>
      <trkpt lat="45.89768" lon="-0.88301">
        <ele>24</ele>
        <time>2018-06-30T19:24:59.000Z</time>
      </trkpt>
      <trkpt lat="45.89768" lon="-0.88301">
        <ele>24</ele>
        <time>2018-06-30T19:25:00.000Z</time>
      </trkpt>
      <trkpt lat="45.89768" lon="-0.88301">
        <ele>24</ele>
        <time>2018-06-30T19:25:01.000Z</time>
      </trkpt>
      <trkpt lat="45.89768" lon="-0.88301">
        <ele>24</ele>
        <time>2018-06-30T19:25:02.000Z</time>
      </trkpt>
      <trkpt lat="45.89768" lon="-0.88301">
        <ele>24</ele>
        <time>2018-06-30T19:25:03.000Z</time>
      </trkpt>
      <trkpt lat="45.89768" lon="-0.88301">
        <ele>23</ele>
        <time>2018-06-30T19:25:04.000Z</time>
      </trkpt>
      <trkpt lat="45.89768" lon="-0.88301">
        <ele>24</ele>
        <time>2018-06-30T19:25:05.000Z</time>
      </trkpt>
      <trkpt lat="45.89769" lon="-0.883">
        <ele>23</ele>
        <time>2018-06-30T19:25:06.000Z</time>
      </trkpt>
      <trkpt lat="45.89769" lon="-0.883">
        <ele>22</ele>
        <time>2018-06-30T19:25:07.000Z</time>
      </trkpt>
      <trkpt lat="45.89769" lon="-0.883">
        <ele>22</ele>
        <time>2018-06-30T19:25:08.000Z</time>
      </trkpt>
      <trkpt lat="45.89768" lon="-0.883">
        <ele>22</ele>
        <time>2018-06-30T19:25:09.000Z</time>
      </trkpt>
      <trkpt lat="45.89768" lon="-0.88299">
        <ele>22</ele>
        <time>2018-06-30T19:25:10.000Z</time>
      </trkpt>
      <trkpt lat="45.89767" lon="-0.88299">
        <ele>22</ele>
        <time>2018-06-30T19:25:11.000Z</time>
      </trkpt>
      <trkpt lat="45.89767" lon="-0.88299">
        <ele>23</ele>
        <time>2018-06-30T19:25:12.000Z</time>
      </trkpt>
      <trkpt lat="45.89767" lon="-0.88299">
        <ele>22</ele>
        <time>2018-06-30T19:25:13.000Z</time>
      </trkpt>
      <trkpt lat="45.89767" lon="-0.88299">
        <ele>22</ele>
        <time>2018-06-30T19:25:14.000Z</time>
      </trkpt>
      <trkpt lat="45.89767" lon="-0.88299">
        <ele>23</ele>
        <time>2018-06-30T19:25:15.000Z</time>
      </trkpt>
      <trkpt lat="45.89767" lon="-0.88298">
        <ele>23</ele>
        <time>2018-06-30T19:25:16.000Z</time>
      </trkpt>
      <trkpt lat="45.89767" lon="-0.88298">
        <ele>23</ele>
        <time>2018-06-30T19:25:17.000Z</time>
      </trkpt>
      <trkpt lat="45.89767" lon="-0.88298">
        <ele>23</ele>
        <time>2018-06-30T19:25:18.000Z</time>
      </trkpt>
      <trkpt lat="45.89767" lon="-0.88298">
        <ele>24</ele>
        <time>2018-06-30T19:25:19.000Z</time>
      </trkpt>
      <trkpt lat="45.89767" lon="-0.88298">
        <ele>24</ele>
        <time>2018-06-30T19:25:20.000Z</time>
      </trkpt>
      <trkpt lat="45.89767" lon="-0.88297">
        <ele>25</ele>
        <time>2018-06-30T19:25:21.000Z</time>
      </trkpt>
      <trkpt lat="45.89767" lon="-0.88297">
        <ele>25</ele>
        <time>2018-06-30T19:25:22.000Z</time>
      </trkpt>
      <trkpt lat="45.89767" lon="-0.88297">
        <ele>25</ele>
        <time>2018-06-30T19:25:23.000Z</time>
      </trkpt>
      <trkpt lat="45.89766" lon="-0.88296">
        <ele>26</ele>
        <time>2018-06-30T19:25:24.000Z</time>
      </trkpt>
      <trkpt lat="45.89766" lon="-0.88296">
        <ele>26</ele>
        <time>2018-06-30T19:25:25.000Z</time>
      </trkpt>
      <trkpt lat="45.89766" lon="-0.88295">
        <ele>27</ele>
        <time>2018-06-30T19:25:26.000Z</time>
      </trkpt>
      <trkpt lat="45.89766" lon="-0.88295">
        <ele>27</ele>
        <time>2018-06-30T19:25:27.000Z</time>
      </trkpt>
      <trkpt lat="45.89766" lon="-0.88294">
        <ele>28</ele>
        <time>2018-06-30T19:25:28.000Z</time>
      </trkpt>
      <trkpt lat="45.89766" lon="-0.88294">
        <ele>28</ele>
        <time>2018-06-30T19:25:29.000Z</time>
      </trkpt>
      <trkpt lat="45.89766" lon="-0.88294">
        <ele>29</ele>
        <time>2018-06-30T19:25:30.000Z</time>
      </trkpt>
      <trkpt lat="45.89766" lon="-0.88294">
        <ele>29</ele>
        <time>2018-06-30T19:25:31.000Z</time>
      </trkpt>
      <trkpt lat="45.89766" lon="-0.88294">
        <ele>29</ele>
        <time>2018-06-30T19:25:32.000Z</time>
      </trkpt>
      <trkpt lat="45.89766" lon="-0.88294">
        <ele>29</ele>
        <time>2018-06-30T19:25:33.000Z</time>
      </trkpt>
      <trkpt lat="45.89766" lon="-0.88293">
        <ele>30</ele>
        <time>2018-06-30T19:25:34.000Z</time>
      </trkpt>
      <trkpt lat="45.89766" lon="-0.88293">
        <ele>30</ele>
        <time>2018-06-30T19:25:35.000Z</time>
      </trkpt>
      <trkpt lat="45.89766" lon="-0.88293">
        <ele>30</ele>
        <time>2018-06-30T19:25:36.000Z</time>
      </trkpt>
      <trkpt lat="45.89765" lon="-0.88293">
        <ele>30</ele>
        <time>2018-06-30T19:25:37.000Z</time>
      </trkpt>
      <trkpt lat="45.89765" lon="-0.88293">
        <ele>30</ele>
        <time>2018-06-30T19:25:38.000Z</time>
      </trkpt>
      <trkpt lat="45.89765" lon="-0.88294">
        <ele>30</ele>
        <time>2018-06-30T19:25:39.000Z</time>
      </trkpt>
      <trkpt lat="45.89765" lon="-0.88294">
        <ele>30</ele>
        <time>2018-06-30T19:25:40.000Z</time>
      </trkpt>
      <trkpt lat="45.89766" lon="-0.88294">
        <ele>30</ele>
        <time>2018-06-30T19:25:41.000Z</time>
      </trkpt>
      <trkpt lat="45.89766" lon="-0.88294">
        <ele>30</ele>
        <time>2018-06-30T19:25:42.000Z</time>
      </trkpt>
      <trkpt lat="45.89766" lon="-0.88294">
        <ele>30</ele>
        <time>2018-06-30T19:25:43.000Z</time>
      </trkpt>
      <trkpt lat="45.89766" lon="-0.88295">
        <ele>30</ele>
        <time>2018-06-30T19:25:44.000Z</time>
      </trkpt>
      <trkpt lat="45.89767" lon="-0.88296">
        <ele>30</ele>
        <time>2018-06-30T19:25:45.000Z</time>
      </trkpt>
      <trkpt lat="45.89767" lon="-0.88296">
        <ele>29</ele>
        <time>2018-06-30T19:25:46.000Z</time>
      </trkpt>
      <trkpt lat="45.89767" lon="-0.88296">
        <ele>28</ele>
        <time>2018-06-30T19:25:47.000Z</time>
      </trkpt>
      <trkpt lat="45.89767" lon="-0.88296">
        <ele>28</ele>
        <time>2018-06-30T19:25:48.000Z</time>
      </trkpt>
      <trkpt lat="45.89767" lon="-0.88296">
        <ele>28</ele>
        <time>2018-06-30T19:25:49.000Z</time>
      </trkpt>
      <trkpt lat="45.89767" lon="-0.88296">
        <ele>27</ele>
        <time>2018-06-30T19:25:50.000Z</time>
      </trkpt>
      <trkpt lat="45.89767" lon="-0.88297">
        <ele>27</ele>
        <time>2018-06-30T19:25:51.000Z</time>
      </trkpt>
      <trkpt lat="45.89767" lon="-0.88297">
        <ele>27</ele>
        <time>2018-06-30T19:25:52.000Z</time>
      </trkpt>
      <trkpt lat="45.89767" lon="-0.88297">
        <ele>26</ele>
        <time>2018-06-30T19:25:53.000Z</time>
      </trkpt>
      <trkpt lat="45.89768" lon="-0.88297">
        <ele>26</ele>
        <time>2018-06-30T19:25:54.000Z</time>
      </trkpt>
      <trkpt lat="45.89768" lon="-0.88297">
        <ele>26</ele>
        <time>2018-06-30T19:25:55.000Z</time>
      </trkpt>
      <trkpt lat="45.89768" lon="-0.88297">
        <ele>26</ele>
        <time>2018-06-30T19:25:56.000Z</time>
      </trkpt>
      <trkpt lat="45.89768" lon="-0.88297">
        <ele>25</ele>
        <time>2018-06-30T19:25:57.000Z</time>
      </trkpt>
      <trkpt lat="45.89768" lon="-0.88297">
        <ele>25</ele>
        <time>2018-06-30T19:25:58.000Z</time>
      </trkpt>
      <trkpt lat="45.89767" lon="-0.88296">
        <ele>25</ele>
        <time>2018-06-30T19:25:59.000Z</time>
      </trkpt>
      <trkpt lat="45.89767" lon="-0.88296">
        <ele>25</ele>
        <time>2018-06-30T19:26:00.000Z</time>
      </trkpt>
      <trkpt lat="45.89766" lon="-0.88296">
        <ele>25</ele>
        <time>2018-06-30T19:26:01.000Z</time>
      </trkpt>
      <trkpt lat="45.89765" lon="-0.88296">
        <ele>25</ele>
        <time>2018-06-30T19:26:02.000Z</time>
      </trkpt>
      <trkpt lat="45.89765" lon="-0.88296">
        <ele>25</ele>
        <time>2018-06-30T19:26:03.000Z</time>
      </trkpt>
      <trkpt lat="45.89765" lon="-0.88296">
        <ele>26</ele>
        <time>2018-06-30T19:26:04.000Z</time>
      </trkpt>
      <trkpt lat="45.89765" lon="-0.88296">
        <ele>26</ele>
        <time>2018-06-30T19:26:05.000Z</time>
      </trkpt>
      <trkpt lat="45.89765" lon="-0.88296">
        <ele>26</ele>
        <time>2018-06-30T19:26:06.000Z</time>
      </trkpt>
      <trkpt lat="45.89765" lon="-0.88296">
        <ele>26</ele>
        <time>2018-06-30T19:26:07.000Z</time>
      </trkpt>
      <trkpt lat="45.89765" lon="-0.88296">
        <ele>26</ele>
        <time>2018-06-30T19:26:08.000Z</time>
      </trkpt>
      <trkpt lat="45.89765" lon="-0.88296">
        <ele>26</ele>
        <time>2018-06-30T19:26:09.000Z</time>
      </trkpt>
      <trkpt lat="45.89765" lon="-0.88296">
        <ele>26</ele>
        <time>2018-06-30T19:26:10.000Z</time>
      </trkpt>
      <trkpt lat="45.89765" lon="-0.88296">
        <ele>26</ele>
        <time>2018-06-30T19:26:11.000Z</time>
      </trkpt>
      <trkpt lat="45.89765" lon="-0.88295">
        <ele>26</ele>
        <time>2018-06-30T19:26:12.000Z</time>
      </trkpt>
      <trkpt lat="45.89765" lon="-0.88295">
        <ele>27</ele>
        <time>2018-06-30T19:26:13.000Z</time>
      </trkpt>
      <trkpt lat="45.89765" lon="-0.88295">
        <ele>27</ele>
        <time>2018-06-30T19:26:14.000Z</time>
      </trkpt>
      <trkpt lat="45.89765" lon="-0.88294">
        <ele>27</ele>
        <time>2018-06-30T19:26:15.000Z</time>
      </trkpt>
      <trkpt lat="45.89765" lon="-0.88294">
        <ele>27</ele>
        <time>2018-06-30T19:26:16.000Z</time>
      </trkpt>
      <trkpt lat="45.89764" lon="-0.88294">
        <ele>27</ele>
        <time>2018-06-30T19:26:17.000Z</time>
      </trkpt>
      <trkpt lat="45.89764" lon="-0.88293">
        <ele>27</ele>
        <time>2018-06-30T19:26:18.000Z</time>
      </trkpt>
      <trkpt lat="45.89763" lon="-0.88293">
        <ele>27</ele>
        <time>2018-06-30T19:26:19.000Z</time>
      </trkpt>
      <trkpt lat="45.89763" lon="-0.88292">
        <ele>27</ele>
        <time>2018-06-30T19:26:20.000Z</time>
      </trkpt>
      <trkpt lat="45.89762" lon="-0.88292">
        <ele>27</ele>
        <time>2018-06-30T19:26:21.000Z</time>
      </trkpt>
      <trkpt lat="45.89762" lon="-0.88291">
        <ele>27</ele>
        <time>2018-06-30T19:26:22.000Z</time>
      </trkpt>
      <trkpt lat="45.89762" lon="-0.8829">
        <ele>27</ele>
        <time>2018-06-30T19:26:23.000Z</time>
      </trkpt>
      <trkpt lat="45.89761" lon="-0.88289">
        <ele>28</ele>
        <time>2018-06-30T19:26:24.000Z</time>
      </trkpt>
      <trkpt lat="45.89761" lon="-0.88289">
        <ele>28</ele>
        <time>2018-06-30T19:26:25.000Z</time>
      </trkpt>
      <trkpt lat="45.8976" lon="-0.88288">
        <ele>28</ele>
        <time>2018-06-30T19:26:26.000Z</time>
      </trkpt>
      <trkpt lat="45.89759" lon="-0.88288">
        <ele>27</ele>
        <time>2018-06-30T19:26:27.000Z</time>
      </trkpt>
      <trkpt lat="45.89759" lon="-0.88288">
        <ele>27</ele>
        <time>2018-06-30T19:26:28.000Z</time>
      </trkpt>
      <trkpt lat="45.89759" lon="-0.88289">
        <ele>27</ele>
        <time>2018-06-30T19:26:29.000Z</time>
      </trkpt>
      <trkpt lat="45.89759" lon="-0.88289">
        <ele>27</ele>
        <time>2018-06-30T19:26:30.000Z</time>
      </trkpt>
      <trkpt lat="45.89759" lon="-0.88289">
        <ele>27</ele>
        <time>2018-06-30T19:26:31.000Z</time>
      </trkpt>
      <trkpt lat="45.89759" lon="-0.88289">
        <ele>27</ele>
        <time>2018-06-30T19:26:32.000Z</time>
      </trkpt>
      <trkpt lat="45.89759" lon="-0.88289">
        <ele>27</ele>
        <time>2018-06-30T19:26:33.000Z</time>
      </trkpt>
      <trkpt lat="45.89759" lon="-0.88289">
        <ele>27</ele>
        <time>2018-06-30T19:26:34.000Z</time>
      </trkpt>
      <trkpt lat="45.89759" lon="-0.88289">
        <ele>26</ele>
        <time>2018-06-30T19:26:35.000Z</time>
      </trkpt>
      <trkpt lat="45.89759" lon="-0.88289">
        <ele>26</ele>
        <time>2018-06-30T19:26:36.000Z</time>
      </trkpt>
      <trkpt lat="45.89759" lon="-0.88289">
        <ele>26</ele>
        <time>2018-06-30T19:26:37.000Z</time>
      </trkpt>
      <trkpt lat="45.89759" lon="-0.88289">
        <ele>26</ele>
        <time>2018-06-30T19:26:38.000Z</time>
      </trkpt>
      <trkpt lat="45.89759" lon="-0.88289">
        <ele>25</ele>
        <time>2018-06-30T19:26:39.000Z</time>
      </trkpt>
      <trkpt lat="45.89759" lon="-0.88289">
        <ele>25</ele>
        <time>2018-06-30T19:26:40.000Z</time>
      </trkpt>
      <trkpt lat="45.89759" lon="-0.88289">
        <ele>25</ele>
        <time>2018-06-30T19:26:41.000Z</time>
      </trkpt>
      <trkpt lat="45.89759" lon="-0.88288">
        <ele>25</ele>
        <time>2018-06-30T19:26:42.000Z</time>
      </trkpt>
      <trkpt lat="45.89759" lon="-0.88288">
        <ele>25</ele>
        <time>2018-06-30T19:26:43.000Z</time>
      </trkpt>
      <trkpt lat="45.89759" lon="-0.88288">
        <ele>25</ele>
        <time>2018-06-30T19:26:44.000Z</time>
      </trkpt>
      <trkpt lat="45.89759" lon="-0.88288">
        <ele>25</ele>
        <time>2018-06-30T19:26:45.000Z</time>
      </trkpt>
      <trkpt lat="45.89758" lon="-0.88288">
        <ele>24</ele>
        <time>2018-06-30T19:26:46.000Z</time>
      </trkpt>
      <trkpt lat="45.89758" lon="-0.88288">
        <ele>24</ele>
        <time>2018-06-30T19:26:47.000Z</time>
      </trkpt>
      <trkpt lat="45.89758" lon="-0.88288">
        <ele>25</ele>
        <time>2018-06-30T19:26:48.000Z</time>
      </trkpt>
      <trkpt lat="45.89758" lon="-0.88288">
        <ele>24</ele>
        <time>2018-06-30T19:26:49.000Z</time>
      </trkpt>
      <trkpt lat="45.89758" lon="-0.88288">
        <ele>24</ele>
        <time>2018-06-30T19:26:50.000Z</time>
      </trkpt>
      <trkpt lat="45.89758" lon="-0.88288">
        <ele>24</ele>
        <time>2018-06-30T19:26:51.000Z</time>
      </trkpt>
      <trkpt lat="45.89758" lon="-0.88288">
        <ele>24</ele>
        <time>2018-06-30T19:26:52.000Z</time>
      </trkpt>
      <trkpt lat="45.89758" lon="-0.88288">
        <ele>24</ele>
        <time>2018-06-30T19:26:53.000Z</time>
      </trkpt>
      <trkpt lat="45.89758" lon="-0.88287">
        <ele>25</ele>
        <time>2018-06-30T19:26:54.000Z</time>
      </trkpt>
      <trkpt lat="45.89758" lon="-0.88287">
        <ele>25</ele>
        <time>2018-06-30T19:26:55.000Z</time>
      </trkpt>
      <trkpt lat="45.89758" lon="-0.88287">
        <ele>25</ele>
        <time>2018-06-30T19:26:56.000Z</time>
      </trkpt>
      <trkpt lat="45.89758" lon="-0.88287">
        <ele>25</ele>
        <time>2018-06-30T19:26:57.000Z</time>
      </trkpt>
      <trkpt lat="45.89759" lon="-0.88288">
        <ele>25</ele>
        <time>2018-06-30T19:26:58.000Z</time>
      </trkpt>
      <trkpt lat="45.89759" lon="-0.88288">
        <ele>25</ele>
        <time>2018-06-30T19:26:59.000Z</time>
      </trkpt>
      <trkpt lat="45.89759" lon="-0.88289">
        <ele>25</ele>
        <time>2018-06-30T19:27:00.000Z</time>
      </trkpt>
      <trkpt lat="45.89758" lon="-0.88289">
        <ele>25</ele>
        <time>2018-06-30T19:27:01.000Z</time>
      </trkpt>
      <trkpt lat="45.89758" lon="-0.88289">
        <ele>25</ele>
        <time>2018-06-30T19:27:02.000Z</time>
      </trkpt>
      <trkpt lat="45.89758" lon="-0.88289">
        <ele>25</ele>
        <time>2018-06-30T19:27:03.000Z</time>
      </trkpt>
      <trkpt lat="45.89758" lon="-0.88289">
        <ele>24</ele>
        <time>2018-06-30T19:27:04.000Z</time>
      </trkpt>
      <trkpt lat="45.89758" lon="-0.88288">
        <ele>24</ele>
        <time>2018-06-30T19:27:05.000Z</time>
      </trkpt>
      <trkpt lat="45.89758" lon="-0.88288">
        <ele>25</ele>
        <time>2018-06-30T19:27:06.000Z</time>
      </trkpt>
      <trkpt lat="45.89759" lon="-0.88289">
        <ele>25</ele>
        <time>2018-06-30T19:27:07.000Z</time>
      </trkpt>
      <trkpt lat="45.89759" lon="-0.88289">
        <ele>25</ele>
        <time>2018-06-30T19:27:08.000Z</time>
      </trkpt>
      <trkpt lat="45.89759" lon="-0.88288">
        <ele>25</ele>
        <time>2018-06-30T19:27:09.000Z</time>
      </trkpt>
      <trkpt lat="45.89759" lon="-0.88288">
        <ele>25</ele>
        <time>2018-06-30T19:27:10.000Z</time>
      </trkpt>
      <trkpt lat="45.89759" lon="-0.88288">
        <ele>25</ele>
        <time>2018-06-30T19:27:11.000Z</time>
      </trkpt>
      <trkpt lat="45.89759" lon="-0.88289">
        <ele>25</ele>
        <time>2018-06-30T19:27:12.000Z</time>
      </trkpt>
      <trkpt lat="45.89759" lon="-0.88289">
        <ele>25</ele>
        <time>2018-06-30T19:27:13.000Z</time>
      </trkpt>
      <trkpt lat="45.89759" lon="-0.88289">
        <ele>25</ele>
        <time>2018-06-30T19:27:14.000Z</time>
      </trkpt>
      <trkpt lat="45.89759" lon="-0.88289">
        <ele>24</ele>
        <time>2018-06-30T19:27:15.000Z</time>
      </trkpt>
      <trkpt lat="45.89759" lon="-0.88289">
        <ele>24</ele>
        <time>2018-06-30T19:27:16.000Z</time>
      </trkpt>
      <trkpt lat="45.89759" lon="-0.88289">
        <ele>25</ele>
        <time>2018-06-30T19:27:17.000Z</time>
      </trkpt>
      <trkpt lat="45.89759" lon="-0.88289">
        <ele>24</ele>
        <time>2018-06-30T19:27:18.000Z</time>
      </trkpt>
      <trkpt lat="45.89759" lon="-0.88289">
        <ele>24</ele>
        <time>2018-06-30T19:27:19.000Z</time>
      </trkpt>
      <trkpt lat="45.89759" lon="-0.88289">
        <ele>24</ele>
        <time>2018-06-30T19:27:20.000Z</time>
      </trkpt>
      <trkpt lat="45.89759" lon="-0.88289">
        <ele>24</ele>
        <time>2018-06-30T19:27:21.000Z</time>
      </trkpt>
      <trkpt lat="45.89759" lon="-0.88289">
        <ele>24</ele>
        <time>2018-06-30T19:27:22.000Z</time>
      </trkpt>
      <trkpt lat="45.89759" lon="-0.88289">
        <ele>24</ele>
        <time>2018-06-30T19:27:23.000Z</time>
      </trkpt>
      <trkpt lat="45.89759" lon="-0.88289">
        <ele>24</ele>
        <time>2018-06-30T19:27:24.000Z</time>
      </trkpt>
      <trkpt lat="45.89759" lon="-0.88289">
        <ele>23</ele>
        <time>2018-06-30T19:27:25.000Z</time>
      </trkpt>
      <trkpt lat="45.89759" lon="-0.88289">
        <ele>24</ele>
        <time>2018-06-30T19:27:26.000Z</time>
      </trkpt>
      <trkpt lat="45.89759" lon="-0.88289">
        <ele>24</ele>
        <time>2018-06-30T19:27:27.000Z</time>
      </trkpt>
      <trkpt lat="45.89759" lon="-0.88289">
        <ele>24</ele>
        <time>2018-06-30T19:27:28.000Z</time>
      </trkpt>
      <trkpt lat="45.89759" lon="-0.88289">
        <ele>24</ele>
        <time>2018-06-30T19:27:29.000Z</time>
      </trkpt>
      <trkpt lat="45.89758" lon="-0.88289">
        <ele>24</ele>
        <time>2018-06-30T19:27:30.000Z</time>
      </trkpt>
      <trkpt lat="45.89758" lon="-0.88289">
        <ele>25</ele>
        <time>2018-06-30T19:27:31.000Z</time>
      </trkpt>
      <trkpt lat="45.89758" lon="-0.88288">
        <ele>25</ele>
        <time>2018-06-30T19:27:32.000Z</time>
      </trkpt>
      <trkpt lat="45.89758" lon="-0.88288">
        <ele>25</ele>
        <time>2018-06-30T19:27:33.000Z</time>
      </trkpt>
      <trkpt lat="45.89758" lon="-0.88288">
        <ele>25</ele>
        <time>2018-06-30T19:27:34.000Z</time>
      </trkpt>
      <trkpt lat="45.89758" lon="-0.88288">
        <ele>25</ele>
        <time>2018-06-30T19:27:35.000Z</time>
      </trkpt>
      <trkpt lat="45.89758" lon="-0.88288">
        <ele>24</ele>
        <time>2018-06-30T19:27:36.000Z</time>
      </trkpt>
      <trkpt lat="45.89758" lon="-0.88289">
        <ele>24</ele>
        <time>2018-06-30T19:27:37.000Z</time>
      </trkpt>
      <trkpt lat="45.89758" lon="-0.88289">
        <ele>24</ele>
        <time>2018-06-30T19:27:38.000Z</time>
      </trkpt>
      <trkpt lat="45.89758" lon="-0.88289">
        <ele>24</ele>
        <time>2018-06-30T19:27:39.000Z</time>
      </trkpt>
      <trkpt lat="45.89758" lon="-0.88289">
        <ele>24</ele>
        <time>2018-06-30T19:27:40.000Z</time>
      </trkpt>
      <trkpt lat="45.89758" lon="-0.88289">
        <ele>24</ele>
        <time>2018-06-30T19:27:41.000Z</time>
      </trkpt>
      <trkpt lat="45.89758" lon="-0.88289">
        <ele>24</ele>
        <time>2018-06-30T19:27:42.000Z</time>
      </trkpt>
      <trkpt lat="45.89758" lon="-0.88289">
        <ele>24</ele>
        <time>2018-06-30T19:27:43.000Z</time>
      </trkpt>
      <trkpt lat="45.89758" lon="-0.88289">
        <ele>24</ele>
        <time>2018-06-30T19:27:44.000Z</time>
      </trkpt>
      <trkpt lat="45.89758" lon="-0.88289">
        <ele>23</ele>
        <time>2018-06-30T19:27:45.000Z</time>
      </trkpt>
      <trkpt lat="45.89758" lon="-0.88289">
        <ele>23</ele>
        <time>2018-06-30T19:27:46.000Z</time>
      </trkpt>
      <trkpt lat="45.89758" lon="-0.8829">
        <ele>23</ele>
        <time>2018-06-30T19:27:47.000Z</time>
      </trkpt>
      <trkpt lat="45.89758" lon="-0.8829">
        <ele>23</ele>
        <time>2018-06-30T19:27:48.000Z</time>
      </trkpt>
      <trkpt lat="45.89758" lon="-0.8829">
        <ele>23</ele>
        <time>2018-06-30T19:27:49.000Z</time>
      </trkpt>
      <trkpt lat="45.89758" lon="-0.88291">
        <ele>23</ele>
        <time>2018-06-30T19:27:50.000Z</time>
      </trkpt>
      <trkpt lat="45.89758" lon="-0.88291">
        <ele>23</ele>
        <time>2018-06-30T19:27:51.000Z</time>
      </trkpt>
      <trkpt lat="45.89758" lon="-0.88291">
        <ele>23</ele>
        <time>2018-06-30T19:27:52.000Z</time>
      </trkpt>
      <trkpt lat="45.89758" lon="-0.88291">
        <ele>23</ele>
        <time>2018-06-30T19:27:53.000Z</time>
      </trkpt>
      <trkpt lat="45.89758" lon="-0.8829">
        <ele>24</ele>
        <time>2018-06-30T19:27:54.000Z</time>
      </trkpt>
      <trkpt lat="45.89758" lon="-0.8829">
        <ele>24</ele>
        <time>2018-06-30T19:27:55.000Z</time>
      </trkpt>
      <trkpt lat="45.89758" lon="-0.8829">
        <ele>24</ele>
        <time>2018-06-30T19:27:56.000Z</time>
      </trkpt>
      <trkpt lat="45.89758" lon="-0.8829">
        <ele>24</ele>
        <time>2018-06-30T19:27:57.000Z</time>
      </trkpt>
      <trkpt lat="45.89758" lon="-0.88291">
        <ele>24</ele>
        <time>2018-06-30T19:27:58.000Z</time>
      </trkpt>
      <trkpt lat="45.89758" lon="-0.88291">
        <ele>24</ele>
        <time>2018-06-30T19:27:59.000Z</time>
      </trkpt>
      <trkpt lat="45.89758" lon="-0.88291">
        <ele>25</ele>
        <time>2018-06-30T19:28:00.000Z</time>
      </trkpt>
      <trkpt lat="45.89758" lon="-0.8829">
        <ele>25</ele>
        <time>2018-06-30T19:28:01.000Z</time>
      </trkpt>
      <trkpt lat="45.89758" lon="-0.8829">
        <ele>25</ele>
        <time>2018-06-30T19:28:02.000Z</time>
      </trkpt>
      <trkpt lat="45.89758" lon="-0.8829">
        <ele>25</ele>
        <time>2018-06-30T19:28:03.000Z</time>
      </trkpt>
      <trkpt lat="45.89757" lon="-0.8829">
        <ele>25</ele>
        <time>2018-06-30T19:28:04.000Z</time>
      </trkpt>
      <trkpt lat="45.89758" lon="-0.8829">
        <ele>25</ele>
        <time>2018-06-30T19:28:05.000Z</time>
      </trkpt>
      <trkpt lat="45.89758" lon="-0.8829">
        <ele>25</ele>
        <time>2018-06-30T19:28:06.000Z</time>
      </trkpt>
      <trkpt lat="45.89758" lon="-0.8829">
        <ele>24</ele>
        <time>2018-06-30T19:28:07.000Z</time>
      </trkpt>
      <trkpt lat="45.89758" lon="-0.8829">
        <ele>24</ele>
        <time>2018-06-30T19:28:08.000Z</time>
      </trkpt>
      <trkpt lat="45.89758" lon="-0.8829">
        <ele>24</ele>
        <time>2018-06-30T19:28:09.000Z</time>
      </trkpt>
      <trkpt lat="45.89757" lon="-0.8829">
        <ele>25</ele>
        <time>2018-06-30T19:28:10.000Z</time>
      </trkpt>
      <trkpt lat="45.89757" lon="-0.8829">
        <ele>24</ele>
        <time>2018-06-30T19:28:11.000Z</time>
      </trkpt>
      <trkpt lat="45.89758" lon="-0.8829">
        <ele>24</ele>
        <time>2018-06-30T19:28:12.000Z</time>
      </trkpt>
      <trkpt lat="45.89758" lon="-0.8829">
        <ele>25</ele>
        <time>2018-06-30T19:28:13.000Z</time>
      </trkpt>
      <trkpt lat="45.89758" lon="-0.8829">
        <ele>25</ele>
        <time>2018-06-30T19:28:14.000Z</time>
      </trkpt>
      <trkpt lat="45.89758" lon="-0.8829">
        <ele>25</ele>
        <time>2018-06-30T19:28:15.000Z</time>
      </trkpt>
      <trkpt lat="45.89758" lon="-0.8829">
        <ele>25</ele>
        <time>2018-06-30T19:28:16.000Z</time>
      </trkpt>
      <trkpt lat="45.89758" lon="-0.8829">
        <ele>25</ele>
        <time>2018-06-30T19:28:17.000Z</time>
      </trkpt>
      <trkpt lat="45.89758" lon="-0.8829">
        <ele>25</ele>
        <time>2018-06-30T19:28:18.000Z</time>
      </trkpt>
      <trkpt lat="45.89758" lon="-0.8829">
        <ele>26</ele>
        <time>2018-06-30T19:28:19.000Z</time>
      </trkpt>
      <trkpt lat="45.89758" lon="-0.8829">
        <ele>26</ele>
        <time>2018-06-30T19:28:20.000Z</time>
      </trkpt>
      <trkpt lat="45.89758" lon="-0.8829">
        <ele>26</ele>
        <time>2018-06-30T19:28:21.000Z</time>
      </trkpt>
      <trkpt lat="45.89758" lon="-0.8829">
        <ele>26</ele>
        <time>2018-06-30T19:28:22.000Z</time>
      </trkpt>
      <trkpt lat="45.89758" lon="-0.8829">
        <ele>26</ele>
        <time>2018-06-30T19:28:23.000Z</time>
      </trkpt>
      <trkpt lat="45.89758" lon="-0.8829">
        <ele>26</ele>
        <time>2018-06-30T19:28:24.000Z</time>
      </trkpt>
      <trkpt lat="45.89758" lon="-0.8829">
        <ele>26</ele>
        <time>2018-06-30T19:28:25.000Z</time>
      </trkpt>
      <trkpt lat="45.89758" lon="-0.8829">
        <ele>26</ele>
        <time>2018-06-30T19:28:26.000Z</time>
      </trkpt>
      <trkpt lat="45.89758" lon="-0.8829">
        <ele>26</ele>
        <time>2018-06-30T19:28:27.000Z</time>
      </trkpt>
      <trkpt lat="45.89758" lon="-0.8829">
        <ele>26</ele>
        <time>2018-06-30T19:28:28.000Z</time>
      </trkpt>
      <trkpt lat="45.89758" lon="-0.8829">
        <ele>26</ele>
        <time>2018-06-30T19:28:29.000Z</time>
      </trkpt>
      <trkpt lat="45.89758" lon="-0.8829">
        <ele>25</ele>
        <time>2018-06-30T19:28:30.000Z</time>
      </trkpt>
      <trkpt lat="45.89759" lon="-0.8829">
        <ele>25</ele>
        <time>2018-06-30T19:28:31.000Z</time>
      </trkpt>
      <trkpt lat="45.89759" lon="-0.8829">
        <ele>25</ele>
        <time>2018-06-30T19:28:32.000Z</time>
      </trkpt>
      <trkpt lat="45.89759" lon="-0.8829">
        <ele>25</ele>
        <time>2018-06-30T19:28:33.000Z</time>
      </trkpt>
      <trkpt lat="45.89759" lon="-0.8829">
        <ele>25</ele>
        <time>2018-06-30T19:28:34.000Z</time>
      </trkpt>
      <trkpt lat="45.89759" lon="-0.8829">
        <ele>25</ele>
        <time>2018-06-30T19:28:35.000Z</time>
      </trkpt>
      <trkpt lat="45.89758" lon="-0.8829">
        <ele>25</ele>
        <time>2018-06-30T19:28:36.000Z</time>
      </trkpt>
      <trkpt lat="45.89758" lon="-0.8829">
        <ele>26</ele>
        <time>2018-06-30T19:28:37.000Z</time>
      </trkpt>
      <trkpt lat="45.89758" lon="-0.8829">
        <ele>26</ele>
        <time>2018-06-30T19:28:38.000Z</time>
      </trkpt>
      <trkpt lat="45.89758" lon="-0.8829">
        <ele>26</ele>
        <time>2018-06-30T19:28:39.000Z</time>
      </trkpt>
      <trkpt lat="45.89758" lon="-0.8829">
        <ele>26</ele>
        <time>2018-06-30T19:28:40.000Z</time>
      </trkpt>
      <trkpt lat="45.89758" lon="-0.8829">
        <ele>26</ele>
        <time>2018-06-30T19:28:41.000Z</time>
      </trkpt>
      <trkpt lat="45.89758" lon="-0.8829">
        <ele>27</ele>
        <time>2018-06-30T19:28:42.000Z</time>
      </trkpt>
      <trkpt lat="45.89758" lon="-0.8829">
        <ele>27</ele>
        <time>2018-06-30T19:28:43.000Z</time>
      </trkpt>
      <trkpt lat="45.89758" lon="-0.8829">
        <ele>27</ele>
        <time>2018-06-30T19:28:44.000Z</time>
      </trkpt>
      <trkpt lat="45.89759" lon="-0.8829">
        <ele>27</ele>
        <time>2018-06-30T19:28:45.000Z</time>
      </trkpt>
      <trkpt lat="45.89759" lon="-0.8829">
        <ele>27</ele>
        <time>2018-06-30T19:28:46.000Z</time>
      </trkpt>
      <trkpt lat="45.89759" lon="-0.8829">
        <ele>27</ele>
        <time>2018-06-30T19:28:47.000Z</time>
      </trkpt>
      <trkpt lat="45.89759" lon="-0.8829">
        <ele>27</ele>
        <time>2018-06-30T19:28:48.000Z</time>
      </trkpt>
      <trkpt lat="45.89759" lon="-0.8829">
        <ele>27</ele>
        <time>2018-06-30T19:28:49.000Z</time>
      </trkpt>
      <trkpt lat="45.89759" lon="-0.8829">
        <ele>27</ele>
        <time>2018-06-30T19:28:50.000Z</time>
      </trkpt>
      <trkpt lat="45.89759" lon="-0.8829">
        <ele>27</ele>
        <time>2018-06-30T19:28:51.000Z</time>
      </trkpt>
      <trkpt lat="45.89759" lon="-0.8829">
        <ele>27</ele>
        <time>2018-06-30T19:28:52.000Z</time>
      </trkpt>
      <trkpt lat="45.89759" lon="-0.8829">
        <ele>26</ele>
        <time>2018-06-30T19:28:53.000Z</time>
      </trkpt>
      <trkpt lat="45.89759" lon="-0.8829">
        <ele>26</ele>
        <time>2018-06-30T19:28:54.000Z</time>
      </trkpt>
      <trkpt lat="45.89759" lon="-0.8829">
        <ele>26</ele>
        <time>2018-06-30T19:28:55.000Z</time>
      </trkpt>
      <trkpt lat="45.89759" lon="-0.8829">
        <ele>26</ele>
        <time>2018-06-30T19:28:56.000Z</time>
      </trkpt>
      <trkpt lat="45.89759" lon="-0.8829">
        <ele>26</ele>
        <time>2018-06-30T19:28:57.000Z</time>
      </trkpt>
      <trkpt lat="45.89759" lon="-0.8829">
        <ele>26</ele>
        <time>2018-06-30T19:28:58.000Z</time>
      </trkpt>
      <trkpt lat="45.89759" lon="-0.8829">
        <ele>26</ele>
        <time>2018-06-30T19:28:59.000Z</time>
      </trkpt>
      <trkpt lat="45.89759" lon="-0.8829">
        <ele>26</ele>
        <time>2018-06-30T19:29:00.000Z</time>
      </trkpt>
      <trkpt lat="45.89759" lon="-0.8829">
        <ele>25</ele>
        <time>2018-06-30T19:29:01.000Z</time>
      </trkpt>
      <trkpt lat="45.89759" lon="-0.8829">
        <ele>25</ele>
        <time>2018-06-30T19:29:02.000Z</time>
      </trkpt>
      <trkpt lat="45.89759" lon="-0.8829">
        <ele>25</ele>
        <time>2018-06-30T19:29:03.000Z</time>
      </trkpt>
      <trkpt lat="45.89759" lon="-0.8829">
        <ele>25</ele>
        <time>2018-06-30T19:29:04.000Z</time>
      </trkpt>
      <trkpt lat="45.89759" lon="-0.8829">
        <ele>25</ele>
        <time>2018-06-30T19:29:05.000Z</time>
      </trkpt>
      <trkpt lat="45.89759" lon="-0.8829">
        <ele>25</ele>
        <time>2018-06-30T19:29:06.000Z</time>
      </trkpt>
      <trkpt lat="45.89759" lon="-0.8829">
        <ele>25</ele>
        <time>2018-06-30T19:29:07.000Z</time>
      </trkpt>
      <trkpt lat="45.89759" lon="-0.8829">
        <ele>25</ele>
        <time>2018-06-30T19:29:08.000Z</time>
      </trkpt>
      <trkpt lat="45.89759" lon="-0.8829">
        <ele>25</ele>
        <time>2018-06-30T19:29:09.000Z</time>
      </trkpt>
      <trkpt lat="45.89759" lon="-0.8829">
        <ele>25</ele>
        <time>2018-06-30T19:29:10.000Z</time>
      </trkpt>
      <trkpt lat="45.89759" lon="-0.8829">
        <ele>25</ele>
        <time>2018-06-30T19:29:11.000Z</time>
      </trkpt>
      <trkpt lat="45.89759" lon="-0.8829">
        <ele>25</ele>
        <time>2018-06-30T19:29:12.000Z</time>
      </trkpt>
      <trkpt lat="45.89759" lon="-0.8829">
        <ele>24</ele>
        <time>2018-06-30T19:29:13.000Z</time>
      </trkpt>
      <trkpt lat="45.89759" lon="-0.8829">
        <ele>25</ele>
        <time>2018-06-30T19:29:14.000Z</time>
      </trkpt>
      <trkpt lat="45.89759" lon="-0.8829">
        <ele>25</ele>
        <time>2018-06-30T19:29:15.000Z</time>
      </trkpt>
      <trkpt lat="45.89759" lon="-0.8829">
        <ele>24</ele>
        <time>2018-06-30T19:29:16.000Z</time>
      </trkpt>
      <trkpt lat="45.89759" lon="-0.8829">
        <ele>24</ele>
        <time>2018-06-30T19:29:17.000Z</time>
      </trkpt>
      <trkpt lat="45.89759" lon="-0.8829">
        <ele>24</ele>
        <time>2018-06-30T19:29:18.000Z</time>
      </trkpt>
      <trkpt lat="45.89759" lon="-0.8829">
        <ele>24</ele>
        <time>2018-06-30T19:29:19.000Z</time>
      </trkpt>
      <trkpt lat="45.89759" lon="-0.8829">
        <ele>24</ele>
        <time>2018-06-30T19:29:20.000Z</time>
      </trkpt>
      <trkpt lat="45.8976" lon="-0.8829">
        <ele>24</ele>
        <time>2018-06-30T19:29:21.000Z</time>
      </trkpt>
      <trkpt lat="45.8976" lon="-0.8829">
        <ele>24</ele>
        <time>2018-06-30T19:29:22.000Z</time>
      </trkpt>
      <trkpt lat="45.8976" lon="-0.8829">
        <ele>24</ele>
        <time>2018-06-30T19:29:23.000Z</time>
      </trkpt>
      <trkpt lat="45.8976" lon="-0.8829">
        <ele>24</ele>
        <time>2018-06-30T19:29:24.000Z</time>
      </trkpt>
      <trkpt lat="45.8976" lon="-0.88291">
        <ele>24</ele>
        <time>2018-06-30T19:29:25.000Z</time>
      </trkpt>
      <trkpt lat="45.8976" lon="-0.88291">
        <ele>24</ele>
        <time>2018-06-30T19:29:26.000Z</time>
      </trkpt>
      <trkpt lat="45.8976" lon="-0.88291">
        <ele>24</ele>
        <time>2018-06-30T19:29:27.000Z</time>
      </trkpt>
      <trkpt lat="45.8976" lon="-0.88291">
        <ele>24</ele>
        <time>2018-06-30T19:29:28.000Z</time>
      </trkpt>
      <trkpt lat="45.8976" lon="-0.88291">
        <ele>24</ele>
        <time>2018-06-30T19:29:29.000Z</time>
      </trkpt>
      <trkpt lat="45.8976" lon="-0.88291">
        <ele>24</ele>
        <time>2018-06-30T19:29:30.000Z</time>
      </trkpt>
      <trkpt lat="45.8976" lon="-0.88291">
        <ele>24</ele>
        <time>2018-06-30T19:29:31.000Z</time>
      </trkpt>
      <trkpt lat="45.8976" lon="-0.88291">
        <ele>24</ele>
        <time>2018-06-30T19:29:32.000Z</time>
      </trkpt>
      <trkpt lat="45.8976" lon="-0.88291">
        <ele>24</ele>
        <time>2018-06-30T19:29:33.000Z</time>
      </trkpt>
      <trkpt lat="45.8976" lon="-0.88291">
        <ele>24</ele>
        <time>2018-06-30T19:29:34.000Z</time>
      </trkpt>
      <trkpt lat="45.89759" lon="-0.88291">
        <ele>24</ele>
        <time>2018-06-30T19:29:35.000Z</time>
      </trkpt>
      <trkpt lat="45.89759" lon="-0.88291">
        <ele>24</ele>
        <time>2018-06-30T19:29:36.000Z</time>
      </trkpt>
      <trkpt lat="45.89759" lon="-0.88291">
        <ele>24</ele>
        <time>2018-06-30T19:29:37.000Z</time>
      </trkpt>
      <trkpt lat="45.89759" lon="-0.88291">
        <ele>24</ele>
        <time>2018-06-30T19:29:38.000Z</time>
      </trkpt>
      <trkpt lat="45.89759" lon="-0.88291">
        <ele>24</ele>
        <time>2018-06-30T19:29:39.000Z</time>
      </trkpt>
      <trkpt lat="45.89759" lon="-0.88291">
        <ele>24</ele>
        <time>2018-06-30T19:29:40.000Z</time>
      </trkpt>
      <trkpt lat="45.89759" lon="-0.8829">
        <ele>24</ele>
        <time>2018-06-30T19:29:41.000Z</time>
      </trkpt>
      <trkpt lat="45.8976" lon="-0.8829">
        <ele>24</ele>
        <time>2018-06-30T19:29:42.000Z</time>
      </trkpt>
      <trkpt lat="45.8976" lon="-0.8829">
        <ele>24</ele>
        <time>2018-06-30T19:29:43.000Z</time>
      </trkpt>
      <trkpt lat="45.8976" lon="-0.8829">
        <ele>24</ele>
        <time>2018-06-30T19:29:44.000Z</time>
      </trkpt>
      <trkpt lat="45.8976" lon="-0.8829">
        <ele>24</ele>
        <time>2018-06-30T19:29:45.000Z</time>
      </trkpt>
      <trkpt lat="45.89759" lon="-0.8829">
        <ele>24</ele>
        <time>2018-06-30T19:29:46.000Z</time>
      </trkpt>
      <trkpt lat="45.89759" lon="-0.8829">
        <ele>24</ele>
        <time>2018-06-30T19:29:47.000Z</time>
      </trkpt>
      <trkpt lat="45.89759" lon="-0.8829">
        <ele>24</ele>
        <time>2018-06-30T19:29:48.000Z</time>
      </trkpt>
      <trkpt lat="45.89759" lon="-0.8829">
        <ele>25</ele>
        <time>2018-06-30T19:29:49.000Z</time>
      </trkpt>
      <trkpt lat="45.89759" lon="-0.8829">
        <ele>25</ele>
        <time>2018-06-30T19:29:50.000Z</time>
      </trkpt>
      <trkpt lat="45.89759" lon="-0.8829">
        <ele>25</ele>
        <time>2018-06-30T19:29:51.000Z</time>
      </trkpt>
      <trkpt lat="45.89759" lon="-0.8829">
        <ele>25</ele>
        <time>2018-06-30T19:29:52.000Z</time>
      </trkpt>
      <trkpt lat="45.89759" lon="-0.8829">
        <ele>25</ele>
        <time>2018-06-30T19:29:53.000Z</time>
      </trkpt>
      <trkpt lat="45.89759" lon="-0.8829">
        <ele>25</ele>
        <time>2018-06-30T19:29:54.000Z</time>
      </trkpt>
      <trkpt lat="45.89759" lon="-0.8829">
        <ele>24</ele>
        <time>2018-06-30T19:29:55.000Z</time>
      </trkpt>
      <trkpt lat="45.89759" lon="-0.8829">
        <ele>24</ele>
        <time>2018-06-30T19:29:56.000Z</time>
      </trkpt>
      <trkpt lat="45.89759" lon="-0.8829">
        <ele>24</ele>
        <time>2018-06-30T19:29:57.000Z</time>
      </trkpt>
      <trkpt lat="45.89759" lon="-0.8829">
        <ele>24</ele>
        <time>2018-06-30T19:29:58.000Z</time>
      </trkpt>
      <trkpt lat="45.89759" lon="-0.8829">
        <ele>24</ele>
        <time>2018-06-30T19:29:59.000Z</time>
      </trkpt>
      <trkpt lat="45.89759" lon="-0.8829">
        <ele>24</ele>
        <time>2018-06-30T19:30:00.000Z</time>
      </trkpt>
      <trkpt lat="45.89759" lon="-0.8829">
        <ele>24</ele>
        <time>2018-06-30T19:30:01.000Z</time>
      </trkpt>
      <trkpt lat="45.89759" lon="-0.8829">
        <ele>24</ele>
        <time>2018-06-30T19:30:02.000Z</time>
      </trkpt>
      <trkpt lat="45.89759" lon="-0.8829">
        <ele>25</ele>
        <time>2018-06-30T19:30:03.000Z</time>
      </trkpt>
      <trkpt lat="45.89759" lon="-0.8829">
        <ele>25</ele>
        <time>2018-06-30T19:30:04.000Z</time>
      </trkpt>
      <trkpt lat="45.89759" lon="-0.8829">
        <ele>25</ele>
        <time>2018-06-30T19:30:05.000Z</time>
      </trkpt>
      <trkpt lat="45.89759" lon="-0.8829">
        <ele>25</ele>
        <time>2018-06-30T19:30:06.000Z</time>
      </trkpt>
      <trkpt lat="45.89759" lon="-0.8829">
        <ele>25</ele>
        <time>2018-06-30T19:30:07.000Z</time>
      </trkpt>
      <trkpt lat="45.89759" lon="-0.8829">
        <ele>25</ele>
        <time>2018-06-30T19:30:08.000Z</time>
      </trkpt>
      <trkpt lat="45.89759" lon="-0.8829">
        <ele>25</ele>
        <time>2018-06-30T19:30:09.000Z</time>
      </trkpt>
      <trkpt lat="45.89759" lon="-0.8829">
        <ele>25</ele>
        <time>2018-06-30T19:30:10.000Z</time>
      </trkpt>
      <trkpt lat="45.89759" lon="-0.8829">
        <ele>25</ele>
        <time>2018-06-30T19:30:11.000Z</time>
      </trkpt>
      <trkpt lat="45.89759" lon="-0.8829">
        <ele>25</ele>
        <time>2018-06-30T19:30:12.000Z</time>
      </trkpt>
      <trkpt lat="45.89759" lon="-0.88289">
        <ele>25</ele>
        <time>2018-06-30T19:30:13.000Z</time>
      </trkpt>
      <trkpt lat="45.89759" lon="-0.88289">
        <ele>25</ele>
        <time>2018-06-30T19:30:14.000Z</time>
      </trkpt>
      <trkpt lat="45.89759" lon="-0.88289">
        <ele>25</ele>
        <time>2018-06-30T19:30:15.000Z</time>
      </trkpt>
      <trkpt lat="45.89759" lon="-0.88289">
        <ele>25</ele>
        <time>2018-06-30T19:30:16.000Z</time>
      </trkpt>
      <trkpt lat="45.89759" lon="-0.8829">
        <ele>25</ele>
        <time>2018-06-30T19:30:17.000Z</time>
      </trkpt>
      <trkpt lat="45.89759" lon="-0.8829">
        <ele>25</ele>
        <time>2018-06-30T19:30:18.000Z</time>
      </trkpt>
      <trkpt lat="45.89759" lon="-0.8829">
        <ele>25</ele>
        <time>2018-06-30T19:30:19.000Z</time>
      </trkpt>
      <trkpt lat="45.89759" lon="-0.88289">
        <ele>25</ele>
        <time>2018-06-30T19:30:20.000Z</time>
      </trkpt>
      <trkpt lat="45.89759" lon="-0.88289">
        <ele>25</ele>
        <time>2018-06-30T19:30:21.000Z</time>
      </trkpt>
      <trkpt lat="45.89759" lon="-0.88289">
        <ele>25</ele>
        <time>2018-06-30T19:30:22.000Z</time>
      </trkpt>
      <trkpt lat="45.89759" lon="-0.88289">
        <ele>25</ele>
        <time>2018-06-30T19:30:23.000Z</time>
      </trkpt>
      <trkpt lat="45.89759" lon="-0.88289">
        <ele>25</ele>
        <time>2018-06-30T19:30:24.000Z</time>
      </trkpt>
      <trkpt lat="45.89759" lon="-0.8829">
        <ele>24</ele>
        <time>2018-06-30T19:30:25.000Z</time>
      </trkpt>
      <trkpt lat="45.8976" lon="-0.8829">
        <ele>24</ele>
        <time>2018-06-30T19:30:26.000Z</time>
      </trkpt>
      <trkpt lat="45.8976" lon="-0.88291">
        <ele>23</ele>
        <time>2018-06-30T19:30:27.000Z</time>
      </trkpt>
      <trkpt lat="45.8976" lon="-0.88291">
        <ele>23</ele>
        <time>2018-06-30T19:30:28.000Z</time>
      </trkpt>
      <trkpt lat="45.8976" lon="-0.88292">
        <ele>23</ele>
        <time>2018-06-30T19:30:29.000Z</time>
      </trkpt>
      <trkpt lat="45.8976" lon="-0.88292">
        <ele>23</ele>
        <time>2018-06-30T19:30:30.000Z</time>
      </trkpt>
      <trkpt lat="45.8976" lon="-0.88292">
        <ele>23</ele>
        <time>2018-06-30T19:30:31.000Z</time>
      </trkpt>
      <trkpt lat="45.8976" lon="-0.88292">
        <ele>23</ele>
        <time>2018-06-30T19:30:32.000Z</time>
      </trkpt>
      <trkpt lat="45.8976" lon="-0.88292">
        <ele>23</ele>
        <time>2018-06-30T19:30:33.000Z</time>
      </trkpt>
      <trkpt lat="45.8976" lon="-0.88292">
        <ele>22</ele>
        <time>2018-06-30T19:30:34.000Z</time>
      </trkpt>
      <trkpt lat="45.8976" lon="-0.88292">
        <ele>22</ele>
        <time>2018-06-30T19:30:35.000Z</time>
      </trkpt>
      <trkpt lat="45.8976" lon="-0.88292">
        <ele>22</ele>
        <time>2018-06-30T19:30:36.000Z</time>
      </trkpt>
      <trkpt lat="45.8976" lon="-0.88292">
        <ele>23</ele>
        <time>2018-06-30T19:30:37.000Z</time>
      </trkpt>
      <trkpt lat="45.8976" lon="-0.88291">
        <ele>22</ele>
        <time>2018-06-30T19:30:38.000Z</time>
      </trkpt>
      <trkpt lat="45.8976" lon="-0.88291">
        <ele>23</ele>
        <time>2018-06-30T19:30:39.000Z</time>
      </trkpt>
      <trkpt lat="45.8976" lon="-0.88292">
        <ele>23</ele>
        <time>2018-06-30T19:30:40.000Z</time>
      </trkpt>
      <trkpt lat="45.8976" lon="-0.88292">
        <ele>22</ele>
        <time>2018-06-30T19:30:41.000Z</time>
      </trkpt>
      <trkpt lat="45.8976" lon="-0.88292">
        <ele>22</ele>
        <time>2018-06-30T19:30:42.000Z</time>
      </trkpt>
      <trkpt lat="45.8976" lon="-0.88292">
        <ele>22</ele>
        <time>2018-06-30T19:30:43.000Z</time>
      </trkpt>
      <trkpt lat="45.8976" lon="-0.88292">
        <ele>22</ele>
        <time>2018-06-30T19:30:44.000Z</time>
      </trkpt>
      <trkpt lat="45.8976" lon="-0.88292">
        <ele>22</ele>
        <time>2018-06-30T19:30:45.000Z</time>
      </trkpt>
      <trkpt lat="45.8976" lon="-0.88292">
        <ele>22</ele>
        <time>2018-06-30T19:30:46.000Z</time>
      </trkpt>
      <trkpt lat="45.8976" lon="-0.88292">
        <ele>22</ele>
        <time>2018-06-30T19:30:47.000Z</time>
      </trkpt>
      <trkpt lat="45.89759" lon="-0.88292">
        <ele>23</ele>
        <time>2018-06-30T19:30:48.000Z</time>
      </trkpt>
      <trkpt lat="45.89759" lon="-0.88292">
        <ele>23</ele>
        <time>2018-06-30T19:30:49.000Z</time>
      </trkpt>
      <trkpt lat="45.89759" lon="-0.88292">
        <ele>23</ele>
        <time>2018-06-30T19:30:50.000Z</time>
      </trkpt>
      <trkpt lat="45.89759" lon="-0.88292">
        <ele>23</ele>
        <time>2018-06-30T19:30:51.000Z</time>
      </trkpt>
      <trkpt lat="45.89759" lon="-0.88292">
        <ele>23</ele>
        <time>2018-06-30T19:30:52.000Z</time>
      </trkpt>
      <trkpt lat="45.89759" lon="-0.88292">
        <ele>23</ele>
        <time>2018-06-30T19:30:53.000Z</time>
      </trkpt>
      <trkpt lat="45.89759" lon="-0.88292">
        <ele>23</ele>
        <time>2018-06-30T19:30:54.000Z</time>
      </trkpt>
      <trkpt lat="45.89759" lon="-0.88292">
        <ele>23</ele>
        <time>2018-06-30T19:30:55.000Z</time>
      </trkpt>
      <trkpt lat="45.89759" lon="-0.88291">
        <ele>23</ele>
        <time>2018-06-30T19:30:56.000Z</time>
      </trkpt>
      <trkpt lat="45.89759" lon="-0.88291">
        <ele>24</ele>
        <time>2018-06-30T19:30:57.000Z</time>
      </trkpt>
      <trkpt lat="45.89759" lon="-0.88291">
        <ele>24</ele>
        <time>2018-06-30T19:30:58.000Z</time>
      </trkpt>
      <trkpt lat="45.89759" lon="-0.88291">
        <ele>24</ele>
        <time>2018-06-30T19:30:59.000Z</time>
      </trkpt>
      <trkpt lat="45.89759" lon="-0.88291">
        <ele>24</ele>
        <time>2018-06-30T19:31:00.000Z</time>
      </trkpt>
      <trkpt lat="45.89759" lon="-0.88291">
        <ele>24</ele>
        <time>2018-06-30T19:31:01.000Z</time>
      </trkpt>
      <trkpt lat="45.89759" lon="-0.88291">
        <ele>24</ele>
        <time>2018-06-30T19:31:02.000Z</time>
      </trkpt>
      <trkpt lat="45.89759" lon="-0.88291">
        <ele>24</ele>
        <time>2018-06-30T19:31:03.000Z</time>
      </trkpt>
      <trkpt lat="45.89759" lon="-0.88291">
        <ele>24</ele>
        <time>2018-06-30T19:31:04.000Z</time>
      </trkpt>
      <trkpt lat="45.89759" lon="-0.88291">
        <ele>24</ele>
        <time>2018-06-30T19:31:05.000Z</time>
      </trkpt>
      <trkpt lat="45.89759" lon="-0.88291">
        <ele>24</ele>
        <time>2018-06-30T19:31:06.000Z</time>
      </trkpt>
      <trkpt lat="45.89759" lon="-0.88291">
        <ele>24</ele>
        <time>2018-06-30T19:31:07.000Z</time>
      </trkpt>
      <trkpt lat="45.89759" lon="-0.88291">
        <ele>24</ele>
        <time>2018-06-30T19:31:08.000Z</time>
      </trkpt>
      <trkpt lat="45.89759" lon="-0.88291">
        <ele>24</ele>
        <time>2018-06-30T19:31:09.000Z</time>
      </trkpt>
      <trkpt lat="45.89759" lon="-0.88291">
        <ele>24</ele>
        <time>2018-06-30T19:31:10.000Z</time>
      </trkpt>
      <trkpt lat="45.89759" lon="-0.88291">
        <ele>23</ele>
        <time>2018-06-30T19:31:11.000Z</time>
      </trkpt>
      <trkpt lat="45.89759" lon="-0.88291">
        <ele>24</ele>
        <time>2018-06-30T19:31:12.000Z</time>
      </trkpt>
      <trkpt lat="45.89759" lon="-0.88291">
        <ele>24</ele>
        <time>2018-06-30T19:31:13.000Z</time>
      </trkpt>
      <trkpt lat="45.89759" lon="-0.88291">
        <ele>24</ele>
        <time>2018-06-30T19:31:14.000Z</time>
      </trkpt>
      <trkpt lat="45.89759" lon="-0.88291">
        <ele>24</ele>
        <time>2018-06-30T19:31:15.000Z</time>
      </trkpt>
      <trkpt lat="45.89759" lon="-0.88291">
        <ele>24</ele>
        <time>2018-06-30T19:31:16.000Z</time>
      </trkpt>
      <trkpt lat="45.89759" lon="-0.88291">
        <ele>24</ele>
        <time>2018-06-30T19:31:17.000Z</time>
      </trkpt>
      <trkpt lat="45.89759" lon="-0.88291">
        <ele>24</ele>
        <time>2018-06-30T19:31:18.000Z</time>
      </trkpt>
      <trkpt lat="45.89759" lon="-0.8829">
        <ele>24</ele>
        <time>2018-06-30T19:31:19.000Z</time>
      </trkpt>
      <trkpt lat="45.89759" lon="-0.8829">
        <ele>24</ele>
        <time>2018-06-30T19:31:20.000Z</time>
      </trkpt>
      <trkpt lat="45.89759" lon="-0.8829">
        <ele>24</ele>
        <time>2018-06-30T19:31:21.000Z</time>
      </trkpt>
      <trkpt lat="45.89759" lon="-0.8829">
        <ele>24</ele>
        <time>2018-06-30T19:31:22.000Z</time>
      </trkpt>
      <trkpt lat="45.89759" lon="-0.8829">
        <ele>24</ele>
        <time>2018-06-30T19:31:23.000Z</time>
      </trkpt>
      <trkpt lat="45.89759" lon="-0.8829">
        <ele>24</ele>
        <time>2018-06-30T19:31:24.000Z</time>
      </trkpt>
      <trkpt lat="45.89759" lon="-0.8829">
        <ele>24</ele>
        <time>2018-06-30T19:31:25.000Z</time>
      </trkpt>
      <trkpt lat="45.89759" lon="-0.8829">
        <ele>24</ele>
        <time>2018-06-30T19:31:26.000Z</time>
      </trkpt>
      <trkpt lat="45.89759" lon="-0.8829">
        <ele>24</ele>
        <time>2018-06-30T19:31:27.000Z</time>
      </trkpt>
      <trkpt lat="45.89759" lon="-0.8829">
        <ele>24</ele>
        <time>2018-06-30T19:31:28.000Z</time>
      </trkpt>
      <trkpt lat="45.89759" lon="-0.8829">
        <ele>24</ele>
        <time>2018-06-30T19:31:29.000Z</time>
      </trkpt>
      <trkpt lat="45.89759" lon="-0.8829">
        <ele>24</ele>
        <time>2018-06-30T19:31:30.000Z</time>
      </trkpt>
      <trkpt lat="45.89759" lon="-0.8829">
        <ele>25</ele>
        <time>2018-06-30T19:31:31.000Z</time>
      </trkpt>
      <trkpt lat="45.89759" lon="-0.8829">
        <ele>25</ele>
        <time>2018-06-30T19:31:32.000Z</time>
      </trkpt>
      <trkpt lat="45.89759" lon="-0.8829">
        <ele>25</ele>
        <time>2018-06-30T19:31:33.000Z</time>
      </trkpt>
      <trkpt lat="45.89759" lon="-0.8829">
        <ele>25</ele>
        <time>2018-06-30T19:31:34.000Z</time>
      </trkpt>
      <trkpt lat="45.89759" lon="-0.8829">
        <ele>25</ele>
        <time>2018-06-30T19:31:35.000Z</time>
      </trkpt>
      <trkpt lat="45.89759" lon="-0.8829">
        <ele>25</ele>
        <time>2018-06-30T19:31:36.000Z</time>
      </trkpt>
      <trkpt lat="45.89759" lon="-0.8829">
        <ele>25</ele>
        <time>2018-06-30T19:31:37.000Z</time>
      </trkpt>
      <trkpt lat="45.89759" lon="-0.8829">
        <ele>25</ele>
        <time>2018-06-30T19:31:38.000Z</time>
      </trkpt>
      <trkpt lat="45.89759" lon="-0.8829">
        <ele>25</ele>
        <time>2018-06-30T19:31:39.000Z</time>
      </trkpt>
      <trkpt lat="45.89759" lon="-0.8829">
        <ele>25</ele>
        <time>2018-06-30T19:31:40.000Z</time>
      </trkpt>
      <trkpt lat="45.89759" lon="-0.8829">
        <ele>25</ele>
        <time>2018-06-30T19:31:41.000Z</time>
      </trkpt>
      <trkpt lat="45.89759" lon="-0.8829">
        <ele>25</ele>
        <time>2018-06-30T19:31:42.000Z</time>
      </trkpt>
      <trkpt lat="45.89759" lon="-0.8829">
        <ele>26</ele>
        <time>2018-06-30T19:31:43.000Z</time>
      </trkpt>
      <trkpt lat="45.89759" lon="-0.8829">
        <ele>25</ele>
        <time>2018-06-30T19:31:44.000Z</time>
      </trkpt>
      <trkpt lat="45.89759" lon="-0.8829">
        <ele>25</ele>
        <time>2018-06-30T19:31:45.000Z</time>
      </trkpt>
      <trkpt lat="45.89759" lon="-0.8829">
        <ele>25</ele>
        <time>2018-06-30T19:31:46.000Z</time>
      </trkpt>
      <trkpt lat="45.89758" lon="-0.88289">
        <ele>25</ele>
        <time>2018-06-30T19:31:47.000Z</time>
      </trkpt>
      <trkpt lat="45.89758" lon="-0.88289">
        <ele>26</ele>
        <time>2018-06-30T19:31:48.000Z</time>
      </trkpt>
      <trkpt lat="45.89758" lon="-0.88289">
        <ele>26</ele>
        <time>2018-06-30T19:31:49.000Z</time>
      </trkpt>
      <trkpt lat="45.89758" lon="-0.88289">
        <ele>26</ele>
        <time>2018-06-30T19:31:50.000Z</time>
      </trkpt>
      <trkpt lat="45.89758" lon="-0.88289">
        <ele>26</ele>
        <time>2018-06-30T19:31:51.000Z</time>
      </trkpt>
      <trkpt lat="45.89758" lon="-0.88289">
        <ele>26</ele>
        <time>2018-06-30T19:31:52.000Z</time>
      </trkpt>
      <trkpt lat="45.89758" lon="-0.88289">
        <ele>26</ele>
        <time>2018-06-30T19:31:53.000Z</time>
      </trkpt>
      <trkpt lat="45.89758" lon="-0.88289">
        <ele>26</ele>
        <time>2018-06-30T19:31:54.000Z</time>
      </trkpt>
      <trkpt lat="45.89758" lon="-0.88289">
        <ele>26</ele>
        <time>2018-06-30T19:31:55.000Z</time>
      </trkpt>
      <trkpt lat="45.89758" lon="-0.88289">
        <ele>26</ele>
        <time>2018-06-30T19:31:56.000Z</time>
      </trkpt>
      <trkpt lat="45.89758" lon="-0.88289">
        <ele>25</ele>
        <time>2018-06-30T19:31:57.000Z</time>
      </trkpt>
      <trkpt lat="45.89758" lon="-0.88289">
        <ele>26</ele>
        <time>2018-06-30T19:31:58.000Z</time>
      </trkpt>
      <trkpt lat="45.89758" lon="-0.88289">
        <ele>26</ele>
        <time>2018-06-30T19:31:59.000Z</time>
      </trkpt>
      <trkpt lat="45.89758" lon="-0.88289">
        <ele>26</ele>
        <time>2018-06-30T19:32:00.000Z</time>
      </trkpt>
      <trkpt lat="45.89758" lon="-0.88289">
        <ele>26</ele>
        <time>2018-06-30T19:32:01.000Z</time>
      </trkpt>
      <trkpt lat="45.89758" lon="-0.88289">
        <ele>26</ele>
        <time>2018-06-30T19:32:02.000Z</time>
      </trkpt>
      <trkpt lat="45.89758" lon="-0.88289">
        <ele>26</ele>
        <time>2018-06-30T19:32:03.000Z</time>
      </trkpt>
      <trkpt lat="45.89758" lon="-0.88289">
        <ele>26</ele>
        <time>2018-06-30T19:32:04.000Z</time>
      </trkpt>
      <trkpt lat="45.89758" lon="-0.88289">
        <ele>26</ele>
        <time>2018-06-30T19:32:05.000Z</time>
      </trkpt>
      <trkpt lat="45.89758" lon="-0.88289">
        <ele>26</ele>
        <time>2018-06-30T19:32:06.000Z</time>
      </trkpt>
      <trkpt lat="45.89758" lon="-0.88289">
        <ele>25</ele>
        <time>2018-06-30T19:32:07.000Z</time>
      </trkpt>
      <trkpt lat="45.89758" lon="-0.88289">
        <ele>25</ele>
        <time>2018-06-30T19:32:08.000Z</time>
      </trkpt>
      <trkpt lat="45.89758" lon="-0.88289">
        <ele>25</ele>
        <time>2018-06-30T19:32:09.000Z</time>
      </trkpt>
      <trkpt lat="45.89758" lon="-0.88289">
        <ele>26</ele>
        <time>2018-06-30T19:32:10.000Z</time>
      </trkpt>
      <trkpt lat="45.89758" lon="-0.88289">
        <ele>25</ele>
        <time>2018-06-30T19:32:11.000Z</time>
      </trkpt>
      <trkpt lat="45.89758" lon="-0.88289">
        <ele>25</ele>
        <time>2018-06-30T19:32:12.000Z</time>
      </trkpt>
      <trkpt lat="45.89758" lon="-0.88289">
        <ele>25</ele>
        <time>2018-06-30T19:32:13.000Z</time>
      </trkpt>
      <trkpt lat="45.89758" lon="-0.88289">
        <ele>25</ele>
        <time>2018-06-30T19:32:14.000Z</time>
      </trkpt>
      <trkpt lat="45.89758" lon="-0.88289">
        <ele>25</ele>
        <time>2018-06-30T19:32:15.000Z</time>
      </trkpt>
      <trkpt lat="45.89758" lon="-0.88289">
        <ele>25</ele>
        <time>2018-06-30T19:32:16.000Z</time>
      </trkpt>
      <trkpt lat="45.89759" lon="-0.8829">
        <ele>25</ele>
        <time>2018-06-30T19:32:17.000Z</time>
      </trkpt>
      <trkpt lat="45.89759" lon="-0.8829">
        <ele>25</ele>
        <time>2018-06-30T19:32:18.000Z</time>
      </trkpt>
      <trkpt lat="45.89759" lon="-0.8829">
        <ele>25</ele>
        <time>2018-06-30T19:32:19.000Z</time>
      </trkpt>
      <trkpt lat="45.89759" lon="-0.8829">
        <ele>24</ele>
        <time>2018-06-30T19:32:20.000Z</time>
      </trkpt>
      <trkpt lat="45.89759" lon="-0.8829">
        <ele>24</ele>
        <time>2018-06-30T19:32:21.000Z</time>
      </trkpt>
      <trkpt lat="45.89759" lon="-0.8829">
        <ele>24</ele>
        <time>2018-06-30T19:32:22.000Z</time>
      </trkpt>
      <trkpt lat="45.89759" lon="-0.8829">
        <ele>24</ele>
        <time>2018-06-30T19:32:23.000Z</time>
      </trkpt>
      <trkpt lat="45.89759" lon="-0.88291">
        <ele>24</ele>
        <time>2018-06-30T19:32:24.000Z</time>
      </trkpt>
      <trkpt lat="45.89759" lon="-0.88291">
        <ele>23</ele>
        <time>2018-06-30T19:32:25.000Z</time>
      </trkpt>
      <trkpt lat="45.89759" lon="-0.88291">
        <ele>23</ele>
        <time>2018-06-30T19:32:26.000Z</time>
      </trkpt>
      <trkpt lat="45.89759" lon="-0.88291">
        <ele>23</ele>
        <time>2018-06-30T19:32:27.000Z</time>
      </trkpt>
      <trkpt lat="45.89759" lon="-0.88291">
        <ele>23</ele>
        <time>2018-06-30T19:32:28.000Z</time>
      </trkpt>
      <trkpt lat="45.89759" lon="-0.88291">
        <ele>23</ele>
        <time>2018-06-30T19:32:29.000Z</time>
      </trkpt>
      <trkpt lat="45.89759" lon="-0.88291">
        <ele>23</ele>
        <time>2018-06-30T19:32:30.000Z</time>
      </trkpt>
      <trkpt lat="45.89759" lon="-0.88291">
        <ele>23</ele>
        <time>2018-06-30T19:32:31.000Z</time>
      </trkpt>
      <trkpt lat="45.89759" lon="-0.88291">
        <ele>23</ele>
        <time>2018-06-30T19:32:32.000Z</time>
      </trkpt>
      <trkpt lat="45.89759" lon="-0.88291">
        <ele>22</ele>
        <time>2018-06-30T19:32:33.000Z</time>
      </trkpt>
      <trkpt lat="45.89759" lon="-0.88291">
        <ele>22</ele>
        <time>2018-06-30T19:32:34.000Z</time>
      </trkpt>
      <trkpt lat="45.89759" lon="-0.88291">
        <ele>22</ele>
        <time>2018-06-30T19:32:35.000Z</time>
      </trkpt>
      <trkpt lat="45.89759" lon="-0.88291">
        <ele>22</ele>
        <time>2018-06-30T19:32:36.000Z</time>
      </trkpt>
      <trkpt lat="45.89759" lon="-0.88291">
        <ele>22</ele>
        <time>2018-06-30T19:32:37.000Z</time>
      </trkpt>
      <trkpt lat="45.89759" lon="-0.88292">
        <ele>22</ele>
        <time>2018-06-30T19:32:38.000Z</time>
      </trkpt>
      <trkpt lat="45.89759" lon="-0.88292">
        <ele>22</ele>
        <time>2018-06-30T19:32:39.000Z</time>
      </trkpt>
      <trkpt lat="45.89759" lon="-0.88292">
        <ele>22</ele>
        <time>2018-06-30T19:32:40.000Z</time>
      </trkpt>
      <trkpt lat="45.89759" lon="-0.88292">
        <ele>22</ele>
        <time>2018-06-30T19:32:41.000Z</time>
      </trkpt>
      <trkpt lat="45.89759" lon="-0.88292">
        <ele>22</ele>
        <time>2018-06-30T19:32:42.000Z</time>
      </trkpt>
      <trkpt lat="45.89759" lon="-0.88292">
        <ele>23</ele>
        <time>2018-06-30T19:32:43.000Z</time>
      </trkpt>
      <trkpt lat="45.89759" lon="-0.88292">
        <ele>23</ele>
        <time>2018-06-30T19:32:44.000Z</time>
      </trkpt>
      <trkpt lat="45.89759" lon="-0.88292">
        <ele>23</ele>
        <time>2018-06-30T19:32:45.000Z</time>
      </trkpt>
      <trkpt lat="45.89759" lon="-0.88292">
        <ele>23</ele>
        <time>2018-06-30T19:32:46.000Z</time>
      </trkpt>
      <trkpt lat="45.89759" lon="-0.88291">
        <ele>23</ele>
        <time>2018-06-30T19:32:47.000Z</time>
      </trkpt>
      <trkpt lat="45.89759" lon="-0.88291">
        <ele>23</ele>
        <time>2018-06-30T19:32:48.000Z</time>
      </trkpt>
      <trkpt lat="45.89759" lon="-0.88291">
        <ele>23</ele>
        <time>2018-06-30T19:32:49.000Z</time>
      </trkpt>
      <trkpt lat="45.89759" lon="-0.88291">
        <ele>23</ele>
        <time>2018-06-30T19:32:50.000Z</time>
      </trkpt>
      <trkpt lat="45.89759" lon="-0.88291">
        <ele>24</ele>
        <time>2018-06-30T19:32:51.000Z</time>
      </trkpt>
      <trkpt lat="45.89759" lon="-0.88291">
        <ele>23</ele>
        <time>2018-06-30T19:32:52.000Z</time>
      </trkpt>
      <trkpt lat="45.8976" lon="-0.88292">
        <ele>23</ele>
        <time>2018-06-30T19:32:53.000Z</time>
      </trkpt>
      <trkpt lat="45.8976" lon="-0.88293">
        <ele>23</ele>
        <time>2018-06-30T19:32:54.000Z</time>
      </trkpt>
      <trkpt lat="45.89761" lon="-0.88293">
        <ele>23</ele>
        <time>2018-06-30T19:32:55.000Z</time>
      </trkpt>
      <trkpt lat="45.89762" lon="-0.88294">
        <ele>23</ele>
        <time>2018-06-30T19:32:56.000Z</time>
      </trkpt>
      <trkpt lat="45.89763" lon="-0.88295">
        <ele>23</ele>
        <time>2018-06-30T19:32:57.000Z</time>
      </trkpt>
      <trkpt lat="45.89763" lon="-0.88296">
        <ele>24</ele>
        <time>2018-06-30T19:32:58.000Z</time>
      </trkpt>
      <trkpt lat="45.89764" lon="-0.88297">
        <ele>24</ele>
        <time>2018-06-30T19:32:59.000Z</time>
      </trkpt>
      <trkpt lat="45.89765" lon="-0.88297">
        <ele>24</ele>
        <time>2018-06-30T19:33:00.000Z</time>
      </trkpt>
      <trkpt lat="45.89765" lon="-0.88298">
        <ele>24</ele>
        <time>2018-06-30T19:33:01.000Z</time>
      </trkpt>
      <trkpt lat="45.89766" lon="-0.88298">
        <ele>24</ele>
        <time>2018-06-30T19:33:02.000Z</time>
      </trkpt>
      <trkpt lat="45.89766" lon="-0.88298">
        <ele>24</ele>
        <time>2018-06-30T19:33:03.000Z</time>
      </trkpt>
      <trkpt lat="45.89766" lon="-0.88298">
        <ele>24</ele>
        <time>2018-06-30T19:33:04.000Z</time>
      </trkpt>
      <trkpt lat="45.89766" lon="-0.88298">
        <ele>24</ele>
        <time>2018-06-30T19:33:05.000Z</time>
      </trkpt>
      <trkpt lat="45.89766" lon="-0.88298">
        <ele>24</ele>
        <time>2018-06-30T19:33:06.000Z</time>
      </trkpt>
      <trkpt lat="45.89766" lon="-0.88299">
        <ele>24</ele>
        <time>2018-06-30T19:33:07.000Z</time>
      </trkpt>
      <trkpt lat="45.89766" lon="-0.88299">
        <ele>24</ele>
        <time>2018-06-30T19:33:08.000Z</time>
      </trkpt>
      <trkpt lat="45.89766" lon="-0.88299">
        <ele>24</ele>
        <time>2018-06-30T19:33:09.000Z</time>
      </trkpt>
      <trkpt lat="45.89766" lon="-0.88299">
        <ele>25</ele>
        <time>2018-06-30T19:33:10.000Z</time>
      </trkpt>
      <trkpt lat="45.89766" lon="-0.88299">
        <ele>25</ele>
        <time>2018-06-30T19:33:11.000Z</time>
      </trkpt>
      <trkpt lat="45.89766" lon="-0.88299">
        <ele>25</ele>
        <time>2018-06-30T19:33:12.000Z</time>
      </trkpt>
      <trkpt lat="45.89767" lon="-0.88299">
        <ele>25</ele>
        <time>2018-06-30T19:33:13.000Z</time>
      </trkpt>
      <trkpt lat="45.89767" lon="-0.88299">
        <ele>25</ele>
        <time>2018-06-30T19:33:14.000Z</time>
      </trkpt>
      <trkpt lat="45.89767" lon="-0.88299">
        <ele>26</ele>
        <time>2018-06-30T19:33:15.000Z</time>
      </trkpt>
      <trkpt lat="45.89767" lon="-0.88299">
        <ele>26</ele>
        <time>2018-06-30T19:33:16.000Z</time>
      </trkpt>
      <trkpt lat="45.89767" lon="-0.88298">
        <ele>27</ele>
        <time>2018-06-30T19:33:17.000Z</time>
      </trkpt>
      <trkpt lat="45.89767" lon="-0.88298">
        <ele>27</ele>
        <time>2018-06-30T19:33:18.000Z</time>
      </trkpt>
      <trkpt lat="45.89766" lon="-0.88298">
        <ele>27</ele>
        <time>2018-06-30T19:33:19.000Z</time>
      </trkpt>
      <trkpt lat="45.89766" lon="-0.88298">
        <ele>27</ele>
        <time>2018-06-30T19:33:20.000Z</time>
      </trkpt>
      <trkpt lat="45.89766" lon="-0.88298">
        <ele>27</ele>
        <time>2018-06-30T19:33:21.000Z</time>
      </trkpt>
      <trkpt lat="45.89766" lon="-0.88298">
        <ele>27</ele>
        <time>2018-06-30T19:33:22.000Z</time>
      </trkpt>
      <trkpt lat="45.89766" lon="-0.88298">
        <ele>27</ele>
        <time>2018-06-30T19:33:23.000Z</time>
      </trkpt>
      <trkpt lat="45.89766" lon="-0.88298">
        <ele>27</ele>
        <time>2018-06-30T19:33:24.000Z</time>
      </trkpt>
      <trkpt lat="45.89766" lon="-0.88298">
        <ele>27</ele>
        <time>2018-06-30T19:33:25.000Z</time>
      </trkpt>
      <trkpt lat="45.89766" lon="-0.88298">
        <ele>28</ele>
        <time>2018-06-30T19:33:26.000Z</time>
      </trkpt>
      <trkpt lat="45.89766" lon="-0.88298">
        <ele>27</ele>
        <time>2018-06-30T19:33:27.000Z</time>
      </trkpt>
      <trkpt lat="45.89766" lon="-0.88298">
        <ele>27</ele>
        <time>2018-06-30T19:33:28.000Z</time>
      </trkpt>
      <trkpt lat="45.89766" lon="-0.88298">
        <ele>27</ele>
        <time>2018-06-30T19:33:29.000Z</time>
      </trkpt>
      <trkpt lat="45.89766" lon="-0.88298">
        <ele>27</ele>
        <time>2018-06-30T19:33:30.000Z</time>
      </trkpt>
      <trkpt lat="45.89766" lon="-0.88298">
        <ele>27</ele>
        <time>2018-06-30T19:33:31.000Z</time>
      </trkpt>
      <trkpt lat="45.89766" lon="-0.88298">
        <ele>27</ele>
        <time>2018-06-30T19:33:32.000Z</time>
      </trkpt>
      <trkpt lat="45.89766" lon="-0.88298">
        <ele>27</ele>
        <time>2018-06-30T19:33:33.000Z</time>
      </trkpt>
      <trkpt lat="45.89766" lon="-0.88298">
        <ele>27</ele>
        <time>2018-06-30T19:33:34.000Z</time>
      </trkpt>
      <trkpt lat="45.89766" lon="-0.88298">
        <ele>27</ele>
        <time>2018-06-30T19:33:35.000Z</time>
      </trkpt>
      <trkpt lat="45.89766" lon="-0.88297">
        <ele>27</ele>
        <time>2018-06-30T19:33:36.000Z</time>
      </trkpt>
      <trkpt lat="45.89766" lon="-0.88297">
        <ele>26</ele>
        <time>2018-06-30T19:33:37.000Z</time>
      </trkpt>
      <trkpt lat="45.89766" lon="-0.88297">
        <ele>27</ele>
        <time>2018-06-30T19:33:38.000Z</time>
      </trkpt>
      <trkpt lat="45.89766" lon="-0.88297">
        <ele>26</ele>
        <time>2018-06-30T19:33:39.000Z</time>
      </trkpt>
      <trkpt lat="45.89766" lon="-0.88297">
        <ele>26</ele>
        <time>2018-06-30T19:33:40.000Z</time>
      </trkpt>
      <trkpt lat="45.89766" lon="-0.88297">
        <ele>26</ele>
        <time>2018-06-30T19:33:41.000Z</time>
      </trkpt>
      <trkpt lat="45.89766" lon="-0.88297">
        <ele>25</ele>
        <time>2018-06-30T19:33:42.000Z</time>
      </trkpt>
      <trkpt lat="45.89766" lon="-0.88297">
        <ele>25</ele>
        <time>2018-06-30T19:33:43.000Z</time>
      </trkpt>
      <trkpt lat="45.89766" lon="-0.88296">
        <ele>25</ele>
        <time>2018-06-30T19:33:44.000Z</time>
      </trkpt>
      <trkpt lat="45.89765" lon="-0.88295">
        <ele>25</ele>
        <time>2018-06-30T19:33:45.000Z</time>
      </trkpt>
      <trkpt lat="45.89764" lon="-0.88294">
        <ele>25</ele>
        <time>2018-06-30T19:33:46.000Z</time>
      </trkpt>
      <trkpt lat="45.89764" lon="-0.88293">
        <ele>24</ele>
        <time>2018-06-30T19:33:47.000Z</time>
      </trkpt>
      <trkpt lat="45.89763" lon="-0.88293">
        <ele>24</ele>
        <time>2018-06-30T19:33:48.000Z</time>
      </trkpt>
      <trkpt lat="45.89762" lon="-0.88292">
        <ele>24</ele>
        <time>2018-06-30T19:33:49.000Z</time>
      </trkpt>
      <trkpt lat="45.89761" lon="-0.88291">
        <ele>24</ele>
        <time>2018-06-30T19:33:50.000Z</time>
      </trkpt>
      <trkpt lat="45.89761" lon="-0.8829">
        <ele>24</ele>
        <time>2018-06-30T19:33:51.000Z</time>
      </trkpt>
      <trkpt lat="45.8976" lon="-0.88289">
        <ele>25</ele>
        <time>2018-06-30T19:33:52.000Z</time>
      </trkpt>
      <trkpt lat="45.89759" lon="-0.88288">
        <ele>25</ele>
        <time>2018-06-30T19:33:53.000Z</time>
      </trkpt>
      <trkpt lat="45.89759" lon="-0.88288">
        <ele>24</ele>
        <time>2018-06-30T19:33:54.000Z</time>
      </trkpt>
      <trkpt lat="45.89759" lon="-0.88288">
        <ele>25</ele>
        <time>2018-06-30T19:33:55.000Z</time>
      </trkpt>
      <trkpt lat="45.89759" lon="-0.88288">
        <ele>25</ele>
        <time>2018-06-30T19:33:56.000Z</time>
      </trkpt>
      <trkpt lat="45.89759" lon="-0.88287">
        <ele>25</ele>
        <time>2018-06-30T19:33:57.000Z</time>
      </trkpt>
      <trkpt lat="45.89759" lon="-0.88287">
        <ele>25</ele>
        <time>2018-06-30T19:33:58.000Z</time>
      </trkpt>
      <trkpt lat="45.89759" lon="-0.88287">
        <ele>25</ele>
        <time>2018-06-30T19:33:59.000Z</time>
      </trkpt>
      <trkpt lat="45.89759" lon="-0.88287">
        <ele>25</ele>
        <time>2018-06-30T19:34:00.000Z</time>
      </trkpt>
      <trkpt lat="45.89759" lon="-0.88288">
        <ele>25</ele>
        <time>2018-06-30T19:34:01.000Z</time>
      </trkpt>
      <trkpt lat="45.89759" lon="-0.88288">
        <ele>25</ele>
        <time>2018-06-30T19:34:02.000Z</time>
      </trkpt>
      <trkpt lat="45.89759" lon="-0.88288">
        <ele>25</ele>
        <time>2018-06-30T19:34:03.000Z</time>
      </trkpt>
      <trkpt lat="45.89759" lon="-0.88288">
        <ele>24</ele>
        <time>2018-06-30T19:34:04.000Z</time>
      </trkpt>
      <trkpt lat="45.89759" lon="-0.88288">
        <ele>25</ele>
        <time>2018-06-30T19:34:05.000Z</time>
      </trkpt>
      <trkpt lat="45.89759" lon="-0.88288">
        <ele>25</ele>
        <time>2018-06-30T19:34:06.000Z</time>
      </trkpt>
      <trkpt lat="45.89759" lon="-0.88288">
        <ele>25</ele>
        <time>2018-06-30T19:34:07.000Z</time>
      </trkpt>
      <trkpt lat="45.89759" lon="-0.88288">
        <ele>25</ele>
        <time>2018-06-30T19:34:08.000Z</time>
      </trkpt>
      <trkpt lat="45.89759" lon="-0.88288">
        <ele>24</ele>
        <time>2018-06-30T19:34:09.000Z</time>
      </trkpt>
      <trkpt lat="45.89759" lon="-0.88288">
        <ele>24</ele>
        <time>2018-06-30T19:34:10.000Z</time>
      </trkpt>
      <trkpt lat="45.89759" lon="-0.88288">
        <ele>24</ele>
        <time>2018-06-30T19:34:11.000Z</time>
      </trkpt>
      <trkpt lat="45.89759" lon="-0.88288">
        <ele>24</ele>
        <time>2018-06-30T19:34:12.000Z</time>
      </trkpt>
      <trkpt lat="45.89759" lon="-0.88288">
        <ele>24</ele>
        <time>2018-06-30T19:34:13.000Z</time>
      </trkpt>
      <trkpt lat="45.89759" lon="-0.88288">
        <ele>24</ele>
        <time>2018-06-30T19:34:14.000Z</time>
      </trkpt>
      <trkpt lat="45.89759" lon="-0.88289">
        <ele>24</ele>
        <time>2018-06-30T19:34:15.000Z</time>
      </trkpt>
      <trkpt lat="45.89759" lon="-0.88289">
        <ele>24</ele>
        <time>2018-06-30T19:34:16.000Z</time>
      </trkpt>
      <trkpt lat="45.89759" lon="-0.88289">
        <ele>24</ele>
        <time>2018-06-30T19:34:17.000Z</time>
      </trkpt>
      <trkpt lat="45.89759" lon="-0.88288">
        <ele>24</ele>
        <time>2018-06-30T19:34:18.000Z</time>
      </trkpt>
      <trkpt lat="45.89759" lon="-0.88288">
        <ele>24</ele>
        <time>2018-06-30T19:34:19.000Z</time>
      </trkpt>
      <trkpt lat="45.89759" lon="-0.88289">
        <ele>24</ele>
        <time>2018-06-30T19:34:20.000Z</time>
      </trkpt>
      <trkpt lat="45.89759" lon="-0.88289">
        <ele>23</ele>
        <time>2018-06-30T19:34:21.000Z</time>
      </trkpt>
      <trkpt lat="45.89759" lon="-0.88289">
        <ele>23</ele>
        <time>2018-06-30T19:34:22.000Z</time>
      </trkpt>
      <trkpt lat="45.89759" lon="-0.88289">
        <ele>23</ele>
        <time>2018-06-30T19:34:23.000Z</time>
      </trkpt>
      <trkpt lat="45.89759" lon="-0.88289">
        <ele>23</ele>
        <time>2018-06-30T19:34:24.000Z</time>
      </trkpt>
      <trkpt lat="45.89759" lon="-0.88289">
        <ele>23</ele>
        <time>2018-06-30T19:34:25.000Z</time>
      </trkpt>
      <trkpt lat="45.89758" lon="-0.88289">
        <ele>24</ele>
        <time>2018-06-30T19:34:26.000Z</time>
      </trkpt>
      <trkpt lat="45.89758" lon="-0.88289">
        <ele>24</ele>
        <time>2018-06-30T19:34:27.000Z</time>
      </trkpt>
      <trkpt lat="45.89758" lon="-0.88289">
        <ele>24</ele>
        <time>2018-06-30T19:34:28.000Z</time>
      </trkpt>
      <trkpt lat="45.89758" lon="-0.88289">
        <ele>25</ele>
        <time>2018-06-30T19:34:29.000Z</time>
      </trkpt>
      <trkpt lat="45.89759" lon="-0.88289">
        <ele>25</ele>
        <time>2018-06-30T19:34:30.000Z</time>
      </trkpt>
      <trkpt lat="45.89759" lon="-0.88289">
        <ele>25</ele>
        <time>2018-06-30T19:34:31.000Z</time>
      </trkpt>
      <trkpt lat="45.89759" lon="-0.88289">
        <ele>26</ele>
        <time>2018-06-30T19:34:32.000Z</time>
      </trkpt>
      <trkpt lat="45.89759" lon="-0.88289">
        <ele>25</ele>
        <time>2018-06-30T19:34:33.000Z</time>
      </trkpt>
      <trkpt lat="45.89759" lon="-0.88289">
        <ele>25</ele>
        <time>2018-06-30T19:34:34.000Z</time>
      </trkpt>
      <trkpt lat="45.89759" lon="-0.88289">
        <ele>25</ele>
        <time>2018-06-30T19:34:35.000Z</time>
      </trkpt>
      <trkpt lat="45.89759" lon="-0.88289">
        <ele>25</ele>
        <time>2018-06-30T19:34:36.000Z</time>
      </trkpt>
      <trkpt lat="45.89759" lon="-0.88289">
        <ele>25</ele>
        <time>2018-06-30T19:34:37.000Z</time>
      </trkpt>
      <trkpt lat="45.89759" lon="-0.88289">
        <ele>25</ele>
        <time>2018-06-30T19:34:38.000Z</time>
      </trkpt>
      <trkpt lat="45.89759" lon="-0.88289">
        <ele>25</ele>
        <time>2018-06-30T19:34:39.000Z</time>
      </trkpt>
      <trkpt lat="45.89759" lon="-0.88289">
        <ele>25</ele>
        <time>2018-06-30T19:34:40.000Z</time>
      </trkpt>
      <trkpt lat="45.89759" lon="-0.88289">
        <ele>26</ele>
        <time>2018-06-30T19:34:41.000Z</time>
      </trkpt>
      <trkpt lat="45.89759" lon="-0.88289">
        <ele>25</ele>
        <time>2018-06-30T19:34:42.000Z</time>
      </trkpt>
      <trkpt lat="45.89759" lon="-0.88289">
        <ele>25</ele>
        <time>2018-06-30T19:34:43.000Z</time>
      </trkpt>
      <trkpt lat="45.89759" lon="-0.88289">
        <ele>25</ele>
        <time>2018-06-30T19:34:44.000Z</time>
      </trkpt>
      <trkpt lat="45.89759" lon="-0.88289">
        <ele>26</ele>
        <time>2018-06-30T19:34:45.000Z</time>
      </trkpt>
      <trkpt lat="45.89759" lon="-0.88289">
        <ele>25</ele>
        <time>2018-06-30T19:34:46.000Z</time>
      </trkpt>
      <trkpt lat="45.89759" lon="-0.88289">
        <ele>25</ele>
        <time>2018-06-30T19:34:47.000Z</time>
      </trkpt>
      <trkpt lat="45.89759" lon="-0.88289">
        <ele>25</ele>
        <time>2018-06-30T19:34:48.000Z</time>
      </trkpt>
      <trkpt lat="45.8976" lon="-0.8829">
        <ele>25</ele>
        <time>2018-06-30T19:34:49.000Z</time>
      </trkpt>
      <trkpt lat="45.8976" lon="-0.8829">
        <ele>25</ele>
        <time>2018-06-30T19:34:50.000Z</time>
      </trkpt>
      <trkpt lat="45.8976" lon="-0.8829">
        <ele>25</ele>
        <time>2018-06-30T19:34:51.000Z</time>
      </trkpt>
      <trkpt lat="45.8976" lon="-0.8829">
        <ele>25</ele>
        <time>2018-06-30T19:34:52.000Z</time>
      </trkpt>
      <trkpt lat="45.8976" lon="-0.8829">
        <ele>25</ele>
        <time>2018-06-30T19:34:53.000Z</time>
      </trkpt>
      <trkpt lat="45.8976" lon="-0.8829">
        <ele>25</ele>
        <time>2018-06-30T19:34:54.000Z</time>
      </trkpt>
      <trkpt lat="45.8976" lon="-0.8829">
        <ele>25</ele>
        <time>2018-06-30T19:34:55.000Z</time>
      </trkpt>
      <trkpt lat="45.8976" lon="-0.8829">
        <ele>25</ele>
        <time>2018-06-30T19:34:56.000Z</time>
      </trkpt>
      <trkpt lat="45.8976" lon="-0.8829">
        <ele>25</ele>
        <time>2018-06-30T19:34:57.000Z</time>
      </trkpt>
      <trkpt lat="45.8976" lon="-0.8829">
        <ele>25</ele>
        <time>2018-06-30T19:34:58.000Z</time>
      </trkpt>
      <trkpt lat="45.8976" lon="-0.8829">
        <ele>25</ele>
        <time>2018-06-30T19:34:59.000Z</time>
      </trkpt>
      <trkpt lat="45.8976" lon="-0.8829">
        <ele>25</ele>
        <time>2018-06-30T19:35:00.000Z</time>
      </trkpt>
      <trkpt lat="45.8976" lon="-0.8829">
        <ele>25</ele>
        <time>2018-06-30T19:35:01.000Z</time>
      </trkpt>
      <trkpt lat="45.8976" lon="-0.8829">
        <ele>26</ele>
        <time>2018-06-30T19:35:02.000Z</time>
      </trkpt>
      <trkpt lat="45.8976" lon="-0.8829">
        <ele>26</ele>
        <time>2018-06-30T19:35:03.000Z</time>
      </trkpt>
      <trkpt lat="45.89759" lon="-0.8829">
        <ele>26</ele>
        <time>2018-06-30T19:35:04.000Z</time>
      </trkpt>
      <trkpt lat="45.89759" lon="-0.8829">
        <ele>26</ele>
        <time>2018-06-30T19:35:05.000Z</time>
      </trkpt>
      <trkpt lat="45.89759" lon="-0.8829">
        <ele>26</ele>
        <time>2018-06-30T19:35:06.000Z</time>
      </trkpt>
      <trkpt lat="45.89759" lon="-0.8829">
        <ele>26</ele>
        <time>2018-06-30T19:35:07.000Z</time>
      </trkpt>
      <trkpt lat="45.89759" lon="-0.8829">
        <ele>26</ele>
        <time>2018-06-30T19:35:08.000Z</time>
      </trkpt>
      <trkpt lat="45.89759" lon="-0.8829">
        <ele>26</ele>
        <time>2018-06-30T19:35:09.000Z</time>
      </trkpt>
      <trkpt lat="45.89759" lon="-0.8829">
        <ele>26</ele>
        <time>2018-06-30T19:35:10.000Z</time>
      </trkpt>
      <trkpt lat="45.89759" lon="-0.8829">
        <ele>26</ele>
        <time>2018-06-30T19:35:11.000Z</time>
      </trkpt>
      <trkpt lat="45.89759" lon="-0.8829">
        <ele>26</ele>
        <time>2018-06-30T19:35:12.000Z</time>
      </trkpt>
      <trkpt lat="45.89759" lon="-0.8829">
        <ele>26</ele>
        <time>2018-06-30T19:35:13.000Z</time>
      </trkpt>
      <trkpt lat="45.89759" lon="-0.8829">
        <ele>26</ele>
        <time>2018-06-30T19:35:14.000Z</time>
      </trkpt>
      <trkpt lat="45.89759" lon="-0.8829">
        <ele>26</ele>
        <time>2018-06-30T19:35:15.000Z</time>
      </trkpt>
      <trkpt lat="45.89759" lon="-0.8829">
        <ele>26</ele>
        <time>2018-06-30T19:35:16.000Z</time>
      </trkpt>
      <trkpt lat="45.89759" lon="-0.8829">
        <ele>26</ele>
        <time>2018-06-30T19:35:17.000Z</time>
      </trkpt>
      <trkpt lat="45.89759" lon="-0.8829">
        <ele>26</ele>
        <time>2018-06-30T19:35:18.000Z</time>
      </trkpt>
      <trkpt lat="45.89759" lon="-0.8829">
        <ele>27</ele>
        <time>2018-06-30T19:35:19.000Z</time>
      </trkpt>
      <trkpt lat="45.89759" lon="-0.88291">
        <ele>27</ele>
        <time>2018-06-30T19:35:20.000Z</time>
      </trkpt>
      <trkpt lat="45.89759" lon="-0.88291">
        <ele>27</ele>
        <time>2018-06-30T19:35:21.000Z</time>
      </trkpt>
      <trkpt lat="45.89759" lon="-0.88291">
        <ele>27</ele>
        <time>2018-06-30T19:35:22.000Z</time>
      </trkpt>
      <trkpt lat="45.89759" lon="-0.88291">
        <ele>27</ele>
        <time>2018-06-30T19:35:23.000Z</time>
      </trkpt>
      <trkpt lat="45.89759" lon="-0.88291">
        <ele>27</ele>
        <time>2018-06-30T19:35:24.000Z</time>
      </trkpt>
      <trkpt lat="45.89759" lon="-0.88291">
        <ele>27</ele>
        <time>2018-06-30T19:35:25.000Z</time>
      </trkpt>
      <trkpt lat="45.89759" lon="-0.88291">
        <ele>27</ele>
        <time>2018-06-30T19:35:26.000Z</time>
      </trkpt>
      <trkpt lat="45.89759" lon="-0.8829">
        <ele>27</ele>
        <time>2018-06-30T19:35:27.000Z</time>
      </trkpt>
      <trkpt lat="45.89759" lon="-0.8829">
        <ele>27</ele>
        <time>2018-06-30T19:35:28.000Z</time>
      </trkpt>
      <trkpt lat="45.89759" lon="-0.8829">
        <ele>27</ele>
        <time>2018-06-30T19:35:29.000Z</time>
      </trkpt>
      <trkpt lat="45.89759" lon="-0.8829">
        <ele>26</ele>
        <time>2018-06-30T19:35:30.000Z</time>
      </trkpt>
      <trkpt lat="45.89759" lon="-0.8829">
        <ele>26</ele>
        <time>2018-06-30T19:35:31.000Z</time>
      </trkpt>
      <trkpt lat="45.89759" lon="-0.8829">
        <ele>26</ele>
        <time>2018-06-30T19:35:32.000Z</time>
      </trkpt>
      <trkpt lat="45.89759" lon="-0.8829">
        <ele>26</ele>
        <time>2018-06-30T19:35:33.000Z</time>
      </trkpt>
      <trkpt lat="45.89759" lon="-0.8829">
        <ele>26</ele>
        <time>2018-06-30T19:35:34.000Z</time>
      </trkpt>
      <trkpt lat="45.89759" lon="-0.8829">
        <ele>27</ele>
        <time>2018-06-30T19:35:35.000Z</time>
      </trkpt>
      <trkpt lat="45.89759" lon="-0.8829">
        <ele>27</ele>
        <time>2018-06-30T19:35:36.000Z</time>
      </trkpt>
      <trkpt lat="45.89759" lon="-0.88289">
        <ele>27</ele>
        <time>2018-06-30T19:35:37.000Z</time>
      </trkpt>
      <trkpt lat="45.89759" lon="-0.88289">
        <ele>27</ele>
        <time>2018-06-30T19:35:38.000Z</time>
      </trkpt>
      <trkpt lat="45.89759" lon="-0.88289">
        <ele>28</ele>
        <time>2018-06-30T19:35:39.000Z</time>
      </trkpt>
      <trkpt lat="45.89759" lon="-0.88289">
        <ele>28</ele>
        <time>2018-06-30T19:35:40.000Z</time>
      </trkpt>
      <trkpt lat="45.89759" lon="-0.88289">
        <ele>28</ele>
        <time>2018-06-30T19:35:41.000Z</time>
      </trkpt>
      <trkpt lat="45.89759" lon="-0.88289">
        <ele>27</ele>
        <time>2018-06-30T19:35:42.000Z</time>
      </trkpt>
      <trkpt lat="45.89759" lon="-0.88289">
        <ele>27</ele>
        <time>2018-06-30T19:35:43.000Z</time>
      </trkpt>
      <trkpt lat="45.89759" lon="-0.88289">
        <ele>28</ele>
        <time>2018-06-30T19:35:44.000Z</time>
      </trkpt>
      <trkpt lat="45.89759" lon="-0.88289">
        <ele>28</ele>
        <time>2018-06-30T19:35:45.000Z</time>
      </trkpt>
      <trkpt lat="45.89759" lon="-0.88289">
        <ele>28</ele>
        <time>2018-06-30T19:35:46.000Z</time>
      </trkpt>
      <trkpt lat="45.89759" lon="-0.88289">
        <ele>28</ele>
        <time>2018-06-30T19:35:47.000Z</time>
      </trkpt>
      <trkpt lat="45.89759" lon="-0.88289">
        <ele>28</ele>
        <time>2018-06-30T19:35:48.000Z</time>
      </trkpt>
      <trkpt lat="45.89759" lon="-0.88289">
        <ele>27</ele>
        <time>2018-06-30T19:35:49.000Z</time>
      </trkpt>
      <trkpt lat="45.89759" lon="-0.88289">
        <ele>28</ele>
        <time>2018-06-30T19:35:50.000Z</time>
      </trkpt>
      <trkpt lat="45.89759" lon="-0.88289">
        <ele>28</ele>
        <time>2018-06-30T19:35:51.000Z</time>
      </trkpt>
      <trkpt lat="45.89759" lon="-0.88289">
        <ele>28</ele>
        <time>2018-06-30T19:35:52.000Z</time>
      </trkpt>
      <trkpt lat="45.89759" lon="-0.88289">
        <ele>28</ele>
        <time>2018-06-30T19:35:53.000Z</time>
      </trkpt>
      <trkpt lat="45.89759" lon="-0.88289">
        <ele>28</ele>
        <time>2018-06-30T19:35:54.000Z</time>
      </trkpt>
      <trkpt lat="45.89759" lon="-0.88289">
        <ele>27</ele>
        <time>2018-06-30T19:35:55.000Z</time>
      </trkpt>
      <trkpt lat="45.89759" lon="-0.88289">
        <ele>27</ele>
        <time>2018-06-30T19:35:56.000Z</time>
      </trkpt>
      <trkpt lat="45.89759" lon="-0.88289">
        <ele>27</ele>
        <time>2018-06-30T19:35:57.000Z</time>
      </trkpt>
      <trkpt lat="45.8976" lon="-0.88289">
        <ele>26</ele>
        <time>2018-06-30T19:35:58.000Z</time>
      </trkpt>
      <trkpt lat="45.8976" lon="-0.88289">
        <ele>26</ele>
        <time>2018-06-30T19:35:59.000Z</time>
      </trkpt>
      <trkpt lat="45.8976" lon="-0.88289">
        <ele>26</ele>
        <time>2018-06-30T19:36:00.000Z</time>
      </trkpt>
      <trkpt lat="45.8976" lon="-0.88289">
        <ele>26</ele>
        <time>2018-06-30T19:36:01.000Z</time>
      </trkpt>
      <trkpt lat="45.8976" lon="-0.88289">
        <ele>26</ele>
        <time>2018-06-30T19:36:02.000Z</time>
      </trkpt>
      <trkpt lat="45.8976" lon="-0.88289">
        <ele>26</ele>
        <time>2018-06-30T19:36:03.000Z</time>
      </trkpt>
      <trkpt lat="45.89759" lon="-0.88289">
        <ele>26</ele>
        <time>2018-06-30T19:36:04.000Z</time>
      </trkpt>
      <trkpt lat="45.89759" lon="-0.88289">
        <ele>26</ele>
        <time>2018-06-30T19:36:05.000Z</time>
      </trkpt>
      <trkpt lat="45.89759" lon="-0.88289">
        <ele>26</ele>
        <time>2018-06-30T19:36:06.000Z</time>
      </trkpt>
      <trkpt lat="45.89759" lon="-0.88289">
        <ele>26</ele>
        <time>2018-06-30T19:36:07.000Z</time>
      </trkpt>
      <trkpt lat="45.89759" lon="-0.88289">
        <ele>26</ele>
        <time>2018-06-30T19:36:08.000Z</time>
      </trkpt>
      <trkpt lat="45.89759" lon="-0.88289">
        <ele>26</ele>
        <time>2018-06-30T19:36:09.000Z</time>
      </trkpt>
      <trkpt lat="45.89759" lon="-0.88289">
        <ele>26</ele>
        <time>2018-06-30T19:36:10.000Z</time>
      </trkpt>
      <trkpt lat="45.89759" lon="-0.88289">
        <ele>26</ele>
        <time>2018-06-30T19:36:11.000Z</time>
      </trkpt>
      <trkpt lat="45.89759" lon="-0.88289">
        <ele>26</ele>
        <time>2018-06-30T19:36:12.000Z</time>
      </trkpt>
      <trkpt lat="45.89759" lon="-0.88289">
        <ele>26</ele>
        <time>2018-06-30T19:36:13.000Z</time>
      </trkpt>
      <trkpt lat="45.89759" lon="-0.88289">
        <ele>25</ele>
        <time>2018-06-30T19:36:14.000Z</time>
      </trkpt>
      <trkpt lat="45.89759" lon="-0.88289">
        <ele>25</ele>
        <time>2018-06-30T19:36:15.000Z</time>
      </trkpt>
      <trkpt lat="45.89759" lon="-0.8829">
        <ele>25</ele>
        <time>2018-06-30T19:36:16.000Z</time>
      </trkpt>
      <trkpt lat="45.89759" lon="-0.8829">
        <ele>25</ele>
        <time>2018-06-30T19:36:17.000Z</time>
      </trkpt>
      <trkpt lat="45.89759" lon="-0.8829">
        <ele>25</ele>
        <time>2018-06-30T19:36:18.000Z</time>
      </trkpt>
      <trkpt lat="45.89759" lon="-0.8829">
        <ele>25</ele>
        <time>2018-06-30T19:36:19.000Z</time>
      </trkpt>
      <trkpt lat="45.89759" lon="-0.8829">
        <ele>24</ele>
        <time>2018-06-30T19:36:20.000Z</time>
      </trkpt>
      <trkpt lat="45.89759" lon="-0.8829">
        <ele>24</ele>
        <time>2018-06-30T19:36:21.000Z</time>
      </trkpt>
      <trkpt lat="45.89759" lon="-0.8829">
        <ele>25</ele>
        <time>2018-06-30T19:36:22.000Z</time>
      </trkpt>
      <trkpt lat="45.89759" lon="-0.8829">
        <ele>24</ele>
        <time>2018-06-30T19:36:23.000Z</time>
      </trkpt>
      <trkpt lat="45.89759" lon="-0.8829">
        <ele>24</ele>
        <time>2018-06-30T19:36:24.000Z</time>
      </trkpt>
      <trkpt lat="45.89759" lon="-0.8829">
        <ele>24</ele>
        <time>2018-06-30T19:36:25.000Z</time>
      </trkpt>
      <trkpt lat="45.89759" lon="-0.8829">
        <ele>24</ele>
        <time>2018-06-30T19:36:26.000Z</time>
      </trkpt>
      <trkpt lat="45.89759" lon="-0.8829">
        <ele>24</ele>
        <time>2018-06-30T19:36:27.000Z</time>
      </trkpt>
      <trkpt lat="45.89759" lon="-0.8829">
        <ele>24</ele>
        <time>2018-06-30T19:36:28.000Z</time>
      </trkpt>
      <trkpt lat="45.89759" lon="-0.8829">
        <ele>24</ele>
        <time>2018-06-30T19:36:29.000Z</time>
      </trkpt>
      <trkpt lat="45.89759" lon="-0.88291">
        <ele>24</ele>
        <time>2018-06-30T19:36:30.000Z</time>
      </trkpt>
      <trkpt lat="45.89759" lon="-0.88291">
        <ele>24</ele>
        <time>2018-06-30T19:36:31.000Z</time>
      </trkpt>
      <trkpt lat="45.89759" lon="-0.88291">
        <ele>23</ele>
        <time>2018-06-30T19:36:32.000Z</time>
      </trkpt>
      <trkpt lat="45.89759" lon="-0.88291">
        <ele>24</ele>
        <time>2018-06-30T19:36:33.000Z</time>
      </trkpt>
      <trkpt lat="45.89759" lon="-0.88291">
        <ele>23</ele>
        <time>2018-06-30T19:36:34.000Z</time>
      </trkpt>
      <trkpt lat="45.89759" lon="-0.88292">
        <ele>23</ele>
        <time>2018-06-30T19:36:35.000Z</time>
      </trkpt>
      <trkpt lat="45.89759" lon="-0.88292">
        <ele>23</ele>
        <time>2018-06-30T19:36:36.000Z</time>
      </trkpt>
      <trkpt lat="45.89759" lon="-0.88292">
        <ele>23</ele>
        <time>2018-06-30T19:36:37.000Z</time>
      </trkpt>
      <trkpt lat="45.89759" lon="-0.88292">
        <ele>23</ele>
        <time>2018-06-30T19:36:38.000Z</time>
      </trkpt>
      <trkpt lat="45.89759" lon="-0.88292">
        <ele>23</ele>
        <time>2018-06-30T19:36:39.000Z</time>
      </trkpt>
      <trkpt lat="45.89759" lon="-0.88292">
        <ele>23</ele>
        <time>2018-06-30T19:36:40.000Z</time>
      </trkpt>
      <trkpt lat="45.89759" lon="-0.88292">
        <ele>23</ele>
        <time>2018-06-30T19:36:41.000Z</time>
      </trkpt>
      <trkpt lat="45.89759" lon="-0.88292">
        <ele>22</ele>
        <time>2018-06-30T19:36:42.000Z</time>
      </trkpt>
      <trkpt lat="45.89759" lon="-0.88292">
        <ele>22</ele>
        <time>2018-06-30T19:36:43.000Z</time>
      </trkpt>
      <trkpt lat="45.89759" lon="-0.88292">
        <ele>22</ele>
        <time>2018-06-30T19:36:44.000Z</time>
      </trkpt>
      <trkpt lat="45.89759" lon="-0.88292">
        <ele>22</ele>
        <time>2018-06-30T19:36:45.000Z</time>
      </trkpt>
      <trkpt lat="45.89759" lon="-0.88292">
        <ele>22</ele>
        <time>2018-06-30T19:36:46.000Z</time>
      </trkpt>
      <trkpt lat="45.89759" lon="-0.88292">
        <ele>22</ele>
        <time>2018-06-30T19:36:47.000Z</time>
      </trkpt>
      <trkpt lat="45.89759" lon="-0.88292">
        <ele>22</ele>
        <time>2018-06-30T19:36:48.000Z</time>
      </trkpt>
      <trkpt lat="45.89759" lon="-0.88292">
        <ele>22</ele>
        <time>2018-06-30T19:36:49.000Z</time>
      </trkpt>
      <trkpt lat="45.89759" lon="-0.88292">
        <ele>22</ele>
        <time>2018-06-30T19:36:50.000Z</time>
      </trkpt>
      <trkpt lat="45.89759" lon="-0.88292">
        <ele>22</ele>
        <time>2018-06-30T19:36:51.000Z</time>
      </trkpt>
      <trkpt lat="45.89759" lon="-0.88292">
        <ele>22</ele>
        <time>2018-06-30T19:36:52.000Z</time>
      </trkpt>
      <trkpt lat="45.89759" lon="-0.88292">
        <ele>22</ele>
        <time>2018-06-30T19:36:53.000Z</time>
      </trkpt>
      <trkpt lat="45.8976" lon="-0.88292">
        <ele>22</ele>
        <time>2018-06-30T19:36:54.000Z</time>
      </trkpt>
      <trkpt lat="45.8976" lon="-0.88292">
        <ele>21</ele>
        <time>2018-06-30T19:36:55.000Z</time>
      </trkpt>
      <trkpt lat="45.8976" lon="-0.88292">
        <ele>21</ele>
        <time>2018-06-30T19:36:56.000Z</time>
      </trkpt>
      <trkpt lat="45.8976" lon="-0.88292">
        <ele>21</ele>
        <time>2018-06-30T19:36:57.000Z</time>
      </trkpt>
      <trkpt lat="45.8976" lon="-0.88292">
        <ele>21</ele>
        <time>2018-06-30T19:36:58.000Z</time>
      </trkpt>
      <trkpt lat="45.8976" lon="-0.88292">
        <ele>21</ele>
        <time>2018-06-30T19:36:59.000Z</time>
      </trkpt>
      <trkpt lat="45.8976" lon="-0.88292">
        <ele>20</ele>
        <time>2018-06-30T19:37:00.000Z</time>
      </trkpt>
      <trkpt lat="45.8976" lon="-0.88292">
        <ele>20</ele>
        <time>2018-06-30T19:37:01.000Z</time>
      </trkpt>
      <trkpt lat="45.8976" lon="-0.88292">
        <ele>20</ele>
        <time>2018-06-30T19:37:02.000Z</time>
      </trkpt>
      <trkpt lat="45.8976" lon="-0.88292">
        <ele>20</ele>
        <time>2018-06-30T19:37:03.000Z</time>
      </trkpt>
      <trkpt lat="45.8976" lon="-0.88292">
        <ele>20</ele>
        <time>2018-06-30T19:37:04.000Z</time>
      </trkpt>
      <trkpt lat="45.8976" lon="-0.88292">
        <ele>20</ele>
        <time>2018-06-30T19:37:05.000Z</time>
      </trkpt>
      <trkpt lat="45.8976" lon="-0.88292">
        <ele>20</ele>
        <time>2018-06-30T19:37:06.000Z</time>
      </trkpt>
      <trkpt lat="45.8976" lon="-0.88292">
        <ele>21</ele>
        <time>2018-06-30T19:37:07.000Z</time>
      </trkpt>
      <trkpt lat="45.8976" lon="-0.88292">
        <ele>21</ele>
        <time>2018-06-30T19:37:08.000Z</time>
      </trkpt>
      <trkpt lat="45.8976" lon="-0.88291">
        <ele>21</ele>
        <time>2018-06-30T19:37:09.000Z</time>
      </trkpt>
      <trkpt lat="45.8976" lon="-0.88291">
        <ele>21</ele>
        <time>2018-06-30T19:37:10.000Z</time>
      </trkpt>
      <trkpt lat="45.8976" lon="-0.88291">
        <ele>21</ele>
        <time>2018-06-30T19:37:11.000Z</time>
      </trkpt>
      <trkpt lat="45.8976" lon="-0.88291">
        <ele>21</ele>
        <time>2018-06-30T19:37:12.000Z</time>
      </trkpt>
      <trkpt lat="45.8976" lon="-0.88291">
        <ele>22</ele>
        <time>2018-06-30T19:37:13.000Z</time>
      </trkpt>
      <trkpt lat="45.8976" lon="-0.88291">
        <ele>22</ele>
        <time>2018-06-30T19:37:14.000Z</time>
      </trkpt>
      <trkpt lat="45.8976" lon="-0.88291">
        <ele>22</ele>
        <time>2018-06-30T19:37:15.000Z</time>
      </trkpt>
      <trkpt lat="45.8976" lon="-0.88291">
        <ele>22</ele>
        <time>2018-06-30T19:37:16.000Z</time>
      </trkpt>
      <trkpt lat="45.8976" lon="-0.88291">
        <ele>22</ele>
        <time>2018-06-30T19:37:17.000Z</time>
      </trkpt>
      <trkpt lat="45.8976" lon="-0.88291">
        <ele>22</ele>
        <time>2018-06-30T19:37:18.000Z</time>
      </trkpt>
      <trkpt lat="45.8976" lon="-0.88291">
        <ele>22</ele>
        <time>2018-06-30T19:37:19.000Z</time>
      </trkpt>
      <trkpt lat="45.8976" lon="-0.88291">
        <ele>22</ele>
        <time>2018-06-30T19:37:20.000Z</time>
      </trkpt>
      <trkpt lat="45.8976" lon="-0.88291">
        <ele>22</ele>
        <time>2018-06-30T19:37:21.000Z</time>
      </trkpt>
      <trkpt lat="45.8976" lon="-0.88291">
        <ele>22</ele>
        <time>2018-06-30T19:37:22.000Z</time>
      </trkpt>
      <trkpt lat="45.8976" lon="-0.8829">
        <ele>23</ele>
        <time>2018-06-30T19:37:23.000Z</time>
      </trkpt>
      <trkpt lat="45.89759" lon="-0.8829">
        <ele>23</ele>
        <time>2018-06-30T19:37:24.000Z</time>
      </trkpt>
      <trkpt lat="45.89759" lon="-0.8829">
        <ele>23</ele>
        <time>2018-06-30T19:37:25.000Z</time>
      </trkpt>
      <trkpt lat="45.89759" lon="-0.8829">
        <ele>23</ele>
        <time>2018-06-30T19:37:26.000Z</time>
      </trkpt>
      <trkpt lat="45.89759" lon="-0.8829">
        <ele>23</ele>
        <time>2018-06-30T19:37:27.000Z</time>
      </trkpt>
      <trkpt lat="45.89759" lon="-0.8829">
        <ele>24</ele>
        <time>2018-06-30T19:37:28.000Z</time>
      </trkpt>
      <trkpt lat="45.89759" lon="-0.8829">
        <ele>24</ele>
        <time>2018-06-30T19:37:29.000Z</time>
      </trkpt>
      <trkpt lat="45.89759" lon="-0.8829">
        <ele>24</ele>
        <time>2018-06-30T19:37:30.000Z</time>
      </trkpt>
      <trkpt lat="45.89759" lon="-0.8829">
        <ele>24</ele>
        <time>2018-06-30T19:37:31.000Z</time>
      </trkpt>
      <trkpt lat="45.89759" lon="-0.8829">
        <ele>24</ele>
        <time>2018-06-30T19:37:32.000Z</time>
      </trkpt>
      <trkpt lat="45.89759" lon="-0.8829">
        <ele>24</ele>
        <time>2018-06-30T19:37:33.000Z</time>
      </trkpt>
      <trkpt lat="45.89759" lon="-0.88291">
        <ele>24</ele>
        <time>2018-06-30T19:37:34.000Z</time>
      </trkpt>
      <trkpt lat="45.89759" lon="-0.88291">
        <ele>24</ele>
        <time>2018-06-30T19:37:35.000Z</time>
      </trkpt>
      <trkpt lat="45.89759" lon="-0.88291">
        <ele>25</ele>
        <time>2018-06-30T19:37:36.000Z</time>
      </trkpt>
      <trkpt lat="45.89759" lon="-0.88291">
        <ele>25</ele>
        <time>2018-06-30T19:37:37.000Z</time>
      </trkpt>
      <trkpt lat="45.89759" lon="-0.88291">
        <ele>25</ele>
        <time>2018-06-30T19:37:38.000Z</time>
      </trkpt>
      <trkpt lat="45.89759" lon="-0.88291">
        <ele>25</ele>
        <time>2018-06-30T19:37:39.000Z</time>
      </trkpt>
      <trkpt lat="45.89759" lon="-0.88291">
        <ele>25</ele>
        <time>2018-06-30T19:37:40.000Z</time>
      </trkpt>
      <trkpt lat="45.89759" lon="-0.8829">
        <ele>26</ele>
        <time>2018-06-30T19:37:41.000Z</time>
      </trkpt>
      <trkpt lat="45.89759" lon="-0.8829">
        <ele>26</ele>
        <time>2018-06-30T19:37:42.000Z</time>
      </trkpt>
      <trkpt lat="45.89759" lon="-0.8829">
        <ele>26</ele>
        <time>2018-06-30T19:37:43.000Z</time>
      </trkpt>
      <trkpt lat="45.89759" lon="-0.88291">
        <ele>26</ele>
        <time>2018-06-30T19:37:44.000Z</time>
      </trkpt>
      <trkpt lat="45.89759" lon="-0.88291">
        <ele>26</ele>
        <time>2018-06-30T19:37:45.000Z</time>
      </trkpt>
      <trkpt lat="45.89759" lon="-0.88291">
        <ele>26</ele>
        <time>2018-06-30T19:37:46.000Z</time>
      </trkpt>
      <trkpt lat="45.89759" lon="-0.88291">
        <ele>26</ele>
        <time>2018-06-30T19:37:47.000Z</time>
      </trkpt>
      <trkpt lat="45.89759" lon="-0.88291">
        <ele>26</ele>
        <time>2018-06-30T19:37:48.000Z</time>
      </trkpt>
      <trkpt lat="45.89759" lon="-0.88291">
        <ele>26</ele>
        <time>2018-06-30T19:37:49.000Z</time>
      </trkpt>
      <trkpt lat="45.89759" lon="-0.88291">
        <ele>26</ele>
        <time>2018-06-30T19:37:50.000Z</time>
      </trkpt>
      <trkpt lat="45.89759" lon="-0.88291">
        <ele>27</ele>
        <time>2018-06-30T19:37:51.000Z</time>
      </trkpt>
      <trkpt lat="45.89759" lon="-0.88291">
        <ele>27</ele>
        <time>2018-06-30T19:37:52.000Z</time>
      </trkpt>
      <trkpt lat="45.89759" lon="-0.88291">
        <ele>27</ele>
        <time>2018-06-30T19:37:53.000Z</time>
      </trkpt>
      <trkpt lat="45.89758" lon="-0.88291">
        <ele>27</ele>
        <time>2018-06-30T19:37:54.000Z</time>
      </trkpt>
      <trkpt lat="45.89758" lon="-0.88291">
        <ele>28</ele>
        <time>2018-06-30T19:37:55.000Z</time>
      </trkpt>
      <trkpt lat="45.89758" lon="-0.88291">
        <ele>28</ele>
        <time>2018-06-30T19:37:56.000Z</time>
      </trkpt>
      <trkpt lat="45.89758" lon="-0.88291">
        <ele>29</ele>
        <time>2018-06-30T19:37:57.000Z</time>
      </trkpt>
      <trkpt lat="45.89758" lon="-0.88291">
        <ele>29</ele>
        <time>2018-06-30T19:37:58.000Z</time>
      </trkpt>
      <trkpt lat="45.89758" lon="-0.88291">
        <ele>29</ele>
        <time>2018-06-30T19:37:59.000Z</time>
      </trkpt>
      <trkpt lat="45.89758" lon="-0.88291">
        <ele>29</ele>
        <time>2018-06-30T19:38:00.000Z</time>
      </trkpt>
      <trkpt lat="45.89758" lon="-0.88291">
        <ele>28</ele>
        <time>2018-06-30T19:38:01.000Z</time>
      </trkpt>
      <trkpt lat="45.89758" lon="-0.88291">
        <ele>28</ele>
        <time>2018-06-30T19:38:02.000Z</time>
      </trkpt>
      <trkpt lat="45.89758" lon="-0.88291">
        <ele>28</ele>
        <time>2018-06-30T19:38:03.000Z</time>
      </trkpt>
      <trkpt lat="45.89758" lon="-0.88291">
        <ele>28</ele>
        <time>2018-06-30T19:38:04.000Z</time>
      </trkpt>
      <trkpt lat="45.89758" lon="-0.88291">
        <ele>28</ele>
        <time>2018-06-30T19:38:05.000Z</time>
      </trkpt>
      <trkpt lat="45.89758" lon="-0.88291">
        <ele>28</ele>
        <time>2018-06-30T19:38:06.000Z</time>
      </trkpt>
      <trkpt lat="45.89758" lon="-0.88291">
        <ele>28</ele>
        <time>2018-06-30T19:38:07.000Z</time>
      </trkpt>
      <trkpt lat="45.89757" lon="-0.88291">
        <ele>28</ele>
        <time>2018-06-30T19:38:08.000Z</time>
      </trkpt>
      <trkpt lat="45.89757" lon="-0.88291">
        <ele>28</ele>
        <time>2018-06-30T19:38:09.000Z</time>
      </trkpt>
      <trkpt lat="45.89757" lon="-0.88291">
        <ele>28</ele>
        <time>2018-06-30T19:38:10.000Z</time>
      </trkpt>
      <trkpt lat="45.89757" lon="-0.88291">
        <ele>28</ele>
        <time>2018-06-30T19:38:11.000Z</time>
      </trkpt>
      <trkpt lat="45.89757" lon="-0.88291">
        <ele>28</ele>
        <time>2018-06-30T19:38:12.000Z</time>
      </trkpt>
      <trkpt lat="45.89757" lon="-0.88291">
        <ele>28</ele>
        <time>2018-06-30T19:38:13.000Z</time>
      </trkpt>
      <trkpt lat="45.89757" lon="-0.88291">
        <ele>28</ele>
        <time>2018-06-30T19:38:14.000Z</time>
      </trkpt>
      <trkpt lat="45.89757" lon="-0.88291">
        <ele>28</ele>
        <time>2018-06-30T19:38:15.000Z</time>
      </trkpt>
      <trkpt lat="45.89757" lon="-0.88291">
        <ele>28</ele>
        <time>2018-06-30T19:38:16.000Z</time>
      </trkpt>
      <trkpt lat="45.89757" lon="-0.88291">
        <ele>28</ele>
        <time>2018-06-30T19:38:17.000Z</time>
      </trkpt>
      <trkpt lat="45.89757" lon="-0.88291">
        <ele>28</ele>
        <time>2018-06-30T19:38:18.000Z</time>
      </trkpt>
      <trkpt lat="45.89757" lon="-0.88291">
        <ele>27</ele>
        <time>2018-06-30T19:38:19.000Z</time>
      </trkpt>
      <trkpt lat="45.89757" lon="-0.88291">
        <ele>27</ele>
        <time>2018-06-30T19:38:20.000Z</time>
      </trkpt>
      <trkpt lat="45.89757" lon="-0.88292">
        <ele>27</ele>
        <time>2018-06-30T19:38:21.000Z</time>
      </trkpt>
      <trkpt lat="45.89757" lon="-0.88292">
        <ele>27</ele>
        <time>2018-06-30T19:38:22.000Z</time>
      </trkpt>
      <trkpt lat="45.89757" lon="-0.88292">
        <ele>27</ele>
        <time>2018-06-30T19:38:23.000Z</time>
      </trkpt>
      <trkpt lat="45.89757" lon="-0.88291">
        <ele>27</ele>
        <time>2018-06-30T19:38:24.000Z</time>
      </trkpt>
      <trkpt lat="45.89757" lon="-0.88291">
        <ele>26</ele>
        <time>2018-06-30T19:38:25.000Z</time>
      </trkpt>
      <trkpt lat="45.89757" lon="-0.88291">
        <ele>26</ele>
        <time>2018-06-30T19:38:26.000Z</time>
      </trkpt>
      <trkpt lat="45.89757" lon="-0.88291">
        <ele>26</ele>
        <time>2018-06-30T19:38:27.000Z</time>
      </trkpt>
      <trkpt lat="45.89757" lon="-0.88291">
        <ele>27</ele>
        <time>2018-06-30T19:38:28.000Z</time>
      </trkpt>
      <trkpt lat="45.89757" lon="-0.88291">
        <ele>27</ele>
        <time>2018-06-30T19:38:29.000Z</time>
      </trkpt>
      <trkpt lat="45.89757" lon="-0.88291">
        <ele>27</ele>
        <time>2018-06-30T19:38:30.000Z</time>
      </trkpt>
      <trkpt lat="45.89757" lon="-0.88291">
        <ele>27</ele>
        <time>2018-06-30T19:38:31.000Z</time>
      </trkpt>
      <trkpt lat="45.89757" lon="-0.88291">
        <ele>27</ele>
        <time>2018-06-30T19:38:32.000Z</time>
      </trkpt>
      <trkpt lat="45.89757" lon="-0.88291">
        <ele>27</ele>
        <time>2018-06-30T19:38:33.000Z</time>
      </trkpt>
      <trkpt lat="45.89757" lon="-0.8829">
        <ele>28</ele>
        <time>2018-06-30T19:38:34.000Z</time>
      </trkpt>
      <trkpt lat="45.89758" lon="-0.8829">
        <ele>27</ele>
        <time>2018-06-30T19:38:35.000Z</time>
      </trkpt>
      <trkpt lat="45.89758" lon="-0.8829">
        <ele>27</ele>
        <time>2018-06-30T19:38:36.000Z</time>
      </trkpt>
      <trkpt lat="45.89757" lon="-0.8829">
        <ele>26</ele>
        <time>2018-06-30T19:38:37.000Z</time>
      </trkpt>
      <trkpt lat="45.89757" lon="-0.8829">
        <ele>26</ele>
        <time>2018-06-30T19:38:38.000Z</time>
      </trkpt>
      <trkpt lat="45.89757" lon="-0.8829">
        <ele>25</ele>
        <time>2018-06-30T19:38:39.000Z</time>
      </trkpt>
      <trkpt lat="45.89757" lon="-0.8829">
        <ele>25</ele>
        <time>2018-06-30T19:38:40.000Z</time>
      </trkpt>
      <trkpt lat="45.89757" lon="-0.8829">
        <ele>25</ele>
        <time>2018-06-30T19:38:41.000Z</time>
      </trkpt>
      <trkpt lat="45.89758" lon="-0.8829">
        <ele>25</ele>
        <time>2018-06-30T19:38:42.000Z</time>
      </trkpt>
      <trkpt lat="45.89758" lon="-0.8829">
        <ele>25</ele>
        <time>2018-06-30T19:38:43.000Z</time>
      </trkpt>
      <trkpt lat="45.89758" lon="-0.8829">
        <ele>25</ele>
        <time>2018-06-30T19:38:44.000Z</time>
      </trkpt>
      <trkpt lat="45.89758" lon="-0.8829">
        <ele>25</ele>
        <time>2018-06-30T19:38:45.000Z</time>
      </trkpt>
      <trkpt lat="45.89758" lon="-0.8829">
        <ele>25</ele>
        <time>2018-06-30T19:38:46.000Z</time>
      </trkpt>
      <trkpt lat="45.89758" lon="-0.8829">
        <ele>25</ele>
        <time>2018-06-30T19:38:47.000Z</time>
      </trkpt>
      <trkpt lat="45.89758" lon="-0.8829">
        <ele>25</ele>
        <time>2018-06-30T19:38:48.000Z</time>
      </trkpt>
      <trkpt lat="45.89758" lon="-0.8829">
        <ele>25</ele>
        <time>2018-06-30T19:38:49.000Z</time>
      </trkpt>
      <trkpt lat="45.89758" lon="-0.8829">
        <ele>25</ele>
        <time>2018-06-30T19:38:50.000Z</time>
      </trkpt>
      <trkpt lat="45.89758" lon="-0.8829">
        <ele>25</ele>
        <time>2018-06-30T19:38:51.000Z</time>
      </trkpt>
      <trkpt lat="45.89758" lon="-0.8829">
        <ele>25</ele>
        <time>2018-06-30T19:38:52.000Z</time>
      </trkpt>
      <trkpt lat="45.89758" lon="-0.8829">
        <ele>25</ele>
        <time>2018-06-30T19:38:53.000Z</time>
      </trkpt>
      <trkpt lat="45.89758" lon="-0.8829">
        <ele>25</ele>
        <time>2018-06-30T19:38:54.000Z</time>
      </trkpt>
      <trkpt lat="45.89758" lon="-0.8829">
        <ele>25</ele>
        <time>2018-06-30T19:38:55.000Z</time>
      </trkpt>
      <trkpt lat="45.89758" lon="-0.8829">
        <ele>25</ele>
        <time>2018-06-30T19:38:56.000Z</time>
      </trkpt>
      <trkpt lat="45.89758" lon="-0.8829">
        <ele>25</ele>
        <time>2018-06-30T19:38:57.000Z</time>
      </trkpt>
      <trkpt lat="45.89758" lon="-0.8829">
        <ele>25</ele>
        <time>2018-06-30T19:38:58.000Z</time>
      </trkpt>
      <trkpt lat="45.89758" lon="-0.8829">
        <ele>25</ele>
        <time>2018-06-30T19:38:59.000Z</time>
      </trkpt>
      <trkpt lat="45.89758" lon="-0.8829">
        <ele>25</ele>
        <time>2018-06-30T19:39:00.000Z</time>
      </trkpt>
      <trkpt lat="45.89758" lon="-0.8829">
        <ele>25</ele>
        <time>2018-06-30T19:39:01.000Z</time>
      </trkpt>
      <trkpt lat="45.89758" lon="-0.8829">
        <ele>25</ele>
        <time>2018-06-30T19:39:02.000Z</time>
      </trkpt>
      <trkpt lat="45.89758" lon="-0.8829">
        <ele>25</ele>
        <time>2018-06-30T19:39:03.000Z</time>
      </trkpt>
      <trkpt lat="45.89758" lon="-0.8829">
        <ele>25</ele>
        <time>2018-06-30T19:39:04.000Z</time>
      </trkpt>
      <trkpt lat="45.89758" lon="-0.8829">
        <ele>25</ele>
        <time>2018-06-30T19:39:05.000Z</time>
      </trkpt>
      <trkpt lat="45.89758" lon="-0.8829">
        <ele>25</ele>
        <time>2018-06-30T19:39:06.000Z</time>
      </trkpt>
      <trkpt lat="45.89758" lon="-0.88289">
        <ele>25</ele>
        <time>2018-06-30T19:39:07.000Z</time>
      </trkpt>
      <trkpt lat="45.89758" lon="-0.88289">
        <ele>25</ele>
        <time>2018-06-30T19:39:08.000Z</time>
      </trkpt>
      <trkpt lat="45.89758" lon="-0.88289">
        <ele>25</ele>
        <time>2018-06-30T19:39:09.000Z</time>
      </trkpt>
      <trkpt lat="45.89758" lon="-0.8829">
        <ele>25</ele>
        <time>2018-06-30T19:39:10.000Z</time>
      </trkpt>
      <trkpt lat="45.89759" lon="-0.8829">
        <ele>25</ele>
        <time>2018-06-30T19:39:11.000Z</time>
      </trkpt>
      <trkpt lat="45.89759" lon="-0.8829">
        <ele>25</ele>
        <time>2018-06-30T19:39:12.000Z</time>
      </trkpt>
      <trkpt lat="45.89759" lon="-0.8829">
        <ele>25</ele>
        <time>2018-06-30T19:39:13.000Z</time>
      </trkpt>
      <trkpt lat="45.89759" lon="-0.8829">
        <ele>25</ele>
        <time>2018-06-30T19:39:14.000Z</time>
      </trkpt>
      <trkpt lat="45.8976" lon="-0.8829">
        <ele>25</ele>
        <time>2018-06-30T19:39:15.000Z</time>
      </trkpt>
      <trkpt lat="45.8976" lon="-0.8829">
        <ele>26</ele>
        <time>2018-06-30T19:39:16.000Z</time>
      </trkpt>
      <trkpt lat="45.8976" lon="-0.8829">
        <ele>26</ele>
        <time>2018-06-30T19:39:17.000Z</time>
      </trkpt>
      <trkpt lat="45.8976" lon="-0.8829">
        <ele>26</ele>
        <time>2018-06-30T19:39:18.000Z</time>
      </trkpt>
      <trkpt lat="45.8976" lon="-0.8829">
        <ele>26</ele>
        <time>2018-06-30T19:39:19.000Z</time>
      </trkpt>
      <trkpt lat="45.89759" lon="-0.8829">
        <ele>26</ele>
        <time>2018-06-30T19:39:20.000Z</time>
      </trkpt>
      <trkpt lat="45.89759" lon="-0.8829">
        <ele>26</ele>
        <time>2018-06-30T19:39:21.000Z</time>
      </trkpt>
      <trkpt lat="45.89759" lon="-0.8829">
        <ele>26</ele>
        <time>2018-06-30T19:39:22.000Z</time>
      </trkpt>
      <trkpt lat="45.89759" lon="-0.8829">
        <ele>26</ele>
        <time>2018-06-30T19:39:23.000Z</time>
      </trkpt>
      <trkpt lat="45.89759" lon="-0.8829">
        <ele>26</ele>
        <time>2018-06-30T19:39:24.000Z</time>
      </trkpt>
      <trkpt lat="45.89759" lon="-0.8829">
        <ele>26</ele>
        <time>2018-06-30T19:39:25.000Z</time>
      </trkpt>
      <trkpt lat="45.89759" lon="-0.8829">
        <ele>26</ele>
        <time>2018-06-30T19:39:26.000Z</time>
      </trkpt>
      <trkpt lat="45.89759" lon="-0.8829">
        <ele>26</ele>
        <time>2018-06-30T19:39:27.000Z</time>
      </trkpt>
      <trkpt lat="45.89759" lon="-0.8829">
        <ele>26</ele>
        <time>2018-06-30T19:39:28.000Z</time>
      </trkpt>
      <trkpt lat="45.89759" lon="-0.8829">
        <ele>25</ele>
        <time>2018-06-30T19:39:29.000Z</time>
      </trkpt>
      <trkpt lat="45.89759" lon="-0.8829">
        <ele>25</ele>
        <time>2018-06-30T19:39:30.000Z</time>
      </trkpt>
      <trkpt lat="45.89759" lon="-0.8829">
        <ele>25</ele>
        <time>2018-06-30T19:39:31.000Z</time>
      </trkpt>
      <trkpt lat="45.89759" lon="-0.8829">
        <ele>25</ele>
        <time>2018-06-30T19:39:32.000Z</time>
      </trkpt>
      <trkpt lat="45.89759" lon="-0.8829">
        <ele>25</ele>
        <time>2018-06-30T19:39:33.000Z</time>
      </trkpt>
      <trkpt lat="45.89759" lon="-0.8829">
        <ele>25</ele>
        <time>2018-06-30T19:39:34.000Z</time>
      </trkpt>
      <trkpt lat="45.89759" lon="-0.8829">
        <ele>25</ele>
        <time>2018-06-30T19:39:35.000Z</time>
      </trkpt>
      <trkpt lat="45.89759" lon="-0.8829">
        <ele>25</ele>
        <time>2018-06-30T19:39:36.000Z</time>
      </trkpt>
      <trkpt lat="45.89759" lon="-0.8829">
        <ele>25</ele>
        <time>2018-06-30T19:39:37.000Z</time>
      </trkpt>
      <trkpt lat="45.89759" lon="-0.8829">
        <ele>25</ele>
        <time>2018-06-30T19:39:38.000Z</time>
      </trkpt>
      <trkpt lat="45.89759" lon="-0.8829">
        <ele>25</ele>
        <time>2018-06-30T19:39:39.000Z</time>
      </trkpt>
      <trkpt lat="45.89759" lon="-0.8829">
        <ele>25</ele>
        <time>2018-06-30T19:39:40.000Z</time>
      </trkpt>
      <trkpt lat="45.89759" lon="-0.8829">
        <ele>25</ele>
        <time>2018-06-30T19:39:41.000Z</time>
      </trkpt>
      <trkpt lat="45.89759" lon="-0.8829">
        <ele>25</ele>
        <time>2018-06-30T19:39:42.000Z</time>
      </trkpt>
      <trkpt lat="45.89759" lon="-0.8829">
        <ele>24</ele>
        <time>2018-06-30T19:39:43.000Z</time>
      </trkpt>
      <trkpt lat="45.89759" lon="-0.8829">
        <ele>24</ele>
        <time>2018-06-30T19:39:44.000Z</time>
      </trkpt>
      <trkpt lat="45.89759" lon="-0.8829">
        <ele>24</ele>
        <time>2018-06-30T19:39:45.000Z</time>
      </trkpt>
      <trkpt lat="45.89759" lon="-0.8829">
        <ele>23</ele>
        <time>2018-06-30T19:39:46.000Z</time>
      </trkpt>
      <trkpt lat="45.89759" lon="-0.8829">
        <ele>23</ele>
        <time>2018-06-30T19:39:47.000Z</time>
      </trkpt>
      <trkpt lat="45.89759" lon="-0.8829">
        <ele>23</ele>
        <time>2018-06-30T19:39:48.000Z</time>
      </trkpt>
      <trkpt lat="45.89759" lon="-0.8829">
        <ele>23</ele>
        <time>2018-06-30T19:39:49.000Z</time>
      </trkpt>
      <trkpt lat="45.89759" lon="-0.8829">
        <ele>23</ele>
        <time>2018-06-30T19:39:50.000Z</time>
      </trkpt>
      <trkpt lat="45.89759" lon="-0.88289">
        <ele>23</ele>
        <time>2018-06-30T19:39:51.000Z</time>
      </trkpt>
      <trkpt lat="45.89759" lon="-0.88289">
        <ele>23</ele>
        <time>2018-06-30T19:39:52.000Z</time>
      </trkpt>
      <trkpt lat="45.89759" lon="-0.88289">
        <ele>23</ele>
        <time>2018-06-30T19:39:53.000Z</time>
      </trkpt>
      <trkpt lat="45.89759" lon="-0.88289">
        <ele>22</ele>
        <time>2018-06-30T19:39:54.000Z</time>
      </trkpt>
      <trkpt lat="45.89759" lon="-0.88289">
        <ele>22</ele>
        <time>2018-06-30T19:39:55.000Z</time>
      </trkpt>
      <trkpt lat="45.8976" lon="-0.88289">
        <ele>23</ele>
        <time>2018-06-30T19:39:56.000Z</time>
      </trkpt>
      <trkpt lat="45.8976" lon="-0.88289">
        <ele>23</ele>
        <time>2018-06-30T19:39:57.000Z</time>
      </trkpt>
      <trkpt lat="45.8976" lon="-0.88289">
        <ele>23</ele>
        <time>2018-06-30T19:39:58.000Z</time>
      </trkpt>
      <trkpt lat="45.8976" lon="-0.88289">
        <ele>23</ele>
        <time>2018-06-30T19:39:59.000Z</time>
      </trkpt>
      <trkpt lat="45.8976" lon="-0.88289">
        <ele>23</ele>
        <time>2018-06-30T19:40:00.000Z</time>
      </trkpt>
      <trkpt lat="45.8976" lon="-0.88289">
        <ele>23</ele>
        <time>2018-06-30T19:40:01.000Z</time>
      </trkpt>
      <trkpt lat="45.8976" lon="-0.88289">
        <ele>23</ele>
        <time>2018-06-30T19:40:02.000Z</time>
      </trkpt>
      <trkpt lat="45.8976" lon="-0.88289">
        <ele>23</ele>
        <time>2018-06-30T19:40:03.000Z</time>
      </trkpt>
      <trkpt lat="45.8976" lon="-0.88289">
        <ele>23</ele>
        <time>2018-06-30T19:40:04.000Z</time>
      </trkpt>
      <trkpt lat="45.8976" lon="-0.8829">
        <ele>23</ele>
        <time>2018-06-30T19:40:05.000Z</time>
      </trkpt>
      <trkpt lat="45.8976" lon="-0.8829">
        <ele>23</ele>
        <time>2018-06-30T19:40:06.000Z</time>
      </trkpt>
      <trkpt lat="45.8976" lon="-0.8829">
        <ele>24</ele>
        <time>2018-06-30T19:40:07.000Z</time>
      </trkpt>
      <trkpt lat="45.8976" lon="-0.88289">
        <ele>24</ele>
        <time>2018-06-30T19:40:08.000Z</time>
      </trkpt>
      <trkpt lat="45.8976" lon="-0.88289">
        <ele>24</ele>
        <time>2018-06-30T19:40:09.000Z</time>
      </trkpt>
      <trkpt lat="45.8976" lon="-0.88289">
        <ele>24</ele>
        <time>2018-06-30T19:40:10.000Z</time>
      </trkpt>
      <trkpt lat="45.8976" lon="-0.88289">
        <ele>24</ele>
        <time>2018-06-30T19:40:11.000Z</time>
      </trkpt>
      <trkpt lat="45.8976" lon="-0.88289">
        <ele>24</ele>
        <time>2018-06-30T19:40:12.000Z</time>
      </trkpt>
      <trkpt lat="45.8976" lon="-0.88289">
        <ele>24</ele>
        <time>2018-06-30T19:40:13.000Z</time>
      </trkpt>
      <trkpt lat="45.8976" lon="-0.88289">
        <ele>24</ele>
        <time>2018-06-30T19:40:14.000Z</time>
      </trkpt>
      <trkpt lat="45.8976" lon="-0.88289">
        <ele>24</ele>
        <time>2018-06-30T19:40:15.000Z</time>
      </trkpt>
      <trkpt lat="45.8976" lon="-0.8829">
        <ele>24</ele>
        <time>2018-06-30T19:40:16.000Z</time>
      </trkpt>
      <trkpt lat="45.8976" lon="-0.8829">
        <ele>24</ele>
        <time>2018-06-30T19:40:17.000Z</time>
      </trkpt>
      <trkpt lat="45.8976" lon="-0.8829">
        <ele>24</ele>
        <time>2018-06-30T19:40:18.000Z</time>
      </trkpt>
      <trkpt lat="45.8976" lon="-0.8829">
        <ele>24</ele>
        <time>2018-06-30T19:40:19.000Z</time>
      </trkpt>
      <trkpt lat="45.8976" lon="-0.8829">
        <ele>24</ele>
        <time>2018-06-30T19:40:20.000Z</time>
      </trkpt>
      <trkpt lat="45.8976" lon="-0.8829">
        <ele>24</ele>
        <time>2018-06-30T19:40:21.000Z</time>
      </trkpt>
      <trkpt lat="45.8976" lon="-0.8829">
        <ele>24</ele>
        <time>2018-06-30T19:40:22.000Z</time>
      </trkpt>
      <trkpt lat="45.8976" lon="-0.8829">
        <ele>24</ele>
        <time>2018-06-30T19:40:23.000Z</time>
      </trkpt>
      <trkpt lat="45.8976" lon="-0.8829">
        <ele>24</ele>
        <time>2018-06-30T19:40:24.000Z</time>
      </trkpt>
      <trkpt lat="45.8976" lon="-0.8829">
        <ele>25</ele>
        <time>2018-06-30T19:40:25.000Z</time>
      </trkpt>
      <trkpt lat="45.8976" lon="-0.88289">
        <ele>25</ele>
        <time>2018-06-30T19:40:26.000Z</time>
      </trkpt>
      <trkpt lat="45.8976" lon="-0.88289">
        <ele>25</ele>
        <time>2018-06-30T19:40:27.000Z</time>
      </trkpt>
      <trkpt lat="45.8976" lon="-0.88289">
        <ele>25</ele>
        <time>2018-06-30T19:40:28.000Z</time>
      </trkpt>
      <trkpt lat="45.8976" lon="-0.88289">
        <ele>25</ele>
        <time>2018-06-30T19:40:29.000Z</time>
      </trkpt>
      <trkpt lat="45.8976" lon="-0.88289">
        <ele>25</ele>
        <time>2018-06-30T19:40:30.000Z</time>
      </trkpt>
      <trkpt lat="45.8976" lon="-0.88289">
        <ele>24</ele>
        <time>2018-06-30T19:40:31.000Z</time>
      </trkpt>
      <trkpt lat="45.8976" lon="-0.88289">
        <ele>24</ele>
        <time>2018-06-30T19:40:32.000Z</time>
      </trkpt>
      <trkpt lat="45.8976" lon="-0.88289">
        <ele>24</ele>
        <time>2018-06-30T19:40:33.000Z</time>
      </trkpt>
      <trkpt lat="45.8976" lon="-0.88289">
        <ele>24</ele>
        <time>2018-06-30T19:40:34.000Z</time>
      </trkpt>
      <trkpt lat="45.8976" lon="-0.88289">
        <ele>24</ele>
        <time>2018-06-30T19:40:35.000Z</time>
      </trkpt>
      <trkpt lat="45.8976" lon="-0.88289">
        <ele>24</ele>
        <time>2018-06-30T19:40:36.000Z</time>
      </trkpt>
      <trkpt lat="45.8976" lon="-0.88289">
        <ele>24</ele>
        <time>2018-06-30T19:40:37.000Z</time>
      </trkpt>
      <trkpt lat="45.8976" lon="-0.88289">
        <ele>24</ele>
        <time>2018-06-30T19:40:38.000Z</time>
      </trkpt>
      <trkpt lat="45.8976" lon="-0.88289">
        <ele>24</ele>
        <time>2018-06-30T19:40:39.000Z</time>
      </trkpt>
      <trkpt lat="45.8976" lon="-0.88289">
        <ele>25</ele>
        <time>2018-06-30T19:40:40.000Z</time>
      </trkpt>
      <trkpt lat="45.8976" lon="-0.88289">
        <ele>25</ele>
        <time>2018-06-30T19:40:41.000Z</time>
      </trkpt>
      <trkpt lat="45.8976" lon="-0.8829">
        <ele>25</ele>
        <time>2018-06-30T19:40:42.000Z</time>
      </trkpt>
      <trkpt lat="45.8976" lon="-0.8829">
        <ele>25</ele>
        <time>2018-06-30T19:40:43.000Z</time>
      </trkpt>
      <trkpt lat="45.8976" lon="-0.8829">
        <ele>25</ele>
        <time>2018-06-30T19:40:44.000Z</time>
      </trkpt>
      <trkpt lat="45.8976" lon="-0.8829">
        <ele>25</ele>
        <time>2018-06-30T19:40:45.000Z</time>
      </trkpt>
      <trkpt lat="45.8976" lon="-0.8829">
        <ele>25</ele>
        <time>2018-06-30T19:40:46.000Z</time>
      </trkpt>
      <trkpt lat="45.8976" lon="-0.8829">
        <ele>25</ele>
        <time>2018-06-30T19:40:47.000Z</time>
      </trkpt>
      <trkpt lat="45.8976" lon="-0.8829">
        <ele>25</ele>
        <time>2018-06-30T19:40:48.000Z</time>
      </trkpt>
      <trkpt lat="45.8976" lon="-0.8829">
        <ele>25</ele>
        <time>2018-06-30T19:40:49.000Z</time>
      </trkpt>
      <trkpt lat="45.8976" lon="-0.8829">
        <ele>24</ele>
        <time>2018-06-30T19:40:50.000Z</time>
      </trkpt>
      <trkpt lat="45.8976" lon="-0.88289">
        <ele>24</ele>
        <time>2018-06-30T19:40:51.000Z</time>
      </trkpt>
      <trkpt lat="45.8976" lon="-0.88289">
        <ele>24</ele>
        <time>2018-06-30T19:40:52.000Z</time>
      </trkpt>
      <trkpt lat="45.8976" lon="-0.88289">
        <ele>24</ele>
        <time>2018-06-30T19:40:53.000Z</time>
      </trkpt>
      <trkpt lat="45.8976" lon="-0.88289">
        <ele>24</ele>
        <time>2018-06-30T19:40:54.000Z</time>
      </trkpt>
      <trkpt lat="45.8976" lon="-0.88289">
        <ele>24</ele>
        <time>2018-06-30T19:40:55.000Z</time>
      </trkpt>
      <trkpt lat="45.8976" lon="-0.88289">
        <ele>24</ele>
        <time>2018-06-30T19:40:56.000Z</time>
      </trkpt>
      <trkpt lat="45.8976" lon="-0.88289">
        <ele>24</ele>
        <time>2018-06-30T19:40:57.000Z</time>
      </trkpt>
      <trkpt lat="45.8976" lon="-0.88289">
        <ele>25</ele>
        <time>2018-06-30T19:40:58.000Z</time>
      </trkpt>
      <trkpt lat="45.8976" lon="-0.88289">
        <ele>25</ele>
        <time>2018-06-30T19:40:59.000Z</time>
      </trkpt>
      <trkpt lat="45.8976" lon="-0.88289">
        <ele>25</ele>
        <time>2018-06-30T19:41:00.000Z</time>
      </trkpt>
      <trkpt lat="45.8976" lon="-0.88289">
        <ele>25</ele>
        <time>2018-06-30T19:41:01.000Z</time>
      </trkpt>
      <trkpt lat="45.8976" lon="-0.88289">
        <ele>25</ele>
        <time>2018-06-30T19:41:02.000Z</time>
      </trkpt>
      <trkpt lat="45.8976" lon="-0.88289">
        <ele>25</ele>
        <time>2018-06-30T19:41:03.000Z</time>
      </trkpt>
      <trkpt lat="45.8976" lon="-0.88289">
        <ele>25</ele>
        <time>2018-06-30T19:41:04.000Z</time>
      </trkpt>
      <trkpt lat="45.8976" lon="-0.88289">
        <ele>25</ele>
        <time>2018-06-30T19:41:05.000Z</time>
      </trkpt>
      <trkpt lat="45.8976" lon="-0.88289">
        <ele>24</ele>
        <time>2018-06-30T19:41:06.000Z</time>
      </trkpt>
      <trkpt lat="45.8976" lon="-0.88289">
        <ele>24</ele>
        <time>2018-06-30T19:41:07.000Z</time>
      </trkpt>
      <trkpt lat="45.8976" lon="-0.88289">
        <ele>24</ele>
        <time>2018-06-30T19:41:08.000Z</time>
      </trkpt>
      <trkpt lat="45.8976" lon="-0.88289">
        <ele>24</ele>
        <time>2018-06-30T19:41:09.000Z</time>
      </trkpt>
      <trkpt lat="45.89759" lon="-0.88289">
        <ele>24</ele>
        <time>2018-06-30T19:41:10.000Z</time>
      </trkpt>
      <trkpt lat="45.89759" lon="-0.88289">
        <ele>23</ele>
        <time>2018-06-30T19:41:11.000Z</time>
      </trkpt>
      <trkpt lat="45.89759" lon="-0.88289">
        <ele>23</ele>
        <time>2018-06-30T19:41:12.000Z</time>
      </trkpt>
      <trkpt lat="45.89759" lon="-0.88289">
        <ele>23</ele>
        <time>2018-06-30T19:41:13.000Z</time>
      </trkpt>
      <trkpt lat="45.89759" lon="-0.88289">
        <ele>23</ele>
        <time>2018-06-30T19:41:14.000Z</time>
      </trkpt>
      <trkpt lat="45.89759" lon="-0.88289">
        <ele>23</ele>
        <time>2018-06-30T19:41:15.000Z</time>
      </trkpt>
      <trkpt lat="45.89759" lon="-0.88289">
        <ele>23</ele>
        <time>2018-06-30T19:41:16.000Z</time>
      </trkpt>
      <trkpt lat="45.89759" lon="-0.88289">
        <ele>23</ele>
        <time>2018-06-30T19:41:17.000Z</time>
      </trkpt>
      <trkpt lat="45.89759" lon="-0.88289">
        <ele>23</ele>
        <time>2018-06-30T19:41:18.000Z</time>
      </trkpt>
      <trkpt lat="45.89759" lon="-0.88289">
        <ele>23</ele>
        <time>2018-06-30T19:41:19.000Z</time>
      </trkpt>
      <trkpt lat="45.89759" lon="-0.88289">
        <ele>23</ele>
        <time>2018-06-30T19:41:20.000Z</time>
      </trkpt>
      <trkpt lat="45.89759" lon="-0.88289">
        <ele>23</ele>
        <time>2018-06-30T19:41:21.000Z</time>
      </trkpt>
      <trkpt lat="45.89759" lon="-0.88289">
        <ele>23</ele>
        <time>2018-06-30T19:41:22.000Z</time>
      </trkpt>
      <trkpt lat="45.89759" lon="-0.88289">
        <ele>23</ele>
        <time>2018-06-30T19:41:23.000Z</time>
      </trkpt>
      <trkpt lat="45.89759" lon="-0.88289">
        <ele>23</ele>
        <time>2018-06-30T19:41:24.000Z</time>
      </trkpt>
      <trkpt lat="45.89759" lon="-0.8829">
        <ele>23</ele>
        <time>2018-06-30T19:41:25.000Z</time>
      </trkpt>
      <trkpt lat="45.89759" lon="-0.8829">
        <ele>24</ele>
        <time>2018-06-30T19:41:26.000Z</time>
      </trkpt>
      <trkpt lat="45.89759" lon="-0.8829">
        <ele>24</ele>
        <time>2018-06-30T19:41:27.000Z</time>
      </trkpt>
      <trkpt lat="45.89759" lon="-0.8829">
        <ele>24</ele>
        <time>2018-06-30T19:41:28.000Z</time>
      </trkpt>
      <trkpt lat="45.89759" lon="-0.8829">
        <ele>24</ele>
        <time>2018-06-30T19:41:29.000Z</time>
      </trkpt>
      <trkpt lat="45.8976" lon="-0.88289">
        <ele>24</ele>
        <time>2018-06-30T19:41:30.000Z</time>
      </trkpt>
      <trkpt lat="45.8976" lon="-0.88289">
        <ele>24</ele>
        <time>2018-06-30T19:41:31.000Z</time>
      </trkpt>
      <trkpt lat="45.8976" lon="-0.88289">
        <ele>24</ele>
        <time>2018-06-30T19:41:32.000Z</time>
      </trkpt>
      <trkpt lat="45.8976" lon="-0.88289">
        <ele>24</ele>
        <time>2018-06-30T19:41:33.000Z</time>
      </trkpt>
      <trkpt lat="45.8976" lon="-0.88289">
        <ele>24</ele>
        <time>2018-06-30T19:41:34.000Z</time>
      </trkpt>
      <trkpt lat="45.8976" lon="-0.8829">
        <ele>24</ele>
        <time>2018-06-30T19:41:35.000Z</time>
      </trkpt>
      <trkpt lat="45.8976" lon="-0.8829">
        <ele>24</ele>
        <time>2018-06-30T19:41:36.000Z</time>
      </trkpt>
      <trkpt lat="45.8976" lon="-0.8829">
        <ele>24</ele>
        <time>2018-06-30T19:41:37.000Z</time>
      </trkpt>
      <trkpt lat="45.8976" lon="-0.8829">
        <ele>24</ele>
        <time>2018-06-30T19:41:38.000Z</time>
      </trkpt>
      <trkpt lat="45.8976" lon="-0.8829">
        <ele>24</ele>
        <time>2018-06-30T19:41:39.000Z</time>
      </trkpt>
      <trkpt lat="45.8976" lon="-0.8829">
        <ele>24</ele>
        <time>2018-06-30T19:41:40.000Z</time>
      </trkpt>
      <trkpt lat="45.8976" lon="-0.8829">
        <ele>24</ele>
        <time>2018-06-30T19:41:41.000Z</time>
      </trkpt>
      <trkpt lat="45.8976" lon="-0.8829">
        <ele>24</ele>
        <time>2018-06-30T19:41:42.000Z</time>
      </trkpt>
      <trkpt lat="45.8976" lon="-0.8829">
        <ele>24</ele>
        <time>2018-06-30T19:41:43.000Z</time>
      </trkpt>
      <trkpt lat="45.8976" lon="-0.8829">
        <ele>24</ele>
        <time>2018-06-30T19:41:44.000Z</time>
      </trkpt>
      <trkpt lat="45.8976" lon="-0.88289">
        <ele>23</ele>
        <time>2018-06-30T19:41:45.000Z</time>
      </trkpt>
      <trkpt lat="45.8976" lon="-0.88289">
        <ele>23</ele>
        <time>2018-06-30T19:41:46.000Z</time>
      </trkpt>
      <trkpt lat="45.8976" lon="-0.88289">
        <ele>23</ele>
        <time>2018-06-30T19:41:47.000Z</time>
      </trkpt>
      <trkpt lat="45.8976" lon="-0.88289">
        <ele>23</ele>
        <time>2018-06-30T19:41:48.000Z</time>
      </trkpt>
      <trkpt lat="45.8976" lon="-0.88289">
        <ele>23</ele>
        <time>2018-06-30T19:41:49.000Z</time>
      </trkpt>
      <trkpt lat="45.8976" lon="-0.8829">
        <ele>23</ele>
        <time>2018-06-30T19:41:50.000Z</time>
      </trkpt>
      <trkpt lat="45.8976" lon="-0.8829">
        <ele>23</ele>
        <time>2018-06-30T19:41:51.000Z</time>
      </trkpt>
      <trkpt lat="45.8976" lon="-0.8829">
        <ele>23</ele>
        <time>2018-06-30T19:41:52.000Z</time>
      </trkpt>
      <trkpt lat="45.8976" lon="-0.8829">
        <ele>23</ele>
        <time>2018-06-30T19:41:53.000Z</time>
      </trkpt>
      <trkpt lat="45.8976" lon="-0.8829">
        <ele>23</ele>
        <time>2018-06-30T19:41:54.000Z</time>
      </trkpt>
      <trkpt lat="45.8976" lon="-0.8829">
        <ele>23</ele>
        <time>2018-06-30T19:41:55.000Z</time>
      </trkpt>
      <trkpt lat="45.8976" lon="-0.8829">
        <ele>23</ele>
        <time>2018-06-30T19:41:56.000Z</time>
      </trkpt>
      <trkpt lat="45.8976" lon="-0.8829">
        <ele>23</ele>
        <time>2018-06-30T19:41:57.000Z</time>
      </trkpt>
      <trkpt lat="45.8976" lon="-0.8829">
        <ele>23</ele>
        <time>2018-06-30T19:41:58.000Z</time>
      </trkpt>
      <trkpt lat="45.8976" lon="-0.8829">
        <ele>23</ele>
        <time>2018-06-30T19:41:59.000Z</time>
      </trkpt>
      <trkpt lat="45.8976" lon="-0.88289">
        <ele>23</ele>
        <time>2018-06-30T19:42:00.000Z</time>
      </trkpt>
      <trkpt lat="45.8976" lon="-0.88289">
        <ele>23</ele>
        <time>2018-06-30T19:42:01.000Z</time>
      </trkpt>
      <trkpt lat="45.8976" lon="-0.88289">
        <ele>23</ele>
        <time>2018-06-30T19:42:02.000Z</time>
      </trkpt>
      <trkpt lat="45.8976" lon="-0.88289">
        <ele>23</ele>
        <time>2018-06-30T19:42:03.000Z</time>
      </trkpt>
      <trkpt lat="45.8976" lon="-0.88289">
        <ele>23</ele>
        <time>2018-06-30T19:42:04.000Z</time>
      </trkpt>
      <trkpt lat="45.8976" lon="-0.88289">
        <ele>23</ele>
        <time>2018-06-30T19:42:05.000Z</time>
      </trkpt>
      <trkpt lat="45.8976" lon="-0.8829">
        <ele>23</ele>
        <time>2018-06-30T19:42:06.000Z</time>
      </trkpt>
      <trkpt lat="45.8976" lon="-0.8829">
        <ele>23</ele>
        <time>2018-06-30T19:42:07.000Z</time>
      </trkpt>
      <trkpt lat="45.8976" lon="-0.8829">
        <ele>23</ele>
        <time>2018-06-30T19:42:08.000Z</time>
      </trkpt>
      <trkpt lat="45.8976" lon="-0.8829">
        <ele>23</ele>
        <time>2018-06-30T19:42:09.000Z</time>
      </trkpt>
      <trkpt lat="45.8976" lon="-0.8829">
        <ele>23</ele>
        <time>2018-06-30T19:42:10.000Z</time>
      </trkpt>
      <trkpt lat="45.8976" lon="-0.88289">
        <ele>23</ele>
        <time>2018-06-30T19:42:11.000Z</time>
      </trkpt>
      <trkpt lat="45.8976" lon="-0.88289">
        <ele>23</ele>
        <time>2018-06-30T19:42:12.000Z</time>
      </trkpt>
      <trkpt lat="45.8976" lon="-0.88289">
        <ele>23</ele>
        <time>2018-06-30T19:42:13.000Z</time>
      </trkpt>
      <trkpt lat="45.8976" lon="-0.88289">
        <ele>23</ele>
        <time>2018-06-30T19:42:14.000Z</time>
      </trkpt>
      <trkpt lat="45.8976" lon="-0.88289">
        <ele>23</ele>
        <time>2018-06-30T19:42:15.000Z</time>
      </trkpt>
      <trkpt lat="45.8976" lon="-0.8829">
        <ele>22</ele>
        <time>2018-06-30T19:42:16.000Z</time>
      </trkpt>
      <trkpt lat="45.8976" lon="-0.8829">
        <ele>22</ele>
        <time>2018-06-30T19:42:17.000Z</time>
      </trkpt>
      <trkpt lat="45.8976" lon="-0.8829">
        <ele>22</ele>
        <time>2018-06-30T19:42:18.000Z</time>
      </trkpt>
      <trkpt lat="45.8976" lon="-0.8829">
        <ele>21</ele>
        <time>2018-06-30T19:42:19.000Z</time>
      </trkpt>
      <trkpt lat="45.8976" lon="-0.8829">
        <ele>21</ele>
        <time>2018-06-30T19:42:20.000Z</time>
      </trkpt>
      <trkpt lat="45.8976" lon="-0.8829">
        <ele>21</ele>
        <time>2018-06-30T19:42:21.000Z</time>
      </trkpt>
      <trkpt lat="45.8976" lon="-0.8829">
        <ele>22</ele>
        <time>2018-06-30T19:42:22.000Z</time>
      </trkpt>
      <trkpt lat="45.8976" lon="-0.8829">
        <ele>22</ele>
        <time>2018-06-30T19:42:23.000Z</time>
      </trkpt>
      <trkpt lat="45.8976" lon="-0.8829">
        <ele>22</ele>
        <time>2018-06-30T19:42:24.000Z</time>
      </trkpt>
      <trkpt lat="45.8976" lon="-0.8829">
        <ele>22</ele>
        <time>2018-06-30T19:42:25.000Z</time>
      </trkpt>
      <trkpt lat="45.8976" lon="-0.8829">
        <ele>22</ele>
        <time>2018-06-30T19:42:26.000Z</time>
      </trkpt>
      <trkpt lat="45.8976" lon="-0.8829">
        <ele>22</ele>
        <time>2018-06-30T19:42:27.000Z</time>
      </trkpt>
      <trkpt lat="45.8976" lon="-0.88289">
        <ele>22</ele>
        <time>2018-06-30T19:42:28.000Z</time>
      </trkpt>
      <trkpt lat="45.8976" lon="-0.88289">
        <ele>22</ele>
        <time>2018-06-30T19:42:29.000Z</time>
      </trkpt>
      <trkpt lat="45.8976" lon="-0.88289">
        <ele>22</ele>
        <time>2018-06-30T19:42:30.000Z</time>
      </trkpt>
      <trkpt lat="45.8976" lon="-0.88289">
        <ele>22</ele>
        <time>2018-06-30T19:42:31.000Z</time>
      </trkpt>
      <trkpt lat="45.8976" lon="-0.88289">
        <ele>22</ele>
        <time>2018-06-30T19:42:32.000Z</time>
      </trkpt>
      <trkpt lat="45.8976" lon="-0.88289">
        <ele>22</ele>
        <time>2018-06-30T19:42:33.000Z</time>
      </trkpt>
      <trkpt lat="45.8976" lon="-0.88289">
        <ele>22</ele>
        <time>2018-06-30T19:42:34.000Z</time>
      </trkpt>
      <trkpt lat="45.8976" lon="-0.88289">
        <ele>22</ele>
        <time>2018-06-30T19:42:35.000Z</time>
      </trkpt>
      <trkpt lat="45.89761" lon="-0.88289">
        <ele>23</ele>
        <time>2018-06-30T19:42:36.000Z</time>
      </trkpt>
      <trkpt lat="45.89761" lon="-0.88289">
        <ele>23</ele>
        <time>2018-06-30T19:42:37.000Z</time>
      </trkpt>
      <trkpt lat="45.89761" lon="-0.88289">
        <ele>23</ele>
        <time>2018-06-30T19:42:38.000Z</time>
      </trkpt>
      <trkpt lat="45.89761" lon="-0.88289">
        <ele>23</ele>
        <time>2018-06-30T19:42:39.000Z</time>
      </trkpt>
      <trkpt lat="45.89761" lon="-0.88289">
        <ele>23</ele>
        <time>2018-06-30T19:42:40.000Z</time>
      </trkpt>
      <trkpt lat="45.89761" lon="-0.88289">
        <ele>23</ele>
        <time>2018-06-30T19:42:41.000Z</time>
      </trkpt>
      <trkpt lat="45.89761" lon="-0.88289">
        <ele>23</ele>
        <time>2018-06-30T19:42:42.000Z</time>
      </trkpt>
      <trkpt lat="45.89761" lon="-0.88289">
        <ele>23</ele>
        <time>2018-06-30T19:42:43.000Z</time>
      </trkpt>
      <trkpt lat="45.89761" lon="-0.88289">
        <ele>24</ele>
        <time>2018-06-30T19:42:44.000Z</time>
      </trkpt>
      <trkpt lat="45.89761" lon="-0.88289">
        <ele>24</ele>
        <time>2018-06-30T19:42:45.000Z</time>
      </trkpt>
      <trkpt lat="45.8976" lon="-0.88289">
        <ele>24</ele>
        <time>2018-06-30T19:42:46.000Z</time>
      </trkpt>
      <trkpt lat="45.8976" lon="-0.8829">
        <ele>24</ele>
        <time>2018-06-30T19:42:47.000Z</time>
      </trkpt>
      <trkpt lat="45.8976" lon="-0.8829">
        <ele>24</ele>
        <time>2018-06-30T19:42:48.000Z</time>
      </trkpt>
      <trkpt lat="45.8976" lon="-0.88289">
        <ele>24</ele>
        <time>2018-06-30T19:42:49.000Z</time>
      </trkpt>
      <trkpt lat="45.8976" lon="-0.88289">
        <ele>25</ele>
        <time>2018-06-30T19:42:50.000Z</time>
      </trkpt>
      <trkpt lat="45.8976" lon="-0.88289">
        <ele>25</ele>
        <time>2018-06-30T19:42:51.000Z</time>
      </trkpt>
      <trkpt lat="45.8976" lon="-0.88289">
        <ele>25</ele>
        <time>2018-06-30T19:42:52.000Z</time>
      </trkpt>
      <trkpt lat="45.8976" lon="-0.88289">
        <ele>25</ele>
        <time>2018-06-30T19:42:53.000Z</time>
      </trkpt>
      <trkpt lat="45.8976" lon="-0.8829">
        <ele>25</ele>
        <time>2018-06-30T19:42:54.000Z</time>
      </trkpt>
      <trkpt lat="45.8976" lon="-0.8829">
        <ele>25</ele>
        <time>2018-06-30T19:42:55.000Z</time>
      </trkpt>
      <trkpt lat="45.8976" lon="-0.8829">
        <ele>25</ele>
        <time>2018-06-30T19:42:56.000Z</time>
      </trkpt>
      <trkpt lat="45.8976" lon="-0.8829">
        <ele>24</ele>
        <time>2018-06-30T19:42:57.000Z</time>
      </trkpt>
      <trkpt lat="45.8976" lon="-0.8829">
        <ele>24</ele>
        <time>2018-06-30T19:42:58.000Z</time>
      </trkpt>
      <trkpt lat="45.8976" lon="-0.8829">
        <ele>25</ele>
        <time>2018-06-30T19:42:59.000Z</time>
      </trkpt>
      <trkpt lat="45.8976" lon="-0.8829">
        <ele>25</ele>
        <time>2018-06-30T19:43:00.000Z</time>
      </trkpt>
      <trkpt lat="45.8976" lon="-0.88289">
        <ele>25</ele>
        <time>2018-06-30T19:43:01.000Z</time>
      </trkpt>
      <trkpt lat="45.8976" lon="-0.88289">
        <ele>25</ele>
        <time>2018-06-30T19:43:02.000Z</time>
      </trkpt>
      <trkpt lat="45.8976" lon="-0.88289">
        <ele>25</ele>
        <time>2018-06-30T19:43:03.000Z</time>
      </trkpt>
      <trkpt lat="45.8976" lon="-0.88289">
        <ele>25</ele>
        <time>2018-06-30T19:43:04.000Z</time>
      </trkpt>
      <trkpt lat="45.8976" lon="-0.88289">
        <ele>25</ele>
        <time>2018-06-30T19:43:05.000Z</time>
      </trkpt>
      <trkpt lat="45.8976" lon="-0.88289">
        <ele>25</ele>
        <time>2018-06-30T19:43:06.000Z</time>
      </trkpt>
      <trkpt lat="45.8976" lon="-0.88289">
        <ele>25</ele>
        <time>2018-06-30T19:43:07.000Z</time>
      </trkpt>
      <trkpt lat="45.8976" lon="-0.88289">
        <ele>25</ele>
        <time>2018-06-30T19:43:08.000Z</time>
      </trkpt>
      <trkpt lat="45.8976" lon="-0.88289">
        <ele>25</ele>
        <time>2018-06-30T19:43:09.000Z</time>
      </trkpt>
      <trkpt lat="45.8976" lon="-0.88289">
        <ele>25</ele>
        <time>2018-06-30T19:43:10.000Z</time>
      </trkpt>
      <trkpt lat="45.8976" lon="-0.88289">
        <ele>25</ele>
        <time>2018-06-30T19:43:11.000Z</time>
      </trkpt>
      <trkpt lat="45.8976" lon="-0.88289">
        <ele>25</ele>
        <time>2018-06-30T19:43:12.000Z</time>
      </trkpt>
      <trkpt lat="45.8976" lon="-0.88289">
        <ele>25</ele>
        <time>2018-06-30T19:43:13.000Z</time>
      </trkpt>
      <trkpt lat="45.8976" lon="-0.88289">
        <ele>25</ele>
        <time>2018-06-30T19:43:14.000Z</time>
      </trkpt>
      <trkpt lat="45.8976" lon="-0.88289">
        <ele>25</ele>
        <time>2018-06-30T19:43:15.000Z</time>
      </trkpt>
      <trkpt lat="45.8976" lon="-0.88289">
        <ele>25</ele>
        <time>2018-06-30T19:43:16.000Z</time>
      </trkpt>
      <trkpt lat="45.8976" lon="-0.88289">
        <ele>25</ele>
        <time>2018-06-30T19:43:17.000Z</time>
      </trkpt>
      <trkpt lat="45.8976" lon="-0.88289">
        <ele>25</ele>
        <time>2018-06-30T19:43:18.000Z</time>
      </trkpt>
      <trkpt lat="45.8976" lon="-0.88289">
        <ele>25</ele>
        <time>2018-06-30T19:43:19.000Z</time>
      </trkpt>
      <trkpt lat="45.8976" lon="-0.88289">
        <ele>25</ele>
        <time>2018-06-30T19:43:20.000Z</time>
      </trkpt>
      <trkpt lat="45.8976" lon="-0.88289">
        <ele>25</ele>
        <time>2018-06-30T19:43:21.000Z</time>
      </trkpt>
      <trkpt lat="45.8976" lon="-0.88289">
        <ele>25</ele>
        <time>2018-06-30T19:43:22.000Z</time>
      </trkpt>
      <trkpt lat="45.8976" lon="-0.88289">
        <ele>25</ele>
        <time>2018-06-30T19:43:23.000Z</time>
      </trkpt>
      <trkpt lat="45.8976" lon="-0.88289">
        <ele>25</ele>
        <time>2018-06-30T19:43:24.000Z</time>
      </trkpt>
      <trkpt lat="45.8976" lon="-0.88289">
        <ele>25</ele>
        <time>2018-06-30T19:43:25.000Z</time>
      </trkpt>
      <trkpt lat="45.8976" lon="-0.88289">
        <ele>25</ele>
        <time>2018-06-30T19:43:26.000Z</time>
      </trkpt>
      <trkpt lat="45.89761" lon="-0.88289">
        <ele>25</ele>
        <time>2018-06-30T19:43:27.000Z</time>
      </trkpt>
      <trkpt lat="45.89761" lon="-0.88289">
        <ele>25</ele>
        <time>2018-06-30T19:43:28.000Z</time>
      </trkpt>
      <trkpt lat="45.89761" lon="-0.88289">
        <ele>25</ele>
        <time>2018-06-30T19:43:29.000Z</time>
      </trkpt>
      <trkpt lat="45.89761" lon="-0.88288">
        <ele>26</ele>
        <time>2018-06-30T19:43:30.000Z</time>
      </trkpt>
      <trkpt lat="45.89761" lon="-0.88288">
        <ele>26</ele>
        <time>2018-06-30T19:43:31.000Z</time>
      </trkpt>
      <trkpt lat="45.89761" lon="-0.88288">
        <ele>26</ele>
        <time>2018-06-30T19:43:32.000Z</time>
      </trkpt>
      <trkpt lat="45.89761" lon="-0.88288">
        <ele>27</ele>
        <time>2018-06-30T19:43:33.000Z</time>
      </trkpt>
      <trkpt lat="45.89762" lon="-0.88288">
        <ele>27</ele>
        <time>2018-06-30T19:43:34.000Z</time>
      </trkpt>
      <trkpt lat="45.89762" lon="-0.88288">
        <ele>27</ele>
        <time>2018-06-30T19:43:35.000Z</time>
      </trkpt>
      <trkpt lat="45.89762" lon="-0.88288">
        <ele>27</ele>
        <time>2018-06-30T19:43:36.000Z</time>
      </trkpt>
      <trkpt lat="45.89762" lon="-0.88288">
        <ele>27</ele>
        <time>2018-06-30T19:43:37.000Z</time>
      </trkpt>
      <trkpt lat="45.89762" lon="-0.88288">
        <ele>27</ele>
        <time>2018-06-30T19:43:38.000Z</time>
      </trkpt>
      <trkpt lat="45.89762" lon="-0.88288">
        <ele>27</ele>
        <time>2018-06-30T19:43:39.000Z</time>
      </trkpt>
      <trkpt lat="45.89762" lon="-0.88288">
        <ele>26</ele>
        <time>2018-06-30T19:43:40.000Z</time>
      </trkpt>
      <trkpt lat="45.89762" lon="-0.88288">
        <ele>26</ele>
        <time>2018-06-30T19:43:41.000Z</time>
      </trkpt>
      <trkpt lat="45.89762" lon="-0.88288">
        <ele>26</ele>
        <time>2018-06-30T19:43:42.000Z</time>
      </trkpt>
      <trkpt lat="45.89762" lon="-0.88288">
        <ele>26</ele>
        <time>2018-06-30T19:43:43.000Z</time>
      </trkpt>
      <trkpt lat="45.89762" lon="-0.88288">
        <ele>26</ele>
        <time>2018-06-30T19:43:44.000Z</time>
      </trkpt>
      <trkpt lat="45.89762" lon="-0.88288">
        <ele>26</ele>
        <time>2018-06-30T19:43:45.000Z</time>
      </trkpt>
      <trkpt lat="45.89762" lon="-0.88288">
        <ele>26</ele>
        <time>2018-06-30T19:43:46.000Z</time>
      </trkpt>
      <trkpt lat="45.89762" lon="-0.88288">
        <ele>26</ele>
        <time>2018-06-30T19:43:47.000Z</time>
      </trkpt>
      <trkpt lat="45.89762" lon="-0.88288">
        <ele>26</ele>
        <time>2018-06-30T19:43:48.000Z</time>
      </trkpt>
      <trkpt lat="45.89762" lon="-0.88288">
        <ele>26</ele>
        <time>2018-06-30T19:43:49.000Z</time>
      </trkpt>
      <trkpt lat="45.89762" lon="-0.88288">
        <ele>26</ele>
        <time>2018-06-30T19:43:50.000Z</time>
      </trkpt>
      <trkpt lat="45.89762" lon="-0.88288">
        <ele>26</ele>
        <time>2018-06-30T19:43:51.000Z</time>
      </trkpt>
      <trkpt lat="45.89762" lon="-0.88288">
        <ele>26</ele>
        <time>2018-06-30T19:43:52.000Z</time>
      </trkpt>
      <trkpt lat="45.89762" lon="-0.88288">
        <ele>26</ele>
        <time>2018-06-30T19:43:53.000Z</time>
      </trkpt>
      <trkpt lat="45.89762" lon="-0.88288">
        <ele>26</ele>
        <time>2018-06-30T19:43:54.000Z</time>
      </trkpt>
      <trkpt lat="45.89762" lon="-0.88288">
        <ele>26</ele>
        <time>2018-06-30T19:43:55.000Z</time>
      </trkpt>
      <trkpt lat="45.89762" lon="-0.88288">
        <ele>26</ele>
        <time>2018-06-30T19:43:56.000Z</time>
      </trkpt>
      <trkpt lat="45.89762" lon="-0.88288">
        <ele>26</ele>
        <time>2018-06-30T19:43:57.000Z</time>
      </trkpt>
      <trkpt lat="45.89762" lon="-0.88288">
        <ele>25</ele>
        <time>2018-06-30T19:43:58.000Z</time>
      </trkpt>
      <trkpt lat="45.89762" lon="-0.88288">
        <ele>25</ele>
        <time>2018-06-30T19:43:59.000Z</time>
      </trkpt>
      <trkpt lat="45.89762" lon="-0.88288">
        <ele>25</ele>
        <time>2018-06-30T19:44:00.000Z</time>
      </trkpt>
      <trkpt lat="45.89761" lon="-0.88288">
        <ele>24</ele>
        <time>2018-06-30T19:44:01.000Z</time>
      </trkpt>
      <trkpt lat="45.89761" lon="-0.88288">
        <ele>24</ele>
        <time>2018-06-30T19:44:02.000Z</time>
      </trkpt>
      <trkpt lat="45.89761" lon="-0.88288">
        <ele>24</ele>
        <time>2018-06-30T19:44:03.000Z</time>
      </trkpt>
      <trkpt lat="45.89761" lon="-0.88288">
        <ele>24</ele>
        <time>2018-06-30T19:44:04.000Z</time>
      </trkpt>
      <trkpt lat="45.89761" lon="-0.88288">
        <ele>24</ele>
        <time>2018-06-30T19:44:05.000Z</time>
      </trkpt>
      <trkpt lat="45.89761" lon="-0.88288">
        <ele>24</ele>
        <time>2018-06-30T19:44:06.000Z</time>
      </trkpt>
      <trkpt lat="45.89761" lon="-0.88288">
        <ele>24</ele>
        <time>2018-06-30T19:44:07.000Z</time>
      </trkpt>
      <trkpt lat="45.89761" lon="-0.88288">
        <ele>24</ele>
        <time>2018-06-30T19:44:08.000Z</time>
      </trkpt>
      <trkpt lat="45.89761" lon="-0.88288">
        <ele>24</ele>
        <time>2018-06-30T19:44:09.000Z</time>
      </trkpt>
      <trkpt lat="45.89761" lon="-0.88288">
        <ele>24</ele>
        <time>2018-06-30T19:44:10.000Z</time>
      </trkpt>
      <trkpt lat="45.89761" lon="-0.88288">
        <ele>24</ele>
        <time>2018-06-30T19:44:11.000Z</time>
      </trkpt>
      <trkpt lat="45.89761" lon="-0.88289">
        <ele>24</ele>
        <time>2018-06-30T19:44:12.000Z</time>
      </trkpt>
      <trkpt lat="45.89761" lon="-0.88289">
        <ele>24</ele>
        <time>2018-06-30T19:44:13.000Z</time>
      </trkpt>
      <trkpt lat="45.89761" lon="-0.88289">
        <ele>24</ele>
        <time>2018-06-30T19:44:14.000Z</time>
      </trkpt>
      <trkpt lat="45.89761" lon="-0.88289">
        <ele>24</ele>
        <time>2018-06-30T19:44:15.000Z</time>
      </trkpt>
      <trkpt lat="45.89761" lon="-0.88289">
        <ele>24</ele>
        <time>2018-06-30T19:44:16.000Z</time>
      </trkpt>
      <trkpt lat="45.89761" lon="-0.88289">
        <ele>24</ele>
        <time>2018-06-30T19:44:17.000Z</time>
      </trkpt>
      <trkpt lat="45.89761" lon="-0.88289">
        <ele>24</ele>
        <time>2018-06-30T19:44:18.000Z</time>
      </trkpt>
      <trkpt lat="45.89761" lon="-0.8829">
        <ele>25</ele>
        <time>2018-06-30T19:44:19.000Z</time>
      </trkpt>
      <trkpt lat="45.89761" lon="-0.8829">
        <ele>25</ele>
        <time>2018-06-30T19:44:20.000Z</time>
      </trkpt>
      <trkpt lat="45.89761" lon="-0.8829">
        <ele>25</ele>
        <time>2018-06-30T19:44:21.000Z</time>
      </trkpt>
      <trkpt lat="45.89761" lon="-0.8829">
        <ele>25</ele>
        <time>2018-06-30T19:44:22.000Z</time>
      </trkpt>
      <trkpt lat="45.89761" lon="-0.8829">
        <ele>24</ele>
        <time>2018-06-30T19:44:23.000Z</time>
      </trkpt>
      <trkpt lat="45.89761" lon="-0.8829">
        <ele>24</ele>
        <time>2018-06-30T19:44:24.000Z</time>
      </trkpt>
      <trkpt lat="45.89761" lon="-0.8829">
        <ele>24</ele>
        <time>2018-06-30T19:44:25.000Z</time>
      </trkpt>
      <trkpt lat="45.89761" lon="-0.8829">
        <ele>24</ele>
        <time>2018-06-30T19:44:26.000Z</time>
      </trkpt>
      <trkpt lat="45.89762" lon="-0.8829">
        <ele>24</ele>
        <time>2018-06-30T19:44:27.000Z</time>
      </trkpt>
      <trkpt lat="45.89762" lon="-0.8829">
        <ele>24</ele>
        <time>2018-06-30T19:44:28.000Z</time>
      </trkpt>
      <trkpt lat="45.89762" lon="-0.8829">
        <ele>23</ele>
        <time>2018-06-30T19:44:29.000Z</time>
      </trkpt>
      <trkpt lat="45.89762" lon="-0.8829">
        <ele>23</ele>
        <time>2018-06-30T19:44:30.000Z</time>
      </trkpt>
      <trkpt lat="45.89762" lon="-0.8829">
        <ele>23</ele>
        <time>2018-06-30T19:44:31.000Z</time>
      </trkpt>
      <trkpt lat="45.89762" lon="-0.8829">
        <ele>23</ele>
        <time>2018-06-30T19:44:32.000Z</time>
      </trkpt>
      <trkpt lat="45.89762" lon="-0.8829">
        <ele>23</ele>
        <time>2018-06-30T19:44:33.000Z</time>
      </trkpt>
      <trkpt lat="45.89762" lon="-0.88291">
        <ele>23</ele>
        <time>2018-06-30T19:44:34.000Z</time>
      </trkpt>
      <trkpt lat="45.89762" lon="-0.88291">
        <ele>23</ele>
        <time>2018-06-30T19:44:35.000Z</time>
      </trkpt>
      <trkpt lat="45.89762" lon="-0.88291">
        <ele>23</ele>
        <time>2018-06-30T19:44:36.000Z</time>
      </trkpt>
      <trkpt lat="45.89762" lon="-0.8829">
        <ele>23</ele>
        <time>2018-06-30T19:44:37.000Z</time>
      </trkpt>
      <trkpt lat="45.89762" lon="-0.8829">
        <ele>23</ele>
        <time>2018-06-30T19:44:38.000Z</time>
      </trkpt>
      <trkpt lat="45.89762" lon="-0.8829">
        <ele>23</ele>
        <time>2018-06-30T19:44:39.000Z</time>
      </trkpt>
      <trkpt lat="45.89762" lon="-0.8829">
        <ele>23</ele>
        <time>2018-06-30T19:44:40.000Z</time>
      </trkpt>
      <trkpt lat="45.89762" lon="-0.8829">
        <ele>24</ele>
        <time>2018-06-30T19:44:41.000Z</time>
      </trkpt>
      <trkpt lat="45.89762" lon="-0.88289">
        <ele>24</ele>
        <time>2018-06-30T19:44:42.000Z</time>
      </trkpt>
      <trkpt lat="45.89761" lon="-0.88289">
        <ele>24</ele>
        <time>2018-06-30T19:44:43.000Z</time>
      </trkpt>
      <trkpt lat="45.89761" lon="-0.88289">
        <ele>24</ele>
        <time>2018-06-30T19:44:44.000Z</time>
      </trkpt>
      <trkpt lat="45.89761" lon="-0.88289">
        <ele>24</ele>
        <time>2018-06-30T19:44:45.000Z</time>
      </trkpt>
      <trkpt lat="45.89761" lon="-0.88289">
        <ele>24</ele>
        <time>2018-06-30T19:44:46.000Z</time>
      </trkpt>
      <trkpt lat="45.89761" lon="-0.88289">
        <ele>24</ele>
        <time>2018-06-30T19:44:47.000Z</time>
      </trkpt>
      <trkpt lat="45.89761" lon="-0.88289">
        <ele>24</ele>
        <time>2018-06-30T19:44:48.000Z</time>
      </trkpt>
      <trkpt lat="45.89761" lon="-0.88289">
        <ele>24</ele>
        <time>2018-06-30T19:44:49.000Z</time>
      </trkpt>
      <trkpt lat="45.89761" lon="-0.88289">
        <ele>24</ele>
        <time>2018-06-30T19:44:50.000Z</time>
      </trkpt>
      <trkpt lat="45.89761" lon="-0.88289">
        <ele>24</ele>
        <time>2018-06-30T19:44:51.000Z</time>
      </trkpt>
      <trkpt lat="45.89761" lon="-0.88288">
        <ele>24</ele>
        <time>2018-06-30T19:44:52.000Z</time>
      </trkpt>
      <trkpt lat="45.89761" lon="-0.88288">
        <ele>24</ele>
        <time>2018-06-30T19:44:53.000Z</time>
      </trkpt>
      <trkpt lat="45.89761" lon="-0.88288">
        <ele>24</ele>
        <time>2018-06-30T19:44:54.000Z</time>
      </trkpt>
      <trkpt lat="45.89761" lon="-0.88288">
        <ele>24</ele>
        <time>2018-06-30T19:44:55.000Z</time>
      </trkpt>
      <trkpt lat="45.89761" lon="-0.88288">
        <ele>25</ele>
        <time>2018-06-30T19:44:56.000Z</time>
      </trkpt>
      <trkpt lat="45.89761" lon="-0.88288">
        <ele>25</ele>
        <time>2018-06-30T19:44:57.000Z</time>
      </trkpt>
      <trkpt lat="45.89761" lon="-0.88287">
        <ele>25</ele>
        <time>2018-06-30T19:44:58.000Z</time>
      </trkpt>
      <trkpt lat="45.89761" lon="-0.88287">
        <ele>25</ele>
        <time>2018-06-30T19:44:59.000Z</time>
      </trkpt>
      <trkpt lat="45.8976" lon="-0.88287">
        <ele>25</ele>
        <time>2018-06-30T19:45:00.000Z</time>
      </trkpt>
      <trkpt lat="45.8976" lon="-0.88287">
        <ele>25</ele>
        <time>2018-06-30T19:45:01.000Z</time>
      </trkpt>
      <trkpt lat="45.8976" lon="-0.88287">
        <ele>25</ele>
        <time>2018-06-30T19:45:02.000Z</time>
      </trkpt>
      <trkpt lat="45.8976" lon="-0.88287">
        <ele>26</ele>
        <time>2018-06-30T19:45:03.000Z</time>
      </trkpt>
      <trkpt lat="45.8976" lon="-0.88286">
        <ele>26</ele>
        <time>2018-06-30T19:45:04.000Z</time>
      </trkpt>
      <trkpt lat="45.8976" lon="-0.88286">
        <ele>26</ele>
        <time>2018-06-30T19:45:05.000Z</time>
      </trkpt>
      <trkpt lat="45.8976" lon="-0.88286">
        <ele>26</ele>
        <time>2018-06-30T19:45:06.000Z</time>
      </trkpt>
      <trkpt lat="45.8976" lon="-0.88286">
        <ele>26</ele>
        <time>2018-06-30T19:45:07.000Z</time>
      </trkpt>
      <trkpt lat="45.8976" lon="-0.88286">
        <ele>26</ele>
        <time>2018-06-30T19:45:08.000Z</time>
      </trkpt>
      <trkpt lat="45.8976" lon="-0.88286">
        <ele>26</ele>
        <time>2018-06-30T19:45:09.000Z</time>
      </trkpt>
      <trkpt lat="45.89759" lon="-0.88285">
        <ele>26</ele>
        <time>2018-06-30T19:45:10.000Z</time>
      </trkpt>
      <trkpt lat="45.89759" lon="-0.88285">
        <ele>26</ele>
        <time>2018-06-30T19:45:11.000Z</time>
      </trkpt>
      <trkpt lat="45.89759" lon="-0.88285">
        <ele>27</ele>
        <time>2018-06-30T19:45:12.000Z</time>
      </trkpt>
      <trkpt lat="45.89759" lon="-0.88285">
        <ele>27</ele>
        <time>2018-06-30T19:45:13.000Z</time>
      </trkpt>
      <trkpt lat="45.89759" lon="-0.88285">
        <ele>27</ele>
        <time>2018-06-30T19:45:14.000Z</time>
      </trkpt>
      <trkpt lat="45.89759" lon="-0.88285">
        <ele>27</ele>
        <time>2018-06-30T19:45:15.000Z</time>
      </trkpt>
      <trkpt lat="45.89759" lon="-0.88285">
        <ele>27</ele>
        <time>2018-06-30T19:45:16.000Z</time>
      </trkpt>
      <trkpt lat="45.89759" lon="-0.88285">
        <ele>27</ele>
        <time>2018-06-30T19:45:17.000Z</time>
      </trkpt>
      <trkpt lat="45.89759" lon="-0.88286">
        <ele>27</ele>
        <time>2018-06-30T19:45:18.000Z</time>
      </trkpt>
      <trkpt lat="45.89759" lon="-0.88285">
        <ele>27</ele>
        <time>2018-06-30T19:45:19.000Z</time>
      </trkpt>
      <trkpt lat="45.8976" lon="-0.88285">
        <ele>27</ele>
        <time>2018-06-30T19:45:20.000Z</time>
      </trkpt>
      <trkpt lat="45.8976" lon="-0.88285">
        <ele>28</ele>
        <time>2018-06-30T19:45:21.000Z</time>
      </trkpt>
      <trkpt lat="45.8976" lon="-0.88285">
        <ele>28</ele>
        <time>2018-06-30T19:45:22.000Z</time>
      </trkpt>
      <trkpt lat="45.8976" lon="-0.88285">
        <ele>28</ele>
        <time>2018-06-30T19:45:23.000Z</time>
      </trkpt>
      <trkpt lat="45.8976" lon="-0.88285">
        <ele>28</ele>
        <time>2018-06-30T19:45:24.000Z</time>
      </trkpt>
      <trkpt lat="45.8976" lon="-0.88285">
        <ele>28</ele>
        <time>2018-06-30T19:45:25.000Z</time>
      </trkpt>
      <trkpt lat="45.8976" lon="-0.88285">
        <ele>28</ele>
        <time>2018-06-30T19:45:26.000Z</time>
      </trkpt>
      <trkpt lat="45.89761" lon="-0.88285">
        <ele>28</ele>
        <time>2018-06-30T19:45:27.000Z</time>
      </trkpt>
      <trkpt lat="45.89761" lon="-0.88285">
        <ele>28</ele>
        <time>2018-06-30T19:45:28.000Z</time>
      </trkpt>
      <trkpt lat="45.89761" lon="-0.88285">
        <ele>28</ele>
        <time>2018-06-30T19:45:29.000Z</time>
      </trkpt>
      <trkpt lat="45.89761" lon="-0.88285">
        <ele>28</ele>
        <time>2018-06-30T19:45:30.000Z</time>
      </trkpt>
      <trkpt lat="45.89761" lon="-0.88285">
        <ele>28</ele>
        <time>2018-06-30T19:45:31.000Z</time>
      </trkpt>
      <trkpt lat="45.89761" lon="-0.88285">
        <ele>28</ele>
        <time>2018-06-30T19:45:32.000Z</time>
      </trkpt>
      <trkpt lat="45.89761" lon="-0.88285">
        <ele>28</ele>
        <time>2018-06-30T19:45:33.000Z</time>
      </trkpt>
      <trkpt lat="45.89761" lon="-0.88285">
        <ele>28</ele>
        <time>2018-06-30T19:45:34.000Z</time>
      </trkpt>
      <trkpt lat="45.89761" lon="-0.88285">
        <ele>28</ele>
        <time>2018-06-30T19:45:35.000Z</time>
      </trkpt>
      <trkpt lat="45.89761" lon="-0.88285">
        <ele>28</ele>
        <time>2018-06-30T19:45:36.000Z</time>
      </trkpt>
      <trkpt lat="45.89761" lon="-0.88285">
        <ele>28</ele>
        <time>2018-06-30T19:45:37.000Z</time>
      </trkpt>
      <trkpt lat="45.89761" lon="-0.88285">
        <ele>28</ele>
        <time>2018-06-30T19:45:38.000Z</time>
      </trkpt>
      <trkpt lat="45.89761" lon="-0.88285">
        <ele>28</ele>
        <time>2018-06-30T19:45:39.000Z</time>
      </trkpt>
      <trkpt lat="45.89761" lon="-0.88285">
        <ele>28</ele>
        <time>2018-06-30T19:45:40.000Z</time>
      </trkpt>
      <trkpt lat="45.89761" lon="-0.88286">
        <ele>27</ele>
        <time>2018-06-30T19:45:41.000Z</time>
      </trkpt>
      <trkpt lat="45.89761" lon="-0.88286">
        <ele>27</ele>
        <time>2018-06-30T19:45:42.000Z</time>
      </trkpt>
      <trkpt lat="45.89761" lon="-0.88286">
        <ele>27</ele>
        <time>2018-06-30T19:45:43.000Z</time>
      </trkpt>
      <trkpt lat="45.89761" lon="-0.88286">
        <ele>27</ele>
        <time>2018-06-30T19:45:44.000Z</time>
      </trkpt>
      <trkpt lat="45.89761" lon="-0.88286">
        <ele>27</ele>
        <time>2018-06-30T19:45:45.000Z</time>
      </trkpt>
      <trkpt lat="45.8976" lon="-0.88286">
        <ele>26</ele>
        <time>2018-06-30T19:45:46.000Z</time>
      </trkpt>
      <trkpt lat="45.89761" lon="-0.88286">
        <ele>26</ele>
        <time>2018-06-30T19:45:47.000Z</time>
      </trkpt>
      <trkpt lat="45.89761" lon="-0.88286">
        <ele>25</ele>
        <time>2018-06-30T19:45:48.000Z</time>
      </trkpt>
      <trkpt lat="45.89761" lon="-0.88286">
        <ele>25</ele>
        <time>2018-06-30T19:45:49.000Z</time>
      </trkpt>
      <trkpt lat="45.89761" lon="-0.88286">
        <ele>25</ele>
        <time>2018-06-30T19:45:50.000Z</time>
      </trkpt>
      <trkpt lat="45.89761" lon="-0.88286">
        <ele>25</ele>
        <time>2018-06-30T19:45:51.000Z</time>
      </trkpt>
      <trkpt lat="45.89761" lon="-0.88287">
        <ele>25</ele>
        <time>2018-06-30T19:45:52.000Z</time>
      </trkpt>
      <trkpt lat="45.89761" lon="-0.88287">
        <ele>25</ele>
        <time>2018-06-30T19:45:53.000Z</time>
      </trkpt>
      <trkpt lat="45.89761" lon="-0.88287">
        <ele>25</ele>
        <time>2018-06-30T19:45:54.000Z</time>
      </trkpt>
      <trkpt lat="45.89761" lon="-0.88287">
        <ele>25</ele>
        <time>2018-06-30T19:45:55.000Z</time>
      </trkpt>
      <trkpt lat="45.89761" lon="-0.88287">
        <ele>25</ele>
        <time>2018-06-30T19:45:56.000Z</time>
      </trkpt>
      <trkpt lat="45.89761" lon="-0.88288">
        <ele>24</ele>
        <time>2018-06-30T19:45:57.000Z</time>
      </trkpt>
      <trkpt lat="45.89761" lon="-0.88288">
        <ele>24</ele>
        <time>2018-06-30T19:45:58.000Z</time>
      </trkpt>
      <trkpt lat="45.89761" lon="-0.88288">
        <ele>25</ele>
        <time>2018-06-30T19:45:59.000Z</time>
      </trkpt>
      <trkpt lat="45.89761" lon="-0.88288">
        <ele>25</ele>
        <time>2018-06-30T19:46:00.000Z</time>
      </trkpt>
      <trkpt lat="45.89762" lon="-0.88288">
        <ele>25</ele>
        <time>2018-06-30T19:46:01.000Z</time>
      </trkpt>
      <trkpt lat="45.89762" lon="-0.88288">
        <ele>25</ele>
        <time>2018-06-30T19:46:02.000Z</time>
      </trkpt>
      <trkpt lat="45.89762" lon="-0.88288">
        <ele>25</ele>
        <time>2018-06-30T19:46:03.000Z</time>
      </trkpt>
      <trkpt lat="45.89762" lon="-0.88288">
        <ele>24</ele>
        <time>2018-06-30T19:46:04.000Z</time>
      </trkpt>
      <trkpt lat="45.89762" lon="-0.88288">
        <ele>24</ele>
        <time>2018-06-30T19:46:05.000Z</time>
      </trkpt>
      <trkpt lat="45.89762" lon="-0.88288">
        <ele>24</ele>
        <time>2018-06-30T19:46:06.000Z</time>
      </trkpt>
      <trkpt lat="45.89762" lon="-0.88288">
        <ele>24</ele>
        <time>2018-06-30T19:46:07.000Z</time>
      </trkpt>
      <trkpt lat="45.89762" lon="-0.88288">
        <ele>24</ele>
        <time>2018-06-30T19:46:08.000Z</time>
      </trkpt>
      <trkpt lat="45.89762" lon="-0.88288">
        <ele>24</ele>
        <time>2018-06-30T19:46:09.000Z</time>
      </trkpt>
      <trkpt lat="45.89762" lon="-0.88288">
        <ele>24</ele>
        <time>2018-06-30T19:46:10.000Z</time>
      </trkpt>
      <trkpt lat="45.89762" lon="-0.88287">
        <ele>24</ele>
        <time>2018-06-30T19:46:11.000Z</time>
      </trkpt>
      <trkpt lat="45.89762" lon="-0.88287">
        <ele>24</ele>
        <time>2018-06-30T19:46:12.000Z</time>
      </trkpt>
      <trkpt lat="45.89762" lon="-0.88287">
        <ele>24</ele>
        <time>2018-06-30T19:46:13.000Z</time>
      </trkpt>
      <trkpt lat="45.89762" lon="-0.88287">
        <ele>25</ele>
        <time>2018-06-30T19:46:14.000Z</time>
      </trkpt>
      <trkpt lat="45.89762" lon="-0.88286">
        <ele>24</ele>
        <time>2018-06-30T19:46:15.000Z</time>
      </trkpt>
      <trkpt lat="45.89762" lon="-0.88286">
        <ele>24</ele>
        <time>2018-06-30T19:46:16.000Z</time>
      </trkpt>
      <trkpt lat="45.89762" lon="-0.88285">
        <ele>24</ele>
        <time>2018-06-30T19:46:17.000Z</time>
      </trkpt>
      <trkpt lat="45.89762" lon="-0.88284">
        <ele>24</ele>
        <time>2018-06-30T19:46:18.000Z</time>
      </trkpt>
      <trkpt lat="45.89762" lon="-0.88282">
        <ele>24</ele>
        <time>2018-06-30T19:46:19.000Z</time>
      </trkpt>
      <trkpt lat="45.89762" lon="-0.8828">
        <ele>24</ele>
        <time>2018-06-30T19:46:20.000Z</time>
      </trkpt>
      <trkpt lat="45.89762" lon="-0.88279">
        <ele>24</ele>
        <time>2018-06-30T19:46:21.000Z</time>
      </trkpt>
      <trkpt lat="45.89762" lon="-0.88277">
        <ele>24</ele>
        <time>2018-06-30T19:46:22.000Z</time>
      </trkpt>
      <trkpt lat="45.89762" lon="-0.88276">
        <ele>24</ele>
        <time>2018-06-30T19:46:23.000Z</time>
      </trkpt>
      <trkpt lat="45.89762" lon="-0.88275">
        <ele>24</ele>
        <time>2018-06-30T19:46:24.000Z</time>
      </trkpt>
      <trkpt lat="45.89762" lon="-0.88273">
        <ele>24</ele>
        <time>2018-06-30T19:46:25.000Z</time>
      </trkpt>
      <trkpt lat="45.89761" lon="-0.88271">
        <ele>23</ele>
        <time>2018-06-30T19:46:26.000Z</time>
      </trkpt>
      <trkpt lat="45.89762" lon="-0.8827">
        <ele>23</ele>
        <time>2018-06-30T19:46:27.000Z</time>
      </trkpt>
      <trkpt lat="45.89762" lon="-0.88268">
        <ele>23</ele>
        <time>2018-06-30T19:46:28.000Z</time>
      </trkpt>
      <trkpt lat="45.89762" lon="-0.88267">
        <ele>23</ele>
        <time>2018-06-30T19:46:29.000Z</time>
      </trkpt>
      <trkpt lat="45.89762" lon="-0.88265">
        <ele>23</ele>
        <time>2018-06-30T19:46:30.000Z</time>
      </trkpt>
      <trkpt lat="45.89762" lon="-0.88264">
        <ele>23</ele>
        <time>2018-06-30T19:46:31.000Z</time>
      </trkpt>
      <trkpt lat="45.89762" lon="-0.88262">
        <ele>22</ele>
        <time>2018-06-30T19:46:32.000Z</time>
      </trkpt>
      <trkpt lat="45.89762" lon="-0.88261">
        <ele>22</ele>
        <time>2018-06-30T19:46:33.000Z</time>
      </trkpt>
      <trkpt lat="45.89762" lon="-0.88259">
        <ele>22</ele>
        <time>2018-06-30T19:46:34.000Z</time>
      </trkpt>
      <trkpt lat="45.89762" lon="-0.88258">
        <ele>22</ele>
        <time>2018-06-30T19:46:35.000Z</time>
      </trkpt>
      <trkpt lat="45.89762" lon="-0.88256">
        <ele>22</ele>
        <time>2018-06-30T19:46:36.000Z</time>
      </trkpt>
      <trkpt lat="45.89763" lon="-0.88255">
        <ele>22</ele>
        <time>2018-06-30T19:46:37.000Z</time>
      </trkpt>
      <trkpt lat="45.89763" lon="-0.88253">
        <ele>22</ele>
        <time>2018-06-30T19:46:38.000Z</time>
      </trkpt>
      <trkpt lat="45.89763" lon="-0.88252">
        <ele>22</ele>
        <time>2018-06-30T19:46:39.000Z</time>
      </trkpt>
      <trkpt lat="45.89763" lon="-0.8825">
        <ele>22</ele>
        <time>2018-06-30T19:46:40.000Z</time>
      </trkpt>
      <trkpt lat="45.89763" lon="-0.88248">
        <ele>22</ele>
        <time>2018-06-30T19:46:41.000Z</time>
      </trkpt>
      <trkpt lat="45.89762" lon="-0.88247">
        <ele>22</ele>
        <time>2018-06-30T19:46:42.000Z</time>
      </trkpt>
      <trkpt lat="45.89762" lon="-0.88246">
        <ele>22</ele>
        <time>2018-06-30T19:46:43.000Z</time>
      </trkpt>
      <trkpt lat="45.89761" lon="-0.88244">
        <ele>21</ele>
        <time>2018-06-30T19:46:44.000Z</time>
      </trkpt>
      <trkpt lat="45.89761" lon="-0.88243">
        <ele>21</ele>
        <time>2018-06-30T19:46:45.000Z</time>
      </trkpt>
      <trkpt lat="45.8976" lon="-0.88242">
        <ele>21</ele>
        <time>2018-06-30T19:46:46.000Z</time>
      </trkpt>
      <trkpt lat="45.8976" lon="-0.8824">
        <ele>21</ele>
        <time>2018-06-30T19:46:47.000Z</time>
      </trkpt>
      <trkpt lat="45.89759" lon="-0.88239">
        <ele>21</ele>
        <time>2018-06-30T19:46:48.000Z</time>
      </trkpt>
      <trkpt lat="45.89759" lon="-0.88238">
        <ele>21</ele>
        <time>2018-06-30T19:46:49.000Z</time>
      </trkpt>
      <trkpt lat="45.89758" lon="-0.88236">
        <ele>21</ele>
        <time>2018-06-30T19:46:50.000Z</time>
      </trkpt>
      <trkpt lat="45.89757" lon="-0.88235">
        <ele>21</ele>
        <time>2018-06-30T19:46:51.000Z</time>
      </trkpt>
      <trkpt lat="45.89757" lon="-0.88234">
        <ele>21</ele>
        <time>2018-06-30T19:46:52.000Z</time>
      </trkpt>
      <trkpt lat="45.89756" lon="-0.88232">
        <ele>21</ele>
        <time>2018-06-30T19:46:53.000Z</time>
      </trkpt>
      <trkpt lat="45.89756" lon="-0.88231">
        <ele>21</ele>
        <time>2018-06-30T19:46:54.000Z</time>
      </trkpt>
      <trkpt lat="45.89755" lon="-0.8823">
        <ele>21</ele>
        <time>2018-06-30T19:46:55.000Z</time>
      </trkpt>
      <trkpt lat="45.89754" lon="-0.88228">
        <ele>21</ele>
        <time>2018-06-30T19:46:56.000Z</time>
      </trkpt>
      <trkpt lat="45.89754" lon="-0.88227">
        <ele>21</ele>
        <time>2018-06-30T19:46:57.000Z</time>
      </trkpt>
      <trkpt lat="45.89753" lon="-0.88225">
        <ele>21</ele>
        <time>2018-06-30T19:46:58.000Z</time>
      </trkpt>
      <trkpt lat="45.89752" lon="-0.88224">
        <ele>22</ele>
        <time>2018-06-30T19:46:59.000Z</time>
      </trkpt>
      <trkpt lat="45.89752" lon="-0.88222">
        <ele>22</ele>
        <time>2018-06-30T19:47:00.000Z</time>
      </trkpt>
      <trkpt lat="45.89751" lon="-0.88221">
        <ele>22</ele>
        <time>2018-06-30T19:47:01.000Z</time>
      </trkpt>
      <trkpt lat="45.8975" lon="-0.8822">
        <ele>22</ele>
        <time>2018-06-30T19:47:02.000Z</time>
      </trkpt>
      <trkpt lat="45.89749" lon="-0.88218">
        <ele>22</ele>
        <time>2018-06-30T19:47:03.000Z</time>
      </trkpt>
      <trkpt lat="45.89748" lon="-0.88217">
        <ele>22</ele>
        <time>2018-06-30T19:47:04.000Z</time>
      </trkpt>
      <trkpt lat="45.89747" lon="-0.88216">
        <ele>22</ele>
        <time>2018-06-30T19:47:05.000Z</time>
      </trkpt>
      <trkpt lat="45.89746" lon="-0.88214">
        <ele>22</ele>
        <time>2018-06-30T19:47:06.000Z</time>
      </trkpt>
      <trkpt lat="45.89746" lon="-0.88213">
        <ele>22</ele>
        <time>2018-06-30T19:47:07.000Z</time>
      </trkpt>
      <trkpt lat="45.89745" lon="-0.88212">
        <ele>22</ele>
        <time>2018-06-30T19:47:08.000Z</time>
      </trkpt>
      <trkpt lat="45.89744" lon="-0.88211">
        <ele>22</ele>
        <time>2018-06-30T19:47:09.000Z</time>
      </trkpt>
      <trkpt lat="45.89743" lon="-0.88209">
        <ele>22</ele>
        <time>2018-06-30T19:47:10.000Z</time>
      </trkpt>
      <trkpt lat="45.89742" lon="-0.88208">
        <ele>22</ele>
        <time>2018-06-30T19:47:11.000Z</time>
      </trkpt>
      <trkpt lat="45.89741" lon="-0.88207">
        <ele>22</ele>
        <time>2018-06-30T19:47:12.000Z</time>
      </trkpt>
      <trkpt lat="45.8974" lon="-0.88206">
        <ele>22</ele>
        <time>2018-06-30T19:47:13.000Z</time>
      </trkpt>
      <trkpt lat="45.8974" lon="-0.88204">
        <ele>22</ele>
        <time>2018-06-30T19:47:14.000Z</time>
      </trkpt>
      <trkpt lat="45.89739" lon="-0.88203">
        <ele>22</ele>
        <time>2018-06-30T19:47:15.000Z</time>
      </trkpt>
      <trkpt lat="45.89738" lon="-0.88202">
        <ele>22</ele>
        <time>2018-06-30T19:47:16.000Z</time>
      </trkpt>
      <trkpt lat="45.89737" lon="-0.882">
        <ele>22</ele>
        <time>2018-06-30T19:47:17.000Z</time>
      </trkpt>
      <trkpt lat="45.89735" lon="-0.88198">
        <ele>23</ele>
        <time>2018-06-30T19:47:18.000Z</time>
      </trkpt>
      <trkpt lat="45.89734" lon="-0.88197">
        <ele>23</ele>
        <time>2018-06-30T19:47:19.000Z</time>
      </trkpt>
      <trkpt lat="45.89733" lon="-0.88195">
        <ele>23</ele>
        <time>2018-06-30T19:47:20.000Z</time>
      </trkpt>
      <trkpt lat="45.89733" lon="-0.88193">
        <ele>23</ele>
        <time>2018-06-30T19:47:21.000Z</time>
      </trkpt>
      <trkpt lat="45.89732" lon="-0.88191">
        <ele>24</ele>
        <time>2018-06-30T19:47:22.000Z</time>
      </trkpt>
      <trkpt lat="45.89731" lon="-0.88189">
        <ele>24</ele>
        <time>2018-06-30T19:47:23.000Z</time>
      </trkpt>
      <trkpt lat="45.8973" lon="-0.88187">
        <ele>24</ele>
        <time>2018-06-30T19:47:24.000Z</time>
      </trkpt>
      <trkpt lat="45.89728" lon="-0.88185">
        <ele>24</ele>
        <time>2018-06-30T19:47:25.000Z</time>
      </trkpt>
      <trkpt lat="45.89727" lon="-0.88184">
        <ele>24</ele>
        <time>2018-06-30T19:47:26.000Z</time>
      </trkpt>
      <trkpt lat="45.89726" lon="-0.88182">
        <ele>24</ele>
        <time>2018-06-30T19:47:27.000Z</time>
      </trkpt>
      <trkpt lat="45.89725" lon="-0.88181">
        <ele>24</ele>
        <time>2018-06-30T19:47:28.000Z</time>
      </trkpt>
      <trkpt lat="45.89724" lon="-0.8818">
        <ele>24</ele>
        <time>2018-06-30T19:47:29.000Z</time>
      </trkpt>
      <trkpt lat="45.89723" lon="-0.88179">
        <ele>23</ele>
        <time>2018-06-30T19:47:30.000Z</time>
      </trkpt>
      <trkpt lat="45.89722" lon="-0.88177">
        <ele>23</ele>
        <time>2018-06-30T19:47:31.000Z</time>
      </trkpt>
      <trkpt lat="45.89721" lon="-0.88176">
        <ele>23</ele>
        <time>2018-06-30T19:47:32.000Z</time>
      </trkpt>
      <trkpt lat="45.8972" lon="-0.88175">
        <ele>23</ele>
        <time>2018-06-30T19:47:33.000Z</time>
      </trkpt>
      <trkpt lat="45.89719" lon="-0.88173">
        <ele>23</ele>
        <time>2018-06-30T19:47:34.000Z</time>
      </trkpt>
      <trkpt lat="45.89718" lon="-0.88172">
        <ele>23</ele>
        <time>2018-06-30T19:47:35.000Z</time>
      </trkpt>
      <trkpt lat="45.89718" lon="-0.88171">
        <ele>23</ele>
        <time>2018-06-30T19:47:36.000Z</time>
      </trkpt>
      <trkpt lat="45.89717" lon="-0.8817">
        <ele>22</ele>
        <time>2018-06-30T19:47:37.000Z</time>
      </trkpt>
      <trkpt lat="45.89716" lon="-0.88169">
        <ele>22</ele>
        <time>2018-06-30T19:47:38.000Z</time>
      </trkpt>
      <trkpt lat="45.89715" lon="-0.88167">
        <ele>21</ele>
        <time>2018-06-30T19:47:39.000Z</time>
      </trkpt>
      <trkpt lat="45.89714" lon="-0.88166">
        <ele>21</ele>
        <time>2018-06-30T19:47:40.000Z</time>
      </trkpt>
      <trkpt lat="45.89713" lon="-0.88165">
        <ele>21</ele>
        <time>2018-06-30T19:47:41.000Z</time>
      </trkpt>
      <trkpt lat="45.89713" lon="-0.88163">
        <ele>21</ele>
        <time>2018-06-30T19:47:42.000Z</time>
      </trkpt>
      <trkpt lat="45.89712" lon="-0.88162">
        <ele>21</ele>
        <time>2018-06-30T19:47:43.000Z</time>
      </trkpt>
      <trkpt lat="45.89711" lon="-0.88161">
        <ele>21</ele>
        <time>2018-06-30T19:47:44.000Z</time>
      </trkpt>
      <trkpt lat="45.8971" lon="-0.8816">
        <ele>21</ele>
        <time>2018-06-30T19:47:45.000Z</time>
      </trkpt>
      <trkpt lat="45.89709" lon="-0.88158">
        <ele>21</ele>
        <time>2018-06-30T19:47:46.000Z</time>
      </trkpt>
      <trkpt lat="45.89708" lon="-0.88157">
        <ele>21</ele>
        <time>2018-06-30T19:47:47.000Z</time>
      </trkpt>
      <trkpt lat="45.89708" lon="-0.88156">
        <ele>22</ele>
        <time>2018-06-30T19:47:48.000Z</time>
      </trkpt>
      <trkpt lat="45.89707" lon="-0.88154">
        <ele>22</ele>
        <time>2018-06-30T19:47:49.000Z</time>
      </trkpt>
      <trkpt lat="45.89706" lon="-0.88153">
        <ele>22</ele>
        <time>2018-06-30T19:47:50.000Z</time>
      </trkpt>
      <trkpt lat="45.89705" lon="-0.88152">
        <ele>22</ele>
        <time>2018-06-30T19:47:51.000Z</time>
      </trkpt>
      <trkpt lat="45.89704" lon="-0.88151">
        <ele>22</ele>
        <time>2018-06-30T19:47:52.000Z</time>
      </trkpt>
      <trkpt lat="45.89704" lon="-0.8815">
        <ele>22</ele>
        <time>2018-06-30T19:47:53.000Z</time>
      </trkpt>
      <trkpt lat="45.89703" lon="-0.88149">
        <ele>22</ele>
        <time>2018-06-30T19:47:54.000Z</time>
      </trkpt>
      <trkpt lat="45.89702" lon="-0.88147">
        <ele>22</ele>
        <time>2018-06-30T19:47:55.000Z</time>
      </trkpt>
      <trkpt lat="45.89701" lon="-0.88146">
        <ele>22</ele>
        <time>2018-06-30T19:47:56.000Z</time>
      </trkpt>
      <trkpt lat="45.897" lon="-0.88145">
        <ele>22</ele>
        <time>2018-06-30T19:47:57.000Z</time>
      </trkpt>
      <trkpt lat="45.897" lon="-0.88143">
        <ele>23</ele>
        <time>2018-06-30T19:47:58.000Z</time>
      </trkpt>
      <trkpt lat="45.89699" lon="-0.88141">
        <ele>23</ele>
        <time>2018-06-30T19:47:59.000Z</time>
      </trkpt>
      <trkpt lat="45.89698" lon="-0.8814">
        <ele>23</ele>
        <time>2018-06-30T19:48:00.000Z</time>
      </trkpt>
      <trkpt lat="45.89697" lon="-0.88139">
        <ele>23</ele>
        <time>2018-06-30T19:48:01.000Z</time>
      </trkpt>
      <trkpt lat="45.89697" lon="-0.88138">
        <ele>23</ele>
        <time>2018-06-30T19:48:02.000Z</time>
      </trkpt>
      <trkpt lat="45.89696" lon="-0.88137">
        <ele>23</ele>
        <time>2018-06-30T19:48:03.000Z</time>
      </trkpt>
      <trkpt lat="45.89695" lon="-0.88136">
        <ele>23</ele>
        <time>2018-06-30T19:48:04.000Z</time>
      </trkpt>
      <trkpt lat="45.89694" lon="-0.88135">
        <ele>23</ele>
        <time>2018-06-30T19:48:05.000Z</time>
      </trkpt>
      <trkpt lat="45.89693" lon="-0.88134">
        <ele>23</ele>
        <time>2018-06-30T19:48:06.000Z</time>
      </trkpt>
      <trkpt lat="45.89692" lon="-0.88133">
        <ele>23</ele>
        <time>2018-06-30T19:48:07.000Z</time>
      </trkpt>
      <trkpt lat="45.89691" lon="-0.88132">
        <ele>23</ele>
        <time>2018-06-30T19:48:08.000Z</time>
      </trkpt>
      <trkpt lat="45.89691" lon="-0.88131">
        <ele>23</ele>
        <time>2018-06-30T19:48:09.000Z</time>
      </trkpt>
      <trkpt lat="45.8969" lon="-0.8813">
        <ele>23</ele>
        <time>2018-06-30T19:48:10.000Z</time>
      </trkpt>
      <trkpt lat="45.89689" lon="-0.88129">
        <ele>23</ele>
        <time>2018-06-30T19:48:11.000Z</time>
      </trkpt>
      <trkpt lat="45.89688" lon="-0.88128">
        <ele>23</ele>
        <time>2018-06-30T19:48:12.000Z</time>
      </trkpt>
      <trkpt lat="45.89687" lon="-0.88127">
        <ele>23</ele>
        <time>2018-06-30T19:48:13.000Z</time>
      </trkpt>
      <trkpt lat="45.89686" lon="-0.88126">
        <ele>23</ele>
        <time>2018-06-30T19:48:14.000Z</time>
      </trkpt>
      <trkpt lat="45.89684" lon="-0.88125">
        <ele>22</ele>
        <time>2018-06-30T19:48:15.000Z</time>
      </trkpt>
      <trkpt lat="45.89683" lon="-0.88125">
        <ele>22</ele>
        <time>2018-06-30T19:48:16.000Z</time>
      </trkpt>
      <trkpt lat="45.89682" lon="-0.88124">
        <ele>22</ele>
        <time>2018-06-30T19:48:17.000Z</time>
      </trkpt>
      <trkpt lat="45.89681" lon="-0.88123">
        <ele>22</ele>
        <time>2018-06-30T19:48:18.000Z</time>
      </trkpt>
      <trkpt lat="45.8968" lon="-0.88122">
        <ele>23</ele>
        <time>2018-06-30T19:48:19.000Z</time>
      </trkpt>
      <trkpt lat="45.89679" lon="-0.88121">
        <ele>22</ele>
        <time>2018-06-30T19:48:20.000Z</time>
      </trkpt>
      <trkpt lat="45.89678" lon="-0.88121">
        <ele>22</ele>
        <time>2018-06-30T19:48:21.000Z</time>
      </trkpt>
      <trkpt lat="45.89677" lon="-0.8812">
        <ele>23</ele>
        <time>2018-06-30T19:48:22.000Z</time>
      </trkpt>
      <trkpt lat="45.89675" lon="-0.8812">
        <ele>24</ele>
        <time>2018-06-30T19:48:23.000Z</time>
      </trkpt>
      <trkpt lat="45.89674" lon="-0.8812">
        <ele>23</ele>
        <time>2018-06-30T19:48:24.000Z</time>
      </trkpt>
      <trkpt lat="45.89672" lon="-0.8812">
        <ele>24</ele>
        <time>2018-06-30T19:48:25.000Z</time>
      </trkpt>
      <trkpt lat="45.89671" lon="-0.8812">
        <ele>24</ele>
        <time>2018-06-30T19:48:26.000Z</time>
      </trkpt>
      <trkpt lat="45.8967" lon="-0.88121">
        <ele>24</ele>
        <time>2018-06-30T19:48:27.000Z</time>
      </trkpt>
      <trkpt lat="45.89668" lon="-0.88121">
        <ele>24</ele>
        <time>2018-06-30T19:48:28.000Z</time>
      </trkpt>
      <trkpt lat="45.89667" lon="-0.88121">
        <ele>24</ele>
        <time>2018-06-30T19:48:29.000Z</time>
      </trkpt>
      <trkpt lat="45.89666" lon="-0.88122">
        <ele>24</ele>
        <time>2018-06-30T19:48:30.000Z</time>
      </trkpt>
      <trkpt lat="45.89664" lon="-0.88122">
        <ele>24</ele>
        <time>2018-06-30T19:48:31.000Z</time>
      </trkpt>
      <trkpt lat="45.89663" lon="-0.88123">
        <ele>24</ele>
        <time>2018-06-30T19:48:32.000Z</time>
      </trkpt>
      <trkpt lat="45.89662" lon="-0.88124">
        <ele>24</ele>
        <time>2018-06-30T19:48:33.000Z</time>
      </trkpt>
      <trkpt lat="45.89661" lon="-0.88124">
        <ele>24</ele>
        <time>2018-06-30T19:48:34.000Z</time>
      </trkpt>
      <trkpt lat="45.8966" lon="-0.88125">
        <ele>24</ele>
        <time>2018-06-30T19:48:35.000Z</time>
      </trkpt>
      <trkpt lat="45.89659" lon="-0.88126">
        <ele>24</ele>
        <time>2018-06-30T19:48:36.000Z</time>
      </trkpt>
      <trkpt lat="45.89658" lon="-0.88127">
        <ele>24</ele>
        <time>2018-06-30T19:48:37.000Z</time>
      </trkpt>
      <trkpt lat="45.89657" lon="-0.88128">
        <ele>23</ele>
        <time>2018-06-30T19:48:38.000Z</time>
      </trkpt>
      <trkpt lat="45.89656" lon="-0.88128">
        <ele>23</ele>
        <time>2018-06-30T19:48:39.000Z</time>
      </trkpt>
      <trkpt lat="45.89655" lon="-0.88129">
        <ele>23</ele>
        <time>2018-06-30T19:48:40.000Z</time>
      </trkpt>
      <trkpt lat="45.89654" lon="-0.8813">
        <ele>23</ele>
        <time>2018-06-30T19:48:41.000Z</time>
      </trkpt>
      <trkpt lat="45.89653" lon="-0.88131">
        <ele>22</ele>
        <time>2018-06-30T19:48:42.000Z</time>
      </trkpt>
      <trkpt lat="45.89652" lon="-0.88132">
        <ele>22</ele>
        <time>2018-06-30T19:48:43.000Z</time>
      </trkpt>
      <trkpt lat="45.89651" lon="-0.88133">
        <ele>21</ele>
        <time>2018-06-30T19:48:44.000Z</time>
      </trkpt>
      <trkpt lat="45.8965" lon="-0.88134">
        <ele>21</ele>
        <time>2018-06-30T19:48:45.000Z</time>
      </trkpt>
      <trkpt lat="45.89649" lon="-0.88135">
        <ele>21</ele>
        <time>2018-06-30T19:48:46.000Z</time>
      </trkpt>
      <trkpt lat="45.89648" lon="-0.88136">
        <ele>20</ele>
        <time>2018-06-30T19:48:47.000Z</time>
      </trkpt>
      <trkpt lat="45.89647" lon="-0.88137">
        <ele>20</ele>
        <time>2018-06-30T19:48:48.000Z</time>
      </trkpt>
      <trkpt lat="45.89646" lon="-0.88138">
        <ele>20</ele>
        <time>2018-06-30T19:48:49.000Z</time>
      </trkpt>
      <trkpt lat="45.89645" lon="-0.88138">
        <ele>19</ele>
        <time>2018-06-30T19:48:50.000Z</time>
      </trkpt>
      <trkpt lat="45.89644" lon="-0.88139">
        <ele>20</ele>
        <time>2018-06-30T19:48:51.000Z</time>
      </trkpt>
      <trkpt lat="45.89643" lon="-0.8814">
        <ele>19</ele>
        <time>2018-06-30T19:48:52.000Z</time>
      </trkpt>
      <trkpt lat="45.89642" lon="-0.88141">
        <ele>20</ele>
        <time>2018-06-30T19:48:53.000Z</time>
      </trkpt>
      <trkpt lat="45.89641" lon="-0.88142">
        <ele>19</ele>
        <time>2018-06-30T19:48:54.000Z</time>
      </trkpt>
      <trkpt lat="45.8964" lon="-0.88143">
        <ele>19</ele>
        <time>2018-06-30T19:48:55.000Z</time>
      </trkpt>
      <trkpt lat="45.89639" lon="-0.88143">
        <ele>19</ele>
        <time>2018-06-30T19:48:56.000Z</time>
      </trkpt>
      <trkpt lat="45.89638" lon="-0.88144">
        <ele>19</ele>
        <time>2018-06-30T19:48:57.000Z</time>
      </trkpt>
      <trkpt lat="45.89638" lon="-0.88145">
        <ele>18</ele>
        <time>2018-06-30T19:48:58.000Z</time>
      </trkpt>
      <trkpt lat="45.89637" lon="-0.88146">
        <ele>18</ele>
        <time>2018-06-30T19:48:59.000Z</time>
      </trkpt>
      <trkpt lat="45.89636" lon="-0.88147">
        <ele>18</ele>
        <time>2018-06-30T19:49:00.000Z</time>
      </trkpt>
      <trkpt lat="45.89635" lon="-0.88147">
        <ele>19</ele>
        <time>2018-06-30T19:49:01.000Z</time>
      </trkpt>
      <trkpt lat="45.89634" lon="-0.88148">
        <ele>19</ele>
        <time>2018-06-30T19:49:02.000Z</time>
      </trkpt>
      <trkpt lat="45.89632" lon="-0.88149">
        <ele>19</ele>
        <time>2018-06-30T19:49:03.000Z</time>
      </trkpt>
      <trkpt lat="45.89631" lon="-0.8815">
        <ele>20</ele>
        <time>2018-06-30T19:49:04.000Z</time>
      </trkpt>
      <trkpt lat="45.8963" lon="-0.88151">
        <ele>20</ele>
        <time>2018-06-30T19:49:05.000Z</time>
      </trkpt>
      <trkpt lat="45.89629" lon="-0.88152">
        <ele>21</ele>
        <time>2018-06-30T19:49:06.000Z</time>
      </trkpt>
      <trkpt lat="45.89628" lon="-0.88153">
        <ele>21</ele>
        <time>2018-06-30T19:49:07.000Z</time>
      </trkpt>
      <trkpt lat="45.89627" lon="-0.88154">
        <ele>21</ele>
        <time>2018-06-30T19:49:08.000Z</time>
      </trkpt>
      <trkpt lat="45.89626" lon="-0.88155">
        <ele>21</ele>
        <time>2018-06-30T19:49:09.000Z</time>
      </trkpt>
      <trkpt lat="45.89625" lon="-0.88156">
        <ele>21</ele>
        <time>2018-06-30T19:49:10.000Z</time>
      </trkpt>
      <trkpt lat="45.89624" lon="-0.88157">
        <ele>21</ele>
        <time>2018-06-30T19:49:11.000Z</time>
      </trkpt>
      <trkpt lat="45.89623" lon="-0.88158">
        <ele>20</ele>
        <time>2018-06-30T19:49:12.000Z</time>
      </trkpt>
      <trkpt lat="45.89622" lon="-0.88158">
        <ele>20</ele>
        <time>2018-06-30T19:49:13.000Z</time>
      </trkpt>
      <trkpt lat="45.89621" lon="-0.88159">
        <ele>20</ele>
        <time>2018-06-30T19:49:14.000Z</time>
      </trkpt>
      <trkpt lat="45.8962" lon="-0.8816">
        <ele>20</ele>
        <time>2018-06-30T19:49:15.000Z</time>
      </trkpt>
      <trkpt lat="45.89619" lon="-0.8816">
        <ele>20</ele>
        <time>2018-06-30T19:49:16.000Z</time>
      </trkpt>
      <trkpt lat="45.89618" lon="-0.88161">
        <ele>20</ele>
        <time>2018-06-30T19:49:17.000Z</time>
      </trkpt>
      <trkpt lat="45.89617" lon="-0.88162">
        <ele>20</ele>
        <time>2018-06-30T19:49:18.000Z</time>
      </trkpt>
      <trkpt lat="45.89616" lon="-0.88163">
        <ele>20</ele>
        <time>2018-06-30T19:49:19.000Z</time>
      </trkpt>
      <trkpt lat="45.89615" lon="-0.88164">
        <ele>19</ele>
        <time>2018-06-30T19:49:20.000Z</time>
      </trkpt>
      <trkpt lat="45.89614" lon="-0.88165">
        <ele>19</ele>
        <time>2018-06-30T19:49:21.000Z</time>
      </trkpt>
      <trkpt lat="45.89613" lon="-0.88166">
        <ele>19</ele>
        <time>2018-06-30T19:49:22.000Z</time>
      </trkpt>
      <trkpt lat="45.89612" lon="-0.88167">
        <ele>19</ele>
        <time>2018-06-30T19:49:23.000Z</time>
      </trkpt>
      <trkpt lat="45.89611" lon="-0.88168">
        <ele>19</ele>
        <time>2018-06-30T19:49:24.000Z</time>
      </trkpt>
      <trkpt lat="45.8961" lon="-0.88169">
        <ele>19</ele>
        <time>2018-06-30T19:49:25.000Z</time>
      </trkpt>
      <trkpt lat="45.89609" lon="-0.8817">
        <ele>20</ele>
        <time>2018-06-30T19:49:26.000Z</time>
      </trkpt>
      <trkpt lat="45.89607" lon="-0.88171">
        <ele>20</ele>
        <time>2018-06-30T19:49:27.000Z</time>
      </trkpt>
      <trkpt lat="45.89606" lon="-0.88172">
        <ele>20</ele>
        <time>2018-06-30T19:49:28.000Z</time>
      </trkpt>
      <trkpt lat="45.89605" lon="-0.88173">
        <ele>20</ele>
        <time>2018-06-30T19:49:29.000Z</time>
      </trkpt>
      <trkpt lat="45.89604" lon="-0.88174">
        <ele>21</ele>
        <time>2018-06-30T19:49:30.000Z</time>
      </trkpt>
      <trkpt lat="45.89603" lon="-0.88175">
        <ele>21</ele>
        <time>2018-06-30T19:49:31.000Z</time>
      </trkpt>
      <trkpt lat="45.89602" lon="-0.88176">
        <ele>21</ele>
        <time>2018-06-30T19:49:32.000Z</time>
      </trkpt>
      <trkpt lat="45.89601" lon="-0.88177">
        <ele>20</ele>
        <time>2018-06-30T19:49:33.000Z</time>
      </trkpt>
      <trkpt lat="45.896" lon="-0.88178">
        <ele>20</ele>
        <time>2018-06-30T19:49:34.000Z</time>
      </trkpt>
      <trkpt lat="45.89599" lon="-0.88179">
        <ele>21</ele>
        <time>2018-06-30T19:49:35.000Z</time>
      </trkpt>
      <trkpt lat="45.89598" lon="-0.8818">
        <ele>21</ele>
        <time>2018-06-30T19:49:36.000Z</time>
      </trkpt>
      <trkpt lat="45.89597" lon="-0.88181">
        <ele>21</ele>
        <time>2018-06-30T19:49:37.000Z</time>
      </trkpt>
      <trkpt lat="45.89596" lon="-0.88182">
        <ele>21</ele>
        <time>2018-06-30T19:49:38.000Z</time>
      </trkpt>
      <trkpt lat="45.89595" lon="-0.88184">
        <ele>21</ele>
        <time>2018-06-30T19:49:39.000Z</time>
      </trkpt>
      <trkpt lat="45.89594" lon="-0.88185">
        <ele>22</ele>
        <time>2018-06-30T19:49:40.000Z</time>
      </trkpt>
      <trkpt lat="45.89593" lon="-0.88186">
        <ele>22</ele>
        <time>2018-06-30T19:49:41.000Z</time>
      </trkpt>
      <trkpt lat="45.89592" lon="-0.88187">
        <ele>23</ele>
        <time>2018-06-30T19:49:42.000Z</time>
      </trkpt>
      <trkpt lat="45.89591" lon="-0.88188">
        <ele>23</ele>
        <time>2018-06-30T19:49:43.000Z</time>
      </trkpt>
      <trkpt lat="45.8959" lon="-0.88189">
        <ele>24</ele>
        <time>2018-06-30T19:49:44.000Z</time>
      </trkpt>
      <trkpt lat="45.89588" lon="-0.88191">
        <ele>25</ele>
        <time>2018-06-30T19:49:45.000Z</time>
      </trkpt>
      <trkpt lat="45.89587" lon="-0.88192">
        <ele>25</ele>
        <time>2018-06-30T19:49:46.000Z</time>
      </trkpt>
      <trkpt lat="45.89586" lon="-0.88193">
        <ele>25</ele>
        <time>2018-06-30T19:49:47.000Z</time>
      </trkpt>
      <trkpt lat="45.89585" lon="-0.88194">
        <ele>25</ele>
        <time>2018-06-30T19:49:48.000Z</time>
      </trkpt>
      <trkpt lat="45.89584" lon="-0.88195">
        <ele>25</ele>
        <time>2018-06-30T19:49:49.000Z</time>
      </trkpt>
      <trkpt lat="45.89583" lon="-0.88196">
        <ele>25</ele>
        <time>2018-06-30T19:49:50.000Z</time>
      </trkpt>
      <trkpt lat="45.89582" lon="-0.88197">
        <ele>25</ele>
        <time>2018-06-30T19:49:51.000Z</time>
      </trkpt>
      <trkpt lat="45.89581" lon="-0.88198">
        <ele>25</ele>
        <time>2018-06-30T19:49:52.000Z</time>
      </trkpt>
      <trkpt lat="45.8958" lon="-0.88199">
        <ele>25</ele>
        <time>2018-06-30T19:49:53.000Z</time>
      </trkpt>
      <trkpt lat="45.89579" lon="-0.882">
        <ele>25</ele>
        <time>2018-06-30T19:49:54.000Z</time>
      </trkpt>
      <trkpt lat="45.89578" lon="-0.88201">
        <ele>25</ele>
        <time>2018-06-30T19:49:55.000Z</time>
      </trkpt>
      <trkpt lat="45.89577" lon="-0.88202">
        <ele>25</ele>
        <time>2018-06-30T19:49:56.000Z</time>
      </trkpt>
      <trkpt lat="45.89576" lon="-0.88203">
        <ele>25</ele>
        <time>2018-06-30T19:49:57.000Z</time>
      </trkpt>
      <trkpt lat="45.89575" lon="-0.88204">
        <ele>25</ele>
        <time>2018-06-30T19:49:58.000Z</time>
      </trkpt>
      <trkpt lat="45.89574" lon="-0.88206">
        <ele>25</ele>
        <time>2018-06-30T19:49:59.000Z</time>
      </trkpt>
      <trkpt lat="45.89573" lon="-0.88207">
        <ele>25</ele>
        <time>2018-06-30T19:50:00.000Z</time>
      </trkpt>
      <trkpt lat="45.89572" lon="-0.88208">
        <ele>26</ele>
        <time>2018-06-30T19:50:01.000Z</time>
      </trkpt>
      <trkpt lat="45.89571" lon="-0.88209">
        <ele>26</ele>
        <time>2018-06-30T19:50:02.000Z</time>
      </trkpt>
      <trkpt lat="45.89569" lon="-0.8821">
        <ele>26</ele>
        <time>2018-06-30T19:50:03.000Z</time>
      </trkpt>
      <trkpt lat="45.89568" lon="-0.88211">
        <ele>26</ele>
        <time>2018-06-30T19:50:04.000Z</time>
      </trkpt>
      <trkpt lat="45.89567" lon="-0.88212">
        <ele>26</ele>
        <time>2018-06-30T19:50:05.000Z</time>
      </trkpt>
      <trkpt lat="45.89566" lon="-0.88213">
        <ele>26</ele>
        <time>2018-06-30T19:50:06.000Z</time>
      </trkpt>
      <trkpt lat="45.89565" lon="-0.88215">
        <ele>26</ele>
        <time>2018-06-30T19:50:07.000Z</time>
      </trkpt>
      <trkpt lat="45.89565" lon="-0.88216">
        <ele>26</ele>
        <time>2018-06-30T19:50:08.000Z</time>
      </trkpt>
      <trkpt lat="45.89564" lon="-0.88217">
        <ele>26</ele>
        <time>2018-06-30T19:50:09.000Z</time>
      </trkpt>
      <trkpt lat="45.89563" lon="-0.88218">
        <ele>26</ele>
        <time>2018-06-30T19:50:10.000Z</time>
      </trkpt>
      <trkpt lat="45.89562" lon="-0.8822">
        <ele>26</ele>
        <time>2018-06-30T19:50:11.000Z</time>
      </trkpt>
      <trkpt lat="45.89561" lon="-0.88221">
        <ele>26</ele>
        <time>2018-06-30T19:50:12.000Z</time>
      </trkpt>
      <trkpt lat="45.8956" lon="-0.88222">
        <ele>26</ele>
        <time>2018-06-30T19:50:13.000Z</time>
      </trkpt>
      <trkpt lat="45.89559" lon="-0.88224">
        <ele>26</ele>
        <time>2018-06-30T19:50:14.000Z</time>
      </trkpt>
      <trkpt lat="45.89558" lon="-0.88225">
        <ele>26</ele>
        <time>2018-06-30T19:50:15.000Z</time>
      </trkpt>
      <trkpt lat="45.89557" lon="-0.88226">
        <ele>26</ele>
        <time>2018-06-30T19:50:16.000Z</time>
      </trkpt>
      <trkpt lat="45.89556" lon="-0.88227">
        <ele>26</ele>
        <time>2018-06-30T19:50:17.000Z</time>
      </trkpt>
      <trkpt lat="45.89556" lon="-0.88228">
        <ele>26</ele>
        <time>2018-06-30T19:50:18.000Z</time>
      </trkpt>
      <trkpt lat="45.89555" lon="-0.8823">
        <ele>26</ele>
        <time>2018-06-30T19:50:19.000Z</time>
      </trkpt>
      <trkpt lat="45.89554" lon="-0.88231">
        <ele>26</ele>
        <time>2018-06-30T19:50:20.000Z</time>
      </trkpt>
      <trkpt lat="45.89553" lon="-0.88233">
        <ele>26</ele>
        <time>2018-06-30T19:50:21.000Z</time>
      </trkpt>
      <trkpt lat="45.89553" lon="-0.88235">
        <ele>26</ele>
        <time>2018-06-30T19:50:22.000Z</time>
      </trkpt>
      <trkpt lat="45.89552" lon="-0.88236">
        <ele>26</ele>
        <time>2018-06-30T19:50:23.000Z</time>
      </trkpt>
      <trkpt lat="45.89551" lon="-0.88238">
        <ele>26</ele>
        <time>2018-06-30T19:50:24.000Z</time>
      </trkpt>
      <trkpt lat="45.89551" lon="-0.88239">
        <ele>26</ele>
        <time>2018-06-30T19:50:25.000Z</time>
      </trkpt>
      <trkpt lat="45.8955" lon="-0.88241">
        <ele>26</ele>
        <time>2018-06-30T19:50:26.000Z</time>
      </trkpt>
      <trkpt lat="45.89549" lon="-0.88242">
        <ele>26</ele>
        <time>2018-06-30T19:50:27.000Z</time>
      </trkpt>
      <trkpt lat="45.89549" lon="-0.88244">
        <ele>26</ele>
        <time>2018-06-30T19:50:28.000Z</time>
      </trkpt>
      <trkpt lat="45.89548" lon="-0.88246">
        <ele>26</ele>
        <time>2018-06-30T19:50:29.000Z</time>
      </trkpt>
      <trkpt lat="45.89547" lon="-0.88247">
        <ele>26</ele>
        <time>2018-06-30T19:50:30.000Z</time>
      </trkpt>
      <trkpt lat="45.89546" lon="-0.88249">
        <ele>26</ele>
        <time>2018-06-30T19:50:31.000Z</time>
      </trkpt>
      <trkpt lat="45.89546" lon="-0.8825">
        <ele>26</ele>
        <time>2018-06-30T19:50:32.000Z</time>
      </trkpt>
      <trkpt lat="45.89545" lon="-0.88252">
        <ele>26</ele>
        <time>2018-06-30T19:50:33.000Z</time>
      </trkpt>
      <trkpt lat="45.89545" lon="-0.88254">
        <ele>26</ele>
        <time>2018-06-30T19:50:34.000Z</time>
      </trkpt>
      <trkpt lat="45.89544" lon="-0.88255">
        <ele>26</ele>
        <time>2018-06-30T19:50:35.000Z</time>
      </trkpt>
      <trkpt lat="45.89543" lon="-0.88257">
        <ele>26</ele>
        <time>2018-06-30T19:50:36.000Z</time>
      </trkpt>
      <trkpt lat="45.89543" lon="-0.88259">
        <ele>26</ele>
        <time>2018-06-30T19:50:37.000Z</time>
      </trkpt>
      <trkpt lat="45.89542" lon="-0.8826">
        <ele>26</ele>
        <time>2018-06-30T19:50:38.000Z</time>
      </trkpt>
      <trkpt lat="45.89541" lon="-0.88262">
        <ele>26</ele>
        <time>2018-06-30T19:50:39.000Z</time>
      </trkpt>
      <trkpt lat="45.89541" lon="-0.88264">
        <ele>26</ele>
        <time>2018-06-30T19:50:40.000Z</time>
      </trkpt>
      <trkpt lat="45.8954" lon="-0.88265">
        <ele>26</ele>
        <time>2018-06-30T19:50:41.000Z</time>
      </trkpt>
      <trkpt lat="45.89539" lon="-0.88267">
        <ele>26</ele>
        <time>2018-06-30T19:50:42.000Z</time>
      </trkpt>
      <trkpt lat="45.89538" lon="-0.88268">
        <ele>26</ele>
        <time>2018-06-30T19:50:43.000Z</time>
      </trkpt>
      <trkpt lat="45.89537" lon="-0.8827">
        <ele>26</ele>
        <time>2018-06-30T19:50:44.000Z</time>
      </trkpt>
      <trkpt lat="45.89537" lon="-0.88271">
        <ele>26</ele>
        <time>2018-06-30T19:50:45.000Z</time>
      </trkpt>
      <trkpt lat="45.89536" lon="-0.88272">
        <ele>26</ele>
        <time>2018-06-30T19:50:46.000Z</time>
      </trkpt>
      <trkpt lat="45.89535" lon="-0.88274">
        <ele>26</ele>
        <time>2018-06-30T19:50:47.000Z</time>
      </trkpt>
      <trkpt lat="45.89534" lon="-0.88275">
        <ele>26</ele>
        <time>2018-06-30T19:50:48.000Z</time>
      </trkpt>
      <trkpt lat="45.89533" lon="-0.88276">
        <ele>26</ele>
        <time>2018-06-30T19:50:49.000Z</time>
      </trkpt>
      <trkpt lat="45.89531" lon="-0.88277">
        <ele>26</ele>
        <time>2018-06-30T19:50:50.000Z</time>
      </trkpt>
      <trkpt lat="45.8953" lon="-0.88278">
        <ele>27</ele>
        <time>2018-06-30T19:50:51.000Z</time>
      </trkpt>
      <trkpt lat="45.89529" lon="-0.88279">
        <ele>27</ele>
        <time>2018-06-30T19:50:52.000Z</time>
      </trkpt>
      <trkpt lat="45.89528" lon="-0.8828">
        <ele>27</ele>
        <time>2018-06-30T19:50:53.000Z</time>
      </trkpt>
      <trkpt lat="45.89527" lon="-0.88281">
        <ele>27</ele>
        <time>2018-06-30T19:50:54.000Z</time>
      </trkpt>
      <trkpt lat="45.89526" lon="-0.88282">
        <ele>27</ele>
        <time>2018-06-30T19:50:55.000Z</time>
      </trkpt>
      <trkpt lat="45.89524" lon="-0.88283">
        <ele>27</ele>
        <time>2018-06-30T19:50:56.000Z</time>
      </trkpt>
      <trkpt lat="45.89523" lon="-0.88284">
        <ele>27</ele>
        <time>2018-06-30T19:50:57.000Z</time>
      </trkpt>
      <trkpt lat="45.89522" lon="-0.88285">
        <ele>28</ele>
        <time>2018-06-30T19:50:58.000Z</time>
      </trkpt>
      <trkpt lat="45.89521" lon="-0.88286">
        <ele>27</ele>
        <time>2018-06-30T19:50:59.000Z</time>
      </trkpt>
      <trkpt lat="45.8952" lon="-0.88286">
        <ele>27</ele>
        <time>2018-06-30T19:51:00.000Z</time>
      </trkpt>
      <trkpt lat="45.89518" lon="-0.88287">
        <ele>27</ele>
        <time>2018-06-30T19:51:01.000Z</time>
      </trkpt>
      <trkpt lat="45.89517" lon="-0.88288">
        <ele>27</ele>
        <time>2018-06-30T19:51:02.000Z</time>
      </trkpt>
      <trkpt lat="45.89516" lon="-0.88289">
        <ele>27</ele>
        <time>2018-06-30T19:51:03.000Z</time>
      </trkpt>
      <trkpt lat="45.89515" lon="-0.8829">
        <ele>27</ele>
        <time>2018-06-30T19:51:04.000Z</time>
      </trkpt>
      <trkpt lat="45.89513" lon="-0.8829">
        <ele>27</ele>
        <time>2018-06-30T19:51:05.000Z</time>
      </trkpt>
      <trkpt lat="45.89512" lon="-0.88291">
        <ele>27</ele>
        <time>2018-06-30T19:51:06.000Z</time>
      </trkpt>
      <trkpt lat="45.89511" lon="-0.88292">
        <ele>26</ele>
        <time>2018-06-30T19:51:07.000Z</time>
      </trkpt>
      <trkpt lat="45.8951" lon="-0.88292">
        <ele>26</ele>
        <time>2018-06-30T19:51:08.000Z</time>
      </trkpt>
      <trkpt lat="45.89509" lon="-0.88293">
        <ele>26</ele>
        <time>2018-06-30T19:51:09.000Z</time>
      </trkpt>
      <trkpt lat="45.89508" lon="-0.88294">
        <ele>26</ele>
        <time>2018-06-30T19:51:10.000Z</time>
      </trkpt>
      <trkpt lat="45.89507" lon="-0.88295">
        <ele>26</ele>
        <time>2018-06-30T19:51:11.000Z</time>
      </trkpt>
      <trkpt lat="45.89505" lon="-0.88295">
        <ele>26</ele>
        <time>2018-06-30T19:51:12.000Z</time>
      </trkpt>
      <trkpt lat="45.89504" lon="-0.88296">
        <ele>26</ele>
        <time>2018-06-30T19:51:13.000Z</time>
      </trkpt>
      <trkpt lat="45.89503" lon="-0.88297">
        <ele>26</ele>
        <time>2018-06-30T19:51:14.000Z</time>
      </trkpt>
      <trkpt lat="45.89502" lon="-0.88297">
        <ele>26</ele>
        <time>2018-06-30T19:51:15.000Z</time>
      </trkpt>
      <trkpt lat="45.89501" lon="-0.88298">
        <ele>25</ele>
        <time>2018-06-30T19:51:16.000Z</time>
      </trkpt>
      <trkpt lat="45.895" lon="-0.88298">
        <ele>25</ele>
        <time>2018-06-30T19:51:17.000Z</time>
      </trkpt>
      <trkpt lat="45.89499" lon="-0.88299">
        <ele>24</ele>
        <time>2018-06-30T19:51:18.000Z</time>
      </trkpt>
      <trkpt lat="45.89498" lon="-0.88299">
        <ele>24</ele>
        <time>2018-06-30T19:51:19.000Z</time>
      </trkpt>
      <trkpt lat="45.89496" lon="-0.883">
        <ele>24</ele>
        <time>2018-06-30T19:51:20.000Z</time>
      </trkpt>
      <trkpt lat="45.89495" lon="-0.883">
        <ele>24</ele>
        <time>2018-06-30T19:51:21.000Z</time>
      </trkpt>
      <trkpt lat="45.89494" lon="-0.88301">
        <ele>24</ele>
        <time>2018-06-30T19:51:22.000Z</time>
      </trkpt>
      <trkpt lat="45.89493" lon="-0.88302">
        <ele>24</ele>
        <time>2018-06-30T19:51:23.000Z</time>
      </trkpt>
      <trkpt lat="45.89492" lon="-0.88302">
        <ele>24</ele>
        <time>2018-06-30T19:51:24.000Z</time>
      </trkpt>
      <trkpt lat="45.8949" lon="-0.88303">
        <ele>24</ele>
        <time>2018-06-30T19:51:25.000Z</time>
      </trkpt>
      <trkpt lat="45.89489" lon="-0.88303">
        <ele>24</ele>
        <time>2018-06-30T19:51:26.000Z</time>
      </trkpt>
      <trkpt lat="45.89488" lon="-0.88304">
        <ele>24</ele>
        <time>2018-06-30T19:51:27.000Z</time>
      </trkpt>
      <trkpt lat="45.89487" lon="-0.88305">
        <ele>24</ele>
        <time>2018-06-30T19:51:28.000Z</time>
      </trkpt>
      <trkpt lat="45.89485" lon="-0.88305">
        <ele>24</ele>
        <time>2018-06-30T19:51:29.000Z</time>
      </trkpt>
      <trkpt lat="45.89484" lon="-0.88306">
        <ele>25</ele>
        <time>2018-06-30T19:51:30.000Z</time>
      </trkpt>
      <trkpt lat="45.89483" lon="-0.88307">
        <ele>25</ele>
        <time>2018-06-30T19:51:31.000Z</time>
      </trkpt>
      <trkpt lat="45.89482" lon="-0.88308">
        <ele>25</ele>
        <time>2018-06-30T19:51:32.000Z</time>
      </trkpt>
      <trkpt lat="45.89481" lon="-0.88308">
        <ele>25</ele>
        <time>2018-06-30T19:51:33.000Z</time>
      </trkpt>
      <trkpt lat="45.89479" lon="-0.88309">
        <ele>25</ele>
        <time>2018-06-30T19:51:34.000Z</time>
      </trkpt>
      <trkpt lat="45.89478" lon="-0.88309">
        <ele>25</ele>
        <time>2018-06-30T19:51:35.000Z</time>
      </trkpt>
      <trkpt lat="45.89477" lon="-0.8831">
        <ele>25</ele>
        <time>2018-06-30T19:51:36.000Z</time>
      </trkpt>
      <trkpt lat="45.89476" lon="-0.88311">
        <ele>25</ele>
        <time>2018-06-30T19:51:37.000Z</time>
      </trkpt>
      <trkpt lat="45.89474" lon="-0.88311">
        <ele>25</ele>
        <time>2018-06-30T19:51:38.000Z</time>
      </trkpt>
      <trkpt lat="45.89473" lon="-0.88312">
        <ele>24</ele>
        <time>2018-06-30T19:51:39.000Z</time>
      </trkpt>
      <trkpt lat="45.89472" lon="-0.88313">
        <ele>24</ele>
        <time>2018-06-30T19:51:40.000Z</time>
      </trkpt>
      <trkpt lat="45.89471" lon="-0.88313">
        <ele>24</ele>
        <time>2018-06-30T19:51:41.000Z</time>
      </trkpt>
      <trkpt lat="45.8947" lon="-0.88314">
        <ele>24</ele>
        <time>2018-06-30T19:51:42.000Z</time>
      </trkpt>
      <trkpt lat="45.89469" lon="-0.88315">
        <ele>25</ele>
        <time>2018-06-30T19:51:43.000Z</time>
      </trkpt>
      <trkpt lat="45.89467" lon="-0.88316">
        <ele>25</ele>
        <time>2018-06-30T19:51:44.000Z</time>
      </trkpt>
      <trkpt lat="45.89466" lon="-0.88317">
        <ele>25</ele>
        <time>2018-06-30T19:51:45.000Z</time>
      </trkpt>
      <trkpt lat="45.89465" lon="-0.88317">
        <ele>25</ele>
        <time>2018-06-30T19:51:46.000Z</time>
      </trkpt>
      <trkpt lat="45.89464" lon="-0.88318">
        <ele>25</ele>
        <time>2018-06-30T19:51:47.000Z</time>
      </trkpt>
      <trkpt lat="45.89463" lon="-0.88319">
        <ele>24</ele>
        <time>2018-06-30T19:51:48.000Z</time>
      </trkpt>
      <trkpt lat="45.89462" lon="-0.8832">
        <ele>24</ele>
        <time>2018-06-30T19:51:49.000Z</time>
      </trkpt>
      <trkpt lat="45.89461" lon="-0.88321">
        <ele>24</ele>
        <time>2018-06-30T19:51:50.000Z</time>
      </trkpt>
      <trkpt lat="45.8946" lon="-0.88321">
        <ele>24</ele>
        <time>2018-06-30T19:51:51.000Z</time>
      </trkpt>
      <trkpt lat="45.89459" lon="-0.88322">
        <ele>24</ele>
        <time>2018-06-30T19:51:52.000Z</time>
      </trkpt>
      <trkpt lat="45.89458" lon="-0.88323">
        <ele>24</ele>
        <time>2018-06-30T19:51:53.000Z</time>
      </trkpt>
      <trkpt lat="45.89457" lon="-0.88324">
        <ele>24</ele>
        <time>2018-06-30T19:51:54.000Z</time>
      </trkpt>
      <trkpt lat="45.89455" lon="-0.88325">
        <ele>24</ele>
        <time>2018-06-30T19:51:55.000Z</time>
      </trkpt>
      <trkpt lat="45.89454" lon="-0.88326">
        <ele>24</ele>
        <time>2018-06-30T19:51:56.000Z</time>
      </trkpt>
      <trkpt lat="45.89454" lon="-0.88327">
        <ele>24</ele>
        <time>2018-06-30T19:51:57.000Z</time>
      </trkpt>
      <trkpt lat="45.89453" lon="-0.88329">
        <ele>24</ele>
        <time>2018-06-30T19:51:58.000Z</time>
      </trkpt>
      <trkpt lat="45.89452" lon="-0.8833">
        <ele>25</ele>
        <time>2018-06-30T19:51:59.000Z</time>
      </trkpt>
      <trkpt lat="45.89451" lon="-0.88331">
        <ele>25</ele>
        <time>2018-06-30T19:52:00.000Z</time>
      </trkpt>
      <trkpt lat="45.8945" lon="-0.88333">
        <ele>25</ele>
        <time>2018-06-30T19:52:01.000Z</time>
      </trkpt>
      <trkpt lat="45.89449" lon="-0.88334">
        <ele>25</ele>
        <time>2018-06-30T19:52:02.000Z</time>
      </trkpt>
      <trkpt lat="45.89448" lon="-0.88335">
        <ele>25</ele>
        <time>2018-06-30T19:52:03.000Z</time>
      </trkpt>
      <trkpt lat="45.89447" lon="-0.88336">
        <ele>25</ele>
        <time>2018-06-30T19:52:04.000Z</time>
      </trkpt>
      <trkpt lat="45.89446" lon="-0.88338">
        <ele>25</ele>
        <time>2018-06-30T19:52:05.000Z</time>
      </trkpt>
      <trkpt lat="45.89446" lon="-0.88339">
        <ele>25</ele>
        <time>2018-06-30T19:52:06.000Z</time>
      </trkpt>
      <trkpt lat="45.89445" lon="-0.8834">
        <ele>25</ele>
        <time>2018-06-30T19:52:07.000Z</time>
      </trkpt>
      <trkpt lat="45.89444" lon="-0.88342">
        <ele>25</ele>
        <time>2018-06-30T19:52:08.000Z</time>
      </trkpt>
      <trkpt lat="45.89444" lon="-0.88343">
        <ele>25</ele>
        <time>2018-06-30T19:52:09.000Z</time>
      </trkpt>
      <trkpt lat="45.89443" lon="-0.88344">
        <ele>25</ele>
        <time>2018-06-30T19:52:10.000Z</time>
      </trkpt>
      <trkpt lat="45.89442" lon="-0.88346">
        <ele>25</ele>
        <time>2018-06-30T19:52:11.000Z</time>
      </trkpt>
      <trkpt lat="45.89441" lon="-0.88347">
        <ele>26</ele>
        <time>2018-06-30T19:52:12.000Z</time>
      </trkpt>
      <trkpt lat="45.89441" lon="-0.88349">
        <ele>26</ele>
        <time>2018-06-30T19:52:13.000Z</time>
      </trkpt>
      <trkpt lat="45.8944" lon="-0.8835">
        <ele>26</ele>
        <time>2018-06-30T19:52:14.000Z</time>
      </trkpt>
      <trkpt lat="45.89439" lon="-0.88352">
        <ele>26</ele>
        <time>2018-06-30T19:52:15.000Z</time>
      </trkpt>
      <trkpt lat="45.89438" lon="-0.88353">
        <ele>26</ele>
        <time>2018-06-30T19:52:16.000Z</time>
      </trkpt>
      <trkpt lat="45.89437" lon="-0.88355">
        <ele>26</ele>
        <time>2018-06-30T19:52:17.000Z</time>
      </trkpt>
      <trkpt lat="45.89436" lon="-0.88356">
        <ele>27</ele>
        <time>2018-06-30T19:52:18.000Z</time>
      </trkpt>
      <trkpt lat="45.89436" lon="-0.88358">
        <ele>27</ele>
        <time>2018-06-30T19:52:19.000Z</time>
      </trkpt>
      <trkpt lat="45.89435" lon="-0.88359">
        <ele>27</ele>
        <time>2018-06-30T19:52:20.000Z</time>
      </trkpt>
      <trkpt lat="45.89434" lon="-0.88361">
        <ele>27</ele>
        <time>2018-06-30T19:52:21.000Z</time>
      </trkpt>
      <trkpt lat="45.89433" lon="-0.88362">
        <ele>28</ele>
        <time>2018-06-30T19:52:22.000Z</time>
      </trkpt>
      <trkpt lat="45.89432" lon="-0.88364">
        <ele>28</ele>
        <time>2018-06-30T19:52:23.000Z</time>
      </trkpt>
      <trkpt lat="45.89431" lon="-0.88365">
        <ele>27</ele>
        <time>2018-06-30T19:52:24.000Z</time>
      </trkpt>
      <trkpt lat="45.8943" lon="-0.88366">
        <ele>27</ele>
        <time>2018-06-30T19:52:25.000Z</time>
      </trkpt>
      <trkpt lat="45.8943" lon="-0.88368">
        <ele>27</ele>
        <time>2018-06-30T19:52:26.000Z</time>
      </trkpt>
      <trkpt lat="45.89429" lon="-0.88369">
        <ele>28</ele>
        <time>2018-06-30T19:52:27.000Z</time>
      </trkpt>
      <trkpt lat="45.89428" lon="-0.8837">
        <ele>27</ele>
        <time>2018-06-30T19:52:28.000Z</time>
      </trkpt>
      <trkpt lat="45.89427" lon="-0.88372">
        <ele>27</ele>
        <time>2018-06-30T19:52:29.000Z</time>
      </trkpt>
      <trkpt lat="45.89426" lon="-0.88373">
        <ele>27</ele>
        <time>2018-06-30T19:52:30.000Z</time>
      </trkpt>
      <trkpt lat="45.89425" lon="-0.88374">
        <ele>27</ele>
        <time>2018-06-30T19:52:31.000Z</time>
      </trkpt>
      <trkpt lat="45.89424" lon="-0.88375">
        <ele>27</ele>
        <time>2018-06-30T19:52:32.000Z</time>
      </trkpt>
      <trkpt lat="45.89423" lon="-0.88377">
        <ele>27</ele>
        <time>2018-06-30T19:52:33.000Z</time>
      </trkpt>
      <trkpt lat="45.89422" lon="-0.88378">
        <ele>27</ele>
        <time>2018-06-30T19:52:34.000Z</time>
      </trkpt>
      <trkpt lat="45.89421" lon="-0.88379">
        <ele>26</ele>
        <time>2018-06-30T19:52:35.000Z</time>
      </trkpt>
      <trkpt lat="45.89421" lon="-0.8838">
        <ele>26</ele>
        <time>2018-06-30T19:52:36.000Z</time>
      </trkpt>
      <trkpt lat="45.8942" lon="-0.88382">
        <ele>26</ele>
        <time>2018-06-30T19:52:37.000Z</time>
      </trkpt>
      <trkpt lat="45.89419" lon="-0.88383">
        <ele>26</ele>
        <time>2018-06-30T19:52:38.000Z</time>
      </trkpt>
      <trkpt lat="45.89418" lon="-0.88384">
        <ele>26</ele>
        <time>2018-06-30T19:52:39.000Z</time>
      </trkpt>
      <trkpt lat="45.89416" lon="-0.88385">
        <ele>26</ele>
        <time>2018-06-30T19:52:40.000Z</time>
      </trkpt>
      <trkpt lat="45.89415" lon="-0.88386">
        <ele>26</ele>
        <time>2018-06-30T19:52:41.000Z</time>
      </trkpt>
      <trkpt lat="45.89414" lon="-0.88387">
        <ele>26</ele>
        <time>2018-06-30T19:52:42.000Z</time>
      </trkpt>
      <trkpt lat="45.89414" lon="-0.88388">
        <ele>26</ele>
        <time>2018-06-30T19:52:43.000Z</time>
      </trkpt>
      <trkpt lat="45.89413" lon="-0.88389">
        <ele>26</ele>
        <time>2018-06-30T19:52:44.000Z</time>
      </trkpt>
      <trkpt lat="45.89411" lon="-0.8839">
        <ele>26</ele>
        <time>2018-06-30T19:52:45.000Z</time>
      </trkpt>
      <trkpt lat="45.8941" lon="-0.88391">
        <ele>26</ele>
        <time>2018-06-30T19:52:46.000Z</time>
      </trkpt>
      <trkpt lat="45.89409" lon="-0.88392">
        <ele>26</ele>
        <time>2018-06-30T19:52:47.000Z</time>
      </trkpt>
      <trkpt lat="45.89408" lon="-0.88393">
        <ele>26</ele>
        <time>2018-06-30T19:52:48.000Z</time>
      </trkpt>
      <trkpt lat="45.89407" lon="-0.88394">
        <ele>26</ele>
        <time>2018-06-30T19:52:49.000Z</time>
      </trkpt>
      <trkpt lat="45.89406" lon="-0.88395">
        <ele>26</ele>
        <time>2018-06-30T19:52:50.000Z</time>
      </trkpt>
      <trkpt lat="45.89405" lon="-0.88397">
        <ele>26</ele>
        <time>2018-06-30T19:52:51.000Z</time>
      </trkpt>
      <trkpt lat="45.89404" lon="-0.88398">
        <ele>26</ele>
        <time>2018-06-30T19:52:52.000Z</time>
      </trkpt>
      <trkpt lat="45.89403" lon="-0.88399">
        <ele>26</ele>
        <time>2018-06-30T19:52:53.000Z</time>
      </trkpt>
      <trkpt lat="45.89402" lon="-0.884">
        <ele>26</ele>
        <time>2018-06-30T19:52:54.000Z</time>
      </trkpt>
      <trkpt lat="45.89401" lon="-0.88401">
        <ele>26</ele>
        <time>2018-06-30T19:52:55.000Z</time>
      </trkpt>
      <trkpt lat="45.894" lon="-0.88402">
        <ele>26</ele>
        <time>2018-06-30T19:52:56.000Z</time>
      </trkpt>
      <trkpt lat="45.89399" lon="-0.88404">
        <ele>26</ele>
        <time>2018-06-30T19:52:57.000Z</time>
      </trkpt>
      <trkpt lat="45.89398" lon="-0.88405">
        <ele>26</ele>
        <time>2018-06-30T19:52:58.000Z</time>
      </trkpt>
      <trkpt lat="45.89397" lon="-0.88406">
        <ele>26</ele>
        <time>2018-06-30T19:52:59.000Z</time>
      </trkpt>
      <trkpt lat="45.89396" lon="-0.88407">
        <ele>26</ele>
        <time>2018-06-30T19:53:00.000Z</time>
      </trkpt>
      <trkpt lat="45.89395" lon="-0.88408">
        <ele>26</ele>
        <time>2018-06-30T19:53:01.000Z</time>
      </trkpt>
      <trkpt lat="45.89394" lon="-0.88409">
        <ele>26</ele>
        <time>2018-06-30T19:53:02.000Z</time>
      </trkpt>
      <trkpt lat="45.89393" lon="-0.8841">
        <ele>26</ele>
        <time>2018-06-30T19:53:03.000Z</time>
      </trkpt>
      <trkpt lat="45.89392" lon="-0.88411">
        <ele>26</ele>
        <time>2018-06-30T19:53:04.000Z</time>
      </trkpt>
      <trkpt lat="45.89391" lon="-0.88412">
        <ele>26</ele>
        <time>2018-06-30T19:53:05.000Z</time>
      </trkpt>
      <trkpt lat="45.8939" lon="-0.88414">
        <ele>26</ele>
        <time>2018-06-30T19:53:06.000Z</time>
      </trkpt>
      <trkpt lat="45.89389" lon="-0.88415">
        <ele>26</ele>
        <time>2018-06-30T19:53:07.000Z</time>
      </trkpt>
      <trkpt lat="45.89388" lon="-0.88416">
        <ele>26</ele>
        <time>2018-06-30T19:53:08.000Z</time>
      </trkpt>
      <trkpt lat="45.89387" lon="-0.88417">
        <ele>26</ele>
        <time>2018-06-30T19:53:09.000Z</time>
      </trkpt>
      <trkpt lat="45.89386" lon="-0.88418">
        <ele>26</ele>
        <time>2018-06-30T19:53:10.000Z</time>
      </trkpt>
      <trkpt lat="45.89385" lon="-0.88419">
        <ele>26</ele>
        <time>2018-06-30T19:53:11.000Z</time>
      </trkpt>
      <trkpt lat="45.89385" lon="-0.8842">
        <ele>26</ele>
        <time>2018-06-30T19:53:12.000Z</time>
      </trkpt>
      <trkpt lat="45.89384" lon="-0.88421">
        <ele>26</ele>
        <time>2018-06-30T19:53:13.000Z</time>
      </trkpt>
      <trkpt lat="45.89383" lon="-0.88422">
        <ele>26</ele>
        <time>2018-06-30T19:53:14.000Z</time>
      </trkpt>
      <trkpt lat="45.89382" lon="-0.88424">
        <ele>26</ele>
        <time>2018-06-30T19:53:15.000Z</time>
      </trkpt>
      <trkpt lat="45.89381" lon="-0.88425">
        <ele>26</ele>
        <time>2018-06-30T19:53:16.000Z</time>
      </trkpt>
      <trkpt lat="45.8938" lon="-0.88426">
        <ele>26</ele>
        <time>2018-06-30T19:53:17.000Z</time>
      </trkpt>
      <trkpt lat="45.89379" lon="-0.88427">
        <ele>26</ele>
        <time>2018-06-30T19:53:18.000Z</time>
      </trkpt>
      <trkpt lat="45.89379" lon="-0.88428">
        <ele>26</ele>
        <time>2018-06-30T19:53:19.000Z</time>
      </trkpt>
      <trkpt lat="45.89378" lon="-0.88429">
        <ele>26</ele>
        <time>2018-06-30T19:53:20.000Z</time>
      </trkpt>
      <trkpt lat="45.89377" lon="-0.8843">
        <ele>26</ele>
        <time>2018-06-30T19:53:21.000Z</time>
      </trkpt>
      <trkpt lat="45.89376" lon="-0.88431">
        <ele>25</ele>
        <time>2018-06-30T19:53:22.000Z</time>
      </trkpt>
      <trkpt lat="45.89375" lon="-0.88433">
        <ele>26</ele>
        <time>2018-06-30T19:53:23.000Z</time>
      </trkpt>
      <trkpt lat="45.89374" lon="-0.88434">
        <ele>26</ele>
        <time>2018-06-30T19:53:24.000Z</time>
      </trkpt>
      <trkpt lat="45.89373" lon="-0.88435">
        <ele>26</ele>
        <time>2018-06-30T19:53:25.000Z</time>
      </trkpt>
      <trkpt lat="45.89372" lon="-0.88436">
        <ele>26</ele>
        <time>2018-06-30T19:53:26.000Z</time>
      </trkpt>
      <trkpt lat="45.89371" lon="-0.88438">
        <ele>26</ele>
        <time>2018-06-30T19:53:27.000Z</time>
      </trkpt>
      <trkpt lat="45.8937" lon="-0.88439">
        <ele>26</ele>
        <time>2018-06-30T19:53:28.000Z</time>
      </trkpt>
      <trkpt lat="45.89369" lon="-0.8844">
        <ele>26</ele>
        <time>2018-06-30T19:53:29.000Z</time>
      </trkpt>
      <trkpt lat="45.89368" lon="-0.88441">
        <ele>26</ele>
        <time>2018-06-30T19:53:30.000Z</time>
      </trkpt>
      <trkpt lat="45.89367" lon="-0.88442">
        <ele>26</ele>
        <time>2018-06-30T19:53:31.000Z</time>
      </trkpt>
      <trkpt lat="45.89366" lon="-0.88444">
        <ele>26</ele>
        <time>2018-06-30T19:53:32.000Z</time>
      </trkpt>
      <trkpt lat="45.89365" lon="-0.88445">
        <ele>26</ele>
        <time>2018-06-30T19:53:33.000Z</time>
      </trkpt>
      <trkpt lat="45.89364" lon="-0.88446">
        <ele>26</ele>
        <time>2018-06-30T19:53:34.000Z</time>
      </trkpt>
      <trkpt lat="45.89364" lon="-0.88447">
        <ele>26</ele>
        <time>2018-06-30T19:53:35.000Z</time>
      </trkpt>
      <trkpt lat="45.89363" lon="-0.88449">
        <ele>26</ele>
        <time>2018-06-30T19:53:36.000Z</time>
      </trkpt>
      <trkpt lat="45.89362" lon="-0.8845">
        <ele>26</ele>
        <time>2018-06-30T19:53:37.000Z</time>
      </trkpt>
      <trkpt lat="45.89361" lon="-0.88451">
        <ele>26</ele>
        <time>2018-06-30T19:53:38.000Z</time>
      </trkpt>
      <trkpt lat="45.8936" lon="-0.88452">
        <ele>26</ele>
        <time>2018-06-30T19:53:39.000Z</time>
      </trkpt>
      <trkpt lat="45.89359" lon="-0.88453">
        <ele>26</ele>
        <time>2018-06-30T19:53:40.000Z</time>
      </trkpt>
      <trkpt lat="45.89358" lon="-0.88455">
        <ele>25</ele>
        <time>2018-06-30T19:53:41.000Z</time>
      </trkpt>
      <trkpt lat="45.89357" lon="-0.88456">
        <ele>25</ele>
        <time>2018-06-30T19:53:42.000Z</time>
      </trkpt>
      <trkpt lat="45.89356" lon="-0.88457">
        <ele>25</ele>
        <time>2018-06-30T19:53:43.000Z</time>
      </trkpt>
      <trkpt lat="45.89355" lon="-0.88458">
        <ele>25</ele>
        <time>2018-06-30T19:53:44.000Z</time>
      </trkpt>
      <trkpt lat="45.89354" lon="-0.8846">
        <ele>25</ele>
        <time>2018-06-30T19:53:45.000Z</time>
      </trkpt>
      <trkpt lat="45.89353" lon="-0.88461">
        <ele>25</ele>
        <time>2018-06-30T19:53:46.000Z</time>
      </trkpt>
      <trkpt lat="45.89352" lon="-0.88462">
        <ele>25</ele>
        <time>2018-06-30T19:53:47.000Z</time>
      </trkpt>
      <trkpt lat="45.89351" lon="-0.88464">
        <ele>25</ele>
        <time>2018-06-30T19:53:48.000Z</time>
      </trkpt>
      <trkpt lat="45.8935" lon="-0.88465">
        <ele>25</ele>
        <time>2018-06-30T19:53:49.000Z</time>
      </trkpt>
      <trkpt lat="45.89349" lon="-0.88466">
        <ele>25</ele>
        <time>2018-06-30T19:53:50.000Z</time>
      </trkpt>
      <trkpt lat="45.89349" lon="-0.88467">
        <ele>24</ele>
        <time>2018-06-30T19:53:51.000Z</time>
      </trkpt>
      <trkpt lat="45.89348" lon="-0.88469">
        <ele>24</ele>
        <time>2018-06-30T19:53:52.000Z</time>
      </trkpt>
      <trkpt lat="45.89347" lon="-0.8847">
        <ele>24</ele>
        <time>2018-06-30T19:53:53.000Z</time>
      </trkpt>
      <trkpt lat="45.89346" lon="-0.88471">
        <ele>24</ele>
        <time>2018-06-30T19:53:54.000Z</time>
      </trkpt>
      <trkpt lat="45.89345" lon="-0.88473">
        <ele>24</ele>
        <time>2018-06-30T19:53:55.000Z</time>
      </trkpt>
      <trkpt lat="45.89344" lon="-0.88474">
        <ele>24</ele>
        <time>2018-06-30T19:53:56.000Z</time>
      </trkpt>
      <trkpt lat="45.89343" lon="-0.88475">
        <ele>24</ele>
        <time>2018-06-30T19:53:57.000Z</time>
      </trkpt>
      <trkpt lat="45.89342" lon="-0.88476">
        <ele>24</ele>
        <time>2018-06-30T19:53:58.000Z</time>
      </trkpt>
      <trkpt lat="45.89341" lon="-0.88477">
        <ele>24</ele>
        <time>2018-06-30T19:53:59.000Z</time>
      </trkpt>
      <trkpt lat="45.8934" lon="-0.88478">
        <ele>24</ele>
        <time>2018-06-30T19:54:00.000Z</time>
      </trkpt>
      <trkpt lat="45.89339" lon="-0.8848">
        <ele>24</ele>
        <time>2018-06-30T19:54:01.000Z</time>
      </trkpt>
      <trkpt lat="45.89338" lon="-0.88481">
        <ele>24</ele>
        <time>2018-06-30T19:54:02.000Z</time>
      </trkpt>
      <trkpt lat="45.89337" lon="-0.88482">
        <ele>24</ele>
        <time>2018-06-30T19:54:03.000Z</time>
      </trkpt>
      <trkpt lat="45.89336" lon="-0.88483">
        <ele>25</ele>
        <time>2018-06-30T19:54:04.000Z</time>
      </trkpt>
      <trkpt lat="45.89335" lon="-0.88484">
        <ele>25</ele>
        <time>2018-06-30T19:54:05.000Z</time>
      </trkpt>
      <trkpt lat="45.89334" lon="-0.88485">
        <ele>25</ele>
        <time>2018-06-30T19:54:06.000Z</time>
      </trkpt>
      <trkpt lat="45.89333" lon="-0.88487">
        <ele>25</ele>
        <time>2018-06-30T19:54:07.000Z</time>
      </trkpt>
      <trkpt lat="45.89332" lon="-0.88488">
        <ele>25</ele>
        <time>2018-06-30T19:54:08.000Z</time>
      </trkpt>
      <trkpt lat="45.89331" lon="-0.88489">
        <ele>25</ele>
        <time>2018-06-30T19:54:09.000Z</time>
      </trkpt>
      <trkpt lat="45.8933" lon="-0.8849">
        <ele>25</ele>
        <time>2018-06-30T19:54:10.000Z</time>
      </trkpt>
      <trkpt lat="45.89329" lon="-0.88491">
        <ele>25</ele>
        <time>2018-06-30T19:54:11.000Z</time>
      </trkpt>
      <trkpt lat="45.89328" lon="-0.88493">
        <ele>25</ele>
        <time>2018-06-30T19:54:12.000Z</time>
      </trkpt>
      <trkpt lat="45.89328" lon="-0.88494">
        <ele>25</ele>
        <time>2018-06-30T19:54:13.000Z</time>
      </trkpt>
      <trkpt lat="45.89327" lon="-0.88495">
        <ele>25</ele>
        <time>2018-06-30T19:54:14.000Z</time>
      </trkpt>
      <trkpt lat="45.89326" lon="-0.88496">
        <ele>24</ele>
        <time>2018-06-30T19:54:15.000Z</time>
      </trkpt>
      <trkpt lat="45.89325" lon="-0.88497">
        <ele>25</ele>
        <time>2018-06-30T19:54:16.000Z</time>
      </trkpt>
      <trkpt lat="45.89324" lon="-0.88498">
        <ele>24</ele>
        <time>2018-06-30T19:54:17.000Z</time>
      </trkpt>
      <trkpt lat="45.89323" lon="-0.885">
        <ele>24</ele>
        <time>2018-06-30T19:54:18.000Z</time>
      </trkpt>
      <trkpt lat="45.89322" lon="-0.88501">
        <ele>24</ele>
        <time>2018-06-30T19:54:19.000Z</time>
      </trkpt>
      <trkpt lat="45.89321" lon="-0.88502">
        <ele>25</ele>
        <time>2018-06-30T19:54:20.000Z</time>
      </trkpt>
      <trkpt lat="45.8932" lon="-0.88503">
        <ele>25</ele>
        <time>2018-06-30T19:54:21.000Z</time>
      </trkpt>
      <trkpt lat="45.89319" lon="-0.88505">
        <ele>25</ele>
        <time>2018-06-30T19:54:22.000Z</time>
      </trkpt>
      <trkpt lat="45.89318" lon="-0.88506">
        <ele>25</ele>
        <time>2018-06-30T19:54:23.000Z</time>
      </trkpt>
      <trkpt lat="45.89316" lon="-0.88507">
        <ele>25</ele>
        <time>2018-06-30T19:54:24.000Z</time>
      </trkpt>
      <trkpt lat="45.89315" lon="-0.88509">
        <ele>25</ele>
        <time>2018-06-30T19:54:25.000Z</time>
      </trkpt>
      <trkpt lat="45.89314" lon="-0.8851">
        <ele>25</ele>
        <time>2018-06-30T19:54:26.000Z</time>
      </trkpt>
      <trkpt lat="45.89313" lon="-0.88512">
        <ele>26</ele>
        <time>2018-06-30T19:54:27.000Z</time>
      </trkpt>
      <trkpt lat="45.89313" lon="-0.88513">
        <ele>26</ele>
        <time>2018-06-30T19:54:28.000Z</time>
      </trkpt>
      <trkpt lat="45.89312" lon="-0.88514">
        <ele>26</ele>
        <time>2018-06-30T19:54:29.000Z</time>
      </trkpt>
      <trkpt lat="45.89311" lon="-0.88515">
        <ele>26</ele>
        <time>2018-06-30T19:54:30.000Z</time>
      </trkpt>
      <trkpt lat="45.8931" lon="-0.88517">
        <ele>26</ele>
        <time>2018-06-30T19:54:31.000Z</time>
      </trkpt>
      <trkpt lat="45.89309" lon="-0.88518">
        <ele>26</ele>
        <time>2018-06-30T19:54:32.000Z</time>
      </trkpt>
      <trkpt lat="45.89308" lon="-0.88519">
        <ele>26</ele>
        <time>2018-06-30T19:54:33.000Z</time>
      </trkpt>
      <trkpt lat="45.89307" lon="-0.88521">
        <ele>26</ele>
        <time>2018-06-30T19:54:34.000Z</time>
      </trkpt>
      <trkpt lat="45.89306" lon="-0.88522">
        <ele>26</ele>
        <time>2018-06-30T19:54:35.000Z</time>
      </trkpt>
      <trkpt lat="45.89305" lon="-0.88523">
        <ele>26</ele>
        <time>2018-06-30T19:54:36.000Z</time>
      </trkpt>
      <trkpt lat="45.89304" lon="-0.88525">
        <ele>26</ele>
        <time>2018-06-30T19:54:37.000Z</time>
      </trkpt>
      <trkpt lat="45.89303" lon="-0.88526">
        <ele>26</ele>
        <time>2018-06-30T19:54:38.000Z</time>
      </trkpt>
      <trkpt lat="45.89302" lon="-0.88527">
        <ele>26</ele>
        <time>2018-06-30T19:54:39.000Z</time>
      </trkpt>
      <trkpt lat="45.89301" lon="-0.88528">
        <ele>25</ele>
        <time>2018-06-30T19:54:40.000Z</time>
      </trkpt>
      <trkpt lat="45.893" lon="-0.8853">
        <ele>25</ele>
        <time>2018-06-30T19:54:41.000Z</time>
      </trkpt>
      <trkpt lat="45.89299" lon="-0.88531">
        <ele>25</ele>
        <time>2018-06-30T19:54:42.000Z</time>
      </trkpt>
      <trkpt lat="45.89298" lon="-0.88532">
        <ele>25</ele>
        <time>2018-06-30T19:54:43.000Z</time>
      </trkpt>
      <trkpt lat="45.89297" lon="-0.88533">
        <ele>25</ele>
        <time>2018-06-30T19:54:44.000Z</time>
      </trkpt>
      <trkpt lat="45.89296" lon="-0.88535">
        <ele>25</ele>
        <time>2018-06-30T19:54:45.000Z</time>
      </trkpt>
      <trkpt lat="45.89295" lon="-0.88536">
        <ele>25</ele>
        <time>2018-06-30T19:54:46.000Z</time>
      </trkpt>
      <trkpt lat="45.89294" lon="-0.88537">
        <ele>25</ele>
        <time>2018-06-30T19:54:47.000Z</time>
      </trkpt>
      <trkpt lat="45.89293" lon="-0.88538">
        <ele>25</ele>
        <time>2018-06-30T19:54:48.000Z</time>
      </trkpt>
      <trkpt lat="45.89292" lon="-0.88539">
        <ele>25</ele>
        <time>2018-06-30T19:54:49.000Z</time>
      </trkpt>
      <trkpt lat="45.89291" lon="-0.8854">
        <ele>25</ele>
        <time>2018-06-30T19:54:50.000Z</time>
      </trkpt>
      <trkpt lat="45.8929" lon="-0.88542">
        <ele>26</ele>
        <time>2018-06-30T19:54:51.000Z</time>
      </trkpt>
      <trkpt lat="45.89289" lon="-0.88543">
        <ele>26</ele>
        <time>2018-06-30T19:54:52.000Z</time>
      </trkpt>
      <trkpt lat="45.89288" lon="-0.88544">
        <ele>26</ele>
        <time>2018-06-30T19:54:53.000Z</time>
      </trkpt>
      <trkpt lat="45.89287" lon="-0.88545">
        <ele>26</ele>
        <time>2018-06-30T19:54:54.000Z</time>
      </trkpt>
      <trkpt lat="45.89286" lon="-0.88546">
        <ele>26</ele>
        <time>2018-06-30T19:54:55.000Z</time>
      </trkpt>
      <trkpt lat="45.89285" lon="-0.88547">
        <ele>26</ele>
        <time>2018-06-30T19:54:56.000Z</time>
      </trkpt>
      <trkpt lat="45.89284" lon="-0.88548">
        <ele>26</ele>
        <time>2018-06-30T19:54:57.000Z</time>
      </trkpt>
      <trkpt lat="45.89283" lon="-0.88549">
        <ele>26</ele>
        <time>2018-06-30T19:54:58.000Z</time>
      </trkpt>
      <trkpt lat="45.89282" lon="-0.8855">
        <ele>26</ele>
        <time>2018-06-30T19:54:59.000Z</time>
      </trkpt>
      <trkpt lat="45.89281" lon="-0.88551">
        <ele>26</ele>
        <time>2018-06-30T19:55:00.000Z</time>
      </trkpt>
      <trkpt lat="45.8928" lon="-0.88552">
        <ele>26</ele>
        <time>2018-06-30T19:55:01.000Z</time>
      </trkpt>
      <trkpt lat="45.89279" lon="-0.88553">
        <ele>26</ele>
        <time>2018-06-30T19:55:02.000Z</time>
      </trkpt>
      <trkpt lat="45.89277" lon="-0.88554">
        <ele>26</ele>
        <time>2018-06-30T19:55:03.000Z</time>
      </trkpt>
      <trkpt lat="45.89276" lon="-0.88554">
        <ele>26</ele>
        <time>2018-06-30T19:55:04.000Z</time>
      </trkpt>
      <trkpt lat="45.89275" lon="-0.88555">
        <ele>26</ele>
        <time>2018-06-30T19:55:05.000Z</time>
      </trkpt>
      <trkpt lat="45.89274" lon="-0.88556">
        <ele>26</ele>
        <time>2018-06-30T19:55:06.000Z</time>
      </trkpt>
      <trkpt lat="45.89273" lon="-0.88557">
        <ele>25</ele>
        <time>2018-06-30T19:55:07.000Z</time>
      </trkpt>
      <trkpt lat="45.89272" lon="-0.88558">
        <ele>26</ele>
        <time>2018-06-30T19:55:08.000Z</time>
      </trkpt>
      <trkpt lat="45.89271" lon="-0.88559">
        <ele>25</ele>
        <time>2018-06-30T19:55:09.000Z</time>
      </trkpt>
      <trkpt lat="45.8927" lon="-0.8856">
        <ele>25</ele>
        <time>2018-06-30T19:55:10.000Z</time>
      </trkpt>
      <trkpt lat="45.89269" lon="-0.88561">
        <ele>25</ele>
        <time>2018-06-30T19:55:11.000Z</time>
      </trkpt>
      <trkpt lat="45.89268" lon="-0.88562">
        <ele>25</ele>
        <time>2018-06-30T19:55:12.000Z</time>
      </trkpt>
      <trkpt lat="45.89267" lon="-0.88562">
        <ele>25</ele>
        <time>2018-06-30T19:55:13.000Z</time>
      </trkpt>
      <trkpt lat="45.89265" lon="-0.88563">
        <ele>25</ele>
        <time>2018-06-30T19:55:14.000Z</time>
      </trkpt>
      <trkpt lat="45.89264" lon="-0.88563">
        <ele>25</ele>
        <time>2018-06-30T19:55:15.000Z</time>
      </trkpt>
      <trkpt lat="45.89263" lon="-0.88564">
        <ele>25</ele>
        <time>2018-06-30T19:55:16.000Z</time>
      </trkpt>
      <trkpt lat="45.89262" lon="-0.88564">
        <ele>25</ele>
        <time>2018-06-30T19:55:17.000Z</time>
      </trkpt>
      <trkpt lat="45.8926" lon="-0.88564">
        <ele>25</ele>
        <time>2018-06-30T19:55:18.000Z</time>
      </trkpt>
      <trkpt lat="45.89259" lon="-0.88564">
        <ele>25</ele>
        <time>2018-06-30T19:55:19.000Z</time>
      </trkpt>
      <trkpt lat="45.89258" lon="-0.88564">
        <ele>25</ele>
        <time>2018-06-30T19:55:20.000Z</time>
      </trkpt>
      <trkpt lat="45.89256" lon="-0.88564">
        <ele>25</ele>
        <time>2018-06-30T19:55:21.000Z</time>
      </trkpt>
      <trkpt lat="45.89255" lon="-0.88564">
        <ele>25</ele>
        <time>2018-06-30T19:55:22.000Z</time>
      </trkpt>
      <trkpt lat="45.89254" lon="-0.88564">
        <ele>25</ele>
        <time>2018-06-30T19:55:23.000Z</time>
      </trkpt>
      <trkpt lat="45.89252" lon="-0.88564">
        <ele>25</ele>
        <time>2018-06-30T19:55:24.000Z</time>
      </trkpt>
      <trkpt lat="45.89251" lon="-0.88565">
        <ele>25</ele>
        <time>2018-06-30T19:55:25.000Z</time>
      </trkpt>
      <trkpt lat="45.8925" lon="-0.88565">
        <ele>25</ele>
        <time>2018-06-30T19:55:26.000Z</time>
      </trkpt>
      <trkpt lat="45.89249" lon="-0.88565">
        <ele>25</ele>
        <time>2018-06-30T19:55:27.000Z</time>
      </trkpt>
      <trkpt lat="45.89248" lon="-0.88565">
        <ele>25</ele>
        <time>2018-06-30T19:55:28.000Z</time>
      </trkpt>
      <trkpt lat="45.89247" lon="-0.88565">
        <ele>25</ele>
        <time>2018-06-30T19:55:29.000Z</time>
      </trkpt>
      <trkpt lat="45.89245" lon="-0.88564">
        <ele>25</ele>
        <time>2018-06-30T19:55:30.000Z</time>
      </trkpt>
      <trkpt lat="45.89244" lon="-0.88564">
        <ele>25</ele>
        <time>2018-06-30T19:55:31.000Z</time>
      </trkpt>
      <trkpt lat="45.89243" lon="-0.88563">
        <ele>25</ele>
        <time>2018-06-30T19:55:32.000Z</time>
      </trkpt>
      <trkpt lat="45.89242" lon="-0.88562">
        <ele>24</ele>
        <time>2018-06-30T19:55:33.000Z</time>
      </trkpt>
      <trkpt lat="45.89241" lon="-0.88562">
        <ele>24</ele>
        <time>2018-06-30T19:55:34.000Z</time>
      </trkpt>
      <trkpt lat="45.89239" lon="-0.88561">
        <ele>24</ele>
        <time>2018-06-30T19:55:35.000Z</time>
      </trkpt>
      <trkpt lat="45.89238" lon="-0.88561">
        <ele>24</ele>
        <time>2018-06-30T19:55:36.000Z</time>
      </trkpt>
      <trkpt lat="45.89237" lon="-0.8856">
        <ele>24</ele>
        <time>2018-06-30T19:55:37.000Z</time>
      </trkpt>
      <trkpt lat="45.89236" lon="-0.88559">
        <ele>24</ele>
        <time>2018-06-30T19:55:38.000Z</time>
      </trkpt>
      <trkpt lat="45.89235" lon="-0.88558">
        <ele>23</ele>
        <time>2018-06-30T19:55:39.000Z</time>
      </trkpt>
      <trkpt lat="45.89235" lon="-0.88557">
        <ele>23</ele>
        <time>2018-06-30T19:55:40.000Z</time>
      </trkpt>
      <trkpt lat="45.89234" lon="-0.88556">
        <ele>23</ele>
        <time>2018-06-30T19:55:41.000Z</time>
      </trkpt>
      <trkpt lat="45.89232" lon="-0.88555">
        <ele>23</ele>
        <time>2018-06-30T19:55:42.000Z</time>
      </trkpt>
      <trkpt lat="45.89231" lon="-0.88554">
        <ele>23</ele>
        <time>2018-06-30T19:55:43.000Z</time>
      </trkpt>
      <trkpt lat="45.8923" lon="-0.88553">
        <ele>24</ele>
        <time>2018-06-30T19:55:44.000Z</time>
      </trkpt>
      <trkpt lat="45.89229" lon="-0.88552">
        <ele>24</ele>
        <time>2018-06-30T19:55:45.000Z</time>
      </trkpt>
      <trkpt lat="45.89228" lon="-0.88551">
        <ele>24</ele>
        <time>2018-06-30T19:55:46.000Z</time>
      </trkpt>
      <trkpt lat="45.89227" lon="-0.8855">
        <ele>24</ele>
        <time>2018-06-30T19:55:47.000Z</time>
      </trkpt>
      <trkpt lat="45.89226" lon="-0.88549">
        <ele>24</ele>
        <time>2018-06-30T19:55:48.000Z</time>
      </trkpt>
      <trkpt lat="45.89225" lon="-0.88548">
        <ele>24</ele>
        <time>2018-06-30T19:55:49.000Z</time>
      </trkpt>
      <trkpt lat="45.89224" lon="-0.88547">
        <ele>24</ele>
        <time>2018-06-30T19:55:50.000Z</time>
      </trkpt>
      <trkpt lat="45.89223" lon="-0.88546">
        <ele>24</ele>
        <time>2018-06-30T19:55:51.000Z</time>
      </trkpt>
      <trkpt lat="45.89222" lon="-0.88545">
        <ele>24</ele>
        <time>2018-06-30T19:55:52.000Z</time>
      </trkpt>
      <trkpt lat="45.89221" lon="-0.88544">
        <ele>24</ele>
        <time>2018-06-30T19:55:53.000Z</time>
      </trkpt>
      <trkpt lat="45.8922" lon="-0.88543">
        <ele>24</ele>
        <time>2018-06-30T19:55:54.000Z</time>
      </trkpt>
      <trkpt lat="45.89219" lon="-0.88542">
        <ele>25</ele>
        <time>2018-06-30T19:55:55.000Z</time>
      </trkpt>
      <trkpt lat="45.89218" lon="-0.88541">
        <ele>25</ele>
        <time>2018-06-30T19:55:56.000Z</time>
      </trkpt>
      <trkpt lat="45.89216" lon="-0.8854">
        <ele>25</ele>
        <time>2018-06-30T19:55:57.000Z</time>
      </trkpt>
      <trkpt lat="45.89215" lon="-0.88539">
        <ele>24</ele>
        <time>2018-06-30T19:55:58.000Z</time>
      </trkpt>
      <trkpt lat="45.89214" lon="-0.88538">
        <ele>24</ele>
        <time>2018-06-30T19:55:59.000Z</time>
      </trkpt>
      <trkpt lat="45.89213" lon="-0.88538">
        <ele>24</ele>
        <time>2018-06-30T19:56:00.000Z</time>
      </trkpt>
      <trkpt lat="45.89211" lon="-0.88537">
        <ele>24</ele>
        <time>2018-06-30T19:56:01.000Z</time>
      </trkpt>
      <trkpt lat="45.8921" lon="-0.88536">
        <ele>24</ele>
        <time>2018-06-30T19:56:02.000Z</time>
      </trkpt>
      <trkpt lat="45.89209" lon="-0.88536">
        <ele>24</ele>
        <time>2018-06-30T19:56:03.000Z</time>
      </trkpt>
      <trkpt lat="45.89208" lon="-0.88535">
        <ele>24</ele>
        <time>2018-06-30T19:56:04.000Z</time>
      </trkpt>
      <trkpt lat="45.89207" lon="-0.88535">
        <ele>23</ele>
        <time>2018-06-30T19:56:05.000Z</time>
      </trkpt>
      <trkpt lat="45.89206" lon="-0.88534">
        <ele>23</ele>
        <time>2018-06-30T19:56:06.000Z</time>
      </trkpt>
      <trkpt lat="45.89205" lon="-0.88533">
        <ele>23</ele>
        <time>2018-06-30T19:56:07.000Z</time>
      </trkpt>
      <trkpt lat="45.89203" lon="-0.88532">
        <ele>23</ele>
        <time>2018-06-30T19:56:08.000Z</time>
      </trkpt>
      <trkpt lat="45.89202" lon="-0.88532">
        <ele>22</ele>
        <time>2018-06-30T19:56:09.000Z</time>
      </trkpt>
      <trkpt lat="45.89201" lon="-0.88531">
        <ele>22</ele>
        <time>2018-06-30T19:56:10.000Z</time>
      </trkpt>
      <trkpt lat="45.892" lon="-0.8853">
        <ele>22</ele>
        <time>2018-06-30T19:56:11.000Z</time>
      </trkpt>
      <trkpt lat="45.89199" lon="-0.8853">
        <ele>22</ele>
        <time>2018-06-30T19:56:12.000Z</time>
      </trkpt>
      <trkpt lat="45.89198" lon="-0.88529">
        <ele>22</ele>
        <time>2018-06-30T19:56:13.000Z</time>
      </trkpt>
      <trkpt lat="45.89197" lon="-0.88529">
        <ele>21</ele>
        <time>2018-06-30T19:56:14.000Z</time>
      </trkpt>
      <trkpt lat="45.89196" lon="-0.88528">
        <ele>21</ele>
        <time>2018-06-30T19:56:15.000Z</time>
      </trkpt>
      <trkpt lat="45.89195" lon="-0.88528">
        <ele>21</ele>
        <time>2018-06-30T19:56:16.000Z</time>
      </trkpt>
      <trkpt lat="45.89193" lon="-0.88528">
        <ele>21</ele>
        <time>2018-06-30T19:56:17.000Z</time>
      </trkpt>
      <trkpt lat="45.89192" lon="-0.88527">
        <ele>21</ele>
        <time>2018-06-30T19:56:18.000Z</time>
      </trkpt>
      <trkpt lat="45.89192" lon="-0.88527">
        <ele>21</ele>
        <time>2018-06-30T19:56:19.000Z</time>
      </trkpt>
      <trkpt lat="45.8919" lon="-0.88526">
        <ele>21</ele>
        <time>2018-06-30T19:56:20.000Z</time>
      </trkpt>
      <trkpt lat="45.89189" lon="-0.88525">
        <ele>21</ele>
        <time>2018-06-30T19:56:21.000Z</time>
      </trkpt>
      <trkpt lat="45.89188" lon="-0.88525">
        <ele>20</ele>
        <time>2018-06-30T19:56:22.000Z</time>
      </trkpt>
      <trkpt lat="45.89187" lon="-0.88525">
        <ele>20</ele>
        <time>2018-06-30T19:56:23.000Z</time>
      </trkpt>
      <trkpt lat="45.89186" lon="-0.88524">
        <ele>20</ele>
        <time>2018-06-30T19:56:24.000Z</time>
      </trkpt>
      <trkpt lat="45.89184" lon="-0.88524">
        <ele>19</ele>
        <time>2018-06-30T19:56:25.000Z</time>
      </trkpt>
      <trkpt lat="45.89183" lon="-0.88523">
        <ele>19</ele>
        <time>2018-06-30T19:56:26.000Z</time>
      </trkpt>
      <trkpt lat="45.89182" lon="-0.88523">
        <ele>19</ele>
        <time>2018-06-30T19:56:27.000Z</time>
      </trkpt>
      <trkpt lat="45.89181" lon="-0.88522">
        <ele>19</ele>
        <time>2018-06-30T19:56:28.000Z</time>
      </trkpt>
      <trkpt lat="45.8918" lon="-0.88522">
        <ele>19</ele>
        <time>2018-06-30T19:56:29.000Z</time>
      </trkpt>
      <trkpt lat="45.89179" lon="-0.88521">
        <ele>19</ele>
        <time>2018-06-30T19:56:30.000Z</time>
      </trkpt>
      <trkpt lat="45.89177" lon="-0.8852">
        <ele>20</ele>
        <time>2018-06-30T19:56:31.000Z</time>
      </trkpt>
      <trkpt lat="45.89176" lon="-0.8852">
        <ele>20</ele>
        <time>2018-06-30T19:56:32.000Z</time>
      </trkpt>
      <trkpt lat="45.89175" lon="-0.88519">
        <ele>19</ele>
        <time>2018-06-30T19:56:33.000Z</time>
      </trkpt>
      <trkpt lat="45.89174" lon="-0.88518">
        <ele>19</ele>
        <time>2018-06-30T19:56:34.000Z</time>
      </trkpt>
      <trkpt lat="45.89173" lon="-0.88518">
        <ele>19</ele>
        <time>2018-06-30T19:56:35.000Z</time>
      </trkpt>
      <trkpt lat="45.89171" lon="-0.88517">
        <ele>19</ele>
        <time>2018-06-30T19:56:36.000Z</time>
      </trkpt>
      <trkpt lat="45.8917" lon="-0.88516">
        <ele>18</ele>
        <time>2018-06-30T19:56:37.000Z</time>
      </trkpt>
      <trkpt lat="45.8917" lon="-0.88515">
        <ele>18</ele>
        <time>2018-06-30T19:56:38.000Z</time>
      </trkpt>
      <trkpt lat="45.89168" lon="-0.88514">
        <ele>17</ele>
        <time>2018-06-30T19:56:39.000Z</time>
      </trkpt>
      <trkpt lat="45.89167" lon="-0.88514">
        <ele>18</ele>
        <time>2018-06-30T19:56:40.000Z</time>
      </trkpt>
      <trkpt lat="45.89166" lon="-0.88513">
        <ele>18</ele>
        <time>2018-06-30T19:56:41.000Z</time>
      </trkpt>
      <trkpt lat="45.89165" lon="-0.88512">
        <ele>18</ele>
        <time>2018-06-30T19:56:42.000Z</time>
      </trkpt>
      <trkpt lat="45.89164" lon="-0.88511">
        <ele>18</ele>
        <time>2018-06-30T19:56:43.000Z</time>
      </trkpt>
      <trkpt lat="45.89163" lon="-0.88511">
        <ele>19</ele>
        <time>2018-06-30T19:56:44.000Z</time>
      </trkpt>
      <trkpt lat="45.89162" lon="-0.8851">
        <ele>19</ele>
        <time>2018-06-30T19:56:45.000Z</time>
      </trkpt>
      <trkpt lat="45.8916" lon="-0.8851">
        <ele>19</ele>
        <time>2018-06-30T19:56:46.000Z</time>
      </trkpt>
      <trkpt lat="45.89159" lon="-0.88509">
        <ele>20</ele>
        <time>2018-06-30T19:56:47.000Z</time>
      </trkpt>
      <trkpt lat="45.89158" lon="-0.88509">
        <ele>20</ele>
        <time>2018-06-30T19:56:48.000Z</time>
      </trkpt>
      <trkpt lat="45.89157" lon="-0.88508">
        <ele>19</ele>
        <time>2018-06-30T19:56:49.000Z</time>
      </trkpt>
      <trkpt lat="45.89156" lon="-0.88508">
        <ele>19</ele>
        <time>2018-06-30T19:56:50.000Z</time>
      </trkpt>
      <trkpt lat="45.89155" lon="-0.88508">
        <ele>19</ele>
        <time>2018-06-30T19:56:51.000Z</time>
      </trkpt>
      <trkpt lat="45.89154" lon="-0.88507">
        <ele>19</ele>
        <time>2018-06-30T19:56:52.000Z</time>
      </trkpt>
      <trkpt lat="45.89153" lon="-0.88507">
        <ele>19</ele>
        <time>2018-06-30T19:56:53.000Z</time>
      </trkpt>
      <trkpt lat="45.89152" lon="-0.88506">
        <ele>19</ele>
        <time>2018-06-30T19:56:54.000Z</time>
      </trkpt>
      <trkpt lat="45.89151" lon="-0.88505">
        <ele>20</ele>
        <time>2018-06-30T19:56:55.000Z</time>
      </trkpt>
      <trkpt lat="45.89149" lon="-0.88504">
        <ele>20</ele>
        <time>2018-06-30T19:56:56.000Z</time>
      </trkpt>
      <trkpt lat="45.89148" lon="-0.88504">
        <ele>21</ele>
        <time>2018-06-30T19:56:57.000Z</time>
      </trkpt>
      <trkpt lat="45.89147" lon="-0.88504">
        <ele>21</ele>
        <time>2018-06-30T19:56:58.000Z</time>
      </trkpt>
      <trkpt lat="45.89146" lon="-0.88503">
        <ele>21</ele>
        <time>2018-06-30T19:56:59.000Z</time>
      </trkpt>
      <trkpt lat="45.89144" lon="-0.88502">
        <ele>21</ele>
        <time>2018-06-30T19:57:00.000Z</time>
      </trkpt>
      <trkpt lat="45.89143" lon="-0.88502">
        <ele>21</ele>
        <time>2018-06-30T19:57:01.000Z</time>
      </trkpt>
      <trkpt lat="45.89141" lon="-0.88501">
        <ele>21</ele>
        <time>2018-06-30T19:57:02.000Z</time>
      </trkpt>
      <trkpt lat="45.8914" lon="-0.88501">
        <ele>22</ele>
        <time>2018-06-30T19:57:03.000Z</time>
      </trkpt>
      <trkpt lat="45.89139" lon="-0.885">
        <ele>22</ele>
        <time>2018-06-30T19:57:04.000Z</time>
      </trkpt>
      <trkpt lat="45.89137" lon="-0.88499">
        <ele>23</ele>
        <time>2018-06-30T19:57:05.000Z</time>
      </trkpt>
      <trkpt lat="45.89136" lon="-0.88499">
        <ele>23</ele>
        <time>2018-06-30T19:57:06.000Z</time>
      </trkpt>
      <trkpt lat="45.89135" lon="-0.88498">
        <ele>23</ele>
        <time>2018-06-30T19:57:07.000Z</time>
      </trkpt>
      <trkpt lat="45.89134" lon="-0.88498">
        <ele>23</ele>
        <time>2018-06-30T19:57:08.000Z</time>
      </trkpt>
      <trkpt lat="45.89132" lon="-0.88497">
        <ele>23</ele>
        <time>2018-06-30T19:57:09.000Z</time>
      </trkpt>
      <trkpt lat="45.89131" lon="-0.88497">
        <ele>23</ele>
        <time>2018-06-30T19:57:10.000Z</time>
      </trkpt>
      <trkpt lat="45.8913" lon="-0.88497">
        <ele>24</ele>
        <time>2018-06-30T19:57:11.000Z</time>
      </trkpt>
      <trkpt lat="45.89128" lon="-0.88496">
        <ele>24</ele>
        <time>2018-06-30T19:57:12.000Z</time>
      </trkpt>
      <trkpt lat="45.89127" lon="-0.88495">
        <ele>24</ele>
        <time>2018-06-30T19:57:13.000Z</time>
      </trkpt>
      <trkpt lat="45.89126" lon="-0.88495">
        <ele>24</ele>
        <time>2018-06-30T19:57:14.000Z</time>
      </trkpt>
      <trkpt lat="45.89125" lon="-0.88494">
        <ele>24</ele>
        <time>2018-06-30T19:57:15.000Z</time>
      </trkpt>
      <trkpt lat="45.89123" lon="-0.88494">
        <ele>24</ele>
        <time>2018-06-30T19:57:16.000Z</time>
      </trkpt>
      <trkpt lat="45.89122" lon="-0.88494">
        <ele>24</ele>
        <time>2018-06-30T19:57:17.000Z</time>
      </trkpt>
      <trkpt lat="45.89121" lon="-0.88493">
        <ele>24</ele>
        <time>2018-06-30T19:57:18.000Z</time>
      </trkpt>
      <trkpt lat="45.8912" lon="-0.88492">
        <ele>24</ele>
        <time>2018-06-30T19:57:19.000Z</time>
      </trkpt>
      <trkpt lat="45.89118" lon="-0.88492">
        <ele>24</ele>
        <time>2018-06-30T19:57:20.000Z</time>
      </trkpt>
      <trkpt lat="45.89117" lon="-0.88492">
        <ele>25</ele>
        <time>2018-06-30T19:57:21.000Z</time>
      </trkpt>
      <trkpt lat="45.89116" lon="-0.88491">
        <ele>25</ele>
        <time>2018-06-30T19:57:22.000Z</time>
      </trkpt>
      <trkpt lat="45.89115" lon="-0.88491">
        <ele>25</ele>
        <time>2018-06-30T19:57:23.000Z</time>
      </trkpt>
      <trkpt lat="45.89113" lon="-0.88491">
        <ele>25</ele>
        <time>2018-06-30T19:57:24.000Z</time>
      </trkpt>
      <trkpt lat="45.89112" lon="-0.8849">
        <ele>25</ele>
        <time>2018-06-30T19:57:25.000Z</time>
      </trkpt>
      <trkpt lat="45.89111" lon="-0.88489">
        <ele>25</ele>
        <time>2018-06-30T19:57:26.000Z</time>
      </trkpt>
      <trkpt lat="45.8911" lon="-0.88489">
        <ele>25</ele>
        <time>2018-06-30T19:57:27.000Z</time>
      </trkpt>
      <trkpt lat="45.89109" lon="-0.88489">
        <ele>24</ele>
        <time>2018-06-30T19:57:28.000Z</time>
      </trkpt>
      <trkpt lat="45.89108" lon="-0.88488">
        <ele>24</ele>
        <time>2018-06-30T19:57:29.000Z</time>
      </trkpt>
      <trkpt lat="45.89106" lon="-0.88488">
        <ele>24</ele>
        <time>2018-06-30T19:57:30.000Z</time>
      </trkpt>
      <trkpt lat="45.89105" lon="-0.88487">
        <ele>24</ele>
        <time>2018-06-30T19:57:31.000Z</time>
      </trkpt>
      <trkpt lat="45.89104" lon="-0.88487">
        <ele>24</ele>
        <time>2018-06-30T19:57:32.000Z</time>
      </trkpt>
      <trkpt lat="45.89103" lon="-0.88486">
        <ele>25</ele>
        <time>2018-06-30T19:57:33.000Z</time>
      </trkpt>
      <trkpt lat="45.89102" lon="-0.88486">
        <ele>25</ele>
        <time>2018-06-30T19:57:34.000Z</time>
      </trkpt>
      <trkpt lat="45.89101" lon="-0.88486">
        <ele>25</ele>
        <time>2018-06-30T19:57:35.000Z</time>
      </trkpt>
      <trkpt lat="45.89099" lon="-0.88485">
        <ele>25</ele>
        <time>2018-06-30T19:57:36.000Z</time>
      </trkpt>
      <trkpt lat="45.89098" lon="-0.88485">
        <ele>25</ele>
        <time>2018-06-30T19:57:37.000Z</time>
      </trkpt>
      <trkpt lat="45.89097" lon="-0.88485">
        <ele>25</ele>
        <time>2018-06-30T19:57:38.000Z</time>
      </trkpt>
      <trkpt lat="45.89096" lon="-0.88485">
        <ele>25</ele>
        <time>2018-06-30T19:57:39.000Z</time>
      </trkpt>
      <trkpt lat="45.89094" lon="-0.88485">
        <ele>24</ele>
        <time>2018-06-30T19:57:40.000Z</time>
      </trkpt>
      <trkpt lat="45.89093" lon="-0.88485">
        <ele>24</ele>
        <time>2018-06-30T19:57:41.000Z</time>
      </trkpt>
      <trkpt lat="45.89092" lon="-0.88485">
        <ele>24</ele>
        <time>2018-06-30T19:57:42.000Z</time>
      </trkpt>
      <trkpt lat="45.89091" lon="-0.88486">
        <ele>23</ele>
        <time>2018-06-30T19:57:43.000Z</time>
      </trkpt>
      <trkpt lat="45.8909" lon="-0.88487">
        <ele>23</ele>
        <time>2018-06-30T19:57:44.000Z</time>
      </trkpt>
      <trkpt lat="45.89089" lon="-0.88488">
        <ele>23</ele>
        <time>2018-06-30T19:57:45.000Z</time>
      </trkpt>
      <trkpt lat="45.89088" lon="-0.88489">
        <ele>22</ele>
        <time>2018-06-30T19:57:46.000Z</time>
      </trkpt>
      <trkpt lat="45.89087" lon="-0.88491">
        <ele>22</ele>
        <time>2018-06-30T19:57:47.000Z</time>
      </trkpt>
      <trkpt lat="45.89087" lon="-0.88493">
        <ele>22</ele>
        <time>2018-06-30T19:57:48.000Z</time>
      </trkpt>
      <trkpt lat="45.89086" lon="-0.88494">
        <ele>22</ele>
        <time>2018-06-30T19:57:49.000Z</time>
      </trkpt>
      <trkpt lat="45.89086" lon="-0.88496">
        <ele>22</ele>
        <time>2018-06-30T19:57:50.000Z</time>
      </trkpt>
      <trkpt lat="45.89086" lon="-0.88498">
        <ele>22</ele>
        <time>2018-06-30T19:57:51.000Z</time>
      </trkpt>
      <trkpt lat="45.89086" lon="-0.88499">
        <ele>22</ele>
        <time>2018-06-30T19:57:52.000Z</time>
      </trkpt>
      <trkpt lat="45.89085" lon="-0.88501">
        <ele>23</ele>
        <time>2018-06-30T19:57:53.000Z</time>
      </trkpt>
      <trkpt lat="45.89085" lon="-0.88503">
        <ele>22</ele>
        <time>2018-06-30T19:57:54.000Z</time>
      </trkpt>
      <trkpt lat="45.89085" lon="-0.88505">
        <ele>23</ele>
        <time>2018-06-30T19:57:55.000Z</time>
      </trkpt>
      <trkpt lat="45.89086" lon="-0.88507">
        <ele>23</ele>
        <time>2018-06-30T19:57:56.000Z</time>
      </trkpt>
      <trkpt lat="45.89086" lon="-0.88508">
        <ele>23</ele>
        <time>2018-06-30T19:57:57.000Z</time>
      </trkpt>
      <trkpt lat="45.89085" lon="-0.8851">
        <ele>23</ele>
        <time>2018-06-30T19:57:58.000Z</time>
      </trkpt>
      <trkpt lat="45.89085" lon="-0.88512">
        <ele>23</ele>
        <time>2018-06-30T19:57:59.000Z</time>
      </trkpt>
      <trkpt lat="45.89085" lon="-0.88514">
        <ele>23</ele>
        <time>2018-06-30T19:58:00.000Z</time>
      </trkpt>
      <trkpt lat="45.89085" lon="-0.88515">
        <ele>23</ele>
        <time>2018-06-30T19:58:01.000Z</time>
      </trkpt>
      <trkpt lat="45.89085" lon="-0.88517">
        <ele>23</ele>
        <time>2018-06-30T19:58:02.000Z</time>
      </trkpt>
      <trkpt lat="45.89085" lon="-0.88519">
        <ele>23</ele>
        <time>2018-06-30T19:58:03.000Z</time>
      </trkpt>
      <trkpt lat="45.89085" lon="-0.8852">
        <ele>23</ele>
        <time>2018-06-30T19:58:04.000Z</time>
      </trkpt>
      <trkpt lat="45.89085" lon="-0.88522">
        <ele>23</ele>
        <time>2018-06-30T19:58:05.000Z</time>
      </trkpt>
      <trkpt lat="45.89085" lon="-0.88524">
        <ele>22</ele>
        <time>2018-06-30T19:58:06.000Z</time>
      </trkpt>
      <trkpt lat="45.89085" lon="-0.88525">
        <ele>22</ele>
        <time>2018-06-30T19:58:07.000Z</time>
      </trkpt>
      <trkpt lat="45.89085" lon="-0.88527">
        <ele>22</ele>
        <time>2018-06-30T19:58:08.000Z</time>
      </trkpt>
      <trkpt lat="45.89085" lon="-0.88528">
        <ele>21</ele>
        <time>2018-06-30T19:58:09.000Z</time>
      </trkpt>
      <trkpt lat="45.89085" lon="-0.8853">
        <ele>21</ele>
        <time>2018-06-30T19:58:10.000Z</time>
      </trkpt>
      <trkpt lat="45.89085" lon="-0.88532">
        <ele>21</ele>
        <time>2018-06-30T19:58:11.000Z</time>
      </trkpt>
      <trkpt lat="45.89085" lon="-0.88534">
        <ele>21</ele>
        <time>2018-06-30T19:58:12.000Z</time>
      </trkpt>
      <trkpt lat="45.89085" lon="-0.88536">
        <ele>21</ele>
        <time>2018-06-30T19:58:13.000Z</time>
      </trkpt>
      <trkpt lat="45.89085" lon="-0.88538">
        <ele>21</ele>
        <time>2018-06-30T19:58:14.000Z</time>
      </trkpt>
      <trkpt lat="45.89085" lon="-0.8854">
        <ele>22</ele>
        <time>2018-06-30T19:58:15.000Z</time>
      </trkpt>
      <trkpt lat="45.89085" lon="-0.88541">
        <ele>22</ele>
        <time>2018-06-30T19:58:16.000Z</time>
      </trkpt>
      <trkpt lat="45.89085" lon="-0.88543">
        <ele>22</ele>
        <time>2018-06-30T19:58:17.000Z</time>
      </trkpt>
      <trkpt lat="45.89085" lon="-0.88545">
        <ele>22</ele>
        <time>2018-06-30T19:58:18.000Z</time>
      </trkpt>
      <trkpt lat="45.89085" lon="-0.88547">
        <ele>22</ele>
        <time>2018-06-30T19:58:19.000Z</time>
      </trkpt>
      <trkpt lat="45.89085" lon="-0.88548">
        <ele>22</ele>
        <time>2018-06-30T19:58:20.000Z</time>
      </trkpt>
      <trkpt lat="45.89084" lon="-0.8855">
        <ele>22</ele>
        <time>2018-06-30T19:58:21.000Z</time>
      </trkpt>
      <trkpt lat="45.89084" lon="-0.88552">
        <ele>22</ele>
        <time>2018-06-30T19:58:22.000Z</time>
      </trkpt>
      <trkpt lat="45.89084" lon="-0.88554">
        <ele>22</ele>
        <time>2018-06-30T19:58:23.000Z</time>
      </trkpt>
      <trkpt lat="45.89084" lon="-0.88555">
        <ele>22</ele>
        <time>2018-06-30T19:58:24.000Z</time>
      </trkpt>
      <trkpt lat="45.89084" lon="-0.88557">
        <ele>22</ele>
        <time>2018-06-30T19:58:25.000Z</time>
      </trkpt>
      <trkpt lat="45.89084" lon="-0.88559">
        <ele>22</ele>
        <time>2018-06-30T19:58:26.000Z</time>
      </trkpt>
      <trkpt lat="45.89084" lon="-0.88561">
        <ele>22</ele>
        <time>2018-06-30T19:58:27.000Z</time>
      </trkpt>
      <trkpt lat="45.89084" lon="-0.88562">
        <ele>22</ele>
        <time>2018-06-30T19:58:28.000Z</time>
      </trkpt>
      <trkpt lat="45.89084" lon="-0.88564">
        <ele>22</ele>
        <time>2018-06-30T19:58:29.000Z</time>
      </trkpt>
      <trkpt lat="45.89084" lon="-0.88566">
        <ele>22</ele>
        <time>2018-06-30T19:58:30.000Z</time>
      </trkpt>
      <trkpt lat="45.89084" lon="-0.88568">
        <ele>22</ele>
        <time>2018-06-30T19:58:31.000Z</time>
      </trkpt>
      <trkpt lat="45.89084" lon="-0.88569">
        <ele>21</ele>
        <time>2018-06-30T19:58:32.000Z</time>
      </trkpt>
      <trkpt lat="45.89084" lon="-0.88571">
        <ele>21</ele>
        <time>2018-06-30T19:58:33.000Z</time>
      </trkpt>
      <trkpt lat="45.89084" lon="-0.88573">
        <ele>21</ele>
        <time>2018-06-30T19:58:34.000Z</time>
      </trkpt>
      <trkpt lat="45.89084" lon="-0.88575">
        <ele>21</ele>
        <time>2018-06-30T19:58:35.000Z</time>
      </trkpt>
      <trkpt lat="45.89084" lon="-0.88576">
        <ele>21</ele>
        <time>2018-06-30T19:58:36.000Z</time>
      </trkpt>
      <trkpt lat="45.89084" lon="-0.88578">
        <ele>21</ele>
        <time>2018-06-30T19:58:37.000Z</time>
      </trkpt>
      <trkpt lat="45.89084" lon="-0.88579">
        <ele>21</ele>
        <time>2018-06-30T19:58:38.000Z</time>
      </trkpt>
      <trkpt lat="45.89084" lon="-0.88581">
        <ele>21</ele>
        <time>2018-06-30T19:58:39.000Z</time>
      </trkpt>
      <trkpt lat="45.89084" lon="-0.88583">
        <ele>21</ele>
        <time>2018-06-30T19:58:40.000Z</time>
      </trkpt>
      <trkpt lat="45.89084" lon="-0.88585">
        <ele>21</ele>
        <time>2018-06-30T19:58:41.000Z</time>
      </trkpt>
      <trkpt lat="45.89084" lon="-0.88586">
        <ele>22</ele>
        <time>2018-06-30T19:58:42.000Z</time>
      </trkpt>
      <trkpt lat="45.89084" lon="-0.88588">
        <ele>22</ele>
        <time>2018-06-30T19:58:43.000Z</time>
      </trkpt>
      <trkpt lat="45.89084" lon="-0.8859">
        <ele>22</ele>
        <time>2018-06-30T19:58:44.000Z</time>
      </trkpt>
      <trkpt lat="45.89084" lon="-0.88592">
        <ele>22</ele>
        <time>2018-06-30T19:58:45.000Z</time>
      </trkpt>
      <trkpt lat="45.89084" lon="-0.88593">
        <ele>22</ele>
        <time>2018-06-30T19:58:46.000Z</time>
      </trkpt>
      <trkpt lat="45.89084" lon="-0.88595">
        <ele>23</ele>
        <time>2018-06-30T19:58:47.000Z</time>
      </trkpt>
      <trkpt lat="45.89084" lon="-0.88597">
        <ele>23</ele>
        <time>2018-06-30T19:58:48.000Z</time>
      </trkpt>
      <trkpt lat="45.89084" lon="-0.88599">
        <ele>23</ele>
        <time>2018-06-30T19:58:49.000Z</time>
      </trkpt>
      <trkpt lat="45.89083" lon="-0.886">
        <ele>24</ele>
        <time>2018-06-30T19:58:50.000Z</time>
      </trkpt>
      <trkpt lat="45.89083" lon="-0.88602">
        <ele>23</ele>
        <time>2018-06-30T19:58:51.000Z</time>
      </trkpt>
      <trkpt lat="45.89083" lon="-0.88604">
        <ele>23</ele>
        <time>2018-06-30T19:58:52.000Z</time>
      </trkpt>
      <trkpt lat="45.89083" lon="-0.88605">
        <ele>23</ele>
        <time>2018-06-30T19:58:53.000Z</time>
      </trkpt>
      <trkpt lat="45.89083" lon="-0.88607">
        <ele>23</ele>
        <time>2018-06-30T19:58:54.000Z</time>
      </trkpt>
      <trkpt lat="45.89083" lon="-0.88609">
        <ele>23</ele>
        <time>2018-06-30T19:58:55.000Z</time>
      </trkpt>
      <trkpt lat="45.89084" lon="-0.8861">
        <ele>23</ele>
        <time>2018-06-30T19:58:56.000Z</time>
      </trkpt>
      <trkpt lat="45.89083" lon="-0.88612">
        <ele>23</ele>
        <time>2018-06-30T19:58:57.000Z</time>
      </trkpt>
      <trkpt lat="45.89083" lon="-0.88614">
        <ele>23</ele>
        <time>2018-06-30T19:58:58.000Z</time>
      </trkpt>
      <trkpt lat="45.89083" lon="-0.88616">
        <ele>23</ele>
        <time>2018-06-30T19:58:59.000Z</time>
      </trkpt>
      <trkpt lat="45.89083" lon="-0.88617">
        <ele>23</ele>
        <time>2018-06-30T19:59:00.000Z</time>
      </trkpt>
      <trkpt lat="45.89083" lon="-0.88619">
        <ele>23</ele>
        <time>2018-06-30T19:59:01.000Z</time>
      </trkpt>
      <trkpt lat="45.89084" lon="-0.88621">
        <ele>23</ele>
        <time>2018-06-30T19:59:02.000Z</time>
      </trkpt>
      <trkpt lat="45.89084" lon="-0.88622">
        <ele>22</ele>
        <time>2018-06-30T19:59:03.000Z</time>
      </trkpt>
      <trkpt lat="45.89084" lon="-0.88624">
        <ele>22</ele>
        <time>2018-06-30T19:59:04.000Z</time>
      </trkpt>
      <trkpt lat="45.89084" lon="-0.88625">
        <ele>22</ele>
        <time>2018-06-30T19:59:05.000Z</time>
      </trkpt>
      <trkpt lat="45.89084" lon="-0.88627">
        <ele>22</ele>
        <time>2018-06-30T19:59:06.000Z</time>
      </trkpt>
      <trkpt lat="45.89084" lon="-0.88629">
        <ele>23</ele>
        <time>2018-06-30T19:59:07.000Z</time>
      </trkpt>
      <trkpt lat="45.89084" lon="-0.88631">
        <ele>23</ele>
        <time>2018-06-30T19:59:08.000Z</time>
      </trkpt>
      <trkpt lat="45.89084" lon="-0.88633">
        <ele>22</ele>
        <time>2018-06-30T19:59:09.000Z</time>
      </trkpt>
      <trkpt lat="45.89084" lon="-0.88634">
        <ele>22</ele>
        <time>2018-06-30T19:59:10.000Z</time>
      </trkpt>
      <trkpt lat="45.89084" lon="-0.88636">
        <ele>22</ele>
        <time>2018-06-30T19:59:11.000Z</time>
      </trkpt>
      <trkpt lat="45.89084" lon="-0.88638">
        <ele>22</ele>
        <time>2018-06-30T19:59:12.000Z</time>
      </trkpt>
      <trkpt lat="45.89084" lon="-0.8864">
        <ele>22</ele>
        <time>2018-06-30T19:59:13.000Z</time>
      </trkpt>
      <trkpt lat="45.89084" lon="-0.88641">
        <ele>22</ele>
        <time>2018-06-30T19:59:14.000Z</time>
      </trkpt>
      <trkpt lat="45.89084" lon="-0.88643">
        <ele>22</ele>
        <time>2018-06-30T19:59:15.000Z</time>
      </trkpt>
      <trkpt lat="45.89084" lon="-0.88645">
        <ele>22</ele>
        <time>2018-06-30T19:59:16.000Z</time>
      </trkpt>
      <trkpt lat="45.89084" lon="-0.88646">
        <ele>22</ele>
        <time>2018-06-30T19:59:17.000Z</time>
      </trkpt>
      <trkpt lat="45.89084" lon="-0.88648">
        <ele>22</ele>
        <time>2018-06-30T19:59:18.000Z</time>
      </trkpt>
      <trkpt lat="45.89084" lon="-0.8865">
        <ele>22</ele>
        <time>2018-06-30T19:59:19.000Z</time>
      </trkpt>
      <trkpt lat="45.89084" lon="-0.88652">
        <ele>22</ele>
        <time>2018-06-30T19:59:20.000Z</time>
      </trkpt>
      <trkpt lat="45.89084" lon="-0.88653">
        <ele>22</ele>
        <time>2018-06-30T19:59:21.000Z</time>
      </trkpt>
      <trkpt lat="45.89084" lon="-0.88655">
        <ele>22</ele>
        <time>2018-06-30T19:59:22.000Z</time>
      </trkpt>
      <trkpt lat="45.89084" lon="-0.88657">
        <ele>22</ele>
        <time>2018-06-30T19:59:23.000Z</time>
      </trkpt>
      <trkpt lat="45.89084" lon="-0.88658">
        <ele>22</ele>
        <time>2018-06-30T19:59:24.000Z</time>
      </trkpt>
      <trkpt lat="45.89084" lon="-0.8866">
        <ele>22</ele>
        <time>2018-06-30T19:59:25.000Z</time>
      </trkpt>
      <trkpt lat="45.89084" lon="-0.88662">
        <ele>22</ele>
        <time>2018-06-30T19:59:26.000Z</time>
      </trkpt>
      <trkpt lat="45.89084" lon="-0.88663">
        <ele>22</ele>
        <time>2018-06-30T19:59:27.000Z</time>
      </trkpt>
      <trkpt lat="45.89084" lon="-0.88665">
        <ele>22</ele>
        <time>2018-06-30T19:59:28.000Z</time>
      </trkpt>
      <trkpt lat="45.89084" lon="-0.88667">
        <ele>22</ele>
        <time>2018-06-30T19:59:29.000Z</time>
      </trkpt>
      <trkpt lat="45.89084" lon="-0.88669">
        <ele>22</ele>
        <time>2018-06-30T19:59:30.000Z</time>
      </trkpt>
      <trkpt lat="45.89084" lon="-0.8867">
        <ele>22</ele>
        <time>2018-06-30T19:59:31.000Z</time>
      </trkpt>
      <trkpt lat="45.89084" lon="-0.88672">
        <ele>22</ele>
        <time>2018-06-30T19:59:32.000Z</time>
      </trkpt>
      <trkpt lat="45.89084" lon="-0.88674">
        <ele>22</ele>
        <time>2018-06-30T19:59:33.000Z</time>
      </trkpt>
      <trkpt lat="45.89084" lon="-0.88676">
        <ele>22</ele>
        <time>2018-06-30T19:59:34.000Z</time>
      </trkpt>
      <trkpt lat="45.89084" lon="-0.88677">
        <ele>22</ele>
        <time>2018-06-30T19:59:35.000Z</time>
      </trkpt>
      <trkpt lat="45.89084" lon="-0.88679">
        <ele>22</ele>
        <time>2018-06-30T19:59:36.000Z</time>
      </trkpt>
      <trkpt lat="45.89084" lon="-0.88681">
        <ele>22</ele>
        <time>2018-06-30T19:59:37.000Z</time>
      </trkpt>
      <trkpt lat="45.89084" lon="-0.88682">
        <ele>22</ele>
        <time>2018-06-30T19:59:38.000Z</time>
      </trkpt>
      <trkpt lat="45.89084" lon="-0.88684">
        <ele>22</ele>
        <time>2018-06-30T19:59:39.000Z</time>
      </trkpt>
      <trkpt lat="45.89084" lon="-0.88686">
        <ele>22</ele>
        <time>2018-06-30T19:59:40.000Z</time>
      </trkpt>
      <trkpt lat="45.89084" lon="-0.88687">
        <ele>22</ele>
        <time>2018-06-30T19:59:41.000Z</time>
      </trkpt>
      <trkpt lat="45.89084" lon="-0.88689">
        <ele>22</ele>
        <time>2018-06-30T19:59:42.000Z</time>
      </trkpt>
      <trkpt lat="45.89084" lon="-0.88691">
        <ele>22</ele>
        <time>2018-06-30T19:59:43.000Z</time>
      </trkpt>
      <trkpt lat="45.89084" lon="-0.88693">
        <ele>22</ele>
        <time>2018-06-30T19:59:44.000Z</time>
      </trkpt>
      <trkpt lat="45.89083" lon="-0.88694">
        <ele>22</ele>
        <time>2018-06-30T19:59:45.000Z</time>
      </trkpt>
      <trkpt lat="45.89084" lon="-0.88696">
        <ele>22</ele>
        <time>2018-06-30T19:59:46.000Z</time>
      </trkpt>
      <trkpt lat="45.89084" lon="-0.88698">
        <ele>22</ele>
        <time>2018-06-30T19:59:47.000Z</time>
      </trkpt>
      <trkpt lat="45.89084" lon="-0.887">
        <ele>22</ele>
        <time>2018-06-30T19:59:48.000Z</time>
      </trkpt>
      <trkpt lat="45.89084" lon="-0.88702">
        <ele>22</ele>
        <time>2018-06-30T19:59:49.000Z</time>
      </trkpt>
      <trkpt lat="45.89084" lon="-0.88703">
        <ele>22</ele>
        <time>2018-06-30T19:59:50.000Z</time>
      </trkpt>
      <trkpt lat="45.89084" lon="-0.88705">
        <ele>22</ele>
        <time>2018-06-30T19:59:51.000Z</time>
      </trkpt>
      <trkpt lat="45.89083" lon="-0.88706">
        <ele>21</ele>
        <time>2018-06-30T19:59:52.000Z</time>
      </trkpt>
      <trkpt lat="45.89083" lon="-0.88708">
        <ele>21</ele>
        <time>2018-06-30T19:59:53.000Z</time>
      </trkpt>
      <trkpt lat="45.89083" lon="-0.8871">
        <ele>22</ele>
        <time>2018-06-30T19:59:54.000Z</time>
      </trkpt>
      <trkpt lat="45.89083" lon="-0.88711">
        <ele>22</ele>
        <time>2018-06-30T19:59:55.000Z</time>
      </trkpt>
      <trkpt lat="45.89083" lon="-0.88713">
        <ele>22</ele>
        <time>2018-06-30T19:59:56.000Z</time>
      </trkpt>
      <trkpt lat="45.89083" lon="-0.88714">
        <ele>21</ele>
        <time>2018-06-30T19:59:57.000Z</time>
      </trkpt>
      <trkpt lat="45.89083" lon="-0.88716">
        <ele>21</ele>
        <time>2018-06-30T19:59:58.000Z</time>
      </trkpt>
      <trkpt lat="45.89083" lon="-0.88718">
        <ele>21</ele>
        <time>2018-06-30T19:59:59.000Z</time>
      </trkpt>
      <trkpt lat="45.89083" lon="-0.8872">
        <ele>21</ele>
        <time>2018-06-30T20:00:00.000Z</time>
      </trkpt>
      <trkpt lat="45.89082" lon="-0.88722">
        <ele>21</ele>
        <time>2018-06-30T20:00:01.000Z</time>
      </trkpt>
      <trkpt lat="45.89082" lon="-0.88723">
        <ele>22</ele>
        <time>2018-06-30T20:00:02.000Z</time>
      </trkpt>
      <trkpt lat="45.89082" lon="-0.88725">
        <ele>22</ele>
        <time>2018-06-30T20:00:03.000Z</time>
      </trkpt>
      <trkpt lat="45.89082" lon="-0.88727">
        <ele>22</ele>
        <time>2018-06-30T20:00:04.000Z</time>
      </trkpt>
      <trkpt lat="45.89082" lon="-0.88729">
        <ele>22</ele>
        <time>2018-06-30T20:00:05.000Z</time>
      </trkpt>
      <trkpt lat="45.89082" lon="-0.8873">
        <ele>22</ele>
        <time>2018-06-30T20:00:06.000Z</time>
      </trkpt>
      <trkpt lat="45.89082" lon="-0.88732">
        <ele>22</ele>
        <time>2018-06-30T20:00:07.000Z</time>
      </trkpt>
      <trkpt lat="45.89081" lon="-0.88734">
        <ele>22</ele>
        <time>2018-06-30T20:00:08.000Z</time>
      </trkpt>
      <trkpt lat="45.89081" lon="-0.88736">
        <ele>22</ele>
        <time>2018-06-30T20:00:09.000Z</time>
      </trkpt>
      <trkpt lat="45.89081" lon="-0.88738">
        <ele>22</ele>
        <time>2018-06-30T20:00:10.000Z</time>
      </trkpt>
      <trkpt lat="45.89081" lon="-0.88739">
        <ele>22</ele>
        <time>2018-06-30T20:00:11.000Z</time>
      </trkpt>
      <trkpt lat="45.89081" lon="-0.88741">
        <ele>22</ele>
        <time>2018-06-30T20:00:12.000Z</time>
      </trkpt>
      <trkpt lat="45.89081" lon="-0.88742">
        <ele>22</ele>
        <time>2018-06-30T20:00:13.000Z</time>
      </trkpt>
      <trkpt lat="45.89081" lon="-0.88744">
        <ele>22</ele>
        <time>2018-06-30T20:00:14.000Z</time>
      </trkpt>
      <trkpt lat="45.8908" lon="-0.88746">
        <ele>22</ele>
        <time>2018-06-30T20:00:15.000Z</time>
      </trkpt>
      <trkpt lat="45.8908" lon="-0.88747">
        <ele>22</ele>
        <time>2018-06-30T20:00:16.000Z</time>
      </trkpt>
      <trkpt lat="45.8908" lon="-0.88749">
        <ele>22</ele>
        <time>2018-06-30T20:00:17.000Z</time>
      </trkpt>
      <trkpt lat="45.8908" lon="-0.8875">
        <ele>22</ele>
        <time>2018-06-30T20:00:18.000Z</time>
      </trkpt>
      <trkpt lat="45.8908" lon="-0.88752">
        <ele>22</ele>
        <time>2018-06-30T20:00:19.000Z</time>
      </trkpt>
      <trkpt lat="45.89079" lon="-0.88754">
        <ele>22</ele>
        <time>2018-06-30T20:00:20.000Z</time>
      </trkpt>
      <trkpt lat="45.89079" lon="-0.88756">
        <ele>22</ele>
        <time>2018-06-30T20:00:21.000Z</time>
      </trkpt>
      <trkpt lat="45.89079" lon="-0.88757">
        <ele>22</ele>
        <time>2018-06-30T20:00:22.000Z</time>
      </trkpt>
      <trkpt lat="45.89079" lon="-0.88759">
        <ele>22</ele>
        <time>2018-06-30T20:00:23.000Z</time>
      </trkpt>
      <trkpt lat="45.89078" lon="-0.88761">
        <ele>23</ele>
        <time>2018-06-30T20:00:24.000Z</time>
      </trkpt>
      <trkpt lat="45.89078" lon="-0.88763">
        <ele>23</ele>
        <time>2018-06-30T20:00:25.000Z</time>
      </trkpt>
      <trkpt lat="45.89078" lon="-0.88765">
        <ele>23</ele>
        <time>2018-06-30T20:00:26.000Z</time>
      </trkpt>
      <trkpt lat="45.89078" lon="-0.88766">
        <ele>22</ele>
        <time>2018-06-30T20:00:27.000Z</time>
      </trkpt>
      <trkpt lat="45.89077" lon="-0.88768">
        <ele>22</ele>
        <time>2018-06-30T20:00:28.000Z</time>
      </trkpt>
      <trkpt lat="45.89077" lon="-0.88769">
        <ele>22</ele>
        <time>2018-06-30T20:00:29.000Z</time>
      </trkpt>
      <trkpt lat="45.89077" lon="-0.88771">
        <ele>23</ele>
        <time>2018-06-30T20:00:30.000Z</time>
      </trkpt>
      <trkpt lat="45.89077" lon="-0.88773">
        <ele>23</ele>
        <time>2018-06-30T20:00:31.000Z</time>
      </trkpt>
      <trkpt lat="45.89076" lon="-0.88774">
        <ele>23</ele>
        <time>2018-06-30T20:00:32.000Z</time>
      </trkpt>
      <trkpt lat="45.89076" lon="-0.88776">
        <ele>23</ele>
        <time>2018-06-30T20:00:33.000Z</time>
      </trkpt>
      <trkpt lat="45.89076" lon="-0.88778">
        <ele>23</ele>
        <time>2018-06-30T20:00:34.000Z</time>
      </trkpt>
      <trkpt lat="45.89076" lon="-0.88779">
        <ele>23</ele>
        <time>2018-06-30T20:00:35.000Z</time>
      </trkpt>
      <trkpt lat="45.89075" lon="-0.88781">
        <ele>23</ele>
        <time>2018-06-30T20:00:36.000Z</time>
      </trkpt>
      <trkpt lat="45.89074" lon="-0.88782">
        <ele>23</ele>
        <time>2018-06-30T20:00:37.000Z</time>
      </trkpt>
      <trkpt lat="45.89074" lon="-0.88784">
        <ele>23</ele>
        <time>2018-06-30T20:00:38.000Z</time>
      </trkpt>
      <trkpt lat="45.89073" lon="-0.88786">
        <ele>23</ele>
        <time>2018-06-30T20:00:39.000Z</time>
      </trkpt>
      <trkpt lat="45.89072" lon="-0.88788">
        <ele>23</ele>
        <time>2018-06-30T20:00:40.000Z</time>
      </trkpt>
      <trkpt lat="45.89072" lon="-0.88789">
        <ele>23</ele>
        <time>2018-06-30T20:00:41.000Z</time>
      </trkpt>
      <trkpt lat="45.89071" lon="-0.8879">
        <ele>23</ele>
        <time>2018-06-30T20:00:42.000Z</time>
      </trkpt>
      <trkpt lat="45.8907" lon="-0.88792">
        <ele>24</ele>
        <time>2018-06-30T20:00:43.000Z</time>
      </trkpt>
      <trkpt lat="45.89069" lon="-0.88793">
        <ele>24</ele>
        <time>2018-06-30T20:00:44.000Z</time>
      </trkpt>
      <trkpt lat="45.89067" lon="-0.88793">
        <ele>24</ele>
        <time>2018-06-30T20:00:45.000Z</time>
      </trkpt>
      <trkpt lat="45.89066" lon="-0.88794">
        <ele>24</ele>
        <time>2018-06-30T20:00:46.000Z</time>
      </trkpt>
      <trkpt lat="45.89065" lon="-0.88795">
        <ele>24</ele>
        <time>2018-06-30T20:00:47.000Z</time>
      </trkpt>
      <trkpt lat="45.89064" lon="-0.88796">
        <ele>24</ele>
        <time>2018-06-30T20:00:48.000Z</time>
      </trkpt>
      <trkpt lat="45.89063" lon="-0.88796">
        <ele>24</ele>
        <time>2018-06-30T20:00:49.000Z</time>
      </trkpt>
      <trkpt lat="45.89061" lon="-0.88797">
        <ele>25</ele>
        <time>2018-06-30T20:00:50.000Z</time>
      </trkpt>
      <trkpt lat="45.8906" lon="-0.88797">
        <ele>25</ele>
        <time>2018-06-30T20:00:51.000Z</time>
      </trkpt>
      <trkpt lat="45.89059" lon="-0.88798">
        <ele>25</ele>
        <time>2018-06-30T20:00:52.000Z</time>
      </trkpt>
      <trkpt lat="45.89058" lon="-0.88798">
        <ele>25</ele>
        <time>2018-06-30T20:00:53.000Z</time>
      </trkpt>
      <trkpt lat="45.89056" lon="-0.88798">
        <ele>25</ele>
        <time>2018-06-30T20:00:54.000Z</time>
      </trkpt>
      <trkpt lat="45.89055" lon="-0.88798">
        <ele>25</ele>
        <time>2018-06-30T20:00:55.000Z</time>
      </trkpt>
      <trkpt lat="45.89054" lon="-0.88798">
        <ele>24</ele>
        <time>2018-06-30T20:00:56.000Z</time>
      </trkpt>
      <trkpt lat="45.89053" lon="-0.88798">
        <ele>24</ele>
        <time>2018-06-30T20:00:57.000Z</time>
      </trkpt>
      <trkpt lat="45.89052" lon="-0.88798">
        <ele>24</ele>
        <time>2018-06-30T20:00:58.000Z</time>
      </trkpt>
      <trkpt lat="45.8905" lon="-0.88798">
        <ele>24</ele>
        <time>2018-06-30T20:00:59.000Z</time>
      </trkpt>
      <trkpt lat="45.89049" lon="-0.88798">
        <ele>24</ele>
        <time>2018-06-30T20:01:00.000Z</time>
      </trkpt>
      <trkpt lat="45.89048" lon="-0.88798">
        <ele>24</ele>
        <time>2018-06-30T20:01:01.000Z</time>
      </trkpt>
      <trkpt lat="45.89047" lon="-0.88797">
        <ele>24</ele>
        <time>2018-06-30T20:01:02.000Z</time>
      </trkpt>
      <trkpt lat="45.89046" lon="-0.88797">
        <ele>24</ele>
        <time>2018-06-30T20:01:03.000Z</time>
      </trkpt>
      <trkpt lat="45.89045" lon="-0.88796">
        <ele>24</ele>
        <time>2018-06-30T20:01:04.000Z</time>
      </trkpt>
      <trkpt lat="45.89043" lon="-0.88796">
        <ele>24</ele>
        <time>2018-06-30T20:01:05.000Z</time>
      </trkpt>
      <trkpt lat="45.89042" lon="-0.88796">
        <ele>24</ele>
        <time>2018-06-30T20:01:06.000Z</time>
      </trkpt>
      <trkpt lat="45.89041" lon="-0.88795">
        <ele>24</ele>
        <time>2018-06-30T20:01:07.000Z</time>
      </trkpt>
      <trkpt lat="45.8904" lon="-0.88795">
        <ele>23</ele>
        <time>2018-06-30T20:01:08.000Z</time>
      </trkpt>
      <trkpt lat="45.89039" lon="-0.88794">
        <ele>23</ele>
        <time>2018-06-30T20:01:09.000Z</time>
      </trkpt>
      <trkpt lat="45.89038" lon="-0.88794">
        <ele>23</ele>
        <time>2018-06-30T20:01:10.000Z</time>
      </trkpt>
      <trkpt lat="45.89036" lon="-0.88793">
        <ele>23</ele>
        <time>2018-06-30T20:01:11.000Z</time>
      </trkpt>
      <trkpt lat="45.89035" lon="-0.88793">
        <ele>22</ele>
        <time>2018-06-30T20:01:12.000Z</time>
      </trkpt>
      <trkpt lat="45.89034" lon="-0.88793">
        <ele>22</ele>
        <time>2018-06-30T20:01:13.000Z</time>
      </trkpt>
      <trkpt lat="45.89033" lon="-0.88792">
        <ele>22</ele>
        <time>2018-06-30T20:01:14.000Z</time>
      </trkpt>
      <trkpt lat="45.89032" lon="-0.88792">
        <ele>22</ele>
        <time>2018-06-30T20:01:15.000Z</time>
      </trkpt>
      <trkpt lat="45.89031" lon="-0.88791">
        <ele>22</ele>
        <time>2018-06-30T20:01:16.000Z</time>
      </trkpt>
      <trkpt lat="45.8903" lon="-0.88791">
        <ele>22</ele>
        <time>2018-06-30T20:01:17.000Z</time>
      </trkpt>
      <trkpt lat="45.89029" lon="-0.8879">
        <ele>21</ele>
        <time>2018-06-30T20:01:18.000Z</time>
      </trkpt>
      <trkpt lat="45.89027" lon="-0.88789">
        <ele>21</ele>
        <time>2018-06-30T20:01:19.000Z</time>
      </trkpt>
      <trkpt lat="45.89026" lon="-0.88789">
        <ele>21</ele>
        <time>2018-06-30T20:01:20.000Z</time>
      </trkpt>
      <trkpt lat="45.89025" lon="-0.88788">
        <ele>21</ele>
        <time>2018-06-30T20:01:21.000Z</time>
      </trkpt>
      <trkpt lat="45.89024" lon="-0.88788">
        <ele>21</ele>
        <time>2018-06-30T20:01:22.000Z</time>
      </trkpt>
      <trkpt lat="45.89023" lon="-0.88787">
        <ele>20</ele>
        <time>2018-06-30T20:01:23.000Z</time>
      </trkpt>
      <trkpt lat="45.89022" lon="-0.88786">
        <ele>20</ele>
        <time>2018-06-30T20:01:24.000Z</time>
      </trkpt>
      <trkpt lat="45.89021" lon="-0.88786">
        <ele>20</ele>
        <time>2018-06-30T20:01:25.000Z</time>
      </trkpt>
      <trkpt lat="45.8902" lon="-0.88786">
        <ele>20</ele>
        <time>2018-06-30T20:01:26.000Z</time>
      </trkpt>
      <trkpt lat="45.89018" lon="-0.88785">
        <ele>20</ele>
        <time>2018-06-30T20:01:27.000Z</time>
      </trkpt>
      <trkpt lat="45.89017" lon="-0.88785">
        <ele>20</ele>
        <time>2018-06-30T20:01:28.000Z</time>
      </trkpt>
      <trkpt lat="45.89016" lon="-0.88785">
        <ele>20</ele>
        <time>2018-06-30T20:01:29.000Z</time>
      </trkpt>
      <trkpt lat="45.89015" lon="-0.88784">
        <ele>20</ele>
        <time>2018-06-30T20:01:30.000Z</time>
      </trkpt>
      <trkpt lat="45.89014" lon="-0.88783">
        <ele>20</ele>
        <time>2018-06-30T20:01:31.000Z</time>
      </trkpt>
      <trkpt lat="45.89013" lon="-0.88783">
        <ele>20</ele>
        <time>2018-06-30T20:01:32.000Z</time>
      </trkpt>
      <trkpt lat="45.89012" lon="-0.88783">
        <ele>20</ele>
        <time>2018-06-30T20:01:33.000Z</time>
      </trkpt>
      <trkpt lat="45.8901" lon="-0.88783">
        <ele>20</ele>
        <time>2018-06-30T20:01:34.000Z</time>
      </trkpt>
      <trkpt lat="45.89009" lon="-0.88783">
        <ele>20</ele>
        <time>2018-06-30T20:01:35.000Z</time>
      </trkpt>
      <trkpt lat="45.89008" lon="-0.88782">
        <ele>20</ele>
        <time>2018-06-30T20:01:36.000Z</time>
      </trkpt>
      <trkpt lat="45.89007" lon="-0.88782">
        <ele>19</ele>
        <time>2018-06-30T20:01:37.000Z</time>
      </trkpt>
      <trkpt lat="45.89006" lon="-0.88782">
        <ele>19</ele>
        <time>2018-06-30T20:01:38.000Z</time>
      </trkpt>
      <trkpt lat="45.89004" lon="-0.88782">
        <ele>19</ele>
        <time>2018-06-30T20:01:39.000Z</time>
      </trkpt>
      <trkpt lat="45.89003" lon="-0.88782">
        <ele>19</ele>
        <time>2018-06-30T20:01:40.000Z</time>
      </trkpt>
      <trkpt lat="45.89002" lon="-0.88781">
        <ele>19</ele>
        <time>2018-06-30T20:01:41.000Z</time>
      </trkpt>
      <trkpt lat="45.89001" lon="-0.88781">
        <ele>19</ele>
        <time>2018-06-30T20:01:42.000Z</time>
      </trkpt>
      <trkpt lat="45.89" lon="-0.88781">
        <ele>19</ele>
        <time>2018-06-30T20:01:43.000Z</time>
      </trkpt>
      <trkpt lat="45.88999" lon="-0.88781">
        <ele>19</ele>
        <time>2018-06-30T20:01:44.000Z</time>
      </trkpt>
      <trkpt lat="45.88998" lon="-0.8878">
        <ele>19</ele>
        <time>2018-06-30T20:01:45.000Z</time>
      </trkpt>
      <trkpt lat="45.88997" lon="-0.8878">
        <ele>19</ele>
        <time>2018-06-30T20:01:46.000Z</time>
      </trkpt>
      <trkpt lat="45.88996" lon="-0.8878">
        <ele>18</ele>
        <time>2018-06-30T20:01:47.000Z</time>
      </trkpt>
      <trkpt lat="45.88995" lon="-0.88779">
        <ele>18</ele>
        <time>2018-06-30T20:01:48.000Z</time>
      </trkpt>
      <trkpt lat="45.88993" lon="-0.88779">
        <ele>19</ele>
        <time>2018-06-30T20:01:49.000Z</time>
      </trkpt>
      <trkpt lat="45.88992" lon="-0.88778">
        <ele>19</ele>
        <time>2018-06-30T20:01:50.000Z</time>
      </trkpt>
      <trkpt lat="45.88991" lon="-0.88778">
        <ele>19</ele>
        <time>2018-06-30T20:01:51.000Z</time>
      </trkpt>
      <trkpt lat="45.88989" lon="-0.88778">
        <ele>19</ele>
        <time>2018-06-30T20:01:52.000Z</time>
      </trkpt>
      <trkpt lat="45.88988" lon="-0.88777">
        <ele>19</ele>
        <time>2018-06-30T20:01:53.000Z</time>
      </trkpt>
      <trkpt lat="45.88987" lon="-0.88777">
        <ele>19</ele>
        <time>2018-06-30T20:01:54.000Z</time>
      </trkpt>
      <trkpt lat="45.88986" lon="-0.88776">
        <ele>19</ele>
        <time>2018-06-30T20:01:55.000Z</time>
      </trkpt>
      <trkpt lat="45.88985" lon="-0.88776">
        <ele>19</ele>
        <time>2018-06-30T20:01:56.000Z</time>
      </trkpt>
      <trkpt lat="45.88984" lon="-0.88776">
        <ele>19</ele>
        <time>2018-06-30T20:01:57.000Z</time>
      </trkpt>
      <trkpt lat="45.88983" lon="-0.88776">
        <ele>18</ele>
        <time>2018-06-30T20:01:58.000Z</time>
      </trkpt>
      <trkpt lat="45.88982" lon="-0.88776">
        <ele>18</ele>
        <time>2018-06-30T20:01:59.000Z</time>
      </trkpt>
      <trkpt lat="45.88981" lon="-0.88775">
        <ele>18</ele>
        <time>2018-06-30T20:02:00.000Z</time>
      </trkpt>
      <trkpt lat="45.8898" lon="-0.88775">
        <ele>18</ele>
        <time>2018-06-30T20:02:01.000Z</time>
      </trkpt>
      <trkpt lat="45.88979" lon="-0.88775">
        <ele>18</ele>
        <time>2018-06-30T20:02:02.000Z</time>
      </trkpt>
      <trkpt lat="45.88977" lon="-0.88775">
        <ele>18</ele>
        <time>2018-06-30T20:02:03.000Z</time>
      </trkpt>
      <trkpt lat="45.88976" lon="-0.88775">
        <ele>19</ele>
        <time>2018-06-30T20:02:04.000Z</time>
      </trkpt>
      <trkpt lat="45.88974" lon="-0.88775">
        <ele>19</ele>
        <time>2018-06-30T20:02:05.000Z</time>
      </trkpt>
      <trkpt lat="45.88973" lon="-0.88775">
        <ele>19</ele>
        <time>2018-06-30T20:02:06.000Z</time>
      </trkpt>
      <trkpt lat="45.88971" lon="-0.88775">
        <ele>20</ele>
        <time>2018-06-30T20:02:07.000Z</time>
      </trkpt>
      <trkpt lat="45.8897" lon="-0.88776">
        <ele>20</ele>
        <time>2018-06-30T20:02:08.000Z</time>
      </trkpt>
      <trkpt lat="45.88968" lon="-0.88776">
        <ele>20</ele>
        <time>2018-06-30T20:02:09.000Z</time>
      </trkpt>
      <trkpt lat="45.88967" lon="-0.88777">
        <ele>20</ele>
        <time>2018-06-30T20:02:10.000Z</time>
      </trkpt>
      <trkpt lat="45.88966" lon="-0.88777">
        <ele>20</ele>
        <time>2018-06-30T20:02:11.000Z</time>
      </trkpt>
      <trkpt lat="45.88965" lon="-0.88778">
        <ele>20</ele>
        <time>2018-06-30T20:02:12.000Z</time>
      </trkpt>
      <trkpt lat="45.88964" lon="-0.88779">
        <ele>20</ele>
        <time>2018-06-30T20:02:13.000Z</time>
      </trkpt>
      <trkpt lat="45.88963" lon="-0.8878">
        <ele>19</ele>
        <time>2018-06-30T20:02:14.000Z</time>
      </trkpt>
      <trkpt lat="45.88963" lon="-0.88781">
        <ele>20</ele>
        <time>2018-06-30T20:02:15.000Z</time>
      </trkpt>
      <trkpt lat="45.88962" lon="-0.88782">
        <ele>20</ele>
        <time>2018-06-30T20:02:16.000Z</time>
      </trkpt>
      <trkpt lat="45.88961" lon="-0.88783">
        <ele>20</ele>
        <time>2018-06-30T20:02:17.000Z</time>
      </trkpt>
      <trkpt lat="45.8896" lon="-0.88784">
        <ele>20</ele>
        <time>2018-06-30T20:02:18.000Z</time>
      </trkpt>
      <trkpt lat="45.88959" lon="-0.88785">
        <ele>20</ele>
        <time>2018-06-30T20:02:19.000Z</time>
      </trkpt>
      <trkpt lat="45.88959" lon="-0.88787">
        <ele>20</ele>
        <time>2018-06-30T20:02:20.000Z</time>
      </trkpt>
      <trkpt lat="45.88958" lon="-0.88788">
        <ele>20</ele>
        <time>2018-06-30T20:02:21.000Z</time>
      </trkpt>
      <trkpt lat="45.88957" lon="-0.8879">
        <ele>21</ele>
        <time>2018-06-30T20:02:22.000Z</time>
      </trkpt>
      <trkpt lat="45.88956" lon="-0.88791">
        <ele>21</ele>
        <time>2018-06-30T20:02:23.000Z</time>
      </trkpt>
      <trkpt lat="45.88956" lon="-0.88793">
        <ele>21</ele>
        <time>2018-06-30T20:02:24.000Z</time>
      </trkpt>
      <trkpt lat="45.88955" lon="-0.88794">
        <ele>21</ele>
        <time>2018-06-30T20:02:25.000Z</time>
      </trkpt>
      <trkpt lat="45.88954" lon="-0.88796">
        <ele>21</ele>
        <time>2018-06-30T20:02:26.000Z</time>
      </trkpt>
      <trkpt lat="45.88954" lon="-0.88797">
        <ele>21</ele>
        <time>2018-06-30T20:02:27.000Z</time>
      </trkpt>
      <trkpt lat="45.88953" lon="-0.88798">
        <ele>21</ele>
        <time>2018-06-30T20:02:28.000Z</time>
      </trkpt>
      <trkpt lat="45.88952" lon="-0.88799">
        <ele>21</ele>
        <time>2018-06-30T20:02:29.000Z</time>
      </trkpt>
      <trkpt lat="45.88951" lon="-0.88801">
        <ele>21</ele>
        <time>2018-06-30T20:02:30.000Z</time>
      </trkpt>
      <trkpt lat="45.88951" lon="-0.88802">
        <ele>21</ele>
        <time>2018-06-30T20:02:31.000Z</time>
      </trkpt>
      <trkpt lat="45.8895" lon="-0.88804">
        <ele>21</ele>
        <time>2018-06-30T20:02:32.000Z</time>
      </trkpt>
      <trkpt lat="45.88949" lon="-0.88805">
        <ele>21</ele>
        <time>2018-06-30T20:02:33.000Z</time>
      </trkpt>
      <trkpt lat="45.88949" lon="-0.88807">
        <ele>21</ele>
        <time>2018-06-30T20:02:34.000Z</time>
      </trkpt>
      <trkpt lat="45.88948" lon="-0.88808">
        <ele>21</ele>
        <time>2018-06-30T20:02:35.000Z</time>
      </trkpt>
      <trkpt lat="45.88947" lon="-0.8881">
        <ele>21</ele>
        <time>2018-06-30T20:02:36.000Z</time>
      </trkpt>
      <trkpt lat="45.88946" lon="-0.88811">
        <ele>21</ele>
        <time>2018-06-30T20:02:37.000Z</time>
      </trkpt>
      <trkpt lat="45.88946" lon="-0.88812">
        <ele>22</ele>
        <time>2018-06-30T20:02:38.000Z</time>
      </trkpt>
      <trkpt lat="45.88945" lon="-0.88813">
        <ele>22</ele>
        <time>2018-06-30T20:02:39.000Z</time>
      </trkpt>
      <trkpt lat="45.88944" lon="-0.88814">
        <ele>22</ele>
        <time>2018-06-30T20:02:40.000Z</time>
      </trkpt>
      <trkpt lat="45.88943" lon="-0.88815">
        <ele>22</ele>
        <time>2018-06-30T20:02:41.000Z</time>
      </trkpt>
      <trkpt lat="45.88942" lon="-0.88817">
        <ele>22</ele>
        <time>2018-06-30T20:02:42.000Z</time>
      </trkpt>
      <trkpt lat="45.88941" lon="-0.88818">
        <ele>22</ele>
        <time>2018-06-30T20:02:43.000Z</time>
      </trkpt>
      <trkpt lat="45.88941" lon="-0.88819">
        <ele>22</ele>
        <time>2018-06-30T20:02:44.000Z</time>
      </trkpt>
      <trkpt lat="45.8894" lon="-0.88821">
        <ele>23</ele>
        <time>2018-06-30T20:02:45.000Z</time>
      </trkpt>
      <trkpt lat="45.88939" lon="-0.88822">
        <ele>23</ele>
        <time>2018-06-30T20:02:46.000Z</time>
      </trkpt>
      <trkpt lat="45.88939" lon="-0.88824">
        <ele>23</ele>
        <time>2018-06-30T20:02:47.000Z</time>
      </trkpt>
      <trkpt lat="45.88938" lon="-0.88825">
        <ele>23</ele>
        <time>2018-06-30T20:02:48.000Z</time>
      </trkpt>
      <trkpt lat="45.88937" lon="-0.88827">
        <ele>23</ele>
        <time>2018-06-30T20:02:49.000Z</time>
      </trkpt>
      <trkpt lat="45.88937" lon="-0.88828">
        <ele>22</ele>
        <time>2018-06-30T20:02:50.000Z</time>
      </trkpt>
      <trkpt lat="45.88936" lon="-0.8883">
        <ele>23</ele>
        <time>2018-06-30T20:02:51.000Z</time>
      </trkpt>
      <trkpt lat="45.88935" lon="-0.88831">
        <ele>22</ele>
        <time>2018-06-30T20:02:52.000Z</time>
      </trkpt>
      <trkpt lat="45.88935" lon="-0.88832">
        <ele>22</ele>
        <time>2018-06-30T20:02:53.000Z</time>
      </trkpt>
      <trkpt lat="45.88934" lon="-0.88834">
        <ele>22</ele>
        <time>2018-06-30T20:02:54.000Z</time>
      </trkpt>
      <trkpt lat="45.88933" lon="-0.88835">
        <ele>22</ele>
        <time>2018-06-30T20:02:55.000Z</time>
      </trkpt>
      <trkpt lat="45.88933" lon="-0.88837">
        <ele>22</ele>
        <time>2018-06-30T20:02:56.000Z</time>
      </trkpt>
      <trkpt lat="45.88932" lon="-0.88838">
        <ele>22</ele>
        <time>2018-06-30T20:02:57.000Z</time>
      </trkpt>
      <trkpt lat="45.88931" lon="-0.88839">
        <ele>23</ele>
        <time>2018-06-30T20:02:58.000Z</time>
      </trkpt>
      <trkpt lat="45.8893" lon="-0.88841">
        <ele>22</ele>
        <time>2018-06-30T20:02:59.000Z</time>
      </trkpt>
      <trkpt lat="45.8893" lon="-0.88843">
        <ele>23</ele>
        <time>2018-06-30T20:03:00.000Z</time>
      </trkpt>
      <trkpt lat="45.88929" lon="-0.88844">
        <ele>23</ele>
        <time>2018-06-30T20:03:01.000Z</time>
      </trkpt>
      <trkpt lat="45.88928" lon="-0.88846">
        <ele>23</ele>
        <time>2018-06-30T20:03:02.000Z</time>
      </trkpt>
      <trkpt lat="45.88928" lon="-0.88848">
        <ele>23</ele>
        <time>2018-06-30T20:03:03.000Z</time>
      </trkpt>
      <trkpt lat="45.88927" lon="-0.88849">
        <ele>23</ele>
        <time>2018-06-30T20:03:04.000Z</time>
      </trkpt>
      <trkpt lat="45.88926" lon="-0.8885">
        <ele>23</ele>
        <time>2018-06-30T20:03:05.000Z</time>
      </trkpt>
      <trkpt lat="45.88925" lon="-0.88852">
        <ele>23</ele>
        <time>2018-06-30T20:03:06.000Z</time>
      </trkpt>
      <trkpt lat="45.88924" lon="-0.88853">
        <ele>23</ele>
        <time>2018-06-30T20:03:07.000Z</time>
      </trkpt>
      <trkpt lat="45.88923" lon="-0.88855">
        <ele>23</ele>
        <time>2018-06-30T20:03:08.000Z</time>
      </trkpt>
      <trkpt lat="45.88923" lon="-0.88856">
        <ele>23</ele>
        <time>2018-06-30T20:03:09.000Z</time>
      </trkpt>
      <trkpt lat="45.88922" lon="-0.88857">
        <ele>24</ele>
        <time>2018-06-30T20:03:10.000Z</time>
      </trkpt>
      <trkpt lat="45.88922" lon="-0.88858">
        <ele>24</ele>
        <time>2018-06-30T20:03:11.000Z</time>
      </trkpt>
      <trkpt lat="45.88921" lon="-0.8886">
        <ele>24</ele>
        <time>2018-06-30T20:03:12.000Z</time>
      </trkpt>
      <trkpt lat="45.8892" lon="-0.88861">
        <ele>24</ele>
        <time>2018-06-30T20:03:13.000Z</time>
      </trkpt>
      <trkpt lat="45.88919" lon="-0.88863">
        <ele>24</ele>
        <time>2018-06-30T20:03:14.000Z</time>
      </trkpt>
      <trkpt lat="45.88918" lon="-0.88864">
        <ele>24</ele>
        <time>2018-06-30T20:03:15.000Z</time>
      </trkpt>
      <trkpt lat="45.88917" lon="-0.88865">
        <ele>24</ele>
        <time>2018-06-30T20:03:16.000Z</time>
      </trkpt>
      <trkpt lat="45.88917" lon="-0.88867">
        <ele>24</ele>
        <time>2018-06-30T20:03:17.000Z</time>
      </trkpt>
      <trkpt lat="45.88916" lon="-0.88868">
        <ele>24</ele>
        <time>2018-06-30T20:03:18.000Z</time>
      </trkpt>
      <trkpt lat="45.88915" lon="-0.8887">
        <ele>24</ele>
        <time>2018-06-30T20:03:19.000Z</time>
      </trkpt>
      <trkpt lat="45.88914" lon="-0.88871">
        <ele>24</ele>
        <time>2018-06-30T20:03:20.000Z</time>
      </trkpt>
      <trkpt lat="45.88913" lon="-0.88873">
        <ele>24</ele>
        <time>2018-06-30T20:03:21.000Z</time>
      </trkpt>
      <trkpt lat="45.88913" lon="-0.88874">
        <ele>24</ele>
        <time>2018-06-30T20:03:22.000Z</time>
      </trkpt>
      <trkpt lat="45.88912" lon="-0.88876">
        <ele>25</ele>
        <time>2018-06-30T20:03:23.000Z</time>
      </trkpt>
      <trkpt lat="45.88911" lon="-0.88877">
        <ele>25</ele>
        <time>2018-06-30T20:03:24.000Z</time>
      </trkpt>
      <trkpt lat="45.8891" lon="-0.88878">
        <ele>25</ele>
        <time>2018-06-30T20:03:25.000Z</time>
      </trkpt>
      <trkpt lat="45.8891" lon="-0.88879">
        <ele>25</ele>
        <time>2018-06-30T20:03:26.000Z</time>
      </trkpt>
      <trkpt lat="45.88909" lon="-0.88881">
        <ele>24</ele>
        <time>2018-06-30T20:03:27.000Z</time>
      </trkpt>
      <trkpt lat="45.88908" lon="-0.88882">
        <ele>24</ele>
        <time>2018-06-30T20:03:28.000Z</time>
      </trkpt>
      <trkpt lat="45.88908" lon="-0.88884">
        <ele>24</ele>
        <time>2018-06-30T20:03:29.000Z</time>
      </trkpt>
      <trkpt lat="45.88907" lon="-0.88885">
        <ele>24</ele>
        <time>2018-06-30T20:03:30.000Z</time>
      </trkpt>
      <trkpt lat="45.88906" lon="-0.88887">
        <ele>24</ele>
        <time>2018-06-30T20:03:31.000Z</time>
      </trkpt>
      <trkpt lat="45.88906" lon="-0.88888">
        <ele>24</ele>
        <time>2018-06-30T20:03:32.000Z</time>
      </trkpt>
      <trkpt lat="45.88905" lon="-0.8889">
        <ele>24</ele>
        <time>2018-06-30T20:03:33.000Z</time>
      </trkpt>
      <trkpt lat="45.88904" lon="-0.88891">
        <ele>24</ele>
        <time>2018-06-30T20:03:34.000Z</time>
      </trkpt>
      <trkpt lat="45.88904" lon="-0.88893">
        <ele>24</ele>
        <time>2018-06-30T20:03:35.000Z</time>
      </trkpt>
      <trkpt lat="45.88903" lon="-0.88894">
        <ele>24</ele>
        <time>2018-06-30T20:03:36.000Z</time>
      </trkpt>
      <trkpt lat="45.88903" lon="-0.88896">
        <ele>24</ele>
        <time>2018-06-30T20:03:37.000Z</time>
      </trkpt>
      <trkpt lat="45.88902" lon="-0.88897">
        <ele>24</ele>
        <time>2018-06-30T20:03:38.000Z</time>
      </trkpt>
      <trkpt lat="45.88901" lon="-0.88899">
        <ele>24</ele>
        <time>2018-06-30T20:03:39.000Z</time>
      </trkpt>
      <trkpt lat="45.88901" lon="-0.889">
        <ele>24</ele>
        <time>2018-06-30T20:03:40.000Z</time>
      </trkpt>
      <trkpt lat="45.889" lon="-0.88901">
        <ele>24</ele>
        <time>2018-06-30T20:03:41.000Z</time>
      </trkpt>
      <trkpt lat="45.889" lon="-0.88903">
        <ele>23</ele>
        <time>2018-06-30T20:03:42.000Z</time>
      </trkpt>
      <trkpt lat="45.88899" lon="-0.88904">
        <ele>23</ele>
        <time>2018-06-30T20:03:43.000Z</time>
      </trkpt>
      <trkpt lat="45.88899" lon="-0.88906">
        <ele>23</ele>
        <time>2018-06-30T20:03:44.000Z</time>
      </trkpt>
      <trkpt lat="45.88898" lon="-0.88908">
        <ele>23</ele>
        <time>2018-06-30T20:03:45.000Z</time>
      </trkpt>
      <trkpt lat="45.88898" lon="-0.8891">
        <ele>23</ele>
        <time>2018-06-30T20:03:46.000Z</time>
      </trkpt>
      <trkpt lat="45.88898" lon="-0.88911">
        <ele>22</ele>
        <time>2018-06-30T20:03:47.000Z</time>
      </trkpt>
      <trkpt lat="45.88897" lon="-0.88912">
        <ele>22</ele>
        <time>2018-06-30T20:03:48.000Z</time>
      </trkpt>
      <trkpt lat="45.88897" lon="-0.88914">
        <ele>22</ele>
        <time>2018-06-30T20:03:49.000Z</time>
      </trkpt>
      <trkpt lat="45.88896" lon="-0.88916">
        <ele>22</ele>
        <time>2018-06-30T20:03:50.000Z</time>
      </trkpt>
      <trkpt lat="45.88896" lon="-0.88917">
        <ele>22</ele>
        <time>2018-06-30T20:03:51.000Z</time>
      </trkpt>
      <trkpt lat="45.88895" lon="-0.88919">
        <ele>22</ele>
        <time>2018-06-30T20:03:52.000Z</time>
      </trkpt>
      <trkpt lat="45.88895" lon="-0.8892">
        <ele>22</ele>
        <time>2018-06-30T20:03:53.000Z</time>
      </trkpt>
      <trkpt lat="45.88894" lon="-0.88922">
        <ele>22</ele>
        <time>2018-06-30T20:03:54.000Z</time>
      </trkpt>
      <trkpt lat="45.88894" lon="-0.88923">
        <ele>22</ele>
        <time>2018-06-30T20:03:55.000Z</time>
      </trkpt>
      <trkpt lat="45.88893" lon="-0.88925">
        <ele>21</ele>
        <time>2018-06-30T20:03:56.000Z</time>
      </trkpt>
      <trkpt lat="45.88893" lon="-0.88926">
        <ele>21</ele>
        <time>2018-06-30T20:03:57.000Z</time>
      </trkpt>
      <trkpt lat="45.88892" lon="-0.88928">
        <ele>21</ele>
        <time>2018-06-30T20:03:58.000Z</time>
      </trkpt>
      <trkpt lat="45.88891" lon="-0.88929">
        <ele>21</ele>
        <time>2018-06-30T20:03:59.000Z</time>
      </trkpt>
      <trkpt lat="45.8889" lon="-0.8893">
        <ele>21</ele>
        <time>2018-06-30T20:04:00.000Z</time>
      </trkpt>
      <trkpt lat="45.8889" lon="-0.88932">
        <ele>20</ele>
        <time>2018-06-30T20:04:01.000Z</time>
      </trkpt>
      <trkpt lat="45.88889" lon="-0.88933">
        <ele>20</ele>
        <time>2018-06-30T20:04:02.000Z</time>
      </trkpt>
      <trkpt lat="45.88888" lon="-0.88934">
        <ele>20</ele>
        <time>2018-06-30T20:04:03.000Z</time>
      </trkpt>
      <trkpt lat="45.88888" lon="-0.88936">
        <ele>20</ele>
        <time>2018-06-30T20:04:04.000Z</time>
      </trkpt>
      <trkpt lat="45.88887" lon="-0.88937">
        <ele>20</ele>
        <time>2018-06-30T20:04:05.000Z</time>
      </trkpt>
      <trkpt lat="45.88886" lon="-0.88939">
        <ele>20</ele>
        <time>2018-06-30T20:04:06.000Z</time>
      </trkpt>
      <trkpt lat="45.88885" lon="-0.8894">
        <ele>20</ele>
        <time>2018-06-30T20:04:07.000Z</time>
      </trkpt>
      <trkpt lat="45.88884" lon="-0.88942">
        <ele>21</ele>
        <time>2018-06-30T20:04:08.000Z</time>
      </trkpt>
      <trkpt lat="45.88883" lon="-0.88943">
        <ele>21</ele>
        <time>2018-06-30T20:04:09.000Z</time>
      </trkpt>
      <trkpt lat="45.88882" lon="-0.88945">
        <ele>21</ele>
        <time>2018-06-30T20:04:10.000Z</time>
      </trkpt>
      <trkpt lat="45.88881" lon="-0.88946">
        <ele>21</ele>
        <time>2018-06-30T20:04:11.000Z</time>
      </trkpt>
      <trkpt lat="45.8888" lon="-0.88947">
        <ele>21</ele>
        <time>2018-06-30T20:04:12.000Z</time>
      </trkpt>
      <trkpt lat="45.8888" lon="-0.88948">
        <ele>21</ele>
        <time>2018-06-30T20:04:13.000Z</time>
      </trkpt>
      <trkpt lat="45.88879" lon="-0.8895">
        <ele>21</ele>
        <time>2018-06-30T20:04:14.000Z</time>
      </trkpt>
      <trkpt lat="45.88878" lon="-0.88951">
        <ele>21</ele>
        <time>2018-06-30T20:04:15.000Z</time>
      </trkpt>
      <trkpt lat="45.88877" lon="-0.88952">
        <ele>21</ele>
        <time>2018-06-30T20:04:16.000Z</time>
      </trkpt>
      <trkpt lat="45.88876" lon="-0.88953">
        <ele>21</ele>
        <time>2018-06-30T20:04:17.000Z</time>
      </trkpt>
      <trkpt lat="45.88875" lon="-0.88954">
        <ele>21</ele>
        <time>2018-06-30T20:04:18.000Z</time>
      </trkpt>
      <trkpt lat="45.88875" lon="-0.88956">
        <ele>21</ele>
        <time>2018-06-30T20:04:19.000Z</time>
      </trkpt>
      <trkpt lat="45.88874" lon="-0.88957">
        <ele>21</ele>
        <time>2018-06-30T20:04:20.000Z</time>
      </trkpt>
      <trkpt lat="45.88873" lon="-0.88958">
        <ele>21</ele>
        <time>2018-06-30T20:04:21.000Z</time>
      </trkpt>
      <trkpt lat="45.88872" lon="-0.8896">
        <ele>21</ele>
        <time>2018-06-30T20:04:22.000Z</time>
      </trkpt>
      <trkpt lat="45.88871" lon="-0.88961">
        <ele>21</ele>
        <time>2018-06-30T20:04:23.000Z</time>
      </trkpt>
      <trkpt lat="45.8887" lon="-0.88963">
        <ele>21</ele>
        <time>2018-06-30T20:04:24.000Z</time>
      </trkpt>
      <trkpt lat="45.8887" lon="-0.88964">
        <ele>21</ele>
        <time>2018-06-30T20:04:25.000Z</time>
      </trkpt>
      <trkpt lat="45.88869" lon="-0.88965">
        <ele>21</ele>
        <time>2018-06-30T20:04:26.000Z</time>
      </trkpt>
      <trkpt lat="45.88868" lon="-0.88967">
        <ele>21</ele>
        <time>2018-06-30T20:04:27.000Z</time>
      </trkpt>
      <trkpt lat="45.88867" lon="-0.88968">
        <ele>21</ele>
        <time>2018-06-30T20:04:28.000Z</time>
      </trkpt>
      <trkpt lat="45.88867" lon="-0.88969">
        <ele>21</ele>
        <time>2018-06-30T20:04:29.000Z</time>
      </trkpt>
      <trkpt lat="45.88866" lon="-0.88971">
        <ele>21</ele>
        <time>2018-06-30T20:04:30.000Z</time>
      </trkpt>
      <trkpt lat="45.88865" lon="-0.88972">
        <ele>21</ele>
        <time>2018-06-30T20:04:31.000Z</time>
      </trkpt>
      <trkpt lat="45.88864" lon="-0.88973">
        <ele>21</ele>
        <time>2018-06-30T20:04:32.000Z</time>
      </trkpt>
      <trkpt lat="45.88864" lon="-0.88975">
        <ele>21</ele>
        <time>2018-06-30T20:04:33.000Z</time>
      </trkpt>
      <trkpt lat="45.88863" lon="-0.88976">
        <ele>21</ele>
        <time>2018-06-30T20:04:34.000Z</time>
      </trkpt>
      <trkpt lat="45.88862" lon="-0.88978">
        <ele>21</ele>
        <time>2018-06-30T20:04:35.000Z</time>
      </trkpt>
      <trkpt lat="45.88861" lon="-0.88979">
        <ele>20</ele>
        <time>2018-06-30T20:04:36.000Z</time>
      </trkpt>
      <trkpt lat="45.8886" lon="-0.8898">
        <ele>20</ele>
        <time>2018-06-30T20:04:37.000Z</time>
      </trkpt>
      <trkpt lat="45.8886" lon="-0.88982">
        <ele>21</ele>
        <time>2018-06-30T20:04:38.000Z</time>
      </trkpt>
      <trkpt lat="45.88859" lon="-0.88983">
        <ele>21</ele>
        <time>2018-06-30T20:04:39.000Z</time>
      </trkpt>
      <trkpt lat="45.88858" lon="-0.88984">
        <ele>21</ele>
        <time>2018-06-30T20:04:40.000Z</time>
      </trkpt>
      <trkpt lat="45.88857" lon="-0.88985">
        <ele>21</ele>
        <time>2018-06-30T20:04:41.000Z</time>
      </trkpt>
      <trkpt lat="45.88856" lon="-0.88987">
        <ele>22</ele>
        <time>2018-06-30T20:04:42.000Z</time>
      </trkpt>
      <trkpt lat="45.88855" lon="-0.88988">
        <ele>22</ele>
        <time>2018-06-30T20:04:43.000Z</time>
      </trkpt>
      <trkpt lat="45.88855" lon="-0.88989">
        <ele>22</ele>
        <time>2018-06-30T20:04:44.000Z</time>
      </trkpt>
      <trkpt lat="45.88854" lon="-0.8899">
        <ele>22</ele>
        <time>2018-06-30T20:04:45.000Z</time>
      </trkpt>
      <trkpt lat="45.88853" lon="-0.88991">
        <ele>22</ele>
        <time>2018-06-30T20:04:46.000Z</time>
      </trkpt>
      <trkpt lat="45.88852" lon="-0.88993">
        <ele>22</ele>
        <time>2018-06-30T20:04:47.000Z</time>
      </trkpt>
      <trkpt lat="45.88851" lon="-0.88994">
        <ele>22</ele>
        <time>2018-06-30T20:04:48.000Z</time>
      </trkpt>
      <trkpt lat="45.8885" lon="-0.88996">
        <ele>22</ele>
        <time>2018-06-30T20:04:49.000Z</time>
      </trkpt>
      <trkpt lat="45.8885" lon="-0.88997">
        <ele>22</ele>
        <time>2018-06-30T20:04:50.000Z</time>
      </trkpt>
      <trkpt lat="45.88849" lon="-0.88999">
        <ele>22</ele>
        <time>2018-06-30T20:04:51.000Z</time>
      </trkpt>
      <trkpt lat="45.88848" lon="-0.89">
        <ele>22</ele>
        <time>2018-06-30T20:04:52.000Z</time>
      </trkpt>
      <trkpt lat="45.88847" lon="-0.89001">
        <ele>22</ele>
        <time>2018-06-30T20:04:53.000Z</time>
      </trkpt>
      <trkpt lat="45.88847" lon="-0.89003">
        <ele>21</ele>
        <time>2018-06-30T20:04:54.000Z</time>
      </trkpt>
      <trkpt lat="45.88846" lon="-0.89004">
        <ele>21</ele>
        <time>2018-06-30T20:04:55.000Z</time>
      </trkpt>
      <trkpt lat="45.88845" lon="-0.89006">
        <ele>22</ele>
        <time>2018-06-30T20:04:56.000Z</time>
      </trkpt>
      <trkpt lat="45.88844" lon="-0.89008">
        <ele>22</ele>
        <time>2018-06-30T20:04:57.000Z</time>
      </trkpt>
      <trkpt lat="45.88844" lon="-0.8901">
        <ele>22</ele>
        <time>2018-06-30T20:04:58.000Z</time>
      </trkpt>
      <trkpt lat="45.88843" lon="-0.89011">
        <ele>21</ele>
        <time>2018-06-30T20:04:59.000Z</time>
      </trkpt>
      <trkpt lat="45.88842" lon="-0.89012">
        <ele>22</ele>
        <time>2018-06-30T20:05:00.000Z</time>
      </trkpt>
      <trkpt lat="45.88841" lon="-0.89014">
        <ele>22</ele>
        <time>2018-06-30T20:05:01.000Z</time>
      </trkpt>
      <trkpt lat="45.8884" lon="-0.89015">
        <ele>22</ele>
        <time>2018-06-30T20:05:02.000Z</time>
      </trkpt>
      <trkpt lat="45.8884" lon="-0.89017">
        <ele>22</ele>
        <time>2018-06-30T20:05:03.000Z</time>
      </trkpt>
      <trkpt lat="45.88839" lon="-0.89018">
        <ele>22</ele>
        <time>2018-06-30T20:05:04.000Z</time>
      </trkpt>
      <trkpt lat="45.88838" lon="-0.89019">
        <ele>21</ele>
        <time>2018-06-30T20:05:05.000Z</time>
      </trkpt>
      <trkpt lat="45.88837" lon="-0.89021">
        <ele>21</ele>
        <time>2018-06-30T20:05:06.000Z</time>
      </trkpt>
      <trkpt lat="45.88837" lon="-0.89022">
        <ele>22</ele>
        <time>2018-06-30T20:05:07.000Z</time>
      </trkpt>
      <trkpt lat="45.88836" lon="-0.89024">
        <ele>22</ele>
        <time>2018-06-30T20:05:08.000Z</time>
      </trkpt>
      <trkpt lat="45.88835" lon="-0.89025">
        <ele>21</ele>
        <time>2018-06-30T20:05:09.000Z</time>
      </trkpt>
      <trkpt lat="45.88835" lon="-0.89027">
        <ele>21</ele>
        <time>2018-06-30T20:05:10.000Z</time>
      </trkpt>
      <trkpt lat="45.88834" lon="-0.89028">
        <ele>21</ele>
        <time>2018-06-30T20:05:11.000Z</time>
      </trkpt>
      <trkpt lat="45.88833" lon="-0.89029">
        <ele>22</ele>
        <time>2018-06-30T20:05:12.000Z</time>
      </trkpt>
      <trkpt lat="45.88832" lon="-0.89031">
        <ele>21</ele>
        <time>2018-06-30T20:05:13.000Z</time>
      </trkpt>
      <trkpt lat="45.88831" lon="-0.89032">
        <ele>21</ele>
        <time>2018-06-30T20:05:14.000Z</time>
      </trkpt>
      <trkpt lat="45.88831" lon="-0.89034">
        <ele>21</ele>
        <time>2018-06-30T20:05:15.000Z</time>
      </trkpt>
      <trkpt lat="45.8883" lon="-0.89035">
        <ele>21</ele>
        <time>2018-06-30T20:05:16.000Z</time>
      </trkpt>
      <trkpt lat="45.88829" lon="-0.89037">
        <ele>21</ele>
        <time>2018-06-30T20:05:17.000Z</time>
      </trkpt>
      <trkpt lat="45.88828" lon="-0.89038">
        <ele>21</ele>
        <time>2018-06-30T20:05:18.000Z</time>
      </trkpt>
      <trkpt lat="45.88828" lon="-0.8904">
        <ele>21</ele>
        <time>2018-06-30T20:05:19.000Z</time>
      </trkpt>
      <trkpt lat="45.88827" lon="-0.89041">
        <ele>21</ele>
        <time>2018-06-30T20:05:20.000Z</time>
      </trkpt>
      <trkpt lat="45.88826" lon="-0.89043">
        <ele>21</ele>
        <time>2018-06-30T20:05:21.000Z</time>
      </trkpt>
      <trkpt lat="45.88825" lon="-0.89044">
        <ele>21</ele>
        <time>2018-06-30T20:05:22.000Z</time>
      </trkpt>
      <trkpt lat="45.88824" lon="-0.89045">
        <ele>21</ele>
        <time>2018-06-30T20:05:23.000Z</time>
      </trkpt>
      <trkpt lat="45.88823" lon="-0.89047">
        <ele>21</ele>
        <time>2018-06-30T20:05:24.000Z</time>
      </trkpt>
      <trkpt lat="45.88823" lon="-0.89048">
        <ele>21</ele>
        <time>2018-06-30T20:05:25.000Z</time>
      </trkpt>
      <trkpt lat="45.88822" lon="-0.89049">
        <ele>21</ele>
        <time>2018-06-30T20:05:26.000Z</time>
      </trkpt>
      <trkpt lat="45.88821" lon="-0.89051">
        <ele>22</ele>
        <time>2018-06-30T20:05:27.000Z</time>
      </trkpt>
      <trkpt lat="45.8882" lon="-0.89052">
        <ele>22</ele>
        <time>2018-06-30T20:05:28.000Z</time>
      </trkpt>
      <trkpt lat="45.88819" lon="-0.89053">
        <ele>22</ele>
        <time>2018-06-30T20:05:29.000Z</time>
      </trkpt>
      <trkpt lat="45.88819" lon="-0.89055">
        <ele>22</ele>
        <time>2018-06-30T20:05:30.000Z</time>
      </trkpt>
      <trkpt lat="45.88818" lon="-0.89056">
        <ele>22</ele>
        <time>2018-06-30T20:05:31.000Z</time>
      </trkpt>
      <trkpt lat="45.88817" lon="-0.89057">
        <ele>22</ele>
        <time>2018-06-30T20:05:32.000Z</time>
      </trkpt>
      <trkpt lat="45.88817" lon="-0.89059">
        <ele>22</ele>
        <time>2018-06-30T20:05:33.000Z</time>
      </trkpt>
      <trkpt lat="45.88816" lon="-0.89059">
        <ele>23</ele>
        <time>2018-06-30T20:05:34.000Z</time>
      </trkpt>
      <trkpt lat="45.88816" lon="-0.8906">
        <ele>23</ele>
        <time>2018-06-30T20:05:35.000Z</time>
      </trkpt>
      <trkpt lat="45.88816" lon="-0.8906">
        <ele>23</ele>
        <time>2018-06-30T20:05:36.000Z</time>
      </trkpt>
      <trkpt lat="45.88816" lon="-0.8906">
        <ele>22</ele>
        <time>2018-06-30T20:05:37.000Z</time>
      </trkpt>
      <trkpt lat="45.88816" lon="-0.8906">
        <ele>22</ele>
        <time>2018-06-30T20:05:38.000Z</time>
      </trkpt>
      <trkpt lat="45.88816" lon="-0.8906">
        <ele>22</ele>
        <time>2018-06-30T20:05:39.000Z</time>
      </trkpt>
      <trkpt lat="45.88816" lon="-0.8906">
        <ele>22</ele>
        <time>2018-06-30T20:05:40.000Z</time>
      </trkpt>
      <trkpt lat="45.88816" lon="-0.8906">
        <ele>22</ele>
        <time>2018-06-30T20:05:41.000Z</time>
      </trkpt>
      <trkpt lat="45.88816" lon="-0.8906">
        <ele>22</ele>
        <time>2018-06-30T20:05:42.000Z</time>
      </trkpt>
      <trkpt lat="45.88816" lon="-0.8906">
        <ele>22</ele>
        <time>2018-06-30T20:05:43.000Z</time>
      </trkpt>
      <trkpt lat="45.88816" lon="-0.8906">
        <ele>22</ele>
        <time>2018-06-30T20:05:44.000Z</time>
      </trkpt>
      <trkpt lat="45.88816" lon="-0.8906">
        <ele>22</ele>
        <time>2018-06-30T20:05:45.000Z</time>
      </trkpt>
      <trkpt lat="45.88815" lon="-0.89061">
        <ele>22</ele>
        <time>2018-06-30T20:05:46.000Z</time>
      </trkpt>
      <trkpt lat="45.88815" lon="-0.89061">
        <ele>22</ele>
        <time>2018-06-30T20:05:47.000Z</time>
      </trkpt>
      <trkpt lat="45.88814" lon="-0.89062">
        <ele>22</ele>
        <time>2018-06-30T20:05:48.000Z</time>
      </trkpt>
      <trkpt lat="45.88814" lon="-0.89063">
        <ele>22</ele>
        <time>2018-06-30T20:05:49.000Z</time>
      </trkpt>
      <trkpt lat="45.88813" lon="-0.89064">
        <ele>22</ele>
        <time>2018-06-30T20:05:50.000Z</time>
      </trkpt>
      <trkpt lat="45.88813" lon="-0.89065">
        <ele>22</ele>
        <time>2018-06-30T20:05:51.000Z</time>
      </trkpt>
      <trkpt lat="45.88812" lon="-0.89066">
        <ele>22</ele>
        <time>2018-06-30T20:05:52.000Z</time>
      </trkpt>
      <trkpt lat="45.88811" lon="-0.89067">
        <ele>22</ele>
        <time>2018-06-30T20:05:53.000Z</time>
      </trkpt>
      <trkpt lat="45.88811" lon="-0.89068">
        <ele>22</ele>
        <time>2018-06-30T20:05:54.000Z</time>
      </trkpt>
      <trkpt lat="45.8881" lon="-0.89069">
        <ele>23</ele>
        <time>2018-06-30T20:05:55.000Z</time>
      </trkpt>
      <trkpt lat="45.88809" lon="-0.8907">
        <ele>22</ele>
        <time>2018-06-30T20:05:56.000Z</time>
      </trkpt>
      <trkpt lat="45.88809" lon="-0.89071">
        <ele>22</ele>
        <time>2018-06-30T20:05:57.000Z</time>
      </trkpt>
      <trkpt lat="45.88808" lon="-0.89073">
        <ele>22</ele>
        <time>2018-06-30T20:05:58.000Z</time>
      </trkpt>
      <trkpt lat="45.88808" lon="-0.89074">
        <ele>22</ele>
        <time>2018-06-30T20:05:59.000Z</time>
      </trkpt>
      <trkpt lat="45.88807" lon="-0.89075">
        <ele>22</ele>
        <time>2018-06-30T20:06:00.000Z</time>
      </trkpt>
      <trkpt lat="45.88807" lon="-0.89076">
        <ele>22</ele>
        <time>2018-06-30T20:06:01.000Z</time>
      </trkpt>
      <trkpt lat="45.88806" lon="-0.89076">
        <ele>22</ele>
        <time>2018-06-30T20:06:02.000Z</time>
      </trkpt>
      <trkpt lat="45.88805" lon="-0.89077">
        <ele>22</ele>
        <time>2018-06-30T20:06:03.000Z</time>
      </trkpt>
      <trkpt lat="45.88804" lon="-0.89077">
        <ele>22</ele>
        <time>2018-06-30T20:06:04.000Z</time>
      </trkpt>
      <trkpt lat="45.88803" lon="-0.89078">
        <ele>22</ele>
        <time>2018-06-30T20:06:05.000Z</time>
      </trkpt>
      <trkpt lat="45.88802" lon="-0.89078">
        <ele>21</ele>
        <time>2018-06-30T20:06:06.000Z</time>
      </trkpt>
      <trkpt lat="45.88801" lon="-0.89078">
        <ele>21</ele>
        <time>2018-06-30T20:06:07.000Z</time>
      </trkpt>
      <trkpt lat="45.88799" lon="-0.89078">
        <ele>22</ele>
        <time>2018-06-30T20:06:08.000Z</time>
      </trkpt>
      <trkpt lat="45.88798" lon="-0.89079">
        <ele>22</ele>
        <time>2018-06-30T20:06:09.000Z</time>
      </trkpt>
      <trkpt lat="45.88797" lon="-0.89078">
        <ele>22</ele>
        <time>2018-06-30T20:06:10.000Z</time>
      </trkpt>
      <trkpt lat="45.88796" lon="-0.89078">
        <ele>22</ele>
        <time>2018-06-30T20:06:11.000Z</time>
      </trkpt>
      <trkpt lat="45.88795" lon="-0.89078">
        <ele>22</ele>
        <time>2018-06-30T20:06:12.000Z</time>
      </trkpt>
      <trkpt lat="45.88794" lon="-0.89077">
        <ele>22</ele>
        <time>2018-06-30T20:06:13.000Z</time>
      </trkpt>
      <trkpt lat="45.88792" lon="-0.89077">
        <ele>22</ele>
        <time>2018-06-30T20:06:14.000Z</time>
      </trkpt>
      <trkpt lat="45.88791" lon="-0.89076">
        <ele>22</ele>
        <time>2018-06-30T20:06:15.000Z</time>
      </trkpt>
      <trkpt lat="45.8879" lon="-0.89076">
        <ele>22</ele>
        <time>2018-06-30T20:06:16.000Z</time>
      </trkpt>
      <trkpt lat="45.88789" lon="-0.89076">
        <ele>22</ele>
        <time>2018-06-30T20:06:17.000Z</time>
      </trkpt>
      <trkpt lat="45.88788" lon="-0.89075">
        <ele>22</ele>
        <time>2018-06-30T20:06:18.000Z</time>
      </trkpt>
      <trkpt lat="45.88787" lon="-0.89074">
        <ele>22</ele>
        <time>2018-06-30T20:06:19.000Z</time>
      </trkpt>
      <trkpt lat="45.88785" lon="-0.89074">
        <ele>22</ele>
        <time>2018-06-30T20:06:20.000Z</time>
      </trkpt>
      <trkpt lat="45.88784" lon="-0.89073">
        <ele>22</ele>
        <time>2018-06-30T20:06:21.000Z</time>
      </trkpt>
      <trkpt lat="45.88783" lon="-0.89073">
        <ele>22</ele>
        <time>2018-06-30T20:06:22.000Z</time>
      </trkpt>
      <trkpt lat="45.88782" lon="-0.89072">
        <ele>22</ele>
        <time>2018-06-30T20:06:23.000Z</time>
      </trkpt>
      <trkpt lat="45.88781" lon="-0.89072">
        <ele>22</ele>
        <time>2018-06-30T20:06:24.000Z</time>
      </trkpt>
      <trkpt lat="45.8878" lon="-0.89071">
        <ele>22</ele>
        <time>2018-06-30T20:06:25.000Z</time>
      </trkpt>
      <trkpt lat="45.88779" lon="-0.89071">
        <ele>22</ele>
        <time>2018-06-30T20:06:26.000Z</time>
      </trkpt>
      <trkpt lat="45.88778" lon="-0.89071">
        <ele>22</ele>
        <time>2018-06-30T20:06:27.000Z</time>
      </trkpt>
      <trkpt lat="45.88777" lon="-0.8907">
        <ele>23</ele>
        <time>2018-06-30T20:06:28.000Z</time>
      </trkpt>
      <trkpt lat="45.88777" lon="-0.8907">
        <ele>23</ele>
        <time>2018-06-30T20:06:29.000Z</time>
      </trkpt>
      <trkpt lat="45.88776" lon="-0.89069">
        <ele>23</ele>
        <time>2018-06-30T20:06:30.000Z</time>
      </trkpt>
      <trkpt lat="45.88775" lon="-0.89069">
        <ele>23</ele>
        <time>2018-06-30T20:06:31.000Z</time>
      </trkpt>
      <trkpt lat="45.88774" lon="-0.89069">
        <ele>22</ele>
        <time>2018-06-30T20:06:32.000Z</time>
      </trkpt>
      <trkpt lat="45.88773" lon="-0.89069">
        <ele>22</ele>
        <time>2018-06-30T20:06:33.000Z</time>
      </trkpt>
      <trkpt lat="45.88772" lon="-0.89069">
        <ele>22</ele>
        <time>2018-06-30T20:06:34.000Z</time>
      </trkpt>
      <trkpt lat="45.88771" lon="-0.89068">
        <ele>22</ele>
        <time>2018-06-30T20:06:35.000Z</time>
      </trkpt>
      <trkpt lat="45.8877" lon="-0.89068">
        <ele>22</ele>
        <time>2018-06-30T20:06:36.000Z</time>
      </trkpt>
      <trkpt lat="45.88769" lon="-0.89068">
        <ele>22</ele>
        <time>2018-06-30T20:06:37.000Z</time>
      </trkpt>
      <trkpt lat="45.88768" lon="-0.89068">
        <ele>22</ele>
        <time>2018-06-30T20:06:38.000Z</time>
      </trkpt>
      <trkpt lat="45.88766" lon="-0.89068">
        <ele>22</ele>
        <time>2018-06-30T20:06:39.000Z</time>
      </trkpt>
      <trkpt lat="45.88765" lon="-0.89067">
        <ele>23</ele>
        <time>2018-06-30T20:06:40.000Z</time>
      </trkpt>
      <trkpt lat="45.88764" lon="-0.89067">
        <ele>23</ele>
        <time>2018-06-30T20:06:41.000Z</time>
      </trkpt>
      <trkpt lat="45.88763" lon="-0.89067">
        <ele>22</ele>
        <time>2018-06-30T20:06:42.000Z</time>
      </trkpt>
      <trkpt lat="45.88762" lon="-0.89067">
        <ele>22</ele>
        <time>2018-06-30T20:06:43.000Z</time>
      </trkpt>
      <trkpt lat="45.88761" lon="-0.89066">
        <ele>22</ele>
        <time>2018-06-30T20:06:44.000Z</time>
      </trkpt>
      <trkpt lat="45.88759" lon="-0.89066">
        <ele>22</ele>
        <time>2018-06-30T20:06:45.000Z</time>
      </trkpt>
      <trkpt lat="45.88758" lon="-0.89065">
        <ele>22</ele>
        <time>2018-06-30T20:06:46.000Z</time>
      </trkpt>
      <trkpt lat="45.88757" lon="-0.89065">
        <ele>22</ele>
        <time>2018-06-30T20:06:47.000Z</time>
      </trkpt>
      <trkpt lat="45.88756" lon="-0.89065">
        <ele>22</ele>
        <time>2018-06-30T20:06:48.000Z</time>
      </trkpt>
      <trkpt lat="45.88755" lon="-0.89064">
        <ele>23</ele>
        <time>2018-06-30T20:06:49.000Z</time>
      </trkpt>
      <trkpt lat="45.88753" lon="-0.89064">
        <ele>23</ele>
        <time>2018-06-30T20:06:50.000Z</time>
      </trkpt>
      <trkpt lat="45.88752" lon="-0.89064">
        <ele>23</ele>
        <time>2018-06-30T20:06:51.000Z</time>
      </trkpt>
      <trkpt lat="45.8875" lon="-0.89064">
        <ele>23</ele>
        <time>2018-06-30T20:06:52.000Z</time>
      </trkpt>
      <trkpt lat="45.88749" lon="-0.89064">
        <ele>22</ele>
        <time>2018-06-30T20:06:53.000Z</time>
      </trkpt>
      <trkpt lat="45.88748" lon="-0.89063">
        <ele>22</ele>
        <time>2018-06-30T20:06:54.000Z</time>
      </trkpt>
      <trkpt lat="45.88747" lon="-0.89063">
        <ele>22</ele>
        <time>2018-06-30T20:06:55.000Z</time>
      </trkpt>
      <trkpt lat="45.88746" lon="-0.89063">
        <ele>22</ele>
        <time>2018-06-30T20:06:56.000Z</time>
      </trkpt>
      <trkpt lat="45.88745" lon="-0.89062">
        <ele>22</ele>
        <time>2018-06-30T20:06:57.000Z</time>
      </trkpt>
      <trkpt lat="45.88744" lon="-0.89062">
        <ele>22</ele>
        <time>2018-06-30T20:06:58.000Z</time>
      </trkpt>
      <trkpt lat="45.88743" lon="-0.89061">
        <ele>22</ele>
        <time>2018-06-30T20:06:59.000Z</time>
      </trkpt>
      <trkpt lat="45.88742" lon="-0.89061">
        <ele>22</ele>
        <time>2018-06-30T20:07:00.000Z</time>
      </trkpt>
      <trkpt lat="45.88741" lon="-0.8906">
        <ele>22</ele>
        <time>2018-06-30T20:07:01.000Z</time>
      </trkpt>
      <trkpt lat="45.88739" lon="-0.8906">
        <ele>22</ele>
        <time>2018-06-30T20:07:02.000Z</time>
      </trkpt>
      <trkpt lat="45.88738" lon="-0.89059">
        <ele>22</ele>
        <time>2018-06-30T20:07:03.000Z</time>
      </trkpt>
      <trkpt lat="45.88737" lon="-0.89059">
        <ele>22</ele>
        <time>2018-06-30T20:07:04.000Z</time>
      </trkpt>
      <trkpt lat="45.88736" lon="-0.89058">
        <ele>22</ele>
        <time>2018-06-30T20:07:05.000Z</time>
      </trkpt>
      <trkpt lat="45.88735" lon="-0.89058">
        <ele>22</ele>
        <time>2018-06-30T20:07:06.000Z</time>
      </trkpt>
      <trkpt lat="45.88734" lon="-0.89057">
        <ele>21</ele>
        <time>2018-06-30T20:07:07.000Z</time>
      </trkpt>
      <trkpt lat="45.88733" lon="-0.89056">
        <ele>21</ele>
        <time>2018-06-30T20:07:08.000Z</time>
      </trkpt>
      <trkpt lat="45.88732" lon="-0.89056">
        <ele>22</ele>
        <time>2018-06-30T20:07:09.000Z</time>
      </trkpt>
      <trkpt lat="45.88731" lon="-0.89055">
        <ele>22</ele>
        <time>2018-06-30T20:07:10.000Z</time>
      </trkpt>
      <trkpt lat="45.8873" lon="-0.89054">
        <ele>22</ele>
        <time>2018-06-30T20:07:11.000Z</time>
      </trkpt>
      <trkpt lat="45.88729" lon="-0.89053">
        <ele>22</ele>
        <time>2018-06-30T20:07:12.000Z</time>
      </trkpt>
      <trkpt lat="45.88728" lon="-0.89052">
        <ele>21</ele>
        <time>2018-06-30T20:07:13.000Z</time>
      </trkpt>
      <trkpt lat="45.88727" lon="-0.89051">
        <ele>21</ele>
        <time>2018-06-30T20:07:14.000Z</time>
      </trkpt>
      <trkpt lat="45.88726" lon="-0.8905">
        <ele>21</ele>
        <time>2018-06-30T20:07:15.000Z</time>
      </trkpt>
      <trkpt lat="45.88725" lon="-0.8905">
        <ele>21</ele>
        <time>2018-06-30T20:07:16.000Z</time>
      </trkpt>
      <trkpt lat="45.88724" lon="-0.89049">
        <ele>21</ele>
        <time>2018-06-30T20:07:17.000Z</time>
      </trkpt>
      <trkpt lat="45.88723" lon="-0.89048">
        <ele>21</ele>
        <time>2018-06-30T20:07:18.000Z</time>
      </trkpt>
      <trkpt lat="45.88722" lon="-0.89048">
        <ele>21</ele>
        <time>2018-06-30T20:07:19.000Z</time>
      </trkpt>
      <trkpt lat="45.88721" lon="-0.89047">
        <ele>21</ele>
        <time>2018-06-30T20:07:20.000Z</time>
      </trkpt>
      <trkpt lat="45.8872" lon="-0.89046">
        <ele>21</ele>
        <time>2018-06-30T20:07:21.000Z</time>
      </trkpt>
      <trkpt lat="45.88719" lon="-0.89045">
        <ele>21</ele>
        <time>2018-06-30T20:07:22.000Z</time>
      </trkpt>
      <trkpt lat="45.88718" lon="-0.89044">
        <ele>21</ele>
        <time>2018-06-30T20:07:23.000Z</time>
      </trkpt>
      <trkpt lat="45.88717" lon="-0.89043">
        <ele>21</ele>
        <time>2018-06-30T20:07:24.000Z</time>
      </trkpt>
      <trkpt lat="45.88716" lon="-0.89042">
        <ele>21</ele>
        <time>2018-06-30T20:07:25.000Z</time>
      </trkpt>
      <trkpt lat="45.88715" lon="-0.89041">
        <ele>21</ele>
        <time>2018-06-30T20:07:26.000Z</time>
      </trkpt>
      <trkpt lat="45.88714" lon="-0.8904">
        <ele>21</ele>
        <time>2018-06-30T20:07:27.000Z</time>
      </trkpt>
      <trkpt lat="45.88713" lon="-0.8904">
        <ele>21</ele>
        <time>2018-06-30T20:07:28.000Z</time>
      </trkpt>
      <trkpt lat="45.88712" lon="-0.89039">
        <ele>21</ele>
        <time>2018-06-30T20:07:29.000Z</time>
      </trkpt>
      <trkpt lat="45.88711" lon="-0.89038">
        <ele>21</ele>
        <time>2018-06-30T20:07:30.000Z</time>
      </trkpt>
      <trkpt lat="45.8871" lon="-0.89037">
        <ele>21</ele>
        <time>2018-06-30T20:07:31.000Z</time>
      </trkpt>
      <trkpt lat="45.88709" lon="-0.89036">
        <ele>21</ele>
        <time>2018-06-30T20:07:32.000Z</time>
      </trkpt>
      <trkpt lat="45.88708" lon="-0.89035">
        <ele>21</ele>
        <time>2018-06-30T20:07:33.000Z</time>
      </trkpt>
      <trkpt lat="45.88707" lon="-0.89034">
        <ele>21</ele>
        <time>2018-06-30T20:07:34.000Z</time>
      </trkpt>
      <trkpt lat="45.88706" lon="-0.89033">
        <ele>21</ele>
        <time>2018-06-30T20:07:35.000Z</time>
      </trkpt>
      <trkpt lat="45.88705" lon="-0.89032">
        <ele>21</ele>
        <time>2018-06-30T20:07:36.000Z</time>
      </trkpt>
      <trkpt lat="45.88704" lon="-0.89031">
        <ele>21</ele>
        <time>2018-06-30T20:07:37.000Z</time>
      </trkpt>
      <trkpt lat="45.88703" lon="-0.8903">
        <ele>21</ele>
        <time>2018-06-30T20:07:38.000Z</time>
      </trkpt>
      <trkpt lat="45.88702" lon="-0.89028">
        <ele>21</ele>
        <time>2018-06-30T20:07:39.000Z</time>
      </trkpt>
      <trkpt lat="45.88701" lon="-0.89027">
        <ele>21</ele>
        <time>2018-06-30T20:07:40.000Z</time>
      </trkpt>
      <trkpt lat="45.887" lon="-0.89027">
        <ele>21</ele>
        <time>2018-06-30T20:07:41.000Z</time>
      </trkpt>
      <trkpt lat="45.88699" lon="-0.89026">
        <ele>21</ele>
        <time>2018-06-30T20:07:42.000Z</time>
      </trkpt>
      <trkpt lat="45.88698" lon="-0.89025">
        <ele>20</ele>
        <time>2018-06-30T20:07:43.000Z</time>
      </trkpt>
      <trkpt lat="45.88697" lon="-0.89024">
        <ele>20</ele>
        <time>2018-06-30T20:07:44.000Z</time>
      </trkpt>
      <trkpt lat="45.88696" lon="-0.89024">
        <ele>20</ele>
        <time>2018-06-30T20:07:45.000Z</time>
      </trkpt>
      <trkpt lat="45.88696" lon="-0.89023">
        <ele>20</ele>
        <time>2018-06-30T20:07:46.000Z</time>
      </trkpt>
      <trkpt lat="45.88695" lon="-0.89022">
        <ele>20</ele>
        <time>2018-06-30T20:07:47.000Z</time>
      </trkpt>
      <trkpt lat="45.88694" lon="-0.89022">
        <ele>20</ele>
        <time>2018-06-30T20:07:48.000Z</time>
      </trkpt>
      <trkpt lat="45.88694" lon="-0.89021">
        <ele>20</ele>
        <time>2018-06-30T20:07:49.000Z</time>
      </trkpt>
      <trkpt lat="45.88693" lon="-0.8902">
        <ele>20</ele>
        <time>2018-06-30T20:07:50.000Z</time>
      </trkpt>
      <trkpt lat="45.88692" lon="-0.89019">
        <ele>20</ele>
        <time>2018-06-30T20:07:51.000Z</time>
      </trkpt>
      <trkpt lat="45.88692" lon="-0.89019">
        <ele>20</ele>
        <time>2018-06-30T20:07:52.000Z</time>
      </trkpt>
      <trkpt lat="45.88691" lon="-0.89018">
        <ele>20</ele>
        <time>2018-06-30T20:07:53.000Z</time>
      </trkpt>
      <trkpt lat="45.8869" lon="-0.89017">
        <ele>20</ele>
        <time>2018-06-30T20:07:54.000Z</time>
      </trkpt>
      <trkpt lat="45.88689" lon="-0.89017">
        <ele>20</ele>
        <time>2018-06-30T20:07:55.000Z</time>
      </trkpt>
      <trkpt lat="45.88688" lon="-0.89016">
        <ele>20</ele>
        <time>2018-06-30T20:07:56.000Z</time>
      </trkpt>
      <trkpt lat="45.88688" lon="-0.89016">
        <ele>20</ele>
        <time>2018-06-30T20:07:57.000Z</time>
      </trkpt>
      <trkpt lat="45.88687" lon="-0.89015">
        <ele>19</ele>
        <time>2018-06-30T20:07:58.000Z</time>
      </trkpt>
      <trkpt lat="45.88686" lon="-0.89015">
        <ele>20</ele>
        <time>2018-06-30T20:07:59.000Z</time>
      </trkpt>
      <trkpt lat="45.88686" lon="-0.89014">
        <ele>20</ele>
        <time>2018-06-30T20:08:00.000Z</time>
      </trkpt>
      <trkpt lat="45.88685" lon="-0.89013">
        <ele>20</ele>
        <time>2018-06-30T20:08:01.000Z</time>
      </trkpt>
      <trkpt lat="45.88685" lon="-0.89013">
        <ele>20</ele>
        <time>2018-06-30T20:08:02.000Z</time>
      </trkpt>
      <trkpt lat="45.88684" lon="-0.89013">
        <ele>20</ele>
        <time>2018-06-30T20:08:03.000Z</time>
      </trkpt>
      <trkpt lat="45.88684" lon="-0.89012">
        <ele>21</ele>
        <time>2018-06-30T20:08:04.000Z</time>
      </trkpt>
      <trkpt lat="45.88683" lon="-0.89012">
        <ele>20</ele>
        <time>2018-06-30T20:08:05.000Z</time>
      </trkpt>
      <trkpt lat="45.88682" lon="-0.89011">
        <ele>21</ele>
        <time>2018-06-30T20:08:06.000Z</time>
      </trkpt>
      <trkpt lat="45.88682" lon="-0.89011">
        <ele>21</ele>
        <time>2018-06-30T20:08:07.000Z</time>
      </trkpt>
      <trkpt lat="45.88681" lon="-0.8901">
        <ele>21</ele>
        <time>2018-06-30T20:08:08.000Z</time>
      </trkpt>
      <trkpt lat="45.88681" lon="-0.89009">
        <ele>20</ele>
        <time>2018-06-30T20:08:09.000Z</time>
      </trkpt>
      <trkpt lat="45.8868" lon="-0.89009">
        <ele>19</ele>
        <time>2018-06-30T20:08:10.000Z</time>
      </trkpt>
      <trkpt lat="45.88679" lon="-0.89008">
        <ele>20</ele>
        <time>2018-06-30T20:08:11.000Z</time>
      </trkpt>
      <trkpt lat="45.88678" lon="-0.89008">
        <ele>20</ele>
        <time>2018-06-30T20:08:12.000Z</time>
      </trkpt>
      <trkpt lat="45.88678" lon="-0.89008">
        <ele>19</ele>
        <time>2018-06-30T20:08:13.000Z</time>
      </trkpt>
      <trkpt lat="45.88677" lon="-0.89007">
        <ele>19</ele>
        <time>2018-06-30T20:08:14.000Z</time>
      </trkpt>
      <trkpt lat="45.88676" lon="-0.89006">
        <ele>20</ele>
        <time>2018-06-30T20:08:15.000Z</time>
      </trkpt>
      <trkpt lat="45.88675" lon="-0.89005">
        <ele>20</ele>
        <time>2018-06-30T20:08:16.000Z</time>
      </trkpt>
      <trkpt lat="45.88675" lon="-0.89004">
        <ele>20</ele>
        <time>2018-06-30T20:08:17.000Z</time>
      </trkpt>
      <trkpt lat="45.88674" lon="-0.89004">
        <ele>20</ele>
        <time>2018-06-30T20:08:18.000Z</time>
      </trkpt>
      <trkpt lat="45.88673" lon="-0.89003">
        <ele>20</ele>
        <time>2018-06-30T20:08:19.000Z</time>
      </trkpt>
      <trkpt lat="45.88673" lon="-0.89003">
        <ele>20</ele>
        <time>2018-06-30T20:08:20.000Z</time>
      </trkpt>
      <trkpt lat="45.88672" lon="-0.89003">
        <ele>20</ele>
        <time>2018-06-30T20:08:21.000Z</time>
      </trkpt>
      <trkpt lat="45.88672" lon="-0.89003">
        <ele>21</ele>
        <time>2018-06-30T20:08:22.000Z</time>
      </trkpt>
      <trkpt lat="45.88671" lon="-0.89002">
        <ele>20</ele>
        <time>2018-06-30T20:08:23.000Z</time>
      </trkpt>
      <trkpt lat="45.8867" lon="-0.89002">
        <ele>20</ele>
        <time>2018-06-30T20:08:24.000Z</time>
      </trkpt>
      <trkpt lat="45.8867" lon="-0.89002">
        <ele>20</ele>
        <time>2018-06-30T20:08:25.000Z</time>
      </trkpt>
      <trkpt lat="45.88669" lon="-0.89001">
        <ele>20</ele>
        <time>2018-06-30T20:08:26.000Z</time>
      </trkpt>
      <trkpt lat="45.88668" lon="-0.89">
        <ele>21</ele>
        <time>2018-06-30T20:08:27.000Z</time>
      </trkpt>
      <trkpt lat="45.88667" lon="-0.88999">
        <ele>21</ele>
        <time>2018-06-30T20:08:28.000Z</time>
      </trkpt>
      <trkpt lat="45.88666" lon="-0.88998">
        <ele>22</ele>
        <time>2018-06-30T20:08:29.000Z</time>
      </trkpt>
      <trkpt lat="45.88665" lon="-0.88997">
        <ele>24</ele>
        <time>2018-06-30T20:08:30.000Z</time>
      </trkpt>
      <trkpt lat="45.88663" lon="-0.88996">
        <ele>24</ele>
        <time>2018-06-30T20:08:31.000Z</time>
      </trkpt>
      <trkpt lat="45.88662" lon="-0.88995">
        <ele>23</ele>
        <time>2018-06-30T20:08:32.000Z</time>
      </trkpt>
      <trkpt lat="45.8866" lon="-0.88994">
        <ele>21</ele>
        <time>2018-06-30T20:08:33.000Z</time>
      </trkpt>
      <trkpt lat="45.88659" lon="-0.88994">
        <ele>21</ele>
        <time>2018-06-30T20:08:34.000Z</time>
      </trkpt>
      <trkpt lat="45.88657" lon="-0.88993">
        <ele>20</ele>
        <time>2018-06-30T20:08:35.000Z</time>
      </trkpt>
      <trkpt lat="45.88656" lon="-0.88992">
        <ele>20</ele>
        <time>2018-06-30T20:08:36.000Z</time>
      </trkpt>
      <trkpt lat="45.88655" lon="-0.88991">
        <ele>20</ele>
        <time>2018-06-30T20:08:37.000Z</time>
      </trkpt>
      <trkpt lat="45.88654" lon="-0.88991">
        <ele>20</ele>
        <time>2018-06-30T20:08:38.000Z</time>
      </trkpt>
      <trkpt lat="45.88654" lon="-0.8899">
        <ele>20</ele>
        <time>2018-06-30T20:08:39.000Z</time>
      </trkpt>
      <trkpt lat="45.88653" lon="-0.88989">
        <ele>20</ele>
        <time>2018-06-30T20:08:40.000Z</time>
      </trkpt>
      <trkpt lat="45.88652" lon="-0.88988">
        <ele>20</ele>
        <time>2018-06-30T20:08:41.000Z</time>
      </trkpt>
      <trkpt lat="45.88651" lon="-0.88988">
        <ele>20</ele>
        <time>2018-06-30T20:08:42.000Z</time>
      </trkpt>
      <trkpt lat="45.88649" lon="-0.88987">
        <ele>20</ele>
        <time>2018-06-30T20:08:43.000Z</time>
      </trkpt>
      <trkpt lat="45.88648" lon="-0.88986">
        <ele>20</ele>
        <time>2018-06-30T20:08:44.000Z</time>
      </trkpt>
      <trkpt lat="45.88647" lon="-0.88986">
        <ele>19</ele>
        <time>2018-06-30T20:08:45.000Z</time>
      </trkpt>
      <trkpt lat="45.88646" lon="-0.88985">
        <ele>19</ele>
        <time>2018-06-30T20:08:46.000Z</time>
      </trkpt>
      <trkpt lat="45.88645" lon="-0.88985">
        <ele>18</ele>
        <time>2018-06-30T20:08:47.000Z</time>
      </trkpt>
      <trkpt lat="45.88644" lon="-0.88984">
        <ele>19</ele>
        <time>2018-06-30T20:08:48.000Z</time>
      </trkpt>
      <trkpt lat="45.88643" lon="-0.88984">
        <ele>18</ele>
        <time>2018-06-30T20:08:49.000Z</time>
      </trkpt>
      <trkpt lat="45.88641" lon="-0.88983">
        <ele>18</ele>
        <time>2018-06-30T20:08:50.000Z</time>
      </trkpt>
      <trkpt lat="45.8864" lon="-0.88983">
        <ele>18</ele>
        <time>2018-06-30T20:08:51.000Z</time>
      </trkpt>
      <trkpt lat="45.88639" lon="-0.88982">
        <ele>17</ele>
        <time>2018-06-30T20:08:52.000Z</time>
      </trkpt>
      <trkpt lat="45.88638" lon="-0.88982">
        <ele>17</ele>
        <time>2018-06-30T20:08:53.000Z</time>
      </trkpt>
      <trkpt lat="45.88637" lon="-0.88981">
        <ele>17</ele>
        <time>2018-06-30T20:08:54.000Z</time>
      </trkpt>
      <trkpt lat="45.88636" lon="-0.8898">
        <ele>17</ele>
        <time>2018-06-30T20:08:55.000Z</time>
      </trkpt>
      <trkpt lat="45.88635" lon="-0.88979">
        <ele>16</ele>
        <time>2018-06-30T20:08:56.000Z</time>
      </trkpt>
      <trkpt lat="45.88634" lon="-0.88979">
        <ele>16</ele>
        <time>2018-06-30T20:08:57.000Z</time>
      </trkpt>
      <trkpt lat="45.88632" lon="-0.88978">
        <ele>17</ele>
        <time>2018-06-30T20:08:58.000Z</time>
      </trkpt>
      <trkpt lat="45.88631" lon="-0.88977">
        <ele>17</ele>
        <time>2018-06-30T20:08:59.000Z</time>
      </trkpt>
      <trkpt lat="45.8863" lon="-0.88977">
        <ele>17</ele>
        <time>2018-06-30T20:09:00.000Z</time>
      </trkpt>
      <trkpt lat="45.88629" lon="-0.88976">
        <ele>17</ele>
        <time>2018-06-30T20:09:01.000Z</time>
      </trkpt>
      <trkpt lat="45.88627" lon="-0.88975">
        <ele>18</ele>
        <time>2018-06-30T20:09:02.000Z</time>
      </trkpt>
      <trkpt lat="45.88626" lon="-0.88974">
        <ele>18</ele>
        <time>2018-06-30T20:09:03.000Z</time>
      </trkpt>
      <trkpt lat="45.88625" lon="-0.88973">
        <ele>18</ele>
        <time>2018-06-30T20:09:04.000Z</time>
      </trkpt>
      <trkpt lat="45.88624" lon="-0.88972">
        <ele>18</ele>
        <time>2018-06-30T20:09:05.000Z</time>
      </trkpt>
      <trkpt lat="45.88623" lon="-0.88972">
        <ele>19</ele>
        <time>2018-06-30T20:09:06.000Z</time>
      </trkpt>
      <trkpt lat="45.88622" lon="-0.88971">
        <ele>19</ele>
        <time>2018-06-30T20:09:07.000Z</time>
      </trkpt>
      <trkpt lat="45.8862" lon="-0.8897">
        <ele>19</ele>
        <time>2018-06-30T20:09:08.000Z</time>
      </trkpt>
      <trkpt lat="45.88619" lon="-0.88969">
        <ele>19</ele>
        <time>2018-06-30T20:09:09.000Z</time>
      </trkpt>
      <trkpt lat="45.88618" lon="-0.88969">
        <ele>19</ele>
        <time>2018-06-30T20:09:10.000Z</time>
      </trkpt>
      <trkpt lat="45.88617" lon="-0.88968">
        <ele>19</ele>
        <time>2018-06-30T20:09:11.000Z</time>
      </trkpt>
      <trkpt lat="45.88616" lon="-0.88968">
        <ele>18</ele>
        <time>2018-06-30T20:09:12.000Z</time>
      </trkpt>
      <trkpt lat="45.88615" lon="-0.88967">
        <ele>18</ele>
        <time>2018-06-30T20:09:13.000Z</time>
      </trkpt>
      <trkpt lat="45.88614" lon="-0.88967">
        <ele>18</ele>
        <time>2018-06-30T20:09:14.000Z</time>
      </trkpt>
      <trkpt lat="45.88613" lon="-0.88966">
        <ele>18</ele>
        <time>2018-06-30T20:09:15.000Z</time>
      </trkpt>
      <trkpt lat="45.88612" lon="-0.88966">
        <ele>16</ele>
        <time>2018-06-30T20:09:16.000Z</time>
      </trkpt>
      <trkpt lat="45.88611" lon="-0.88965">
        <ele>16</ele>
        <time>2018-06-30T20:09:17.000Z</time>
      </trkpt>
      <trkpt lat="45.8861" lon="-0.88964">
        <ele>16</ele>
        <time>2018-06-30T20:09:18.000Z</time>
      </trkpt>
      <trkpt lat="45.88609" lon="-0.88964">
        <ele>16</ele>
        <time>2018-06-30T20:09:19.000Z</time>
      </trkpt>
      <trkpt lat="45.88608" lon="-0.88963">
        <ele>16</ele>
        <time>2018-06-30T20:09:20.000Z</time>
      </trkpt>
      <trkpt lat="45.88606" lon="-0.88962">
        <ele>16</ele>
        <time>2018-06-30T20:09:21.000Z</time>
      </trkpt>
      <trkpt lat="45.88605" lon="-0.88961">
        <ele>16</ele>
        <time>2018-06-30T20:09:22.000Z</time>
      </trkpt>
      <trkpt lat="45.88604" lon="-0.8896">
        <ele>16</ele>
        <time>2018-06-30T20:09:23.000Z</time>
      </trkpt>
      <trkpt lat="45.88603" lon="-0.8896">
        <ele>16</ele>
        <time>2018-06-30T20:09:24.000Z</time>
      </trkpt>
      <trkpt lat="45.88602" lon="-0.88959">
        <ele>16</ele>
        <time>2018-06-30T20:09:25.000Z</time>
      </trkpt>
      <trkpt lat="45.88601" lon="-0.88959">
        <ele>16</ele>
        <time>2018-06-30T20:09:26.000Z</time>
      </trkpt>
      <trkpt lat="45.886" lon="-0.88958">
        <ele>16</ele>
        <time>2018-06-30T20:09:27.000Z</time>
      </trkpt>
      <trkpt lat="45.88599" lon="-0.88958">
        <ele>16</ele>
        <time>2018-06-30T20:09:28.000Z</time>
      </trkpt>
      <trkpt lat="45.88598" lon="-0.88957">
        <ele>15</ele>
        <time>2018-06-30T20:09:29.000Z</time>
      </trkpt>
      <trkpt lat="45.88597" lon="-0.88957">
        <ele>15</ele>
        <time>2018-06-30T20:09:30.000Z</time>
      </trkpt>
      <trkpt lat="45.88596" lon="-0.88957">
        <ele>15</ele>
        <time>2018-06-30T20:09:31.000Z</time>
      </trkpt>
      <trkpt lat="45.88595" lon="-0.88956">
        <ele>15</ele>
        <time>2018-06-30T20:09:32.000Z</time>
      </trkpt>
      <trkpt lat="45.88594" lon="-0.88956">
        <ele>14</ele>
        <time>2018-06-30T20:09:33.000Z</time>
      </trkpt>
      <trkpt lat="45.88593" lon="-0.88955">
        <ele>14</ele>
        <time>2018-06-30T20:09:34.000Z</time>
      </trkpt>
      <trkpt lat="45.88592" lon="-0.88955">
        <ele>14</ele>
        <time>2018-06-30T20:09:35.000Z</time>
      </trkpt>
      <trkpt lat="45.88591" lon="-0.88954">
        <ele>14</ele>
        <time>2018-06-30T20:09:36.000Z</time>
      </trkpt>
      <trkpt lat="45.88589" lon="-0.88954">
        <ele>15</ele>
        <time>2018-06-30T20:09:37.000Z</time>
      </trkpt>
      <trkpt lat="45.88588" lon="-0.88953">
        <ele>14</ele>
        <time>2018-06-30T20:09:38.000Z</time>
      </trkpt>
      <trkpt lat="45.88587" lon="-0.88953">
        <ele>14</ele>
        <time>2018-06-30T20:09:39.000Z</time>
      </trkpt>
      <trkpt lat="45.88586" lon="-0.88952">
        <ele>15</ele>
        <time>2018-06-30T20:09:40.000Z</time>
      </trkpt>
      <trkpt lat="45.88584" lon="-0.88952">
        <ele>15</ele>
        <time>2018-06-30T20:09:41.000Z</time>
      </trkpt>
      <trkpt lat="45.88583" lon="-0.88951">
        <ele>15</ele>
        <time>2018-06-30T20:09:42.000Z</time>
      </trkpt>
      <trkpt lat="45.88582" lon="-0.8895">
        <ele>14</ele>
        <time>2018-06-30T20:09:43.000Z</time>
      </trkpt>
      <trkpt lat="45.88581" lon="-0.8895">
        <ele>14</ele>
        <time>2018-06-30T20:09:44.000Z</time>
      </trkpt>
      <trkpt lat="45.8858" lon="-0.88949">
        <ele>14</ele>
        <time>2018-06-30T20:09:45.000Z</time>
      </trkpt>
      <trkpt lat="45.88579" lon="-0.88949">
        <ele>13</ele>
        <time>2018-06-30T20:09:46.000Z</time>
      </trkpt>
      <trkpt lat="45.88578" lon="-0.88948">
        <ele>13</ele>
        <time>2018-06-30T20:09:47.000Z</time>
      </trkpt>
      <trkpt lat="45.88577" lon="-0.88947">
        <ele>13</ele>
        <time>2018-06-30T20:09:48.000Z</time>
      </trkpt>
      <trkpt lat="45.88576" lon="-0.88947">
        <ele>13</ele>
        <time>2018-06-30T20:09:49.000Z</time>
      </trkpt>
      <trkpt lat="45.88575" lon="-0.88946">
        <ele>13</ele>
        <time>2018-06-30T20:09:50.000Z</time>
      </trkpt>
      <trkpt lat="45.88574" lon="-0.88945">
        <ele>13</ele>
        <time>2018-06-30T20:09:51.000Z</time>
      </trkpt>
      <trkpt lat="45.88573" lon="-0.88945">
        <ele>13</ele>
        <time>2018-06-30T20:09:52.000Z</time>
      </trkpt>
      <trkpt lat="45.88572" lon="-0.88944">
        <ele>13</ele>
        <time>2018-06-30T20:09:53.000Z</time>
      </trkpt>
      <trkpt lat="45.8857" lon="-0.88943">
        <ele>13</ele>
        <time>2018-06-30T20:09:54.000Z</time>
      </trkpt>
      <trkpt lat="45.88569" lon="-0.88943">
        <ele>14</ele>
        <time>2018-06-30T20:09:55.000Z</time>
      </trkpt>
      <trkpt lat="45.88568" lon="-0.88942">
        <ele>14</ele>
        <time>2018-06-30T20:09:56.000Z</time>
      </trkpt>
      <trkpt lat="45.88567" lon="-0.88942">
        <ele>13</ele>
        <time>2018-06-30T20:09:57.000Z</time>
      </trkpt>
      <trkpt lat="45.88566" lon="-0.88941">
        <ele>13</ele>
        <time>2018-06-30T20:09:58.000Z</time>
      </trkpt>
      <trkpt lat="45.88564" lon="-0.88941">
        <ele>14</ele>
        <time>2018-06-30T20:09:59.000Z</time>
      </trkpt>
      <trkpt lat="45.88563" lon="-0.8894">
        <ele>14</ele>
        <time>2018-06-30T20:10:00.000Z</time>
      </trkpt>
      <trkpt lat="45.88562" lon="-0.88939">
        <ele>14</ele>
        <time>2018-06-30T20:10:01.000Z</time>
      </trkpt>
      <trkpt lat="45.88561" lon="-0.88939">
        <ele>14</ele>
        <time>2018-06-30T20:10:02.000Z</time>
      </trkpt>
      <trkpt lat="45.88559" lon="-0.88938">
        <ele>14</ele>
        <time>2018-06-30T20:10:03.000Z</time>
      </trkpt>
      <trkpt lat="45.88558" lon="-0.88937">
        <ele>15</ele>
        <time>2018-06-30T20:10:04.000Z</time>
      </trkpt>
      <trkpt lat="45.88557" lon="-0.88937">
        <ele>16</ele>
        <time>2018-06-30T20:10:05.000Z</time>
      </trkpt>
      <trkpt lat="45.88555" lon="-0.88936">
        <ele>16</ele>
        <time>2018-06-30T20:10:06.000Z</time>
      </trkpt>
      <trkpt lat="45.88554" lon="-0.88935">
        <ele>16</ele>
        <time>2018-06-30T20:10:07.000Z</time>
      </trkpt>
      <trkpt lat="45.88553" lon="-0.88935">
        <ele>16</ele>
        <time>2018-06-30T20:10:08.000Z</time>
      </trkpt>
      <trkpt lat="45.88552" lon="-0.88934">
        <ele>16</ele>
        <time>2018-06-30T20:10:09.000Z</time>
      </trkpt>
      <trkpt lat="45.8855" lon="-0.88933">
        <ele>16</ele>
        <time>2018-06-30T20:10:10.000Z</time>
      </trkpt>
      <trkpt lat="45.88549" lon="-0.88933">
        <ele>17</ele>
        <time>2018-06-30T20:10:11.000Z</time>
      </trkpt>
      <trkpt lat="45.88548" lon="-0.88932">
        <ele>17</ele>
        <time>2018-06-30T20:10:12.000Z</time>
      </trkpt>
      <trkpt lat="45.88547" lon="-0.88931">
        <ele>17</ele>
        <time>2018-06-30T20:10:13.000Z</time>
      </trkpt>
      <trkpt lat="45.88546" lon="-0.8893">
        <ele>17</ele>
        <time>2018-06-30T20:10:14.000Z</time>
      </trkpt>
      <trkpt lat="45.88544" lon="-0.88929">
        <ele>17</ele>
        <time>2018-06-30T20:10:15.000Z</time>
      </trkpt>
      <trkpt lat="45.88543" lon="-0.88928">
        <ele>17</ele>
        <time>2018-06-30T20:10:16.000Z</time>
      </trkpt>
      <trkpt lat="45.88542" lon="-0.88927">
        <ele>17</ele>
        <time>2018-06-30T20:10:17.000Z</time>
      </trkpt>
      <trkpt lat="45.88541" lon="-0.88926">
        <ele>17</ele>
        <time>2018-06-30T20:10:18.000Z</time>
      </trkpt>
      <trkpt lat="45.8854" lon="-0.88925">
        <ele>18</ele>
        <time>2018-06-30T20:10:19.000Z</time>
      </trkpt>
      <trkpt lat="45.88539" lon="-0.88925">
        <ele>18</ele>
        <time>2018-06-30T20:10:20.000Z</time>
      </trkpt>
      <trkpt lat="45.88538" lon="-0.88924">
        <ele>18</ele>
        <time>2018-06-30T20:10:21.000Z</time>
      </trkpt>
      <trkpt lat="45.88537" lon="-0.88923">
        <ele>18</ele>
        <time>2018-06-30T20:10:22.000Z</time>
      </trkpt>
      <trkpt lat="45.88536" lon="-0.88922">
        <ele>18</ele>
        <time>2018-06-30T20:10:23.000Z</time>
      </trkpt>
      <trkpt lat="45.88535" lon="-0.88921">
        <ele>18</ele>
        <time>2018-06-30T20:10:24.000Z</time>
      </trkpt>
      <trkpt lat="45.88534" lon="-0.8892">
        <ele>18</ele>
        <time>2018-06-30T20:10:25.000Z</time>
      </trkpt>
      <trkpt lat="45.88533" lon="-0.88919">
        <ele>18</ele>
        <time>2018-06-30T20:10:26.000Z</time>
      </trkpt>
      <trkpt lat="45.88532" lon="-0.88918">
        <ele>18</ele>
        <time>2018-06-30T20:10:27.000Z</time>
      </trkpt>
      <trkpt lat="45.88531" lon="-0.88917">
        <ele>18</ele>
        <time>2018-06-30T20:10:28.000Z</time>
      </trkpt>
      <trkpt lat="45.8853" lon="-0.88916">
        <ele>17</ele>
        <time>2018-06-30T20:10:29.000Z</time>
      </trkpt>
      <trkpt lat="45.88529" lon="-0.88915">
        <ele>17</ele>
        <time>2018-06-30T20:10:30.000Z</time>
      </trkpt>
      <trkpt lat="45.88528" lon="-0.88914">
        <ele>17</ele>
        <time>2018-06-30T20:10:31.000Z</time>
      </trkpt>
      <trkpt lat="45.88527" lon="-0.88912">
        <ele>17</ele>
        <time>2018-06-30T20:10:32.000Z</time>
      </trkpt>
      <trkpt lat="45.88526" lon="-0.88911">
        <ele>18</ele>
        <time>2018-06-30T20:10:33.000Z</time>
      </trkpt>
      <trkpt lat="45.88525" lon="-0.8891">
        <ele>17</ele>
        <time>2018-06-30T20:10:34.000Z</time>
      </trkpt>
      <trkpt lat="45.88524" lon="-0.88909">
        <ele>17</ele>
        <time>2018-06-30T20:10:35.000Z</time>
      </trkpt>
      <trkpt lat="45.88523" lon="-0.88908">
        <ele>17</ele>
        <time>2018-06-30T20:10:36.000Z</time>
      </trkpt>
      <trkpt lat="45.88523" lon="-0.88906">
        <ele>17</ele>
        <time>2018-06-30T20:10:37.000Z</time>
      </trkpt>
      <trkpt lat="45.88522" lon="-0.88905">
        <ele>17</ele>
        <time>2018-06-30T20:10:38.000Z</time>
      </trkpt>
      <trkpt lat="45.88521" lon="-0.88903">
        <ele>17</ele>
        <time>2018-06-30T20:10:39.000Z</time>
      </trkpt>
      <trkpt lat="45.8852" lon="-0.88902">
        <ele>17</ele>
        <time>2018-06-30T20:10:40.000Z</time>
      </trkpt>
      <trkpt lat="45.8852" lon="-0.889">
        <ele>17</ele>
        <time>2018-06-30T20:10:41.000Z</time>
      </trkpt>
      <trkpt lat="45.88519" lon="-0.88899">
        <ele>17</ele>
        <time>2018-06-30T20:10:42.000Z</time>
      </trkpt>
      <trkpt lat="45.88518" lon="-0.88898">
        <ele>16</ele>
        <time>2018-06-30T20:10:43.000Z</time>
      </trkpt>
      <trkpt lat="45.88517" lon="-0.88896">
        <ele>16</ele>
        <time>2018-06-30T20:10:44.000Z</time>
      </trkpt>
      <trkpt lat="45.88517" lon="-0.88895">
        <ele>16</ele>
        <time>2018-06-30T20:10:45.000Z</time>
      </trkpt>
      <trkpt lat="45.88516" lon="-0.88893">
        <ele>16</ele>
        <time>2018-06-30T20:10:46.000Z</time>
      </trkpt>
      <trkpt lat="45.88516" lon="-0.88891">
        <ele>16</ele>
        <time>2018-06-30T20:10:47.000Z</time>
      </trkpt>
      <trkpt lat="45.88515" lon="-0.8889">
        <ele>16</ele>
        <time>2018-06-30T20:10:48.000Z</time>
      </trkpt>
      <trkpt lat="45.88515" lon="-0.88889">
        <ele>16</ele>
        <time>2018-06-30T20:10:49.000Z</time>
      </trkpt>
      <trkpt lat="45.88515" lon="-0.88887">
        <ele>16</ele>
        <time>2018-06-30T20:10:50.000Z</time>
      </trkpt>
      <trkpt lat="45.88514" lon="-0.88886">
        <ele>16</ele>
        <time>2018-06-30T20:10:51.000Z</time>
      </trkpt>
      <trkpt lat="45.88514" lon="-0.88884">
        <ele>16</ele>
        <time>2018-06-30T20:10:52.000Z</time>
      </trkpt>
      <trkpt lat="45.88513" lon="-0.88883">
        <ele>16</ele>
        <time>2018-06-30T20:10:53.000Z</time>
      </trkpt>
      <trkpt lat="45.88513" lon="-0.88881">
        <ele>16</ele>
        <time>2018-06-30T20:10:54.000Z</time>
      </trkpt>
      <trkpt lat="45.88512" lon="-0.8888">
        <ele>16</ele>
        <time>2018-06-30T20:10:55.000Z</time>
      </trkpt>
      <trkpt lat="45.88512" lon="-0.88878">
        <ele>16</ele>
        <time>2018-06-30T20:10:56.000Z</time>
      </trkpt>
      <trkpt lat="45.88511" lon="-0.88877">
        <ele>17</ele>
        <time>2018-06-30T20:10:57.000Z</time>
      </trkpt>
      <trkpt lat="45.88511" lon="-0.88875">
        <ele>17</ele>
        <time>2018-06-30T20:10:58.000Z</time>
      </trkpt>
      <trkpt lat="45.88511" lon="-0.88874">
        <ele>17</ele>
        <time>2018-06-30T20:10:59.000Z</time>
      </trkpt>
      <trkpt lat="45.8851" lon="-0.88872">
        <ele>17</ele>
        <time>2018-06-30T20:11:00.000Z</time>
      </trkpt>
      <trkpt lat="45.8851" lon="-0.8887">
        <ele>17</ele>
        <time>2018-06-30T20:11:01.000Z</time>
      </trkpt>
      <trkpt lat="45.88509" lon="-0.88869">
        <ele>17</ele>
        <time>2018-06-30T20:11:02.000Z</time>
      </trkpt>
      <trkpt lat="45.88509" lon="-0.88867">
        <ele>17</ele>
        <time>2018-06-30T20:11:03.000Z</time>
      </trkpt>
      <trkpt lat="45.88509" lon="-0.88866">
        <ele>17</ele>
        <time>2018-06-30T20:11:04.000Z</time>
      </trkpt>
      <trkpt lat="45.88509" lon="-0.88864">
        <ele>17</ele>
        <time>2018-06-30T20:11:05.000Z</time>
      </trkpt>
      <trkpt lat="45.88508" lon="-0.88862">
        <ele>17</ele>
        <time>2018-06-30T20:11:06.000Z</time>
      </trkpt>
      <trkpt lat="45.88508" lon="-0.88861">
        <ele>17</ele>
        <time>2018-06-30T20:11:07.000Z</time>
      </trkpt>
      <trkpt lat="45.88508" lon="-0.88859">
        <ele>17</ele>
        <time>2018-06-30T20:11:08.000Z</time>
      </trkpt>
      <trkpt lat="45.88508" lon="-0.88857">
        <ele>17</ele>
        <time>2018-06-30T20:11:09.000Z</time>
      </trkpt>
      <trkpt lat="45.88508" lon="-0.88855">
        <ele>16</ele>
        <time>2018-06-30T20:11:10.000Z</time>
      </trkpt>
      <trkpt lat="45.88508" lon="-0.88854">
        <ele>16</ele>
        <time>2018-06-30T20:11:11.000Z</time>
      </trkpt>
      <trkpt lat="45.88507" lon="-0.88852">
        <ele>16</ele>
        <time>2018-06-30T20:11:12.000Z</time>
      </trkpt>
      <trkpt lat="45.88507" lon="-0.8885">
        <ele>16</ele>
        <time>2018-06-30T20:11:13.000Z</time>
      </trkpt>
      <trkpt lat="45.88507" lon="-0.88848">
        <ele>16</ele>
        <time>2018-06-30T20:11:14.000Z</time>
      </trkpt>
      <trkpt lat="45.88507" lon="-0.88847">
        <ele>17</ele>
        <time>2018-06-30T20:11:15.000Z</time>
      </trkpt>
      <trkpt lat="45.88507" lon="-0.88845">
        <ele>16</ele>
        <time>2018-06-30T20:11:16.000Z</time>
      </trkpt>
      <trkpt lat="45.88506" lon="-0.88843">
        <ele>16</ele>
        <time>2018-06-30T20:11:17.000Z</time>
      </trkpt>
      <trkpt lat="45.88506" lon="-0.88842">
        <ele>16</ele>
        <time>2018-06-30T20:11:18.000Z</time>
      </trkpt>
      <trkpt lat="45.88506" lon="-0.8884">
        <ele>16</ele>
        <time>2018-06-30T20:11:19.000Z</time>
      </trkpt>
      <trkpt lat="45.88506" lon="-0.88838">
        <ele>16</ele>
        <time>2018-06-30T20:11:20.000Z</time>
      </trkpt>
      <trkpt lat="45.88506" lon="-0.88837">
        <ele>16</ele>
        <time>2018-06-30T20:11:21.000Z</time>
      </trkpt>
      <trkpt lat="45.88506" lon="-0.88835">
        <ele>16</ele>
        <time>2018-06-30T20:11:22.000Z</time>
      </trkpt>
      <trkpt lat="45.88505" lon="-0.88833">
        <ele>16</ele>
        <time>2018-06-30T20:11:23.000Z</time>
      </trkpt>
      <trkpt lat="45.88505" lon="-0.88832">
        <ele>16</ele>
        <time>2018-06-30T20:11:24.000Z</time>
      </trkpt>
      <trkpt lat="45.88505" lon="-0.8883">
        <ele>16</ele>
        <time>2018-06-30T20:11:25.000Z</time>
      </trkpt>
      <trkpt lat="45.88504" lon="-0.88828">
        <ele>16</ele>
        <time>2018-06-30T20:11:26.000Z</time>
      </trkpt>
      <trkpt lat="45.88504" lon="-0.88827">
        <ele>16</ele>
        <time>2018-06-30T20:11:27.000Z</time>
      </trkpt>
      <trkpt lat="45.88503" lon="-0.88825">
        <ele>16</ele>
        <time>2018-06-30T20:11:28.000Z</time>
      </trkpt>
      <trkpt lat="45.88502" lon="-0.88824">
        <ele>17</ele>
        <time>2018-06-30T20:11:29.000Z</time>
      </trkpt>
      <trkpt lat="45.88501" lon="-0.88823">
        <ele>17</ele>
        <time>2018-06-30T20:11:30.000Z</time>
      </trkpt>
      <trkpt lat="45.88499" lon="-0.88822">
        <ele>17</ele>
        <time>2018-06-30T20:11:31.000Z</time>
      </trkpt>
      <trkpt lat="45.88498" lon="-0.88822">
        <ele>16</ele>
        <time>2018-06-30T20:11:32.000Z</time>
      </trkpt>
      <trkpt lat="45.88497" lon="-0.88821">
        <ele>16</ele>
        <time>2018-06-30T20:11:33.000Z</time>
      </trkpt>
      <trkpt lat="45.88496" lon="-0.88821">
        <ele>16</ele>
        <time>2018-06-30T20:11:34.000Z</time>
      </trkpt>
      <trkpt lat="45.88495" lon="-0.88821">
        <ele>16</ele>
        <time>2018-06-30T20:11:35.000Z</time>
      </trkpt>
      <trkpt lat="45.88494" lon="-0.88822">
        <ele>16</ele>
        <time>2018-06-30T20:11:36.000Z</time>
      </trkpt>
      <trkpt lat="45.88493" lon="-0.88822">
        <ele>16</ele>
        <time>2018-06-30T20:11:37.000Z</time>
      </trkpt>
      <trkpt lat="45.88492" lon="-0.88823">
        <ele>16</ele>
        <time>2018-06-30T20:11:38.000Z</time>
      </trkpt>
      <trkpt lat="45.8849" lon="-0.88824">
        <ele>16</ele>
        <time>2018-06-30T20:11:39.000Z</time>
      </trkpt>
      <trkpt lat="45.8849" lon="-0.88825">
        <ele>16</ele>
        <time>2018-06-30T20:11:40.000Z</time>
      </trkpt>
      <trkpt lat="45.88488" lon="-0.88826">
        <ele>16</ele>
        <time>2018-06-30T20:11:41.000Z</time>
      </trkpt>
      <trkpt lat="45.88487" lon="-0.88827">
        <ele>16</ele>
        <time>2018-06-30T20:11:42.000Z</time>
      </trkpt>
      <trkpt lat="45.88486" lon="-0.88828">
        <ele>16</ele>
        <time>2018-06-30T20:11:43.000Z</time>
      </trkpt>
      <trkpt lat="45.88485" lon="-0.88829">
        <ele>17</ele>
        <time>2018-06-30T20:11:44.000Z</time>
      </trkpt>
      <trkpt lat="45.88484" lon="-0.8883">
        <ele>16</ele>
        <time>2018-06-30T20:11:45.000Z</time>
      </trkpt>
      <trkpt lat="45.88483" lon="-0.88831">
        <ele>16</ele>
        <time>2018-06-30T20:11:46.000Z</time>
      </trkpt>
      <trkpt lat="45.88482" lon="-0.88832">
        <ele>16</ele>
        <time>2018-06-30T20:11:47.000Z</time>
      </trkpt>
      <trkpt lat="45.88482" lon="-0.88834">
        <ele>16</ele>
        <time>2018-06-30T20:11:48.000Z</time>
      </trkpt>
      <trkpt lat="45.88481" lon="-0.88835">
        <ele>16</ele>
        <time>2018-06-30T20:11:49.000Z</time>
      </trkpt>
      <trkpt lat="45.8848" lon="-0.88836">
        <ele>16</ele>
        <time>2018-06-30T20:11:50.000Z</time>
      </trkpt>
      <trkpt lat="45.88479" lon="-0.88837">
        <ele>16</ele>
        <time>2018-06-30T20:11:51.000Z</time>
      </trkpt>
      <trkpt lat="45.88478" lon="-0.88837">
        <ele>16</ele>
        <time>2018-06-30T20:11:52.000Z</time>
      </trkpt>
      <trkpt lat="45.88476" lon="-0.88838">
        <ele>16</ele>
        <time>2018-06-30T20:11:53.000Z</time>
      </trkpt>
      <trkpt lat="45.88475" lon="-0.8884">
        <ele>16</ele>
        <time>2018-06-30T20:11:54.000Z</time>
      </trkpt>
      <trkpt lat="45.88475" lon="-0.88841">
        <ele>16</ele>
        <time>2018-06-30T20:11:55.000Z</time>
      </trkpt>
      <trkpt lat="45.88474" lon="-0.88842">
        <ele>16</ele>
        <time>2018-06-30T20:11:56.000Z</time>
      </trkpt>
      <trkpt lat="45.88473" lon="-0.88843">
        <ele>16</ele>
        <time>2018-06-30T20:11:57.000Z</time>
      </trkpt>
      <trkpt lat="45.88472" lon="-0.88844">
        <ele>16</ele>
        <time>2018-06-30T20:11:58.000Z</time>
      </trkpt>
      <trkpt lat="45.88471" lon="-0.88845">
        <ele>16</ele>
        <time>2018-06-30T20:11:59.000Z</time>
      </trkpt>
      <trkpt lat="45.8847" lon="-0.88846">
        <ele>16</ele>
        <time>2018-06-30T20:12:00.000Z</time>
      </trkpt>
      <trkpt lat="45.88469" lon="-0.88846">
        <ele>17</ele>
        <time>2018-06-30T20:12:01.000Z</time>
      </trkpt>
      <trkpt lat="45.88468" lon="-0.88847">
        <ele>17</ele>
        <time>2018-06-30T20:12:02.000Z</time>
      </trkpt>
      <trkpt lat="45.88467" lon="-0.88848">
        <ele>17</ele>
        <time>2018-06-30T20:12:03.000Z</time>
      </trkpt>
      <trkpt lat="45.88466" lon="-0.88849">
        <ele>17</ele>
        <time>2018-06-30T20:12:04.000Z</time>
      </trkpt>
      <trkpt lat="45.88465" lon="-0.88849">
        <ele>17</ele>
        <time>2018-06-30T20:12:05.000Z</time>
      </trkpt>
      <trkpt lat="45.88464" lon="-0.8885">
        <ele>17</ele>
        <time>2018-06-30T20:12:06.000Z</time>
      </trkpt>
      <trkpt lat="45.88463" lon="-0.88851">
        <ele>17</ele>
        <time>2018-06-30T20:12:07.000Z</time>
      </trkpt>
      <trkpt lat="45.88462" lon="-0.88852">
        <ele>17</ele>
        <time>2018-06-30T20:12:08.000Z</time>
      </trkpt>
      <trkpt lat="45.88461" lon="-0.88853">
        <ele>17</ele>
        <time>2018-06-30T20:12:09.000Z</time>
      </trkpt>
      <trkpt lat="45.8846" lon="-0.88853">
        <ele>17</ele>
        <time>2018-06-30T20:12:10.000Z</time>
      </trkpt>
      <trkpt lat="45.88459" lon="-0.88854">
        <ele>17</ele>
        <time>2018-06-30T20:12:11.000Z</time>
      </trkpt>
      <trkpt lat="45.88458" lon="-0.88855">
        <ele>17</ele>
        <time>2018-06-30T20:12:12.000Z</time>
      </trkpt>
      <trkpt lat="45.88457" lon="-0.88856">
        <ele>17</ele>
        <time>2018-06-30T20:12:13.000Z</time>
      </trkpt>
      <trkpt lat="45.88456" lon="-0.88857">
        <ele>17</ele>
        <time>2018-06-30T20:12:14.000Z</time>
      </trkpt>
      <trkpt lat="45.88455" lon="-0.88858">
        <ele>17</ele>
        <time>2018-06-30T20:12:15.000Z</time>
      </trkpt>
      <trkpt lat="45.88455" lon="-0.88859">
        <ele>17</ele>
        <time>2018-06-30T20:12:16.000Z</time>
      </trkpt>
      <trkpt lat="45.88454" lon="-0.8886">
        <ele>17</ele>
        <time>2018-06-30T20:12:17.000Z</time>
      </trkpt>
      <trkpt lat="45.88452" lon="-0.88861">
        <ele>17</ele>
        <time>2018-06-30T20:12:18.000Z</time>
      </trkpt>
      <trkpt lat="45.88451" lon="-0.88862">
        <ele>17</ele>
        <time>2018-06-30T20:12:19.000Z</time>
      </trkpt>
      <trkpt lat="45.8845" lon="-0.88862">
        <ele>17</ele>
        <time>2018-06-30T20:12:20.000Z</time>
      </trkpt>
      <trkpt lat="45.88449" lon="-0.88863">
        <ele>17</ele>
        <time>2018-06-30T20:12:21.000Z</time>
      </trkpt>
      <trkpt lat="45.88448" lon="-0.88864">
        <ele>17</ele>
        <time>2018-06-30T20:12:22.000Z</time>
      </trkpt>
      <trkpt lat="45.88447" lon="-0.88865">
        <ele>17</ele>
        <time>2018-06-30T20:12:23.000Z</time>
      </trkpt>
      <trkpt lat="45.88446" lon="-0.88865">
        <ele>17</ele>
        <time>2018-06-30T20:12:24.000Z</time>
      </trkpt>
      <trkpt lat="45.88445" lon="-0.88866">
        <ele>17</ele>
        <time>2018-06-30T20:12:25.000Z</time>
      </trkpt>
      <trkpt lat="45.88444" lon="-0.88867">
        <ele>17</ele>
        <time>2018-06-30T20:12:26.000Z</time>
      </trkpt>
      <trkpt lat="45.88443" lon="-0.88868">
        <ele>17</ele>
        <time>2018-06-30T20:12:27.000Z</time>
      </trkpt>
      <trkpt lat="45.88442" lon="-0.88868">
        <ele>18</ele>
        <time>2018-06-30T20:12:28.000Z</time>
      </trkpt>
      <trkpt lat="45.88441" lon="-0.88869">
        <ele>18</ele>
        <time>2018-06-30T20:12:29.000Z</time>
      </trkpt>
      <trkpt lat="45.88439" lon="-0.8887">
        <ele>18</ele>
        <time>2018-06-30T20:12:30.000Z</time>
      </trkpt>
      <trkpt lat="45.88438" lon="-0.8887">
        <ele>18</ele>
        <time>2018-06-30T20:12:31.000Z</time>
      </trkpt>
      <trkpt lat="45.88437" lon="-0.88871">
        <ele>18</ele>
        <time>2018-06-30T20:12:32.000Z</time>
      </trkpt>
      <trkpt lat="45.88436" lon="-0.88872">
        <ele>18</ele>
        <time>2018-06-30T20:12:33.000Z</time>
      </trkpt>
      <trkpt lat="45.88435" lon="-0.88872">
        <ele>18</ele>
        <time>2018-06-30T20:12:34.000Z</time>
      </trkpt>
      <trkpt lat="45.88434" lon="-0.88873">
        <ele>18</ele>
        <time>2018-06-30T20:12:35.000Z</time>
      </trkpt>
      <trkpt lat="45.88433" lon="-0.88873">
        <ele>18</ele>
        <time>2018-06-30T20:12:36.000Z</time>
      </trkpt>
      <trkpt lat="45.88432" lon="-0.88874">
        <ele>18</ele>
        <time>2018-06-30T20:12:37.000Z</time>
      </trkpt>
      <trkpt lat="45.8843" lon="-0.88874">
        <ele>18</ele>
        <time>2018-06-30T20:12:38.000Z</time>
      </trkpt>
      <trkpt lat="45.88429" lon="-0.88875">
        <ele>18</ele>
        <time>2018-06-30T20:12:39.000Z</time>
      </trkpt>
      <trkpt lat="45.88428" lon="-0.88875">
        <ele>18</ele>
        <time>2018-06-30T20:12:40.000Z</time>
      </trkpt>
      <trkpt lat="45.88427" lon="-0.88876">
        <ele>18</ele>
        <time>2018-06-30T20:12:41.000Z</time>
      </trkpt>
      <trkpt lat="45.88426" lon="-0.88876">
        <ele>18</ele>
        <time>2018-06-30T20:12:42.000Z</time>
      </trkpt>
      <trkpt lat="45.88425" lon="-0.88876">
        <ele>18</ele>
        <time>2018-06-30T20:12:43.000Z</time>
      </trkpt>
      <trkpt lat="45.88423" lon="-0.88877">
        <ele>18</ele>
        <time>2018-06-30T20:12:44.000Z</time>
      </trkpt>
      <trkpt lat="45.88422" lon="-0.88877">
        <ele>18</ele>
        <time>2018-06-30T20:12:45.000Z</time>
      </trkpt>
      <trkpt lat="45.88421" lon="-0.88878">
        <ele>18</ele>
        <time>2018-06-30T20:12:46.000Z</time>
      </trkpt>
      <trkpt lat="45.8842" lon="-0.88878">
        <ele>18</ele>
        <time>2018-06-30T20:12:47.000Z</time>
      </trkpt>
      <trkpt lat="45.88418" lon="-0.88878">
        <ele>18</ele>
        <time>2018-06-30T20:12:48.000Z</time>
      </trkpt>
      <trkpt lat="45.88417" lon="-0.88879">
        <ele>18</ele>
        <time>2018-06-30T20:12:49.000Z</time>
      </trkpt>
      <trkpt lat="45.88416" lon="-0.88879">
        <ele>18</ele>
        <time>2018-06-30T20:12:50.000Z</time>
      </trkpt>
      <trkpt lat="45.88415" lon="-0.88879">
        <ele>18</ele>
        <time>2018-06-30T20:12:51.000Z</time>
      </trkpt>
      <trkpt lat="45.88414" lon="-0.88879">
        <ele>18</ele>
        <time>2018-06-30T20:12:52.000Z</time>
      </trkpt>
      <trkpt lat="45.88413" lon="-0.88879">
        <ele>18</ele>
        <time>2018-06-30T20:12:53.000Z</time>
      </trkpt>
      <trkpt lat="45.88411" lon="-0.88879">
        <ele>18</ele>
        <time>2018-06-30T20:12:54.000Z</time>
      </trkpt>
      <trkpt lat="45.8841" lon="-0.88879">
        <ele>18</ele>
        <time>2018-06-30T20:12:55.000Z</time>
      </trkpt>
      <trkpt lat="45.88409" lon="-0.88879">
        <ele>18</ele>
        <time>2018-06-30T20:12:56.000Z</time>
      </trkpt>
      <trkpt lat="45.88407" lon="-0.88879">
        <ele>18</ele>
        <time>2018-06-30T20:12:57.000Z</time>
      </trkpt>
      <trkpt lat="45.88406" lon="-0.88879">
        <ele>18</ele>
        <time>2018-06-30T20:12:58.000Z</time>
      </trkpt>
      <trkpt lat="45.88405" lon="-0.88879">
        <ele>18</ele>
        <time>2018-06-30T20:12:59.000Z</time>
      </trkpt>
      <trkpt lat="45.88404" lon="-0.88879">
        <ele>18</ele>
        <time>2018-06-30T20:13:00.000Z</time>
      </trkpt>
      <trkpt lat="45.88403" lon="-0.88879">
        <ele>18</ele>
        <time>2018-06-30T20:13:01.000Z</time>
      </trkpt>
      <trkpt lat="45.88401" lon="-0.88878">
        <ele>17</ele>
        <time>2018-06-30T20:13:02.000Z</time>
      </trkpt>
      <trkpt lat="45.88401" lon="-0.88878">
        <ele>17</ele>
        <time>2018-06-30T20:13:03.000Z</time>
      </trkpt>
      <trkpt lat="45.884" lon="-0.88878">
        <ele>18</ele>
        <time>2018-06-30T20:13:04.000Z</time>
      </trkpt>
      <trkpt lat="45.88399" lon="-0.88878">
        <ele>18</ele>
        <time>2018-06-30T20:13:05.000Z</time>
      </trkpt>
      <trkpt lat="45.88397" lon="-0.88878">
        <ele>17</ele>
        <time>2018-06-30T20:13:06.000Z</time>
      </trkpt>
      <trkpt lat="45.88396" lon="-0.88878">
        <ele>17</ele>
        <time>2018-06-30T20:13:07.000Z</time>
      </trkpt>
      <trkpt lat="45.88395" lon="-0.88877">
        <ele>17</ele>
        <time>2018-06-30T20:13:08.000Z</time>
      </trkpt>
      <trkpt lat="45.88394" lon="-0.88877">
        <ele>17</ele>
        <time>2018-06-30T20:13:09.000Z</time>
      </trkpt>
      <trkpt lat="45.88393" lon="-0.88877">
        <ele>17</ele>
        <time>2018-06-30T20:13:10.000Z</time>
      </trkpt>
      <trkpt lat="45.88392" lon="-0.88876">
        <ele>17</ele>
        <time>2018-06-30T20:13:11.000Z</time>
      </trkpt>
      <trkpt lat="45.8839" lon="-0.88876">
        <ele>17</ele>
        <time>2018-06-30T20:13:12.000Z</time>
      </trkpt>
      <trkpt lat="45.88389" lon="-0.88876">
        <ele>16</ele>
        <time>2018-06-30T20:13:13.000Z</time>
      </trkpt>
      <trkpt lat="45.88388" lon="-0.88876">
        <ele>16</ele>
        <time>2018-06-30T20:13:14.000Z</time>
      </trkpt>
      <trkpt lat="45.88386" lon="-0.88876">
        <ele>16</ele>
        <time>2018-06-30T20:13:15.000Z</time>
      </trkpt>
      <trkpt lat="45.88385" lon="-0.88876">
        <ele>16</ele>
        <time>2018-06-30T20:13:16.000Z</time>
      </trkpt>
      <trkpt lat="45.88384" lon="-0.88876">
        <ele>16</ele>
        <time>2018-06-30T20:13:17.000Z</time>
      </trkpt>
      <trkpt lat="45.88382" lon="-0.88876">
        <ele>16</ele>
        <time>2018-06-30T20:13:18.000Z</time>
      </trkpt>
      <trkpt lat="45.88381" lon="-0.88876">
        <ele>15</ele>
        <time>2018-06-30T20:13:19.000Z</time>
      </trkpt>
      <trkpt lat="45.8838" lon="-0.88875">
        <ele>14</ele>
        <time>2018-06-30T20:13:20.000Z</time>
      </trkpt>
      <trkpt lat="45.88378" lon="-0.88875">
        <ele>14</ele>
        <time>2018-06-30T20:13:21.000Z</time>
      </trkpt>
      <trkpt lat="45.88377" lon="-0.88875">
        <ele>13</ele>
        <time>2018-06-30T20:13:22.000Z</time>
      </trkpt>
      <trkpt lat="45.88376" lon="-0.88875">
        <ele>13</ele>
        <time>2018-06-30T20:13:23.000Z</time>
      </trkpt>
      <trkpt lat="45.88374" lon="-0.88875">
        <ele>13</ele>
        <time>2018-06-30T20:13:24.000Z</time>
      </trkpt>
      <trkpt lat="45.88373" lon="-0.88875">
        <ele>13</ele>
        <time>2018-06-30T20:13:25.000Z</time>
      </trkpt>
      <trkpt lat="45.88372" lon="-0.88875">
        <ele>13</ele>
        <time>2018-06-30T20:13:26.000Z</time>
      </trkpt>
      <trkpt lat="45.88371" lon="-0.88875">
        <ele>13</ele>
        <time>2018-06-30T20:13:27.000Z</time>
      </trkpt>
      <trkpt lat="45.88369" lon="-0.88875">
        <ele>12</ele>
        <time>2018-06-30T20:13:28.000Z</time>
      </trkpt>
      <trkpt lat="45.88368" lon="-0.88875">
        <ele>12</ele>
        <time>2018-06-30T20:13:29.000Z</time>
      </trkpt>
      <trkpt lat="45.88367" lon="-0.88875">
        <ele>11</ele>
        <time>2018-06-30T20:13:30.000Z</time>
      </trkpt>
      <trkpt lat="45.88366" lon="-0.88875">
        <ele>12</ele>
        <time>2018-06-30T20:13:31.000Z</time>
      </trkpt>
      <trkpt lat="45.88364" lon="-0.88875">
        <ele>12</ele>
        <time>2018-06-30T20:13:32.000Z</time>
      </trkpt>
      <trkpt lat="45.88363" lon="-0.88875">
        <ele>12</ele>
        <time>2018-06-30T20:13:33.000Z</time>
      </trkpt>
      <trkpt lat="45.88362" lon="-0.88875">
        <ele>12</ele>
        <time>2018-06-30T20:13:34.000Z</time>
      </trkpt>
      <trkpt lat="45.88361" lon="-0.88875">
        <ele>12</ele>
        <time>2018-06-30T20:13:35.000Z</time>
      </trkpt>
      <trkpt lat="45.88359" lon="-0.88876">
        <ele>13</ele>
        <time>2018-06-30T20:13:36.000Z</time>
      </trkpt>
      <trkpt lat="45.88358" lon="-0.88876">
        <ele>12</ele>
        <time>2018-06-30T20:13:37.000Z</time>
      </trkpt>
      <trkpt lat="45.88357" lon="-0.88877">
        <ele>12</ele>
        <time>2018-06-30T20:13:38.000Z</time>
      </trkpt>
      <trkpt lat="45.88356" lon="-0.88877">
        <ele>12</ele>
        <time>2018-06-30T20:13:39.000Z</time>
      </trkpt>
      <trkpt lat="45.88355" lon="-0.88877">
        <ele>12</ele>
        <time>2018-06-30T20:13:40.000Z</time>
      </trkpt>
      <trkpt lat="45.88353" lon="-0.88878">
        <ele>13</ele>
        <time>2018-06-30T20:13:41.000Z</time>
      </trkpt>
      <trkpt lat="45.88352" lon="-0.88879">
        <ele>13</ele>
        <time>2018-06-30T20:13:42.000Z</time>
      </trkpt>
      <trkpt lat="45.88351" lon="-0.88879">
        <ele>12</ele>
        <time>2018-06-30T20:13:43.000Z</time>
      </trkpt>
      <trkpt lat="45.8835" lon="-0.8888">
        <ele>13</ele>
        <time>2018-06-30T20:13:44.000Z</time>
      </trkpt>
      <trkpt lat="45.88349" lon="-0.8888">
        <ele>13</ele>
        <time>2018-06-30T20:13:45.000Z</time>
      </trkpt>
      <trkpt lat="45.88347" lon="-0.88881">
        <ele>13</ele>
        <time>2018-06-30T20:13:46.000Z</time>
      </trkpt>
      <trkpt lat="45.88346" lon="-0.88881">
        <ele>13</ele>
        <time>2018-06-30T20:13:47.000Z</time>
      </trkpt>
      <trkpt lat="45.88345" lon="-0.88882">
        <ele>13</ele>
        <time>2018-06-30T20:13:48.000Z</time>
      </trkpt>
      <trkpt lat="45.88344" lon="-0.88882">
        <ele>12</ele>
        <time>2018-06-30T20:13:49.000Z</time>
      </trkpt>
      <trkpt lat="45.88343" lon="-0.88883">
        <ele>12</ele>
        <time>2018-06-30T20:13:50.000Z</time>
      </trkpt>
      <trkpt lat="45.88342" lon="-0.88883">
        <ele>12</ele>
        <time>2018-06-30T20:13:51.000Z</time>
      </trkpt>
      <trkpt lat="45.88341" lon="-0.88883">
        <ele>13</ele>
        <time>2018-06-30T20:13:52.000Z</time>
      </trkpt>
      <trkpt lat="45.8834" lon="-0.88884">
        <ele>12</ele>
        <time>2018-06-30T20:13:53.000Z</time>
      </trkpt>
      <trkpt lat="45.8834" lon="-0.88884">
        <ele>13</ele>
        <time>2018-06-30T20:13:54.000Z</time>
      </trkpt>
      <trkpt lat="45.88339" lon="-0.88885">
        <ele>14</ele>
        <time>2018-06-30T20:13:55.000Z</time>
      </trkpt>
      <trkpt lat="45.88338" lon="-0.88886">
        <ele>15</ele>
        <time>2018-06-30T20:13:56.000Z</time>
      </trkpt>
      <trkpt lat="45.88337" lon="-0.88886">
        <ele>15</ele>
        <time>2018-06-30T20:13:57.000Z</time>
      </trkpt>
      <trkpt lat="45.88336" lon="-0.88887">
        <ele>16</ele>
        <time>2018-06-30T20:13:58.000Z</time>
      </trkpt>
      <trkpt lat="45.88335" lon="-0.88887">
        <ele>16</ele>
        <time>2018-06-30T20:13:59.000Z</time>
      </trkpt>
      <trkpt lat="45.88335" lon="-0.88888">
        <ele>17</ele>
        <time>2018-06-30T20:14:00.000Z</time>
      </trkpt>
      <trkpt lat="45.88334" lon="-0.88889">
        <ele>18</ele>
        <time>2018-06-30T20:14:01.000Z</time>
      </trkpt>
      <trkpt lat="45.88334" lon="-0.8889">
        <ele>18</ele>
        <time>2018-06-30T20:14:02.000Z</time>
      </trkpt>
      <trkpt lat="45.88333" lon="-0.88891">
        <ele>17</ele>
        <time>2018-06-30T20:14:03.000Z</time>
      </trkpt>
      <trkpt lat="45.88333" lon="-0.88891">
        <ele>17</ele>
        <time>2018-06-30T20:14:04.000Z</time>
      </trkpt>
      <trkpt lat="45.88332" lon="-0.88891">
        <ele>16</ele>
        <time>2018-06-30T20:14:05.000Z</time>
      </trkpt>
      <trkpt lat="45.88332" lon="-0.88891">
        <ele>17</ele>
        <time>2018-06-30T20:14:06.000Z</time>
      </trkpt>
      <trkpt lat="45.88331" lon="-0.88892">
        <ele>17</ele>
        <time>2018-06-30T20:14:07.000Z</time>
      </trkpt>
      <trkpt lat="45.88331" lon="-0.88892">
        <ele>18</ele>
        <time>2018-06-30T20:14:08.000Z</time>
      </trkpt>
      <trkpt lat="45.8833" lon="-0.88892">
        <ele>18</ele>
        <time>2018-06-30T20:14:09.000Z</time>
      </trkpt>
      <trkpt lat="45.8833" lon="-0.88893">
        <ele>20</ele>
        <time>2018-06-30T20:14:10.000Z</time>
      </trkpt>
      <trkpt lat="45.88329" lon="-0.88893">
        <ele>20</ele>
        <time>2018-06-30T20:14:11.000Z</time>
      </trkpt>
      <trkpt lat="45.88329" lon="-0.88894">
        <ele>20</ele>
        <time>2018-06-30T20:14:12.000Z</time>
      </trkpt>
      <trkpt lat="45.88329" lon="-0.88895">
        <ele>20</ele>
        <time>2018-06-30T20:14:13.000Z</time>
      </trkpt>
      <trkpt lat="45.88329" lon="-0.88895">
        <ele>20</ele>
        <time>2018-06-30T20:14:14.000Z</time>
      </trkpt>
      <trkpt lat="45.88329" lon="-0.88896">
        <ele>20</ele>
        <time>2018-06-30T20:14:15.000Z</time>
      </trkpt>
      <trkpt lat="45.88328" lon="-0.88897">
        <ele>20</ele>
        <time>2018-06-30T20:14:16.000Z</time>
      </trkpt>
      <trkpt lat="45.88327" lon="-0.88898">
        <ele>20</ele>
        <time>2018-06-30T20:14:17.000Z</time>
      </trkpt>
      <trkpt lat="45.88326" lon="-0.88899">
        <ele>20</ele>
        <time>2018-06-30T20:14:18.000Z</time>
      </trkpt>
      <trkpt lat="45.88325" lon="-0.889">
        <ele>20</ele>
        <time>2018-06-30T20:14:19.000Z</time>
      </trkpt>
      <trkpt lat="45.88324" lon="-0.88901">
        <ele>19</ele>
        <time>2018-06-30T20:14:20.000Z</time>
      </trkpt>
      <trkpt lat="45.88323" lon="-0.88902">
        <ele>19</ele>
        <time>2018-06-30T20:14:21.000Z</time>
      </trkpt>
      <trkpt lat="45.88322" lon="-0.88903">
        <ele>19</ele>
        <time>2018-06-30T20:14:22.000Z</time>
      </trkpt>
      <trkpt lat="45.88321" lon="-0.88904">
        <ele>18</ele>
        <time>2018-06-30T20:14:23.000Z</time>
      </trkpt>
      <trkpt lat="45.8832" lon="-0.88905">
        <ele>17</ele>
        <time>2018-06-30T20:14:24.000Z</time>
      </trkpt>
      <trkpt lat="45.88319" lon="-0.88905">
        <ele>17</ele>
        <time>2018-06-30T20:14:25.000Z</time>
      </trkpt>
      <trkpt lat="45.88318" lon="-0.88906">
        <ele>17</ele>
        <time>2018-06-30T20:14:26.000Z</time>
      </trkpt>
      <trkpt lat="45.88317" lon="-0.88907">
        <ele>17</ele>
        <time>2018-06-30T20:14:27.000Z</time>
      </trkpt>
      <trkpt lat="45.88315" lon="-0.88908">
        <ele>17</ele>
        <time>2018-06-30T20:14:28.000Z</time>
      </trkpt>
      <trkpt lat="45.88314" lon="-0.88909">
        <ele>17</ele>
        <time>2018-06-30T20:14:29.000Z</time>
      </trkpt>
      <trkpt lat="45.88313" lon="-0.88909">
        <ele>17</ele>
        <time>2018-06-30T20:14:30.000Z</time>
      </trkpt>
      <trkpt lat="45.88311" lon="-0.8891">
        <ele>16</ele>
        <time>2018-06-30T20:14:31.000Z</time>
      </trkpt>
      <trkpt lat="45.8831" lon="-0.88911">
        <ele>15</ele>
        <time>2018-06-30T20:14:32.000Z</time>
      </trkpt>
      <trkpt lat="45.88309" lon="-0.88912">
        <ele>16</ele>
        <time>2018-06-30T20:14:33.000Z</time>
      </trkpt>
      <trkpt lat="45.88307" lon="-0.88913">
        <ele>16</ele>
        <time>2018-06-30T20:14:34.000Z</time>
      </trkpt>
      <trkpt lat="45.88305" lon="-0.88913">
        <ele>16</ele>
        <time>2018-06-30T20:14:35.000Z</time>
      </trkpt>
      <trkpt lat="45.88304" lon="-0.88914">
        <ele>16</ele>
        <time>2018-06-30T20:14:36.000Z</time>
      </trkpt>
      <trkpt lat="45.88302" lon="-0.88915">
        <ele>15</ele>
        <time>2018-06-30T20:14:37.000Z</time>
      </trkpt>
      <trkpt lat="45.88301" lon="-0.88915">
        <ele>15</ele>
        <time>2018-06-30T20:14:38.000Z</time>
      </trkpt>
      <trkpt lat="45.883" lon="-0.88916">
        <ele>14</ele>
        <time>2018-06-30T20:14:39.000Z</time>
      </trkpt>
      <trkpt lat="45.88298" lon="-0.88916">
        <ele>15</ele>
        <time>2018-06-30T20:14:40.000Z</time>
      </trkpt>
      <trkpt lat="45.88297" lon="-0.88917">
        <ele>15</ele>
        <time>2018-06-30T20:14:41.000Z</time>
      </trkpt>
      <trkpt lat="45.88295" lon="-0.88917">
        <ele>15</ele>
        <time>2018-06-30T20:14:42.000Z</time>
      </trkpt>
      <trkpt lat="45.88294" lon="-0.88918">
        <ele>15</ele>
        <time>2018-06-30T20:14:43.000Z</time>
      </trkpt>
      <trkpt lat="45.88293" lon="-0.88919">
        <ele>15</ele>
        <time>2018-06-30T20:14:44.000Z</time>
      </trkpt>
      <trkpt lat="45.88292" lon="-0.8892">
        <ele>15</ele>
        <time>2018-06-30T20:14:45.000Z</time>
      </trkpt>
      <trkpt lat="45.8829" lon="-0.8892">
        <ele>15</ele>
        <time>2018-06-30T20:14:46.000Z</time>
      </trkpt>
      <trkpt lat="45.88289" lon="-0.88921">
        <ele>15</ele>
        <time>2018-06-30T20:14:47.000Z</time>
      </trkpt>
      <trkpt lat="45.88288" lon="-0.88921">
        <ele>15</ele>
        <time>2018-06-30T20:14:48.000Z</time>
      </trkpt>
      <trkpt lat="45.88287" lon="-0.88922">
        <ele>15</ele>
        <time>2018-06-30T20:14:49.000Z</time>
      </trkpt>
      <trkpt lat="45.88286" lon="-0.88922">
        <ele>14</ele>
        <time>2018-06-30T20:14:50.000Z</time>
      </trkpt>
      <trkpt lat="45.88285" lon="-0.88923">
        <ele>15</ele>
        <time>2018-06-30T20:14:51.000Z</time>
      </trkpt>
      <trkpt lat="45.88284" lon="-0.88924">
        <ele>15</ele>
        <time>2018-06-30T20:14:52.000Z</time>
      </trkpt>
      <trkpt lat="45.88283" lon="-0.88925">
        <ele>15</ele>
        <time>2018-06-30T20:14:53.000Z</time>
      </trkpt>
      <trkpt lat="45.88281" lon="-0.88926">
        <ele>14</ele>
        <time>2018-06-30T20:14:54.000Z</time>
      </trkpt>
      <trkpt lat="45.8828" lon="-0.88926">
        <ele>15</ele>
        <time>2018-06-30T20:14:55.000Z</time>
      </trkpt>
      <trkpt lat="45.88279" lon="-0.88927">
        <ele>15</ele>
        <time>2018-06-30T20:14:56.000Z</time>
      </trkpt>
      <trkpt lat="45.88278" lon="-0.88927">
        <ele>16</ele>
        <time>2018-06-30T20:14:57.000Z</time>
      </trkpt>
      <trkpt lat="45.88277" lon="-0.88928">
        <ele>16</ele>
        <time>2018-06-30T20:14:58.000Z</time>
      </trkpt>
      <trkpt lat="45.88275" lon="-0.88928">
        <ele>15</ele>
        <time>2018-06-30T20:14:59.000Z</time>
      </trkpt>
      <trkpt lat="45.88274" lon="-0.88928">
        <ele>15</ele>
        <time>2018-06-30T20:15:00.000Z</time>
      </trkpt>
      <trkpt lat="45.88273" lon="-0.88928">
        <ele>15</ele>
        <time>2018-06-30T20:15:01.000Z</time>
      </trkpt>
      <trkpt lat="45.88272" lon="-0.88928">
        <ele>15</ele>
        <time>2018-06-30T20:15:02.000Z</time>
      </trkpt>
      <trkpt lat="45.8827" lon="-0.88928">
        <ele>15</ele>
        <time>2018-06-30T20:15:03.000Z</time>
      </trkpt>
      <trkpt lat="45.88269" lon="-0.88928">
        <ele>15</ele>
        <time>2018-06-30T20:15:04.000Z</time>
      </trkpt>
      <trkpt lat="45.88268" lon="-0.88928">
        <ele>16</ele>
        <time>2018-06-30T20:15:05.000Z</time>
      </trkpt>
      <trkpt lat="45.88267" lon="-0.88928">
        <ele>16</ele>
        <time>2018-06-30T20:15:06.000Z</time>
      </trkpt>
      <trkpt lat="45.88265" lon="-0.88929">
        <ele>15</ele>
        <time>2018-06-30T20:15:07.000Z</time>
      </trkpt>
      <trkpt lat="45.88264" lon="-0.88929">
        <ele>15</ele>
        <time>2018-06-30T20:15:08.000Z</time>
      </trkpt>
      <trkpt lat="45.88263" lon="-0.8893">
        <ele>15</ele>
        <time>2018-06-30T20:15:09.000Z</time>
      </trkpt>
      <trkpt lat="45.88262" lon="-0.88931">
        <ele>15</ele>
        <time>2018-06-30T20:15:10.000Z</time>
      </trkpt>
      <trkpt lat="45.88261" lon="-0.88931">
        <ele>15</ele>
        <time>2018-06-30T20:15:11.000Z</time>
      </trkpt>
      <trkpt lat="45.88259" lon="-0.88932">
        <ele>16</ele>
        <time>2018-06-30T20:15:12.000Z</time>
      </trkpt>
      <trkpt lat="45.88259" lon="-0.88934">
        <ele>16</ele>
        <time>2018-06-30T20:15:13.000Z</time>
      </trkpt>
      <trkpt lat="45.88258" lon="-0.88935">
        <ele>17</ele>
        <time>2018-06-30T20:15:14.000Z</time>
      </trkpt>
      <trkpt lat="45.88257" lon="-0.88936">
        <ele>17</ele>
        <time>2018-06-30T20:15:15.000Z</time>
      </trkpt>
      <trkpt lat="45.88256" lon="-0.88938">
        <ele>17</ele>
        <time>2018-06-30T20:15:16.000Z</time>
      </trkpt>
      <trkpt lat="45.88255" lon="-0.88939">
        <ele>16</ele>
        <time>2018-06-30T20:15:17.000Z</time>
      </trkpt>
      <trkpt lat="45.88255" lon="-0.88941">
        <ele>17</ele>
        <time>2018-06-30T20:15:18.000Z</time>
      </trkpt>
      <trkpt lat="45.88255" lon="-0.88943">
        <ele>17</ele>
        <time>2018-06-30T20:15:19.000Z</time>
      </trkpt>
      <trkpt lat="45.88254" lon="-0.88945">
        <ele>17</ele>
        <time>2018-06-30T20:15:20.000Z</time>
      </trkpt>
      <trkpt lat="45.88254" lon="-0.88947">
        <ele>17</ele>
        <time>2018-06-30T20:15:21.000Z</time>
      </trkpt>
      <trkpt lat="45.88254" lon="-0.88949">
        <ele>16</ele>
        <time>2018-06-30T20:15:22.000Z</time>
      </trkpt>
      <trkpt lat="45.88255" lon="-0.8895">
        <ele>16</ele>
        <time>2018-06-30T20:15:23.000Z</time>
      </trkpt>
      <trkpt lat="45.88255" lon="-0.88952">
        <ele>16</ele>
        <time>2018-06-30T20:15:24.000Z</time>
      </trkpt>
      <trkpt lat="45.88255" lon="-0.88954">
        <ele>17</ele>
        <time>2018-06-30T20:15:25.000Z</time>
      </trkpt>
      <trkpt lat="45.88255" lon="-0.88955">
        <ele>16</ele>
        <time>2018-06-30T20:15:26.000Z</time>
      </trkpt>
      <trkpt lat="45.88256" lon="-0.88957">
        <ele>16</ele>
        <time>2018-06-30T20:15:27.000Z</time>
      </trkpt>
      <trkpt lat="45.88256" lon="-0.88959">
        <ele>16</ele>
        <time>2018-06-30T20:15:28.000Z</time>
      </trkpt>
      <trkpt lat="45.88256" lon="-0.8896">
        <ele>16</ele>
        <time>2018-06-30T20:15:29.000Z</time>
      </trkpt>
      <trkpt lat="45.88257" lon="-0.88962">
        <ele>16</ele>
        <time>2018-06-30T20:15:30.000Z</time>
      </trkpt>
      <trkpt lat="45.88257" lon="-0.88964">
        <ele>16</ele>
        <time>2018-06-30T20:15:31.000Z</time>
      </trkpt>
      <trkpt lat="45.88257" lon="-0.88966">
        <ele>16</ele>
        <time>2018-06-30T20:15:32.000Z</time>
      </trkpt>
      <trkpt lat="45.88258" lon="-0.88967">
        <ele>17</ele>
        <time>2018-06-30T20:15:33.000Z</time>
      </trkpt>
      <trkpt lat="45.88258" lon="-0.88969">
        <ele>17</ele>
        <time>2018-06-30T20:15:34.000Z</time>
      </trkpt>
      <trkpt lat="45.88258" lon="-0.88971">
        <ele>17</ele>
        <time>2018-06-30T20:15:35.000Z</time>
      </trkpt>
      <trkpt lat="45.88259" lon="-0.88972">
        <ele>16</ele>
        <time>2018-06-30T20:15:36.000Z</time>
      </trkpt>
      <trkpt lat="45.88259" lon="-0.88974">
        <ele>16</ele>
        <time>2018-06-30T20:15:37.000Z</time>
      </trkpt>
      <trkpt lat="45.8826" lon="-0.88976">
        <ele>16</ele>
        <time>2018-06-30T20:15:38.000Z</time>
      </trkpt>
      <trkpt lat="45.8826" lon="-0.88978">
        <ele>16</ele>
        <time>2018-06-30T20:15:39.000Z</time>
      </trkpt>
      <trkpt lat="45.88261" lon="-0.88979">
        <ele>16</ele>
        <time>2018-06-30T20:15:40.000Z</time>
      </trkpt>
      <trkpt lat="45.88261" lon="-0.88981">
        <ele>16</ele>
        <time>2018-06-30T20:15:41.000Z</time>
      </trkpt>
      <trkpt lat="45.88261" lon="-0.88983">
        <ele>16</ele>
        <time>2018-06-30T20:15:42.000Z</time>
      </trkpt>
      <trkpt lat="45.88262" lon="-0.88985">
        <ele>16</ele>
        <time>2018-06-30T20:15:43.000Z</time>
      </trkpt>
      <trkpt lat="45.88262" lon="-0.88987">
        <ele>16</ele>
        <time>2018-06-30T20:15:44.000Z</time>
      </trkpt>
      <trkpt lat="45.88263" lon="-0.88989">
        <ele>16</ele>
        <time>2018-06-30T20:15:45.000Z</time>
      </trkpt>
      <trkpt lat="45.88263" lon="-0.88991">
        <ele>16</ele>
        <time>2018-06-30T20:15:46.000Z</time>
      </trkpt>
      <trkpt lat="45.88263" lon="-0.88993">
        <ele>16</ele>
        <time>2018-06-30T20:15:47.000Z</time>
      </trkpt>
      <trkpt lat="45.88264" lon="-0.88995">
        <ele>16</ele>
        <time>2018-06-30T20:15:48.000Z</time>
      </trkpt>
      <trkpt lat="45.88264" lon="-0.88997">
        <ele>16</ele>
        <time>2018-06-30T20:15:49.000Z</time>
      </trkpt>
      <trkpt lat="45.88265" lon="-0.88999">
        <ele>16</ele>
        <time>2018-06-30T20:15:50.000Z</time>
      </trkpt>
      <trkpt lat="45.88265" lon="-0.89001">
        <ele>16</ele>
        <time>2018-06-30T20:15:51.000Z</time>
      </trkpt>
      <trkpt lat="45.88266" lon="-0.89002">
        <ele>15</ele>
        <time>2018-06-30T20:15:52.000Z</time>
      </trkpt>
      <trkpt lat="45.88266" lon="-0.89004">
        <ele>15</ele>
        <time>2018-06-30T20:15:53.000Z</time>
      </trkpt>
      <trkpt lat="45.88267" lon="-0.89006">
        <ele>15</ele>
        <time>2018-06-30T20:15:54.000Z</time>
      </trkpt>
      <trkpt lat="45.88267" lon="-0.89007">
        <ele>16</ele>
        <time>2018-06-30T20:15:55.000Z</time>
      </trkpt>
      <trkpt lat="45.88267" lon="-0.89009">
        <ele>16</ele>
        <time>2018-06-30T20:15:56.000Z</time>
      </trkpt>
      <trkpt lat="45.88267" lon="-0.89011">
        <ele>16</ele>
        <time>2018-06-30T20:15:57.000Z</time>
      </trkpt>
      <trkpt lat="45.88267" lon="-0.89012">
        <ele>15</ele>
        <time>2018-06-30T20:15:58.000Z</time>
      </trkpt>
      <trkpt lat="45.88268" lon="-0.89014">
        <ele>15</ele>
        <time>2018-06-30T20:15:59.000Z</time>
      </trkpt>
      <trkpt lat="45.88268" lon="-0.89016">
        <ele>15</ele>
        <time>2018-06-30T20:16:00.000Z</time>
      </trkpt>
      <trkpt lat="45.88269" lon="-0.89018">
        <ele>15</ele>
        <time>2018-06-30T20:16:01.000Z</time>
      </trkpt>
      <trkpt lat="45.88269" lon="-0.89019">
        <ele>15</ele>
        <time>2018-06-30T20:16:02.000Z</time>
      </trkpt>
      <trkpt lat="45.88269" lon="-0.89021">
        <ele>15</ele>
        <time>2018-06-30T20:16:03.000Z</time>
      </trkpt>
      <trkpt lat="45.8827" lon="-0.89023">
        <ele>15</ele>
        <time>2018-06-30T20:16:04.000Z</time>
      </trkpt>
      <trkpt lat="45.8827" lon="-0.89025">
        <ele>15</ele>
        <time>2018-06-30T20:16:05.000Z</time>
      </trkpt>
      <trkpt lat="45.8827" lon="-0.89026">
        <ele>16</ele>
        <time>2018-06-30T20:16:06.000Z</time>
      </trkpt>
      <trkpt lat="45.88271" lon="-0.89028">
        <ele>15</ele>
        <time>2018-06-30T20:16:07.000Z</time>
      </trkpt>
      <trkpt lat="45.88271" lon="-0.89029">
        <ele>15</ele>
        <time>2018-06-30T20:16:08.000Z</time>
      </trkpt>
      <trkpt lat="45.88272" lon="-0.89031">
        <ele>15</ele>
        <time>2018-06-30T20:16:09.000Z</time>
      </trkpt>
      <trkpt lat="45.88272" lon="-0.89033">
        <ele>15</ele>
        <time>2018-06-30T20:16:10.000Z</time>
      </trkpt>
      <trkpt lat="45.88272" lon="-0.89035">
        <ele>15</ele>
        <time>2018-06-30T20:16:11.000Z</time>
      </trkpt>
      <trkpt lat="45.88273" lon="-0.89036">
        <ele>15</ele>
        <time>2018-06-30T20:16:12.000Z</time>
      </trkpt>
      <trkpt lat="45.88273" lon="-0.89038">
        <ele>15</ele>
        <time>2018-06-30T20:16:13.000Z</time>
      </trkpt>
      <trkpt lat="45.88274" lon="-0.89039">
        <ele>15</ele>
        <time>2018-06-30T20:16:14.000Z</time>
      </trkpt>
      <trkpt lat="45.88274" lon="-0.89041">
        <ele>15</ele>
        <time>2018-06-30T20:16:15.000Z</time>
      </trkpt>
      <trkpt lat="45.88274" lon="-0.89043">
        <ele>15</ele>
        <time>2018-06-30T20:16:16.000Z</time>
      </trkpt>
      <trkpt lat="45.88275" lon="-0.89044">
        <ele>15</ele>
        <time>2018-06-30T20:16:17.000Z</time>
      </trkpt>
      <trkpt lat="45.88275" lon="-0.89046">
        <ele>15</ele>
        <time>2018-06-30T20:16:18.000Z</time>
      </trkpt>
      <trkpt lat="45.88276" lon="-0.89048">
        <ele>15</ele>
        <time>2018-06-30T20:16:19.000Z</time>
      </trkpt>
      <trkpt lat="45.88276" lon="-0.89049">
        <ele>15</ele>
        <time>2018-06-30T20:16:20.000Z</time>
      </trkpt>
      <trkpt lat="45.88276" lon="-0.89051">
        <ele>15</ele>
        <time>2018-06-30T20:16:21.000Z</time>
      </trkpt>
      <trkpt lat="45.88277" lon="-0.89052">
        <ele>15</ele>
        <time>2018-06-30T20:16:22.000Z</time>
      </trkpt>
      <trkpt lat="45.88277" lon="-0.89054">
        <ele>15</ele>
        <time>2018-06-30T20:16:23.000Z</time>
      </trkpt>
      <trkpt lat="45.88277" lon="-0.89056">
        <ele>15</ele>
        <time>2018-06-30T20:16:24.000Z</time>
      </trkpt>
      <trkpt lat="45.88278" lon="-0.89058">
        <ele>15</ele>
        <time>2018-06-30T20:16:25.000Z</time>
      </trkpt>
      <trkpt lat="45.88278" lon="-0.8906">
        <ele>15</ele>
        <time>2018-06-30T20:16:26.000Z</time>
      </trkpt>
      <trkpt lat="45.88279" lon="-0.89061">
        <ele>15</ele>
        <time>2018-06-30T20:16:27.000Z</time>
      </trkpt>
      <trkpt lat="45.88279" lon="-0.89063">
        <ele>15</ele>
        <time>2018-06-30T20:16:28.000Z</time>
      </trkpt>
      <trkpt lat="45.88279" lon="-0.89065">
        <ele>15</ele>
        <time>2018-06-30T20:16:29.000Z</time>
      </trkpt>
      <trkpt lat="45.8828" lon="-0.89066">
        <ele>15</ele>
        <time>2018-06-30T20:16:30.000Z</time>
      </trkpt>
      <trkpt lat="45.8828" lon="-0.89068">
        <ele>15</ele>
        <time>2018-06-30T20:16:31.000Z</time>
      </trkpt>
      <trkpt lat="45.8828" lon="-0.8907">
        <ele>15</ele>
        <time>2018-06-30T20:16:32.000Z</time>
      </trkpt>
      <trkpt lat="45.8828" lon="-0.89072">
        <ele>16</ele>
        <time>2018-06-30T20:16:33.000Z</time>
      </trkpt>
      <trkpt lat="45.88281" lon="-0.89073">
        <ele>16</ele>
        <time>2018-06-30T20:16:34.000Z</time>
      </trkpt>
      <trkpt lat="45.88281" lon="-0.89075">
        <ele>16</ele>
        <time>2018-06-30T20:16:35.000Z</time>
      </trkpt>
      <trkpt lat="45.88281" lon="-0.89077">
        <ele>16</ele>
        <time>2018-06-30T20:16:36.000Z</time>
      </trkpt>
      <trkpt lat="45.88282" lon="-0.89078">
        <ele>15</ele>
        <time>2018-06-30T20:16:37.000Z</time>
      </trkpt>
      <trkpt lat="45.88282" lon="-0.8908">
        <ele>16</ele>
        <time>2018-06-30T20:16:38.000Z</time>
      </trkpt>
      <trkpt lat="45.88282" lon="-0.89081">
        <ele>16</ele>
        <time>2018-06-30T20:16:39.000Z</time>
      </trkpt>
      <trkpt lat="45.88283" lon="-0.89083">
        <ele>16</ele>
        <time>2018-06-30T20:16:40.000Z</time>
      </trkpt>
      <trkpt lat="45.88283" lon="-0.89084">
        <ele>16</ele>
        <time>2018-06-30T20:16:41.000Z</time>
      </trkpt>
      <trkpt lat="45.88283" lon="-0.89086">
        <ele>16</ele>
        <time>2018-06-30T20:16:42.000Z</time>
      </trkpt>
      <trkpt lat="45.88284" lon="-0.89088">
        <ele>16</ele>
        <time>2018-06-30T20:16:43.000Z</time>
      </trkpt>
      <trkpt lat="45.88284" lon="-0.8909">
        <ele>16</ele>
        <time>2018-06-30T20:16:44.000Z</time>
      </trkpt>
      <trkpt lat="45.88284" lon="-0.89092">
        <ele>17</ele>
        <time>2018-06-30T20:16:45.000Z</time>
      </trkpt>
      <trkpt lat="45.88285" lon="-0.89093">
        <ele>17</ele>
        <time>2018-06-30T20:16:46.000Z</time>
      </trkpt>
      <trkpt lat="45.88285" lon="-0.89095">
        <ele>17</ele>
        <time>2018-06-30T20:16:47.000Z</time>
      </trkpt>
      <trkpt lat="45.88286" lon="-0.89097">
        <ele>17</ele>
        <time>2018-06-30T20:16:48.000Z</time>
      </trkpt>
      <trkpt lat="45.88286" lon="-0.89098">
        <ele>17</ele>
        <time>2018-06-30T20:16:49.000Z</time>
      </trkpt>
      <trkpt lat="45.88286" lon="-0.891">
        <ele>16</ele>
        <time>2018-06-30T20:16:50.000Z</time>
      </trkpt>
      <trkpt lat="45.88287" lon="-0.89102">
        <ele>16</ele>
        <time>2018-06-30T20:16:51.000Z</time>
      </trkpt>
      <trkpt lat="45.88287" lon="-0.89103">
        <ele>16</ele>
        <time>2018-06-30T20:16:52.000Z</time>
      </trkpt>
      <trkpt lat="45.88287" lon="-0.89105">
        <ele>16</ele>
        <time>2018-06-30T20:16:53.000Z</time>
      </trkpt>
      <trkpt lat="45.88287" lon="-0.89107">
        <ele>16</ele>
        <time>2018-06-30T20:16:54.000Z</time>
      </trkpt>
      <trkpt lat="45.88288" lon="-0.89109">
        <ele>16</ele>
        <time>2018-06-30T20:16:55.000Z</time>
      </trkpt>
      <trkpt lat="45.88288" lon="-0.89111">
        <ele>16</ele>
        <time>2018-06-30T20:16:56.000Z</time>
      </trkpt>
      <trkpt lat="45.88288" lon="-0.89113">
        <ele>16</ele>
        <time>2018-06-30T20:16:57.000Z</time>
      </trkpt>
      <trkpt lat="45.88289" lon="-0.89114">
        <ele>16</ele>
        <time>2018-06-30T20:16:58.000Z</time>
      </trkpt>
      <trkpt lat="45.88289" lon="-0.89116">
        <ele>16</ele>
        <time>2018-06-30T20:16:59.000Z</time>
      </trkpt>
      <trkpt lat="45.88289" lon="-0.89118">
        <ele>16</ele>
        <time>2018-06-30T20:17:00.000Z</time>
      </trkpt>
      <trkpt lat="45.8829" lon="-0.8912">
        <ele>16</ele>
        <time>2018-06-30T20:17:01.000Z</time>
      </trkpt>
      <trkpt lat="45.88291" lon="-0.89121">
        <ele>16</ele>
        <time>2018-06-30T20:17:02.000Z</time>
      </trkpt>
      <trkpt lat="45.88291" lon="-0.89123">
        <ele>16</ele>
        <time>2018-06-30T20:17:03.000Z</time>
      </trkpt>
      <trkpt lat="45.88292" lon="-0.89124">
        <ele>17</ele>
        <time>2018-06-30T20:17:04.000Z</time>
      </trkpt>
      <trkpt lat="45.88292" lon="-0.89126">
        <ele>16</ele>
        <time>2018-06-30T20:17:05.000Z</time>
      </trkpt>
      <trkpt lat="45.88292" lon="-0.89127">
        <ele>17</ele>
        <time>2018-06-30T20:17:06.000Z</time>
      </trkpt>
      <trkpt lat="45.88293" lon="-0.89129">
        <ele>17</ele>
        <time>2018-06-30T20:17:07.000Z</time>
      </trkpt>
      <trkpt lat="45.88293" lon="-0.89131">
        <ele>17</ele>
        <time>2018-06-30T20:17:08.000Z</time>
      </trkpt>
      <trkpt lat="45.88293" lon="-0.89132">
        <ele>17</ele>
        <time>2018-06-30T20:17:09.000Z</time>
      </trkpt>
      <trkpt lat="45.88293" lon="-0.89134">
        <ele>17</ele>
        <time>2018-06-30T20:17:10.000Z</time>
      </trkpt>
      <trkpt lat="45.88293" lon="-0.89136">
        <ele>18</ele>
        <time>2018-06-30T20:17:11.000Z</time>
      </trkpt>
      <trkpt lat="45.88294" lon="-0.89138">
        <ele>18</ele>
        <time>2018-06-30T20:17:12.000Z</time>
      </trkpt>
      <trkpt lat="45.88294" lon="-0.89139">
        <ele>18</ele>
        <time>2018-06-30T20:17:13.000Z</time>
      </trkpt>
      <trkpt lat="45.88294" lon="-0.89141">
        <ele>17</ele>
        <time>2018-06-30T20:17:14.000Z</time>
      </trkpt>
      <trkpt lat="45.88295" lon="-0.89142">
        <ele>17</ele>
        <time>2018-06-30T20:17:15.000Z</time>
      </trkpt>
      <trkpt lat="45.88295" lon="-0.89144">
        <ele>17</ele>
        <time>2018-06-30T20:17:16.000Z</time>
      </trkpt>
      <trkpt lat="45.88296" lon="-0.89145">
        <ele>17</ele>
        <time>2018-06-30T20:17:17.000Z</time>
      </trkpt>
      <trkpt lat="45.88296" lon="-0.89147">
        <ele>17</ele>
        <time>2018-06-30T20:17:18.000Z</time>
      </trkpt>
      <trkpt lat="45.88296" lon="-0.89149">
        <ele>17</ele>
        <time>2018-06-30T20:17:19.000Z</time>
      </trkpt>
      <trkpt lat="45.88297" lon="-0.8915">
        <ele>17</ele>
        <time>2018-06-30T20:17:20.000Z</time>
      </trkpt>
      <trkpt lat="45.88297" lon="-0.89152">
        <ele>17</ele>
        <time>2018-06-30T20:17:21.000Z</time>
      </trkpt>
      <trkpt lat="45.88297" lon="-0.89153">
        <ele>17</ele>
        <time>2018-06-30T20:17:22.000Z</time>
      </trkpt>
      <trkpt lat="45.88298" lon="-0.89155">
        <ele>17</ele>
        <time>2018-06-30T20:17:23.000Z</time>
      </trkpt>
      <trkpt lat="45.88298" lon="-0.89156">
        <ele>17</ele>
        <time>2018-06-30T20:17:24.000Z</time>
      </trkpt>
      <trkpt lat="45.88298" lon="-0.89158">
        <ele>17</ele>
        <time>2018-06-30T20:17:25.000Z</time>
      </trkpt>
      <trkpt lat="45.88299" lon="-0.8916">
        <ele>17</ele>
        <time>2018-06-30T20:17:26.000Z</time>
      </trkpt>
      <trkpt lat="45.88299" lon="-0.89162">
        <ele>17</ele>
        <time>2018-06-30T20:17:27.000Z</time>
      </trkpt>
      <trkpt lat="45.883" lon="-0.89164">
        <ele>17</ele>
        <time>2018-06-30T20:17:28.000Z</time>
      </trkpt>
      <trkpt lat="45.883" lon="-0.89165">
        <ele>17</ele>
        <time>2018-06-30T20:17:29.000Z</time>
      </trkpt>
      <trkpt lat="45.883" lon="-0.89167">
        <ele>17</ele>
        <time>2018-06-30T20:17:30.000Z</time>
      </trkpt>
      <trkpt lat="45.883" lon="-0.89169">
        <ele>17</ele>
        <time>2018-06-30T20:17:31.000Z</time>
      </trkpt>
      <trkpt lat="45.88301" lon="-0.89171">
        <ele>16</ele>
        <time>2018-06-30T20:17:32.000Z</time>
      </trkpt>
      <trkpt lat="45.88301" lon="-0.89173">
        <ele>16</ele>
        <time>2018-06-30T20:17:33.000Z</time>
      </trkpt>
      <trkpt lat="45.88301" lon="-0.89174">
        <ele>16</ele>
        <time>2018-06-30T20:17:34.000Z</time>
      </trkpt>
      <trkpt lat="45.88302" lon="-0.89176">
        <ele>16</ele>
        <time>2018-06-30T20:17:35.000Z</time>
      </trkpt>
      <trkpt lat="45.88302" lon="-0.89178">
        <ele>16</ele>
        <time>2018-06-30T20:17:36.000Z</time>
      </trkpt>
      <trkpt lat="45.88303" lon="-0.89179">
        <ele>16</ele>
        <time>2018-06-30T20:17:37.000Z</time>
      </trkpt>
      <trkpt lat="45.88303" lon="-0.89181">
        <ele>16</ele>
        <time>2018-06-30T20:17:38.000Z</time>
      </trkpt>
      <trkpt lat="45.88303" lon="-0.89183">
        <ele>16</ele>
        <time>2018-06-30T20:17:39.000Z</time>
      </trkpt>
      <trkpt lat="45.88303" lon="-0.89184">
        <ele>16</ele>
        <time>2018-06-30T20:17:40.000Z</time>
      </trkpt>
      <trkpt lat="45.88304" lon="-0.89186">
        <ele>16</ele>
        <time>2018-06-30T20:17:41.000Z</time>
      </trkpt>
      <trkpt lat="45.88304" lon="-0.89188">
        <ele>16</ele>
        <time>2018-06-30T20:17:42.000Z</time>
      </trkpt>
      <trkpt lat="45.88304" lon="-0.89189">
        <ele>16</ele>
        <time>2018-06-30T20:17:43.000Z</time>
      </trkpt>
      <trkpt lat="45.88305" lon="-0.89191">
        <ele>16</ele>
        <time>2018-06-30T20:17:44.000Z</time>
      </trkpt>
      <trkpt lat="45.88305" lon="-0.89193">
        <ele>16</ele>
        <time>2018-06-30T20:17:45.000Z</time>
      </trkpt>
      <trkpt lat="45.88305" lon="-0.89194">
        <ele>16</ele>
        <time>2018-06-30T20:17:46.000Z</time>
      </trkpt>
      <trkpt lat="45.88306" lon="-0.89196">
        <ele>17</ele>
        <time>2018-06-30T20:17:47.000Z</time>
      </trkpt>
      <trkpt lat="45.88306" lon="-0.89198">
        <ele>16</ele>
        <time>2018-06-30T20:17:48.000Z</time>
      </trkpt>
      <trkpt lat="45.88307" lon="-0.892">
        <ele>16</ele>
        <time>2018-06-30T20:17:49.000Z</time>
      </trkpt>
      <trkpt lat="45.88307" lon="-0.89201">
        <ele>16</ele>
        <time>2018-06-30T20:17:50.000Z</time>
      </trkpt>
      <trkpt lat="45.88307" lon="-0.89203">
        <ele>16</ele>
        <time>2018-06-30T20:17:51.000Z</time>
      </trkpt>
      <trkpt lat="45.88308" lon="-0.89204">
        <ele>16</ele>
        <time>2018-06-30T20:17:52.000Z</time>
      </trkpt>
      <trkpt lat="45.88308" lon="-0.89206">
        <ele>16</ele>
        <time>2018-06-30T20:17:53.000Z</time>
      </trkpt>
      <trkpt lat="45.88309" lon="-0.89208">
        <ele>16</ele>
        <time>2018-06-30T20:17:54.000Z</time>
      </trkpt>
      <trkpt lat="45.88309" lon="-0.89209">
        <ele>16</ele>
        <time>2018-06-30T20:17:55.000Z</time>
      </trkpt>
      <trkpt lat="45.8831" lon="-0.89211">
        <ele>16</ele>
        <time>2018-06-30T20:17:56.000Z</time>
      </trkpt>
      <trkpt lat="45.8831" lon="-0.89213">
        <ele>17</ele>
        <time>2018-06-30T20:17:57.000Z</time>
      </trkpt>
      <trkpt lat="45.8831" lon="-0.89214">
        <ele>17</ele>
        <time>2018-06-30T20:17:58.000Z</time>
      </trkpt>
      <trkpt lat="45.88311" lon="-0.89216">
        <ele>16</ele>
        <time>2018-06-30T20:17:59.000Z</time>
      </trkpt>
      <trkpt lat="45.88311" lon="-0.89217">
        <ele>16</ele>
        <time>2018-06-30T20:18:00.000Z</time>
      </trkpt>
      <trkpt lat="45.88312" lon="-0.89219">
        <ele>16</ele>
        <time>2018-06-30T20:18:01.000Z</time>
      </trkpt>
      <trkpt lat="45.88312" lon="-0.89221">
        <ele>16</ele>
        <time>2018-06-30T20:18:02.000Z</time>
      </trkpt>
      <trkpt lat="45.88312" lon="-0.89222">
        <ele>16</ele>
        <time>2018-06-30T20:18:03.000Z</time>
      </trkpt>
      <trkpt lat="45.88313" lon="-0.89224">
        <ele>16</ele>
        <time>2018-06-30T20:18:04.000Z</time>
      </trkpt>
      <trkpt lat="45.88313" lon="-0.89226">
        <ele>16</ele>
        <time>2018-06-30T20:18:05.000Z</time>
      </trkpt>
      <trkpt lat="45.88313" lon="-0.89228">
        <ele>16</ele>
        <time>2018-06-30T20:18:06.000Z</time>
      </trkpt>
      <trkpt lat="45.88314" lon="-0.89229">
        <ele>16</ele>
        <time>2018-06-30T20:18:07.000Z</time>
      </trkpt>
      <trkpt lat="45.88314" lon="-0.89231">
        <ele>16</ele>
        <time>2018-06-30T20:18:08.000Z</time>
      </trkpt>
      <trkpt lat="45.88314" lon="-0.89233">
        <ele>16</ele>
        <time>2018-06-30T20:18:09.000Z</time>
      </trkpt>
      <trkpt lat="45.88315" lon="-0.89235">
        <ele>16</ele>
        <time>2018-06-30T20:18:10.000Z</time>
      </trkpt>
      <trkpt lat="45.88315" lon="-0.89237">
        <ele>16</ele>
        <time>2018-06-30T20:18:11.000Z</time>
      </trkpt>
      <trkpt lat="45.88315" lon="-0.89238">
        <ele>16</ele>
        <time>2018-06-30T20:18:12.000Z</time>
      </trkpt>
      <trkpt lat="45.88316" lon="-0.8924">
        <ele>16</ele>
        <time>2018-06-30T20:18:13.000Z</time>
      </trkpt>
      <trkpt lat="45.88316" lon="-0.89242">
        <ele>16</ele>
        <time>2018-06-30T20:18:14.000Z</time>
      </trkpt>
      <trkpt lat="45.88316" lon="-0.89243">
        <ele>16</ele>
        <time>2018-06-30T20:18:15.000Z</time>
      </trkpt>
      <trkpt lat="45.88317" lon="-0.89245">
        <ele>16</ele>
        <time>2018-06-30T20:18:16.000Z</time>
      </trkpt>
      <trkpt lat="45.88317" lon="-0.89247">
        <ele>17</ele>
        <time>2018-06-30T20:18:17.000Z</time>
      </trkpt>
      <trkpt lat="45.88317" lon="-0.89249">
        <ele>17</ele>
        <time>2018-06-30T20:18:18.000Z</time>
      </trkpt>
      <trkpt lat="45.88318" lon="-0.8925">
        <ele>16</ele>
        <time>2018-06-30T20:18:19.000Z</time>
      </trkpt>
      <trkpt lat="45.88318" lon="-0.89252">
        <ele>16</ele>
        <time>2018-06-30T20:18:20.000Z</time>
      </trkpt>
      <trkpt lat="45.88319" lon="-0.89254">
        <ele>16</ele>
        <time>2018-06-30T20:18:21.000Z</time>
      </trkpt>
      <trkpt lat="45.88319" lon="-0.89256">
        <ele>16</ele>
        <time>2018-06-30T20:18:22.000Z</time>
      </trkpt>
      <trkpt lat="45.88319" lon="-0.89257">
        <ele>15</ele>
        <time>2018-06-30T20:18:23.000Z</time>
      </trkpt>
      <trkpt lat="45.8832" lon="-0.89259">
        <ele>16</ele>
        <time>2018-06-30T20:18:24.000Z</time>
      </trkpt>
      <trkpt lat="45.8832" lon="-0.89261">
        <ele>16</ele>
        <time>2018-06-30T20:18:25.000Z</time>
      </trkpt>
      <trkpt lat="45.8832" lon="-0.89263">
        <ele>16</ele>
        <time>2018-06-30T20:18:26.000Z</time>
      </trkpt>
      <trkpt lat="45.88321" lon="-0.89264">
        <ele>16</ele>
        <time>2018-06-30T20:18:27.000Z</time>
      </trkpt>
      <trkpt lat="45.88321" lon="-0.89266">
        <ele>16</ele>
        <time>2018-06-30T20:18:28.000Z</time>
      </trkpt>
      <trkpt lat="45.88321" lon="-0.89267">
        <ele>16</ele>
        <time>2018-06-30T20:18:29.000Z</time>
      </trkpt>
      <trkpt lat="45.88322" lon="-0.89269">
        <ele>16</ele>
        <time>2018-06-30T20:18:30.000Z</time>
      </trkpt>
      <trkpt lat="45.88322" lon="-0.8927">
        <ele>16</ele>
        <time>2018-06-30T20:18:31.000Z</time>
      </trkpt>
      <trkpt lat="45.88323" lon="-0.89272">
        <ele>16</ele>
        <time>2018-06-30T20:18:32.000Z</time>
      </trkpt>
      <trkpt lat="45.88323" lon="-0.89274">
        <ele>16</ele>
        <time>2018-06-30T20:18:33.000Z</time>
      </trkpt>
      <trkpt lat="45.88323" lon="-0.89276">
        <ele>16</ele>
        <time>2018-06-30T20:18:34.000Z</time>
      </trkpt>
      <trkpt lat="45.88324" lon="-0.89278">
        <ele>17</ele>
        <time>2018-06-30T20:18:35.000Z</time>
      </trkpt>
      <trkpt lat="45.88324" lon="-0.89279">
        <ele>17</ele>
        <time>2018-06-30T20:18:36.000Z</time>
      </trkpt>
      <trkpt lat="45.88324" lon="-0.89281">
        <ele>17</ele>
        <time>2018-06-30T20:18:37.000Z</time>
      </trkpt>
      <trkpt lat="45.88324" lon="-0.89283">
        <ele>17</ele>
        <time>2018-06-30T20:18:38.000Z</time>
      </trkpt>
      <trkpt lat="45.88325" lon="-0.89285">
        <ele>17</ele>
        <time>2018-06-30T20:18:39.000Z</time>
      </trkpt>
      <trkpt lat="45.88325" lon="-0.89286">
        <ele>17</ele>
        <time>2018-06-30T20:18:40.000Z</time>
      </trkpt>
      <trkpt lat="45.88325" lon="-0.89288">
        <ele>17</ele>
        <time>2018-06-30T20:18:41.000Z</time>
      </trkpt>
      <trkpt lat="45.88326" lon="-0.89289">
        <ele>17</ele>
        <time>2018-06-30T20:18:42.000Z</time>
      </trkpt>
      <trkpt lat="45.88326" lon="-0.89291">
        <ele>17</ele>
        <time>2018-06-30T20:18:43.000Z</time>
      </trkpt>
      <trkpt lat="45.88326" lon="-0.89293">
        <ele>17</ele>
        <time>2018-06-30T20:18:44.000Z</time>
      </trkpt>
      <trkpt lat="45.88327" lon="-0.89294">
        <ele>17</ele>
        <time>2018-06-30T20:18:45.000Z</time>
      </trkpt>
      <trkpt lat="45.88327" lon="-0.89296">
        <ele>17</ele>
        <time>2018-06-30T20:18:46.000Z</time>
      </trkpt>
      <trkpt lat="45.88327" lon="-0.89297">
        <ele>17</ele>
        <time>2018-06-30T20:18:47.000Z</time>
      </trkpt>
      <trkpt lat="45.88327" lon="-0.89299">
        <ele>17</ele>
        <time>2018-06-30T20:18:48.000Z</time>
      </trkpt>
      <trkpt lat="45.88328" lon="-0.89301">
        <ele>17</ele>
        <time>2018-06-30T20:18:49.000Z</time>
      </trkpt>
      <trkpt lat="45.88328" lon="-0.89302">
        <ele>17</ele>
        <time>2018-06-30T20:18:50.000Z</time>
      </trkpt>
      <trkpt lat="45.88328" lon="-0.89304">
        <ele>17</ele>
        <time>2018-06-30T20:18:51.000Z</time>
      </trkpt>
      <trkpt lat="45.88328" lon="-0.89306">
        <ele>17</ele>
        <time>2018-06-30T20:18:52.000Z</time>
      </trkpt>
      <trkpt lat="45.88329" lon="-0.89307">
        <ele>17</ele>
        <time>2018-06-30T20:18:53.000Z</time>
      </trkpt>
      <trkpt lat="45.88329" lon="-0.89309">
        <ele>17</ele>
        <time>2018-06-30T20:18:54.000Z</time>
      </trkpt>
      <trkpt lat="45.88329" lon="-0.89311">
        <ele>17</ele>
        <time>2018-06-30T20:18:55.000Z</time>
      </trkpt>
      <trkpt lat="45.8833" lon="-0.89312">
        <ele>17</ele>
        <time>2018-06-30T20:18:56.000Z</time>
      </trkpt>
      <trkpt lat="45.8833" lon="-0.89314">
        <ele>18</ele>
        <time>2018-06-30T20:18:57.000Z</time>
      </trkpt>
      <trkpt lat="45.88331" lon="-0.89316">
        <ele>18</ele>
        <time>2018-06-30T20:18:58.000Z</time>
      </trkpt>
      <trkpt lat="45.88331" lon="-0.89317">
        <ele>18</ele>
        <time>2018-06-30T20:18:59.000Z</time>
      </trkpt>
      <trkpt lat="45.88331" lon="-0.89319">
        <ele>16</ele>
        <time>2018-06-30T20:19:00.000Z</time>
      </trkpt>
      <trkpt lat="45.88332" lon="-0.8932">
        <ele>16</ele>
        <time>2018-06-30T20:19:01.000Z</time>
      </trkpt>
      <trkpt lat="45.88332" lon="-0.89322">
        <ele>16</ele>
        <time>2018-06-30T20:19:02.000Z</time>
      </trkpt>
      <trkpt lat="45.88332" lon="-0.89324">
        <ele>16</ele>
        <time>2018-06-30T20:19:03.000Z</time>
      </trkpt>
      <trkpt lat="45.88332" lon="-0.89325">
        <ele>16</ele>
        <time>2018-06-30T20:19:04.000Z</time>
      </trkpt>
      <trkpt lat="45.88333" lon="-0.89327">
        <ele>16</ele>
        <time>2018-06-30T20:19:05.000Z</time>
      </trkpt>
      <trkpt lat="45.88333" lon="-0.89328">
        <ele>16</ele>
        <time>2018-06-30T20:19:06.000Z</time>
      </trkpt>
      <trkpt lat="45.88334" lon="-0.8933">
        <ele>15</ele>
        <time>2018-06-30T20:19:07.000Z</time>
      </trkpt>
      <trkpt lat="45.88334" lon="-0.89331">
        <ele>15</ele>
        <time>2018-06-30T20:19:08.000Z</time>
      </trkpt>
      <trkpt lat="45.88334" lon="-0.89333">
        <ele>16</ele>
        <time>2018-06-30T20:19:09.000Z</time>
      </trkpt>
      <trkpt lat="45.88335" lon="-0.89334">
        <ele>15</ele>
        <time>2018-06-30T20:19:10.000Z</time>
      </trkpt>
      <trkpt lat="45.88335" lon="-0.89336">
        <ele>15</ele>
        <time>2018-06-30T20:19:11.000Z</time>
      </trkpt>
      <trkpt lat="45.88335" lon="-0.89337">
        <ele>15</ele>
        <time>2018-06-30T20:19:12.000Z</time>
      </trkpt>
      <trkpt lat="45.88336" lon="-0.89339">
        <ele>15</ele>
        <time>2018-06-30T20:19:13.000Z</time>
      </trkpt>
      <trkpt lat="45.88336" lon="-0.8934">
        <ele>15</ele>
        <time>2018-06-30T20:19:14.000Z</time>
      </trkpt>
      <trkpt lat="45.88337" lon="-0.89342">
        <ele>15</ele>
        <time>2018-06-30T20:19:15.000Z</time>
      </trkpt>
      <trkpt lat="45.88337" lon="-0.89344">
        <ele>14</ele>
        <time>2018-06-30T20:19:16.000Z</time>
      </trkpt>
      <trkpt lat="45.88338" lon="-0.89345">
        <ele>14</ele>
        <time>2018-06-30T20:19:17.000Z</time>
      </trkpt>
      <trkpt lat="45.88339" lon="-0.89347">
        <ele>14</ele>
        <time>2018-06-30T20:19:18.000Z</time>
      </trkpt>
      <trkpt lat="45.88339" lon="-0.89349">
        <ele>14</ele>
        <time>2018-06-30T20:19:19.000Z</time>
      </trkpt>
      <trkpt lat="45.8834" lon="-0.8935">
        <ele>14</ele>
        <time>2018-06-30T20:19:20.000Z</time>
      </trkpt>
      <trkpt lat="45.8834" lon="-0.89352">
        <ele>14</ele>
        <time>2018-06-30T20:19:21.000Z</time>
      </trkpt>
      <trkpt lat="45.8834" lon="-0.89353">
        <ele>14</ele>
        <time>2018-06-30T20:19:22.000Z</time>
      </trkpt>
      <trkpt lat="45.88341" lon="-0.89355">
        <ele>14</ele>
        <time>2018-06-30T20:19:23.000Z</time>
      </trkpt>
      <trkpt lat="45.88341" lon="-0.89357">
        <ele>14</ele>
        <time>2018-06-30T20:19:24.000Z</time>
      </trkpt>
      <trkpt lat="45.88341" lon="-0.89358">
        <ele>14</ele>
        <time>2018-06-30T20:19:25.000Z</time>
      </trkpt>
      <trkpt lat="45.88342" lon="-0.8936">
        <ele>14</ele>
        <time>2018-06-30T20:19:26.000Z</time>
      </trkpt>
      <trkpt lat="45.88342" lon="-0.89362">
        <ele>15</ele>
        <time>2018-06-30T20:19:27.000Z</time>
      </trkpt>
      <trkpt lat="45.88342" lon="-0.89363">
        <ele>15</ele>
        <time>2018-06-30T20:19:28.000Z</time>
      </trkpt>
      <trkpt lat="45.88343" lon="-0.89365">
        <ele>15</ele>
        <time>2018-06-30T20:19:29.000Z</time>
      </trkpt>
      <trkpt lat="45.88343" lon="-0.89366">
        <ele>15</ele>
        <time>2018-06-30T20:19:30.000Z</time>
      </trkpt>
      <trkpt lat="45.88344" lon="-0.89368">
        <ele>15</ele>
        <time>2018-06-30T20:19:31.000Z</time>
      </trkpt>
      <trkpt lat="45.88344" lon="-0.89369">
        <ele>15</ele>
        <time>2018-06-30T20:19:32.000Z</time>
      </trkpt>
      <trkpt lat="45.88344" lon="-0.89371">
        <ele>15</ele>
        <time>2018-06-30T20:19:33.000Z</time>
      </trkpt>
      <trkpt lat="45.88345" lon="-0.89373">
        <ele>15</ele>
        <time>2018-06-30T20:19:34.000Z</time>
      </trkpt>
      <trkpt lat="45.88345" lon="-0.89374">
        <ele>15</ele>
        <time>2018-06-30T20:19:35.000Z</time>
      </trkpt>
      <trkpt lat="45.88345" lon="-0.89376">
        <ele>15</ele>
        <time>2018-06-30T20:19:36.000Z</time>
      </trkpt>
      <trkpt lat="45.88346" lon="-0.89378">
        <ele>15</ele>
        <time>2018-06-30T20:19:37.000Z</time>
      </trkpt>
      <trkpt lat="45.88346" lon="-0.8938">
        <ele>15</ele>
        <time>2018-06-30T20:19:38.000Z</time>
      </trkpt>
      <trkpt lat="45.88346" lon="-0.89381">
        <ele>16</ele>
        <time>2018-06-30T20:19:39.000Z</time>
      </trkpt>
      <trkpt lat="45.88346" lon="-0.89383">
        <ele>16</ele>
        <time>2018-06-30T20:19:40.000Z</time>
      </trkpt>
      <trkpt lat="45.88347" lon="-0.89385">
        <ele>16</ele>
        <time>2018-06-30T20:19:41.000Z</time>
      </trkpt>
      <trkpt lat="45.88347" lon="-0.89386">
        <ele>16</ele>
        <time>2018-06-30T20:19:42.000Z</time>
      </trkpt>
      <trkpt lat="45.88348" lon="-0.89388">
        <ele>16</ele>
        <time>2018-06-30T20:19:43.000Z</time>
      </trkpt>
      <trkpt lat="45.88348" lon="-0.8939">
        <ele>16</ele>
        <time>2018-06-30T20:19:44.000Z</time>
      </trkpt>
      <trkpt lat="45.88349" lon="-0.89391">
        <ele>16</ele>
        <time>2018-06-30T20:19:45.000Z</time>
      </trkpt>
      <trkpt lat="45.88349" lon="-0.89393">
        <ele>16</ele>
        <time>2018-06-30T20:19:46.000Z</time>
      </trkpt>
      <trkpt lat="45.88349" lon="-0.89395">
        <ele>16</ele>
        <time>2018-06-30T20:19:47.000Z</time>
      </trkpt>
      <trkpt lat="45.8835" lon="-0.89396">
        <ele>16</ele>
        <time>2018-06-30T20:19:48.000Z</time>
      </trkpt>
      <trkpt lat="45.8835" lon="-0.89398">
        <ele>16</ele>
        <time>2018-06-30T20:19:49.000Z</time>
      </trkpt>
      <trkpt lat="45.8835" lon="-0.89399">
        <ele>16</ele>
        <time>2018-06-30T20:19:50.000Z</time>
      </trkpt>
      <trkpt lat="45.88351" lon="-0.89401">
        <ele>16</ele>
        <time>2018-06-30T20:19:51.000Z</time>
      </trkpt>
      <trkpt lat="45.88351" lon="-0.89403">
        <ele>16</ele>
        <time>2018-06-30T20:19:52.000Z</time>
      </trkpt>
      <trkpt lat="45.88351" lon="-0.89405">
        <ele>16</ele>
        <time>2018-06-30T20:19:53.000Z</time>
      </trkpt>
      <trkpt lat="45.88351" lon="-0.89406">
        <ele>16</ele>
        <time>2018-06-30T20:19:54.000Z</time>
      </trkpt>
      <trkpt lat="45.88352" lon="-0.89408">
        <ele>16</ele>
        <time>2018-06-30T20:19:55.000Z</time>
      </trkpt>
      <trkpt lat="45.88352" lon="-0.8941">
        <ele>16</ele>
        <time>2018-06-30T20:19:56.000Z</time>
      </trkpt>
      <trkpt lat="45.88352" lon="-0.89411">
        <ele>15</ele>
        <time>2018-06-30T20:19:57.000Z</time>
      </trkpt>
      <trkpt lat="45.88352" lon="-0.89413">
        <ele>16</ele>
        <time>2018-06-30T20:19:58.000Z</time>
      </trkpt>
      <trkpt lat="45.88353" lon="-0.89415">
        <ele>16</ele>
        <time>2018-06-30T20:19:59.000Z</time>
      </trkpt>
      <trkpt lat="45.88353" lon="-0.89417">
        <ele>16</ele>
        <time>2018-06-30T20:20:00.000Z</time>
      </trkpt>
      <trkpt lat="45.88354" lon="-0.89419">
        <ele>16</ele>
        <time>2018-06-30T20:20:01.000Z</time>
      </trkpt>
      <trkpt lat="45.88354" lon="-0.89421">
        <ele>16</ele>
        <time>2018-06-30T20:20:02.000Z</time>
      </trkpt>
      <trkpt lat="45.88354" lon="-0.89422">
        <ele>16</ele>
        <time>2018-06-30T20:20:03.000Z</time>
      </trkpt>
      <trkpt lat="45.88355" lon="-0.89424">
        <ele>16</ele>
        <time>2018-06-30T20:20:04.000Z</time>
      </trkpt>
      <trkpt lat="45.88355" lon="-0.89425">
        <ele>16</ele>
        <time>2018-06-30T20:20:05.000Z</time>
      </trkpt>
      <trkpt lat="45.88356" lon="-0.89427">
        <ele>16</ele>
        <time>2018-06-30T20:20:06.000Z</time>
      </trkpt>
      <trkpt lat="45.88356" lon="-0.89429">
        <ele>16</ele>
        <time>2018-06-30T20:20:07.000Z</time>
      </trkpt>
      <trkpt lat="45.88356" lon="-0.8943">
        <ele>16</ele>
        <time>2018-06-30T20:20:08.000Z</time>
      </trkpt>
      <trkpt lat="45.88357" lon="-0.89432">
        <ele>16</ele>
        <time>2018-06-30T20:20:09.000Z</time>
      </trkpt>
      <trkpt lat="45.88357" lon="-0.89434">
        <ele>16</ele>
        <time>2018-06-30T20:20:10.000Z</time>
      </trkpt>
      <trkpt lat="45.88357" lon="-0.89436">
        <ele>16</ele>
        <time>2018-06-30T20:20:11.000Z</time>
      </trkpt>
      <trkpt lat="45.88357" lon="-0.89437">
        <ele>16</ele>
        <time>2018-06-30T20:20:12.000Z</time>
      </trkpt>
      <trkpt lat="45.88358" lon="-0.89439">
        <ele>16</ele>
        <time>2018-06-30T20:20:13.000Z</time>
      </trkpt>
      <trkpt lat="45.88358" lon="-0.89441">
        <ele>17</ele>
        <time>2018-06-30T20:20:14.000Z</time>
      </trkpt>
      <trkpt lat="45.88358" lon="-0.89442">
        <ele>17</ele>
        <time>2018-06-30T20:20:15.000Z</time>
      </trkpt>
      <trkpt lat="45.88359" lon="-0.89444">
        <ele>17</ele>
        <time>2018-06-30T20:20:16.000Z</time>
      </trkpt>
      <trkpt lat="45.88359" lon="-0.89446">
        <ele>17</ele>
        <time>2018-06-30T20:20:17.000Z</time>
      </trkpt>
      <trkpt lat="45.88359" lon="-0.89447">
        <ele>17</ele>
        <time>2018-06-30T20:20:18.000Z</time>
      </trkpt>
      <trkpt lat="45.8836" lon="-0.89449">
        <ele>17</ele>
        <time>2018-06-30T20:20:19.000Z</time>
      </trkpt>
      <trkpt lat="45.8836" lon="-0.89451">
        <ele>16</ele>
        <time>2018-06-30T20:20:20.000Z</time>
      </trkpt>
      <trkpt lat="45.8836" lon="-0.89452">
        <ele>16</ele>
        <time>2018-06-30T20:20:21.000Z</time>
      </trkpt>
      <trkpt lat="45.88361" lon="-0.89454">
        <ele>17</ele>
        <time>2018-06-30T20:20:22.000Z</time>
      </trkpt>
      <trkpt lat="45.88361" lon="-0.89455">
        <ele>16</ele>
        <time>2018-06-30T20:20:23.000Z</time>
      </trkpt>
      <trkpt lat="45.88361" lon="-0.89457">
        <ele>16</ele>
        <time>2018-06-30T20:20:24.000Z</time>
      </trkpt>
      <trkpt lat="45.88361" lon="-0.89459">
        <ele>16</ele>
        <time>2018-06-30T20:20:25.000Z</time>
      </trkpt>
      <trkpt lat="45.88362" lon="-0.8946">
        <ele>16</ele>
        <time>2018-06-30T20:20:26.000Z</time>
      </trkpt>
      <trkpt lat="45.88362" lon="-0.89462">
        <ele>16</ele>
        <time>2018-06-30T20:20:27.000Z</time>
      </trkpt>
      <trkpt lat="45.88362" lon="-0.89464">
        <ele>16</ele>
        <time>2018-06-30T20:20:28.000Z</time>
      </trkpt>
      <trkpt lat="45.88362" lon="-0.89465">
        <ele>16</ele>
        <time>2018-06-30T20:20:29.000Z</time>
      </trkpt>
      <trkpt lat="45.88362" lon="-0.89467">
        <ele>15</ele>
        <time>2018-06-30T20:20:30.000Z</time>
      </trkpt>
      <trkpt lat="45.88362" lon="-0.89469">
        <ele>15</ele>
        <time>2018-06-30T20:20:31.000Z</time>
      </trkpt>
      <trkpt lat="45.88362" lon="-0.8947">
        <ele>15</ele>
        <time>2018-06-30T20:20:32.000Z</time>
      </trkpt>
      <trkpt lat="45.88361" lon="-0.89472">
        <ele>15</ele>
        <time>2018-06-30T20:20:33.000Z</time>
      </trkpt>
      <trkpt lat="45.88361" lon="-0.89474">
        <ele>15</ele>
        <time>2018-06-30T20:20:34.000Z</time>
      </trkpt>
      <trkpt lat="45.8836" lon="-0.89475">
        <ele>15</ele>
        <time>2018-06-30T20:20:35.000Z</time>
      </trkpt>
      <trkpt lat="45.88359" lon="-0.89476">
        <ele>15</ele>
        <time>2018-06-30T20:20:36.000Z</time>
      </trkpt>
      <trkpt lat="45.88358" lon="-0.89478">
        <ele>15</ele>
        <time>2018-06-30T20:20:37.000Z</time>
      </trkpt>
      <trkpt lat="45.88357" lon="-0.89479">
        <ele>15</ele>
        <time>2018-06-30T20:20:38.000Z</time>
      </trkpt>
      <trkpt lat="45.88356" lon="-0.8948">
        <ele>15</ele>
        <time>2018-06-30T20:20:39.000Z</time>
      </trkpt>
      <trkpt lat="45.88355" lon="-0.89481">
        <ele>15</ele>
        <time>2018-06-30T20:20:40.000Z</time>
      </trkpt>
      <trkpt lat="45.88354" lon="-0.89481">
        <ele>15</ele>
        <time>2018-06-30T20:20:41.000Z</time>
      </trkpt>
      <trkpt lat="45.88353" lon="-0.89482">
        <ele>15</ele>
        <time>2018-06-30T20:20:42.000Z</time>
      </trkpt>
      <trkpt lat="45.88352" lon="-0.89483">
        <ele>15</ele>
        <time>2018-06-30T20:20:43.000Z</time>
      </trkpt>
      <trkpt lat="45.88351" lon="-0.89483">
        <ele>15</ele>
        <time>2018-06-30T20:20:44.000Z</time>
      </trkpt>
      <trkpt lat="45.8835" lon="-0.89484">
        <ele>15</ele>
        <time>2018-06-30T20:20:45.000Z</time>
      </trkpt>
      <trkpt lat="45.88348" lon="-0.89484">
        <ele>15</ele>
        <time>2018-06-30T20:20:46.000Z</time>
      </trkpt>
      <trkpt lat="45.88347" lon="-0.89484">
        <ele>15</ele>
        <time>2018-06-30T20:20:47.000Z</time>
      </trkpt>
      <trkpt lat="45.88346" lon="-0.89484">
        <ele>15</ele>
        <time>2018-06-30T20:20:48.000Z</time>
      </trkpt>
      <trkpt lat="45.88344" lon="-0.89484">
        <ele>15</ele>
        <time>2018-06-30T20:20:49.000Z</time>
      </trkpt>
      <trkpt lat="45.88343" lon="-0.89484">
        <ele>14</ele>
        <time>2018-06-30T20:20:50.000Z</time>
      </trkpt>
      <trkpt lat="45.88342" lon="-0.89484">
        <ele>15</ele>
        <time>2018-06-30T20:20:51.000Z</time>
      </trkpt>
      <trkpt lat="45.88341" lon="-0.89484">
        <ele>15</ele>
        <time>2018-06-30T20:20:52.000Z</time>
      </trkpt>
      <trkpt lat="45.8834" lon="-0.89485">
        <ele>14</ele>
        <time>2018-06-30T20:20:53.000Z</time>
      </trkpt>
      <trkpt lat="45.88338" lon="-0.89485">
        <ele>14</ele>
        <time>2018-06-30T20:20:54.000Z</time>
      </trkpt>
      <trkpt lat="45.88337" lon="-0.89485">
        <ele>14</ele>
        <time>2018-06-30T20:20:55.000Z</time>
      </trkpt>
      <trkpt lat="45.88336" lon="-0.89485">
        <ele>14</ele>
        <time>2018-06-30T20:20:56.000Z</time>
      </trkpt>
      <trkpt lat="45.88335" lon="-0.89485">
        <ele>14</ele>
        <time>2018-06-30T20:20:57.000Z</time>
      </trkpt>
      <trkpt lat="45.88334" lon="-0.89486">
        <ele>14</ele>
        <time>2018-06-30T20:20:58.000Z</time>
      </trkpt>
      <trkpt lat="45.88333" lon="-0.89486">
        <ele>14</ele>
        <time>2018-06-30T20:20:59.000Z</time>
      </trkpt>
      <trkpt lat="45.88332" lon="-0.89486">
        <ele>14</ele>
        <time>2018-06-30T20:21:00.000Z</time>
      </trkpt>
      <trkpt lat="45.88331" lon="-0.89487">
        <ele>14</ele>
        <time>2018-06-30T20:21:01.000Z</time>
      </trkpt>
      <trkpt lat="45.88329" lon="-0.89487">
        <ele>14</ele>
        <time>2018-06-30T20:21:02.000Z</time>
      </trkpt>
      <trkpt lat="45.88328" lon="-0.89487">
        <ele>15</ele>
        <time>2018-06-30T20:21:03.000Z</time>
      </trkpt>
      <trkpt lat="45.88327" lon="-0.89488">
        <ele>15</ele>
        <time>2018-06-30T20:21:04.000Z</time>
      </trkpt>
      <trkpt lat="45.88326" lon="-0.89488">
        <ele>15</ele>
        <time>2018-06-30T20:21:05.000Z</time>
      </trkpt>
      <trkpt lat="45.88325" lon="-0.89488">
        <ele>14</ele>
        <time>2018-06-30T20:21:06.000Z</time>
      </trkpt>
      <trkpt lat="45.88323" lon="-0.89488">
        <ele>14</ele>
        <time>2018-06-30T20:21:07.000Z</time>
      </trkpt>
      <trkpt lat="45.88322" lon="-0.89488">
        <ele>14</ele>
        <time>2018-06-30T20:21:08.000Z</time>
      </trkpt>
      <trkpt lat="45.88321" lon="-0.89488">
        <ele>14</ele>
        <time>2018-06-30T20:21:09.000Z</time>
      </trkpt>
      <trkpt lat="45.8832" lon="-0.89488">
        <ele>13</ele>
        <time>2018-06-30T20:21:10.000Z</time>
      </trkpt>
      <trkpt lat="45.88319" lon="-0.89489">
        <ele>13</ele>
        <time>2018-06-30T20:21:11.000Z</time>
      </trkpt>
      <trkpt lat="45.88317" lon="-0.89489">
        <ele>13</ele>
        <time>2018-06-30T20:21:12.000Z</time>
      </trkpt>
      <trkpt lat="45.88316" lon="-0.89489">
        <ele>13</ele>
        <time>2018-06-30T20:21:13.000Z</time>
      </trkpt>
      <trkpt lat="45.88315" lon="-0.89489">
        <ele>13</ele>
        <time>2018-06-30T20:21:14.000Z</time>
      </trkpt>
      <trkpt lat="45.88314" lon="-0.89489">
        <ele>13</ele>
        <time>2018-06-30T20:21:15.000Z</time>
      </trkpt>
      <trkpt lat="45.88313" lon="-0.8949">
        <ele>12</ele>
        <time>2018-06-30T20:21:16.000Z</time>
      </trkpt>
      <trkpt lat="45.88312" lon="-0.8949">
        <ele>13</ele>
        <time>2018-06-30T20:21:17.000Z</time>
      </trkpt>
      <trkpt lat="45.88311" lon="-0.8949">
        <ele>13</ele>
        <time>2018-06-30T20:21:18.000Z</time>
      </trkpt>
      <trkpt lat="45.8831" lon="-0.89491">
        <ele>13</ele>
        <time>2018-06-30T20:21:19.000Z</time>
      </trkpt>
      <trkpt lat="45.88309" lon="-0.89491">
        <ele>13</ele>
        <time>2018-06-30T20:21:20.000Z</time>
      </trkpt>
      <trkpt lat="45.88308" lon="-0.89491">
        <ele>13</ele>
        <time>2018-06-30T20:21:21.000Z</time>
      </trkpt>
      <trkpt lat="45.88306" lon="-0.89491">
        <ele>13</ele>
        <time>2018-06-30T20:21:22.000Z</time>
      </trkpt>
      <trkpt lat="45.88305" lon="-0.89491">
        <ele>13</ele>
        <time>2018-06-30T20:21:23.000Z</time>
      </trkpt>
      <trkpt lat="45.88304" lon="-0.89491">
        <ele>13</ele>
        <time>2018-06-30T20:21:24.000Z</time>
      </trkpt>
      <trkpt lat="45.88303" lon="-0.89491">
        <ele>12</ele>
        <time>2018-06-30T20:21:25.000Z</time>
      </trkpt>
      <trkpt lat="45.88302" lon="-0.89491">
        <ele>12</ele>
        <time>2018-06-30T20:21:26.000Z</time>
      </trkpt>
      <trkpt lat="45.883" lon="-0.89491">
        <ele>13</ele>
        <time>2018-06-30T20:21:27.000Z</time>
      </trkpt>
      <trkpt lat="45.88299" lon="-0.89491">
        <ele>13</ele>
        <time>2018-06-30T20:21:28.000Z</time>
      </trkpt>
      <trkpt lat="45.88298" lon="-0.89491">
        <ele>13</ele>
        <time>2018-06-30T20:21:29.000Z</time>
      </trkpt>
      <trkpt lat="45.88297" lon="-0.89491">
        <ele>13</ele>
        <time>2018-06-30T20:21:30.000Z</time>
      </trkpt>
      <trkpt lat="45.88296" lon="-0.89491">
        <ele>13</ele>
        <time>2018-06-30T20:21:31.000Z</time>
      </trkpt>
      <trkpt lat="45.88294" lon="-0.89491">
        <ele>13</ele>
        <time>2018-06-30T20:21:32.000Z</time>
      </trkpt>
      <trkpt lat="45.88293" lon="-0.89491">
        <ele>13</ele>
        <time>2018-06-30T20:21:33.000Z</time>
      </trkpt>
      <trkpt lat="45.88292" lon="-0.89491">
        <ele>13</ele>
        <time>2018-06-30T20:21:34.000Z</time>
      </trkpt>
      <trkpt lat="45.88291" lon="-0.89492">
        <ele>13</ele>
        <time>2018-06-30T20:21:35.000Z</time>
      </trkpt>
      <trkpt lat="45.8829" lon="-0.89492">
        <ele>13</ele>
        <time>2018-06-30T20:21:36.000Z</time>
      </trkpt>
      <trkpt lat="45.88288" lon="-0.89492">
        <ele>13</ele>
        <time>2018-06-30T20:21:37.000Z</time>
      </trkpt>
      <trkpt lat="45.88287" lon="-0.89492">
        <ele>13</ele>
        <time>2018-06-30T20:21:38.000Z</time>
      </trkpt>
      <trkpt lat="45.88286" lon="-0.89492">
        <ele>14</ele>
        <time>2018-06-30T20:21:39.000Z</time>
      </trkpt>
      <trkpt lat="45.88284" lon="-0.89492">
        <ele>13</ele>
        <time>2018-06-30T20:21:40.000Z</time>
      </trkpt>
      <trkpt lat="45.88283" lon="-0.89492">
        <ele>13</ele>
        <time>2018-06-30T20:21:41.000Z</time>
      </trkpt>
      <trkpt lat="45.88282" lon="-0.89492">
        <ele>13</ele>
        <time>2018-06-30T20:21:42.000Z</time>
      </trkpt>
      <trkpt lat="45.88281" lon="-0.89493">
        <ele>13</ele>
        <time>2018-06-30T20:21:43.000Z</time>
      </trkpt>
      <trkpt lat="45.88279" lon="-0.89493">
        <ele>12</ele>
        <time>2018-06-30T20:21:44.000Z</time>
      </trkpt>
      <trkpt lat="45.88278" lon="-0.89493">
        <ele>12</ele>
        <time>2018-06-30T20:21:45.000Z</time>
      </trkpt>
      <trkpt lat="45.88277" lon="-0.89494">
        <ele>13</ele>
        <time>2018-06-30T20:21:46.000Z</time>
      </trkpt>
      <trkpt lat="45.88276" lon="-0.89494">
        <ele>13</ele>
        <time>2018-06-30T20:21:47.000Z</time>
      </trkpt>
      <trkpt lat="45.88275" lon="-0.89494">
        <ele>13</ele>
        <time>2018-06-30T20:21:48.000Z</time>
      </trkpt>
      <trkpt lat="45.88274" lon="-0.89494">
        <ele>13</ele>
        <time>2018-06-30T20:21:49.000Z</time>
      </trkpt>
      <trkpt lat="45.88272" lon="-0.89493">
        <ele>13</ele>
        <time>2018-06-30T20:21:50.000Z</time>
      </trkpt>
      <trkpt lat="45.88271" lon="-0.89493">
        <ele>13</ele>
        <time>2018-06-30T20:21:51.000Z</time>
      </trkpt>
      <trkpt lat="45.8827" lon="-0.89494">
        <ele>13</ele>
        <time>2018-06-30T20:21:52.000Z</time>
      </trkpt>
      <trkpt lat="45.88269" lon="-0.89494">
        <ele>13</ele>
        <time>2018-06-30T20:21:53.000Z</time>
      </trkpt>
      <trkpt lat="45.88268" lon="-0.89494">
        <ele>13</ele>
        <time>2018-06-30T20:21:54.000Z</time>
      </trkpt>
      <trkpt lat="45.88266" lon="-0.89494">
        <ele>14</ele>
        <time>2018-06-30T20:21:55.000Z</time>
      </trkpt>
      <trkpt lat="45.88265" lon="-0.89495">
        <ele>14</ele>
        <time>2018-06-30T20:21:56.000Z</time>
      </trkpt>
      <trkpt lat="45.88265" lon="-0.89497">
        <ele>14</ele>
        <time>2018-06-30T20:21:57.000Z</time>
      </trkpt>
      <trkpt lat="45.88264" lon="-0.89498">
        <ele>14</ele>
        <time>2018-06-30T20:21:58.000Z</time>
      </trkpt>
      <trkpt lat="45.88264" lon="-0.895">
        <ele>15</ele>
        <time>2018-06-30T20:21:59.000Z</time>
      </trkpt>
      <trkpt lat="45.88264" lon="-0.89502">
        <ele>15</ele>
        <time>2018-06-30T20:22:00.000Z</time>
      </trkpt>
      <trkpt lat="45.88264" lon="-0.89503">
        <ele>15</ele>
        <time>2018-06-30T20:22:01.000Z</time>
      </trkpt>
      <trkpt lat="45.88265" lon="-0.89504">
        <ele>15</ele>
        <time>2018-06-30T20:22:02.000Z</time>
      </trkpt>
      <trkpt lat="45.88265" lon="-0.89506">
        <ele>15</ele>
        <time>2018-06-30T20:22:03.000Z</time>
      </trkpt>
      <trkpt lat="45.88265" lon="-0.89508">
        <ele>15</ele>
        <time>2018-06-30T20:22:04.000Z</time>
      </trkpt>
      <trkpt lat="45.88265" lon="-0.89509">
        <ele>14</ele>
        <time>2018-06-30T20:22:05.000Z</time>
      </trkpt>
      <trkpt lat="45.88265" lon="-0.89511">
        <ele>14</ele>
        <time>2018-06-30T20:22:06.000Z</time>
      </trkpt>
      <trkpt lat="45.88265" lon="-0.89512">
        <ele>14</ele>
        <time>2018-06-30T20:22:07.000Z</time>
      </trkpt>
      <trkpt lat="45.88265" lon="-0.89514">
        <ele>14</ele>
        <time>2018-06-30T20:22:08.000Z</time>
      </trkpt>
      <trkpt lat="45.88265" lon="-0.89516">
        <ele>14</ele>
        <time>2018-06-30T20:22:09.000Z</time>
      </trkpt>
      <trkpt lat="45.88265" lon="-0.89517">
        <ele>14</ele>
        <time>2018-06-30T20:22:10.000Z</time>
      </trkpt>
      <trkpt lat="45.88265" lon="-0.89519">
        <ele>14</ele>
        <time>2018-06-30T20:22:11.000Z</time>
      </trkpt>
      <trkpt lat="45.88265" lon="-0.8952">
        <ele>14</ele>
        <time>2018-06-30T20:22:12.000Z</time>
      </trkpt>
      <trkpt lat="45.88266" lon="-0.89522">
        <ele>14</ele>
        <time>2018-06-30T20:22:13.000Z</time>
      </trkpt>
      <trkpt lat="45.88266" lon="-0.89523">
        <ele>14</ele>
        <time>2018-06-30T20:22:14.000Z</time>
      </trkpt>
      <trkpt lat="45.88266" lon="-0.89525">
        <ele>14</ele>
        <time>2018-06-30T20:22:15.000Z</time>
      </trkpt>
      <trkpt lat="45.88266" lon="-0.89526">
        <ele>13</ele>
        <time>2018-06-30T20:22:16.000Z</time>
      </trkpt>
      <trkpt lat="45.88266" lon="-0.89528">
        <ele>13</ele>
        <time>2018-06-30T20:22:17.000Z</time>
      </trkpt>
      <trkpt lat="45.88266" lon="-0.89529">
        <ele>13</ele>
        <time>2018-06-30T20:22:18.000Z</time>
      </trkpt>
      <trkpt lat="45.88266" lon="-0.89531">
        <ele>13</ele>
        <time>2018-06-30T20:22:19.000Z</time>
      </trkpt>
      <trkpt lat="45.88266" lon="-0.89533">
        <ele>13</ele>
        <time>2018-06-30T20:22:20.000Z</time>
      </trkpt>
      <trkpt lat="45.88266" lon="-0.89534">
        <ele>13</ele>
        <time>2018-06-30T20:22:21.000Z</time>
      </trkpt>
      <trkpt lat="45.88266" lon="-0.89535">
        <ele>13</ele>
        <time>2018-06-30T20:22:22.000Z</time>
      </trkpt>
      <trkpt lat="45.88267" lon="-0.89536">
        <ele>12</ele>
        <time>2018-06-30T20:22:23.000Z</time>
      </trkpt>
      <trkpt lat="45.88267" lon="-0.89537">
        <ele>12</ele>
        <time>2018-06-30T20:22:24.000Z</time>
      </trkpt>
      <trkpt lat="45.88267" lon="-0.89538">
        <ele>12</ele>
        <time>2018-06-30T20:22:25.000Z</time>
      </trkpt>
      <trkpt lat="45.88267" lon="-0.89539">
        <ele>12</ele>
        <time>2018-06-30T20:22:26.000Z</time>
      </trkpt>
      <trkpt lat="45.88267" lon="-0.8954">
        <ele>13</ele>
        <time>2018-06-30T20:22:27.000Z</time>
      </trkpt>
      <trkpt lat="45.88267" lon="-0.89541">
        <ele>13</ele>
        <time>2018-06-30T20:22:28.000Z</time>
      </trkpt>
      <trkpt lat="45.88267" lon="-0.89542">
        <ele>14</ele>
        <time>2018-06-30T20:22:29.000Z</time>
      </trkpt>
      <trkpt lat="45.88267" lon="-0.89543">
        <ele>14</ele>
        <time>2018-06-30T20:22:30.000Z</time>
      </trkpt>
      <trkpt lat="45.88267" lon="-0.89544">
        <ele>14</ele>
        <time>2018-06-30T20:22:31.000Z</time>
      </trkpt>
      <trkpt lat="45.88267" lon="-0.89545">
        <ele>14</ele>
        <time>2018-06-30T20:22:32.000Z</time>
      </trkpt>
      <trkpt lat="45.88267" lon="-0.89546">
        <ele>14</ele>
        <time>2018-06-30T20:22:33.000Z</time>
      </trkpt>
      <trkpt lat="45.88267" lon="-0.89547">
        <ele>14</ele>
        <time>2018-06-30T20:22:34.000Z</time>
      </trkpt>
      <trkpt lat="45.88267" lon="-0.89548">
        <ele>15</ele>
        <time>2018-06-30T20:22:35.000Z</time>
      </trkpt>
      <trkpt lat="45.88268" lon="-0.89548">
        <ele>15</ele>
        <time>2018-06-30T20:22:36.000Z</time>
      </trkpt>
      <trkpt lat="45.88268" lon="-0.89549">
        <ele>15</ele>
        <time>2018-06-30T20:22:37.000Z</time>
      </trkpt>
      <trkpt lat="45.88269" lon="-0.89549">
        <ele>15</ele>
        <time>2018-06-30T20:22:38.000Z</time>
      </trkpt>
      <trkpt lat="45.88269" lon="-0.8955">
        <ele>15</ele>
        <time>2018-06-30T20:22:39.000Z</time>
      </trkpt>
      <trkpt lat="45.88269" lon="-0.89551">
        <ele>14</ele>
        <time>2018-06-30T20:22:40.000Z</time>
      </trkpt>
      <trkpt lat="45.88269" lon="-0.89551">
        <ele>15</ele>
        <time>2018-06-30T20:22:41.000Z</time>
      </trkpt>
      <trkpt lat="45.88269" lon="-0.89552">
        <ele>14</ele>
        <time>2018-06-30T20:22:42.000Z</time>
      </trkpt>
      <trkpt lat="45.88269" lon="-0.89553">
        <ele>14</ele>
        <time>2018-06-30T20:22:43.000Z</time>
      </trkpt>
      <trkpt lat="45.88269" lon="-0.89553">
        <ele>14</ele>
        <time>2018-06-30T20:22:44.000Z</time>
      </trkpt>
      <trkpt lat="45.88269" lon="-0.89554">
        <ele>14</ele>
        <time>2018-06-30T20:22:45.000Z</time>
      </trkpt>
      <trkpt lat="45.88269" lon="-0.89554">
        <ele>15</ele>
        <time>2018-06-30T20:22:46.000Z</time>
      </trkpt>
      <trkpt lat="45.88269" lon="-0.89554">
        <ele>15</ele>
        <time>2018-06-30T20:22:47.000Z</time>
      </trkpt>
      <trkpt lat="45.88269" lon="-0.89555">
        <ele>15</ele>
        <time>2018-06-30T20:22:48.000Z</time>
      </trkpt>
      <trkpt lat="45.88269" lon="-0.89555">
        <ele>15</ele>
        <time>2018-06-30T20:22:49.000Z</time>
      </trkpt>
      <trkpt lat="45.88269" lon="-0.89555">
        <ele>15</ele>
        <time>2018-06-30T20:22:50.000Z</time>
      </trkpt>
      <trkpt lat="45.88269" lon="-0.89555">
        <ele>15</ele>
        <time>2018-06-30T20:22:51.000Z</time>
      </trkpt>
      <trkpt lat="45.88269" lon="-0.89555">
        <ele>15</ele>
        <time>2018-06-30T20:22:52.000Z</time>
      </trkpt>
      <trkpt lat="45.88269" lon="-0.89555">
        <ele>15</ele>
        <time>2018-06-30T20:22:53.000Z</time>
      </trkpt>
      <trkpt lat="45.88269" lon="-0.89555">
        <ele>15</ele>
        <time>2018-06-30T20:22:54.000Z</time>
      </trkpt>
      <trkpt lat="45.88269" lon="-0.89555">
        <ele>15</ele>
        <time>2018-06-30T20:22:55.000Z</time>
      </trkpt>
      <trkpt lat="45.88269" lon="-0.89555">
        <ele>15</ele>
        <time>2018-06-30T20:22:56.000Z</time>
      </trkpt>
      <trkpt lat="45.88268" lon="-0.89556">
        <ele>15</ele>
        <time>2018-06-30T20:22:57.000Z</time>
      </trkpt>
      <trkpt lat="45.88268" lon="-0.89556">
        <ele>15</ele>
        <time>2018-06-30T20:22:58.000Z</time>
      </trkpt>
      <trkpt lat="45.88268" lon="-0.89556">
        <ele>15</ele>
        <time>2018-06-30T20:22:59.000Z</time>
      </trkpt>
      <trkpt lat="45.88268" lon="-0.89556">
        <ele>15</ele>
        <time>2018-06-30T20:23:00.000Z</time>
      </trkpt>
      <trkpt lat="45.88268" lon="-0.89556">
        <ele>15</ele>
        <time>2018-06-30T20:23:01.000Z</time>
      </trkpt>
      <trkpt lat="45.88269" lon="-0.89556">
        <ele>16</ele>
        <time>2018-06-30T20:23:02.000Z</time>
      </trkpt>
      <trkpt lat="45.88269" lon="-0.89556">
        <ele>16</ele>
        <time>2018-06-30T20:23:03.000Z</time>
      </trkpt>
      <trkpt lat="45.8827" lon="-0.89555">
        <ele>17</ele>
        <time>2018-06-30T20:23:04.000Z</time>
      </trkpt>
      <trkpt lat="45.8827" lon="-0.89554">
        <ele>17</ele>
        <time>2018-06-30T20:23:05.000Z</time>
      </trkpt>
      <trkpt lat="45.88271" lon="-0.89554">
        <ele>17</ele>
        <time>2018-06-30T20:23:06.000Z</time>
      </trkpt>
      <trkpt lat="45.88272" lon="-0.89554">
        <ele>17</ele>
        <time>2018-06-30T20:23:07.000Z</time>
      </trkpt>
      <trkpt lat="45.88273" lon="-0.89553">
        <ele>17</ele>
        <time>2018-06-30T20:23:08.000Z</time>
      </trkpt>
      <trkpt lat="45.88273" lon="-0.89553">
        <ele>17</ele>
        <time>2018-06-30T20:23:09.000Z</time>
      </trkpt>
      <trkpt lat="45.88274" lon="-0.89553">
        <ele>17</ele>
        <time>2018-06-30T20:23:10.000Z</time>
      </trkpt>
      <trkpt lat="45.88275" lon="-0.89552">
        <ele>17</ele>
        <time>2018-06-30T20:23:11.000Z</time>
      </trkpt>
      <trkpt lat="45.88276" lon="-0.89552">
        <ele>17</ele>
        <time>2018-06-30T20:23:12.000Z</time>
      </trkpt>
      <trkpt lat="45.88277" lon="-0.89552">
        <ele>17</ele>
        <time>2018-06-30T20:23:13.000Z</time>
      </trkpt>
      <trkpt lat="45.88278" lon="-0.89552">
        <ele>17</ele>
        <time>2018-06-30T20:23:14.000Z</time>
      </trkpt>
      <trkpt lat="45.88279" lon="-0.89552">
        <ele>17</ele>
        <time>2018-06-30T20:23:15.000Z</time>
      </trkpt>
      <trkpt lat="45.8828" lon="-0.89552">
        <ele>18</ele>
        <time>2018-06-30T20:23:16.000Z</time>
      </trkpt>
      <trkpt lat="45.88281" lon="-0.89552">
        <ele>18</ele>
        <time>2018-06-30T20:23:17.000Z</time>
      </trkpt>
      <trkpt lat="45.88282" lon="-0.89552">
        <ele>18</ele>
        <time>2018-06-30T20:23:18.000Z</time>
      </trkpt>
      <trkpt lat="45.88282" lon="-0.89551">
        <ele>18</ele>
        <time>2018-06-30T20:23:19.000Z</time>
      </trkpt>
      <trkpt lat="45.88283" lon="-0.89551">
        <ele>17</ele>
        <time>2018-06-30T20:23:20.000Z</time>
      </trkpt>
      <trkpt lat="45.88282" lon="-0.8955">
        <ele>17</ele>
        <time>2018-06-30T20:23:21.000Z</time>
      </trkpt>
      <trkpt lat="45.88282" lon="-0.8955">
        <ele>16</ele>
        <time>2018-06-30T20:23:22.000Z</time>
      </trkpt>
      <trkpt lat="45.88282" lon="-0.8955">
        <ele>16</ele>
        <time>2018-06-30T20:23:23.000Z</time>
      </trkpt>
      <trkpt lat="45.88282" lon="-0.8955">
        <ele>17</ele>
        <time>2018-06-30T20:23:24.000Z</time>
      </trkpt>
      <trkpt lat="45.88282" lon="-0.8955">
        <ele>17</ele>
        <time>2018-06-30T20:23:25.000Z</time>
      </trkpt>
      <trkpt lat="45.88282" lon="-0.8955">
        <ele>17</ele>
        <time>2018-06-30T20:23:26.000Z</time>
      </trkpt>
      <trkpt lat="45.88282" lon="-0.8955">
        <ele>17</ele>
        <time>2018-06-30T20:23:27.000Z</time>
      </trkpt>
      <trkpt lat="45.88282" lon="-0.8955">
        <ele>17</ele>
        <time>2018-06-30T20:23:28.000Z</time>
      </trkpt>
      <trkpt lat="45.88282" lon="-0.8955">
        <ele>17</ele>
        <time>2018-06-30T20:23:29.000Z</time>
      </trkpt>
      <trkpt lat="45.88282" lon="-0.8955">
        <ele>17</ele>
        <time>2018-06-30T20:23:30.000Z</time>
      </trkpt>
      <trkpt lat="45.88282" lon="-0.8955">
        <ele>17</ele>
        <time>2018-06-30T20:23:31.000Z</time>
      </trkpt>
      <trkpt lat="45.88282" lon="-0.8955">
        <ele>17</ele>
        <time>2018-06-30T20:23:32.000Z</time>
      </trkpt>
      <trkpt lat="45.88282" lon="-0.8955">
        <ele>17</ele>
        <time>2018-06-30T20:23:33.000Z</time>
      </trkpt>
      <trkpt lat="45.88282" lon="-0.8955">
        <ele>17</ele>
        <time>2018-06-30T20:23:34.000Z</time>
      </trkpt>
      <trkpt lat="45.88282" lon="-0.89549">
        <ele>17</ele>
        <time>2018-06-30T20:23:35.000Z</time>
      </trkpt>
      <trkpt lat="45.88282" lon="-0.89549">
        <ele>18</ele>
        <time>2018-06-30T20:23:36.000Z</time>
      </trkpt>
      <trkpt lat="45.88282" lon="-0.89549">
        <ele>17</ele>
        <time>2018-06-30T20:23:37.000Z</time>
      </trkpt>
      <trkpt lat="45.88282" lon="-0.89549">
        <ele>17</ele>
        <time>2018-06-30T20:23:38.000Z</time>
      </trkpt>
      <trkpt lat="45.88282" lon="-0.89549">
        <ele>18</ele>
        <time>2018-06-30T20:23:39.000Z</time>
      </trkpt>
      <trkpt lat="45.88281" lon="-0.89549">
        <ele>17</ele>
        <time>2018-06-30T20:23:40.000Z</time>
      </trkpt>
      <trkpt lat="45.88281" lon="-0.89549">
        <ele>17</ele>
        <time>2018-06-30T20:23:41.000Z</time>
      </trkpt>
      <trkpt lat="45.88281" lon="-0.89549">
        <ele>16</ele>
        <time>2018-06-30T20:23:42.000Z</time>
      </trkpt>
      <trkpt lat="45.88281" lon="-0.89549">
        <ele>17</ele>
        <time>2018-06-30T20:23:43.000Z</time>
      </trkpt>
      <trkpt lat="45.88281" lon="-0.89549">
        <ele>17</ele>
        <time>2018-06-30T20:23:44.000Z</time>
      </trkpt>
      <trkpt lat="45.88281" lon="-0.89549">
        <ele>18</ele>
        <time>2018-06-30T20:23:45.000Z</time>
      </trkpt>
      <trkpt lat="45.88281" lon="-0.89549">
        <ele>18</ele>
        <time>2018-06-30T20:23:46.000Z</time>
      </trkpt>
      <trkpt lat="45.88281" lon="-0.89549">
        <ele>18</ele>
        <time>2018-06-30T20:23:47.000Z</time>
      </trkpt>
      <trkpt lat="45.88281" lon="-0.89549">
        <ele>18</ele>
        <time>2018-06-30T20:23:48.000Z</time>
      </trkpt>
      <trkpt lat="45.88281" lon="-0.89549">
        <ele>18</ele>
        <time>2018-06-30T20:23:49.000Z</time>
      </trkpt>
      <trkpt lat="45.88281" lon="-0.89549">
        <ele>17</ele>
        <time>2018-06-30T20:23:50.000Z</time>
      </trkpt>
      <trkpt lat="45.88281" lon="-0.89549">
        <ele>17</ele>
        <time>2018-06-30T20:23:51.000Z</time>
      </trkpt>
      <trkpt lat="45.88281" lon="-0.89548">
        <ele>17</ele>
        <time>2018-06-30T20:23:52.000Z</time>
      </trkpt>
      <trkpt lat="45.88281" lon="-0.89548">
        <ele>16</ele>
        <time>2018-06-30T20:23:53.000Z</time>
      </trkpt>
      <trkpt lat="45.88281" lon="-0.89548">
        <ele>16</ele>
        <time>2018-06-30T20:23:54.000Z</time>
      </trkpt>
      <trkpt lat="45.88281" lon="-0.89548">
        <ele>16</ele>
        <time>2018-06-30T20:23:55.000Z</time>
      </trkpt>
      <trkpt lat="45.88281" lon="-0.89548">
        <ele>16</ele>
        <time>2018-06-30T20:23:56.000Z</time>
      </trkpt>
      <trkpt lat="45.88281" lon="-0.89548">
        <ele>17</ele>
        <time>2018-06-30T20:23:57.000Z</time>
      </trkpt>
      <trkpt lat="45.88281" lon="-0.89549">
        <ele>17</ele>
        <time>2018-06-30T20:23:58.000Z</time>
      </trkpt>
      <trkpt lat="45.88281" lon="-0.89549">
        <ele>18</ele>
        <time>2018-06-30T20:23:59.000Z</time>
      </trkpt>
      <trkpt lat="45.88281" lon="-0.89548">
        <ele>18</ele>
        <time>2018-06-30T20:24:00.000Z</time>
      </trkpt>
      <trkpt lat="45.88281" lon="-0.89548">
        <ele>17</ele>
        <time>2018-06-30T20:24:01.000Z</time>
      </trkpt>
      <trkpt lat="45.88281" lon="-0.89548">
        <ele>18</ele>
        <time>2018-06-30T20:24:02.000Z</time>
      </trkpt>
      <trkpt lat="45.88281" lon="-0.89548">
        <ele>17</ele>
        <time>2018-06-30T20:24:03.000Z</time>
      </trkpt>
      <trkpt lat="45.88281" lon="-0.89548">
        <ele>17</ele>
        <time>2018-06-30T20:24:04.000Z</time>
      </trkpt>
      <trkpt lat="45.88281" lon="-0.89549">
        <ele>18</ele>
        <time>2018-06-30T20:24:05.000Z</time>
      </trkpt>
      <trkpt lat="45.88281" lon="-0.89549">
        <ele>18</ele>
        <time>2018-06-30T20:24:06.000Z</time>
      </trkpt>
      <trkpt lat="45.88281" lon="-0.89549">
        <ele>18</ele>
        <time>2018-06-30T20:24:07.000Z</time>
      </trkpt>
      <trkpt lat="45.88281" lon="-0.89549">
        <ele>18</ele>
        <time>2018-06-30T20:24:08.000Z</time>
      </trkpt>
      <trkpt lat="45.88282" lon="-0.89549">
        <ele>19</ele>
        <time>2018-06-30T20:24:09.000Z</time>
      </trkpt>
      <trkpt lat="45.88282" lon="-0.89549">
        <ele>18</ele>
        <time>2018-06-30T20:24:10.000Z</time>
      </trkpt>
      <trkpt lat="45.88282" lon="-0.89549">
        <ele>19</ele>
        <time>2018-06-30T20:24:11.000Z</time>
      </trkpt>
      <trkpt lat="45.88283" lon="-0.89549">
        <ele>18</ele>
        <time>2018-06-30T20:24:12.000Z</time>
      </trkpt>
      <trkpt lat="45.88283" lon="-0.89549">
        <ele>17</ele>
        <time>2018-06-30T20:24:13.000Z</time>
      </trkpt>
      <trkpt lat="45.88284" lon="-0.89549">
        <ele>17</ele>
        <time>2018-06-30T20:24:14.000Z</time>
      </trkpt>
      <trkpt lat="45.88285" lon="-0.89549">
        <ele>17</ele>
        <time>2018-06-30T20:24:15.000Z</time>
      </trkpt>
      <trkpt lat="45.88286" lon="-0.89549">
        <ele>17</ele>
        <time>2018-06-30T20:24:16.000Z</time>
      </trkpt>
      <trkpt lat="45.88287" lon="-0.89549">
        <ele>17</ele>
        <time>2018-06-30T20:24:17.000Z</time>
      </trkpt>
      <trkpt lat="45.88287" lon="-0.89548">
        <ele>17</ele>
        <time>2018-06-30T20:24:18.000Z</time>
      </trkpt>
      <trkpt lat="45.88288" lon="-0.89548">
        <ele>16</ele>
        <time>2018-06-30T20:24:19.000Z</time>
      </trkpt>
      <trkpt lat="45.88288" lon="-0.89547">
        <ele>17</ele>
        <time>2018-06-30T20:24:20.000Z</time>
      </trkpt>
      <trkpt lat="45.88287" lon="-0.89547">
        <ele>17</ele>
        <time>2018-06-30T20:24:21.000Z</time>
      </trkpt>
      <trkpt lat="45.88287" lon="-0.89547">
        <ele>17</ele>
        <time>2018-06-30T20:24:22.000Z</time>
      </trkpt>
      <trkpt lat="45.88287" lon="-0.89548">
        <ele>17</ele>
        <time>2018-06-30T20:24:23.000Z</time>
      </trkpt>
      <trkpt lat="45.88287" lon="-0.89548">
        <ele>17</ele>
        <time>2018-06-30T20:24:24.000Z</time>
      </trkpt>
      <trkpt lat="45.88287" lon="-0.89548">
        <ele>17</ele>
        <time>2018-06-30T20:24:25.000Z</time>
      </trkpt>
      <trkpt lat="45.88287" lon="-0.89547">
        <ele>17</ele>
        <time>2018-06-30T20:24:26.000Z</time>
      </trkpt>
      <trkpt lat="45.88287" lon="-0.89547">
        <ele>17</ele>
        <time>2018-06-30T20:24:27.000Z</time>
      </trkpt>
      <trkpt lat="45.88287" lon="-0.89547">
        <ele>17</ele>
        <time>2018-06-30T20:24:28.000Z</time>
      </trkpt>
      <trkpt lat="45.88287" lon="-0.89547">
        <ele>17</ele>
        <time>2018-06-30T20:24:29.000Z</time>
      </trkpt>
      <trkpt lat="45.88287" lon="-0.89547">
        <ele>17</ele>
        <time>2018-06-30T20:24:30.000Z</time>
      </trkpt>
      <trkpt lat="45.88287" lon="-0.89547">
        <ele>17</ele>
        <time>2018-06-30T20:24:31.000Z</time>
      </trkpt>
      <trkpt lat="45.88287" lon="-0.89547">
        <ele>17</ele>
        <time>2018-06-30T20:24:32.000Z</time>
      </trkpt>
      <trkpt lat="45.88287" lon="-0.89547">
        <ele>17</ele>
        <time>2018-06-30T20:24:33.000Z</time>
      </trkpt>
      <trkpt lat="45.88287" lon="-0.89547">
        <ele>17</ele>
        <time>2018-06-30T20:24:34.000Z</time>
      </trkpt>
      <trkpt lat="45.88287" lon="-0.89547">
        <ele>16</ele>
        <time>2018-06-30T20:24:35.000Z</time>
      </trkpt>
      <trkpt lat="45.88287" lon="-0.89547">
        <ele>16</ele>
        <time>2018-06-30T20:24:36.000Z</time>
      </trkpt>
      <trkpt lat="45.88287" lon="-0.89547">
        <ele>16</ele>
        <time>2018-06-30T20:24:37.000Z</time>
      </trkpt>
      <trkpt lat="45.88287" lon="-0.89548">
        <ele>16</ele>
        <time>2018-06-30T20:24:38.000Z</time>
      </trkpt>
      <trkpt lat="45.88287" lon="-0.89548">
        <ele>16</ele>
        <time>2018-06-30T20:24:39.000Z</time>
      </trkpt>
      <trkpt lat="45.88287" lon="-0.89548">
        <ele>16</ele>
        <time>2018-06-30T20:24:40.000Z</time>
      </trkpt>
      <trkpt lat="45.88287" lon="-0.89548">
        <ele>16</ele>
        <time>2018-06-30T20:24:41.000Z</time>
      </trkpt>
      <trkpt lat="45.88287" lon="-0.89548">
        <ele>16</ele>
        <time>2018-06-30T20:24:42.000Z</time>
      </trkpt>
      <trkpt lat="45.88287" lon="-0.89548">
        <ele>16</ele>
        <time>2018-06-30T20:24:43.000Z</time>
      </trkpt>
      <trkpt lat="45.88287" lon="-0.89548">
        <ele>16</ele>
        <time>2018-06-30T20:24:44.000Z</time>
      </trkpt>
      <trkpt lat="45.88287" lon="-0.89548">
        <ele>16</ele>
        <time>2018-06-30T20:24:45.000Z</time>
      </trkpt>
      <trkpt lat="45.88287" lon="-0.89548">
        <ele>16</ele>
        <time>2018-06-30T20:24:46.000Z</time>
      </trkpt>
      <trkpt lat="45.88287" lon="-0.89548">
        <ele>17</ele>
        <time>2018-06-30T20:24:47.000Z</time>
      </trkpt>
      <trkpt lat="45.88287" lon="-0.89547">
        <ele>17</ele>
        <time>2018-06-30T20:24:48.000Z</time>
      </trkpt>
      <trkpt lat="45.88286" lon="-0.89547">
        <ele>17</ele>
        <time>2018-06-30T20:24:49.000Z</time>
      </trkpt>
      <trkpt lat="45.88286" lon="-0.89547">
        <ele>17</ele>
        <time>2018-06-30T20:24:50.000Z</time>
      </trkpt>
      <trkpt lat="45.88286" lon="-0.89547">
        <ele>17</ele>
        <time>2018-06-30T20:24:51.000Z</time>
      </trkpt>
      <trkpt lat="45.88286" lon="-0.89547">
        <ele>17</ele>
        <time>2018-06-30T20:24:52.000Z</time>
      </trkpt>
      <trkpt lat="45.88286" lon="-0.89547">
        <ele>17</ele>
        <time>2018-06-30T20:24:53.000Z</time>
      </trkpt>
      <trkpt lat="45.88286" lon="-0.89547">
        <ele>17</ele>
        <time>2018-06-30T20:24:54.000Z</time>
      </trkpt>
      <trkpt lat="45.88286" lon="-0.89547">
        <ele>17</ele>
        <time>2018-06-30T20:24:55.000Z</time>
      </trkpt>
      <trkpt lat="45.88286" lon="-0.89547">
        <ele>17</ele>
        <time>2018-06-30T20:24:56.000Z</time>
      </trkpt>
      <trkpt lat="45.88287" lon="-0.89547">
        <ele>17</ele>
        <time>2018-06-30T20:24:57.000Z</time>
      </trkpt>
      <trkpt lat="45.88287" lon="-0.89547">
        <ele>17</ele>
        <time>2018-06-30T20:24:58.000Z</time>
      </trkpt>
      <trkpt lat="45.88287" lon="-0.89547">
        <ele>16</ele>
        <time>2018-06-30T20:24:59.000Z</time>
      </trkpt>
      <trkpt lat="45.88287" lon="-0.89548">
        <ele>16</ele>
        <time>2018-06-30T20:25:00.000Z</time>
      </trkpt>
      <trkpt lat="45.88287" lon="-0.89548">
        <ele>16</ele>
        <time>2018-06-30T20:25:01.000Z</time>
      </trkpt>
      <trkpt lat="45.88287" lon="-0.89549">
        <ele>16</ele>
        <time>2018-06-30T20:25:02.000Z</time>
      </trkpt>
      <trkpt lat="45.88287" lon="-0.89549">
        <ele>16</ele>
        <time>2018-06-30T20:25:03.000Z</time>
      </trkpt>
      <trkpt lat="45.88287" lon="-0.89549">
        <ele>16</ele>
        <time>2018-06-30T20:25:04.000Z</time>
      </trkpt>
      <trkpt lat="45.88287" lon="-0.89548">
        <ele>17</ele>
        <time>2018-06-30T20:25:05.000Z</time>
      </trkpt>
      <trkpt lat="45.88287" lon="-0.89548">
        <ele>16</ele>
        <time>2018-06-30T20:25:06.000Z</time>
      </trkpt>
      <trkpt lat="45.88287" lon="-0.89548">
        <ele>17</ele>
        <time>2018-06-30T20:25:07.000Z</time>
      </trkpt>
      <trkpt lat="45.88287" lon="-0.89548">
        <ele>17</ele>
        <time>2018-06-30T20:25:08.000Z</time>
      </trkpt>
      <trkpt lat="45.88287" lon="-0.89548">
        <ele>17</ele>
        <time>2018-06-30T20:25:09.000Z</time>
      </trkpt>
      <trkpt lat="45.88287" lon="-0.89548">
        <ele>17</ele>
        <time>2018-06-30T20:25:10.000Z</time>
      </trkpt>
      <trkpt lat="45.88287" lon="-0.89548">
        <ele>17</ele>
        <time>2018-06-30T20:25:11.000Z</time>
      </trkpt>
      <trkpt lat="45.88287" lon="-0.89548">
        <ele>17</ele>
        <time>2018-06-30T20:25:12.000Z</time>
      </trkpt>
      <trkpt lat="45.88287" lon="-0.89548">
        <ele>17</ele>
        <time>2018-06-30T20:25:13.000Z</time>
      </trkpt>
      <trkpt lat="45.88287" lon="-0.89548">
        <ele>17</ele>
        <time>2018-06-30T20:25:14.000Z</time>
      </trkpt>
      <trkpt lat="45.88287" lon="-0.89548">
        <ele>17</ele>
        <time>2018-06-30T20:25:15.000Z</time>
      </trkpt>
      <trkpt lat="45.88287" lon="-0.89548">
        <ele>17</ele>
        <time>2018-06-30T20:25:16.000Z</time>
      </trkpt>
      <trkpt lat="45.88287" lon="-0.89548">
        <ele>18</ele>
        <time>2018-06-30T20:25:17.000Z</time>
      </trkpt>
      <trkpt lat="45.88287" lon="-0.89548">
        <ele>18</ele>
        <time>2018-06-30T20:25:18.000Z</time>
      </trkpt>
      <trkpt lat="45.88287" lon="-0.89548">
        <ele>18</ele>
        <time>2018-06-30T20:25:19.000Z</time>
      </trkpt>
      <trkpt lat="45.88287" lon="-0.89548">
        <ele>18</ele>
        <time>2018-06-30T20:25:20.000Z</time>
      </trkpt>
      <trkpt lat="45.88287" lon="-0.89548">
        <ele>18</ele>
        <time>2018-06-30T20:25:21.000Z</time>
      </trkpt>
      <trkpt lat="45.88287" lon="-0.89548">
        <ele>18</ele>
        <time>2018-06-30T20:25:22.000Z</time>
      </trkpt>
      <trkpt lat="45.88287" lon="-0.89548">
        <ele>18</ele>
        <time>2018-06-30T20:25:23.000Z</time>
      </trkpt>
      <trkpt lat="45.88287" lon="-0.89548">
        <ele>18</ele>
        <time>2018-06-30T20:25:24.000Z</time>
      </trkpt>
      <trkpt lat="45.88287" lon="-0.89548">
        <ele>18</ele>
        <time>2018-06-30T20:25:25.000Z</time>
      </trkpt>
      <trkpt lat="45.88288" lon="-0.89548">
        <ele>18</ele>
        <time>2018-06-30T20:25:26.000Z</time>
      </trkpt>
      <trkpt lat="45.88288" lon="-0.89549">
        <ele>18</ele>
        <time>2018-06-30T20:25:27.000Z</time>
      </trkpt>
      <trkpt lat="45.88288" lon="-0.89549">
        <ele>19</ele>
        <time>2018-06-30T20:25:28.000Z</time>
      </trkpt>
      <trkpt lat="45.88288" lon="-0.89549">
        <ele>19</ele>
        <time>2018-06-30T20:25:29.000Z</time>
      </trkpt>
      <trkpt lat="45.88288" lon="-0.89549">
        <ele>19</ele>
        <time>2018-06-30T20:25:30.000Z</time>
      </trkpt>
      <trkpt lat="45.88288" lon="-0.89549">
        <ele>18</ele>
        <time>2018-06-30T20:25:31.000Z</time>
      </trkpt>
      <trkpt lat="45.88288" lon="-0.89549">
        <ele>18</ele>
        <time>2018-06-30T20:25:32.000Z</time>
      </trkpt>
      <trkpt lat="45.88288" lon="-0.89549">
        <ele>18</ele>
        <time>2018-06-30T20:25:33.000Z</time>
      </trkpt>
      <trkpt lat="45.88288" lon="-0.89549">
        <ele>18</ele>
        <time>2018-06-30T20:25:34.000Z</time>
      </trkpt>
      <trkpt lat="45.88288" lon="-0.89549">
        <ele>18</ele>
        <time>2018-06-30T20:25:35.000Z</time>
      </trkpt>
      <trkpt lat="45.88288" lon="-0.8955">
        <ele>18</ele>
        <time>2018-06-30T20:25:36.000Z</time>
      </trkpt>
      <trkpt lat="45.88288" lon="-0.8955">
        <ele>18</ele>
        <time>2018-06-30T20:25:37.000Z</time>
      </trkpt>
      <trkpt lat="45.88288" lon="-0.8955">
        <ele>18</ele>
        <time>2018-06-30T20:25:38.000Z</time>
      </trkpt>
      <trkpt lat="45.88288" lon="-0.8955">
        <ele>18</ele>
        <time>2018-06-30T20:25:39.000Z</time>
      </trkpt>
      <trkpt lat="45.88288" lon="-0.8955">
        <ele>18</ele>
        <time>2018-06-30T20:25:40.000Z</time>
      </trkpt>
      <trkpt lat="45.88288" lon="-0.8955">
        <ele>17</ele>
        <time>2018-06-30T20:25:41.000Z</time>
      </trkpt>
      <trkpt lat="45.88288" lon="-0.8955">
        <ele>17</ele>
        <time>2018-06-30T20:25:42.000Z</time>
      </trkpt>
      <trkpt lat="45.88288" lon="-0.8955">
        <ele>17</ele>
        <time>2018-06-30T20:25:43.000Z</time>
      </trkpt>
      <trkpt lat="45.88288" lon="-0.8955">
        <ele>17</ele>
        <time>2018-06-30T20:25:44.000Z</time>
      </trkpt>
      <trkpt lat="45.88288" lon="-0.8955">
        <ele>17</ele>
        <time>2018-06-30T20:25:45.000Z</time>
      </trkpt>
      <trkpt lat="45.88288" lon="-0.89551">
        <ele>17</ele>
        <time>2018-06-30T20:25:46.000Z</time>
      </trkpt>
      <trkpt lat="45.88288" lon="-0.89551">
        <ele>17</ele>
        <time>2018-06-30T20:25:47.000Z</time>
      </trkpt>
      <trkpt lat="45.88288" lon="-0.89551">
        <ele>17</ele>
        <time>2018-06-30T20:25:48.000Z</time>
      </trkpt>
      <trkpt lat="45.88288" lon="-0.89551">
        <ele>18</ele>
        <time>2018-06-30T20:25:49.000Z</time>
      </trkpt>
      <trkpt lat="45.88288" lon="-0.8955">
        <ele>18</ele>
        <time>2018-06-30T20:25:50.000Z</time>
      </trkpt>
      <trkpt lat="45.88288" lon="-0.8955">
        <ele>18</ele>
        <time>2018-06-30T20:25:51.000Z</time>
      </trkpt>
      <trkpt lat="45.88288" lon="-0.8955">
        <ele>18</ele>
        <time>2018-06-30T20:25:52.000Z</time>
      </trkpt>
      <trkpt lat="45.88288" lon="-0.8955">
        <ele>18</ele>
        <time>2018-06-30T20:25:53.000Z</time>
      </trkpt>
      <trkpt lat="45.88288" lon="-0.8955">
        <ele>18</ele>
        <time>2018-06-30T20:25:54.000Z</time>
      </trkpt>
      <trkpt lat="45.88288" lon="-0.8955">
        <ele>18</ele>
        <time>2018-06-30T20:25:55.000Z</time>
      </trkpt>
      <trkpt lat="45.88288" lon="-0.8955">
        <ele>18</ele>
        <time>2018-06-30T20:25:56.000Z</time>
      </trkpt>
      <trkpt lat="45.88288" lon="-0.8955">
        <ele>18</ele>
        <time>2018-06-30T20:25:57.000Z</time>
      </trkpt>
      <trkpt lat="45.88288" lon="-0.8955">
        <ele>19</ele>
        <time>2018-06-30T20:25:58.000Z</time>
      </trkpt>
      <trkpt lat="45.88288" lon="-0.8955">
        <ele>18</ele>
        <time>2018-06-30T20:25:59.000Z</time>
      </trkpt>
      <trkpt lat="45.88288" lon="-0.8955">
        <ele>18</ele>
        <time>2018-06-30T20:26:00.000Z</time>
      </trkpt>
      <trkpt lat="45.88288" lon="-0.8955">
        <ele>18</ele>
        <time>2018-06-30T20:26:01.000Z</time>
      </trkpt>
      <trkpt lat="45.88288" lon="-0.8955">
        <ele>18</ele>
        <time>2018-06-30T20:26:02.000Z</time>
      </trkpt>
      <trkpt lat="45.88288" lon="-0.8955">
        <ele>19</ele>
        <time>2018-06-30T20:26:03.000Z</time>
      </trkpt>
      <trkpt lat="45.88288" lon="-0.8955">
        <ele>18</ele>
        <time>2018-06-30T20:26:04.000Z</time>
      </trkpt>
      <trkpt lat="45.88288" lon="-0.8955">
        <ele>18</ele>
        <time>2018-06-30T20:26:05.000Z</time>
      </trkpt>
      <trkpt lat="45.88288" lon="-0.8955">
        <ele>18</ele>
        <time>2018-06-30T20:26:06.000Z</time>
      </trkpt>
      <trkpt lat="45.88288" lon="-0.8955">
        <ele>18</ele>
        <time>2018-06-30T20:26:07.000Z</time>
      </trkpt>
      <trkpt lat="45.88288" lon="-0.8955">
        <ele>18</ele>
        <time>2018-06-30T20:26:08.000Z</time>
      </trkpt>
      <trkpt lat="45.88288" lon="-0.8955">
        <ele>18</ele>
        <time>2018-06-30T20:26:09.000Z</time>
      </trkpt>
      <trkpt lat="45.88288" lon="-0.8955">
        <ele>18</ele>
        <time>2018-06-30T20:26:10.000Z</time>
      </trkpt>
      <trkpt lat="45.88288" lon="-0.8955">
        <ele>18</ele>
        <time>2018-06-30T20:26:11.000Z</time>
      </trkpt>
      <trkpt lat="45.88289" lon="-0.8955">
        <ele>18</ele>
        <time>2018-06-30T20:26:12.000Z</time>
      </trkpt>
      <trkpt lat="45.88289" lon="-0.8955">
        <ele>18</ele>
        <time>2018-06-30T20:26:13.000Z</time>
      </trkpt>
      <trkpt lat="45.8829" lon="-0.8955">
        <ele>18</ele>
        <time>2018-06-30T20:26:14.000Z</time>
      </trkpt>
      <trkpt lat="45.8829" lon="-0.89549">
        <ele>18</ele>
        <time>2018-06-30T20:26:15.000Z</time>
      </trkpt>
      <trkpt lat="45.88291" lon="-0.89549">
        <ele>18</ele>
        <time>2018-06-30T20:26:16.000Z</time>
      </trkpt>
      <trkpt lat="45.88291" lon="-0.89549">
        <ele>18</ele>
        <time>2018-06-30T20:26:17.000Z</time>
      </trkpt>
      <trkpt lat="45.88292" lon="-0.89549">
        <ele>19</ele>
        <time>2018-06-30T20:26:18.000Z</time>
      </trkpt>
      <trkpt lat="45.88292" lon="-0.89548">
        <ele>19</ele>
        <time>2018-06-30T20:26:19.000Z</time>
      </trkpt>
      <trkpt lat="45.88292" lon="-0.89548">
        <ele>18</ele>
        <time>2018-06-30T20:26:20.000Z</time>
      </trkpt>
      <trkpt lat="45.88292" lon="-0.89548">
        <ele>18</ele>
        <time>2018-06-30T20:26:21.000Z</time>
      </trkpt>
      <trkpt lat="45.88293" lon="-0.89548">
        <ele>18</ele>
        <time>2018-06-30T20:26:22.000Z</time>
      </trkpt>
      <trkpt lat="45.88293" lon="-0.89548">
        <ele>19</ele>
        <time>2018-06-30T20:26:23.000Z</time>
      </trkpt>
      <trkpt lat="45.88293" lon="-0.89548">
        <ele>19</ele>
        <time>2018-06-30T20:26:24.000Z</time>
      </trkpt>
      <trkpt lat="45.88293" lon="-0.89548">
        <ele>19</ele>
        <time>2018-06-30T20:26:25.000Z</time>
      </trkpt>
      <trkpt lat="45.88293" lon="-0.89548">
        <ele>20</ele>
        <time>2018-06-30T20:26:26.000Z</time>
      </trkpt>
      <trkpt lat="45.88294" lon="-0.89548">
        <ele>20</ele>
        <time>2018-06-30T20:26:27.000Z</time>
      </trkpt>
      <trkpt lat="45.88294" lon="-0.89548">
        <ele>20</ele>
        <time>2018-06-30T20:26:28.000Z</time>
      </trkpt>
      <trkpt lat="45.88294" lon="-0.89547">
        <ele>21</ele>
        <time>2018-06-30T20:26:29.000Z</time>
      </trkpt>
      <trkpt lat="45.88294" lon="-0.89547">
        <ele>21</ele>
        <time>2018-06-30T20:26:30.000Z</time>
      </trkpt>
      <trkpt lat="45.88294" lon="-0.89547">
        <ele>21</ele>
        <time>2018-06-30T20:26:31.000Z</time>
      </trkpt>
      <trkpt lat="45.88294" lon="-0.89547">
        <ele>21</ele>
        <time>2018-06-30T20:26:32.000Z</time>
      </trkpt>
      <trkpt lat="45.88294" lon="-0.89547">
        <ele>21</ele>
        <time>2018-06-30T20:26:33.000Z</time>
      </trkpt>
      <trkpt lat="45.88294" lon="-0.89547">
        <ele>22</ele>
        <time>2018-06-30T20:26:34.000Z</time>
      </trkpt>
      <trkpt lat="45.88294" lon="-0.89547">
        <ele>22</ele>
        <time>2018-06-30T20:26:35.000Z</time>
      </trkpt>
      <trkpt lat="45.88294" lon="-0.89547">
        <ele>21</ele>
        <time>2018-06-30T20:26:36.000Z</time>
      </trkpt>
      <trkpt lat="45.88294" lon="-0.89548">
        <ele>20</ele>
        <time>2018-06-30T20:26:37.000Z</time>
      </trkpt>
      <trkpt lat="45.88295" lon="-0.89548">
        <ele>20</ele>
        <time>2018-06-30T20:26:38.000Z</time>
      </trkpt>
      <trkpt lat="45.88295" lon="-0.89548">
        <ele>20</ele>
        <time>2018-06-30T20:26:39.000Z</time>
      </trkpt>
      <trkpt lat="45.88295" lon="-0.89548">
        <ele>20</ele>
        <time>2018-06-30T20:26:40.000Z</time>
      </trkpt>
      <trkpt lat="45.88295" lon="-0.89548">
        <ele>19</ele>
        <time>2018-06-30T20:26:41.000Z</time>
      </trkpt>
      <trkpt lat="45.88296" lon="-0.89549">
        <ele>19</ele>
        <time>2018-06-30T20:26:42.000Z</time>
      </trkpt>
      <trkpt lat="45.88296" lon="-0.89549">
        <ele>19</ele>
        <time>2018-06-30T20:26:43.000Z</time>
      </trkpt>
      <trkpt lat="45.88296" lon="-0.89549">
        <ele>19</ele>
        <time>2018-06-30T20:26:44.000Z</time>
      </trkpt>
      <trkpt lat="45.88296" lon="-0.89549">
        <ele>19</ele>
        <time>2018-06-30T20:26:45.000Z</time>
      </trkpt>
      <trkpt lat="45.88296" lon="-0.89549">
        <ele>19</ele>
        <time>2018-06-30T20:26:46.000Z</time>
      </trkpt>
      <trkpt lat="45.88297" lon="-0.89548">
        <ele>19</ele>
        <time>2018-06-30T20:26:47.000Z</time>
      </trkpt>
      <trkpt lat="45.88297" lon="-0.89548">
        <ele>18</ele>
        <time>2018-06-30T20:26:48.000Z</time>
      </trkpt>
      <trkpt lat="45.88297" lon="-0.89548">
        <ele>18</ele>
        <time>2018-06-30T20:26:49.000Z</time>
      </trkpt>
      <trkpt lat="45.88297" lon="-0.89548">
        <ele>18</ele>
        <time>2018-06-30T20:26:50.000Z</time>
      </trkpt>
      <trkpt lat="45.88297" lon="-0.89548">
        <ele>18</ele>
        <time>2018-06-30T20:26:51.000Z</time>
      </trkpt>
      <trkpt lat="45.88297" lon="-0.89548">
        <ele>18</ele>
        <time>2018-06-30T20:26:52.000Z</time>
      </trkpt>
      <trkpt lat="45.88297" lon="-0.89548">
        <ele>18</ele>
        <time>2018-06-30T20:26:53.000Z</time>
      </trkpt>
      <trkpt lat="45.88297" lon="-0.89548">
        <ele>18</ele>
        <time>2018-06-30T20:26:54.000Z</time>
      </trkpt>
      <trkpt lat="45.88297" lon="-0.89548">
        <ele>18</ele>
        <time>2018-06-30T20:26:55.000Z</time>
      </trkpt>
      <trkpt lat="45.88298" lon="-0.89548">
        <ele>18</ele>
        <time>2018-06-30T20:26:56.000Z</time>
      </trkpt>
      <trkpt lat="45.88298" lon="-0.89548">
        <ele>18</ele>
        <time>2018-06-30T20:26:57.000Z</time>
      </trkpt>
      <trkpt lat="45.88298" lon="-0.89548">
        <ele>17</ele>
        <time>2018-06-30T20:26:58.000Z</time>
      </trkpt>
      <trkpt lat="45.88298" lon="-0.89548">
        <ele>17</ele>
        <time>2018-06-30T20:26:59.000Z</time>
      </trkpt>
      <trkpt lat="45.88299" lon="-0.89549">
        <ele>17</ele>
        <time>2018-06-30T20:27:00.000Z</time>
      </trkpt>
      <trkpt lat="45.88299" lon="-0.89549">
        <ele>18</ele>
        <time>2018-06-30T20:27:01.000Z</time>
      </trkpt>
      <trkpt lat="45.883" lon="-0.89549">
        <ele>18</ele>
        <time>2018-06-30T20:27:02.000Z</time>
      </trkpt>
      <trkpt lat="45.883" lon="-0.89548">
        <ele>19</ele>
        <time>2018-06-30T20:27:03.000Z</time>
      </trkpt>
      <trkpt lat="45.883" lon="-0.89548">
        <ele>20</ele>
        <time>2018-06-30T20:27:04.000Z</time>
      </trkpt>
      <trkpt lat="45.88301" lon="-0.89547">
        <ele>19</ele>
        <time>2018-06-30T20:27:05.000Z</time>
      </trkpt>
      <trkpt lat="45.88301" lon="-0.89547">
        <ele>19</ele>
        <time>2018-06-30T20:27:06.000Z</time>
      </trkpt>
      <trkpt lat="45.88302" lon="-0.89547">
        <ele>19</ele>
        <time>2018-06-30T20:27:07.000Z</time>
      </trkpt>
      <trkpt lat="45.88302" lon="-0.89547">
        <ele>19</ele>
        <time>2018-06-30T20:27:08.000Z</time>
      </trkpt>
      <trkpt lat="45.88302" lon="-0.89547">
        <ele>18</ele>
        <time>2018-06-30T20:27:09.000Z</time>
      </trkpt>
      <trkpt lat="45.88303" lon="-0.89548">
        <ele>19</ele>
        <time>2018-06-30T20:27:10.000Z</time>
      </trkpt>
      <trkpt lat="45.88303" lon="-0.89548">
        <ele>19</ele>
        <time>2018-06-30T20:27:11.000Z</time>
      </trkpt>
      <trkpt lat="45.88303" lon="-0.89548">
        <ele>19</ele>
        <time>2018-06-30T20:27:12.000Z</time>
      </trkpt>
      <trkpt lat="45.88303" lon="-0.89548">
        <ele>19</ele>
        <time>2018-06-30T20:27:13.000Z</time>
      </trkpt>
      <trkpt lat="45.88304" lon="-0.89548">
        <ele>19</ele>
        <time>2018-06-30T20:27:14.000Z</time>
      </trkpt>
      <trkpt lat="45.88304" lon="-0.89548">
        <ele>19</ele>
        <time>2018-06-30T20:27:15.000Z</time>
      </trkpt>
      <trkpt lat="45.88304" lon="-0.89548">
        <ele>19</ele>
        <time>2018-06-30T20:27:16.000Z</time>
      </trkpt>
      <trkpt lat="45.88304" lon="-0.89548">
        <ele>18</ele>
        <time>2018-06-30T20:27:17.000Z</time>
      </trkpt>
      <trkpt lat="45.88304" lon="-0.89548">
        <ele>18</ele>
        <time>2018-06-30T20:27:18.000Z</time>
      </trkpt>
      <trkpt lat="45.88304" lon="-0.89548">
        <ele>18</ele>
        <time>2018-06-30T20:27:19.000Z</time>
      </trkpt>
      <trkpt lat="45.88304" lon="-0.89548">
        <ele>18</ele>
        <time>2018-06-30T20:27:20.000Z</time>
      </trkpt>
      <trkpt lat="45.88304" lon="-0.89548">
        <ele>18</ele>
        <time>2018-06-30T20:27:21.000Z</time>
      </trkpt>
      <trkpt lat="45.88304" lon="-0.89548">
        <ele>18</ele>
        <time>2018-06-30T20:27:22.000Z</time>
      </trkpt>
      <trkpt lat="45.88304" lon="-0.89548">
        <ele>19</ele>
        <time>2018-06-30T20:27:23.000Z</time>
      </trkpt>
      <trkpt lat="45.88304" lon="-0.89548">
        <ele>19</ele>
        <time>2018-06-30T20:27:24.000Z</time>
      </trkpt>
      <trkpt lat="45.88304" lon="-0.89548">
        <ele>19</ele>
        <time>2018-06-30T20:27:25.000Z</time>
      </trkpt>
      <trkpt lat="45.88304" lon="-0.89548">
        <ele>19</ele>
        <time>2018-06-30T20:27:26.000Z</time>
      </trkpt>
      <trkpt lat="45.88304" lon="-0.89548">
        <ele>18</ele>
        <time>2018-06-30T20:27:27.000Z</time>
      </trkpt>
      <trkpt lat="45.88304" lon="-0.89548">
        <ele>19</ele>
        <time>2018-06-30T20:27:28.000Z</time>
      </trkpt>
      <trkpt lat="45.88304" lon="-0.89548">
        <ele>18</ele>
        <time>2018-06-30T20:27:29.000Z</time>
      </trkpt>
      <trkpt lat="45.88304" lon="-0.89549">
        <ele>19</ele>
        <time>2018-06-30T20:27:30.000Z</time>
      </trkpt>
      <trkpt lat="45.88304" lon="-0.89549">
        <ele>18</ele>
        <time>2018-06-30T20:27:31.000Z</time>
      </trkpt>
      <trkpt lat="45.88304" lon="-0.89549">
        <ele>18</ele>
        <time>2018-06-30T20:27:32.000Z</time>
      </trkpt>
      <trkpt lat="45.88304" lon="-0.89548">
        <ele>18</ele>
        <time>2018-06-30T20:27:33.000Z</time>
      </trkpt>
      <trkpt lat="45.88304" lon="-0.89548">
        <ele>19</ele>
        <time>2018-06-30T20:27:34.000Z</time>
      </trkpt>
      <trkpt lat="45.88303" lon="-0.89548">
        <ele>19</ele>
        <time>2018-06-30T20:27:35.000Z</time>
      </trkpt>
      <trkpt lat="45.88303" lon="-0.89548">
        <ele>20</ele>
        <time>2018-06-30T20:27:36.000Z</time>
      </trkpt>
      <trkpt lat="45.88303" lon="-0.89548">
        <ele>20</ele>
        <time>2018-06-30T20:27:37.000Z</time>
      </trkpt>
      <trkpt lat="45.88303" lon="-0.89548">
        <ele>20</ele>
        <time>2018-06-30T20:27:38.000Z</time>
      </trkpt>
      <trkpt lat="45.88303" lon="-0.89548">
        <ele>20</ele>
        <time>2018-06-30T20:27:39.000Z</time>
      </trkpt>
      <trkpt lat="45.88303" lon="-0.89548">
        <ele>20</ele>
        <time>2018-06-30T20:27:40.000Z</time>
      </trkpt>
      <trkpt lat="45.88303" lon="-0.89548">
        <ele>20</ele>
        <time>2018-06-30T20:27:41.000Z</time>
      </trkpt>
      <trkpt lat="45.88303" lon="-0.89548">
        <ele>20</ele>
        <time>2018-06-30T20:27:42.000Z</time>
      </trkpt>
      <trkpt lat="45.88304" lon="-0.89548">
        <ele>20</ele>
        <time>2018-06-30T20:27:43.000Z</time>
      </trkpt>
      <trkpt lat="45.88303" lon="-0.89548">
        <ele>20</ele>
        <time>2018-06-30T20:27:44.000Z</time>
      </trkpt>
      <trkpt lat="45.88303" lon="-0.89548">
        <ele>20</ele>
        <time>2018-06-30T20:27:45.000Z</time>
      </trkpt>
      <trkpt lat="45.88303" lon="-0.89548">
        <ele>20</ele>
        <time>2018-06-30T20:27:46.000Z</time>
      </trkpt>
      <trkpt lat="45.88303" lon="-0.89548">
        <ele>20</ele>
        <time>2018-06-30T20:27:47.000Z</time>
      </trkpt>
      <trkpt lat="45.88303" lon="-0.89548">
        <ele>20</ele>
        <time>2018-06-30T20:27:48.000Z</time>
      </trkpt>
      <trkpt lat="45.88303" lon="-0.89549">
        <ele>20</ele>
        <time>2018-06-30T20:27:49.000Z</time>
      </trkpt>
      <trkpt lat="45.88303" lon="-0.89549">
        <ele>19</ele>
        <time>2018-06-30T20:27:50.000Z</time>
      </trkpt>
      <trkpt lat="45.88303" lon="-0.89549">
        <ele>19</ele>
        <time>2018-06-30T20:27:51.000Z</time>
      </trkpt>
      <trkpt lat="45.88303" lon="-0.89549">
        <ele>19</ele>
        <time>2018-06-30T20:27:52.000Z</time>
      </trkpt>
      <trkpt lat="45.88304" lon="-0.89549">
        <ele>19</ele>
        <time>2018-06-30T20:27:53.000Z</time>
      </trkpt>
      <trkpt lat="45.88304" lon="-0.89549">
        <ele>20</ele>
        <time>2018-06-30T20:27:54.000Z</time>
      </trkpt>
      <trkpt lat="45.88304" lon="-0.89549">
        <ele>19</ele>
        <time>2018-06-30T20:27:55.000Z</time>
      </trkpt>
      <trkpt lat="45.88304" lon="-0.89549">
        <ele>19</ele>
        <time>2018-06-30T20:27:56.000Z</time>
      </trkpt>
      <trkpt lat="45.88304" lon="-0.89549">
        <ele>19</ele>
        <time>2018-06-30T20:27:57.000Z</time>
      </trkpt>
      <trkpt lat="45.88304" lon="-0.89549">
        <ele>19</ele>
        <time>2018-06-30T20:27:58.000Z</time>
      </trkpt>
      <trkpt lat="45.88304" lon="-0.8955">
        <ele>19</ele>
        <time>2018-06-30T20:27:59.000Z</time>
      </trkpt>
      <trkpt lat="45.88304" lon="-0.8955">
        <ele>18</ele>
        <time>2018-06-30T20:28:00.000Z</time>
      </trkpt>
      <trkpt lat="45.88304" lon="-0.89551">
        <ele>18</ele>
        <time>2018-06-30T20:28:01.000Z</time>
      </trkpt>
      <trkpt lat="45.88304" lon="-0.89551">
        <ele>18</ele>
        <time>2018-06-30T20:28:02.000Z</time>
      </trkpt>
      <trkpt lat="45.88304" lon="-0.89551">
        <ele>18</ele>
        <time>2018-06-30T20:28:03.000Z</time>
      </trkpt>
      <trkpt lat="45.88305" lon="-0.89551">
        <ele>18</ele>
        <time>2018-06-30T20:28:04.000Z</time>
      </trkpt>
      <trkpt lat="45.88305" lon="-0.89551">
        <ele>18</ele>
        <time>2018-06-30T20:28:05.000Z</time>
      </trkpt>
      <trkpt lat="45.88305" lon="-0.89551">
        <ele>17</ele>
        <time>2018-06-30T20:28:06.000Z</time>
      </trkpt>
      <trkpt lat="45.88305" lon="-0.89551">
        <ele>17</ele>
        <time>2018-06-30T20:28:07.000Z</time>
      </trkpt>
      <trkpt lat="45.88305" lon="-0.89551">
        <ele>17</ele>
        <time>2018-06-30T20:28:08.000Z</time>
      </trkpt>
      <trkpt lat="45.88305" lon="-0.89551">
        <ele>16</ele>
        <time>2018-06-30T20:28:09.000Z</time>
      </trkpt>
      <trkpt lat="45.88305" lon="-0.89551">
        <ele>16</ele>
        <time>2018-06-30T20:28:10.000Z</time>
      </trkpt>
      <trkpt lat="45.88305" lon="-0.89551">
        <ele>16</ele>
        <time>2018-06-30T20:28:11.000Z</time>
      </trkpt>
      <trkpt lat="45.88306" lon="-0.89551">
        <ele>16</ele>
        <time>2018-06-30T20:28:12.000Z</time>
      </trkpt>
      <trkpt lat="45.88306" lon="-0.89551">
        <ele>15</ele>
        <time>2018-06-30T20:28:13.000Z</time>
      </trkpt>
      <trkpt lat="45.88306" lon="-0.89551">
        <ele>15</ele>
        <time>2018-06-30T20:28:14.000Z</time>
      </trkpt>
      <trkpt lat="45.88305" lon="-0.89551">
        <ele>15</ele>
        <time>2018-06-30T20:28:15.000Z</time>
      </trkpt>
      <trkpt lat="45.88305" lon="-0.89551">
        <ele>15</ele>
        <time>2018-06-30T20:28:16.000Z</time>
      </trkpt>
      <trkpt lat="45.88305" lon="-0.89551">
        <ele>15</ele>
        <time>2018-06-30T20:28:17.000Z</time>
      </trkpt>
      <trkpt lat="45.88305" lon="-0.89551">
        <ele>15</ele>
        <time>2018-06-30T20:28:18.000Z</time>
      </trkpt>
      <trkpt lat="45.88305" lon="-0.89551">
        <ele>15</ele>
        <time>2018-06-30T20:28:19.000Z</time>
      </trkpt>
      <trkpt lat="45.88305" lon="-0.89551">
        <ele>15</ele>
        <time>2018-06-30T20:28:20.000Z</time>
      </trkpt>
      <trkpt lat="45.88305" lon="-0.89551">
        <ele>14</ele>
        <time>2018-06-30T20:28:21.000Z</time>
      </trkpt>
      <trkpt lat="45.88305" lon="-0.89551">
        <ele>14</ele>
        <time>2018-06-30T20:28:22.000Z</time>
      </trkpt>
      <trkpt lat="45.88306" lon="-0.89551">
        <ele>13</ele>
        <time>2018-06-30T20:28:23.000Z</time>
      </trkpt>
      <trkpt lat="45.88306" lon="-0.89551">
        <ele>13</ele>
        <time>2018-06-30T20:28:24.000Z</time>
      </trkpt>
      <trkpt lat="45.88306" lon="-0.89551">
        <ele>13</ele>
        <time>2018-06-30T20:28:25.000Z</time>
      </trkpt>
      <trkpt lat="45.88306" lon="-0.89551">
        <ele>13</ele>
        <time>2018-06-30T20:28:26.000Z</time>
      </trkpt>
      <trkpt lat="45.88306" lon="-0.89551">
        <ele>12</ele>
        <time>2018-06-30T20:28:27.000Z</time>
      </trkpt>
      <trkpt lat="45.88306" lon="-0.89551">
        <ele>12</ele>
        <time>2018-06-30T20:28:28.000Z</time>
      </trkpt>
      <trkpt lat="45.88306" lon="-0.89551">
        <ele>13</ele>
        <time>2018-06-30T20:28:29.000Z</time>
      </trkpt>
      <trkpt lat="45.88306" lon="-0.89551">
        <ele>14</ele>
        <time>2018-06-30T20:28:30.000Z</time>
      </trkpt>
      <trkpt lat="45.88306" lon="-0.89551">
        <ele>14</ele>
        <time>2018-06-30T20:28:31.000Z</time>
      </trkpt>
      <trkpt lat="45.88306" lon="-0.89551">
        <ele>14</ele>
        <time>2018-06-30T20:28:32.000Z</time>
      </trkpt>
      <trkpt lat="45.88306" lon="-0.89551">
        <ele>14</ele>
        <time>2018-06-30T20:28:33.000Z</time>
      </trkpt>
      <trkpt lat="45.88306" lon="-0.89551">
        <ele>13</ele>
        <time>2018-06-30T20:28:34.000Z</time>
      </trkpt>
      <trkpt lat="45.88306" lon="-0.89551">
        <ele>14</ele>
        <time>2018-06-30T20:28:35.000Z</time>
      </trkpt>
      <trkpt lat="45.88307" lon="-0.89551">
        <ele>13</ele>
        <time>2018-06-30T20:28:36.000Z</time>
      </trkpt>
      <trkpt lat="45.88307" lon="-0.89551">
        <ele>14</ele>
        <time>2018-06-30T20:28:37.000Z</time>
      </trkpt>
      <trkpt lat="45.88307" lon="-0.89551">
        <ele>13</ele>
        <time>2018-06-30T20:28:38.000Z</time>
      </trkpt>
      <trkpt lat="45.88307" lon="-0.89552">
        <ele>13</ele>
        <time>2018-06-30T20:28:39.000Z</time>
      </trkpt>
      <trkpt lat="45.88307" lon="-0.89552">
        <ele>13</ele>
        <time>2018-06-30T20:28:40.000Z</time>
      </trkpt>
      <trkpt lat="45.88308" lon="-0.89552">
        <ele>13</ele>
        <time>2018-06-30T20:28:41.000Z</time>
      </trkpt>
      <trkpt lat="45.88308" lon="-0.89552">
        <ele>13</ele>
        <time>2018-06-30T20:28:42.000Z</time>
      </trkpt>
      <trkpt lat="45.88308" lon="-0.89552">
        <ele>12</ele>
        <time>2018-06-30T20:28:43.000Z</time>
      </trkpt>
      <trkpt lat="45.88308" lon="-0.89552">
        <ele>13</ele>
        <time>2018-06-30T20:28:44.000Z</time>
      </trkpt>
      <trkpt lat="45.88308" lon="-0.89552">
        <ele>13</ele>
        <time>2018-06-30T20:28:45.000Z</time>
      </trkpt>
      <trkpt lat="45.88309" lon="-0.89553">
        <ele>13</ele>
        <time>2018-06-30T20:28:46.000Z</time>
      </trkpt>
      <trkpt lat="45.88309" lon="-0.89553">
        <ele>14</ele>
        <time>2018-06-30T20:28:47.000Z</time>
      </trkpt>
      <trkpt lat="45.88309" lon="-0.89553">
        <ele>14</ele>
        <time>2018-06-30T20:28:48.000Z</time>
      </trkpt>
      <trkpt lat="45.8831" lon="-0.89554">
        <ele>14</ele>
        <time>2018-06-30T20:28:49.000Z</time>
      </trkpt>
      <trkpt lat="45.8831" lon="-0.89554">
        <ele>14</ele>
        <time>2018-06-30T20:28:50.000Z</time>
      </trkpt>
      <trkpt lat="45.8831" lon="-0.89554">
        <ele>14</ele>
        <time>2018-06-30T20:28:51.000Z</time>
      </trkpt>
      <trkpt lat="45.8831" lon="-0.89554">
        <ele>14</ele>
        <time>2018-06-30T20:28:52.000Z</time>
      </trkpt>
      <trkpt lat="45.8831" lon="-0.89554">
        <ele>15</ele>
        <time>2018-06-30T20:28:53.000Z</time>
      </trkpt>
      <trkpt lat="45.8831" lon="-0.89554">
        <ele>15</ele>
        <time>2018-06-30T20:28:54.000Z</time>
      </trkpt>
      <trkpt lat="45.8831" lon="-0.89554">
        <ele>14</ele>
        <time>2018-06-30T20:28:55.000Z</time>
      </trkpt>
      <trkpt lat="45.8831" lon="-0.89554">
        <ele>14</ele>
        <time>2018-06-30T20:28:56.000Z</time>
      </trkpt>
      <trkpt lat="45.8831" lon="-0.89554">
        <ele>14</ele>
        <time>2018-06-30T20:28:57.000Z</time>
      </trkpt>
      <trkpt lat="45.8831" lon="-0.89554">
        <ele>13</ele>
        <time>2018-06-30T20:28:58.000Z</time>
      </trkpt>
      <trkpt lat="45.88311" lon="-0.89554">
        <ele>13</ele>
        <time>2018-06-30T20:28:59.000Z</time>
      </trkpt>
      <trkpt lat="45.88311" lon="-0.89554">
        <ele>12</ele>
        <time>2018-06-30T20:29:00.000Z</time>
      </trkpt>
      <trkpt lat="45.8831" lon="-0.89554">
        <ele>11</ele>
        <time>2018-06-30T20:29:01.000Z</time>
      </trkpt>
      <trkpt lat="45.88311" lon="-0.89554">
        <ele>13</ele>
        <time>2018-06-30T20:29:02.000Z</time>
      </trkpt>
      <trkpt lat="45.88311" lon="-0.89554">
        <ele>12</ele>
        <time>2018-06-30T20:29:03.000Z</time>
      </trkpt>
      <trkpt lat="45.88311" lon="-0.89554">
        <ele>12</ele>
        <time>2018-06-30T20:29:04.000Z</time>
      </trkpt>
      <trkpt lat="45.88311" lon="-0.89553">
        <ele>12</ele>
        <time>2018-06-30T20:29:05.000Z</time>
      </trkpt>
      <trkpt lat="45.88311" lon="-0.89553">
        <ele>11</ele>
        <time>2018-06-30T20:29:06.000Z</time>
      </trkpt>
      <trkpt lat="45.88311" lon="-0.89553">
        <ele>11</ele>
        <time>2018-06-30T20:29:07.000Z</time>
      </trkpt>
      <trkpt lat="45.88311" lon="-0.89552">
        <ele>11</ele>
        <time>2018-06-30T20:29:08.000Z</time>
      </trkpt>
      <trkpt lat="45.88311" lon="-0.89552">
        <ele>11</ele>
        <time>2018-06-30T20:29:09.000Z</time>
      </trkpt>
      <trkpt lat="45.88311" lon="-0.89552">
        <ele>11</ele>
        <time>2018-06-30T20:29:10.000Z</time>
      </trkpt>
      <trkpt lat="45.88311" lon="-0.89552">
        <ele>11</ele>
        <time>2018-06-30T20:29:11.000Z</time>
      </trkpt>
      <trkpt lat="45.88311" lon="-0.89552">
        <ele>12</ele>
        <time>2018-06-30T20:29:12.000Z</time>
      </trkpt>
      <trkpt lat="45.88311" lon="-0.89552">
        <ele>12</ele>
        <time>2018-06-30T20:29:13.000Z</time>
      </trkpt>
      <trkpt lat="45.8831" lon="-0.89552">
        <ele>12</ele>
        <time>2018-06-30T20:29:14.000Z</time>
      </trkpt>
      <trkpt lat="45.8831" lon="-0.89552">
        <ele>11</ele>
        <time>2018-06-30T20:29:15.000Z</time>
      </trkpt>
      <trkpt lat="45.8831" lon="-0.89552">
        <ele>11</ele>
        <time>2018-06-30T20:29:16.000Z</time>
      </trkpt>
      <trkpt lat="45.88309" lon="-0.89552">
        <ele>11</ele>
        <time>2018-06-30T20:29:17.000Z</time>
      </trkpt>
      <trkpt lat="45.88309" lon="-0.89552">
        <ele>11</ele>
        <time>2018-06-30T20:29:18.000Z</time>
      </trkpt>
      <trkpt lat="45.88309" lon="-0.89552">
        <ele>11</ele>
        <time>2018-06-30T20:29:19.000Z</time>
      </trkpt>
      <trkpt lat="45.88309" lon="-0.89551">
        <ele>11</ele>
        <time>2018-06-30T20:29:20.000Z</time>
      </trkpt>
      <trkpt lat="45.88309" lon="-0.89551">
        <ele>11</ele>
        <time>2018-06-30T20:29:21.000Z</time>
      </trkpt>
      <trkpt lat="45.88309" lon="-0.89551">
        <ele>11</ele>
        <time>2018-06-30T20:29:22.000Z</time>
      </trkpt>
      <trkpt lat="45.88309" lon="-0.89551">
        <ele>11</ele>
        <time>2018-06-30T20:29:23.000Z</time>
      </trkpt>
      <trkpt lat="45.88309" lon="-0.8955">
        <ele>13</ele>
        <time>2018-06-30T20:29:24.000Z</time>
      </trkpt>
      <trkpt lat="45.88309" lon="-0.8955">
        <ele>14</ele>
        <time>2018-06-30T20:29:25.000Z</time>
      </trkpt>
      <trkpt lat="45.88309" lon="-0.89549">
        <ele>14</ele>
        <time>2018-06-30T20:29:26.000Z</time>
      </trkpt>
      <trkpt lat="45.88309" lon="-0.89549">
        <ele>14</ele>
        <time>2018-06-30T20:29:27.000Z</time>
      </trkpt>
      <trkpt lat="45.88309" lon="-0.8955">
        <ele>14</ele>
        <time>2018-06-30T20:29:28.000Z</time>
      </trkpt>
      <trkpt lat="45.88309" lon="-0.8955">
        <ele>14</ele>
        <time>2018-06-30T20:29:29.000Z</time>
      </trkpt>
      <trkpt lat="45.8831" lon="-0.8955">
        <ele>14</ele>
        <time>2018-06-30T20:29:30.000Z</time>
      </trkpt>
      <trkpt lat="45.8831" lon="-0.8955">
        <ele>14</ele>
        <time>2018-06-30T20:29:31.000Z</time>
      </trkpt>
      <trkpt lat="45.88309" lon="-0.8955">
        <ele>15</ele>
        <time>2018-06-30T20:29:32.000Z</time>
      </trkpt>
      <trkpt lat="45.88309" lon="-0.89551">
        <ele>16</ele>
        <time>2018-06-30T20:29:33.000Z</time>
      </trkpt>
      <trkpt lat="45.88309" lon="-0.89551">
        <ele>17</ele>
        <time>2018-06-30T20:29:34.000Z</time>
      </trkpt>
      <trkpt lat="45.88309" lon="-0.89551">
        <ele>17</ele>
        <time>2018-06-30T20:29:35.000Z</time>
      </trkpt>
      <trkpt lat="45.88309" lon="-0.89551">
        <ele>18</ele>
        <time>2018-06-30T20:29:36.000Z</time>
      </trkpt>
      <trkpt lat="45.88309" lon="-0.89551">
        <ele>18</ele>
        <time>2018-06-30T20:29:37.000Z</time>
      </trkpt>
      <trkpt lat="45.88309" lon="-0.89551">
        <ele>18</ele>
        <time>2018-06-30T20:29:38.000Z</time>
      </trkpt>
      <trkpt lat="45.88309" lon="-0.89551">
        <ele>17</ele>
        <time>2018-06-30T20:29:39.000Z</time>
      </trkpt>
      <trkpt lat="45.88309" lon="-0.89551">
        <ele>17</ele>
        <time>2018-06-30T20:29:40.000Z</time>
      </trkpt>
      <trkpt lat="45.88309" lon="-0.89551">
        <ele>17</ele>
        <time>2018-06-30T20:29:41.000Z</time>
      </trkpt>
      <trkpt lat="45.88309" lon="-0.89551">
        <ele>16</ele>
        <time>2018-06-30T20:29:42.000Z</time>
      </trkpt>
      <trkpt lat="45.88309" lon="-0.89551">
        <ele>15</ele>
        <time>2018-06-30T20:29:43.000Z</time>
      </trkpt>
      <trkpt lat="45.88309" lon="-0.89551">
        <ele>14</ele>
        <time>2018-06-30T20:29:44.000Z</time>
      </trkpt>
      <trkpt lat="45.88309" lon="-0.89551">
        <ele>14</ele>
        <time>2018-06-30T20:29:45.000Z</time>
      </trkpt>
      <trkpt lat="45.88309" lon="-0.89551">
        <ele>13</ele>
        <time>2018-06-30T20:29:46.000Z</time>
      </trkpt>
      <trkpt lat="45.88309" lon="-0.89551">
        <ele>13</ele>
        <time>2018-06-30T20:29:47.000Z</time>
      </trkpt>
      <trkpt lat="45.88309" lon="-0.89552">
        <ele>13</ele>
        <time>2018-06-30T20:29:48.000Z</time>
      </trkpt>
      <trkpt lat="45.88309" lon="-0.89552">
        <ele>13</ele>
        <time>2018-06-30T20:29:49.000Z</time>
      </trkpt>
      <trkpt lat="45.88309" lon="-0.89552">
        <ele>13</ele>
        <time>2018-06-30T20:29:50.000Z</time>
      </trkpt>
      <trkpt lat="45.88308" lon="-0.89552">
        <ele>13</ele>
        <time>2018-06-30T20:29:51.000Z</time>
      </trkpt>
      <trkpt lat="45.88308" lon="-0.89552">
        <ele>13</ele>
        <time>2018-06-30T20:29:52.000Z</time>
      </trkpt>
      <trkpt lat="45.88308" lon="-0.89552">
        <ele>13</ele>
        <time>2018-06-30T20:29:53.000Z</time>
      </trkpt>
      <trkpt lat="45.88308" lon="-0.89552">
        <ele>13</ele>
        <time>2018-06-30T20:29:54.000Z</time>
      </trkpt>
      <trkpt lat="45.88308" lon="-0.89553">
        <ele>13</ele>
        <time>2018-06-30T20:29:55.000Z</time>
      </trkpt>
      <trkpt lat="45.88308" lon="-0.89553">
        <ele>13</ele>
        <time>2018-06-30T20:29:56.000Z</time>
      </trkpt>
      <trkpt lat="45.88308" lon="-0.89553">
        <ele>13</ele>
        <time>2018-06-30T20:29:57.000Z</time>
      </trkpt>
      <trkpt lat="45.88308" lon="-0.89553">
        <ele>13</ele>
        <time>2018-06-30T20:29:58.000Z</time>
      </trkpt>
      <trkpt lat="45.88307" lon="-0.89553">
        <ele>14</ele>
        <time>2018-06-30T20:29:59.000Z</time>
      </trkpt>
      <trkpt lat="45.88307" lon="-0.89553">
        <ele>14</ele>
        <time>2018-06-30T20:30:00.000Z</time>
      </trkpt>
    </trkseg>
  </trk>
</gpx>